Hoppmann, Mario; Tippenhauer, Sandra; Pineda-Metz, Santiago E A (2026): Continuous thermosalinograph oceanography along RV HEINCKE cruise track HE663 [dataset]. Alfred Wegener Institute, Helmholtz Centre for Polar and Marine Research, Bremerhaven, PANGAEA, https://doi.pangaea.de/10.1594/PANGAEA.993560 (DOI registration in progress)
Always quote citation above when using data! You can download the citation in several formats below.
Published: 2026-05-05
Abstract:
Raw data acquired by a thermosalinograph (SBE21, Sea-Bird GmbH) in combination with an external temperature sensor (SBE38, Sea-Bird GmbH) aboard RV Heincke were processed to generate a calibrated, quality-controlled dataset of seawater temperature and salinity. The raw sensor data were initially retrieved from the DSHIP database (https://dship.awi.de) at a temporal resolution of 1 second and converted into temperature and conductivity using the pre-deployment calibration coefficients. The thermosalinograph system aboard RV Heincke is typically replaced after each expedition season, with a recalibration conducted at the manufacturer's facilities after each exchange. After post-cruise recalibration of the instruments, additional correction factors were calculated and applied to account for sensor drift. Salinity was calculated from internally measured temperatures and conductivities following the Practical Salinity Scale (PSS-78). The processed dataset is provided as 1-minute averages of salinity and seawater external temperature, synchronized with the positional data from the expedition's master track. Quality flags were assigned in accordance with the SeaDataNet Data Quality Control Procedures (May 2010).
Related to:
Pineda-Metz, Santiago E A (2025): Concepts for Reducing the Effects of Anthropogenic pressures and uses on marine Ecosystems and on Biodiversity, Cruise No. HE663, 17.06.2025 - 01.07.2025, Bremerhaven (Germany) - Bremerhaven (Germany). HEINCKE-Berichte, Begutachtungspanel Forschungsschiffe, HE663, 10 pp, https://doi.org/10.48433/cr_he663
Pineda-Metz, Santiago E A (2025): Master tracks in different resolutions of HEINCKE cruise HE663, Bremerhaven - Bremerhaven, 2025-06-17 - 2025-07-01 [dataset]. Alfred Wegener Institute, Helmholtz Centre for Polar and Marine Research, Bremerhaven, PANGAEA, https://doi.org/10.1594/PANGAEA.983825
Data processing report:
Hoppmann, Mario; Tippenhauer, Sandra (2026): Continuous thermosalinograph oceanography along RV HEINCKE cruise track HE663 - Data Processing Report. FIELAX - Gesellschaft für wissenschaftliche Datenverarbeitung mbH, HE663_TSG_nav.pdf
Project(s):
DAM Underway Research Data (DAM_Underway)
Physical Oceanography @ AWI (AWI_PhyOce)
Coverage:
Median Latitude: 54.108629 * Median Longitude: 6.801090 * South-bound Latitude: 53.693127 * West-bound Longitude: 6.148551 * North-bound Latitude: 54.863021 * East-bound Longitude: 7.947323
Date/Time Start: 2025-06-17T13:39:00 * Date/Time End: 2025-06-30T16:14:00
Minimum DEPTH, water: 2.0 m * Maximum DEPTH, water: 2.0 m
Event(s):
HE663_0_Underway-3 * Latitude Start: 53.813653 * Longitude Start: 7.236728 * Latitude End: 54.293903 * Longitude End: 7.858769 * Date/Time Start: 2025-06-17T13:45:00 * Date/Time End: 2025-06-30T16:18:38 * Elevation Start: -19.0 m * Elevation End: -19.0 m * O2A Registry URI: https://registry.o2a-data.de/items/8558 * Campaign: HE663 (CREATE) * Basis: Heincke * Method/Device: Thermosalinograph (TSG) * Comment: interrupted at Wanger-Reede and DEHGL
Parameter(s):
License:
Creative Commons Attribution 4.0 International (CC-BY-4.0)
Status:
Curation Level: Enhanced curation (CurationLevelC) * Processing Level: PANGAEA data processing level 2 (ProcLevel2)
Size:
67566 data points
Data
| 1 Date/Time | 2 Latitude | 3 Longitude | 4 Depth water [m] | 5 Temp [°C] | 6 QF water temp | 7 Cond [mS/cm] | 8 T intern [°C] | 9 Sal | 10 QF sal |
|---|---|---|---|---|---|---|---|---|---|
| 2025-06-17T13:39:00 | 53.815015 | 7.247252 | 2.0 | 16.085 | 2 | 40.859 | 16.360 | 32.003 | 2 |
| 2025-06-17T13:40:00 | 53.814771 | 7.245535 | 2.0 | 16.054 | 2 | 40.838 | 16.291 | 32.040 | 2 |
| 2025-06-17T13:41:00 | 53.814539 | 7.243809 | 2.0 | 16.025 | 2 | 40.811 | 16.250 | 32.050 | 2 |
| 2025-06-17T13:42:00 | 53.814312 | 7.242094 | 2.0 | 15.990 | 2 | 40.789 | 16.214 | 32.059 | 2 |
| 2025-06-17T13:43:00 | 53.814099 | 7.240383 | 2.0 | 15.994 | 2 | 40.773 | 16.190 | 32.065 | 2 |
| 2025-06-17T13:44:00 | 53.813877 | 7.238664 | 2.0 | 15.980 | 2 | 40.762 | 16.172 | 32.070 | 2 |
| 2025-06-17T13:45:00 | 53.813643 | 7.236912 | 2.0 | 15.984 | 2 | 40.770 | 16.175 | 32.074 | 2 |
| 2025-06-17T13:46:00 | 53.813408 | 7.235122 | 2.0 | 15.949 | 2 | 40.746 | 16.141 | 32.081 | 2 |
| 2025-06-17T13:47:00 | 53.813158 | 7.233328 | 2.0 | 15.945 | 2 | 40.737 | 16.136 | 32.077 | 2 |
| 2025-06-17T13:48:00 | 53.812914 | 7.231522 | 2.0 | 15.912 | 2 | 40.728 | 16.123 | 32.079 | 2 |
| 2025-06-17T13:49:00 | 53.812692 | 7.229689 | 2.0 | 15.868 | 2 | 40.695 | 16.083 | 32.083 | 2 |
| 2025-06-17T13:50:00 | 53.812457 | 7.227844 | 2.0 | 15.851 | 2 | 40.661 | 16.051 | 32.079 | 2 |
| 2025-06-17T13:51:00 | 53.812209 | 7.225995 | 2.0 | 15.826 | 2 | 40.642 | 16.028 | 32.080 | 2 |
| 2025-06-17T13:52:00 | 53.811966 | 7.224118 | 2.0 | 15.850 | 2 | 40.623 | 16.011 | 32.077 | 2 |
| 2025-06-17T13:53:00 | 53.811691 | 7.222235 | 2.0 | 15.843 | 2 | 40.641 | 16.027 | 32.080 | 2 |
| 2025-06-17T13:54:00 | 53.811409 | 7.220394 | 2.0 | 15.824 | 2 | 40.639 | 16.013 | 32.090 | 2 |
| 2025-06-17T13:55:00 | 53.811138 | 7.218564 | 2.0 | 15.826 | 2 | 40.636 | 16.000 | 32.098 | 2 |
| 2025-06-17T13:56:00 | 53.810876 | 7.216723 | 2.0 | 15.815 | 2 | 40.649 | 16.002 | 32.108 | 2 |
| 2025-06-17T13:57:00 | 53.810620 | 7.214868 | 2.0 | 15.798 | 2 | 40.649 | 15.987 | 32.120 | 2 |
| 2025-06-17T13:58:00 | 53.810395 | 7.213012 | 2.0 | 15.797 | 2 | 40.658 | 15.982 | 32.132 | 2 |
| 2025-06-17T13:59:00 | 53.810176 | 7.211268 | 2.0 | 15.781 | 2 | 40.654 | 15.965 | 32.142 | 2 |
| 2025-06-17T14:00:00 | 53.809933 | 7.209623 | 2.0 | 15.784 | 2 | 40.656 | 15.959 | 32.149 | 2 |
| 2025-06-17T14:01:00 | 53.809710 | 7.207995 | 2.0 | 15.764 | 2 | 40.663 | 15.952 | 32.160 | 2 |
| 2025-06-17T14:02:00 | 53.809489 | 7.206398 | 2.0 | 15.770 | 2 | 40.664 | 15.940 | 32.171 | 2 |
| 2025-06-17T14:03:00 | 53.809268 | 7.204816 | 2.0 | 15.772 | 2 | 40.680 | 15.941 | 32.184 | 2 |
| 2025-06-17T14:04:00 | 53.809046 | 7.203262 | 2.0 | 15.773 | 2 | 40.713 | 15.951 | 32.205 | 2 |
| 2025-06-17T14:05:00 | 53.808831 | 7.201711 | 2.0 | 15.760 | 2 | 40.727 | 15.942 | 32.225 | 2 |
| 2025-06-17T14:06:00 | 53.808636 | 7.200176 | 2.0 | 15.724 | 2 | 40.716 | 15.925 | 32.229 | 2 |
| 2025-06-17T14:07:00 | 53.808450 | 7.198637 | 2.0 | 15.724 | 2 | 40.323 | 15.900 | 31.903 | 2 |
| 2025-06-17T14:08:00 | 53.808248 | 7.197088 | 2.0 | 15.696 | 2 | 40.692 | 15.897 | 32.231 | 2 |
| 2025-06-17T14:09:00 | 53.808025 | 7.195551 | 2.0 | 15.684 | 2 | 40.684 | 15.871 | 32.245 | 2 |
| 2025-06-17T14:10:00 | 53.807781 | 7.193998 | 2.0 | 15.677 | 2 | 40.681 | 15.853 | 32.257 | 2 |
| 2025-06-17T14:11:00 | 53.807511 | 7.192448 | 2.0 | 15.675 | 2 | 40.703 | 15.858 | 32.272 | 2 |
| 2025-06-17T14:12:00 | 53.807271 | 7.190866 | 2.0 | 15.664 | 2 | 40.138 | 15.849 | 31.780 | 2 |
| 2025-06-17T14:13:00 | 53.807059 | 7.189268 | 2.0 | 15.658 | 2 | 40.735 | 15.848 | 32.309 | 2 |
| 2025-06-17T14:14:00 | 53.806868 | 7.187680 | 2.0 | 15.663 | 2 | 40.747 | 15.837 | 32.328 | 2 |
| 2025-06-17T14:15:00 | 53.806651 | 7.186143 | 2.0 | 15.670 | 2 | 40.080 | 15.836 | 31.740 | 2 |
| 2025-06-17T14:16:00 | 53.806408 | 7.184621 | 2.0 | 15.766 | 2 | 40.792 | 15.860 | 32.349 | 2 |
| 2025-06-17T14:17:00 | 53.806144 | 7.183111 | 2.0 | 15.837 | 2 | 40.730 | 15.930 | 32.237 | 2 |
| 2025-06-17T14:18:00 | 53.805892 | 7.181616 | 2.0 | 15.944 | 2 | 40.831 | 16.043 | 32.235 | 2 |
| 2025-06-17T14:19:00 | 53.805682 | 7.180126 | 2.0 | 15.935 | 2 | 40.902 | 16.103 | 32.248 | 2 |
| 2025-06-17T14:20:00 | 53.805536 | 7.178626 | 2.0 | 15.907 | 2 | 40.605 | 16.094 | 31.995 | 2 |
| 2025-06-17T14:21:00 | 53.805383 | 7.177119 | 2.0 | 15.890 | 2 | 40.538 | 16.074 | 31.952 | 2 |
| 2025-06-17T14:22:00 | 53.805209 | 7.175608 | 2.0 | 15.902 | 2 | 40.948 | 16.063 | 32.321 | 2 |
| 2025-06-17T14:23:00 | 53.805016 | 7.174094 | 2.0 | 15.902 | 2 | 40.672 | 16.067 | 32.075 | 2 |
| 2025-06-17T14:24:00 | 53.804800 | 7.172573 | 2.0 | 15.909 | 2 | 40.942 | 16.074 | 32.307 | 2 |
| 2025-06-17T14:25:00 | 53.804577 | 7.171049 | 2.0 | 15.906 | 2 | 40.829 | 16.077 | 32.205 | 2 |
| 2025-06-17T14:26:00 | 53.804359 | 7.169545 | 2.0 | 15.918 | 2 | 40.632 | 16.076 | 32.033 | 2 |
| 2025-06-17T14:27:00 | 53.804154 | 7.168049 | 2.0 | 15.929 | 2 | 40.670 | 16.085 | 32.059 | 2 |
| 2025-06-17T14:28:00 | 53.803962 | 7.166547 | 2.0 | 15.939 | 2 | 40.643 | 16.099 | 32.024 | 2 |
| 2025-06-17T14:29:00 | 53.803762 | 7.165041 | 2.0 | 15.940 | 2 | 40.729 | 16.105 | 32.095 | 2 |
| 2025-06-17T14:30:00 | 53.803566 | 7.163540 | 2.0 | 15.937 | 2 | 40.600 | 16.106 | 31.981 | 2 |
| 2025-06-17T14:31:00 | 53.803365 | 7.162043 | 2.0 | 15.968 | 2 | 40.945 | 16.113 | 32.278 | 2 |
| 2025-06-17T14:32:00 | 53.803168 | 7.160555 | 2.0 | 15.979 | 2 | 40.957 | 16.133 | 32.272 | 2 |
| 2025-06-17T14:33:00 | 53.802963 | 7.159073 | 2.0 | 15.982 | 2 | 40.875 | 16.146 | 32.190 | 2 |
| 2025-06-17T14:34:00 | 53.802762 | 7.157582 | 2.0 | 16.008 | 2 | 40.760 | 16.153 | 32.083 | 2 |
| 2025-06-17T14:35:00 | 53.802570 | 7.156090 | 2.0 | 15.997 | 2 | 40.922 | 16.170 | 32.212 | 2 |
| 2025-06-17T14:36:00 | 53.802378 | 7.154586 | 2.0 | 15.969 | 2 | 40.752 | 16.163 | 32.068 | 2 |
| 2025-06-17T14:37:00 | 53.802174 | 7.153099 | 2.0 | 15.958 | 2 | 40.643 | 16.139 | 31.992 | 2 |
| 2025-06-17T14:38:00 | 53.801961 | 7.151620 | 2.0 | 15.969 | 2 | 40.769 | 16.131 | 32.109 | 2 |
| 2025-06-17T14:39:00 | 53.801761 | 7.150128 | 2.0 | 16.000 | 2 | 40.708 | 16.145 | 32.044 | 2 |
| 2025-06-17T14:40:00 | 53.801552 | 7.148624 | 2.0 | 16.048 | 2 | 40.818 | 16.175 | 32.116 | 2 |
| 2025-06-17T14:41:00 | 53.801332 | 7.147148 | 2.0 | 16.116 | 2 | 40.926 | 16.224 | 32.172 | 2 |
| 2025-06-17T14:42:00 | 53.801109 | 7.145659 | 2.0 | 16.270 | 2 | 40.899 | 16.309 | 32.079 | 2 |
| 2025-06-17T14:43:00 | 53.800874 | 7.144175 | 2.0 | 16.384 | 2 | 40.952 | 16.449 | 32.013 | 2 |
| 2025-06-17T14:44:00 | 53.800647 | 7.142711 | 2.0 | 16.434 | 2 | 40.967 | 16.547 | 31.948 | 2 |
| 2025-06-17T14:45:00 | 53.800435 | 7.141293 | 2.0 | 16.452 | 2 | 41.146 | 16.599 | 32.062 | 2 |
| 2025-06-17T14:46:00 | 53.800241 | 7.139902 | 2.0 | 16.418 | 2 | 40.979 | 16.608 | 31.910 | 2 |
| 2025-06-17T14:47:00 | 53.800052 | 7.138527 | 2.0 | 16.448 | 2 | 41.107 | 16.592 | 32.034 | 2 |
| 2025-06-17T14:48:00 | 53.799877 | 7.137128 | 2.0 | 16.425 | 2 | 40.987 | 16.603 | 31.921 | 2 |
| 2025-06-17T14:49:00 | 53.799685 | 7.135723 | 2.0 | 16.438 | 2 | 40.969 | 16.594 | 31.912 | 2 |
| 2025-06-17T14:50:00 | 53.799485 | 7.134344 | 2.0 | 16.441 | 2 | 41.077 | 16.599 | 32.002 | 2 |
| 2025-06-17T14:51:00 | 53.799295 | 7.132954 | 2.0 | 16.447 | 2 | 41.049 | 16.606 | 31.972 | 2 |
| 2025-06-17T14:52:00 | 53.799094 | 7.131564 | 2.0 | 16.447 | 2 | 40.988 | 16.608 | 31.917 | 2 |
| 2025-06-17T14:53:00 | 53.798898 | 7.130173 | 2.0 | 16.438 | 2 | 40.990 | 16.610 | 31.918 | 2 |
| 2025-06-17T14:54:00 | 53.798705 | 7.128742 | 2.0 | 16.424 | 2 | 41.003 | 16.600 | 31.937 | 2 |
| 2025-06-17T14:55:00 | 53.798495 | 7.127313 | 2.0 | 16.423 | 2 | 41.018 | 16.589 | 31.959 | 2 |
| 2025-06-17T14:56:00 | 53.798276 | 7.125907 | 2.0 | 16.426 | 2 | 40.976 | 16.589 | 31.922 | 2 |
| 2025-06-17T14:57:00 | 53.798089 | 7.124465 | 2.0 | 16.407 | 2 | 40.995 | 16.585 | 31.942 | 2 |
| 2025-06-17T14:58:00 | 53.797902 | 7.123011 | 2.0 | 16.406 | 2 | 40.962 | 16.572 | 31.924 | 2 |
| 2025-06-17T14:59:00 | 53.797698 | 7.121556 | 2.0 | 16.425 | 2 | 41.021 | 16.577 | 31.971 | 2 |
| 2025-06-17T15:00:00 | 53.797482 | 7.120098 | 2.0 | 16.423 | 2 | 40.997 | 16.588 | 31.941 | 2 |
| 2025-06-17T15:01:00 | 53.797255 | 7.118669 | 2.0 | 16.421 | 2 | 41.010 | 16.590 | 31.951 | 2 |
| 2025-06-17T15:02:00 | 53.797033 | 7.117189 | 2.0 | 16.436 | 2 | 41.040 | 16.586 | 31.980 | 2 |
| 2025-06-17T15:03:00 | 53.796804 | 7.115726 | 2.0 | 16.448 | 2 | 41.075 | 16.608 | 31.993 | 2 |
| 2025-06-17T15:04:00 | 53.796573 | 7.114279 | 2.0 | 16.444 | 2 | 41.051 | 16.612 | 31.969 | 2 |
| 2025-06-17T15:05:00 | 53.796359 | 7.112821 | 2.0 | 16.434 | 2 | 41.029 | 16.603 | 31.957 | 2 |
| 2025-06-17T15:06:00 | 53.796159 | 7.111326 | 2.0 | 16.454 | 2 | 41.086 | 16.599 | 32.010 | 2 |
| 2025-06-17T15:07:00 | 53.795971 | 7.109771 | 2.0 | 16.430 | 2 | 41.088 | 16.621 | 31.994 | 2 |
| 2025-06-17T15:08:00 | 53.795747 | 7.108205 | 2.0 | 16.405 | 2 | 41.083 | 16.589 | 32.015 | 2 |
| 2025-06-17T15:09:00 | 53.795505 | 7.106623 | 2.0 | 16.418 | 2 | 41.032 | 16.562 | 31.992 | 2 |
| 2025-06-17T15:10:00 | 53.795270 | 7.105002 | 2.0 | 16.451 | 2 | 41.081 | 16.598 | 32.006 | 2 |
| 2025-06-17T15:11:00 | 53.795048 | 7.103350 | 2.0 | 16.441 | 2 | 41.101 | 16.602 | 32.020 | 2 |
| 2025-06-17T15:12:00 | 53.794802 | 7.101712 | 2.0 | 16.443 | 2 | 41.099 | 16.616 | 32.007 | 2 |
| 2025-06-17T15:13:00 | 53.794557 | 7.100110 | 2.0 | 16.414 | 2 | 41.089 | 16.603 | 32.009 | 2 |
| 2025-06-17T15:14:00 | 53.794344 | 7.098482 | 2.0 | 16.376 | 2 | 41.061 | 16.577 | 32.006 | 2 |
| 2025-06-17T15:15:00 | 53.794109 | 7.096864 | 2.0 | 16.352 | 2 | 41.029 | 16.539 | 32.008 | 2 |
| 2025-06-17T15:16:00 | 53.793848 | 7.095256 | 2.0 | 16.431 | 2 | 41.019 | 16.520 | 32.015 | 2 |
| 2025-06-17T15:17:00 | 53.793568 | 7.093647 | 2.0 | 16.449 | 2 | 41.116 | 16.604 | 32.032 | 2 |
| 2025-06-17T15:18:00 | 53.793293 | 7.092011 | 2.0 | 16.466 | 2 | 41.143 | 16.611 | 32.050 | 2 |
| 2025-06-17T15:19:00 | 53.793046 | 7.090373 | 2.0 | 16.484 | 2 | 41.190 | 16.637 | 32.070 | 2 |
| 2025-06-17T15:20:00 | 53.792827 | 7.088760 | 2.0 | 16.444 | 2 | 41.225 | 16.638 | 32.099 | 2 |
| 2025-06-17T15:21:00 | 53.792611 | 7.087148 | 2.0 | 16.468 | 2 | 41.222 | 16.617 | 32.114 | 2 |
| 2025-06-17T15:22:00 | 53.792383 | 7.085539 | 2.0 | 16.458 | 2 | 41.244 | 16.628 | 32.124 | 2 |
| 2025-06-17T15:23:00 | 53.792150 | 7.083924 | 2.0 | 16.467 | 2 | 41.271 | 16.630 | 32.146 | 2 |
| 2025-06-17T15:24:00 | 53.791894 | 7.082305 | 2.0 | 16.452 | 2 | 41.279 | 16.622 | 32.159 | 2 |
| 2025-06-17T15:25:00 | 53.791641 | 7.080692 | 2.0 | 16.457 | 2 | 41.296 | 16.622 | 32.174 | 2 |
| 2025-06-17T15:26:00 | 53.791421 | 7.079081 | 2.0 | 16.445 | 2 | 41.316 | 16.620 | 32.193 | 2 |
| 2025-06-17T15:27:00 | 53.791198 | 7.077507 | 2.0 | 16.434 | 2 | 41.310 | 16.607 | 32.198 | 2 |
| 2025-06-17T15:28:00 | 53.790970 | 7.075982 | 2.0 | 16.445 | 2 | 41.307 | 16.603 | 32.199 | 2 |
| 2025-06-17T15:29:00 | 53.790751 | 7.074485 | 2.0 | 16.459 | 2 | 41.321 | 16.615 | 32.201 | 2 |
| 2025-06-17T15:30:00 | 53.790536 | 7.072961 | 2.0 | 16.452 | 2 | 41.324 | 16.614 | 32.205 | 2 |
| 2025-06-17T15:31:00 | 53.790312 | 7.071434 | 2.0 | 16.438 | 2 | 41.338 | 16.624 | 32.209 | 2 |
| 2025-06-17T15:32:00 | 53.790083 | 7.069906 | 2.0 | 16.373 | 2 | 41.309 | 16.582 | 32.217 | 2 |
| 2025-06-17T15:33:00 | 53.789846 | 7.068380 | 2.0 | 16.425 | 2 | 41.286 | 16.555 | 32.219 | 2 |
| 2025-06-17T15:34:00 | 53.789615 | 7.066866 | 2.0 | 16.355 | 2 | 41.318 | 16.577 | 32.229 | 2 |
| 2025-06-17T15:35:00 | 53.789394 | 7.065355 | 2.0 | 16.315 | 2 | 41.268 | 16.509 | 32.240 | 2 |
| 2025-06-17T15:36:00 | 53.789175 | 7.063809 | 2.0 | 16.342 | 2 | 41.249 | 16.485 | 32.243 | 2 |
| 2025-06-17T15:37:00 | 53.788962 | 7.062239 | 2.0 | 16.318 | 2 | 41.272 | 16.502 | 32.250 | 2 |
| 2025-06-17T15:38:00 | 53.788750 | 7.060672 | 2.0 | 16.319 | 2 | 41.268 | 16.490 | 32.256 | 2 |
| 2025-06-17T15:39:00 | 53.788507 | 7.059156 | 2.0 | 16.342 | 2 | 41.269 | 16.486 | 32.260 | 2 |
| 2025-06-17T15:40:00 | 53.788278 | 7.057620 | 2.0 | 16.321 | 2 | 41.297 | 16.502 | 32.271 | 2 |
| 2025-06-17T15:41:00 | 53.788043 | 7.056067 | 2.0 | 16.298 | 2 | 41.291 | 16.484 | 32.281 | 2 |
| 2025-06-17T15:42:00 | 53.787813 | 7.054506 | 2.0 | 16.250 | 2 | 41.267 | 16.452 | 32.286 | 2 |
| 2025-06-17T15:43:00 | 53.787592 | 7.052929 | 2.0 | 16.283 | 2 | 41.243 | 16.425 | 32.286 | 2 |
| 2025-06-17T15:44:00 | 53.787360 | 7.051392 | 2.0 | 16.251 | 2 | 41.259 | 16.441 | 32.288 | 2 |
| 2025-06-17T15:45:00 | 53.787131 | 7.049877 | 2.0 | 16.241 | 2 | 41.242 | 16.416 | 32.293 | 2 |
| 2025-06-17T15:46:00 | 53.786914 | 7.048321 | 2.0 | 16.234 | 2 | 41.240 | 16.407 | 32.298 | 2 |
| 2025-06-17T15:47:00 | 53.786689 | 7.046733 | 2.0 | 16.240 | 2 | 41.239 | 16.402 | 32.302 | 2 |
| 2025-06-17T15:48:00 | 53.786449 | 7.045124 | 2.0 | 16.259 | 2 | 41.251 | 16.411 | 32.305 | 2 |
| 2025-06-17T15:49:00 | 53.786208 | 7.043532 | 2.0 | 16.260 | 2 | 41.271 | 16.423 | 32.313 | 2 |
| 2025-06-17T15:50:00 | 53.785975 | 7.041915 | 2.0 | 16.291 | 2 | 41.288 | 16.436 | 32.317 | 2 |
| 2025-06-17T15:51:00 | 53.785752 | 7.040256 | 2.0 | 16.265 | 2 | 41.308 | 16.452 | 32.321 | 2 |
| 2025-06-17T15:52:00 | 53.785517 | 7.038577 | 2.0 | 16.266 | 2 | 41.288 | 16.431 | 32.321 | 2 |
| 2025-06-17T15:53:00 | 53.785249 | 7.036903 | 2.0 | 16.287 | 2 | 41.291 | 16.436 | 32.319 | 2 |
| 2025-06-17T15:54:00 | 53.784963 | 7.035238 | 2.0 | 16.284 | 2 | 41.306 | 16.449 | 32.322 | 2 |
| 2025-06-17T15:55:00 | 53.784695 | 7.033607 | 2.0 | 16.295 | 2 | 41.309 | 16.452 | 32.322 | 2 |
| 2025-06-17T15:56:00 | 53.784451 | 7.032050 | 2.0 | 16.298 | 2 | 41.317 | 16.461 | 32.322 | 2 |
| 2025-06-17T15:57:00 | 53.784242 | 7.030534 | 2.0 | 16.299 | 2 | 41.317 | 16.462 | 32.321 | 2 |
| 2025-06-17T15:58:00 | 53.784044 | 7.029062 | 2.0 | 16.307 | 2 | 41.321 | 16.467 | 32.321 | 2 |
| 2025-06-17T15:59:00 | 53.783838 | 7.027609 | 2.0 | 16.327 | 2 | 41.326 | 16.474 | 32.319 | 2 |
| 2025-06-17T16:00:00 | 53.783631 | 7.026175 | 2.0 | 16.316 | 2 | 41.339 | 16.490 | 32.318 | 2 |
| 2025-06-17T16:01:00 | 53.783428 | 7.024743 | 2.0 | 16.315 | 2 | 41.328 | 16.479 | 32.317 | 2 |
| 2025-06-17T16:02:00 | 53.783224 | 7.023276 | 2.0 | 16.330 | 2 | 41.335 | 16.487 | 32.317 | 2 |
| 2025-06-17T16:03:00 | 53.783006 | 7.021785 | 2.0 | 16.351 | 2 | 41.349 | 16.500 | 32.318 | 2 |
| 2025-06-17T16:04:00 | 53.782759 | 7.020333 | 2.0 | 16.377 | 2 | 41.369 | 16.518 | 32.321 | 2 |
| 2025-06-17T16:05:00 | 53.782505 | 7.018883 | 2.0 | 16.386 | 2 | 41.396 | 16.543 | 32.325 | 2 |
| 2025-06-17T16:06:00 | 53.782252 | 7.017418 | 2.0 | 16.409 | 2 | 41.409 | 16.555 | 32.326 | 2 |
| 2025-06-17T16:07:00 | 53.782019 | 7.015940 | 2.0 | 16.441 | 2 | 41.432 | 16.585 | 32.322 | 2 |
| 2025-06-17T16:08:00 | 53.781790 | 7.014482 | 2.0 | 16.457 | 2 | 41.441 | 16.595 | 32.322 | 2 |
| 2025-06-17T16:09:00 | 53.781581 | 7.013026 | 2.0 | 16.477 | 2 | 41.460 | 16.624 | 32.315 | 2 |
| 2025-06-17T16:10:00 | 53.781379 | 7.011597 | 2.0 | 16.489 | 2 | 41.477 | 16.647 | 32.311 | 2 |
| 2025-06-17T16:11:00 | 53.781190 | 7.010154 | 2.0 | 16.503 | 2 | 41.481 | 16.654 | 32.309 | 2 |
| 2025-06-17T16:12:00 | 53.780999 | 7.008702 | 2.0 | 16.526 | 2 | 41.489 | 16.670 | 32.303 | 2 |
| 2025-06-17T16:13:00 | 53.780802 | 7.007294 | 2.0 | 16.550 | 2 | 41.499 | 16.692 | 32.294 | 2 |
| 2025-06-17T16:14:00 | 53.780613 | 7.005887 | 2.0 | 16.524 | 2 | 41.506 | 16.706 | 32.289 | 2 |
| 2025-06-17T16:15:00 | 53.780406 | 7.004487 | 2.0 | 16.487 | 2 | 41.477 | 16.673 | 32.290 | 2 |
| 2025-06-17T16:16:00 | 53.780217 | 7.003053 | 2.0 | 16.482 | 2 | 41.456 | 16.654 | 32.287 | 2 |
| 2025-06-17T16:17:00 | 53.780002 | 7.001640 | 2.0 | 16.476 | 2 | 41.447 | 16.647 | 32.285 | 2 |
| 2025-06-17T16:18:00 | 53.779801 | 7.000208 | 2.0 | 16.515 | 2 | 41.442 | 16.648 | 32.280 | 2 |
| 2025-06-17T16:19:00 | 53.779594 | 6.998771 | 2.0 | 16.550 | 2 | 41.468 | 16.686 | 32.272 | 2 |
| 2025-06-17T16:20:00 | 53.779404 | 6.997338 | 2.0 | 16.561 | 2 | 41.486 | 16.716 | 32.263 | 2 |
| 2025-06-17T16:21:00 | 53.779195 | 6.995935 | 2.0 | 16.578 | 2 | 41.487 | 16.721 | 32.260 | 2 |
| 2025-06-17T16:22:00 | 53.778983 | 6.994542 | 2.0 | 16.579 | 2 | 41.496 | 16.740 | 32.253 | 2 |
| 2025-06-17T16:23:00 | 53.778781 | 6.993148 | 2.0 | 16.583 | 2 | 41.490 | 16.739 | 32.248 | 2 |
| 2025-06-17T16:24:00 | 53.778559 | 6.991821 | 2.0 | 16.594 | 2 | 41.493 | 16.751 | 32.241 | 2 |
| 2025-06-17T16:25:00 | 53.778336 | 6.990575 | 2.0 | 16.609 | 2 | 41.497 | 16.759 | 32.238 | 2 |
| 2025-06-17T16:26:00 | 53.778165 | 6.989275 | 2.0 | 16.708 | 2 | 41.509 | 16.780 | 32.232 | 2 |
| 2025-06-17T16:27:00 | 53.778027 | 6.987912 | 2.0 | 16.775 | 2 | 41.591 | 16.894 | 32.211 | 2 |
| 2025-06-17T16:28:00 | 53.777876 | 6.986545 | 2.0 | 16.757 | 2 | 41.616 | 16.931 | 32.203 | 2 |
| 2025-06-17T16:29:00 | 53.777696 | 6.985194 | 2.0 | 16.739 | 2 | 41.591 | 16.916 | 32.194 | 2 |
| 2025-06-17T16:30:00 | 53.777495 | 6.983821 | 2.0 | 16.742 | 2 | 41.567 | 16.899 | 32.187 | 2 |
| 2025-06-17T16:31:00 | 53.777280 | 6.982425 | 2.0 | 16.745 | 2 | 41.567 | 16.907 | 32.180 | 2 |
| 2025-06-17T16:32:00 | 53.777058 | 6.980976 | 2.0 | 16.730 | 2 | 41.564 | 16.910 | 32.175 | 2 |
| 2025-06-17T16:33:00 | 53.776831 | 6.979550 | 2.0 | 16.718 | 2 | 41.531 | 16.884 | 32.168 | 2 |
| 2025-06-17T16:34:00 | 53.776616 | 6.978139 | 2.0 | 16.714 | 2 | 41.525 | 16.882 | 32.164 | 2 |
| 2025-06-17T16:35:00 | 53.776400 | 6.976716 | 2.0 | 16.694 | 2 | 41.516 | 16.873 | 32.163 | 2 |
| 2025-06-17T16:36:00 | 53.776189 | 6.975285 | 2.0 | 16.683 | 2 | 41.497 | 16.855 | 32.161 | 2 |
| 2025-06-17T16:37:00 | 53.776015 | 6.973771 | 2.0 | 16.684 | 2 | 41.491 | 16.849 | 32.161 | 2 |
| 2025-06-17T16:38:00 | 53.775810 | 6.972245 | 2.0 | 16.680 | 2 | 41.491 | 16.847 | 32.163 | 2 |
| 2025-06-17T16:39:00 | 53.775560 | 6.970752 | 2.0 | 16.676 | 2 | 41.491 | 16.843 | 32.166 | 2 |
| 2025-06-17T16:40:00 | 53.775311 | 6.969281 | 2.0 | 16.671 | 2 | 41.491 | 16.838 | 32.170 | 2 |
| 2025-06-17T16:41:00 | 53.775102 | 6.967800 | 2.0 | 16.662 | 2 | 41.486 | 16.832 | 32.170 | 2 |
| 2025-06-17T16:42:00 | 53.774895 | 6.966309 | 2.0 | 16.665 | 2 | 41.483 | 16.826 | 32.172 | 2 |
| 2025-06-17T16:43:00 | 53.774666 | 6.964794 | 2.0 | 16.654 | 2 | 41.485 | 16.826 | 32.174 | 2 |
| 2025-06-17T16:44:00 | 53.774403 | 6.963340 | 2.0 | 16.704 | 2 | 41.482 | 16.819 | 32.177 | 2 |
| 2025-06-17T16:45:00 | 53.774138 | 6.961913 | 2.0 | 16.770 | 2 | 41.558 | 16.883 | 32.192 | 2 |
| 2025-06-17T16:46:00 | 53.773904 | 6.960445 | 2.0 | 16.769 | 2 | 41.622 | 16.931 | 32.209 | 2 |
| 2025-06-17T16:47:00 | 53.773693 | 6.958973 | 2.0 | 16.758 | 2 | 41.621 | 16.929 | 32.209 | 2 |
| 2025-06-17T16:48:00 | 53.773488 | 6.957523 | 2.0 | 16.766 | 2 | 41.618 | 16.922 | 32.212 | 2 |
| 2025-06-17T16:49:00 | 53.773275 | 6.956114 | 2.0 | 16.757 | 2 | 41.638 | 16.928 | 32.225 | 2 |
| 2025-06-17T16:50:00 | 53.773085 | 6.954624 | 2.0 | 16.746 | 2 | 41.635 | 16.916 | 32.232 | 2 |
| 2025-06-17T16:51:00 | 53.772915 | 6.953024 | 2.0 | 16.806 | 2 | 41.651 | 16.921 | 32.242 | 2 |
| 2025-06-17T16:52:00 | 53.772700 | 6.951381 | 2.0 | 16.787 | 2 | 41.697 | 16.957 | 32.252 | 2 |
| 2025-06-17T16:53:00 | 53.772449 | 6.949726 | 2.0 | 16.780 | 2 | 41.690 | 16.950 | 32.252 | 2 |
| 2025-06-17T16:54:00 | 53.772165 | 6.948140 | 2.0 | 16.771 | 2 | 41.684 | 16.943 | 32.252 | 2 |
| 2025-06-17T16:55:00 | 53.771905 | 6.946532 | 2.0 | 16.770 | 2 | 41.677 | 16.933 | 32.254 | 2 |
| 2025-06-17T16:56:00 | 53.771685 | 6.944874 | 2.0 | 16.766 | 2 | 41.679 | 16.933 | 32.256 | 2 |
| 2025-06-17T16:57:00 | 53.771446 | 6.943207 | 2.0 | 16.769 | 2 | 41.678 | 16.928 | 32.259 | 2 |
| 2025-06-17T16:58:00 | 53.771167 | 6.941579 | 2.0 | 16.800 | 2 | 41.698 | 16.943 | 32.265 | 2 |
| 2025-06-17T16:59:00 | 53.770913 | 6.939905 | 2.0 | 16.781 | 2 | 41.715 | 16.958 | 32.267 | 2 |
| 2025-06-17T17:00:00 | 53.770676 | 6.938235 | 2.0 | 16.774 | 2 | 41.700 | 16.943 | 32.266 | 2 |
| 2025-06-17T17:01:00 | 53.770454 | 6.936540 | 2.0 | 16.747 | 2 | 41.692 | 16.932 | 32.268 | 2 |
| 2025-06-17T17:02:00 | 53.770221 | 6.934832 | 2.0 | 16.787 | 2 | 41.682 | 16.922 | 32.268 | 2 |
| 2025-06-17T17:03:00 | 53.769951 | 6.933132 | 2.0 | 16.801 | 2 | 41.723 | 16.952 | 32.279 | 2 |
| 2025-06-17T17:04:00 | 53.769664 | 6.931441 | 2.0 | 16.772 | 2 | 41.734 | 16.958 | 32.284 | 2 |
| 2025-06-17T17:05:00 | 53.769380 | 6.929750 | 2.0 | 16.771 | 2 | 41.708 | 16.935 | 32.280 | 2 |
| 2025-06-17T17:06:00 | 53.769103 | 6.928088 | 2.0 | 16.767 | 2 | 41.707 | 16.934 | 32.280 | 2 |
| 2025-06-17T17:07:00 | 53.768848 | 6.926410 | 2.0 | 16.769 | 2 | 41.709 | 16.931 | 32.284 | 2 |
| 2025-06-17T17:08:00 | 53.768603 | 6.924706 | 2.0 | 16.764 | 2 | 41.716 | 16.933 | 32.288 | 2 |
| 2025-06-17T17:09:00 | 53.768369 | 6.923009 | 2.0 | 16.770 | 2 | 41.718 | 16.928 | 32.294 | 2 |
| 2025-06-17T17:10:00 | 53.768122 | 6.921310 | 2.0 | 16.799 | 2 | 41.738 | 16.942 | 32.300 | 2 |
| 2025-06-17T17:11:00 | 53.767881 | 6.919605 | 2.0 | 16.769 | 2 | 41.763 | 16.958 | 32.309 | 2 |
| 2025-06-17T17:12:00 | 53.767640 | 6.917890 | 2.0 | 16.753 | 2 | 41.734 | 16.932 | 32.304 | 2 |
| 2025-06-17T17:13:00 | 53.767394 | 6.916172 | 2.0 | 16.752 | 2 | 41.719 | 16.917 | 32.304 | 2 |
| 2025-06-17T17:14:00 | 53.767143 | 6.914481 | 2.0 | 16.745 | 2 | 41.722 | 16.914 | 32.309 | 2 |
| 2025-06-17T17:15:00 | 53.766889 | 6.912786 | 2.0 | 16.740 | 2 | 41.720 | 16.909 | 32.311 | 2 |
| 2025-06-17T17:16:00 | 53.766632 | 6.911109 | 2.0 | 16.731 | 2 | 41.718 | 16.903 | 32.314 | 2 |
| 2025-06-17T17:17:00 | 53.766363 | 6.909455 | 2.0 | 16.742 | 2 | 41.713 | 16.895 | 32.316 | 2 |
| 2025-06-17T17:18:00 | 53.766116 | 6.907772 | 2.0 | 16.750 | 2 | 41.735 | 16.909 | 32.324 | 2 |
| 2025-06-17T17:19:00 | 53.765867 | 6.906091 | 2.0 | 16.756 | 2 | 41.749 | 16.914 | 32.332 | 2 |
| 2025-06-17T17:20:00 | 53.765614 | 6.904424 | 2.0 | 16.744 | 2 | 41.761 | 16.917 | 32.340 | 2 |
| 2025-06-17T17:21:00 | 53.765389 | 6.902716 | 2.0 | 16.737 | 2 | 41.757 | 16.907 | 32.344 | 2 |
| 2025-06-17T17:22:00 | 53.765156 | 6.900970 | 2.0 | 16.725 | 2 | 41.757 | 16.898 | 32.352 | 2 |
| 2025-06-17T17:23:00 | 53.764919 | 6.899172 | 2.0 | 16.729 | 2 | 41.758 | 16.892 | 32.357 | 2 |
| 2025-06-17T17:24:00 | 53.764659 | 6.897401 | 2.0 | 16.742 | 2 | 41.771 | 16.897 | 32.365 | 2 |
| 2025-06-17T17:25:00 | 53.764386 | 6.895640 | 2.0 | 16.724 | 2 | 41.788 | 16.902 | 32.375 | 2 |
| 2025-06-17T17:26:00 | 53.764113 | 6.893899 | 2.0 | 16.703 | 2 | 41.784 | 16.886 | 32.385 | 2 |
| 2025-06-17T17:27:00 | 53.763859 | 6.892123 | 2.0 | 16.691 | 2 | 41.769 | 16.862 | 32.391 | 2 |
| 2025-06-17T17:28:00 | 53.763602 | 6.890320 | 2.0 | 16.698 | 2 | 41.775 | 16.862 | 32.396 | 2 |
| 2025-06-17T17:29:00 | 53.763322 | 6.888503 | 2.0 | 16.688 | 2 | 41.779 | 16.861 | 32.401 | 2 |
| 2025-06-17T17:30:00 | 53.763021 | 6.886677 | 2.0 | 16.676 | 2 | 41.776 | 16.851 | 32.406 | 2 |
| 2025-06-17T17:31:00 | 53.762721 | 6.884859 | 2.0 | 16.675 | 2 | 41.777 | 16.842 | 32.414 | 2 |
| 2025-06-17T17:32:00 | 53.762442 | 6.883014 | 2.0 | 16.657 | 2 | 41.783 | 16.837 | 32.423 | 2 |
| 2025-06-17T17:33:00 | 53.762155 | 6.881222 | 2.0 | 16.650 | 2 | 41.770 | 16.820 | 32.426 | 2 |
| 2025-06-17T17:34:00 | 53.761886 | 6.879406 | 2.0 | 16.655 | 2 | 41.765 | 16.815 | 32.425 | 2 |
| 2025-06-17T17:35:00 | 53.761622 | 6.877578 | 2.0 | 16.664 | 2 | 41.772 | 16.821 | 32.427 | 2 |
| 2025-06-17T17:36:00 | 53.761369 | 6.875714 | 2.0 | 16.658 | 2 | 41.780 | 16.828 | 32.428 | 2 |
| 2025-06-17T17:37:00 | 53.761124 | 6.873819 | 2.0 | 16.652 | 2 | 41.774 | 16.820 | 32.429 | 2 |
| 2025-06-17T17:38:00 | 53.760868 | 6.871925 | 2.0 | 16.662 | 2 | 41.770 | 16.818 | 32.427 | 2 |
| 2025-06-17T17:39:00 | 53.760583 | 6.870069 | 2.0 | 16.668 | 2 | 41.778 | 16.826 | 32.428 | 2 |
| 2025-06-17T17:40:00 | 53.760300 | 6.868206 | 2.0 | 16.674 | 2 | 41.783 | 16.832 | 32.427 | 2 |
| 2025-06-17T17:41:00 | 53.760028 | 6.866322 | 2.0 | 16.664 | 2 | 41.787 | 16.835 | 32.428 | 2 |
| 2025-06-17T17:42:00 | 53.759756 | 6.864433 | 2.0 | 16.665 | 2 | 41.781 | 16.829 | 32.428 | 2 |
| 2025-06-17T17:43:00 | 53.759480 | 6.862518 | 2.0 | 16.669 | 2 | 41.778 | 16.827 | 32.427 | 2 |
| 2025-06-17T17:44:00 | 53.759181 | 6.860616 | 2.0 | 16.714 | 2 | 41.795 | 16.845 | 32.427 | 2 |
| 2025-06-17T17:45:00 | 53.758879 | 6.858701 | 2.0 | 16.680 | 2 | 41.824 | 16.869 | 32.433 | 2 |
| 2025-06-17T17:46:00 | 53.758614 | 6.856776 | 2.0 | 16.678 | 2 | 41.796 | 16.846 | 32.427 | 2 |
| 2025-06-17T17:47:00 | 53.758371 | 6.854855 | 2.0 | 16.674 | 2 | 41.782 | 16.840 | 32.420 | 2 |
| 2025-06-17T17:48:00 | 53.758121 | 6.852964 | 2.0 | 16.686 | 2 | 41.780 | 16.841 | 32.418 | 2 |
| 2025-06-17T17:49:00 | 53.757841 | 6.851056 | 2.0 | 16.704 | 2 | 41.793 | 16.852 | 32.420 | 2 |
| 2025-06-17T17:50:00 | 53.757532 | 6.849099 | 2.0 | 16.710 | 2 | 41.810 | 16.866 | 32.423 | 2 |
| 2025-06-17T17:51:00 | 53.757184 | 6.847159 | 2.0 | 16.741 | 2 | 41.822 | 16.875 | 32.426 | 2 |
| 2025-06-17T17:52:00 | 53.756851 | 6.845217 | 2.0 | 16.779 | 2 | 41.854 | 16.911 | 32.425 | 2 |
| 2025-06-17T17:53:00 | 53.756555 | 6.843258 | 2.0 | 16.797 | 2 | 41.882 | 16.943 | 32.424 | 2 |
| 2025-06-17T17:54:00 | 53.756284 | 6.841282 | 2.0 | 16.816 | 2 | 41.894 | 16.961 | 32.419 | 2 |
| 2025-06-17T17:55:00 | 53.756008 | 6.839313 | 2.0 | 16.831 | 2 | 41.903 | 16.979 | 32.413 | 2 |
| 2025-06-17T17:56:00 | 53.755714 | 6.837391 | 2.0 | 16.845 | 2 | 41.908 | 16.995 | 32.404 | 2 |
| 2025-06-17T17:57:00 | 53.755434 | 6.835469 | 2.0 | 16.857 | 2 | 41.912 | 17.006 | 32.399 | 2 |
| 2025-06-17T17:58:00 | 53.755164 | 6.833543 | 2.0 | 16.863 | 2 | 41.917 | 17.020 | 32.392 | 2 |
| 2025-06-17T17:59:00 | 53.754895 | 6.831588 | 2.0 | 16.871 | 2 | 41.917 | 17.024 | 32.389 | 2 |
| 2025-06-17T18:00:00 | 53.754630 | 6.829606 | 2.0 | 16.884 | 2 | 41.921 | 17.034 | 32.384 | 2 |
| 2025-06-17T18:01:00 | 53.754360 | 6.827605 | 2.0 | 16.892 | 2 | 41.927 | 17.046 | 32.379 | 2 |
| 2025-06-17T18:02:00 | 53.754081 | 6.825603 | 2.0 | 16.898 | 2 | 41.932 | 17.057 | 32.375 | 2 |
| 2025-06-17T18:03:00 | 53.753774 | 6.823618 | 2.0 | 16.907 | 2 | 41.930 | 17.060 | 32.371 | 2 |
| 2025-06-17T18:04:00 | 53.753467 | 6.821627 | 2.0 | 16.941 | 2 | 41.935 | 17.075 | 32.363 | 2 |
| 2025-06-17T18:05:00 | 53.753191 | 6.819592 | 2.0 | 16.972 | 2 | 41.955 | 17.108 | 32.354 | 2 |
| 2025-06-17T18:06:00 | 53.752909 | 6.817546 | 2.0 | 16.981 | 2 | 41.970 | 17.133 | 32.347 | 2 |
| 2025-06-17T18:07:00 | 53.752611 | 6.815533 | 2.0 | 16.980 | 2 | 41.973 | 17.142 | 32.342 | 2 |
| 2025-06-17T18:08:00 | 53.752332 | 6.813506 | 2.0 | 16.991 | 2 | 41.969 | 17.143 | 32.338 | 2 |
| 2025-06-17T18:09:00 | 53.752041 | 6.811484 | 2.0 | 17.033 | 2 | 41.977 | 17.158 | 32.333 | 2 |
| 2025-06-17T18:10:00 | 53.751720 | 6.809490 | 2.0 | 17.062 | 2 | 42.006 | 17.193 | 32.330 | 2 |
| 2025-06-17T18:11:00 | 53.751405 | 6.807499 | 2.0 | 17.093 | 2 | 42.030 | 17.224 | 32.325 | 2 |
| 2025-06-17T18:12:00 | 53.751130 | 6.805443 | 2.0 | 17.110 | 2 | 42.054 | 17.254 | 32.322 | 2 |
| 2025-06-17T18:13:00 | 53.750845 | 6.803378 | 2.0 | 17.119 | 2 | 42.066 | 17.270 | 32.319 | 2 |
| 2025-06-17T18:14:00 | 53.750549 | 6.801309 | 2.0 | 17.113 | 2 | 42.070 | 17.276 | 32.318 | 2 |
| 2025-06-17T18:15:00 | 53.750247 | 6.799235 | 2.0 | 17.131 | 2 | 42.064 | 17.274 | 32.315 | 2 |
| 2025-06-17T18:16:00 | 53.749935 | 6.797162 | 2.0 | 17.135 | 2 | 42.072 | 17.287 | 32.311 | 2 |
| 2025-06-17T18:17:00 | 53.749620 | 6.795111 | 2.0 | 17.139 | 2 | 42.080 | 17.296 | 32.311 | 2 |
| 2025-06-17T18:18:00 | 53.749328 | 6.793057 | 2.0 | 17.133 | 2 | 42.077 | 17.294 | 32.310 | 2 |
| 2025-06-17T18:19:00 | 53.749052 | 6.790981 | 2.0 | 17.138 | 2 | 42.076 | 17.295 | 32.308 | 2 |
| 2025-06-17T18:20:00 | 53.748744 | 6.788922 | 2.0 | 17.135 | 2 | 42.080 | 17.299 | 32.308 | 2 |
| 2025-06-17T18:21:00 | 53.748428 | 6.786895 | 2.0 | 17.181 | 2 | 42.080 | 17.300 | 32.308 | 2 |
| 2025-06-17T18:22:00 | 53.748148 | 6.784867 | 2.0 | 17.224 | 2 | 42.122 | 17.354 | 32.300 | 2 |
| 2025-06-17T18:23:00 | 53.747870 | 6.782836 | 2.0 | 17.217 | 2 | 42.135 | 17.381 | 32.290 | 2 |
| 2025-06-17T18:24:00 | 53.747603 | 6.780801 | 2.0 | 17.204 | 2 | 42.122 | 17.375 | 32.284 | 2 |
| 2025-06-17T18:25:00 | 53.747329 | 6.778765 | 2.0 | 17.184 | 2 | 42.105 | 17.361 | 32.280 | 2 |
| 2025-06-17T18:26:00 | 53.747014 | 6.776753 | 2.0 | 17.167 | 2 | 42.093 | 17.342 | 32.285 | 2 |
| 2025-06-17T18:27:00 | 53.746689 | 6.774718 | 2.0 | 17.187 | 2 | 42.091 | 17.332 | 32.291 | 2 |
| 2025-06-17T18:28:00 | 53.746361 | 6.772679 | 2.0 | 17.201 | 2 | 42.108 | 17.349 | 32.292 | 2 |
| 2025-06-17T18:29:00 | 53.746045 | 6.770619 | 2.0 | 17.213 | 2 | 42.119 | 17.358 | 32.295 | 2 |
| 2025-06-17T18:30:00 | 53.745723 | 6.768557 | 2.0 | 17.225 | 2 | 42.137 | 17.375 | 32.296 | 2 |
| 2025-06-17T18:31:00 | 53.745404 | 6.766526 | 2.0 | 17.211 | 2 | 42.146 | 17.379 | 32.301 | 2 |
| 2025-06-17T18:32:00 | 53.745129 | 6.764417 | 2.0 | 17.200 | 2 | 42.146 | 17.374 | 32.305 | 2 |
| 2025-06-17T18:33:00 | 53.744844 | 6.762323 | 2.0 | 17.175 | 2 | 42.134 | 17.356 | 32.309 | 2 |
| 2025-06-17T18:34:00 | 53.744535 | 6.760235 | 2.0 | 17.166 | 2 | 42.117 | 17.334 | 32.312 | 2 |
| 2025-06-17T18:35:00 | 53.744205 | 6.758184 | 2.0 | 17.136 | 2 | 42.113 | 17.321 | 32.319 | 2 |
| 2025-06-17T18:36:00 | 53.743893 | 6.756100 | 2.0 | 17.157 | 2 | 42.102 | 17.302 | 32.325 | 2 |
| 2025-06-17T18:37:00 | 53.743589 | 6.754026 | 2.0 | 17.161 | 2 | 42.111 | 17.318 | 32.320 | 2 |
| 2025-06-17T18:38:00 | 53.743293 | 6.751971 | 2.0 | 17.125 | 2 | 42.109 | 17.310 | 32.324 | 2 |
| 2025-06-17T18:39:00 | 53.742995 | 6.749940 | 2.0 | 17.094 | 2 | 42.088 | 17.283 | 32.328 | 2 |
| 2025-06-17T18:40:00 | 53.742692 | 6.747905 | 2.0 | 17.064 | 2 | 42.076 | 17.259 | 32.337 | 2 |
| 2025-06-17T18:41:00 | 53.742400 | 6.745881 | 2.0 | 17.064 | 2 | 42.066 | 17.228 | 32.353 | 2 |
| 2025-06-17T18:42:00 | 53.742090 | 6.743877 | 2.0 | 17.045 | 2 | 42.065 | 17.221 | 32.358 | 2 |
| 2025-06-17T18:43:00 | 53.741779 | 6.741866 | 2.0 | 17.023 | 2 | 42.065 | 17.205 | 32.371 | 2 |
| 2025-06-17T18:44:00 | 53.741488 | 6.739831 | 2.0 | 17.048 | 2 | 42.064 | 17.194 | 32.379 | 2 |
| 2025-06-17T18:45:00 | 53.741202 | 6.737808 | 2.0 | 17.042 | 2 | 42.072 | 17.208 | 32.374 | 2 |
| 2025-06-17T18:46:00 | 53.740894 | 6.735786 | 2.0 | 17.037 | 2 | 42.073 | 17.202 | 32.380 | 2 |
| 2025-06-17T18:47:00 | 53.740619 | 6.733769 | 2.0 | 17.071 | 2 | 42.078 | 17.207 | 32.380 | 2 |
| 2025-06-17T18:48:00 | 53.740377 | 6.731699 | 2.0 | 17.051 | 2 | 42.092 | 17.225 | 32.378 | 2 |
| 2025-06-17T18:49:00 | 53.740093 | 6.729628 | 2.0 | 17.071 | 2 | 42.095 | 17.219 | 32.385 | 2 |
| 2025-06-17T18:50:00 | 53.739798 | 6.727572 | 2.0 | 17.049 | 2 | 42.106 | 17.230 | 32.386 | 2 |
| 2025-06-17T18:51:00 | 53.739505 | 6.725558 | 2.0 | 17.024 | 2 | 42.099 | 17.207 | 32.398 | 2 |
| 2025-06-17T18:52:00 | 53.739231 | 6.723531 | 2.0 | 17.065 | 2 | 42.093 | 17.201 | 32.398 | 2 |
| 2025-06-17T18:53:00 | 53.738976 | 6.721463 | 2.0 | 17.061 | 2 | 42.105 | 17.217 | 32.395 | 2 |
| 2025-06-17T18:54:00 | 53.738698 | 6.719404 | 2.0 | 17.042 | 2 | 42.108 | 17.220 | 32.396 | 2 |
| 2025-06-17T18:55:00 | 53.738409 | 6.717346 | 2.0 | 17.100 | 2 | 42.097 | 17.201 | 32.401 | 2 |
| 2025-06-17T18:56:00 | 53.738121 | 6.715282 | 2.0 | 17.230 | 2 | 42.145 | 17.290 | 32.371 | 2 |
| 2025-06-17T18:57:00 | 53.737820 | 6.713246 | 2.0 | 17.323 | 2 | 42.214 | 17.395 | 32.346 | 2 |
| 2025-06-17T18:58:00 | 53.737536 | 6.711222 | 2.0 | 17.343 | 2 | 42.263 | 17.485 | 32.317 | 2 |
| 2025-06-17T18:59:00 | 53.737274 | 6.709170 | 2.0 | 17.334 | 2 | 42.273 | 17.498 | 32.315 | 2 |
| 2025-06-17T19:00:00 | 53.737025 | 6.707144 | 2.0 | 17.339 | 2 | 42.269 | 17.494 | 32.314 | 2 |
| 2025-06-17T19:01:00 | 53.736763 | 6.705155 | 2.0 | 17.342 | 2 | 42.268 | 17.497 | 32.311 | 2 |
| 2025-06-17T19:02:00 | 53.736483 | 6.703218 | 2.0 | 17.347 | 2 | 42.265 | 17.501 | 32.305 | 2 |
| 2025-06-17T19:03:00 | 53.736209 | 6.701271 | 2.0 | 17.356 | 2 | 42.263 | 17.507 | 32.299 | 2 |
| 2025-06-17T19:04:00 | 53.735980 | 6.699281 | 2.0 | 17.385 | 2 | 42.264 | 17.518 | 32.291 | 2 |
| 2025-06-17T19:05:00 | 53.735734 | 6.697273 | 2.0 | 17.426 | 2 | 42.273 | 17.553 | 32.271 | 2 |
| 2025-06-17T19:06:00 | 53.735444 | 6.695255 | 2.0 | 17.391 | 2 | 42.285 | 17.578 | 32.261 | 2 |
| 2025-06-17T19:07:00 | 53.735150 | 6.693224 | 2.0 | 17.370 | 2 | 42.265 | 17.536 | 32.278 | 2 |
| 2025-06-17T19:08:00 | 53.734870 | 6.691180 | 2.0 | 17.270 | 2 | 42.250 | 17.507 | 32.288 | 2 |
| 2025-06-17T19:09:00 | 53.734596 | 6.689129 | 2.0 | 17.318 | 2 | 42.219 | 17.447 | 32.309 | 2 |
| 2025-06-17T19:10:00 | 53.734334 | 6.687079 | 2.0 | 17.318 | 2 | 42.221 | 17.475 | 32.289 | 2 |
| 2025-06-17T19:11:00 | 53.734070 | 6.685021 | 2.0 | 17.297 | 2 | 42.217 | 17.467 | 32.292 | 2 |
| 2025-06-17T19:12:00 | 53.733824 | 6.682925 | 2.0 | 17.257 | 2 | 42.208 | 17.447 | 32.300 | 2 |
| 2025-06-17T19:13:00 | 53.733566 | 6.680844 | 2.0 | 17.232 | 2 | 42.195 | 17.417 | 32.313 | 2 |
| 2025-06-17T19:14:00 | 53.733290 | 6.678782 | 2.0 | 17.183 | 2 | 42.183 | 17.387 | 32.326 | 2 |
| 2025-06-17T19:15:00 | 53.733017 | 6.676714 | 2.0 | 17.157 | 2 | 42.167 | 17.347 | 32.345 | 2 |
| 2025-06-17T19:16:00 | 53.732745 | 6.674651 | 2.0 | 17.123 | 2 | 42.150 | 17.317 | 32.354 | 2 |
| 2025-06-17T19:17:00 | 53.732472 | 6.672575 | 2.0 | 17.130 | 2 | 42.136 | 17.291 | 32.363 | 2 |
| 2025-06-17T19:18:00 | 53.732212 | 6.670485 | 2.0 | 17.101 | 2 | 42.126 | 17.283 | 32.361 | 2 |
| 2025-06-17T19:19:00 | 53.731961 | 6.668382 | 2.0 | 17.087 | 2 | 42.115 | 17.264 | 32.366 | 2 |
| 2025-06-17T19:20:00 | 53.731706 | 6.666309 | 2.0 | 17.076 | 2 | 42.109 | 17.254 | 32.369 | 2 |
| 2025-06-17T19:21:00 | 53.731439 | 6.664233 | 2.0 | 17.078 | 2 | 42.102 | 17.242 | 32.373 | 2 |
| 2025-06-17T19:22:00 | 53.731179 | 6.662132 | 2.0 | 17.079 | 2 | 42.098 | 17.238 | 32.373 | 2 |
| 2025-06-17T19:23:00 | 53.730917 | 6.660041 | 2.0 | 17.104 | 2 | 42.097 | 17.244 | 32.367 | 2 |
| 2025-06-17T19:24:00 | 53.730674 | 6.657934 | 2.0 | 17.111 | 2 | 42.104 | 17.264 | 32.357 | 2 |
| 2025-06-17T19:25:00 | 53.730392 | 6.655875 | 2.0 | 17.120 | 2 | 42.109 | 17.271 | 32.356 | 2 |
| 2025-06-17T19:26:00 | 53.730105 | 6.653806 | 2.0 | 17.127 | 2 | 42.112 | 17.281 | 32.350 | 2 |
| 2025-06-17T19:27:00 | 53.729836 | 6.651716 | 2.0 | 17.140 | 2 | 42.117 | 17.294 | 32.344 | 2 |
| 2025-06-17T19:28:00 | 53.729593 | 6.649611 | 2.0 | 17.174 | 2 | 42.122 | 17.306 | 32.339 | 2 |
| 2025-06-17T19:29:00 | 53.729341 | 6.647506 | 2.0 | 17.194 | 2 | 42.144 | 17.343 | 32.328 | 2 |
| 2025-06-17T19:30:00 | 53.729077 | 6.645398 | 2.0 | 17.197 | 2 | 42.159 | 17.361 | 32.326 | 2 |
| 2025-06-17T19:31:00 | 53.728817 | 6.643296 | 2.0 | 17.167 | 2 | 42.155 | 17.350 | 32.332 | 2 |
| 2025-06-17T19:32:00 | 53.728565 | 6.641200 | 2.0 | 17.174 | 2 | 42.143 | 17.329 | 32.338 | 2 |
| 2025-06-17T19:33:00 | 53.728318 | 6.639094 | 2.0 | 17.178 | 2 | 42.148 | 17.338 | 32.335 | 2 |
| 2025-06-17T19:34:00 | 53.728046 | 6.636995 | 2.0 | 17.185 | 2 | 42.149 | 17.337 | 32.337 | 2 |
| 2025-06-17T19:35:00 | 53.727769 | 6.634887 | 2.0 | 17.213 | 2 | 42.159 | 17.348 | 32.337 | 2 |
| 2025-06-17T19:36:00 | 53.727487 | 6.632780 | 2.0 | 17.337 | 2 | 42.193 | 17.395 | 32.328 | 2 |
| 2025-06-17T19:37:00 | 53.727232 | 6.630643 | 2.0 | 17.346 | 2 | 42.254 | 17.494 | 32.302 | 2 |
| 2025-06-17T19:38:00 | 53.727000 | 6.628494 | 2.0 | 17.332 | 2 | 42.258 | 17.500 | 32.300 | 2 |
| 2025-06-17T19:39:00 | 53.726862 | 6.626307 | 2.0 | 17.323 | 2 | 42.250 | 17.489 | 32.302 | 2 |
| 2025-06-17T19:40:00 | 53.726758 | 6.624098 | 2.0 | 17.324 | 2 | 42.246 | 17.484 | 32.303 | 2 |
| 2025-06-17T19:41:00 | 53.726653 | 6.621889 | 2.0 | 17.356 | 2 | 42.253 | 17.490 | 32.304 | 2 |
| 2025-06-17T19:42:00 | 53.726538 | 6.619678 | 2.0 | 17.379 | 2 | 42.274 | 17.515 | 32.302 | 2 |
| 2025-06-17T19:43:00 | 53.726419 | 6.617471 | 2.0 | 17.367 | 2 | 42.305 | 17.535 | 32.313 | 2 |
| 2025-06-17T19:44:00 | 53.726304 | 6.615269 | 2.0 | 17.362 | 2 | 42.305 | 17.527 | 32.319 | 2 |
| 2025-06-17T19:45:00 | 53.726196 | 6.613062 | 2.0 | 17.337 | 2 | 42.295 | 17.518 | 32.318 | 2 |
| 2025-06-17T19:46:00 | 53.726079 | 6.610840 | 2.0 | 17.320 | 2 | 42.277 | 17.495 | 32.320 | 2 |
| 2025-06-17T19:47:00 | 53.725981 | 6.608621 | 2.0 | 17.307 | 2 | 42.264 | 17.479 | 32.322 | 2 |
| 2025-06-17T19:48:00 | 53.725893 | 6.606422 | 2.0 | 17.294 | 2 | 42.255 | 17.466 | 32.325 | 2 |
| 2025-06-17T19:49:00 | 53.725806 | 6.604212 | 2.0 | 17.277 | 2 | 42.248 | 17.452 | 32.330 | 2 |
| 2025-06-17T19:50:00 | 53.725682 | 6.601989 | 2.0 | 17.264 | 2 | 42.245 | 17.437 | 32.339 | 2 |
| 2025-06-17T19:51:00 | 53.725561 | 6.599765 | 2.0 | 17.325 | 2 | 42.247 | 17.435 | 32.343 | 2 |
| 2025-06-17T19:52:00 | 53.725448 | 6.597558 | 2.0 | 17.346 | 2 | 42.281 | 17.481 | 32.335 | 2 |
| 2025-06-17T19:53:00 | 53.725327 | 6.595358 | 2.0 | 17.367 | 2 | 42.297 | 17.511 | 32.325 | 2 |
| 2025-06-17T19:54:00 | 53.725186 | 6.593185 | 2.0 | 17.378 | 2 | 42.310 | 17.526 | 32.324 | 2 |
| 2025-06-17T19:55:00 | 53.725083 | 6.590999 | 2.0 | 17.372 | 2 | 42.313 | 17.536 | 32.319 | 2 |
| 2025-06-17T19:56:00 | 53.724976 | 6.588819 | 2.0 | 17.355 | 2 | 42.312 | 17.531 | 32.322 | 2 |
| 2025-06-17T19:57:00 | 53.724845 | 6.586633 | 2.0 | 17.333 | 2 | 42.303 | 17.512 | 32.329 | 2 |
| 2025-06-17T19:58:00 | 53.724716 | 6.584458 | 2.0 | 17.322 | 2 | 42.287 | 17.493 | 32.331 | 2 |
| 2025-06-17T19:59:00 | 53.724612 | 6.582261 | 2.0 | 17.325 | 2 | 42.272 | 17.486 | 32.323 | 2 |
| 2025-06-17T20:00:00 | 53.724518 | 6.580054 | 2.0 | 17.310 | 2 | 42.271 | 17.485 | 32.323 | 2 |
| 2025-06-17T20:01:00 | 53.724402 | 6.577871 | 2.0 | 17.288 | 2 | 42.271 | 17.467 | 32.338 | 2 |
| 2025-06-17T20:02:00 | 53.724280 | 6.575697 | 2.0 | 17.265 | 2 | 42.267 | 17.447 | 32.350 | 2 |
| 2025-06-17T20:03:00 | 53.724183 | 6.573508 | 2.0 | 17.238 | 2 | 42.267 | 17.422 | 32.370 | 2 |
| 2025-06-17T20:04:00 | 53.724083 | 6.571318 | 2.0 | 17.205 | 2 | 42.266 | 17.394 | 32.392 | 2 |
| 2025-06-17T20:05:00 | 53.723951 | 6.569138 | 2.0 | 17.183 | 2 | 42.260 | 17.366 | 32.409 | 2 |
| 2025-06-17T20:06:00 | 53.723811 | 6.566974 | 2.0 | 17.167 | 2 | 42.256 | 17.341 | 32.426 | 2 |
| 2025-06-17T20:07:00 | 53.723689 | 6.564797 | 2.0 | 17.180 | 2 | 42.257 | 17.334 | 32.432 | 2 |
| 2025-06-17T20:08:00 | 53.723579 | 6.562627 | 2.0 | 17.173 | 2 | 42.271 | 17.341 | 32.438 | 2 |
| 2025-06-17T20:09:00 | 53.723460 | 6.560454 | 2.0 | 17.154 | 2 | 42.278 | 17.333 | 32.451 | 2 |
| 2025-06-17T20:10:00 | 53.723338 | 6.558294 | 2.0 | 17.131 | 2 | 42.274 | 17.312 | 32.464 | 2 |
| 2025-06-17T20:11:00 | 53.723242 | 6.556149 | 2.0 | 17.104 | 2 | 42.265 | 17.289 | 32.475 | 2 |
| 2025-06-17T20:12:00 | 53.723163 | 6.553989 | 2.0 | 17.084 | 2 | 42.255 | 17.262 | 32.488 | 2 |
| 2025-06-17T20:13:00 | 53.723067 | 6.551833 | 2.0 | 17.088 | 2 | 42.250 | 17.247 | 32.496 | 2 |
| 2025-06-17T20:14:00 | 53.722939 | 6.549722 | 2.0 | 17.110 | 2 | 42.267 | 17.249 | 32.509 | 2 |
| 2025-06-17T20:15:00 | 53.722837 | 6.547607 | 2.0 | 17.100 | 2 | 42.293 | 17.272 | 32.513 | 2 |
| 2025-06-17T20:16:00 | 53.722735 | 6.545481 | 2.0 | 17.015 | 2 | 42.287 | 17.241 | 32.532 | 2 |
| 2025-06-17T20:17:00 | 53.722605 | 6.543364 | 2.0 | 16.963 | 2 | 42.258 | 17.167 | 32.567 | 2 |
| 2025-06-17T20:18:00 | 53.722465 | 6.541236 | 2.0 | 16.945 | 2 | 42.238 | 17.124 | 32.585 | 2 |
| 2025-06-17T20:19:00 | 53.722346 | 6.539104 | 2.0 | 16.911 | 2 | 42.231 | 17.104 | 32.595 | 2 |
| 2025-06-17T20:20:00 | 53.722250 | 6.536965 | 2.0 | 16.882 | 2 | 42.228 | 17.072 | 32.618 | 2 |
| 2025-06-17T20:21:00 | 53.722136 | 6.534834 | 2.0 | 16.842 | 2 | 42.221 | 17.044 | 32.635 | 2 |
| 2025-06-17T20:22:00 | 53.722019 | 6.532716 | 2.0 | 16.753 | 2 | 42.200 | 16.987 | 32.663 | 2 |
| 2025-06-17T20:23:00 | 53.721891 | 6.530611 | 2.0 | 16.749 | 2 | 42.170 | 16.921 | 32.690 | 2 |
| 2025-06-17T20:24:00 | 53.721778 | 6.528499 | 2.0 | 16.656 | 2 | 42.166 | 16.907 | 32.698 | 2 |
| 2025-06-17T20:25:00 | 53.721682 | 6.526391 | 2.0 | 16.642 | 2 | 42.128 | 16.829 | 32.729 | 2 |
| 2025-06-17T20:26:00 | 53.721586 | 6.524281 | 2.0 | 16.619 | 2 | 42.115 | 16.805 | 32.737 | 2 |
| 2025-06-17T20:27:00 | 53.721477 | 6.522175 | 2.0 | 16.590 | 2 | 42.107 | 16.781 | 32.750 | 2 |
| 2025-06-17T20:28:00 | 53.721361 | 6.520073 | 2.0 | 16.571 | 2 | 42.094 | 16.758 | 32.757 | 2 |
| 2025-06-17T20:29:00 | 53.721253 | 6.517978 | 2.0 | 16.543 | 2 | 42.077 | 16.732 | 32.764 | 2 |
| 2025-06-17T20:30:00 | 53.721145 | 6.515887 | 2.0 | 16.524 | 2 | 42.063 | 16.711 | 32.769 | 2 |
| 2025-06-17T20:31:00 | 53.721017 | 6.513800 | 2.0 | 16.484 | 2 | 42.053 | 16.683 | 32.783 | 2 |
| 2025-06-17T20:32:00 | 53.720895 | 6.511729 | 2.0 | 16.452 | 2 | 42.045 | 16.650 | 32.803 | 2 |
| 2025-06-17T20:33:00 | 53.720787 | 6.509655 | 2.0 | 16.413 | 2 | 42.033 | 16.614 | 32.822 | 2 |
| 2025-06-17T20:34:00 | 53.720690 | 6.507594 | 2.0 | 16.392 | 2 | 42.016 | 16.579 | 32.836 | 2 |
| 2025-06-17T20:35:00 | 53.720597 | 6.505540 | 2.0 | 16.374 | 2 | 42.005 | 16.558 | 32.844 | 2 |
| 2025-06-17T20:36:00 | 53.720487 | 6.503505 | 2.0 | 16.359 | 2 | 41.998 | 16.539 | 32.853 | 2 |
| 2025-06-17T20:37:00 | 53.720390 | 6.501488 | 2.0 | 16.336 | 2 | 41.994 | 16.521 | 32.864 | 2 |
| 2025-06-17T20:38:00 | 53.720284 | 6.499506 | 2.0 | 16.779 | 2 | 41.991 | 16.524 | 32.859 | 2 |
| 2025-06-17T20:39:00 | 53.720221 | 6.497700 | 2.0 | 16.944 | 2 | 42.197 | 16.982 | 32.664 | 2 |
| 2025-06-17T20:40:00 | 53.720178 | 6.496058 | 2.0 | 16.706 | 2 | 42.284 | 17.073 | 32.666 | 2 |
| 2025-06-17T20:41:00 | 53.720114 | 6.494590 | 2.0 | 16.863 | 2 | 42.190 | 16.857 | 32.760 | 2 |
| 2025-06-17T20:42:00 | 53.720094 | 6.493270 | 2.0 | 16.289 | 2 | 42.184 | 16.845 | 32.764 | 2 |
| 2025-06-17T20:43:00 | 53.720005 | 6.492111 | 2.0 | 16.273 | 2 | 42.008 | 16.497 | 32.896 | 2 |
| 2025-06-17T20:44:00 | 53.719973 | 6.491033 | 2.0 | 16.266 | 2 | 41.964 | 16.445 | 32.901 | 2 |
| 2025-06-17T20:45:00 | 53.719909 | 6.490028 | 2.0 | 16.261 | 2 | 41.958 | 16.435 | 32.904 | 2 |
| 2025-06-17T20:46:00 | 53.719870 | 6.489058 | 2.0 | 16.254 | 2 | 41.954 | 16.430 | 32.904 | 2 |
| 2025-06-17T20:47:00 | 53.719807 | 6.488168 | 2.0 | 16.254 | 2 | 41.950 | 16.422 | 32.907 | 2 |
| 2025-06-17T20:48:00 | 53.719747 | 6.487336 | 2.0 | 16.247 | 2 | 41.950 | 16.420 | 32.909 | 2 |
| 2025-06-17T20:49:00 | 53.719714 | 6.486561 | 2.0 | 16.246 | 2 | 41.949 | 16.414 | 32.913 | 2 |
| 2025-06-17T20:50:00 | 53.719602 | 6.485899 | 2.0 | 16.247 | 2 | 41.948 | 16.414 | 32.912 | 2 |
| 2025-06-17T20:51:00 | 53.719450 | 6.485318 | 2.0 | 16.245 | 2 | 41.947 | 16.413 | 32.912 | 2 |
| 2025-06-17T20:52:00 | 53.719346 | 6.484730 | 2.0 | 16.244 | 2 | 41.946 | 16.411 | 32.913 | 2 |
| 2025-06-17T20:53:00 | 53.719263 | 6.484170 | 2.0 | 16.635 | 2 | 41.952 | 16.434 | 32.899 | 2 |
| 2025-06-17T20:54:00 | 53.719152 | 6.483645 | 2.0 | 16.713 | 2 | 42.145 | 16.838 | 32.736 | 2 |
| 2025-06-17T20:55:00 | 53.719046 | 6.483138 | 2.0 | 16.655 | 2 | 42.188 | 16.861 | 32.755 | 2 |
| 2025-06-17T20:56:00 | 53.718972 | 6.482631 | 2.0 | 16.589 | 2 | 42.165 | 16.806 | 32.780 | 2 |
| 2025-06-17T20:57:00 | 53.718874 | 6.482168 | 2.0 | 16.592 | 2 | 42.137 | 16.760 | 32.793 | 2 |
| 2025-06-17T20:58:00 | 53.718760 | 6.481713 | 2.0 | 16.592 | 2 | 42.130 | 16.745 | 32.799 | 2 |
| 2025-06-17T20:59:00 | 53.718686 | 6.481252 | 2.0 | 16.554 | 2 | 42.130 | 16.749 | 32.796 | 2 |
| 2025-06-17T21:00:00 | 53.718602 | 6.480816 | 2.0 | 16.707 | 2 | 42.122 | 16.737 | 32.799 | 2 |
| 2025-06-17T21:01:00 | 53.718508 | 6.480390 | 2.0 | 16.725 | 2 | 42.180 | 16.857 | 32.751 | 2 |
| 2025-06-17T21:02:00 | 53.718437 | 6.479954 | 2.0 | 16.724 | 2 | 42.202 | 16.885 | 32.747 | 2 |
| 2025-06-17T21:03:00 | 53.718349 | 6.479522 | 2.0 | 16.678 | 2 | 42.193 | 16.858 | 32.762 | 2 |
| 2025-06-17T21:04:00 | 53.718251 | 6.479096 | 2.0 | 16.691 | 2 | 42.188 | 16.862 | 32.754 | 2 |
| 2025-06-17T21:05:00 | 53.718173 | 6.478657 | 2.0 | 16.643 | 2 | 42.182 | 16.834 | 32.772 | 2 |
| 2025-06-17T21:06:00 | 53.718078 | 6.478247 | 2.0 | 16.600 | 2 | 42.160 | 16.795 | 32.784 | 2 |
| 2025-06-17T21:07:00 | 53.717961 | 6.477876 | 2.0 | 16.599 | 2 | 42.147 | 16.767 | 32.796 | 2 |
| 2025-06-17T21:08:00 | 53.717883 | 6.477494 | 2.0 | 16.495 | 2 | 42.139 | 16.753 | 32.801 | 2 |
| 2025-06-17T21:09:00 | 53.717803 | 6.477114 | 2.0 | 16.530 | 2 | 42.095 | 16.669 | 32.831 | 2 |
| 2025-06-17T21:10:00 | 53.717676 | 6.476772 | 2.0 | 16.510 | 2 | 42.101 | 16.685 | 32.823 | 2 |
| 2025-06-17T21:11:00 | 53.717573 | 6.476418 | 2.0 | 16.598 | 2 | 42.103 | 16.700 | 32.813 | 2 |
| 2025-06-17T21:12:00 | 53.717505 | 6.476059 | 2.0 | 16.582 | 2 | 42.133 | 16.754 | 32.794 | 2 |
| 2025-06-17T21:13:00 | 53.717387 | 6.475745 | 2.0 | 16.535 | 2 | 42.122 | 16.736 | 32.800 | 2 |
| 2025-06-17T21:14:00 | 53.717258 | 6.475436 | 2.0 | 16.527 | 2 | 42.105 | 16.696 | 32.818 | 2 |
| 2025-06-17T21:15:00 | 53.717165 | 6.475129 | 2.0 | 16.442 | 2 | 42.098 | 16.685 | 32.820 | 2 |
| 2025-06-17T21:16:00 | 53.717050 | 6.474836 | 2.0 | 16.436 | 2 | 42.062 | 16.615 | 32.847 | 2 |
| 2025-06-17T21:17:00 | 53.716908 | 6.474572 | 2.0 | 16.389 | 2 | 42.047 | 16.593 | 32.851 | 2 |
| 2025-06-17T21:18:00 | 53.716792 | 6.474318 | 2.0 | 16.386 | 2 | 42.025 | 16.552 | 32.866 | 2 |
| 2025-06-17T21:19:00 | 53.716672 | 6.474082 | 2.0 | 16.359 | 2 | 42.025 | 16.557 | 32.862 | 2 |
| 2025-06-17T21:20:00 | 53.716539 | 6.473857 | 2.0 | 16.397 | 2 | 42.012 | 16.521 | 32.880 | 2 |
| 2025-06-17T21:21:00 | 53.716413 | 6.473611 | 2.0 | 16.278 | 2 | 42.023 | 16.556 | 32.861 | 2 |
| 2025-06-17T21:22:00 | 53.716264 | 6.473383 | 2.0 | 16.217 | 2 | 41.970 | 16.422 | 32.925 | 2 |
| 2025-06-17T21:23:00 | 53.716095 | 6.473193 | 2.0 | 16.214 | 2 | 41.943 | 16.386 | 32.931 | 2 |
| 2025-06-17T21:24:00 | 53.715953 | 6.472994 | 2.0 | 16.212 | 2 | 41.938 | 16.382 | 32.930 | 2 |
| 2025-06-17T21:25:00 | 53.715812 | 6.472792 | 2.0 | 16.211 | 2 | 41.939 | 16.378 | 32.934 | 2 |
| 2025-06-17T21:26:00 | 53.715650 | 6.472599 | 2.0 | 16.210 | 2 | 41.938 | 16.377 | 32.934 | 2 |
| 2025-06-17T21:27:00 | 53.715498 | 6.472383 | 2.0 | 16.209 | 2 | 41.938 | 16.376 | 32.935 | 2 |
| 2025-06-17T21:28:00 | 53.715320 | 6.472178 | 2.0 | 16.206 | 2 | 41.937 | 16.375 | 32.935 | 2 |
| 2025-06-17T21:29:00 | 53.715140 | 6.471974 | 2.0 | 16.210 | 2 | 41.932 | 16.372 | 32.933 | 2 |
| 2025-06-17T21:30:00 | 53.714977 | 6.471774 | 2.0 | 16.206 | 2 | 41.936 | 16.375 | 32.934 | 2 |
| 2025-06-17T21:31:00 | 53.714789 | 6.471597 | 2.0 | 16.207 | 2 | 41.935 | 16.373 | 32.935 | 2 |
| 2025-06-17T21:32:00 | 53.714614 | 6.471410 | 2.0 | 16.203 | 2 | 41.936 | 16.372 | 32.936 | 2 |
| 2025-06-17T21:33:00 | 53.714457 | 6.471220 | 2.0 | 16.202 | 2 | 41.933 | 16.369 | 32.936 | 2 |
| 2025-06-17T21:34:00 | 53.714276 | 6.471059 | 2.0 | 16.204 | 2 | 41.934 | 16.369 | 32.937 | 2 |
| 2025-06-17T21:35:00 | 53.714085 | 6.470938 | 2.0 | 16.203 | 2 | 41.936 | 16.370 | 32.938 | 2 |
| 2025-06-17T21:36:00 | 53.713943 | 6.470816 | 2.0 | 16.200 | 2 | 41.934 | 16.368 | 32.938 | 2 |
| 2025-06-17T21:37:00 | 53.713826 | 6.470689 | 2.0 | 16.205 | 2 | 41.933 | 16.366 | 32.939 | 2 |
| 2025-06-17T21:38:00 | 53.713691 | 6.470571 | 2.0 | 16.206 | 2 | 41.938 | 16.370 | 32.940 | 2 |
| 2025-06-17T21:39:00 | 53.713579 | 6.470452 | 2.0 | 16.202 | 2 | 41.937 | 16.370 | 32.939 | 2 |
| 2025-06-17T21:40:00 | 53.713481 | 6.470328 | 2.0 | 16.201 | 2 | 41.936 | 16.367 | 32.940 | 2 |
| 2025-06-17T21:41:00 | 53.713348 | 6.470217 | 2.0 | 16.203 | 2 | 41.936 | 16.367 | 32.940 | 2 |
| 2025-06-17T21:42:00 | 53.713221 | 6.470122 | 2.0 | 16.205 | 2 | 41.938 | 16.369 | 32.941 | 2 |
| 2025-06-17T21:43:00 | 53.713102 | 6.470033 | 2.0 | 16.200 | 2 | 41.942 | 16.369 | 32.944 | 2 |
| 2025-06-17T21:44:00 | 53.712967 | 6.469945 | 2.0 | 16.202 | 2 | 41.938 | 16.366 | 32.943 | 2 |
| 2025-06-17T21:45:00 | 53.712851 | 6.469854 | 2.0 | 16.199 | 2 | 41.938 | 16.367 | 32.942 | 2 |
| 2025-06-17T21:46:00 | 53.712749 | 6.469769 | 2.0 | 16.203 | 2 | 41.937 | 16.366 | 32.942 | 2 |
| 2025-06-17T21:47:00 | 53.712608 | 6.469698 | 2.0 | 16.203 | 2 | 41.938 | 16.367 | 32.942 | 2 |
| 2025-06-17T21:48:00 | 53.712450 | 6.469638 | 2.0 | 16.202 | 2 | 41.939 | 16.368 | 32.942 | 2 |
| 2025-06-17T21:49:00 | 53.712338 | 6.469565 | 2.0 | 16.203 | 2 | 41.937 | 16.367 | 32.941 | 2 |
| 2025-06-17T21:50:00 | 53.712246 | 6.469491 | 2.0 | 16.206 | 2 | 41.939 | 16.369 | 32.941 | 2 |
| 2025-06-17T21:51:00 | 53.712128 | 6.469419 | 2.0 | 16.205 | 2 | 41.940 | 16.370 | 32.942 | 2 |
| 2025-06-17T21:52:00 | 53.712041 | 6.469340 | 2.0 | 16.204 | 2 | 41.941 | 16.370 | 32.942 | 2 |
| 2025-06-17T21:53:00 | 53.712016 | 6.469272 | 2.0 | 16.204 | 2 | 41.940 | 16.368 | 32.943 | 2 |
| 2025-06-17T21:54:00 | 53.711983 | 6.469208 | 2.0 | 16.202 | 2 | 41.940 | 16.368 | 32.943 | 2 |
| 2025-06-17T21:55:00 | 53.711933 | 6.469138 | 2.0 | 16.203 | 2 | 41.941 | 16.367 | 32.945 | 2 |
| 2025-06-17T21:56:00 | 53.711916 | 6.469081 | 2.0 | 16.199 | 2 | 41.941 | 16.367 | 32.945 | 2 |
| 2025-06-17T21:57:00 | 53.711892 | 6.469023 | 2.0 | 16.198 | 2 | 41.937 | 16.363 | 32.945 | 2 |
| 2025-06-17T21:58:00 | 53.711861 | 6.468969 | 2.0 | 16.198 | 2 | 41.937 | 16.364 | 32.944 | 2 |
| 2025-06-17T21:59:00 | 53.711871 | 6.468912 | 2.0 | 16.197 | 2 | 41.936 | 16.362 | 32.945 | 2 |
| 2025-06-17T22:00:00 | 53.711906 | 6.468867 | 2.0 | 16.199 | 2 | 41.938 | 16.363 | 32.946 | 2 |
| 2025-06-17T22:01:00 | 53.711902 | 6.468831 | 2.0 | 16.197 | 2 | 41.939 | 16.363 | 32.946 | 2 |
| 2025-06-17T22:02:00 | 53.711913 | 6.468800 | 2.0 | 16.198 | 2 | 41.940 | 16.362 | 32.948 | 2 |
| 2025-06-17T22:03:00 | 53.711965 | 6.468781 | 2.0 | 16.196 | 2 | 41.942 | 16.363 | 32.949 | 2 |
| 2025-06-17T22:04:00 | 53.711996 | 6.468783 | 2.0 | 16.197 | 2 | 41.941 | 16.361 | 32.950 | 2 |
| 2025-06-17T22:05:00 | 53.711991 | 6.468799 | 2.0 | 16.188 | 2 | 41.940 | 16.359 | 32.951 | 2 |
| 2025-06-17T22:06:00 | 53.712013 | 6.468822 | 2.0 | 16.195 | 2 | 41.936 | 16.356 | 32.950 | 2 |
| 2025-06-17T22:07:00 | 53.712068 | 6.468875 | 2.0 | 16.192 | 2 | 41.940 | 16.358 | 32.951 | 2 |
| 2025-06-17T22:08:00 | 53.712093 | 6.468941 | 2.0 | 16.195 | 2 | 41.941 | 16.357 | 32.953 | 2 |
| 2025-06-17T22:09:00 | 53.712103 | 6.469017 | 2.0 | 16.195 | 2 | 41.943 | 16.357 | 32.955 | 2 |
| 2025-06-17T22:10:00 | 53.712133 | 6.469097 | 2.0 | 16.196 | 2 | 41.948 | 16.360 | 32.957 | 2 |
| 2025-06-17T22:11:00 | 53.712156 | 6.469185 | 2.0 | 16.195 | 2 | 41.950 | 16.360 | 32.959 | 2 |
| 2025-06-17T22:12:00 | 53.712163 | 6.469261 | 2.0 | 16.193 | 2 | 41.949 | 16.358 | 32.959 | 2 |
| 2025-06-17T22:13:00 | 53.712189 | 6.469323 | 2.0 | 16.193 | 2 | 41.950 | 16.358 | 32.960 | 2 |
| 2025-06-17T22:14:00 | 53.712207 | 6.469384 | 2.0 | 16.196 | 2 | 41.951 | 16.358 | 32.961 | 2 |
| 2025-06-17T22:15:00 | 53.712209 | 6.469451 | 2.0 | 16.195 | 2 | 41.954 | 16.360 | 32.962 | 2 |
| 2025-06-17T22:16:00 | 53.712233 | 6.469518 | 2.0 | 16.197 | 2 | 41.953 | 16.358 | 32.963 | 2 |
| 2025-06-17T22:17:00 | 53.712254 | 6.469580 | 2.0 | 16.197 | 2 | 41.956 | 16.360 | 32.964 | 2 |
| 2025-06-17T22:18:00 | 53.712271 | 6.469606 | 2.0 | 16.195 | 2 | 41.956 | 16.360 | 32.964 | 2 |
| 2025-06-17T22:19:00 | 53.712297 | 6.469590 | 2.0 | 16.198 | 2 | 41.956 | 16.359 | 32.965 | 2 |
| 2025-06-17T22:20:00 | 53.712298 | 6.469537 | 2.0 | 16.198 | 2 | 41.959 | 16.360 | 32.966 | 2 |
| 2025-06-17T22:21:00 | 53.712341 | 6.469464 | 2.0 | 16.200 | 2 | 41.959 | 16.362 | 32.965 | 2 |
| 2025-06-17T22:22:00 | 53.712364 | 6.469377 | 2.0 | 16.196 | 2 | 41.961 | 16.363 | 32.966 | 2 |
| 2025-06-17T22:23:00 | 53.712391 | 6.469276 | 2.0 | 16.190 | 2 | 41.958 | 16.358 | 32.967 | 2 |
| 2025-06-17T22:24:00 | 53.712436 | 6.469183 | 2.0 | 16.188 | 2 | 41.954 | 16.354 | 32.967 | 2 |
| 2025-06-17T22:25:00 | 53.712464 | 6.469083 | 2.0 | 16.189 | 2 | 41.952 | 16.353 | 32.966 | 2 |
| 2025-06-17T22:26:00 | 53.712518 | 6.468981 | 2.0 | 16.188 | 2 | 41.952 | 16.353 | 32.966 | 2 |
| 2025-06-17T22:27:00 | 53.712549 | 6.468876 | 2.0 | 16.185 | 2 | 41.953 | 16.352 | 32.968 | 2 |
| 2025-06-17T22:28:00 | 53.712598 | 6.468764 | 2.0 | 16.181 | 2 | 41.948 | 16.349 | 32.966 | 2 |
| 2025-06-17T22:29:00 | 53.712626 | 6.468637 | 2.0 | 16.183 | 2 | 41.945 | 16.345 | 32.967 | 2 |
| 2025-06-17T22:30:00 | 53.712683 | 6.468517 | 2.0 | 16.181 | 2 | 41.945 | 16.347 | 32.965 | 2 |
| 2025-06-17T22:31:00 | 53.712708 | 6.468391 | 2.0 | 16.171 | 2 | 41.943 | 16.344 | 32.966 | 2 |
| 2025-06-17T22:32:00 | 53.712760 | 6.468271 | 2.0 | 16.174 | 2 | 41.936 | 16.335 | 32.967 | 2 |
| 2025-06-17T22:33:00 | 53.712806 | 6.468153 | 2.0 | 16.173 | 2 | 41.937 | 16.337 | 32.966 | 2 |
| 2025-06-17T22:34:00 | 53.712858 | 6.468029 | 2.0 | 16.172 | 2 | 41.937 | 16.336 | 32.967 | 2 |
| 2025-06-17T22:35:00 | 53.712902 | 6.467907 | 2.0 | 16.174 | 2 | 41.937 | 16.336 | 32.967 | 2 |
| 2025-06-17T22:36:00 | 53.712966 | 6.467786 | 2.0 | 16.170 | 2 | 41.939 | 16.338 | 32.967 | 2 |
| 2025-06-17T22:37:00 | 53.713013 | 6.467678 | 2.0 | 16.176 | 2 | 41.937 | 16.335 | 32.968 | 2 |
| 2025-06-17T22:38:00 | 53.713055 | 6.467575 | 2.0 | 16.174 | 2 | 41.942 | 16.340 | 32.968 | 2 |
| 2025-06-17T22:39:00 | 53.713102 | 6.467468 | 2.0 | 16.176 | 2 | 41.940 | 16.337 | 32.969 | 2 |
| 2025-06-17T22:40:00 | 53.713142 | 6.467351 | 2.0 | 16.173 | 2 | 41.942 | 16.339 | 32.969 | 2 |
| 2025-06-17T22:41:00 | 53.713192 | 6.467224 | 2.0 | 16.176 | 2 | 41.942 | 16.338 | 32.970 | 2 |
| 2025-06-17T22:42:00 | 53.713244 | 6.467079 | 2.0 | 16.173 | 2 | 41.942 | 16.338 | 32.970 | 2 |
| 2025-06-17T22:43:00 | 53.713300 | 6.466927 | 2.0 | 16.178 | 2 | 41.943 | 16.339 | 32.970 | 2 |
| 2025-06-17T22:44:00 | 53.713340 | 6.466772 | 2.0 | 16.176 | 2 | 41.945 | 16.340 | 32.971 | 2 |
| 2025-06-17T22:45:00 | 53.713407 | 6.466615 | 2.0 | 16.182 | 2 | 41.945 | 16.340 | 32.971 | 2 |
| 2025-06-17T22:46:00 | 53.713446 | 6.466465 | 2.0 | 16.175 | 2 | 41.950 | 16.345 | 32.971 | 2 |
| 2025-06-17T22:47:00 | 53.713479 | 6.466317 | 2.0 | 16.176 | 2 | 41.947 | 16.340 | 32.972 | 2 |
| 2025-06-17T22:48:00 | 53.713495 | 6.466168 | 2.0 | 16.179 | 2 | 41.945 | 16.339 | 32.972 | 2 |
| 2025-06-17T22:49:00 | 53.713509 | 6.466021 | 2.0 | 16.179 | 2 | 41.948 | 16.341 | 32.973 | 2 |
| 2025-06-17T22:50:00 | 53.713527 | 6.465870 | 2.0 | 16.177 | 2 | 41.952 | 16.344 | 32.974 | 2 |
| 2025-06-17T22:51:00 | 53.713541 | 6.465711 | 2.0 | 16.179 | 2 | 41.949 | 16.340 | 32.974 | 2 |
| 2025-06-17T22:52:00 | 53.713561 | 6.465562 | 2.0 | 16.181 | 2 | 41.954 | 16.344 | 32.975 | 2 |
| 2025-06-17T22:53:00 | 53.713568 | 6.465402 | 2.0 | 16.185 | 2 | 41.956 | 16.346 | 32.975 | 2 |
| 2025-06-17T22:54:00 | 53.713587 | 6.465247 | 2.0 | 16.182 | 2 | 41.958 | 16.347 | 32.976 | 2 |
| 2025-06-17T22:55:00 | 53.713589 | 6.465088 | 2.0 | 16.188 | 2 | 41.959 | 16.347 | 32.977 | 2 |
| 2025-06-17T22:56:00 | 53.713614 | 6.464928 | 2.0 | 16.183 | 2 | 41.962 | 16.351 | 32.977 | 2 |
| 2025-06-17T22:57:00 | 53.713603 | 6.464765 | 2.0 | 16.180 | 2 | 41.960 | 16.346 | 32.979 | 2 |
| 2025-06-17T22:58:00 | 53.713628 | 6.464616 | 2.0 | 16.184 | 2 | 41.958 | 16.344 | 32.979 | 2 |
| 2025-06-17T22:59:00 | 53.713639 | 6.464479 | 2.0 | 16.189 | 2 | 41.963 | 16.348 | 32.980 | 2 |
| 2025-06-17T23:00:00 | 53.713642 | 6.464337 | 2.0 | 16.187 | 2 | 41.967 | 16.352 | 32.980 | 2 |
| 2025-06-17T23:01:00 | 53.713689 | 6.464210 | 2.0 | 16.187 | 2 | 41.966 | 16.350 | 32.981 | 2 |
| 2025-06-17T23:02:00 | 53.713700 | 6.464080 | 2.0 | 16.183 | 2 | 41.966 | 16.349 | 32.982 | 2 |
| 2025-06-17T23:03:00 | 53.713746 | 6.463955 | 2.0 | 16.184 | 2 | 41.966 | 16.349 | 32.982 | 2 |
| 2025-06-17T23:04:00 | 53.713779 | 6.463830 | 2.0 | 16.191 | 2 | 41.967 | 16.349 | 32.983 | 2 |
| 2025-06-17T23:05:00 | 53.713808 | 6.463701 | 2.0 | 16.195 | 2 | 41.974 | 16.356 | 32.983 | 2 |
| 2025-06-17T23:06:00 | 53.713865 | 6.463608 | 2.0 | 16.188 | 2 | 41.977 | 16.358 | 32.984 | 2 |
| 2025-06-17T23:07:00 | 53.713868 | 6.463516 | 2.0 | 16.196 | 2 | 41.973 | 16.353 | 32.985 | 2 |
| 2025-06-17T23:08:00 | 53.713900 | 6.463422 | 2.0 | 16.198 | 2 | 41.980 | 16.360 | 32.985 | 2 |
| 2025-06-17T23:09:00 | 53.713931 | 6.463331 | 2.0 | 16.195 | 2 | 41.981 | 16.359 | 32.987 | 2 |
| 2025-06-17T23:10:00 | 53.713935 | 6.463231 | 2.0 | 16.190 | 2 | 41.980 | 16.357 | 32.987 | 2 |
| 2025-06-17T23:11:00 | 53.713991 | 6.463141 | 2.0 | 16.199 | 2 | 41.977 | 16.354 | 32.987 | 2 |
| 2025-06-17T23:12:00 | 53.713996 | 6.463059 | 2.0 | 16.203 | 2 | 41.986 | 16.362 | 32.988 | 2 |
| 2025-06-17T23:13:00 | 53.714010 | 6.462967 | 2.0 | 16.206 | 2 | 41.991 | 16.367 | 32.989 | 2 |
| 2025-06-17T23:14:00 | 53.714036 | 6.462860 | 2.0 | 16.206 | 2 | 41.994 | 16.368 | 32.991 | 2 |
| 2025-06-17T23:15:00 | 53.714056 | 6.462738 | 2.0 | 16.209 | 2 | 41.998 | 16.370 | 32.992 | 2 |
| 2025-06-17T23:16:00 | 53.714099 | 6.462623 | 2.0 | 16.210 | 2 | 42.003 | 16.373 | 32.994 | 2 |
| 2025-06-17T23:17:00 | 53.714115 | 6.462496 | 2.0 | 16.213 | 2 | 42.004 | 16.374 | 32.994 | 2 |
| 2025-06-17T23:18:00 | 53.714168 | 6.462375 | 2.0 | 16.217 | 2 | 42.007 | 16.377 | 32.995 | 2 |
| 2025-06-17T23:19:00 | 53.714197 | 6.462252 | 2.0 | 16.217 | 2 | 42.012 | 16.379 | 32.997 | 2 |
| 2025-06-17T23:20:00 | 53.714248 | 6.462124 | 2.0 | 16.216 | 2 | 42.014 | 16.380 | 32.998 | 2 |
| 2025-06-17T23:21:00 | 53.714284 | 6.461997 | 2.0 | 16.219 | 2 | 42.013 | 16.379 | 32.998 | 2 |
| 2025-06-17T23:22:00 | 53.714336 | 6.461876 | 2.0 | 16.216 | 2 | 42.016 | 16.381 | 32.999 | 2 |
| 2025-06-17T23:23:00 | 53.714378 | 6.461748 | 2.0 | 16.214 | 2 | 42.016 | 16.379 | 33.001 | 2 |
| 2025-06-17T23:24:00 | 53.714436 | 6.461606 | 2.0 | 16.216 | 2 | 42.016 | 16.378 | 33.002 | 2 |
| 2025-06-17T23:25:00 | 53.714480 | 6.461463 | 2.0 | 16.216 | 2 | 42.016 | 16.378 | 33.002 | 2 |
| 2025-06-17T23:26:00 | 53.714525 | 6.461310 | 2.0 | 16.213 | 2 | 42.016 | 16.378 | 33.002 | 2 |
| 2025-06-17T23:27:00 | 53.714585 | 6.461159 | 2.0 | 16.211 | 2 | 42.015 | 16.377 | 33.002 | 2 |
| 2025-06-17T23:28:00 | 53.714630 | 6.461004 | 2.0 | 16.212 | 2 | 42.014 | 16.374 | 33.003 | 2 |
| 2025-06-17T23:29:00 | 53.714685 | 6.460838 | 2.0 | 16.209 | 2 | 42.015 | 16.375 | 33.003 | 2 |
| 2025-06-17T23:30:00 | 53.714729 | 6.460673 | 2.0 | 16.206 | 2 | 42.013 | 16.371 | 33.005 | 2 |
| 2025-06-17T23:31:00 | 53.714795 | 6.460507 | 2.0 | 16.205 | 2 | 42.011 | 16.369 | 33.005 | 2 |
| 2025-06-17T23:32:00 | 53.714855 | 6.460350 | 2.0 | 16.206 | 2 | 42.011 | 16.368 | 33.005 | 2 |
| 2025-06-17T23:33:00 | 53.714924 | 6.460215 | 2.0 | 16.201 | 2 | 42.011 | 16.368 | 33.005 | 2 |
| 2025-06-17T23:34:00 | 53.714976 | 6.460086 | 2.0 | 16.199 | 2 | 42.007 | 16.363 | 33.006 | 2 |
| 2025-06-17T23:35:00 | 53.715060 | 6.459958 | 2.0 | 16.198 | 2 | 42.006 | 16.362 | 33.006 | 2 |
| 2025-06-17T23:36:00 | 53.715119 | 6.459816 | 2.0 | 16.195 | 2 | 42.005 | 16.360 | 33.007 | 2 |
| 2025-06-17T23:37:00 | 53.715193 | 6.459670 | 2.0 | 16.193 | 2 | 42.004 | 16.358 | 33.008 | 2 |
| 2025-06-17T23:38:00 | 53.715241 | 6.459519 | 2.0 | 16.195 | 2 | 42.002 | 16.356 | 33.008 | 2 |
| 2025-06-17T23:39:00 | 53.715303 | 6.459363 | 2.0 | 16.193 | 2 | 42.004 | 16.358 | 33.008 | 2 |
| 2025-06-17T23:40:00 | 53.715355 | 6.459185 | 2.0 | 16.194 | 2 | 42.003 | 16.357 | 33.008 | 2 |
| 2025-06-17T23:41:00 | 53.715430 | 6.459006 | 2.0 | 16.187 | 2 | 42.003 | 16.356 | 33.008 | 2 |
| 2025-06-17T23:42:00 | 53.715486 | 6.458824 | 2.0 | 16.184 | 2 | 41.999 | 16.351 | 33.009 | 2 |
| 2025-06-17T23:43:00 | 53.715570 | 6.458636 | 2.0 | 16.187 | 2 | 41.997 | 16.348 | 33.010 | 2 |
| 2025-06-17T23:44:00 | 53.715621 | 6.458443 | 2.0 | 16.183 | 2 | 41.998 | 16.348 | 33.011 | 2 |
| 2025-06-17T23:45:00 | 53.715688 | 6.458242 | 2.0 | 16.179 | 2 | 41.996 | 16.345 | 33.011 | 2 |
| 2025-06-17T23:46:00 | 53.715727 | 6.458046 | 2.0 | 16.175 | 2 | 41.993 | 16.342 | 33.011 | 2 |
| 2025-06-17T23:47:00 | 53.715765 | 6.457834 | 2.0 | 16.170 | 2 | 41.991 | 16.338 | 33.013 | 2 |
| 2025-06-17T23:48:00 | 53.715817 | 6.457613 | 2.0 | 16.174 | 2 | 41.987 | 16.333 | 33.013 | 2 |
| 2025-06-17T23:49:00 | 53.715851 | 6.457374 | 2.0 | 16.175 | 2 | 41.990 | 16.337 | 33.013 | 2 |
| 2025-06-17T23:50:00 | 53.715900 | 6.457125 | 2.0 | 16.171 | 2 | 41.990 | 16.337 | 33.013 | 2 |
| 2025-06-17T23:51:00 | 53.715927 | 6.456870 | 2.0 | 16.169 | 2 | 41.988 | 16.334 | 33.013 | 2 |
| 2025-06-17T23:52:00 | 53.715977 | 6.456605 | 2.0 | 16.168 | 2 | 41.987 | 16.331 | 33.015 | 2 |
| 2025-06-17T23:53:00 | 53.716009 | 6.456329 | 2.0 | 16.167 | 2 | 41.986 | 16.330 | 33.015 | 2 |
| 2025-06-17T23:54:00 | 53.716067 | 6.456044 | 2.0 | 16.169 | 2 | 41.987 | 16.331 | 33.015 | 2 |
| 2025-06-17T23:55:00 | 53.716098 | 6.455760 | 2.0 | 16.170 | 2 | 41.989 | 16.332 | 33.016 | 2 |
| 2025-06-17T23:56:00 | 53.716163 | 6.455468 | 2.0 | 16.168 | 2 | 41.991 | 16.332 | 33.018 | 2 |
| 2025-06-17T23:57:00 | 53.716183 | 6.455168 | 2.0 | 16.169 | 2 | 41.991 | 16.331 | 33.019 | 2 |
| 2025-06-17T23:58:00 | 53.716241 | 6.454867 | 2.0 | 16.171 | 2 | 41.994 | 16.332 | 33.020 | 2 |
| 2025-06-17T23:59:00 | 53.716283 | 6.454573 | 2.0 | 16.170 | 2 | 41.996 | 16.334 | 33.020 | 2 |
| 2025-06-18T00:00:00 | 53.716319 | 6.454268 | 2.0 | 16.172 | 2 | 41.997 | 16.333 | 33.022 | 2 |
| 2025-06-18T00:01:00 | 53.716398 | 6.453962 | 2.0 | 16.170 | 2 | 41.999 | 16.335 | 33.022 | 2 |
| 2025-06-18T00:02:00 | 53.716414 | 6.453657 | 2.0 | 16.168 | 2 | 42.001 | 16.333 | 33.026 | 2 |
| 2025-06-18T00:03:00 | 53.716467 | 6.453356 | 2.0 | 16.172 | 2 | 42.001 | 16.331 | 33.027 | 2 |
| 2025-06-18T00:04:00 | 53.716513 | 6.453065 | 2.0 | 16.171 | 2 | 42.005 | 16.334 | 33.028 | 2 |
| 2025-06-18T00:05:00 | 53.716568 | 6.452768 | 2.0 | 16.173 | 2 | 42.006 | 16.334 | 33.029 | 2 |
| 2025-06-18T00:06:00 | 53.716612 | 6.452472 | 2.0 | 16.171 | 2 | 42.009 | 16.335 | 33.031 | 2 |
| 2025-06-18T00:07:00 | 53.716640 | 6.452178 | 2.0 | 16.171 | 2 | 42.011 | 16.334 | 33.034 | 2 |
| 2025-06-18T00:08:00 | 53.716696 | 6.451884 | 2.0 | 16.173 | 2 | 42.012 | 16.334 | 33.035 | 2 |
| 2025-06-18T00:09:00 | 53.716733 | 6.451586 | 2.0 | 16.171 | 2 | 42.014 | 16.335 | 33.035 | 2 |
| 2025-06-18T00:10:00 | 53.716781 | 6.451280 | 2.0 | 16.173 | 2 | 42.015 | 16.334 | 33.037 | 2 |
| 2025-06-18T00:11:00 | 53.716816 | 6.450964 | 2.0 | 16.171 | 2 | 42.017 | 16.335 | 33.038 | 2 |
| 2025-06-18T00:12:00 | 53.716852 | 6.450638 | 2.0 | 16.169 | 2 | 42.017 | 16.333 | 33.040 | 2 |
| 2025-06-18T00:13:00 | 53.716882 | 6.450307 | 2.0 | 16.169 | 2 | 42.017 | 16.332 | 33.041 | 2 |
| 2025-06-18T00:14:00 | 53.716902 | 6.449970 | 2.0 | 16.165 | 2 | 42.017 | 16.331 | 33.041 | 2 |
| 2025-06-18T00:15:00 | 53.716928 | 6.449636 | 2.0 | 16.160 | 2 | 42.017 | 16.328 | 33.044 | 2 |
| 2025-06-18T00:16:00 | 53.716941 | 6.449295 | 2.0 | 16.154 | 2 | 42.015 | 16.322 | 33.047 | 2 |
| 2025-06-18T00:17:00 | 53.716965 | 6.448944 | 2.0 | 16.145 | 2 | 42.012 | 16.315 | 33.050 | 2 |
| 2025-06-18T00:18:00 | 53.716995 | 6.448594 | 2.0 | 16.142 | 2 | 42.009 | 16.308 | 33.053 | 2 |
| 2025-06-18T00:19:00 | 53.716995 | 6.448253 | 2.0 | 16.140 | 2 | 42.008 | 16.306 | 33.054 | 2 |
| 2025-06-18T00:20:00 | 53.717037 | 6.447911 | 2.0 | 16.139 | 2 | 42.007 | 16.303 | 33.056 | 2 |
| 2025-06-18T00:21:00 | 53.717049 | 6.447564 | 2.0 | 16.130 | 2 | 42.007 | 16.301 | 33.057 | 2 |
| 2025-06-18T00:22:00 | 53.717100 | 6.447209 | 2.0 | 16.123 | 2 | 42.001 | 16.291 | 33.061 | 2 |
| 2025-06-18T00:23:00 | 53.717100 | 6.446872 | 2.0 | 16.124 | 2 | 41.999 | 16.287 | 33.062 | 2 |
| 2025-06-18T00:24:00 | 53.717148 | 6.446545 | 2.0 | 16.124 | 2 | 42.000 | 16.287 | 33.063 | 2 |
| 2025-06-18T00:25:00 | 53.717177 | 6.446236 | 2.0 | 16.119 | 2 | 42.000 | 16.286 | 33.064 | 2 |
| 2025-06-18T00:26:00 | 53.717167 | 6.445932 | 2.0 | 16.118 | 2 | 41.996 | 16.281 | 33.064 | 2 |
| 2025-06-18T00:27:00 | 53.717200 | 6.445622 | 2.0 | 16.121 | 2 | 41.998 | 16.282 | 33.065 | 2 |
| 2025-06-18T00:28:00 | 53.717193 | 6.445306 | 2.0 | 16.125 | 2 | 42.001 | 16.286 | 33.065 | 2 |
| 2025-06-18T00:29:00 | 53.717232 | 6.444993 | 2.0 | 16.125 | 2 | 42.003 | 16.287 | 33.066 | 2 |
| 2025-06-18T00:30:00 | 53.717230 | 6.444681 | 2.0 | 16.128 | 2 | 42.004 | 16.289 | 33.065 | 2 |
| 2025-06-18T00:31:00 | 53.717250 | 6.444370 | 2.0 | 16.133 | 2 | 42.006 | 16.291 | 33.065 | 2 |
| 2025-06-18T00:32:00 | 53.717251 | 6.444057 | 2.0 | 16.133 | 2 | 42.008 | 16.296 | 33.063 | 2 |
| 2025-06-18T00:33:00 | 53.717272 | 6.443742 | 2.0 | 16.134 | 2 | 42.008 | 16.296 | 33.063 | 2 |
| 2025-06-18T00:34:00 | 53.717275 | 6.443430 | 2.0 | 16.135 | 2 | 42.008 | 16.297 | 33.062 | 2 |
| 2025-06-18T00:35:00 | 53.717284 | 6.443111 | 2.0 | 16.140 | 2 | 42.007 | 16.300 | 33.058 | 2 |
| 2025-06-18T00:36:00 | 53.717300 | 6.442790 | 2.0 | 16.145 | 2 | 42.008 | 16.303 | 33.057 | 2 |
| 2025-06-18T00:37:00 | 53.717301 | 6.442469 | 2.0 | 16.147 | 2 | 42.007 | 16.307 | 33.053 | 2 |
| 2025-06-18T00:38:00 | 53.717324 | 6.442158 | 2.0 | 16.148 | 2 | 42.008 | 16.309 | 33.052 | 2 |
| 2025-06-18T00:39:00 | 53.717328 | 6.441850 | 2.0 | 16.152 | 2 | 42.005 | 16.311 | 33.047 | 2 |
| 2025-06-18T00:40:00 | 53.717364 | 6.441545 | 2.0 | 16.150 | 2 | 42.005 | 16.313 | 33.046 | 2 |
| 2025-06-18T00:41:00 | 53.717370 | 6.441249 | 2.0 | 16.152 | 2 | 42.003 | 16.313 | 33.044 | 2 |
| 2025-06-18T00:42:00 | 53.717400 | 6.440957 | 2.0 | 16.150 | 2 | 41.999 | 16.313 | 33.040 | 2 |
| 2025-06-18T00:43:00 | 53.717396 | 6.440677 | 2.0 | 16.154 | 2 | 41.998 | 16.314 | 33.039 | 2 |
| 2025-06-18T00:44:00 | 53.717433 | 6.440398 | 2.0 | 16.155 | 2 | 41.998 | 16.316 | 33.037 | 2 |
| 2025-06-18T00:45:00 | 53.717439 | 6.440125 | 2.0 | 16.157 | 2 | 41.999 | 16.317 | 33.037 | 2 |
| 2025-06-18T00:46:00 | 53.717475 | 6.439844 | 2.0 | 16.159 | 2 | 42.000 | 16.319 | 33.036 | 2 |
| 2025-06-18T00:47:00 | 53.717487 | 6.439564 | 2.0 | 16.159 | 2 | 41.999 | 16.321 | 33.034 | 2 |
| 2025-06-18T00:48:00 | 53.717506 | 6.439285 | 2.0 | 16.160 | 2 | 41.996 | 16.321 | 33.031 | 2 |
| 2025-06-18T00:49:00 | 53.717533 | 6.439000 | 2.0 | 16.161 | 2 | 41.995 | 16.322 | 33.030 | 2 |
| 2025-06-18T00:50:00 | 53.717542 | 6.438708 | 2.0 | 16.162 | 2 | 41.993 | 16.323 | 33.027 | 2 |
| 2025-06-18T00:51:00 | 53.717573 | 6.438412 | 2.0 | 16.163 | 2 | 41.992 | 16.324 | 33.025 | 2 |
| 2025-06-18T00:52:00 | 53.717584 | 6.438113 | 2.0 | 16.165 | 2 | 41.989 | 16.326 | 33.021 | 2 |
| 2025-06-18T00:53:00 | 53.717620 | 6.437809 | 2.0 | 16.167 | 2 | 41.991 | 16.328 | 33.021 | 2 |
| 2025-06-18T00:54:00 | 53.717619 | 6.437500 | 2.0 | 16.167 | 2 | 41.990 | 16.329 | 33.019 | 2 |
| 2025-06-18T00:55:00 | 53.717678 | 6.437191 | 2.0 | 16.169 | 2 | 41.985 | 16.329 | 33.015 | 2 |
| 2025-06-18T00:56:00 | 53.717691 | 6.436887 | 2.0 | 16.173 | 2 | 41.983 | 16.331 | 33.012 | 2 |
| 2025-06-18T00:57:00 | 53.717734 | 6.436580 | 2.0 | 16.175 | 2 | 41.981 | 16.335 | 33.006 | 2 |
| 2025-06-18T00:58:00 | 53.717749 | 6.436278 | 2.0 | 16.174 | 2 | 41.978 | 16.336 | 33.003 | 2 |
| 2025-06-18T00:59:00 | 53.717785 | 6.435976 | 2.0 | 16.177 | 2 | 41.978 | 16.336 | 33.003 | 2 |
| 2025-06-18T01:00:00 | 53.717803 | 6.435675 | 2.0 | 16.179 | 2 | 41.977 | 16.339 | 33.000 | 2 |
| 2025-06-18T01:01:00 | 53.717835 | 6.435376 | 2.0 | 16.181 | 2 | 41.976 | 16.341 | 32.997 | 2 |
| 2025-06-18T01:02:00 | 53.717847 | 6.435084 | 2.0 | 16.182 | 2 | 41.975 | 16.343 | 32.995 | 2 |
| 2025-06-18T01:03:00 | 53.717863 | 6.434782 | 2.0 | 16.185 | 2 | 41.973 | 16.344 | 32.992 | 2 |
| 2025-06-18T01:04:00 | 53.717880 | 6.434468 | 2.0 | 16.186 | 2 | 41.975 | 16.347 | 32.991 | 2 |
| 2025-06-18T01:05:00 | 53.717901 | 6.434136 | 2.0 | 16.188 | 2 | 41.971 | 16.349 | 32.986 | 2 |
| 2025-06-18T01:06:00 | 53.717901 | 6.433805 | 2.0 | 16.188 | 2 | 41.974 | 16.350 | 32.988 | 2 |
| 2025-06-18T01:07:00 | 53.717937 | 6.433474 | 2.0 | 16.192 | 2 | 41.970 | 16.351 | 32.984 | 2 |
| 2025-06-18T01:08:00 | 53.717947 | 6.433142 | 2.0 | 16.195 | 2 | 41.974 | 16.355 | 32.984 | 2 |
| 2025-06-18T01:09:00 | 53.717982 | 6.432795 | 2.0 | 16.195 | 2 | 41.973 | 16.357 | 32.981 | 2 |
| 2025-06-18T01:10:00 | 53.718000 | 6.432447 | 2.0 | 16.197 | 2 | 41.970 | 16.357 | 32.979 | 2 |
| 2025-06-18T01:11:00 | 53.718026 | 6.432096 | 2.0 | 16.200 | 2 | 41.972 | 16.360 | 32.978 | 2 |
| 2025-06-18T01:12:00 | 53.718034 | 6.431747 | 2.0 | 16.203 | 2 | 41.971 | 16.362 | 32.975 | 2 |
| 2025-06-18T01:13:00 | 53.718063 | 6.431389 | 2.0 | 16.204 | 2 | 41.971 | 16.365 | 32.973 | 2 |
| 2025-06-18T01:14:00 | 53.718072 | 6.431025 | 2.0 | 16.207 | 2 | 41.969 | 16.366 | 32.970 | 2 |
| 2025-06-18T01:15:00 | 53.718100 | 6.430663 | 2.0 | 16.208 | 2 | 41.968 | 16.368 | 32.968 | 2 |
| 2025-06-18T01:16:00 | 53.718110 | 6.430305 | 2.0 | 16.210 | 2 | 41.969 | 16.371 | 32.966 | 2 |
| 2025-06-18T01:17:00 | 53.718135 | 6.429946 | 2.0 | 16.212 | 2 | 41.970 | 16.372 | 32.966 | 2 |
| 2025-06-18T01:18:00 | 53.718139 | 6.429576 | 2.0 | 16.213 | 2 | 41.970 | 16.374 | 32.965 | 2 |
| 2025-06-18T01:19:00 | 53.718172 | 6.429201 | 2.0 | 16.215 | 2 | 41.970 | 16.376 | 32.963 | 2 |
| 2025-06-18T01:20:00 | 53.718184 | 6.428816 | 2.0 | 16.218 | 2 | 41.970 | 16.378 | 32.961 | 2 |
| 2025-06-18T01:21:00 | 53.718214 | 6.428428 | 2.0 | 16.219 | 2 | 41.970 | 16.380 | 32.960 | 2 |
| 2025-06-18T01:22:00 | 53.718223 | 6.428032 | 2.0 | 16.220 | 2 | 41.967 | 16.380 | 32.957 | 2 |
| 2025-06-18T01:23:00 | 53.718272 | 6.427640 | 2.0 | 16.224 | 2 | 41.968 | 16.383 | 32.955 | 2 |
| 2025-06-18T01:24:00 | 53.718288 | 6.427255 | 2.0 | 16.224 | 2 | 41.970 | 16.386 | 32.955 | 2 |
| 2025-06-18T01:25:00 | 53.718330 | 6.426870 | 2.0 | 16.227 | 2 | 41.970 | 16.386 | 32.955 | 2 |
| 2025-06-18T01:26:00 | 53.718333 | 6.426484 | 2.0 | 16.226 | 2 | 41.970 | 16.387 | 32.954 | 2 |
| 2025-06-18T01:27:00 | 53.718372 | 6.426102 | 2.0 | 16.228 | 2 | 41.971 | 16.388 | 32.954 | 2 |
| 2025-06-18T01:28:00 | 53.718375 | 6.425717 | 2.0 | 16.229 | 2 | 41.972 | 16.390 | 32.953 | 2 |
| 2025-06-18T01:29:00 | 53.718408 | 6.425325 | 2.0 | 16.229 | 2 | 41.972 | 16.391 | 32.952 | 2 |
| 2025-06-18T01:30:00 | 53.718409 | 6.424932 | 2.0 | 16.234 | 2 | 41.971 | 16.391 | 32.951 | 2 |
| 2025-06-18T01:31:00 | 53.718438 | 6.424530 | 2.0 | 16.236 | 2 | 41.973 | 16.396 | 32.949 | 2 |
| 2025-06-18T01:32:00 | 53.718432 | 6.424122 | 2.0 | 16.259 | 2 | 41.975 | 16.404 | 32.944 | 2 |
| 2025-06-18T01:33:00 | 53.718441 | 6.423719 | 2.0 | 16.294 | 2 | 41.984 | 16.423 | 32.936 | 2 |
| 2025-06-18T01:34:00 | 53.718407 | 6.423322 | 2.0 | 16.356 | 2 | 42.002 | 16.469 | 32.914 | 2 |
| 2025-06-18T01:35:00 | 53.718403 | 6.422935 | 2.0 | 16.374 | 2 | 42.024 | 16.515 | 32.896 | 2 |
| 2025-06-18T01:36:00 | 53.718365 | 6.422560 | 2.0 | 16.373 | 2 | 42.036 | 16.532 | 32.892 | 2 |
| 2025-06-18T01:37:00 | 53.718371 | 6.422195 | 2.0 | 16.367 | 2 | 42.038 | 16.533 | 32.893 | 2 |
| 2025-06-18T01:38:00 | 53.718340 | 6.421837 | 2.0 | 16.368 | 2 | 42.037 | 16.529 | 32.895 | 2 |
| 2025-06-18T01:39:00 | 53.718333 | 6.421478 | 2.0 | 16.358 | 2 | 42.039 | 16.527 | 32.899 | 2 |
| 2025-06-18T01:40:00 | 53.718308 | 6.421124 | 2.0 | 16.352 | 2 | 42.036 | 16.519 | 32.903 | 2 |
| 2025-06-18T01:41:00 | 53.718308 | 6.420774 | 2.0 | 16.351 | 2 | 42.033 | 16.513 | 32.905 | 2 |
| 2025-06-18T01:42:00 | 53.718287 | 6.420404 | 2.0 | 16.347 | 2 | 42.033 | 16.511 | 32.907 | 2 |
| 2025-06-18T01:43:00 | 53.718285 | 6.420032 | 2.0 | 16.343 | 2 | 42.032 | 16.508 | 32.908 | 2 |
| 2025-06-18T01:44:00 | 53.718280 | 6.419654 | 2.0 | 16.339 | 2 | 42.030 | 16.503 | 32.911 | 2 |
| 2025-06-18T01:45:00 | 53.718280 | 6.419275 | 2.0 | 16.337 | 2 | 42.029 | 16.500 | 32.912 | 2 |
| 2025-06-18T01:46:00 | 53.718281 | 6.418898 | 2.0 | 16.334 | 2 | 42.027 | 16.498 | 32.912 | 2 |
| 2025-06-18T01:47:00 | 53.718282 | 6.418523 | 2.0 | 16.331 | 2 | 42.027 | 16.495 | 32.915 | 2 |
| 2025-06-18T01:48:00 | 53.718278 | 6.418142 | 2.0 | 16.333 | 2 | 42.025 | 16.492 | 32.915 | 2 |
| 2025-06-18T01:49:00 | 53.718283 | 6.417763 | 2.0 | 16.335 | 2 | 42.026 | 16.495 | 32.914 | 2 |
| 2025-06-18T01:50:00 | 53.718292 | 6.417376 | 2.0 | 16.332 | 2 | 42.026 | 16.495 | 32.914 | 2 |
| 2025-06-18T01:51:00 | 53.718306 | 6.416987 | 2.0 | 16.332 | 2 | 42.026 | 16.494 | 32.915 | 2 |
| 2025-06-18T01:52:00 | 53.718329 | 6.416587 | 2.0 | 16.332 | 2 | 42.027 | 16.494 | 32.915 | 2 |
| 2025-06-18T01:53:00 | 53.718348 | 6.416179 | 2.0 | 16.331 | 2 | 42.026 | 16.494 | 32.915 | 2 |
| 2025-06-18T01:54:00 | 53.718373 | 6.415757 | 2.0 | 16.331 | 2 | 42.025 | 16.492 | 32.915 | 2 |
| 2025-06-18T01:55:00 | 53.718406 | 6.415327 | 2.0 | 16.331 | 2 | 42.027 | 16.492 | 32.917 | 2 |
| 2025-06-18T01:56:00 | 53.718434 | 6.414889 | 2.0 | 16.331 | 2 | 42.025 | 16.492 | 32.915 | 2 |
| 2025-06-18T01:57:00 | 53.718468 | 6.414435 | 2.0 | 16.330 | 2 | 42.026 | 16.492 | 32.916 | 2 |
| 2025-06-18T01:58:00 | 53.718503 | 6.413967 | 2.0 | 16.333 | 2 | 42.026 | 16.492 | 32.916 | 2 |
| 2025-06-18T01:59:00 | 53.718530 | 6.413495 | 2.0 | 16.331 | 2 | 42.026 | 16.493 | 32.915 | 2 |
| 2025-06-18T02:00:00 | 53.718567 | 6.413015 | 2.0 | 16.330 | 2 | 42.025 | 16.492 | 32.915 | 2 |
| 2025-06-18T02:01:00 | 53.718600 | 6.412536 | 2.0 | 16.330 | 2 | 42.023 | 16.491 | 32.914 | 2 |
| 2025-06-18T02:02:00 | 53.718636 | 6.412047 | 2.0 | 16.332 | 2 | 42.025 | 16.492 | 32.915 | 2 |
| 2025-06-18T02:03:00 | 53.718676 | 6.411554 | 2.0 | 16.332 | 2 | 42.027 | 16.493 | 32.916 | 2 |
| 2025-06-18T02:04:00 | 53.718714 | 6.411050 | 2.0 | 16.328 | 2 | 42.026 | 16.491 | 32.917 | 2 |
| 2025-06-18T02:05:00 | 53.718745 | 6.410534 | 2.0 | 16.329 | 2 | 42.026 | 16.490 | 32.918 | 2 |
| 2025-06-18T02:06:00 | 53.718787 | 6.409997 | 2.0 | 16.330 | 2 | 42.026 | 16.490 | 32.918 | 2 |
| 2025-06-18T02:07:00 | 53.718808 | 6.409452 | 2.0 | 16.326 | 2 | 42.027 | 16.490 | 32.919 | 2 |
| 2025-06-18T02:08:00 | 53.718858 | 6.408895 | 2.0 | 16.326 | 2 | 42.026 | 16.488 | 32.919 | 2 |
| 2025-06-18T02:09:00 | 53.718876 | 6.408337 | 2.0 | 16.325 | 2 | 42.026 | 16.487 | 32.920 | 2 |
| 2025-06-18T02:10:00 | 53.718914 | 6.407771 | 2.0 | 16.323 | 2 | 42.025 | 16.486 | 32.920 | 2 |
| 2025-06-18T02:11:00 | 53.718963 | 6.407218 | 2.0 | 16.322 | 2 | 42.024 | 16.483 | 32.922 | 2 |
| 2025-06-18T02:12:00 | 53.718913 | 6.406701 | 2.0 | 16.319 | 2 | 42.025 | 16.483 | 32.923 | 2 |
| 2025-06-18T02:13:00 | 53.718858 | 6.406216 | 2.0 | 16.317 | 2 | 42.023 | 16.480 | 32.923 | 2 |
| 2025-06-18T02:14:00 | 53.718803 | 6.405765 | 2.0 | 16.318 | 2 | 42.023 | 16.479 | 32.924 | 2 |
| 2025-06-18T02:15:00 | 53.718754 | 6.405355 | 2.0 | 16.315 | 2 | 42.023 | 16.479 | 32.924 | 2 |
| 2025-06-18T02:16:00 | 53.718710 | 6.404979 | 2.0 | 16.313 | 2 | 42.022 | 16.476 | 32.926 | 2 |
| 2025-06-18T02:17:00 | 53.718669 | 6.404623 | 2.0 | 16.311 | 2 | 42.020 | 16.473 | 32.927 | 2 |
| 2025-06-18T02:18:00 | 53.718624 | 6.404281 | 2.0 | 16.311 | 2 | 42.019 | 16.472 | 32.927 | 2 |
| 2025-06-18T02:19:00 | 53.718588 | 6.403961 | 2.0 | 16.302 | 2 | 42.019 | 16.470 | 32.928 | 2 |
| 2025-06-18T02:20:00 | 53.718557 | 6.403668 | 2.0 | 16.307 | 2 | 42.016 | 16.466 | 32.929 | 2 |
| 2025-06-18T02:21:00 | 53.718534 | 6.403389 | 2.0 | 16.308 | 2 | 42.017 | 16.467 | 32.929 | 2 |
| 2025-06-18T02:22:00 | 53.718510 | 6.403121 | 2.0 | 16.306 | 2 | 42.019 | 16.469 | 32.929 | 2 |
| 2025-06-18T02:23:00 | 53.718492 | 6.402858 | 2.0 | 16.301 | 2 | 42.016 | 16.465 | 32.930 | 2 |
| 2025-06-18T02:24:00 | 53.718476 | 6.402607 | 2.0 | 16.303 | 2 | 42.014 | 16.463 | 32.930 | 2 |
| 2025-06-18T02:25:00 | 53.718466 | 6.402372 | 2.0 | 16.302 | 2 | 42.015 | 16.463 | 32.930 | 2 |
| 2025-06-18T02:26:00 | 53.718453 | 6.402150 | 2.0 | 16.302 | 2 | 42.015 | 16.464 | 32.930 | 2 |
| 2025-06-18T02:27:00 | 53.718435 | 6.401940 | 2.0 | 16.304 | 2 | 42.015 | 16.463 | 32.930 | 2 |
| 2025-06-18T02:28:00 | 53.718423 | 6.401742 | 2.0 | 16.301 | 2 | 42.016 | 16.464 | 32.931 | 2 |
| 2025-06-18T02:29:00 | 53.718407 | 6.401543 | 2.0 | 16.296 | 2 | 42.014 | 16.461 | 32.931 | 2 |
| 2025-06-18T02:30:00 | 53.718394 | 6.401355 | 2.0 | 16.297 | 2 | 42.010 | 16.457 | 32.931 | 2 |
| 2025-06-18T02:31:00 | 53.718383 | 6.401172 | 2.0 | 16.299 | 2 | 42.011 | 16.459 | 32.930 | 2 |
| 2025-06-18T02:32:00 | 53.718380 | 6.400988 | 2.0 | 16.299 | 2 | 42.013 | 16.460 | 32.931 | 2 |
| 2025-06-18T02:33:00 | 53.718369 | 6.400807 | 2.0 | 16.296 | 2 | 42.014 | 16.461 | 32.931 | 2 |
| 2025-06-18T02:34:00 | 53.718357 | 6.400622 | 2.0 | 16.294 | 2 | 42.011 | 16.456 | 32.933 | 2 |
| 2025-06-18T02:35:00 | 53.718342 | 6.400435 | 2.0 | 16.295 | 2 | 42.012 | 16.457 | 32.933 | 2 |
| 2025-06-18T02:36:00 | 53.718319 | 6.400256 | 2.0 | 16.299 | 2 | 42.009 | 16.456 | 32.931 | 2 |
| 2025-06-18T02:37:00 | 53.718300 | 6.400081 | 2.0 | 16.302 | 2 | 42.013 | 16.460 | 32.931 | 2 |
| 2025-06-18T02:38:00 | 53.718277 | 6.399913 | 2.0 | 16.301 | 2 | 42.015 | 16.463 | 32.930 | 2 |
| 2025-06-18T02:39:00 | 53.718260 | 6.399747 | 2.0 | 16.298 | 2 | 42.016 | 16.462 | 32.932 | 2 |
| 2025-06-18T02:40:00 | 53.718248 | 6.399576 | 2.0 | 16.297 | 2 | 42.012 | 16.458 | 32.932 | 2 |
| 2025-06-18T02:41:00 | 53.718238 | 6.399397 | 2.0 | 16.299 | 2 | 42.013 | 16.458 | 32.933 | 2 |
| 2025-06-18T02:42:00 | 53.718229 | 6.399218 | 2.0 | 16.300 | 2 | 42.015 | 16.461 | 32.932 | 2 |
| 2025-06-18T02:43:00 | 53.718216 | 6.399043 | 2.0 | 16.299 | 2 | 42.016 | 16.462 | 32.932 | 2 |
| 2025-06-18T02:44:00 | 53.718198 | 6.398870 | 2.0 | 16.295 | 2 | 42.015 | 16.460 | 32.933 | 2 |
| 2025-06-18T02:45:00 | 53.718175 | 6.398696 | 2.0 | 16.294 | 2 | 42.013 | 16.457 | 32.934 | 2 |
| 2025-06-18T02:46:00 | 53.718153 | 6.398517 | 2.0 | 16.293 | 2 | 42.013 | 16.455 | 32.935 | 2 |
| 2025-06-18T02:47:00 | 53.718134 | 6.398332 | 2.0 | 16.293 | 2 | 42.013 | 16.454 | 32.936 | 2 |
| 2025-06-18T02:48:00 | 53.718120 | 6.398139 | 2.0 | 16.293 | 2 | 42.013 | 16.454 | 32.936 | 2 |
| 2025-06-18T02:49:00 | 53.718104 | 6.397944 | 2.0 | 16.292 | 2 | 42.015 | 16.454 | 32.938 | 2 |
| 2025-06-18T02:50:00 | 53.718092 | 6.397780 | 2.0 | 16.290 | 2 | 42.015 | 16.453 | 32.939 | 2 |
| 2025-06-18T02:51:00 | 53.718122 | 6.397673 | 2.0 | 16.282 | 2 | 42.013 | 16.451 | 32.939 | 2 |
| 2025-06-18T02:52:00 | 53.718211 | 6.397659 | 2.0 | 16.281 | 2 | 42.008 | 16.444 | 32.940 | 2 |
| 2025-06-18T02:53:00 | 53.718347 | 6.397771 | 2.0 | 16.289 | 2 | 42.007 | 16.443 | 32.940 | 2 |
| 2025-06-18T02:54:00 | 53.718499 | 6.397971 | 2.0 | 16.290 | 2 | 42.012 | 16.450 | 32.939 | 2 |
| 2025-06-18T02:55:00 | 53.718670 | 6.398187 | 2.0 | 16.289 | 2 | 42.012 | 16.451 | 32.938 | 2 |
| 2025-06-18T02:56:00 | 53.718893 | 6.398348 | 2.0 | 16.290 | 2 | 42.010 | 16.449 | 32.938 | 2 |
| 2025-06-18T02:57:00 | 53.719434 | 6.398305 | 2.0 | 16.290 | 2 | 42.010 | 16.449 | 32.938 | 2 |
| 2025-06-18T02:58:00 | 53.720528 | 6.397968 | 2.0 | 16.287 | 2 | 42.011 | 16.449 | 32.939 | 2 |
| 2025-06-18T02:59:00 | 53.722084 | 6.397422 | 2.0 | 16.287 | 2 | 42.012 | 16.448 | 32.940 | 2 |
| 2025-06-18T03:00:00 | 53.723895 | 6.396879 | 2.0 | 16.288 | 2 | 42.017 | 16.450 | 32.943 | 2 |
| 2025-06-18T03:01:00 | 53.725722 | 6.396370 | 2.0 | 16.283 | 2 | 42.019 | 16.450 | 32.945 | 2 |
| 2025-06-18T03:02:00 | 53.727480 | 6.395840 | 2.0 | 16.270 | 2 | 42.018 | 16.444 | 32.949 | 2 |
| 2025-06-18T03:03:00 | 53.729157 | 6.395363 | 2.0 | 16.264 | 2 | 42.015 | 16.431 | 32.957 | 2 |
| 2025-06-18T03:04:00 | 53.730767 | 6.394879 | 2.0 | 16.266 | 2 | 42.014 | 16.426 | 32.960 | 2 |
| 2025-06-18T03:05:00 | 53.732297 | 6.394369 | 2.0 | 16.260 | 2 | 42.016 | 16.427 | 32.961 | 2 |
| 2025-06-18T03:06:00 | 53.733762 | 6.393897 | 2.0 | 16.259 | 2 | 42.015 | 16.422 | 32.964 | 2 |
| 2025-06-18T03:07:00 | 53.735184 | 6.393462 | 2.0 | 16.255 | 2 | 42.015 | 16.422 | 32.964 | 2 |
| 2025-06-18T03:08:00 | 53.736587 | 6.393078 | 2.0 | 16.255 | 2 | 42.019 | 16.418 | 32.971 | 2 |
| 2025-06-18T03:09:00 | 53.737973 | 6.392684 | 2.0 | 16.253 | 2 | 42.026 | 16.417 | 32.978 | 2 |
| 2025-06-18T03:10:00 | 53.739370 | 6.392258 | 2.0 | 16.249 | 2 | 42.028 | 16.414 | 32.982 | 2 |
| 2025-06-18T03:11:00 | 53.740826 | 6.391829 | 2.0 | 16.233 | 2 | 42.026 | 16.408 | 32.986 | 2 |
| 2025-06-18T03:12:00 | 53.742317 | 6.391427 | 2.0 | 16.207 | 2 | 42.019 | 16.391 | 32.993 | 2 |
| 2025-06-18T03:13:00 | 53.743821 | 6.390963 | 2.0 | 16.190 | 2 | 42.011 | 16.369 | 33.005 | 2 |
| 2025-06-18T03:14:00 | 53.745341 | 6.390515 | 2.0 | 16.163 | 2 | 42.004 | 16.350 | 33.014 | 2 |
| 2025-06-18T03:15:00 | 53.746854 | 6.390033 | 2.0 | 16.137 | 2 | 41.992 | 16.321 | 33.028 | 2 |
| 2025-06-18T03:16:00 | 53.748332 | 6.389527 | 2.0 | 16.124 | 2 | 41.982 | 16.299 | 33.037 | 2 |
| 2025-06-18T03:17:00 | 53.749785 | 6.389078 | 2.0 | 16.126 | 2 | 41.975 | 16.290 | 33.038 | 2 |
| 2025-06-18T03:18:00 | 53.751221 | 6.388663 | 2.0 | 16.110 | 2 | 41.973 | 16.287 | 33.039 | 2 |
| 2025-06-18T03:19:00 | 53.752660 | 6.388261 | 2.0 | 16.100 | 2 | 41.969 | 16.273 | 33.047 | 2 |
| 2025-06-18T03:20:00 | 53.754099 | 6.387840 | 2.0 | 16.092 | 2 | 41.964 | 16.263 | 33.051 | 2 |
| 2025-06-18T03:21:00 | 53.755534 | 6.387416 | 2.0 | 16.086 | 2 | 41.961 | 16.254 | 33.056 | 2 |
| 2025-06-18T03:22:00 | 53.756971 | 6.386996 | 2.0 | 16.079 | 2 | 41.961 | 16.248 | 33.061 | 2 |
| 2025-06-18T03:23:00 | 53.758401 | 6.386539 | 2.0 | 16.075 | 2 | 41.956 | 16.242 | 33.062 | 2 |
| 2025-06-18T03:24:00 | 53.759831 | 6.386103 | 2.0 | 16.068 | 2 | 41.957 | 16.238 | 33.066 | 2 |
| 2025-06-18T03:25:00 | 53.761266 | 6.385690 | 2.0 | 16.053 | 2 | 41.954 | 16.229 | 33.071 | 2 |
| 2025-06-18T03:26:00 | 53.762703 | 6.385262 | 2.0 | 16.038 | 2 | 41.947 | 16.214 | 33.077 | 2 |
| 2025-06-18T03:27:00 | 53.764149 | 6.384853 | 2.0 | 16.028 | 2 | 41.941 | 16.200 | 33.083 | 2 |
| 2025-06-18T03:28:00 | 53.765601 | 6.384430 | 2.0 | 16.026 | 2 | 41.940 | 16.192 | 33.089 | 2 |
| 2025-06-18T03:29:00 | 53.767053 | 6.383996 | 2.0 | 16.019 | 2 | 41.944 | 16.189 | 33.095 | 2 |
| 2025-06-18T03:30:00 | 53.768500 | 6.383541 | 2.0 | 16.009 | 2 | 41.942 | 16.181 | 33.100 | 2 |
| 2025-06-18T03:31:00 | 53.769948 | 6.383051 | 2.0 | 16.000 | 2 | 41.937 | 16.172 | 33.103 | 2 |
| 2025-06-18T03:32:00 | 53.771408 | 6.382593 | 2.0 | 15.992 | 2 | 41.932 | 16.162 | 33.107 | 2 |
| 2025-06-18T03:33:00 | 53.772869 | 6.382157 | 2.0 | 15.983 | 2 | 41.930 | 16.154 | 33.112 | 2 |
| 2025-06-18T03:34:00 | 53.774335 | 6.381732 | 2.0 | 15.980 | 2 | 41.929 | 16.148 | 33.116 | 2 |
| 2025-06-18T03:35:00 | 53.775800 | 6.381308 | 2.0 | 15.978 | 2 | 41.931 | 16.144 | 33.121 | 2 |
| 2025-06-18T03:36:00 | 53.777266 | 6.380880 | 2.0 | 15.972 | 2 | 41.932 | 16.140 | 33.125 | 2 |
| 2025-06-18T03:37:00 | 53.778682 | 6.380240 | 2.0 | 15.961 | 2 | 41.932 | 16.134 | 33.130 | 2 |
| 2025-06-18T03:38:00 | 53.780045 | 6.379336 | 2.0 | 15.953 | 2 | 41.925 | 16.124 | 33.133 | 2 |
| 2025-06-18T03:39:00 | 53.781424 | 6.378465 | 2.0 | 15.946 | 2 | 41.921 | 16.115 | 33.137 | 2 |
| 2025-06-18T03:40:00 | 53.782812 | 6.377628 | 2.0 | 15.940 | 2 | 41.922 | 16.111 | 33.141 | 2 |
| 2025-06-18T03:41:00 | 53.784173 | 6.376701 | 2.0 | 15.931 | 2 | 41.920 | 16.102 | 33.146 | 2 |
| 2025-06-18T03:42:00 | 53.785467 | 6.375570 | 2.0 | 15.925 | 2 | 41.918 | 16.094 | 33.151 | 2 |
| 2025-06-18T03:43:00 | 53.786766 | 6.374411 | 2.0 | 15.914 | 2 | 41.919 | 16.088 | 33.157 | 2 |
| 2025-06-18T03:44:00 | 53.788065 | 6.373261 | 2.0 | 15.900 | 2 | 41.919 | 16.076 | 33.167 | 2 |
| 2025-06-18T03:45:00 | 53.789352 | 6.372068 | 2.0 | 15.891 | 2 | 41.915 | 16.063 | 33.175 | 2 |
| 2025-06-18T03:46:00 | 53.790639 | 6.370867 | 2.0 | 15.887 | 2 | 41.911 | 16.054 | 33.179 | 2 |
| 2025-06-18T03:47:00 | 53.791941 | 6.369680 | 2.0 | 15.884 | 2 | 41.909 | 16.051 | 33.179 | 2 |
| 2025-06-18T03:48:00 | 53.793322 | 6.368987 | 2.0 | 15.876 | 2 | 41.907 | 16.048 | 33.180 | 2 |
| 2025-06-18T03:49:00 | 53.794759 | 6.368879 | 2.0 | 15.862 | 2 | 41.905 | 16.038 | 33.187 | 2 |
| 2025-06-18T03:50:00 | 53.796206 | 6.368621 | 2.0 | 15.859 | 2 | 41.900 | 16.026 | 33.192 | 2 |
| 2025-06-18T03:51:00 | 53.797662 | 6.368275 | 2.0 | 15.856 | 2 | 41.900 | 16.023 | 33.195 | 2 |
| 2025-06-18T03:52:00 | 53.799132 | 6.367968 | 2.0 | 15.838 | 2 | 41.899 | 16.017 | 33.199 | 2 |
| 2025-06-18T03:53:00 | 53.800604 | 6.367739 | 2.0 | 15.819 | 2 | 41.892 | 15.999 | 33.208 | 2 |
| 2025-06-18T03:54:00 | 53.802076 | 6.367530 | 2.0 | 15.812 | 2 | 41.886 | 15.982 | 33.217 | 2 |
| 2025-06-18T03:55:00 | 53.803541 | 6.367246 | 2.0 | 15.808 | 2 | 41.887 | 15.976 | 33.223 | 2 |
| 2025-06-18T03:56:00 | 53.805008 | 6.366927 | 2.0 | 15.803 | 2 | 41.888 | 15.972 | 33.227 | 2 |
| 2025-06-18T03:57:00 | 53.806472 | 6.366628 | 2.0 | 15.789 | 2 | 41.888 | 15.966 | 33.232 | 2 |
| 2025-06-18T03:58:00 | 53.807944 | 6.366391 | 2.0 | 15.778 | 2 | 41.883 | 15.953 | 33.238 | 2 |
| 2025-06-18T03:59:00 | 53.809310 | 6.365734 | 2.0 | 15.774 | 2 | 41.879 | 15.943 | 33.243 | 2 |
| 2025-06-18T04:00:00 | 53.810342 | 6.364221 | 2.0 | 15.768 | 2 | 41.880 | 15.937 | 33.249 | 2 |
| 2025-06-18T04:01:00 | 53.811374 | 6.362598 | 2.0 | 15.765 | 2 | 41.880 | 15.932 | 33.253 | 2 |
| 2025-06-18T04:02:00 | 53.812471 | 6.361039 | 2.0 | 15.760 | 2 | 41.881 | 15.928 | 33.258 | 2 |
| 2025-06-18T04:03:00 | 53.813605 | 6.359495 | 2.0 | 15.761 | 2 | 41.879 | 15.924 | 33.259 | 2 |
| 2025-06-18T04:04:00 | 53.814740 | 6.357909 | 2.0 | 15.758 | 2 | 41.879 | 15.925 | 33.258 | 2 |
| 2025-06-18T04:05:00 | 53.815890 | 6.356324 | 2.0 | 15.750 | 2 | 41.878 | 15.921 | 33.261 | 2 |
| 2025-06-18T04:06:00 | 53.817045 | 6.354714 | 2.0 | 15.739 | 2 | 41.874 | 15.912 | 33.265 | 2 |
| 2025-06-18T04:07:00 | 53.818177 | 6.353048 | 2.0 | 15.741 | 2 | 41.872 | 15.904 | 33.270 | 2 |
| 2025-06-18T04:08:00 | 53.819310 | 6.351379 | 2.0 | 15.737 | 2 | 41.874 | 15.905 | 33.271 | 2 |
| 2025-06-18T04:09:00 | 53.820465 | 6.349734 | 2.0 | 15.730 | 2 | 41.874 | 15.900 | 33.275 | 2 |
| 2025-06-18T04:10:00 | 53.821632 | 6.348106 | 2.0 | 15.725 | 2 | 41.873 | 15.894 | 33.279 | 2 |
| 2025-06-18T04:11:00 | 53.822779 | 6.346501 | 2.0 | 15.719 | 2 | 41.872 | 15.889 | 33.282 | 2 |
| 2025-06-18T04:12:00 | 53.823879 | 6.344960 | 2.0 | 15.710 | 2 | 41.870 | 15.883 | 33.286 | 2 |
| 2025-06-18T04:13:00 | 53.824942 | 6.343450 | 2.0 | 15.699 | 2 | 41.867 | 15.873 | 33.291 | 2 |
| 2025-06-18T04:14:00 | 53.825984 | 6.341953 | 2.0 | 15.693 | 2 | 41.863 | 15.864 | 33.295 | 2 |
| 2025-06-18T04:15:00 | 53.827002 | 6.340480 | 2.0 | 15.688 | 2 | 41.861 | 15.858 | 33.299 | 2 |
| 2025-06-18T04:16:00 | 53.828019 | 6.339009 | 2.0 | 15.678 | 2 | 41.859 | 15.851 | 33.303 | 2 |
| 2025-06-18T04:17:00 | 53.829046 | 6.337564 | 2.0 | 15.670 | 2 | 41.854 | 15.841 | 33.307 | 2 |
| 2025-06-18T04:18:00 | 53.830072 | 6.336133 | 2.0 | 15.659 | 2 | 41.848 | 15.833 | 33.308 | 2 |
| 2025-06-18T04:19:00 | 53.831073 | 6.334688 | 2.0 | 15.660 | 2 | 41.845 | 15.825 | 33.312 | 2 |
| 2025-06-18T04:20:00 | 53.832079 | 6.333244 | 2.0 | 15.658 | 2 | 41.846 | 15.825 | 33.313 | 2 |
| 2025-06-18T04:21:00 | 53.833097 | 6.331803 | 2.0 | 15.657 | 2 | 41.847 | 15.823 | 33.316 | 2 |
| 2025-06-18T04:22:00 | 53.834119 | 6.330354 | 2.0 | 15.653 | 2 | 41.848 | 15.821 | 33.318 | 2 |
| 2025-06-18T04:23:00 | 53.835146 | 6.328906 | 2.0 | 15.649 | 2 | 41.847 | 15.816 | 33.322 | 2 |
| 2025-06-18T04:24:00 | 53.836158 | 6.327474 | 2.0 | 15.646 | 2 | 41.846 | 15.813 | 33.323 | 2 |
| 2025-06-18T04:25:00 | 53.837161 | 6.326067 | 2.0 | 15.643 | 2 | 41.846 | 15.811 | 33.325 | 2 |
| 2025-06-18T04:26:00 | 53.838152 | 6.324660 | 2.0 | 15.640 | 2 | 41.846 | 15.807 | 33.328 | 2 |
| 2025-06-18T04:27:00 | 53.839133 | 6.323258 | 2.0 | 15.638 | 2 | 41.846 | 15.805 | 33.330 | 2 |
| 2025-06-18T04:28:00 | 53.840104 | 6.321855 | 2.0 | 15.636 | 2 | 41.845 | 15.802 | 33.332 | 2 |
| 2025-06-18T04:29:00 | 53.841077 | 6.320468 | 2.0 | 15.634 | 2 | 41.846 | 15.800 | 33.334 | 2 |
| 2025-06-18T04:30:00 | 53.842052 | 6.319091 | 2.0 | 15.630 | 2 | 41.846 | 15.798 | 33.336 | 2 |
| 2025-06-18T04:31:00 | 53.843034 | 6.317722 | 2.0 | 15.626 | 2 | 41.845 | 15.794 | 33.338 | 2 |
| 2025-06-18T04:32:00 | 53.844015 | 6.316338 | 2.0 | 15.624 | 2 | 41.843 | 15.790 | 33.340 | 2 |
| 2025-06-18T04:33:00 | 53.844987 | 6.314960 | 2.0 | 15.622 | 2 | 41.843 | 15.788 | 33.342 | 2 |
| 2025-06-18T04:34:00 | 53.845947 | 6.313585 | 2.0 | 15.621 | 2 | 41.843 | 15.787 | 33.343 | 2 |
| 2025-06-18T04:35:00 | 53.846902 | 6.312194 | 2.0 | 15.620 | 2 | 41.844 | 15.785 | 33.345 | 2 |
| 2025-06-18T04:36:00 | 53.847866 | 6.310812 | 2.0 | 15.618 | 2 | 41.845 | 15.784 | 33.347 | 2 |
| 2025-06-18T04:37:00 | 53.848845 | 6.309449 | 2.0 | 15.617 | 2 | 41.846 | 15.783 | 33.349 | 2 |
| 2025-06-18T04:38:00 | 53.849826 | 6.308080 | 2.0 | 15.614 | 2 | 41.846 | 15.781 | 33.350 | 2 |
| 2025-06-18T04:39:00 | 53.850806 | 6.306717 | 2.0 | 15.613 | 2 | 41.846 | 15.779 | 33.352 | 2 |
| 2025-06-18T04:40:00 | 53.851782 | 6.305331 | 2.0 | 15.610 | 2 | 41.847 | 15.777 | 33.355 | 2 |
| 2025-06-18T04:41:00 | 53.852749 | 6.303905 | 2.0 | 15.607 | 2 | 41.847 | 15.774 | 33.357 | 2 |
| 2025-06-18T04:42:00 | 53.853718 | 6.302490 | 2.0 | 15.604 | 2 | 41.846 | 15.771 | 33.359 | 2 |
| 2025-06-18T04:43:00 | 53.854691 | 6.301094 | 2.0 | 15.600 | 2 | 41.846 | 15.768 | 33.361 | 2 |
| 2025-06-18T04:44:00 | 53.855662 | 6.299712 | 2.0 | 15.598 | 2 | 41.846 | 15.765 | 33.364 | 2 |
| 2025-06-18T04:45:00 | 53.856631 | 6.298350 | 2.0 | 15.596 | 2 | 41.846 | 15.762 | 33.366 | 2 |
| 2025-06-18T04:46:00 | 53.857583 | 6.297002 | 2.0 | 15.594 | 2 | 41.846 | 15.760 | 33.368 | 2 |
| 2025-06-18T04:47:00 | 53.858532 | 6.295660 | 2.0 | 15.592 | 2 | 41.846 | 15.758 | 33.370 | 2 |
| 2025-06-18T04:48:00 | 53.859472 | 6.294304 | 2.0 | 15.587 | 2 | 41.845 | 15.756 | 33.371 | 2 |
| 2025-06-18T04:49:00 | 53.860402 | 6.292952 | 2.0 | 15.583 | 2 | 41.842 | 15.751 | 33.372 | 2 |
| 2025-06-18T04:50:00 | 53.861340 | 6.291620 | 2.0 | 15.580 | 2 | 41.840 | 15.748 | 33.373 | 2 |
| 2025-06-18T04:51:00 | 53.862288 | 6.290326 | 2.0 | 15.576 | 2 | 41.839 | 15.744 | 33.375 | 2 |
| 2025-06-18T04:52:00 | 53.863234 | 6.289031 | 2.0 | 15.574 | 2 | 41.838 | 15.741 | 33.377 | 2 |
| 2025-06-18T04:53:00 | 53.864170 | 6.287719 | 2.0 | 15.573 | 2 | 41.838 | 15.739 | 33.379 | 2 |
| 2025-06-18T04:54:00 | 53.865091 | 6.286377 | 2.0 | 15.570 | 2 | 41.837 | 15.736 | 33.380 | 2 |
| 2025-06-18T04:55:00 | 53.865990 | 6.285002 | 2.0 | 15.564 | 2 | 41.836 | 15.733 | 33.382 | 2 |
| 2025-06-18T04:56:00 | 53.866879 | 6.283615 | 2.0 | 15.561 | 2 | 41.834 | 15.729 | 33.384 | 2 |
| 2025-06-18T04:57:00 | 53.867770 | 6.282227 | 2.0 | 15.558 | 2 | 41.832 | 15.725 | 33.385 | 2 |
| 2025-06-18T04:58:00 | 53.868669 | 6.280867 | 2.0 | 15.555 | 2 | 41.830 | 15.722 | 33.386 | 2 |
| 2025-06-18T04:59:00 | 53.869569 | 6.279515 | 2.0 | 15.550 | 2 | 41.829 | 15.719 | 33.388 | 2 |
| 2025-06-18T05:00:00 | 53.870476 | 6.278155 | 2.0 | 15.546 | 2 | 41.827 | 15.714 | 33.390 | 2 |
| 2025-06-18T05:01:00 | 53.871372 | 6.276781 | 2.0 | 15.544 | 2 | 41.826 | 15.711 | 33.392 | 2 |
| 2025-06-18T05:02:00 | 53.872263 | 6.275407 | 2.0 | 15.538 | 2 | 41.825 | 15.707 | 33.394 | 2 |
| 2025-06-18T05:03:00 | 53.873166 | 6.274037 | 2.0 | 15.534 | 2 | 41.824 | 15.703 | 33.397 | 2 |
| 2025-06-18T05:04:00 | 53.874070 | 6.272662 | 2.0 | 15.531 | 2 | 41.822 | 15.698 | 33.399 | 2 |
| 2025-06-18T05:05:00 | 53.874981 | 6.271293 | 2.0 | 15.525 | 2 | 41.821 | 15.695 | 33.401 | 2 |
| 2025-06-18T05:06:00 | 53.875892 | 6.269904 | 2.0 | 15.520 | 2 | 41.819 | 15.690 | 33.403 | 2 |
| 2025-06-18T05:07:00 | 53.876795 | 6.268491 | 2.0 | 15.515 | 2 | 41.815 | 15.683 | 33.406 | 2 |
| 2025-06-18T05:08:00 | 53.877696 | 6.267075 | 2.0 | 15.513 | 2 | 41.813 | 15.680 | 33.406 | 2 |
| 2025-06-18T05:09:00 | 53.878595 | 6.265685 | 2.0 | 15.513 | 2 | 41.813 | 15.678 | 33.408 | 2 |
| 2025-06-18T05:10:00 | 53.879571 | 6.264209 | 2.0 | 15.512 | 2 | 41.812 | 15.676 | 33.409 | 2 |
| 2025-06-18T05:11:00 | 53.880666 | 6.262587 | 2.0 | 15.510 | 2 | 41.812 | 15.675 | 33.410 | 2 |
| 2025-06-18T05:12:00 | 53.881835 | 6.260874 | 2.0 | 15.506 | 2 | 41.812 | 15.673 | 33.411 | 2 |
| 2025-06-18T05:13:00 | 53.883035 | 6.259084 | 2.0 | 15.505 | 2 | 41.812 | 15.670 | 33.414 | 2 |
| 2025-06-18T05:14:00 | 53.884248 | 6.257237 | 2.0 | 15.502 | 2 | 41.811 | 15.668 | 33.415 | 2 |
| 2025-06-18T05:15:00 | 53.885470 | 6.255346 | 2.0 | 15.497 | 2 | 41.810 | 15.664 | 33.417 | 2 |
| 2025-06-18T05:16:00 | 53.886706 | 6.253442 | 2.0 | 15.493 | 2 | 41.808 | 15.660 | 33.419 | 2 |
| 2025-06-18T05:17:00 | 53.887950 | 6.251527 | 2.0 | 15.493 | 2 | 41.808 | 15.658 | 33.420 | 2 |
| 2025-06-18T05:18:00 | 53.889196 | 6.249612 | 2.0 | 15.487 | 2 | 41.808 | 15.655 | 33.423 | 2 |
| 2025-06-18T05:19:00 | 53.890447 | 6.247706 | 2.0 | 15.484 | 2 | 41.806 | 15.651 | 33.425 | 2 |
| 2025-06-18T05:20:00 | 53.891699 | 6.245803 | 2.0 | 15.480 | 2 | 41.805 | 15.649 | 33.425 | 2 |
| 2025-06-18T05:21:00 | 53.892934 | 6.243884 | 2.0 | 15.477 | 2 | 41.802 | 15.643 | 33.428 | 2 |
| 2025-06-18T05:22:00 | 53.894148 | 6.242021 | 2.0 | 15.475 | 2 | 41.802 | 15.642 | 33.429 | 2 |
| 2025-06-18T05:23:00 | 53.895238 | 6.240335 | 2.0 | 15.468 | 2 | 41.802 | 15.639 | 33.431 | 2 |
| 2025-06-18T05:24:00 | 53.896210 | 6.238818 | 2.0 | 15.467 | 2 | 41.801 | 15.633 | 33.435 | 2 |
| 2025-06-18T05:25:00 | 53.896942 | 6.237439 | 2.0 | 15.471 | 2 | 41.802 | 15.632 | 33.437 | 2 |
| 2025-06-18T05:26:00 | 53.897218 | 6.236101 | 2.0 | 15.470 | 2 | 41.808 | 15.634 | 33.441 | 2 |
| 2025-06-18T05:27:00 | 53.897455 | 6.234950 | 2.0 | 15.471 | 2 | 41.809 | 15.635 | 33.441 | 2 |
| 2025-06-18T05:28:00 | 53.897826 | 6.234316 | 2.0 | 15.466 | 2 | 41.810 | 15.633 | 33.443 | 2 |
| 2025-06-18T05:29:00 | 53.898108 | 6.234144 | 2.0 | 15.465 | 2 | 41.808 | 15.631 | 33.443 | 2 |
| 2025-06-18T05:30:00 | 53.898258 | 6.234104 | 2.0 | 15.464 | 2 | 41.806 | 15.629 | 33.443 | 2 |
| 2025-06-18T05:31:00 | 53.898375 | 6.234131 | 2.0 | 15.460 | 2 | 41.802 | 15.625 | 33.443 | 2 |
| 2025-06-18T05:32:00 | 53.898465 | 6.234219 | 2.0 | 15.459 | 2 | 41.799 | 15.624 | 33.441 | 2 |
| 2025-06-18T05:33:00 | 53.898519 | 6.234347 | 2.0 | 15.459 | 2 | 41.797 | 15.622 | 33.441 | 2 |
| 2025-06-18T05:34:00 | 53.898563 | 6.234532 | 2.0 | 15.466 | 2 | 41.797 | 15.624 | 33.439 | 2 |
| 2025-06-18T05:35:00 | 53.898567 | 6.234740 | 2.0 | 15.469 | 2 | 41.802 | 15.629 | 33.440 | 2 |
| 2025-06-18T05:36:00 | 53.898519 | 6.234941 | 2.0 | 15.469 | 2 | 41.807 | 15.634 | 33.440 | 2 |
| 2025-06-18T05:37:00 | 53.898438 | 6.235064 | 2.0 | 15.466 | 2 | 41.806 | 15.633 | 33.440 | 2 |
| 2025-06-18T05:38:00 | 53.898339 | 6.235116 | 2.0 | 15.465 | 2 | 41.803 | 15.630 | 33.440 | 2 |
| 2025-06-18T05:39:00 | 53.898231 | 6.235100 | 2.0 | 15.466 | 2 | 41.801 | 15.629 | 33.439 | 2 |
| 2025-06-18T05:40:00 | 53.898128 | 6.235073 | 2.0 | 15.467 | 2 | 41.801 | 15.630 | 33.438 | 2 |
| 2025-06-18T05:41:00 | 53.898066 | 6.235075 | 2.0 | 15.464 | 2 | 41.802 | 15.630 | 33.439 | 2 |
| 2025-06-18T05:42:00 | 53.898065 | 6.235140 | 2.0 | 15.470 | 2 | 41.800 | 15.630 | 33.437 | 2 |
| 2025-06-18T05:43:00 | 53.898089 | 6.235238 | 2.0 | 15.470 | 2 | 41.803 | 15.633 | 33.437 | 2 |
| 2025-06-18T05:44:00 | 53.898127 | 6.235334 | 2.0 | 15.470 | 2 | 41.804 | 15.635 | 33.436 | 2 |
| 2025-06-18T05:45:00 | 53.898165 | 6.235432 | 2.0 | 15.470 | 2 | 41.803 | 15.634 | 33.436 | 2 |
| 2025-06-18T05:46:00 | 53.898193 | 6.235523 | 2.0 | 15.465 | 2 | 41.802 | 15.633 | 33.436 | 2 |
| 2025-06-18T05:47:00 | 53.898204 | 6.235599 | 2.0 | 15.462 | 2 | 41.799 | 15.629 | 33.437 | 2 |
| 2025-06-18T05:48:00 | 53.898198 | 6.235669 | 2.0 | 15.463 | 2 | 41.795 | 15.625 | 33.437 | 2 |
| 2025-06-18T05:49:00 | 53.898233 | 6.235742 | 2.0 | 15.470 | 2 | 41.797 | 15.628 | 33.436 | 2 |
| 2025-06-18T05:50:00 | 53.898303 | 6.235803 | 2.0 | 15.463 | 2 | 41.803 | 15.633 | 33.437 | 2 |
| 2025-06-18T05:51:00 | 53.898395 | 6.235857 | 2.0 | 15.471 | 2 | 41.800 | 15.630 | 33.437 | 2 |
| 2025-06-18T05:52:00 | 53.898477 | 6.235905 | 2.0 | 15.475 | 2 | 41.805 | 15.635 | 33.437 | 2 |
| 2025-06-18T05:53:00 | 53.898525 | 6.235820 | 2.0 | 15.467 | 2 | 41.807 | 15.638 | 33.437 | 2 |
| 2025-06-18T05:54:00 | 53.898549 | 6.235841 | 2.0 | 15.463 | 2 | 41.801 | 15.631 | 33.437 | 2 |
| 2025-06-18T05:55:00 | 53.898593 | 6.235881 | 2.0 | 15.466 | 2 | 41.798 | 15.628 | 33.437 | 2 |
| 2025-06-18T05:56:00 | 53.898643 | 6.235737 | 2.0 | 15.471 | 2 | 41.800 | 15.630 | 33.437 | 2 |
| 2025-06-18T05:57:00 | 53.898689 | 6.235604 | 2.0 | 15.468 | 2 | 41.804 | 15.634 | 33.437 | 2 |
| 2025-06-18T05:58:00 | 53.898723 | 6.235558 | 2.0 | 15.467 | 2 | 41.800 | 15.631 | 33.436 | 2 |
| 2025-06-18T05:59:00 | 53.898755 | 6.235586 | 2.0 | 15.469 | 2 | 41.801 | 15.631 | 33.437 | 2 |
| 2025-06-18T06:00:00 | 53.898778 | 6.235647 | 2.0 | 15.473 | 2 | 41.803 | 15.633 | 33.437 | 2 |
| 2025-06-18T06:01:00 | 53.898788 | 6.235746 | 2.0 | 15.469 | 2 | 41.804 | 15.635 | 33.436 | 2 |
| 2025-06-18T06:02:00 | 53.898815 | 6.235855 | 2.0 | 15.470 | 2 | 41.804 | 15.633 | 33.438 | 2 |
| 2025-06-18T06:03:00 | 53.898848 | 6.235966 | 2.0 | 15.473 | 2 | 41.804 | 15.633 | 33.438 | 2 |
| 2025-06-18T06:04:00 | 53.898870 | 6.236080 | 2.0 | 15.476 | 2 | 41.808 | 15.637 | 33.438 | 2 |
| 2025-06-18T06:05:00 | 53.898882 | 6.236185 | 2.0 | 15.459 | 2 | 41.805 | 15.632 | 33.440 | 2 |
| 2025-06-18T06:06:00 | 53.898892 | 6.236285 | 2.0 | 15.461 | 2 | 41.796 | 15.623 | 33.439 | 2 |
| 2025-06-18T06:07:00 | 53.898894 | 6.236390 | 2.0 | 15.471 | 2 | 41.798 | 15.626 | 33.439 | 2 |
| 2025-06-18T06:08:00 | 53.898904 | 6.236491 | 2.0 | 15.471 | 2 | 41.806 | 15.633 | 33.440 | 2 |
| 2025-06-18T06:09:00 | 53.898930 | 6.236585 | 2.0 | 15.462 | 2 | 41.806 | 15.632 | 33.441 | 2 |
| 2025-06-18T06:10:00 | 53.898972 | 6.236667 | 2.0 | 15.459 | 2 | 41.802 | 15.627 | 33.441 | 2 |
| 2025-06-18T06:11:00 | 53.899017 | 6.236734 | 2.0 | 15.457 | 2 | 41.796 | 15.619 | 33.443 | 2 |
| 2025-06-18T06:12:00 | 53.899059 | 6.236789 | 2.0 | 15.463 | 2 | 41.795 | 15.620 | 33.441 | 2 |
| 2025-06-18T06:13:00 | 53.899096 | 6.236837 | 2.0 | 15.463 | 2 | 41.803 | 15.628 | 33.441 | 2 |
| 2025-06-18T06:14:00 | 53.899123 | 6.236879 | 2.0 | 15.468 | 2 | 41.804 | 15.627 | 33.443 | 2 |
| 2025-06-18T06:15:00 | 53.899128 | 6.236909 | 2.0 | 15.461 | 2 | 41.808 | 15.630 | 33.444 | 2 |
| 2025-06-18T06:16:00 | 53.899095 | 6.236937 | 2.0 | 15.462 | 2 | 41.804 | 15.626 | 33.444 | 2 |
| 2025-06-18T06:17:00 | 53.899050 | 6.236974 | 2.0 | 15.468 | 2 | 41.803 | 15.624 | 33.445 | 2 |
| 2025-06-18T06:18:00 | 53.899029 | 6.237053 | 2.0 | 15.461 | 2 | 41.808 | 15.629 | 33.445 | 2 |
| 2025-06-18T06:19:00 | 53.899011 | 6.237160 | 2.0 | 15.457 | 2 | 41.806 | 15.625 | 33.447 | 2 |
| 2025-06-18T06:20:00 | 53.898994 | 6.237292 | 2.0 | 15.469 | 2 | 41.803 | 15.621 | 33.447 | 2 |
| 2025-06-18T06:21:00 | 53.898982 | 6.237430 | 2.0 | 15.459 | 2 | 41.810 | 15.629 | 33.447 | 2 |
| 2025-06-18T06:22:00 | 53.898967 | 6.237554 | 2.0 | 15.459 | 2 | 41.806 | 15.623 | 33.448 | 2 |
| 2025-06-18T06:23:00 | 53.898950 | 6.237668 | 2.0 | 15.450 | 2 | 41.803 | 15.620 | 33.448 | 2 |
| 2025-06-18T06:24:00 | 53.898930 | 6.237772 | 2.0 | 15.452 | 2 | 41.800 | 15.617 | 33.448 | 2 |
| 2025-06-18T06:25:00 | 53.898911 | 6.237869 | 2.0 | 15.462 | 2 | 41.800 | 15.616 | 33.449 | 2 |
| 2025-06-18T06:26:00 | 53.898896 | 6.237961 | 2.0 | 15.442 | 2 | 41.809 | 15.626 | 33.448 | 2 |
| 2025-06-18T06:27:00 | 53.898892 | 6.238051 | 2.0 | 15.440 | 2 | 41.795 | 15.609 | 33.450 | 2 |
| 2025-06-18T06:28:00 | 53.898905 | 6.238139 | 2.0 | 15.451 | 2 | 41.791 | 15.606 | 33.449 | 2 |
| 2025-06-18T06:29:00 | 53.898924 | 6.238225 | 2.0 | 15.454 | 2 | 41.800 | 15.616 | 33.449 | 2 |
| 2025-06-18T06:30:00 | 53.898929 | 6.238306 | 2.0 | 15.445 | 2 | 41.801 | 15.614 | 33.452 | 2 |
| 2025-06-18T06:31:00 | 53.898906 | 6.238370 | 2.0 | 15.451 | 2 | 41.797 | 15.610 | 33.451 | 2 |
| 2025-06-18T06:32:00 | 53.898861 | 6.238410 | 2.0 | 15.438 | 2 | 41.797 | 15.608 | 33.453 | 2 |
| 2025-06-18T06:33:00 | 53.898788 | 6.238420 | 2.0 | 15.442 | 2 | 41.793 | 15.606 | 33.451 | 2 |
| 2025-06-18T06:34:00 | 53.898696 | 6.238385 | 2.0 | 15.444 | 2 | 41.794 | 15.605 | 33.453 | 2 |
| 2025-06-18T06:35:00 | 53.898595 | 6.238294 | 2.0 | 15.452 | 2 | 41.797 | 15.609 | 33.452 | 2 |
| 2025-06-18T06:36:00 | 53.898489 | 6.238140 | 2.0 | 15.456 | 2 | 41.803 | 15.616 | 33.452 | 2 |
| 2025-06-18T06:37:00 | 53.898385 | 6.237937 | 2.0 | 15.453 | 2 | 41.806 | 15.619 | 33.452 | 2 |
| 2025-06-18T06:38:00 | 53.898281 | 6.237703 | 2.0 | 15.443 | 2 | 41.803 | 15.615 | 33.452 | 2 |
| 2025-06-18T06:39:00 | 53.898117 | 6.237359 | 2.0 | 15.459 | 2 | 41.795 | 15.608 | 33.451 | 2 |
| 2025-06-18T06:40:00 | 53.897928 | 6.237354 | 2.0 | 15.460 | 2 | 41.809 | 15.622 | 33.452 | 2 |
| 2025-06-18T06:41:00 | 53.898039 | 6.238137 | 2.0 | 15.461 | 2 | 41.811 | 15.624 | 33.452 | 2 |
| 2025-06-18T06:42:00 | 53.898309 | 6.239662 | 2.0 | 15.449 | 2 | 41.809 | 15.618 | 33.455 | 2 |
| 2025-06-18T06:43:00 | 53.898672 | 6.241747 | 2.0 | 15.438 | 2 | 41.803 | 15.609 | 33.458 | 2 |
| 2025-06-18T06:44:00 | 53.899095 | 6.244242 | 2.0 | 15.436 | 2 | 41.802 | 15.605 | 33.460 | 2 |
| 2025-06-18T06:45:00 | 53.899556 | 6.246943 | 2.0 | 15.428 | 2 | 41.802 | 15.600 | 33.464 | 2 |
| 2025-06-18T06:46:00 | 53.900020 | 6.249758 | 2.0 | 15.426 | 2 | 41.798 | 15.593 | 33.467 | 2 |
| 2025-06-18T06:47:00 | 53.900492 | 6.252620 | 2.0 | 15.413 | 2 | 41.800 | 15.589 | 33.472 | 2 |
| 2025-06-18T06:48:00 | 53.900957 | 6.255505 | 2.0 | 15.401 | 2 | 41.796 | 15.577 | 33.478 | 2 |
| 2025-06-18T06:49:00 | 53.901435 | 6.258396 | 2.0 | 15.401 | 2 | 41.793 | 15.568 | 33.483 | 2 |
| 2025-06-18T06:50:00 | 53.901897 | 6.261296 | 2.0 | 15.384 | 2 | 41.794 | 15.563 | 33.489 | 2 |
| 2025-06-18T06:51:00 | 53.902366 | 6.264197 | 2.0 | 15.379 | 2 | 41.789 | 15.550 | 33.495 | 2 |
| 2025-06-18T06:52:00 | 53.902845 | 6.267090 | 2.0 | 15.376 | 2 | 41.787 | 15.545 | 33.498 | 2 |
| 2025-06-18T06:53:00 | 53.903344 | 6.270025 | 2.0 | 15.391 | 2 | 41.788 | 15.545 | 33.499 | 2 |
| 2025-06-18T06:54:00 | 53.903881 | 6.273091 | 2.0 | 15.410 | 2 | 41.792 | 15.555 | 33.494 | 2 |
| 2025-06-18T06:55:00 | 53.904462 | 6.276212 | 2.0 | 15.430 | 2 | 41.777 | 15.580 | 33.459 | 2 |
| 2025-06-18T06:56:00 | 53.905031 | 6.279170 | 2.0 | 15.437 | 2 | 41.764 | 15.594 | 33.435 | 2 |
| 2025-06-18T06:57:00 | 53.905591 | 6.282173 | 2.0 | 15.444 | 2 | 41.759 | 15.608 | 33.419 | 2 |
| 2025-06-18T06:58:00 | 53.906242 | 6.285734 | 2.0 | 15.475 | 2 | 41.746 | 15.612 | 33.404 | 2 |
| 2025-06-18T06:59:00 | 53.906951 | 6.289558 | 2.0 | 15.487 | 2 | 41.756 | 15.642 | 33.388 | 2 |
| 2025-06-18T07:00:00 | 53.907702 | 6.293675 | 2.0 | 15.499 | 2 | 41.746 | 15.653 | 33.369 | 2 |
| 2025-06-18T07:01:00 | 53.908479 | 6.297978 | 2.0 | 15.508 | 2 | 41.748 | 15.665 | 33.361 | 2 |
| 2025-06-18T07:02:00 | 53.909267 | 6.302309 | 2.0 | 15.504 | 2 | 41.749 | 15.671 | 33.357 | 2 |
| 2025-06-18T07:03:00 | 53.910030 | 6.306567 | 2.0 | 15.491 | 2 | 41.743 | 15.666 | 33.356 | 2 |
| 2025-06-18T07:04:00 | 53.910772 | 6.310833 | 2.0 | 15.485 | 2 | 41.739 | 15.657 | 33.360 | 2 |
| 2025-06-18T07:05:00 | 53.911500 | 6.315089 | 2.0 | 15.443 | 2 | 41.749 | 15.637 | 33.386 | 2 |
| 2025-06-18T07:06:00 | 53.912218 | 6.319316 | 2.0 | 15.438 | 2 | 41.739 | 15.609 | 33.400 | 2 |
| 2025-06-18T07:07:00 | 53.912907 | 6.323540 | 2.0 | 15.446 | 2 | 41.734 | 15.605 | 33.399 | 2 |
| 2025-06-18T07:08:00 | 53.913584 | 6.327743 | 2.0 | 15.462 | 2 | 41.747 | 15.616 | 33.402 | 2 |
| 2025-06-18T07:09:00 | 53.914253 | 6.331938 | 2.0 | 15.451 | 2 | 41.759 | 15.624 | 33.405 | 2 |
| 2025-06-18T07:10:00 | 53.914915 | 6.336136 | 2.0 | 15.436 | 2 | 41.752 | 15.613 | 33.409 | 2 |
| 2025-06-18T07:11:00 | 53.915561 | 6.340325 | 2.0 | 15.436 | 2 | 41.754 | 15.604 | 33.418 | 2 |
| 2025-06-18T07:12:00 | 53.916207 | 6.344526 | 2.0 | 15.427 | 2 | 41.750 | 15.600 | 33.418 | 2 |
| 2025-06-18T07:13:00 | 53.916853 | 6.348747 | 2.0 | 15.412 | 2 | 41.752 | 15.594 | 33.425 | 2 |
| 2025-06-18T07:14:00 | 53.917512 | 6.352974 | 2.0 | 15.386 | 2 | 41.758 | 15.575 | 33.446 | 2 |
| 2025-06-18T07:15:00 | 53.918226 | 6.357161 | 2.0 | 15.384 | 2 | 41.754 | 15.553 | 33.461 | 2 |
| 2025-06-18T07:16:00 | 53.918952 | 6.361320 | 2.0 | 15.418 | 2 | 41.734 | 15.558 | 33.439 | 2 |
| 2025-06-18T07:17:00 | 53.919680 | 6.365463 | 2.0 | 15.436 | 2 | 41.743 | 15.590 | 33.420 | 2 |
| 2025-06-18T07:18:00 | 53.920414 | 6.369600 | 2.0 | 15.473 | 2 | 41.752 | 15.610 | 33.411 | 2 |
| 2025-06-18T07:19:00 | 53.921152 | 6.373740 | 2.0 | 15.457 | 2 | 41.769 | 15.631 | 33.408 | 2 |
| 2025-06-18T07:20:00 | 53.921894 | 6.377904 | 2.0 | 15.451 | 2 | 41.757 | 15.620 | 33.407 | 2 |
| 2025-06-18T07:21:00 | 53.922641 | 6.382067 | 2.0 | 15.459 | 2 | 41.750 | 15.622 | 33.399 | 2 |
| 2025-06-18T07:22:00 | 53.923385 | 6.386232 | 2.0 | 15.475 | 2 | 41.747 | 15.624 | 33.395 | 2 |
| 2025-06-18T07:23:00 | 53.924123 | 6.390396 | 2.0 | 15.477 | 2 | 41.757 | 15.640 | 33.390 | 2 |
| 2025-06-18T07:24:00 | 53.924859 | 6.394567 | 2.0 | 15.484 | 2 | 41.753 | 15.641 | 33.386 | 2 |
| 2025-06-18T07:25:00 | 53.925606 | 6.398727 | 2.0 | 15.505 | 2 | 41.757 | 15.657 | 33.376 | 2 |
| 2025-06-18T07:26:00 | 53.926350 | 6.402878 | 2.0 | 15.512 | 2 | 41.757 | 15.668 | 33.366 | 2 |
| 2025-06-18T07:27:00 | 53.927101 | 6.407031 | 2.0 | 15.529 | 2 | 41.752 | 15.681 | 33.351 | 2 |
| 2025-06-18T07:28:00 | 53.927844 | 6.411073 | 2.0 | 15.532 | 2 | 41.751 | 15.694 | 33.339 | 2 |
| 2025-06-18T07:29:00 | 53.928196 | 6.414078 | 2.0 | 15.555 | 2 | 41.742 | 15.697 | 33.329 | 2 |
| 2025-06-18T07:30:00 | 53.928102 | 6.416114 | 2.0 | 15.588 | 2 | 41.750 | 15.731 | 33.307 | 2 |
| 2025-06-18T07:31:00 | 53.928108 | 6.417727 | 2.0 | 15.580 | 2 | 41.747 | 15.743 | 33.294 | 2 |
| 2025-06-18T07:32:00 | 53.928111 | 6.419047 | 2.0 | 15.576 | 2 | 41.739 | 15.741 | 33.289 | 2 |
| 2025-06-18T07:33:00 | 53.928119 | 6.420147 | 2.0 | 15.587 | 2 | 41.737 | 15.744 | 33.284 | 2 |
| 2025-06-18T07:34:00 | 53.928099 | 6.420981 | 2.0 | 15.600 | 2 | 41.739 | 15.749 | 33.282 | 2 |
| 2025-06-18T07:35:00 | 53.927917 | 6.421473 | 2.0 | 15.577 | 2 | 41.741 | 15.758 | 33.276 | 2 |
| 2025-06-18T07:36:00 | 53.927887 | 6.421812 | 2.0 | 15.625 | 2 | 41.738 | 15.754 | 33.277 | 2 |
| 2025-06-18T07:37:00 | 53.928019 | 6.422028 | 2.0 | 15.620 | 2 | 41.759 | 15.782 | 33.272 | 2 |
| 2025-06-18T07:38:00 | 53.928135 | 6.422210 | 2.0 | 15.618 | 2 | 41.759 | 15.781 | 33.273 | 2 |
| 2025-06-18T07:39:00 | 53.928181 | 6.422340 | 2.0 | 15.654 | 2 | 41.762 | 15.787 | 33.270 | 2 |
| 2025-06-18T07:40:00 | 53.928210 | 6.422442 | 2.0 | 15.661 | 2 | 41.783 | 15.815 | 33.266 | 2 |
| 2025-06-18T07:41:00 | 53.928277 | 6.422522 | 2.0 | 15.655 | 2 | 41.787 | 15.819 | 33.266 | 2 |
| 2025-06-18T07:42:00 | 53.928350 | 6.422585 | 2.0 | 15.688 | 2 | 41.792 | 15.824 | 33.266 | 2 |
| 2025-06-18T07:43:00 | 53.928400 | 6.422639 | 2.0 | 15.639 | 2 | 41.811 | 15.841 | 33.269 | 2 |
| 2025-06-18T07:44:00 | 53.928420 | 6.422676 | 2.0 | 15.644 | 2 | 41.782 | 15.806 | 33.272 | 2 |
| 2025-06-18T07:45:00 | 53.928412 | 6.422684 | 2.0 | 15.648 | 2 | 41.776 | 15.806 | 33.267 | 2 |
| 2025-06-18T07:46:00 | 53.928370 | 6.422664 | 2.0 | 15.593 | 2 | 41.763 | 15.800 | 33.260 | 2 |
| 2025-06-18T07:47:00 | 53.928353 | 6.422655 | 2.0 | 15.647 | 2 | 41.727 | 15.765 | 33.258 | 2 |
| 2025-06-18T07:48:00 | 53.928398 | 6.422631 | 2.0 | 15.651 | 2 | 41.761 | 15.811 | 33.249 | 2 |
| 2025-06-18T07:49:00 | 53.928469 | 6.422613 | 2.0 | 15.655 | 2 | 41.769 | 15.821 | 33.248 | 2 |
| 2025-06-18T07:50:00 | 53.928500 | 6.422639 | 2.0 | 15.622 | 2 | 41.760 | 15.807 | 33.252 | 2 |
| 2025-06-18T07:51:00 | 53.928516 | 6.422714 | 2.0 | 15.624 | 2 | 41.738 | 15.786 | 33.250 | 2 |
| 2025-06-18T07:52:00 | 53.928531 | 6.422800 | 2.0 | 15.583 | 2 | 41.735 | 15.783 | 33.250 | 2 |
| 2025-06-18T07:53:00 | 53.928535 | 6.422868 | 2.0 | 15.671 | 2 | 41.713 | 15.760 | 33.250 | 2 |
| 2025-06-18T07:54:00 | 53.928479 | 6.422888 | 2.0 | 15.664 | 2 | 41.772 | 15.835 | 33.239 | 2 |
| 2025-06-18T07:55:00 | 53.928339 | 6.422652 | 2.0 | 15.622 | 2 | 41.759 | 15.804 | 33.254 | 2 |
| 2025-06-18T07:56:00 | 53.928162 | 6.421906 | 2.0 | 15.605 | 2 | 41.735 | 15.777 | 33.255 | 2 |
| 2025-06-18T07:57:00 | 53.928075 | 6.420409 | 2.0 | 15.698 | 2 | 41.744 | 15.791 | 33.251 | 2 |
| 2025-06-18T07:58:00 | 53.927944 | 6.418001 | 2.0 | 15.659 | 2 | 41.796 | 15.840 | 33.256 | 2 |
| 2025-06-18T07:59:00 | 53.927745 | 6.414798 | 2.0 | 15.618 | 2 | 41.786 | 15.821 | 33.263 | 2 |
| 2025-06-18T08:00:00 | 53.927504 | 6.411197 | 2.0 | 15.590 | 2 | 41.758 | 15.781 | 33.272 | 2 |
| 2025-06-18T08:01:00 | 53.927214 | 6.407061 | 2.0 | 15.574 | 2 | 41.739 | 15.751 | 33.280 | 2 |
| 2025-06-18T08:02:00 | 53.926897 | 6.402517 | 2.0 | 15.594 | 2 | 41.734 | 15.741 | 33.284 | 2 |
| 2025-06-18T08:03:00 | 53.926556 | 6.397863 | 2.0 | 15.607 | 2 | 41.754 | 15.753 | 33.292 | 2 |
| 2025-06-18T08:04:00 | 53.926211 | 6.393185 | 2.0 | 15.582 | 2 | 41.791 | 15.769 | 33.311 | 2 |
| 2025-06-18T08:05:00 | 53.925860 | 6.388497 | 2.0 | 15.543 | 2 | 41.797 | 15.749 | 33.334 | 2 |
| 2025-06-18T08:06:00 | 53.925500 | 6.383807 | 2.0 | 15.541 | 2 | 41.779 | 15.715 | 33.346 | 2 |
| 2025-06-18T08:07:00 | 53.925132 | 6.379123 | 2.0 | 15.520 | 2 | 41.779 | 15.700 | 33.359 | 2 |
| 2025-06-18T08:08:00 | 53.924761 | 6.374439 | 2.0 | 15.500 | 2 | 41.779 | 15.683 | 33.373 | 2 |
| 2025-06-18T08:09:00 | 53.924394 | 6.369763 | 2.0 | 15.495 | 2 | 41.771 | 15.666 | 33.381 | 2 |
| 2025-06-18T08:10:00 | 53.924019 | 6.365093 | 2.0 | 15.528 | 2 | 41.783 | 15.672 | 33.386 | 2 |
| 2025-06-18T08:11:00 | 53.923643 | 6.360434 | 2.0 | 15.515 | 2 | 41.809 | 15.695 | 33.390 | 2 |
| 2025-06-18T08:12:00 | 53.923277 | 6.355784 | 2.0 | 15.501 | 2 | 41.800 | 15.679 | 33.396 | 2 |
| 2025-06-18T08:13:00 | 53.922900 | 6.351140 | 2.0 | 15.519 | 2 | 41.794 | 15.667 | 33.400 | 2 |
| 2025-06-18T08:14:00 | 53.922522 | 6.346499 | 2.0 | 15.518 | 2 | 41.813 | 15.682 | 33.405 | 2 |
| 2025-06-18T08:15:00 | 53.922142 | 6.341858 | 2.0 | 15.446 | 2 | 41.809 | 15.665 | 33.415 | 2 |
| 2025-06-18T08:16:00 | 53.921751 | 6.337217 | 2.0 | 15.456 | 2 | 41.772 | 15.618 | 33.422 | 2 |
| 2025-06-18T08:17:00 | 53.921357 | 6.332589 | 2.0 | 15.432 | 2 | 41.775 | 15.621 | 33.422 | 2 |
| 2025-06-18T08:18:00 | 53.920964 | 6.327975 | 2.0 | 15.466 | 2 | 41.780 | 15.611 | 33.435 | 2 |
| 2025-06-18T08:19:00 | 53.920528 | 6.323389 | 2.0 | 15.410 | 2 | 41.821 | 15.621 | 33.463 | 2 |
| 2025-06-18T08:20:00 | 53.920059 | 6.318827 | 2.0 | 15.406 | 2 | 41.797 | 15.577 | 33.479 | 2 |
| 2025-06-18T08:21:00 | 53.919596 | 6.314280 | 2.0 | 15.427 | 2 | 41.778 | 15.572 | 33.467 | 2 |
| 2025-06-18T08:22:00 | 53.919133 | 6.309730 | 2.0 | 15.401 | 2 | 41.781 | 15.592 | 33.452 | 2 |
| 2025-06-18T08:23:00 | 53.918667 | 6.305181 | 2.0 | 15.441 | 2 | 41.764 | 15.582 | 33.446 | 2 |
| 2025-06-18T08:24:00 | 53.918307 | 6.300724 | 2.0 | 15.474 | 2 | 41.788 | 15.619 | 33.436 | 2 |
| 2025-06-18T08:25:00 | 53.918046 | 6.296746 | 2.0 | 15.464 | 2 | 41.806 | 15.643 | 33.431 | 2 |
| 2025-06-18T08:26:00 | 53.917827 | 6.292912 | 2.0 | 15.488 | 2 | 41.794 | 15.632 | 33.430 | 2 |
| 2025-06-18T08:27:00 | 53.917116 | 6.289501 | 2.0 | 15.548 | 2 | 41.816 | 15.666 | 33.421 | 2 |
| 2025-06-18T08:28:00 | 53.916263 | 6.286182 | 2.0 | 15.529 | 2 | 41.855 | 15.712 | 33.417 | 2 |
| 2025-06-18T08:29:00 | 53.915564 | 6.283370 | 2.0 | 15.535 | 2 | 41.840 | 15.698 | 33.415 | 2 |
| 2025-06-18T08:30:00 | 53.915114 | 6.280985 | 2.0 | 15.575 | 2 | 41.835 | 15.702 | 33.407 | 2 |
| 2025-06-18T08:31:00 | 53.914955 | 6.278851 | 2.0 | 15.637 | 2 | 41.872 | 15.755 | 33.395 | 2 |
| 2025-06-18T08:32:00 | 53.915055 | 6.277241 | 2.0 | 15.602 | 2 | 41.896 | 15.793 | 33.385 | 2 |
| 2025-06-18T08:33:00 | 53.915376 | 6.276914 | 2.0 | 15.617 | 2 | 41.878 | 15.774 | 33.385 | 2 |
| 2025-06-18T08:34:00 | 53.915483 | 6.276944 | 2.0 | 15.544 | 2 | 41.868 | 15.750 | 33.396 | 2 |
| 2025-06-18T08:35:00 | 53.915519 | 6.277048 | 2.0 | 15.586 | 2 | 41.843 | 15.719 | 33.400 | 2 |
| 2025-06-18T08:36:00 | 53.915538 | 6.277175 | 2.0 | 15.632 | 2 | 41.871 | 15.755 | 33.395 | 2 |
| 2025-06-18T08:37:00 | 53.915547 | 6.277310 | 2.0 | 15.630 | 2 | 41.897 | 15.782 | 33.395 | 2 |
| 2025-06-18T08:38:00 | 53.915537 | 6.277458 | 2.0 | 15.629 | 2 | 41.914 | 15.798 | 33.396 | 2 |
| 2025-06-18T08:39:00 | 53.915512 | 6.277620 | 2.0 | 15.673 | 2 | 41.915 | 15.797 | 33.398 | 2 |
| 2025-06-18T08:40:00 | 53.915465 | 6.277793 | 2.0 | 15.690 | 2 | 41.952 | 15.839 | 33.396 | 2 |
| 2025-06-18T08:41:00 | 53.915433 | 6.277995 | 2.0 | 15.583 | 2 | 41.943 | 15.814 | 33.409 | 2 |
| 2025-06-18T08:42:00 | 53.915457 | 6.278191 | 2.0 | 15.613 | 2 | 41.892 | 15.766 | 33.404 | 2 |
| 2025-06-18T08:43:00 | 53.915474 | 6.278254 | 2.0 | 15.526 | 2 | 41.887 | 15.755 | 33.409 | 2 |
| 2025-06-18T08:44:00 | 53.915471 | 6.278228 | 2.0 | 15.507 | 2 | 41.826 | 15.689 | 33.410 | 2 |
| 2025-06-18T08:45:00 | 53.915475 | 6.278221 | 2.0 | 15.551 | 2 | 41.812 | 15.679 | 33.406 | 2 |
| 2025-06-18T08:46:00 | 53.915476 | 6.278230 | 2.0 | 15.633 | 2 | 41.868 | 15.745 | 33.400 | 2 |
| 2025-06-18T08:47:00 | 53.915500 | 6.278244 | 2.0 | 15.637 | 2 | 41.917 | 15.792 | 33.404 | 2 |
| 2025-06-18T08:48:00 | 53.915566 | 6.278242 | 2.0 | 15.650 | 2 | 41.926 | 15.801 | 33.405 | 2 |
| 2025-06-18T08:49:00 | 53.915643 | 6.278221 | 2.0 | 15.654 | 2 | 41.937 | 15.813 | 33.404 | 2 |
| 2025-06-18T08:50:00 | 53.915748 | 6.278155 | 2.0 | 15.624 | 2 | 41.935 | 15.808 | 33.407 | 2 |
| 2025-06-18T08:51:00 | 53.915854 | 6.278016 | 2.0 | 15.649 | 2 | 41.916 | 15.788 | 33.407 | 2 |
| 2025-06-18T08:52:00 | 53.915943 | 6.277789 | 2.0 | 15.620 | 2 | 41.935 | 15.810 | 33.405 | 2 |
| 2025-06-18T08:53:00 | 53.915938 | 6.277466 | 2.0 | 15.644 | 2 | 41.917 | 15.789 | 33.407 | 2 |
| 2025-06-18T08:54:00 | 53.915831 | 6.277343 | 2.0 | 15.513 | 2 | 41.910 | 15.771 | 33.416 | 2 |
| 2025-06-18T08:55:00 | 53.915554 | 6.277213 | 2.0 | 15.527 | 2 | 41.831 | 15.693 | 33.411 | 2 |
| 2025-06-18T08:56:00 | 53.915487 | 6.276747 | 2.0 | 15.550 | 2 | 41.821 | 15.684 | 33.410 | 2 |
| 2025-06-18T08:57:00 | 53.915649 | 6.276576 | 2.0 | 15.592 | 2 | 41.866 | 15.743 | 33.400 | 2 |
| 2025-06-18T08:58:00 | 53.915746 | 6.276749 | 2.0 | 15.424 | 2 | 41.847 | 15.699 | 33.421 | 2 |
| 2025-06-18T08:59:00 | 53.915815 | 6.276987 | 2.0 | 15.454 | 2 | 41.759 | 15.611 | 33.417 | 2 |
| 2025-06-18T09:00:00 | 53.915831 | 6.277093 | 2.0 | 15.487 | 2 | 41.779 | 15.635 | 33.414 | 2 |
| 2025-06-18T09:01:00 | 53.915768 | 6.277041 | 2.0 | 15.513 | 2 | 41.812 | 15.673 | 33.411 | 2 |
| 2025-06-18T09:02:00 | 53.915703 | 6.277039 | 2.0 | 15.520 | 2 | 41.835 | 15.696 | 33.412 | 2 |
| 2025-06-18T09:03:00 | 53.915671 | 6.277126 | 2.0 | 15.560 | 2 | 41.845 | 15.707 | 33.412 | 2 |
| 2025-06-18T09:04:00 | 53.915683 | 6.277226 | 2.0 | 15.586 | 2 | 41.877 | 15.743 | 33.410 | 2 |
| 2025-06-18T09:05:00 | 53.915663 | 6.277300 | 2.0 | 15.608 | 2 | 41.912 | 15.782 | 33.408 | 2 |
| 2025-06-18T09:06:00 | 53.915629 | 6.277350 | 2.0 | 15.635 | 2 | 41.925 | 15.795 | 33.409 | 2 |
| 2025-06-18T09:07:00 | 53.915639 | 6.277342 | 2.0 | 15.492 | 2 | 41.930 | 15.792 | 33.416 | 2 |
| 2025-06-18T09:08:00 | 53.915655 | 6.277308 | 2.0 | 15.438 | 2 | 41.832 | 15.681 | 33.422 | 2 |
| 2025-06-18T09:09:00 | 53.915674 | 6.277274 | 2.0 | 15.491 | 2 | 41.793 | 15.646 | 33.417 | 2 |
| 2025-06-18T09:10:00 | 53.915690 | 6.277232 | 2.0 | 15.470 | 2 | 41.821 | 15.677 | 33.416 | 2 |
| 2025-06-18T09:11:00 | 53.915700 | 6.277185 | 2.0 | 15.606 | 2 | 41.834 | 15.695 | 33.412 | 2 |
| 2025-06-18T09:12:00 | 53.915695 | 6.277175 | 2.0 | 15.681 | 2 | 41.937 | 15.808 | 33.408 | 2 |
| 2025-06-18T09:13:00 | 53.915681 | 6.277198 | 2.0 | 15.626 | 2 | 41.997 | 15.871 | 33.409 | 2 |
| 2025-06-18T09:14:00 | 53.915655 | 6.277226 | 2.0 | 15.541 | 2 | 41.944 | 15.800 | 33.421 | 2 |
| 2025-06-18T09:15:00 | 53.915619 | 6.277276 | 2.0 | 15.471 | 2 | 41.877 | 15.730 | 33.421 | 2 |
| 2025-06-18T09:16:00 | 53.915593 | 6.277352 | 2.0 | 15.423 | 2 | 41.810 | 15.655 | 33.425 | 2 |
| 2025-06-18T09:17:00 | 53.915644 | 6.277368 | 2.0 | 15.524 | 2 | 41.781 | 15.631 | 33.419 | 2 |
| 2025-06-18T09:18:00 | 53.915738 | 6.277374 | 2.0 | 15.546 | 2 | 41.873 | 15.739 | 33.410 | 2 |
| 2025-06-18T09:19:00 | 53.915802 | 6.277329 | 2.0 | 15.507 | 2 | 41.876 | 15.726 | 33.424 | 2 |
| 2025-06-18T09:20:00 | 53.915804 | 6.277274 | 2.0 | 15.490 | 2 | 41.846 | 15.700 | 33.419 | 2 |
| 2025-06-18T09:21:00 | 53.915768 | 6.277279 | 2.0 | 15.493 | 2 | 41.836 | 15.689 | 33.419 | 2 |
| 2025-06-18T09:22:00 | 53.915722 | 6.277287 | 2.0 | 15.496 | 2 | 41.836 | 15.691 | 33.417 | 2 |
| 2025-06-18T09:23:00 | 53.915686 | 6.277279 | 2.0 | 15.486 | 2 | 41.839 | 15.693 | 33.418 | 2 |
| 2025-06-18T09:24:00 | 53.915669 | 6.277252 | 2.0 | 15.483 | 2 | 41.828 | 15.680 | 33.420 | 2 |
| 2025-06-18T09:25:00 | 53.915690 | 6.277171 | 2.0 | 15.490 | 2 | 41.827 | 15.679 | 33.420 | 2 |
| 2025-06-18T09:26:00 | 53.915731 | 6.277107 | 2.0 | 15.514 | 2 | 41.837 | 15.693 | 33.417 | 2 |
| 2025-06-18T09:27:00 | 53.915738 | 6.277065 | 2.0 | 15.525 | 2 | 41.859 | 15.719 | 33.414 | 2 |
| 2025-06-18T09:28:00 | 53.915726 | 6.277012 | 2.0 | 15.526 | 2 | 41.861 | 15.718 | 33.417 | 2 |
| 2025-06-18T09:29:00 | 53.915695 | 6.276971 | 2.0 | 15.529 | 2 | 41.867 | 15.725 | 33.416 | 2 |
| 2025-06-18T09:30:00 | 53.915691 | 6.277031 | 2.0 | 15.501 | 2 | 41.866 | 15.721 | 33.419 | 2 |
| 2025-06-18T09:31:00 | 53.915700 | 6.277130 | 2.0 | 15.475 | 2 | 41.841 | 15.692 | 33.421 | 2 |
| 2025-06-18T09:32:00 | 53.915657 | 6.277222 | 2.0 | 15.452 | 2 | 41.830 | 15.683 | 33.419 | 2 |
| 2025-06-18T09:33:00 | 53.915587 | 6.277311 | 2.0 | 15.372 | 2 | 41.794 | 15.635 | 33.427 | 2 |
| 2025-06-18T09:34:00 | 53.915568 | 6.277370 | 2.0 | 15.393 | 2 | 41.742 | 15.582 | 33.426 | 2 |
| 2025-06-18T09:35:00 | 53.915578 | 6.277404 | 2.0 | 15.411 | 2 | 41.754 | 15.598 | 33.423 | 2 |
| 2025-06-18T09:36:00 | 53.915553 | 6.277388 | 2.0 | 15.418 | 2 | 41.772 | 15.620 | 33.420 | 2 |
| 2025-06-18T09:37:00 | 53.915512 | 6.277393 | 2.0 | 15.432 | 2 | 41.776 | 15.621 | 33.423 | 2 |
| 2025-06-18T09:38:00 | 53.915470 | 6.277421 | 2.0 | 15.478 | 2 | 41.797 | 15.649 | 33.418 | 2 |
| 2025-06-18T09:39:00 | 53.915434 | 6.277439 | 2.0 | 15.458 | 2 | 41.817 | 15.667 | 33.421 | 2 |
| 2025-06-18T09:40:00 | 53.915422 | 6.277413 | 2.0 | 15.447 | 2 | 41.809 | 15.659 | 33.420 | 2 |
| 2025-06-18T09:41:00 | 53.915433 | 6.277356 | 2.0 | 15.471 | 2 | 41.805 | 15.654 | 33.421 | 2 |
| 2025-06-18T09:42:00 | 53.915472 | 6.277319 | 2.0 | 15.506 | 2 | 41.828 | 15.683 | 33.417 | 2 |
| 2025-06-18T09:43:00 | 53.915512 | 6.277299 | 2.0 | 15.558 | 2 | 41.852 | 15.710 | 33.416 | 2 |
| 2025-06-18T09:44:00 | 53.915536 | 6.277308 | 2.0 | 15.633 | 2 | 41.912 | 15.780 | 33.410 | 2 |
| 2025-06-18T09:45:00 | 53.915566 | 6.277317 | 2.0 | 15.727 | 2 | 41.969 | 15.838 | 33.412 | 2 |
| 2025-06-18T09:46:00 | 53.915583 | 6.277334 | 2.0 | 15.793 | 2 | 42.052 | 15.935 | 33.403 | 2 |
| 2025-06-18T09:47:00 | 53.915569 | 6.277378 | 2.0 | 15.889 | 2 | 42.113 | 16.003 | 33.400 | 2 |
| 2025-06-18T09:48:00 | 53.915550 | 6.277421 | 2.0 | 15.884 | 2 | 42.164 | 16.071 | 33.388 | 2 |
| 2025-06-18T09:49:00 | 53.915551 | 6.277446 | 2.0 | 15.909 | 2 | 42.175 | 16.092 | 33.380 | 2 |
| 2025-06-18T09:50:00 | 53.915556 | 6.277462 | 2.0 | 15.891 | 2 | 42.192 | 16.115 | 33.376 | 2 |
| 2025-06-18T09:51:00 | 53.915559 | 6.277468 | 2.0 | 15.904 | 2 | 42.178 | 16.099 | 33.377 | 2 |
| 2025-06-18T09:52:00 | 53.915576 | 6.277477 | 2.0 | 15.928 | 2 | 42.184 | 16.113 | 33.370 | 2 |
| 2025-06-18T09:53:00 | 53.915592 | 6.277483 | 2.0 | 15.939 | 2 | 42.198 | 16.133 | 33.366 | 2 |
| 2025-06-18T09:54:00 | 53.915599 | 6.277485 | 2.0 | 15.916 | 2 | 42.198 | 16.135 | 33.364 | 2 |
| 2025-06-18T09:55:00 | 53.915599 | 6.277493 | 2.0 | 15.950 | 2 | 42.187 | 16.125 | 33.363 | 2 |
| 2025-06-18T09:56:00 | 53.915615 | 6.277476 | 2.0 | 15.946 | 2 | 42.207 | 16.153 | 33.357 | 2 |
| 2025-06-18T09:57:00 | 53.915651 | 6.277453 | 2.0 | 15.968 | 2 | 42.207 | 16.153 | 33.357 | 2 |
| 2025-06-18T09:58:00 | 53.915676 | 6.277461 | 2.0 | 16.007 | 2 | 42.224 | 16.179 | 33.350 | 2 |
| 2025-06-18T09:59:00 | 53.915684 | 6.277483 | 2.0 | 15.991 | 2 | 42.261 | 16.222 | 33.347 | 2 |
| 2025-06-18T10:00:00 | 53.915677 | 6.277512 | 2.0 | 15.999 | 2 | 42.246 | 16.202 | 33.351 | 2 |
| 2025-06-18T10:01:00 | 53.915657 | 6.277560 | 2.0 | 15.978 | 2 | 42.243 | 16.199 | 33.350 | 2 |
| 2025-06-18T10:02:00 | 53.915630 | 6.277605 | 2.0 | 15.991 | 2 | 42.237 | 16.199 | 33.345 | 2 |
| 2025-06-18T10:03:00 | 53.915681 | 6.277754 | 2.0 | 15.900 | 2 | 42.223 | 16.177 | 33.351 | 2 |
| 2025-06-18T10:04:00 | 53.915961 | 6.278086 | 2.0 | 15.835 | 2 | 42.168 | 16.116 | 33.354 | 2 |
| 2025-06-18T10:05:00 | 53.916280 | 6.278466 | 2.0 | 15.808 | 2 | 42.098 | 16.040 | 33.356 | 2 |
| 2025-06-18T10:06:00 | 53.916552 | 6.278725 | 2.0 | 15.835 | 2 | 42.074 | 16.026 | 33.346 | 2 |
| 2025-06-18T10:07:00 | 53.916766 | 6.278937 | 2.0 | 15.791 | 2 | 42.087 | 16.034 | 33.351 | 2 |
| 2025-06-18T10:08:00 | 53.916882 | 6.279159 | 2.0 | 15.864 | 2 | 42.081 | 16.021 | 33.357 | 2 |
| 2025-06-18T10:09:00 | 53.916919 | 6.279207 | 2.0 | 15.883 | 2 | 42.122 | 16.071 | 33.351 | 2 |
| 2025-06-18T10:10:00 | 53.916910 | 6.279208 | 2.0 | 15.926 | 2 | 42.151 | 16.107 | 33.346 | 2 |
| 2025-06-18T10:11:00 | 53.916892 | 6.279234 | 2.0 | 15.931 | 2 | 42.177 | 16.133 | 33.348 | 2 |
| 2025-06-18T10:12:00 | 53.916863 | 6.279284 | 2.0 | 15.939 | 2 | 42.180 | 16.136 | 33.348 | 2 |
| 2025-06-18T10:13:00 | 53.916849 | 6.279244 | 2.0 | 15.896 | 2 | 42.195 | 16.153 | 33.347 | 2 |
| 2025-06-18T10:14:00 | 53.916843 | 6.279179 | 2.0 | 15.896 | 2 | 42.158 | 16.111 | 33.349 | 2 |
| 2025-06-18T10:15:00 | 53.916824 | 6.279120 | 2.0 | 15.860 | 2 | 42.157 | 16.112 | 33.347 | 2 |
| 2025-06-18T10:16:00 | 53.916836 | 6.279118 | 2.0 | 15.699 | 2 | 42.125 | 16.075 | 33.350 | 2 |
| 2025-06-18T10:17:00 | 53.916839 | 6.279176 | 2.0 | 15.697 | 2 | 42.002 | 15.933 | 33.361 | 2 |
| 2025-06-18T10:18:00 | 53.916828 | 6.279254 | 2.0 | 15.679 | 2 | 41.974 | 15.914 | 33.352 | 2 |
| 2025-06-18T10:19:00 | 53.916827 | 6.279247 | 2.0 | 15.622 | 2 | 41.957 | 15.894 | 33.354 | 2 |
| 2025-06-18T10:20:00 | 53.916827 | 6.279210 | 2.0 | 15.613 | 2 | 41.908 | 15.843 | 33.353 | 2 |
| 2025-06-18T10:21:00 | 53.916823 | 6.279263 | 2.0 | 15.637 | 2 | 41.894 | 15.834 | 33.348 | 2 |
| 2025-06-18T10:22:00 | 53.916793 | 6.279324 | 2.0 | 15.629 | 2 | 41.921 | 15.865 | 33.346 | 2 |
| 2025-06-18T10:23:00 | 53.916823 | 6.279289 | 2.0 | 15.620 | 2 | 41.908 | 15.848 | 33.349 | 2 |
| 2025-06-18T10:24:00 | 53.916848 | 6.279277 | 2.0 | 15.610 | 2 | 41.898 | 15.842 | 33.345 | 2 |
| 2025-06-18T10:25:00 | 53.916847 | 6.279287 | 2.0 | 15.608 | 2 | 41.886 | 15.828 | 33.346 | 2 |
| 2025-06-18T10:26:00 | 53.916825 | 6.279282 | 2.0 | 15.609 | 2 | 41.886 | 15.833 | 33.342 | 2 |
| 2025-06-18T10:27:00 | 53.916804 | 6.279278 | 2.0 | 15.644 | 2 | 41.879 | 15.824 | 33.343 | 2 |
| 2025-06-18T10:28:00 | 53.916792 | 6.279284 | 2.0 | 15.637 | 2 | 41.919 | 15.872 | 33.338 | 2 |
| 2025-06-18T10:29:00 | 53.916801 | 6.279250 | 2.0 | 15.616 | 2 | 41.903 | 15.851 | 33.342 | 2 |
| 2025-06-18T10:30:00 | 53.916834 | 6.279192 | 2.0 | 15.612 | 2 | 41.889 | 15.836 | 33.342 | 2 |
| 2025-06-18T10:31:00 | 53.916848 | 6.279162 | 2.0 | 15.627 | 2 | 41.880 | 15.829 | 33.340 | 2 |
| 2025-06-18T10:32:00 | 53.916852 | 6.279171 | 2.0 | 15.614 | 2 | 41.894 | 15.845 | 33.339 | 2 |
| 2025-06-18T10:33:00 | 53.916830 | 6.279207 | 2.0 | 15.652 | 2 | 41.892 | 15.845 | 33.337 | 2 |
| 2025-06-18T10:34:00 | 53.916836 | 6.279178 | 2.0 | 15.637 | 2 | 41.917 | 15.868 | 33.340 | 2 |
| 2025-06-18T10:35:00 | 53.916855 | 6.279112 | 2.0 | 15.633 | 2 | 41.915 | 15.868 | 33.338 | 2 |
| 2025-06-18T10:36:00 | 53.916857 | 6.279097 | 2.0 | 15.666 | 2 | 41.917 | 15.869 | 33.339 | 2 |
| 2025-06-18T10:37:00 | 53.916866 | 6.279097 | 2.0 | 15.633 | 2 | 41.927 | 15.878 | 33.341 | 2 |
| 2025-06-18T10:38:00 | 53.916874 | 6.279118 | 2.0 | 15.661 | 2 | 41.925 | 15.876 | 33.340 | 2 |
| 2025-06-18T10:39:00 | 53.916854 | 6.279174 | 2.0 | 15.664 | 2 | 41.922 | 15.871 | 33.342 | 2 |
| 2025-06-18T10:40:00 | 53.916851 | 6.279206 | 2.0 | 15.635 | 2 | 41.940 | 15.891 | 33.341 | 2 |
| 2025-06-18T10:41:00 | 53.916850 | 6.279173 | 2.0 | 15.656 | 2 | 41.925 | 15.874 | 33.342 | 2 |
| 2025-06-18T10:42:00 | 53.916850 | 6.279175 | 2.0 | 15.639 | 2 | 41.923 | 15.870 | 33.344 | 2 |
| 2025-06-18T10:43:00 | 53.916836 | 6.279169 | 2.0 | 15.655 | 2 | 41.923 | 15.871 | 33.343 | 2 |
| 2025-06-18T10:44:00 | 53.916851 | 6.279156 | 2.0 | 15.618 | 2 | 41.928 | 15.874 | 33.345 | 2 |
| 2025-06-18T10:45:00 | 53.916855 | 6.279146 | 2.0 | 15.621 | 2 | 41.901 | 15.845 | 33.345 | 2 |
| 2025-06-18T10:46:00 | 53.916857 | 6.279142 | 2.0 | 15.647 | 2 | 41.916 | 15.865 | 33.342 | 2 |
| 2025-06-18T10:47:00 | 53.916836 | 6.279103 | 2.0 | 15.637 | 2 | 41.921 | 15.868 | 33.344 | 2 |
| 2025-06-18T10:48:00 | 53.916852 | 6.279079 | 2.0 | 15.629 | 2 | 41.919 | 15.866 | 33.344 | 2 |
| 2025-06-18T10:49:00 | 53.916844 | 6.279090 | 2.0 | 15.625 | 2 | 41.913 | 15.862 | 33.342 | 2 |
| 2025-06-18T10:50:00 | 53.916859 | 6.279122 | 2.0 | 15.627 | 2 | 41.901 | 15.851 | 33.340 | 2 |
| 2025-06-18T10:51:00 | 53.916869 | 6.279141 | 2.0 | 15.622 | 2 | 41.897 | 15.844 | 33.343 | 2 |
| 2025-06-18T10:52:00 | 53.916868 | 6.279116 | 2.0 | 15.640 | 2 | 41.900 | 15.849 | 33.341 | 2 |
| 2025-06-18T10:53:00 | 53.916866 | 6.279077 | 2.0 | 15.661 | 2 | 41.918 | 15.867 | 33.342 | 2 |
| 2025-06-18T10:54:00 | 53.916866 | 6.279058 | 2.0 | 15.648 | 2 | 41.948 | 15.896 | 33.344 | 2 |
| 2025-06-18T10:55:00 | 53.916866 | 6.279034 | 2.0 | 15.649 | 2 | 41.921 | 15.864 | 33.347 | 2 |
| 2025-06-18T10:56:00 | 53.916864 | 6.279077 | 2.0 | 15.622 | 2 | 41.921 | 15.865 | 33.346 | 2 |
| 2025-06-18T10:57:00 | 53.916852 | 6.279121 | 2.0 | 15.639 | 2 | 41.908 | 15.849 | 33.348 | 2 |
| 2025-06-18T10:58:00 | 53.916858 | 6.279114 | 2.0 | 15.648 | 2 | 41.918 | 15.857 | 33.350 | 2 |
| 2025-06-18T10:59:00 | 53.916865 | 6.279106 | 2.0 | 15.647 | 2 | 41.937 | 15.880 | 33.348 | 2 |
| 2025-06-18T11:00:00 | 53.916869 | 6.279116 | 2.0 | 15.604 | 2 | 41.922 | 15.858 | 33.353 | 2 |
| 2025-06-18T11:01:00 | 53.916866 | 6.279143 | 2.0 | 15.610 | 2 | 41.898 | 15.832 | 33.354 | 2 |
| 2025-06-18T11:02:00 | 53.916865 | 6.279129 | 2.0 | 15.622 | 2 | 41.900 | 15.835 | 33.353 | 2 |
| 2025-06-18T11:03:00 | 53.916878 | 6.279050 | 2.0 | 15.647 | 2 | 41.913 | 15.849 | 33.353 | 2 |
| 2025-06-18T11:04:00 | 53.916895 | 6.278652 | 2.0 | 15.708 | 2 | 41.944 | 15.882 | 33.352 | 2 |
| 2025-06-18T11:05:00 | 53.916823 | 6.278059 | 2.0 | 15.748 | 2 | 41.986 | 15.922 | 33.356 | 2 |
| 2025-06-18T11:06:00 | 53.916277 | 6.278265 | 2.0 | 15.873 | 2 | 42.042 | 15.987 | 33.351 | 2 |
| 2025-06-18T11:07:00 | 53.915263 | 6.279333 | 2.0 | 15.883 | 2 | 42.171 | 16.113 | 33.359 | 2 |
| 2025-06-18T11:08:00 | 53.913662 | 6.280593 | 2.0 | 15.919 | 2 | 42.187 | 16.125 | 33.363 | 2 |
| 2025-06-18T11:09:00 | 53.911442 | 6.282067 | 2.0 | 15.739 | 2 | 42.163 | 16.102 | 33.361 | 2 |
| 2025-06-18T11:10:00 | 53.908883 | 6.283667 | 2.0 | 15.715 | 2 | 42.016 | 15.943 | 33.365 | 2 |
| 2025-06-18T11:11:00 | 53.906205 | 6.285191 | 2.0 | 15.990 | 2 | 42.037 | 15.982 | 33.351 | 2 |
| 2025-06-18T11:12:00 | 53.903486 | 6.286602 | 2.0 | 15.958 | 2 | 42.245 | 16.191 | 33.359 | 2 |
| 2025-06-18T11:13:00 | 53.900771 | 6.288168 | 2.0 | 15.911 | 2 | 42.204 | 16.152 | 33.355 | 2 |
| 2025-06-18T11:14:00 | 53.898043 | 6.289666 | 2.0 | 15.920 | 2 | 42.115 | 16.070 | 33.346 | 2 |
| 2025-06-18T11:15:00 | 53.895310 | 6.291198 | 2.0 | 15.969 | 2 | 42.156 | 16.127 | 33.334 | 2 |
| 2025-06-18T11:16:00 | 53.892571 | 6.292702 | 2.0 | 15.936 | 2 | 42.215 | 16.182 | 33.340 | 2 |
| 2025-06-18T11:17:00 | 53.889828 | 6.294162 | 2.0 | 15.813 | 2 | 42.127 | 16.090 | 33.339 | 2 |
| 2025-06-18T11:18:00 | 53.887085 | 6.295693 | 2.0 | 15.725 | 2 | 42.027 | 15.987 | 33.337 | 2 |
| 2025-06-18T11:19:00 | 53.884337 | 6.297242 | 2.0 | 15.951 | 2 | 42.014 | 15.975 | 33.336 | 2 |
| 2025-06-18T11:20:00 | 53.881596 | 6.298799 | 2.0 | 16.108 | 2 | 42.165 | 16.141 | 33.330 | 2 |
| 2025-06-18T11:21:00 | 53.878850 | 6.300264 | 2.0 | 16.092 | 2 | 42.286 | 16.274 | 33.325 | 2 |
| 2025-06-18T11:22:00 | 53.876113 | 6.301724 | 2.0 | 16.074 | 2 | 42.273 | 16.285 | 33.305 | 2 |
| 2025-06-18T11:23:00 | 53.873385 | 6.303262 | 2.0 | 15.859 | 2 | 42.208 | 16.233 | 33.291 | 2 |
| 2025-06-18T11:24:00 | 53.870650 | 6.304756 | 2.0 | 15.943 | 2 | 42.074 | 16.072 | 33.308 | 2 |
| 2025-06-18T11:25:00 | 53.867905 | 6.306277 | 2.0 | 15.966 | 2 | 42.133 | 16.134 | 33.308 | 2 |
| 2025-06-18T11:26:00 | 53.865150 | 6.307789 | 2.0 | 16.006 | 2 | 42.147 | 16.147 | 33.309 | 2 |
| 2025-06-18T11:27:00 | 53.862390 | 6.309325 | 2.0 | 16.123 | 2 | 42.202 | 16.205 | 33.309 | 2 |
| 2025-06-18T11:28:00 | 53.859619 | 6.310764 | 2.0 | 16.128 | 2 | 42.302 | 16.297 | 33.320 | 2 |
| 2025-06-18T11:29:00 | 53.856870 | 6.312317 | 2.0 | 16.159 | 2 | 42.325 | 16.323 | 33.319 | 2 |
| 2025-06-18T11:30:00 | 53.854122 | 6.313816 | 2.0 | 16.056 | 2 | 42.316 | 16.321 | 33.313 | 2 |
| 2025-06-18T11:31:00 | 53.851372 | 6.315341 | 2.0 | 16.087 | 2 | 42.229 | 16.241 | 33.303 | 2 |
| 2025-06-18T11:32:00 | 53.848611 | 6.316837 | 2.0 | 16.080 | 2 | 42.256 | 16.270 | 33.302 | 2 |
| 2025-06-18T11:33:00 | 53.845846 | 6.318375 | 2.0 | 16.167 | 2 | 42.261 | 16.275 | 33.303 | 2 |
| 2025-06-18T11:34:00 | 53.843072 | 6.319890 | 2.0 | 16.244 | 2 | 42.345 | 16.363 | 33.303 | 2 |
| 2025-06-18T11:35:00 | 53.840304 | 6.321428 | 2.0 | 16.226 | 2 | 42.409 | 16.426 | 33.306 | 2 |
| 2025-06-18T11:36:00 | 53.837527 | 6.322947 | 2.0 | 16.259 | 2 | 42.392 | 16.412 | 33.303 | 2 |
| 2025-06-18T11:37:00 | 53.834744 | 6.324483 | 2.0 | 16.309 | 2 | 42.410 | 16.434 | 33.301 | 2 |
| 2025-06-18T11:38:00 | 53.831948 | 6.325984 | 2.0 | 16.414 | 2 | 42.466 | 16.506 | 33.290 | 2 |
| 2025-06-18T11:39:00 | 53.829151 | 6.327588 | 2.0 | 16.511 | 2 | 42.559 | 16.615 | 33.280 | 2 |
| 2025-06-18T11:40:00 | 53.826338 | 6.329101 | 2.0 | 16.457 | 2 | 42.606 | 16.680 | 33.267 | 2 |
| 2025-06-18T11:41:00 | 53.823536 | 6.330623 | 2.0 | 16.399 | 2 | 42.523 | 16.608 | 33.255 | 2 |
| 2025-06-18T11:42:00 | 53.820743 | 6.332185 | 2.0 | 16.379 | 2 | 42.492 | 16.594 | 33.239 | 2 |
| 2025-06-18T11:43:00 | 53.817957 | 6.333729 | 2.0 | 16.372 | 2 | 42.446 | 16.545 | 33.240 | 2 |
| 2025-06-18T11:44:00 | 53.815167 | 6.335286 | 2.0 | 16.520 | 2 | 42.480 | 16.594 | 33.229 | 2 |
| 2025-06-18T11:45:00 | 53.812359 | 6.336782 | 2.0 | 16.490 | 2 | 42.562 | 16.677 | 33.231 | 2 |
| 2025-06-18T11:46:00 | 53.809562 | 6.338349 | 2.0 | 16.526 | 2 | 42.556 | 16.692 | 33.214 | 2 |
| 2025-06-18T11:47:00 | 53.806767 | 6.339887 | 2.0 | 16.391 | 2 | 42.519 | 16.659 | 33.209 | 2 |
| 2025-06-18T11:48:00 | 53.803972 | 6.341421 | 2.0 | 16.491 | 2 | 42.454 | 16.612 | 33.191 | 2 |
| 2025-06-18T11:49:00 | 53.801162 | 6.342938 | 2.0 | 16.645 | 2 | 42.524 | 16.696 | 33.183 | 2 |
| 2025-06-18T11:50:00 | 53.798346 | 6.344514 | 2.0 | 16.725 | 2 | 42.628 | 16.822 | 33.169 | 2 |
| 2025-06-18T11:51:00 | 53.795514 | 6.346044 | 2.0 | 16.618 | 2 | 42.648 | 16.868 | 33.148 | 2 |
| 2025-06-18T11:52:00 | 53.792696 | 6.347610 | 2.0 | 16.666 | 2 | 42.576 | 16.807 | 33.136 | 2 |
| 2025-06-18T11:53:00 | 53.789881 | 6.349146 | 2.0 | 16.732 | 2 | 42.626 | 16.869 | 33.128 | 2 |
| 2025-06-18T11:54:00 | 53.787053 | 6.350161 | 2.0 | 16.597 | 2 | 42.645 | 16.903 | 33.117 | 2 |
| 2025-06-18T11:55:00 | 53.784235 | 6.350430 | 2.0 | 16.853 | 2 | 42.534 | 16.779 | 33.123 | 2 |
| 2025-06-18T11:56:00 | 53.781392 | 6.350934 | 2.0 | 16.872 | 2 | 42.734 | 17.024 | 33.094 | 2 |
| 2025-06-18T11:57:00 | 53.778546 | 6.351383 | 2.0 | 17.001 | 2 | 42.793 | 17.085 | 33.095 | 2 |
| 2025-06-18T11:58:00 | 53.775694 | 6.351833 | 2.0 | 16.814 | 2 | 42.847 | 17.148 | 33.090 | 2 |
| 2025-06-18T11:59:00 | 53.772858 | 6.352189 | 2.0 | 16.682 | 2 | 42.677 | 16.954 | 33.103 | 2 |
| 2025-06-18T12:00:00 | 53.770024 | 6.352697 | 2.0 | 16.685 | 2 | 42.549 | 16.876 | 33.056 | 2 |
| 2025-06-18T12:01:00 | 53.767191 | 6.353068 | 2.0 | 16.646 | 2 | 42.500 | 16.853 | 33.032 | 2 |
| 2025-06-18T12:02:00 | 53.764365 | 6.353491 | 2.0 | 16.754 | 2 | 42.494 | 16.847 | 33.032 | 2 |
| 2025-06-18T12:03:00 | 53.761531 | 6.353932 | 2.0 | 16.743 | 2 | 42.569 | 16.939 | 33.021 | 2 |
| 2025-06-18T12:04:00 | 53.758718 | 6.354319 | 2.0 | 16.670 | 2 | 42.522 | 16.899 | 33.013 | 2 |
| 2025-06-18T12:05:00 | 53.755908 | 6.354790 | 2.0 | 16.673 | 2 | 42.457 | 16.851 | 32.996 | 2 |
| 2025-06-18T12:06:00 | 53.753111 | 6.355190 | 2.0 | 16.790 | 2 | 42.447 | 16.848 | 32.990 | 2 |
| 2025-06-18T12:07:00 | 53.750309 | 6.355611 | 2.0 | 16.781 | 2 | 42.528 | 16.955 | 32.973 | 2 |
| 2025-06-18T12:08:00 | 53.747505 | 6.355907 | 2.0 | 16.576 | 2 | 42.540 | 16.941 | 32.995 | 2 |
| 2025-06-18T12:09:00 | 53.744700 | 6.356334 | 2.0 | 16.534 | 2 | 42.366 | 16.737 | 33.011 | 2 |
| 2025-06-18T12:10:00 | 53.741901 | 6.356786 | 2.0 | 16.739 | 2 | 42.335 | 16.733 | 32.987 | 2 |
| 2025-06-18T12:11:00 | 53.739106 | 6.357044 | 2.0 | 16.682 | 2 | 42.530 | 16.986 | 32.949 | 2 |
| 2025-06-18T12:12:00 | 53.736335 | 6.357237 | 2.0 | 16.692 | 2 | 42.469 | 16.888 | 32.976 | 2 |
| 2025-06-18T12:13:00 | 53.733535 | 6.357556 | 2.0 | 16.718 | 2 | 42.410 | 16.856 | 32.952 | 2 |
| 2025-06-18T12:14:00 | 53.730768 | 6.357751 | 2.0 | 16.815 | 2 | 42.430 | 16.904 | 32.930 | 2 |
| 2025-06-18T12:15:00 | 53.728007 | 6.358053 | 2.0 | 16.794 | 2 | 42.462 | 16.960 | 32.911 | 2 |
| 2025-06-18T12:16:00 | 53.725783 | 6.358393 | 2.0 | 17.002 | 2 | 42.520 | 17.060 | 32.880 | 2 |
| 2025-06-18T12:17:00 | 53.724123 | 6.359107 | 2.0 | 16.916 | 2 | 42.621 | 17.159 | 32.886 | 2 |
| 2025-06-18T12:18:00 | 53.722899 | 6.359473 | 2.0 | 16.686 | 2 | 42.505 | 17.012 | 32.906 | 2 |
| 2025-06-18T12:19:00 | 53.722214 | 6.359195 | 2.0 | 16.660 | 2 | 42.405 | 16.924 | 32.892 | 2 |
| 2025-06-18T12:20:00 | 53.722191 | 6.358885 | 2.0 | 16.683 | 2 | 42.362 | 16.860 | 32.907 | 2 |
| 2025-06-18T12:21:00 | 53.722219 | 6.358480 | 2.0 | 16.853 | 2 | 42.354 | 16.862 | 32.898 | 2 |
| 2025-06-18T12:22:00 | 53.722213 | 6.358164 | 2.0 | 16.772 | 2 | 42.513 | 17.047 | 32.884 | 2 |
| 2025-06-18T12:23:00 | 53.722225 | 6.358017 | 2.0 | 16.690 | 2 | 42.404 | 16.887 | 32.921 | 2 |
| 2025-06-18T12:24:00 | 53.722201 | 6.357982 | 2.0 | 16.725 | 2 | 42.366 | 16.856 | 32.913 | 2 |
| 2025-06-18T12:25:00 | 53.722170 | 6.358021 | 2.0 | 16.815 | 2 | 42.420 | 16.927 | 32.902 | 2 |
| 2025-06-18T12:26:00 | 53.722130 | 6.358085 | 2.0 | 16.719 | 2 | 42.459 | 16.937 | 32.928 | 2 |
| 2025-06-18T12:27:00 | 53.722093 | 6.358109 | 2.0 | 16.904 | 2 | 42.456 | 16.963 | 32.904 | 2 |
| 2025-06-18T12:28:00 | 53.722062 | 6.358093 | 2.0 | 16.754 | 2 | 42.543 | 17.026 | 32.928 | 2 |
| 2025-06-18T12:29:00 | 53.722048 | 6.358093 | 2.0 | 16.595 | 2 | 42.399 | 16.852 | 32.945 | 2 |
| 2025-06-18T12:30:00 | 53.722034 | 6.358097 | 2.0 | 16.545 | 2 | 42.342 | 16.807 | 32.933 | 2 |
| 2025-06-18T12:31:00 | 53.722014 | 6.358098 | 2.0 | 16.750 | 2 | 42.319 | 16.776 | 32.938 | 2 |
| 2025-06-18T12:32:00 | 53.721995 | 6.358082 | 2.0 | 16.688 | 2 | 42.422 | 16.894 | 32.931 | 2 |
| 2025-06-18T12:33:00 | 53.721974 | 6.358060 | 2.0 | 16.676 | 2 | 42.429 | 16.890 | 32.940 | 2 |
| 2025-06-18T12:34:00 | 53.721962 | 6.357892 | 2.0 | 16.722 | 2 | 42.394 | 16.841 | 32.950 | 2 |
| 2025-06-18T12:35:00 | 53.721972 | 6.357796 | 2.0 | 16.707 | 2 | 42.431 | 16.887 | 32.944 | 2 |
| 2025-06-18T12:36:00 | 53.721984 | 6.357785 | 2.0 | 16.664 | 2 | 42.424 | 16.871 | 32.951 | 2 |
| 2025-06-18T12:37:00 | 53.722005 | 6.357735 | 2.0 | 16.605 | 2 | 42.417 | 16.859 | 32.955 | 2 |
| 2025-06-18T12:38:00 | 53.722017 | 6.357699 | 2.0 | 16.653 | 2 | 42.364 | 16.796 | 32.961 | 2 |
| 2025-06-18T12:39:00 | 53.722016 | 6.357695 | 2.0 | 16.640 | 2 | 42.381 | 16.814 | 32.961 | 2 |
| 2025-06-18T12:40:00 | 53.722012 | 6.357695 | 2.0 | 16.616 | 2 | 42.374 | 16.805 | 32.962 | 2 |
| 2025-06-18T12:41:00 | 53.722010 | 6.357683 | 2.0 | 16.604 | 2 | 42.343 | 16.769 | 32.965 | 2 |
| 2025-06-18T12:42:00 | 53.722010 | 6.357674 | 2.0 | 16.572 | 2 | 42.340 | 16.771 | 32.961 | 2 |
| 2025-06-18T12:43:00 | 53.722006 | 6.357676 | 2.0 | 16.530 | 2 | 42.321 | 16.738 | 32.971 | 2 |
| 2025-06-18T12:44:00 | 53.722005 | 6.357677 | 2.0 | 16.554 | 2 | 42.297 | 16.715 | 32.969 | 2 |
| 2025-06-18T12:45:00 | 53.722005 | 6.357674 | 2.0 | 16.532 | 2 | 42.300 | 16.717 | 32.970 | 2 |
| 2025-06-18T12:46:00 | 53.722010 | 6.357670 | 2.0 | 16.564 | 2 | 42.295 | 16.715 | 32.967 | 2 |
| 2025-06-18T12:47:00 | 53.722036 | 6.357641 | 2.0 | 16.500 | 2 | 42.290 | 16.704 | 32.972 | 2 |
| 2025-06-18T12:48:00 | 53.722039 | 6.357602 | 2.0 | 16.545 | 2 | 42.271 | 16.683 | 32.973 | 2 |
| 2025-06-18T12:49:00 | 53.722034 | 6.357574 | 2.0 | 16.500 | 2 | 42.310 | 16.726 | 32.971 | 2 |
| 2025-06-18T12:50:00 | 53.722028 | 6.357508 | 2.0 | 16.529 | 2 | 42.273 | 16.673 | 32.983 | 2 |
| 2025-06-18T12:51:00 | 53.722031 | 6.357462 | 2.0 | 16.569 | 2 | 42.308 | 16.723 | 32.972 | 2 |
| 2025-06-18T12:52:00 | 53.722034 | 6.357437 | 2.0 | 16.399 | 2 | 42.306 | 16.704 | 32.986 | 2 |
| 2025-06-18T12:53:00 | 53.722036 | 6.357414 | 2.0 | 16.430 | 2 | 42.212 | 16.590 | 32.998 | 2 |
| 2025-06-18T12:54:00 | 53.722037 | 6.357374 | 2.0 | 16.459 | 2 | 42.227 | 16.609 | 32.995 | 2 |
| 2025-06-18T12:55:00 | 53.722036 | 6.357338 | 2.0 | 16.408 | 2 | 42.248 | 16.625 | 33.001 | 2 |
| 2025-06-18T12:56:00 | 53.722035 | 6.357317 | 2.0 | 16.361 | 2 | 42.205 | 16.568 | 33.010 | 2 |
| 2025-06-18T12:57:00 | 53.721976 | 6.357311 | 2.0 | 16.378 | 2 | 42.186 | 16.547 | 33.011 | 2 |
| 2025-06-18T12:58:00 | 53.721931 | 6.357409 | 2.0 | 16.503 | 2 | 42.206 | 16.564 | 33.014 | 2 |
| 2025-06-18T12:59:00 | 53.721896 | 6.357545 | 2.0 | 16.452 | 2 | 42.321 | 16.680 | 33.019 | 2 |
| 2025-06-18T13:00:00 | 53.721874 | 6.357701 | 2.0 | 16.410 | 2 | 42.271 | 16.611 | 33.032 | 2 |
| 2025-06-18T13:01:00 | 53.721856 | 6.357862 | 2.0 | 16.413 | 2 | 42.261 | 16.602 | 33.031 | 2 |
| 2025-06-18T13:02:00 | 53.721819 | 6.358028 | 2.0 | 16.422 | 2 | 42.234 | 16.566 | 33.037 | 2 |
| 2025-06-18T13:03:00 | 53.721784 | 6.358218 | 2.0 | 16.393 | 2 | 42.244 | 16.581 | 33.033 | 2 |
| 2025-06-18T13:04:00 | 53.721747 | 6.358428 | 2.0 | 16.388 | 2 | 42.246 | 16.576 | 33.039 | 2 |
| 2025-06-18T13:05:00 | 53.721709 | 6.358647 | 2.0 | 16.380 | 2 | 42.228 | 16.551 | 33.044 | 2 |
| 2025-06-18T13:06:00 | 53.721667 | 6.358878 | 2.0 | 16.366 | 2 | 42.227 | 16.553 | 33.042 | 2 |
| 2025-06-18T13:07:00 | 53.721613 | 6.359118 | 2.0 | 16.293 | 2 | 42.205 | 16.527 | 33.044 | 2 |
| 2025-06-18T13:08:00 | 53.721563 | 6.359373 | 2.0 | 16.304 | 2 | 42.145 | 16.470 | 33.039 | 2 |
| 2025-06-18T13:09:00 | 53.721509 | 6.359635 | 2.0 | 16.310 | 2 | 42.153 | 16.475 | 33.041 | 2 |
| 2025-06-18T13:10:00 | 53.721454 | 6.359898 | 2.0 | 16.295 | 2 | 42.162 | 16.479 | 33.046 | 2 |
| 2025-06-18T13:11:00 | 53.721408 | 6.360163 | 2.0 | 16.293 | 2 | 42.152 | 16.469 | 33.045 | 2 |
| 2025-06-18T13:12:00 | 53.721361 | 6.360432 | 2.0 | 16.257 | 2 | 42.140 | 16.455 | 33.047 | 2 |
| 2025-06-18T13:13:00 | 53.721300 | 6.360737 | 2.0 | 16.269 | 2 | 42.114 | 16.432 | 33.043 | 2 |
| 2025-06-18T13:14:00 | 53.721232 | 6.361064 | 2.0 | 16.284 | 2 | 42.126 | 16.445 | 33.043 | 2 |
| 2025-06-18T13:15:00 | 53.721171 | 6.361407 | 2.0 | 16.317 | 2 | 42.147 | 16.464 | 33.045 | 2 |
| 2025-06-18T13:16:00 | 53.721110 | 6.361757 | 2.0 | 16.291 | 2 | 42.166 | 16.479 | 33.049 | 2 |
| 2025-06-18T13:17:00 | 53.721060 | 6.362124 | 2.0 | 16.300 | 2 | 42.151 | 16.464 | 33.049 | 2 |
| 2025-06-18T13:18:00 | 53.721001 | 6.362506 | 2.0 | 16.319 | 2 | 42.161 | 16.476 | 33.048 | 2 |
| 2025-06-18T13:19:00 | 53.720927 | 6.362911 | 2.0 | 16.289 | 2 | 42.172 | 16.481 | 33.053 | 2 |
| 2025-06-18T13:20:00 | 53.720847 | 6.363344 | 2.0 | 16.281 | 2 | 42.151 | 16.461 | 33.051 | 2 |
| 2025-06-18T13:21:00 | 53.720757 | 6.363778 | 2.0 | 16.273 | 2 | 42.140 | 16.450 | 33.051 | 2 |
| 2025-06-18T13:22:00 | 53.720671 | 6.364224 | 2.0 | 16.270 | 2 | 42.135 | 16.443 | 33.052 | 2 |
| 2025-06-18T13:23:00 | 53.720595 | 6.364683 | 2.0 | 16.264 | 2 | 42.133 | 16.439 | 33.054 | 2 |
| 2025-06-18T13:24:00 | 53.720517 | 6.365113 | 2.0 | 16.265 | 2 | 42.129 | 16.434 | 33.054 | 2 |
| 2025-06-18T13:25:00 | 53.720438 | 6.365481 | 2.0 | 16.264 | 2 | 42.131 | 16.436 | 33.054 | 2 |
| 2025-06-18T13:26:00 | 53.720353 | 6.365805 | 2.0 | 16.265 | 2 | 42.128 | 16.432 | 33.055 | 2 |
| 2025-06-18T13:27:00 | 53.720267 | 6.366089 | 2.0 | 16.275 | 2 | 42.129 | 16.435 | 33.053 | 2 |
| 2025-06-18T13:28:00 | 53.720195 | 6.366349 | 2.0 | 16.299 | 2 | 42.147 | 16.451 | 33.056 | 2 |
| 2025-06-18T13:29:00 | 53.720138 | 6.366583 | 2.0 | 16.290 | 2 | 42.165 | 16.467 | 33.059 | 2 |
| 2025-06-18T13:30:00 | 53.720105 | 6.366778 | 2.0 | 16.278 | 2 | 42.157 | 16.456 | 33.061 | 2 |
| 2025-06-18T13:31:00 | 53.720089 | 6.366928 | 2.0 | 16.291 | 2 | 42.156 | 16.454 | 33.061 | 2 |
| 2025-06-18T13:32:00 | 53.720069 | 6.367042 | 2.0 | 16.265 | 2 | 42.158 | 16.449 | 33.067 | 2 |
| 2025-06-18T13:33:00 | 53.720052 | 6.367131 | 2.0 | 16.285 | 2 | 42.146 | 16.439 | 33.065 | 2 |
| 2025-06-18T13:34:00 | 53.720035 | 6.367211 | 2.0 | 16.349 | 2 | 42.169 | 16.457 | 33.070 | 2 |
| 2025-06-18T13:35:00 | 53.719994 | 6.367214 | 2.0 | 16.373 | 2 | 42.231 | 16.519 | 33.073 | 2 |
| 2025-06-18T13:36:00 | 53.719601 | 6.367354 | 2.0 | 16.367 | 2 | 42.249 | 16.535 | 33.076 | 2 |
| 2025-06-18T13:37:00 | 53.719279 | 6.368760 | 2.0 | 16.323 | 2 | 42.249 | 16.535 | 33.076 | 2 |
| 2025-06-18T13:38:00 | 53.719221 | 6.371156 | 2.0 | 16.301 | 2 | 42.179 | 16.481 | 33.059 | 2 |
| 2025-06-18T13:39:00 | 53.719039 | 6.374175 | 2.0 | 16.333 | 2 | 42.153 | 16.473 | 33.043 | 2 |
| 2025-06-18T13:40:00 | 53.718780 | 6.377532 | 2.0 | 16.333 | 2 | 42.167 | 16.504 | 33.030 | 2 |
| 2025-06-18T13:41:00 | 53.718485 | 6.380779 | 2.0 | 16.305 | 2 | 42.140 | 16.496 | 33.013 | 2 |
| 2025-06-18T13:42:00 | 53.718156 | 6.383826 | 2.0 | 16.346 | 2 | 42.101 | 16.478 | 32.993 | 2 |
| 2025-06-18T13:43:00 | 53.717813 | 6.386618 | 2.0 | 16.372 | 2 | 42.126 | 16.515 | 32.985 | 2 |
| 2025-06-18T13:44:00 | 53.717482 | 6.389213 | 2.0 | 16.376 | 2 | 42.142 | 16.544 | 32.975 | 2 |
| 2025-06-18T13:45:00 | 53.717142 | 6.391664 | 2.0 | 16.389 | 2 | 42.147 | 16.558 | 32.968 | 2 |
| 2025-06-18T13:46:00 | 53.716818 | 6.394040 | 2.0 | 16.407 | 2 | 42.147 | 16.565 | 32.962 | 2 |
| 2025-06-18T13:47:00 | 53.716515 | 6.396377 | 2.0 | 16.416 | 2 | 42.155 | 16.581 | 32.956 | 2 |
| 2025-06-18T13:48:00 | 53.716214 | 6.398687 | 2.0 | 16.409 | 2 | 42.155 | 16.585 | 32.952 | 2 |
| 2025-06-18T13:49:00 | 53.715914 | 6.400987 | 2.0 | 16.440 | 2 | 42.149 | 16.586 | 32.946 | 2 |
| 2025-06-18T13:50:00 | 53.715617 | 6.403293 | 2.0 | 16.471 | 2 | 42.177 | 16.617 | 32.945 | 2 |
| 2025-06-18T13:51:00 | 53.715323 | 6.405596 | 2.0 | 16.452 | 2 | 42.186 | 16.626 | 32.946 | 2 |
| 2025-06-18T13:52:00 | 53.715030 | 6.407891 | 2.0 | 16.486 | 2 | 42.177 | 16.628 | 32.936 | 2 |
| 2025-06-18T13:53:00 | 53.714748 | 6.410160 | 2.0 | 16.514 | 2 | 42.189 | 16.646 | 32.932 | 2 |
| 2025-06-18T13:54:00 | 53.714482 | 6.412298 | 2.0 | 16.535 | 2 | 42.217 | 16.678 | 32.930 | 2 |
| 2025-06-18T13:55:00 | 53.714231 | 6.414336 | 2.0 | 16.568 | 2 | 42.244 | 16.711 | 32.926 | 2 |
| 2025-06-18T13:56:00 | 53.714015 | 6.416320 | 2.0 | 16.550 | 2 | 42.257 | 16.730 | 32.922 | 2 |
| 2025-06-18T13:57:00 | 53.713770 | 6.418235 | 2.0 | 16.598 | 2 | 42.247 | 16.724 | 32.918 | 2 |
| 2025-06-18T13:58:00 | 53.713568 | 6.420136 | 2.0 | 16.620 | 2 | 42.285 | 16.766 | 32.917 | 2 |
| 2025-06-18T13:59:00 | 53.713345 | 6.421997 | 2.0 | 16.613 | 2 | 42.306 | 16.787 | 32.918 | 2 |
| 2025-06-18T14:00:00 | 53.713136 | 6.423850 | 2.0 | 16.605 | 2 | 42.291 | 16.773 | 32.916 | 2 |
| 2025-06-18T14:01:00 | 53.712936 | 6.425702 | 2.0 | 16.639 | 2 | 42.296 | 16.786 | 32.910 | 2 |
| 2025-06-18T14:02:00 | 53.712719 | 6.427543 | 2.0 | 16.655 | 2 | 42.311 | 16.808 | 32.905 | 2 |
| 2025-06-18T14:03:00 | 53.712502 | 6.429376 | 2.0 | 16.626 | 2 | 42.319 | 16.820 | 32.902 | 2 |
| 2025-06-18T14:04:00 | 53.712304 | 6.431208 | 2.0 | 16.684 | 2 | 42.296 | 16.798 | 32.900 | 2 |
| 2025-06-18T14:05:00 | 53.712080 | 6.433019 | 2.0 | 16.742 | 2 | 42.348 | 16.859 | 32.895 | 2 |
| 2025-06-18T14:06:00 | 53.711877 | 6.434838 | 2.0 | 16.733 | 2 | 42.385 | 16.896 | 32.897 | 2 |
| 2025-06-18T14:07:00 | 53.711666 | 6.436664 | 2.0 | 16.723 | 2 | 42.380 | 16.895 | 32.894 | 2 |
| 2025-06-18T14:08:00 | 53.711444 | 6.438480 | 2.0 | 16.715 | 2 | 42.374 | 16.891 | 32.892 | 2 |
| 2025-06-18T14:09:00 | 53.711236 | 6.440312 | 2.0 | 16.674 | 2 | 42.357 | 16.877 | 32.888 | 2 |
| 2025-06-18T14:10:00 | 53.711030 | 6.442140 | 2.0 | 16.633 | 2 | 42.312 | 16.830 | 32.888 | 2 |
| 2025-06-18T14:11:00 | 53.710802 | 6.443932 | 2.0 | 16.636 | 2 | 42.285 | 16.810 | 32.881 | 2 |
| 2025-06-18T14:12:00 | 53.710611 | 6.445741 | 2.0 | 16.640 | 2 | 42.280 | 16.807 | 32.879 | 2 |
| 2025-06-18T14:13:00 | 53.710385 | 6.447531 | 2.0 | 16.640 | 2 | 42.276 | 16.804 | 32.878 | 2 |
| 2025-06-18T14:14:00 | 53.710180 | 6.449348 | 2.0 | 16.630 | 2 | 42.273 | 16.806 | 32.874 | 2 |
| 2025-06-18T14:15:00 | 53.709970 | 6.451152 | 2.0 | 16.662 | 2 | 42.273 | 16.807 | 32.873 | 2 |
| 2025-06-18T14:16:00 | 53.709747 | 6.452941 | 2.0 | 16.662 | 2 | 42.295 | 16.836 | 32.868 | 2 |
| 2025-06-18T14:17:00 | 53.709537 | 6.454742 | 2.0 | 16.677 | 2 | 42.291 | 16.828 | 32.871 | 2 |
| 2025-06-18T14:18:00 | 53.709312 | 6.456536 | 2.0 | 16.727 | 2 | 42.310 | 16.855 | 32.866 | 2 |
| 2025-06-18T14:19:00 | 53.709303 | 6.458058 | 2.0 | 16.769 | 2 | 42.352 | 16.904 | 32.862 | 2 |
| 2025-06-18T14:20:00 | 53.709494 | 6.459006 | 2.0 | 16.777 | 2 | 42.380 | 16.934 | 32.862 | 2 |
| 2025-06-18T14:21:00 | 53.709652 | 6.459747 | 2.0 | 16.790 | 2 | 42.389 | 16.942 | 32.863 | 2 |
| 2025-06-18T14:22:00 | 53.709762 | 6.460418 | 2.0 | 16.805 | 2 | 42.405 | 16.961 | 32.861 | 2 |
| 2025-06-18T14:23:00 | 53.709841 | 6.461064 | 2.0 | 16.784 | 2 | 42.408 | 16.961 | 32.864 | 2 |
| 2025-06-18T14:24:00 | 53.709896 | 6.461693 | 2.0 | 16.795 | 2 | 42.400 | 16.954 | 32.863 | 2 |
| 2025-06-18T14:25:00 | 53.709913 | 6.462254 | 2.0 | 16.791 | 2 | 42.407 | 16.961 | 32.863 | 2 |
| 2025-06-18T14:26:00 | 53.709880 | 6.462757 | 2.0 | 16.728 | 2 | 42.394 | 16.943 | 32.866 | 2 |
| 2025-06-18T14:27:00 | 53.709819 | 6.463176 | 2.0 | 16.728 | 2 | 42.352 | 16.896 | 32.868 | 2 |
| 2025-06-18T14:28:00 | 53.709762 | 6.463504 | 2.0 | 16.710 | 2 | 42.346 | 16.892 | 32.867 | 2 |
| 2025-06-18T14:29:00 | 53.709699 | 6.463827 | 2.0 | 16.686 | 2 | 42.331 | 16.873 | 32.869 | 2 |
| 2025-06-18T14:30:00 | 53.709618 | 6.464140 | 2.0 | 16.678 | 2 | 42.314 | 16.852 | 32.872 | 2 |
| 2025-06-18T14:31:00 | 53.709530 | 6.464418 | 2.0 | 16.678 | 2 | 42.307 | 16.845 | 32.871 | 2 |
| 2025-06-18T14:32:00 | 53.709438 | 6.464674 | 2.0 | 16.677 | 2 | 42.307 | 16.846 | 32.870 | 2 |
| 2025-06-18T14:33:00 | 53.709358 | 6.464908 | 2.0 | 16.676 | 2 | 42.305 | 16.844 | 32.870 | 2 |
| 2025-06-18T14:34:00 | 53.709278 | 6.465099 | 2.0 | 16.677 | 2 | 42.304 | 16.843 | 32.870 | 2 |
| 2025-06-18T14:35:00 | 53.709192 | 6.465278 | 2.0 | 16.676 | 2 | 42.304 | 16.842 | 32.871 | 2 |
| 2025-06-18T14:36:00 | 53.709078 | 6.465472 | 2.0 | 16.713 | 2 | 42.309 | 16.850 | 32.869 | 2 |
| 2025-06-18T14:37:00 | 53.708967 | 6.465658 | 2.0 | 16.709 | 2 | 42.332 | 16.877 | 32.867 | 2 |
| 2025-06-18T14:38:00 | 53.708864 | 6.465833 | 2.0 | 16.715 | 2 | 42.333 | 16.877 | 32.868 | 2 |
| 2025-06-18T14:39:00 | 53.708814 | 6.465955 | 2.0 | 16.721 | 2 | 42.336 | 16.882 | 32.866 | 2 |
| 2025-06-18T14:40:00 | 53.708831 | 6.466007 | 2.0 | 16.711 | 2 | 42.339 | 16.887 | 32.865 | 2 |
| 2025-06-18T14:41:00 | 53.708892 | 6.465986 | 2.0 | 16.672 | 2 | 42.328 | 16.871 | 32.868 | 2 |
| 2025-06-18T14:42:00 | 53.708966 | 6.465902 | 2.0 | 16.649 | 2 | 42.297 | 16.836 | 32.870 | 2 |
| 2025-06-18T14:43:00 | 53.709033 | 6.465783 | 2.0 | 16.630 | 2 | 42.275 | 16.812 | 32.870 | 2 |
| 2025-06-18T14:44:00 | 53.709112 | 6.465642 | 2.0 | 16.643 | 2 | 42.262 | 16.796 | 32.872 | 2 |
| 2025-06-18T14:45:00 | 53.709197 | 6.465484 | 2.0 | 16.614 | 2 | 42.264 | 16.799 | 32.871 | 2 |
| 2025-06-18T14:46:00 | 53.709276 | 6.465319 | 2.0 | 16.610 | 2 | 42.252 | 16.785 | 32.873 | 2 |
| 2025-06-18T14:47:00 | 53.709355 | 6.465162 | 2.0 | 16.608 | 2 | 42.243 | 16.774 | 32.874 | 2 |
| 2025-06-18T14:48:00 | 53.709430 | 6.465001 | 2.0 | 16.595 | 2 | 42.240 | 16.770 | 32.874 | 2 |
| 2025-06-18T14:49:00 | 53.709493 | 6.464845 | 2.0 | 16.598 | 2 | 42.231 | 16.764 | 32.871 | 2 |
| 2025-06-18T14:50:00 | 53.709549 | 6.464705 | 2.0 | 16.593 | 2 | 42.234 | 16.764 | 32.874 | 2 |
| 2025-06-18T14:51:00 | 53.709600 | 6.464579 | 2.0 | 16.589 | 2 | 42.229 | 16.758 | 32.875 | 2 |
| 2025-06-18T14:52:00 | 53.709643 | 6.464469 | 2.0 | 16.596 | 2 | 42.228 | 16.759 | 32.873 | 2 |
| 2025-06-18T14:53:00 | 53.709676 | 6.464363 | 2.0 | 16.616 | 2 | 42.238 | 16.768 | 32.874 | 2 |
| 2025-06-18T14:54:00 | 53.709708 | 6.464260 | 2.0 | 16.626 | 2 | 42.252 | 16.784 | 32.873 | 2 |
| 2025-06-18T14:55:00 | 53.709745 | 6.464156 | 2.0 | 16.610 | 2 | 42.257 | 16.787 | 32.875 | 2 |
| 2025-06-18T14:56:00 | 53.709791 | 6.464056 | 2.0 | 16.629 | 2 | 42.248 | 16.777 | 32.876 | 2 |
| 2025-06-18T14:57:00 | 53.709830 | 6.463955 | 2.0 | 16.640 | 2 | 42.264 | 16.795 | 32.875 | 2 |
| 2025-06-18T14:58:00 | 53.709876 | 6.463856 | 2.0 | 16.642 | 2 | 42.278 | 16.811 | 32.874 | 2 |
| 2025-06-18T14:59:00 | 53.709918 | 6.463746 | 2.0 | 16.627 | 2 | 42.277 | 16.807 | 32.876 | 2 |
| 2025-06-18T15:00:00 | 53.709963 | 6.463637 | 2.0 | 16.641 | 2 | 42.268 | 16.798 | 32.876 | 2 |
| 2025-06-18T15:01:00 | 53.710023 | 6.463512 | 2.0 | 16.622 | 2 | 42.273 | 16.802 | 32.877 | 2 |
| 2025-06-18T15:02:00 | 53.710091 | 6.463377 | 2.0 | 16.610 | 2 | 42.260 | 16.788 | 32.877 | 2 |
| 2025-06-18T15:03:00 | 53.710167 | 6.463235 | 2.0 | 16.628 | 2 | 42.256 | 16.783 | 32.878 | 2 |
| 2025-06-18T15:04:00 | 53.710238 | 6.463071 | 2.0 | 16.649 | 2 | 42.268 | 16.797 | 32.877 | 2 |
| 2025-06-18T15:05:00 | 53.710305 | 6.462896 | 2.0 | 16.647 | 2 | 42.285 | 16.815 | 32.877 | 2 |
| 2025-06-18T15:06:00 | 53.710368 | 6.462721 | 2.0 | 16.653 | 2 | 42.287 | 16.816 | 32.878 | 2 |
| 2025-06-18T15:07:00 | 53.710423 | 6.462556 | 2.0 | 16.638 | 2 | 42.285 | 16.813 | 32.878 | 2 |
| 2025-06-18T15:08:00 | 53.710468 | 6.462397 | 2.0 | 16.645 | 2 | 42.278 | 16.806 | 32.878 | 2 |
| 2025-06-18T15:09:00 | 53.710513 | 6.462244 | 2.0 | 16.628 | 2 | 42.279 | 16.806 | 32.879 | 2 |
| 2025-06-18T15:10:00 | 53.710557 | 6.462090 | 2.0 | 16.658 | 2 | 42.276 | 16.804 | 32.878 | 2 |
| 2025-06-18T15:11:00 | 53.710600 | 6.461935 | 2.0 | 16.653 | 2 | 42.293 | 16.820 | 32.879 | 2 |
| 2025-06-18T15:12:00 | 53.710644 | 6.461785 | 2.0 | 16.642 | 2 | 42.290 | 16.816 | 32.880 | 2 |
| 2025-06-18T15:13:00 | 53.710684 | 6.461638 | 2.0 | 16.633 | 2 | 42.283 | 16.808 | 32.881 | 2 |
| 2025-06-18T15:14:00 | 53.710727 | 6.461504 | 2.0 | 16.626 | 2 | 42.275 | 16.800 | 32.880 | 2 |
| 2025-06-18T15:15:00 | 53.710773 | 6.461372 | 2.0 | 16.608 | 2 | 42.264 | 16.788 | 32.880 | 2 |
| 2025-06-18T15:16:00 | 53.710806 | 6.461233 | 2.0 | 16.609 | 2 | 42.251 | 16.775 | 32.880 | 2 |
| 2025-06-18T15:17:00 | 53.710806 | 6.461106 | 2.0 | 16.606 | 2 | 42.251 | 16.776 | 32.879 | 2 |
| 2025-06-18T15:18:00 | 53.710788 | 6.461009 | 2.0 | 16.611 | 2 | 42.249 | 16.774 | 32.879 | 2 |
| 2025-06-18T15:19:00 | 53.710753 | 6.460924 | 2.0 | 16.610 | 2 | 42.254 | 16.778 | 32.880 | 2 |
| 2025-06-18T15:20:00 | 53.710707 | 6.460856 | 2.0 | 16.605 | 2 | 42.251 | 16.774 | 32.881 | 2 |
| 2025-06-18T15:21:00 | 53.710682 | 6.460849 | 2.0 | 16.605 | 2 | 42.248 | 16.772 | 32.880 | 2 |
| 2025-06-18T15:22:00 | 53.710593 | 6.460797 | 2.0 | 16.599 | 2 | 42.246 | 16.769 | 32.880 | 2 |
| 2025-06-18T15:23:00 | 53.710564 | 6.460737 | 2.0 | 16.597 | 2 | 42.242 | 16.765 | 32.880 | 2 |
| 2025-06-18T15:24:00 | 53.710569 | 6.460629 | 2.0 | 16.590 | 2 | 42.239 | 16.762 | 32.880 | 2 |
| 2025-06-18T15:25:00 | 53.710577 | 6.460405 | 2.0 | 16.581 | 2 | 42.232 | 16.756 | 32.879 | 2 |
| 2025-06-18T15:26:00 | 53.710571 | 6.460231 | 2.0 | 16.576 | 2 | 42.224 | 16.746 | 32.880 | 2 |
| 2025-06-18T15:27:00 | 53.710539 | 6.460100 | 2.0 | 16.567 | 2 | 42.218 | 16.742 | 32.878 | 2 |
| 2025-06-18T15:28:00 | 53.710479 | 6.460004 | 2.0 | 16.556 | 2 | 42.209 | 16.731 | 32.879 | 2 |
| 2025-06-18T15:29:00 | 53.710422 | 6.459888 | 2.0 | 16.550 | 2 | 42.200 | 16.723 | 32.878 | 2 |
| 2025-06-18T15:30:00 | 53.710403 | 6.459800 | 2.0 | 16.549 | 2 | 42.195 | 16.717 | 32.879 | 2 |
| 2025-06-18T15:31:00 | 53.710398 | 6.459694 | 2.0 | 16.550 | 2 | 42.193 | 16.716 | 32.878 | 2 |
| 2025-06-18T15:32:00 | 53.710396 | 6.459530 | 2.0 | 16.551 | 2 | 42.195 | 16.716 | 32.880 | 2 |
| 2025-06-18T15:33:00 | 53.710407 | 6.459431 | 2.0 | 16.556 | 2 | 42.197 | 16.719 | 32.879 | 2 |
| 2025-06-18T15:34:00 | 53.710447 | 6.459245 | 2.0 | 16.551 | 2 | 42.197 | 16.721 | 32.877 | 2 |
| 2025-06-18T15:35:00 | 53.710498 | 6.459068 | 2.0 | 16.553 | 2 | 42.195 | 16.718 | 32.878 | 2 |
| 2025-06-18T15:36:00 | 53.710566 | 6.458881 | 2.0 | 16.553 | 2 | 42.198 | 16.720 | 32.879 | 2 |
| 2025-06-18T15:37:00 | 53.710634 | 6.458677 | 2.0 | 16.555 | 2 | 42.199 | 16.720 | 32.880 | 2 |
| 2025-06-18T15:38:00 | 53.710696 | 6.458466 | 2.0 | 16.549 | 2 | 42.200 | 16.720 | 32.881 | 2 |
| 2025-06-18T15:39:00 | 53.710763 | 6.458265 | 2.0 | 16.550 | 2 | 42.196 | 16.716 | 32.880 | 2 |
| 2025-06-18T15:40:00 | 53.710824 | 6.458079 | 2.0 | 16.546 | 2 | 42.196 | 16.716 | 32.880 | 2 |
| 2025-06-18T15:41:00 | 53.710861 | 6.457908 | 2.0 | 16.549 | 2 | 42.193 | 16.713 | 32.880 | 2 |
| 2025-06-18T15:42:00 | 53.710880 | 6.457751 | 2.0 | 16.551 | 2 | 42.196 | 16.715 | 32.881 | 2 |
| 2025-06-18T15:43:00 | 53.710873 | 6.457630 | 2.0 | 16.553 | 2 | 42.199 | 16.718 | 32.881 | 2 |
| 2025-06-18T15:44:00 | 53.710861 | 6.457592 | 2.0 | 16.552 | 2 | 42.200 | 16.719 | 32.881 | 2 |
| 2025-06-18T15:45:00 | 53.710820 | 6.457546 | 2.0 | 16.546 | 2 | 42.198 | 16.716 | 32.882 | 2 |
| 2025-06-18T15:46:00 | 53.710757 | 6.457400 | 2.0 | 16.545 | 2 | 42.194 | 16.712 | 32.882 | 2 |
| 2025-06-18T15:47:00 | 53.710787 | 6.457242 | 2.0 | 16.539 | 2 | 42.192 | 16.710 | 32.882 | 2 |
| 2025-06-18T15:48:00 | 53.710859 | 6.457076 | 2.0 | 16.533 | 2 | 42.184 | 16.704 | 32.880 | 2 |
| 2025-06-18T15:49:00 | 53.710946 | 6.456889 | 2.0 | 16.530 | 2 | 42.180 | 16.699 | 32.880 | 2 |
| 2025-06-18T15:50:00 | 53.711047 | 6.456663 | 2.0 | 16.531 | 2 | 42.178 | 16.697 | 32.880 | 2 |
| 2025-06-18T15:51:00 | 53.711160 | 6.456404 | 2.0 | 16.530 | 2 | 42.178 | 16.697 | 32.880 | 2 |
| 2025-06-18T15:52:00 | 53.711301 | 6.456116 | 2.0 | 16.532 | 2 | 42.177 | 16.696 | 32.880 | 2 |
| 2025-06-18T15:53:00 | 53.711453 | 6.455823 | 2.0 | 16.520 | 2 | 42.179 | 16.697 | 32.881 | 2 |
| 2025-06-18T15:54:00 | 53.711613 | 6.455523 | 2.0 | 16.525 | 2 | 42.165 | 16.683 | 32.880 | 2 |
| 2025-06-18T15:55:00 | 53.711767 | 6.455218 | 2.0 | 16.525 | 2 | 42.174 | 16.693 | 32.880 | 2 |
| 2025-06-18T15:56:00 | 53.711902 | 6.454942 | 2.0 | 16.519 | 2 | 42.174 | 16.691 | 32.882 | 2 |
| 2025-06-18T15:57:00 | 53.712010 | 6.454682 | 2.0 | 16.527 | 2 | 42.169 | 16.686 | 32.881 | 2 |
| 2025-06-18T15:58:00 | 53.712101 | 6.454445 | 2.0 | 16.532 | 2 | 42.176 | 16.693 | 32.882 | 2 |
| 2025-06-18T15:59:00 | 53.712171 | 6.454234 | 2.0 | 16.529 | 2 | 42.181 | 16.697 | 32.883 | 2 |
| 2025-06-18T16:00:00 | 53.712232 | 6.454036 | 2.0 | 16.521 | 2 | 42.176 | 16.692 | 32.883 | 2 |
| 2025-06-18T16:01:00 | 53.712289 | 6.453853 | 2.0 | 16.518 | 2 | 42.169 | 16.686 | 32.881 | 2 |
| 2025-06-18T16:02:00 | 53.712347 | 6.453678 | 2.0 | 16.524 | 2 | 42.169 | 16.686 | 32.881 | 2 |
| 2025-06-18T16:03:00 | 53.712403 | 6.453521 | 2.0 | 16.526 | 2 | 42.173 | 16.689 | 32.883 | 2 |
| 2025-06-18T16:04:00 | 53.712455 | 6.453380 | 2.0 | 16.531 | 2 | 42.175 | 16.692 | 32.882 | 2 |
| 2025-06-18T16:05:00 | 53.712499 | 6.453257 | 2.0 | 16.533 | 2 | 42.180 | 16.697 | 32.882 | 2 |
| 2025-06-18T16:06:00 | 53.712543 | 6.453129 | 2.0 | 16.532 | 2 | 42.181 | 16.699 | 32.881 | 2 |
| 2025-06-18T16:07:00 | 53.712568 | 6.453003 | 2.0 | 16.534 | 2 | 42.181 | 16.698 | 32.882 | 2 |
| 2025-06-18T16:08:00 | 53.712573 | 6.452889 | 2.0 | 16.535 | 2 | 42.183 | 16.699 | 32.883 | 2 |
| 2025-06-18T16:09:00 | 53.712568 | 6.452802 | 2.0 | 16.538 | 2 | 42.185 | 16.702 | 32.882 | 2 |
| 2025-06-18T16:10:00 | 53.712541 | 6.452708 | 2.0 | 16.535 | 2 | 42.186 | 16.703 | 32.882 | 2 |
| 2025-06-18T16:11:00 | 53.712497 | 6.452625 | 2.0 | 16.527 | 2 | 42.180 | 16.698 | 32.881 | 2 |
| 2025-06-18T16:12:00 | 53.712462 | 6.452418 | 2.0 | 16.533 | 2 | 42.176 | 16.694 | 32.881 | 2 |
| 2025-06-18T16:13:00 | 53.712493 | 6.452148 | 2.0 | 16.539 | 2 | 42.181 | 16.699 | 32.881 | 2 |
| 2025-06-18T16:14:00 | 53.712601 | 6.451792 | 2.0 | 16.523 | 2 | 42.186 | 16.703 | 32.882 | 2 |
| 2025-06-18T16:15:00 | 53.712764 | 6.451407 | 2.0 | 16.510 | 2 | 42.170 | 16.685 | 32.883 | 2 |
| 2025-06-18T16:16:00 | 53.712930 | 6.451006 | 2.0 | 16.524 | 2 | 42.161 | 16.678 | 32.881 | 2 |
| 2025-06-18T16:17:00 | 53.713107 | 6.450565 | 2.0 | 16.528 | 2 | 42.172 | 16.689 | 32.882 | 2 |
| 2025-06-18T16:18:00 | 53.713301 | 6.450090 | 2.0 | 16.528 | 2 | 42.177 | 16.692 | 32.884 | 2 |
| 2025-06-18T16:19:00 | 53.713518 | 6.449595 | 2.0 | 16.517 | 2 | 42.176 | 16.690 | 32.884 | 2 |
| 2025-06-18T16:20:00 | 53.713741 | 6.449095 | 2.0 | 16.517 | 2 | 42.169 | 16.685 | 32.882 | 2 |
| 2025-06-18T16:21:00 | 53.713959 | 6.448594 | 2.0 | 16.507 | 2 | 42.166 | 16.681 | 32.883 | 2 |
| 2025-06-18T16:22:00 | 53.714169 | 6.448097 | 2.0 | 16.514 | 2 | 42.158 | 16.673 | 32.883 | 2 |
| 2025-06-18T16:23:00 | 53.714377 | 6.447600 | 2.0 | 16.513 | 2 | 42.163 | 16.678 | 32.883 | 2 |
| 2025-06-18T16:24:00 | 53.714575 | 6.447098 | 2.0 | 16.511 | 2 | 42.163 | 16.678 | 32.883 | 2 |
| 2025-06-18T16:25:00 | 53.714768 | 6.446598 | 2.0 | 16.510 | 2 | 42.162 | 16.677 | 32.883 | 2 |
| 2025-06-18T16:26:00 | 53.714958 | 6.446104 | 2.0 | 16.510 | 2 | 42.160 | 16.674 | 32.884 | 2 |
| 2025-06-18T16:27:00 | 53.715145 | 6.445625 | 2.0 | 16.513 | 2 | 42.162 | 16.676 | 32.884 | 2 |
| 2025-06-18T16:28:00 | 53.715328 | 6.445162 | 2.0 | 16.508 | 2 | 42.163 | 16.677 | 32.884 | 2 |
| 2025-06-18T16:29:00 | 53.715507 | 6.444710 | 2.0 | 16.503 | 2 | 42.159 | 16.673 | 32.883 | 2 |
| 2025-06-18T16:30:00 | 53.715679 | 6.444269 | 2.0 | 16.499 | 2 | 42.153 | 16.667 | 32.883 | 2 |
| 2025-06-18T16:31:00 | 53.715848 | 6.443833 | 2.0 | 16.500 | 2 | 42.151 | 16.664 | 32.884 | 2 |
| 2025-06-18T16:32:00 | 53.716018 | 6.443404 | 2.0 | 16.506 | 2 | 42.154 | 16.668 | 32.883 | 2 |
| 2025-06-18T16:33:00 | 53.716183 | 6.442982 | 2.0 | 16.502 | 2 | 42.157 | 16.670 | 32.884 | 2 |
| 2025-06-18T16:34:00 | 53.716337 | 6.442556 | 2.0 | 16.506 | 2 | 42.156 | 16.668 | 32.885 | 2 |
| 2025-06-18T16:35:00 | 53.716478 | 6.442121 | 2.0 | 16.507 | 2 | 42.160 | 16.672 | 32.885 | 2 |
| 2025-06-18T16:36:00 | 53.716615 | 6.441705 | 2.0 | 16.505 | 2 | 42.160 | 16.671 | 32.886 | 2 |
| 2025-06-18T16:37:00 | 53.716733 | 6.441357 | 2.0 | 16.509 | 2 | 42.159 | 16.671 | 32.885 | 2 |
| 2025-06-18T16:38:00 | 53.716784 | 6.441049 | 2.0 | 16.513 | 2 | 42.163 | 16.674 | 32.886 | 2 |
| 2025-06-18T16:39:00 | 53.716730 | 6.440782 | 2.0 | 16.512 | 2 | 42.170 | 16.680 | 32.887 | 2 |
| 2025-06-18T16:40:00 | 53.716606 | 6.440580 | 2.0 | 16.509 | 2 | 42.167 | 16.676 | 32.888 | 2 |
| 2025-06-18T16:41:00 | 53.716433 | 6.440405 | 2.0 | 16.508 | 2 | 42.163 | 16.674 | 32.886 | 2 |
| 2025-06-18T16:42:00 | 53.716209 | 6.440216 | 2.0 | 16.502 | 2 | 42.161 | 16.673 | 32.885 | 2 |
| 2025-06-18T16:43:00 | 53.715975 | 6.440009 | 2.0 | 16.504 | 2 | 42.157 | 16.669 | 32.885 | 2 |
| 2025-06-18T16:44:00 | 53.715730 | 6.439813 | 2.0 | 16.510 | 2 | 42.158 | 16.670 | 32.885 | 2 |
| 2025-06-18T16:45:00 | 53.715476 | 6.439635 | 2.0 | 16.514 | 2 | 42.162 | 16.674 | 32.885 | 2 |
| 2025-06-18T16:46:00 | 53.715221 | 6.439472 | 2.0 | 16.511 | 2 | 42.167 | 16.679 | 32.885 | 2 |
| 2025-06-18T16:47:00 | 53.714960 | 6.439329 | 2.0 | 16.524 | 2 | 42.168 | 16.679 | 32.886 | 2 |
| 2025-06-18T16:48:00 | 53.714688 | 6.439184 | 2.0 | 16.529 | 2 | 42.177 | 16.689 | 32.886 | 2 |
| 2025-06-18T16:49:00 | 53.714426 | 6.439015 | 2.0 | 16.551 | 2 | 42.187 | 16.697 | 32.888 | 2 |
| 2025-06-18T16:50:00 | 53.714204 | 6.438847 | 2.0 | 16.575 | 2 | 42.208 | 16.720 | 32.888 | 2 |
| 2025-06-18T16:51:00 | 53.714037 | 6.438691 | 2.0 | 16.570 | 2 | 42.232 | 16.736 | 32.895 | 2 |
| 2025-06-18T16:52:00 | 53.713912 | 6.438553 | 2.0 | 16.562 | 2 | 42.232 | 16.735 | 32.896 | 2 |
| 2025-06-18T16:53:00 | 53.713815 | 6.438442 | 2.0 | 16.553 | 2 | 42.220 | 16.726 | 32.893 | 2 |
| 2025-06-18T16:54:00 | 53.713743 | 6.438381 | 2.0 | 16.548 | 2 | 42.210 | 16.719 | 32.890 | 2 |
| 2025-06-18T16:55:00 | 53.713684 | 6.438353 | 2.0 | 16.543 | 2 | 42.200 | 16.711 | 32.888 | 2 |
| 2025-06-18T16:56:00 | 53.713635 | 6.438345 | 2.0 | 16.543 | 2 | 42.196 | 16.709 | 32.886 | 2 |
| 2025-06-18T16:57:00 | 53.713594 | 6.438358 | 2.0 | 16.540 | 2 | 42.193 | 16.708 | 32.884 | 2 |
| 2025-06-18T16:58:00 | 53.713559 | 6.438365 | 2.0 | 16.537 | 2 | 42.189 | 16.705 | 32.883 | 2 |
| 2025-06-18T16:59:00 | 53.713521 | 6.438365 | 2.0 | 16.531 | 2 | 42.184 | 16.701 | 32.882 | 2 |
| 2025-06-18T17:00:00 | 53.713481 | 6.438353 | 2.0 | 16.534 | 2 | 42.178 | 16.697 | 32.880 | 2 |
| 2025-06-18T17:01:00 | 53.713438 | 6.438345 | 2.0 | 16.528 | 2 | 42.177 | 16.698 | 32.879 | 2 |
| 2025-06-18T17:02:00 | 53.713395 | 6.438328 | 2.0 | 16.527 | 2 | 42.171 | 16.694 | 32.877 | 2 |
| 2025-06-18T17:03:00 | 53.713343 | 6.438308 | 2.0 | 16.524 | 2 | 42.167 | 16.692 | 32.875 | 2 |
| 2025-06-18T17:04:00 | 53.713297 | 6.438279 | 2.0 | 16.521 | 2 | 42.165 | 16.690 | 32.875 | 2 |
| 2025-06-18T17:05:00 | 53.713250 | 6.438231 | 2.0 | 16.519 | 2 | 42.160 | 16.686 | 32.874 | 2 |
| 2025-06-18T17:06:00 | 53.713192 | 6.438192 | 2.0 | 16.520 | 2 | 42.157 | 16.685 | 32.872 | 2 |
| 2025-06-18T17:07:00 | 53.713132 | 6.438156 | 2.0 | 16.521 | 2 | 42.157 | 16.686 | 32.871 | 2 |
| 2025-06-18T17:08:00 | 53.713072 | 6.438109 | 2.0 | 16.522 | 2 | 42.158 | 16.687 | 32.871 | 2 |
| 2025-06-18T17:09:00 | 53.713012 | 6.438047 | 2.0 | 16.522 | 2 | 42.159 | 16.688 | 32.871 | 2 |
| 2025-06-18T17:10:00 | 53.712945 | 6.437990 | 2.0 | 16.522 | 2 | 42.157 | 16.687 | 32.870 | 2 |
| 2025-06-18T17:11:00 | 53.712878 | 6.437944 | 2.0 | 16.523 | 2 | 42.157 | 16.687 | 32.870 | 2 |
| 2025-06-18T17:12:00 | 53.712816 | 6.437895 | 2.0 | 16.524 | 2 | 42.157 | 16.689 | 32.869 | 2 |
| 2025-06-18T17:13:00 | 53.712756 | 6.437848 | 2.0 | 16.527 | 2 | 42.157 | 16.690 | 32.868 | 2 |
| 2025-06-18T17:14:00 | 53.712692 | 6.437794 | 2.0 | 16.528 | 2 | 42.159 | 16.692 | 32.868 | 2 |
| 2025-06-18T17:15:00 | 53.712628 | 6.437720 | 2.0 | 16.528 | 2 | 42.158 | 16.693 | 32.866 | 2 |
| 2025-06-18T17:16:00 | 53.712563 | 6.437634 | 2.0 | 16.533 | 2 | 42.152 | 16.694 | 32.860 | 2 |
| 2025-06-18T17:17:00 | 53.712499 | 6.437545 | 2.0 | 16.535 | 2 | 42.160 | 16.699 | 32.863 | 2 |
| 2025-06-18T17:18:00 | 53.712431 | 6.437467 | 2.0 | 16.536 | 2 | 42.161 | 16.701 | 32.862 | 2 |
| 2025-06-18T17:19:00 | 53.712359 | 6.437387 | 2.0 | 16.539 | 2 | 42.163 | 16.701 | 32.864 | 2 |
| 2025-06-18T17:20:00 | 53.712282 | 6.437313 | 2.0 | 16.541 | 2 | 42.166 | 16.704 | 32.864 | 2 |
| 2025-06-18T17:21:00 | 53.712209 | 6.437223 | 2.0 | 16.542 | 2 | 42.168 | 16.706 | 32.864 | 2 |
| 2025-06-18T17:22:00 | 53.712139 | 6.437131 | 2.0 | 16.544 | 2 | 42.169 | 16.707 | 32.864 | 2 |
| 2025-06-18T17:23:00 | 53.712057 | 6.437039 | 2.0 | 16.545 | 2 | 42.172 | 16.709 | 32.865 | 2 |
| 2025-06-18T17:24:00 | 53.711989 | 6.436928 | 2.0 | 16.545 | 2 | 42.171 | 16.709 | 32.864 | 2 |
| 2025-06-18T17:25:00 | 53.711914 | 6.436827 | 2.0 | 16.543 | 2 | 42.172 | 16.710 | 32.864 | 2 |
| 2025-06-18T17:26:00 | 53.711842 | 6.436699 | 2.0 | 16.545 | 2 | 42.170 | 16.709 | 32.863 | 2 |
| 2025-06-18T17:27:00 | 53.711766 | 6.436560 | 2.0 | 16.546 | 2 | 42.170 | 16.710 | 32.863 | 2 |
| 2025-06-18T17:28:00 | 53.711694 | 6.436412 | 2.0 | 16.548 | 2 | 42.171 | 16.711 | 32.863 | 2 |
| 2025-06-18T17:29:00 | 53.711624 | 6.436255 | 2.0 | 16.550 | 2 | 42.174 | 16.713 | 32.864 | 2 |
| 2025-06-18T17:30:00 | 53.711557 | 6.436098 | 2.0 | 16.552 | 2 | 42.176 | 16.716 | 32.863 | 2 |
| 2025-06-18T17:31:00 | 53.711489 | 6.435935 | 2.0 | 16.551 | 2 | 42.178 | 16.717 | 32.864 | 2 |
| 2025-06-18T17:32:00 | 53.711416 | 6.435790 | 2.0 | 16.552 | 2 | 42.177 | 16.716 | 32.864 | 2 |
| 2025-06-18T17:33:00 | 53.711347 | 6.435639 | 2.0 | 16.556 | 2 | 42.178 | 16.718 | 32.863 | 2 |
| 2025-06-18T17:34:00 | 53.711271 | 6.435482 | 2.0 | 16.555 | 2 | 42.180 | 16.719 | 32.864 | 2 |
| 2025-06-18T17:35:00 | 53.711194 | 6.435329 | 2.0 | 16.557 | 2 | 42.180 | 16.720 | 32.863 | 2 |
| 2025-06-18T17:36:00 | 53.711113 | 6.435172 | 2.0 | 16.557 | 2 | 42.182 | 16.721 | 32.864 | 2 |
| 2025-06-18T17:37:00 | 53.711034 | 6.435022 | 2.0 | 16.564 | 2 | 42.182 | 16.722 | 32.863 | 2 |
| 2025-06-18T17:38:00 | 53.710955 | 6.434882 | 2.0 | 16.558 | 2 | 42.186 | 16.727 | 32.863 | 2 |
| 2025-06-18T17:39:00 | 53.710874 | 6.434744 | 2.0 | 16.560 | 2 | 42.183 | 16.723 | 32.863 | 2 |
| 2025-06-18T17:40:00 | 53.710780 | 6.434628 | 2.0 | 16.563 | 2 | 42.184 | 16.724 | 32.863 | 2 |
| 2025-06-18T17:41:00 | 53.710678 | 6.434507 | 2.0 | 16.565 | 2 | 42.186 | 16.727 | 32.863 | 2 |
| 2025-06-18T17:42:00 | 53.710570 | 6.434380 | 2.0 | 16.569 | 2 | 42.189 | 16.730 | 32.863 | 2 |
| 2025-06-18T17:43:00 | 53.710463 | 6.434227 | 2.0 | 16.572 | 2 | 42.193 | 16.735 | 32.862 | 2 |
| 2025-06-18T17:44:00 | 53.710357 | 6.434063 | 2.0 | 16.574 | 2 | 42.195 | 16.737 | 32.862 | 2 |
| 2025-06-18T17:45:00 | 53.710258 | 6.433893 | 2.0 | 16.574 | 2 | 42.196 | 16.738 | 32.862 | 2 |
| 2025-06-18T17:46:00 | 53.710156 | 6.433723 | 2.0 | 16.575 | 2 | 42.196 | 16.738 | 32.862 | 2 |
| 2025-06-18T17:47:00 | 53.710054 | 6.433556 | 2.0 | 16.578 | 2 | 42.197 | 16.740 | 32.862 | 2 |
| 2025-06-18T17:48:00 | 53.709950 | 6.433390 | 2.0 | 16.580 | 2 | 42.200 | 16.743 | 32.862 | 2 |
| 2025-06-18T17:49:00 | 53.709839 | 6.433212 | 2.0 | 16.579 | 2 | 42.201 | 16.743 | 32.863 | 2 |
| 2025-06-18T17:50:00 | 53.709731 | 6.433023 | 2.0 | 16.581 | 2 | 42.202 | 16.745 | 32.862 | 2 |
| 2025-06-18T17:51:00 | 53.709627 | 6.432824 | 2.0 | 16.582 | 2 | 42.203 | 16.746 | 32.862 | 2 |
| 2025-06-18T17:52:00 | 53.709515 | 6.432630 | 2.0 | 16.586 | 2 | 42.204 | 16.747 | 32.862 | 2 |
| 2025-06-18T17:53:00 | 53.709398 | 6.432436 | 2.0 | 16.586 | 2 | 42.206 | 16.749 | 32.862 | 2 |
| 2025-06-18T17:54:00 | 53.709281 | 6.432243 | 2.0 | 16.586 | 2 | 42.207 | 16.750 | 32.862 | 2 |
| 2025-06-18T17:55:00 | 53.709167 | 6.432055 | 2.0 | 16.588 | 2 | 42.208 | 16.751 | 32.862 | 2 |
| 2025-06-18T17:56:00 | 53.709053 | 6.431870 | 2.0 | 16.590 | 2 | 42.209 | 16.752 | 32.862 | 2 |
| 2025-06-18T17:57:00 | 53.708934 | 6.431675 | 2.0 | 16.593 | 2 | 42.211 | 16.755 | 32.861 | 2 |
| 2025-06-18T17:58:00 | 53.708808 | 6.431469 | 2.0 | 16.593 | 2 | 42.213 | 16.757 | 32.862 | 2 |
| 2025-06-18T17:59:00 | 53.708678 | 6.431265 | 2.0 | 16.595 | 2 | 42.214 | 16.758 | 32.862 | 2 |
| 2025-06-18T18:00:00 | 53.708549 | 6.431051 | 2.0 | 16.599 | 2 | 42.217 | 16.760 | 32.863 | 2 |
| 2025-06-18T18:01:00 | 53.708422 | 6.430823 | 2.0 | 16.600 | 2 | 42.220 | 16.763 | 32.863 | 2 |
| 2025-06-18T18:02:00 | 53.708295 | 6.430592 | 2.0 | 16.601 | 2 | 42.221 | 16.764 | 32.863 | 2 |
| 2025-06-18T18:03:00 | 53.708173 | 6.430358 | 2.0 | 16.601 | 2 | 42.222 | 16.765 | 32.863 | 2 |
| 2025-06-18T18:04:00 | 53.708057 | 6.430121 | 2.0 | 16.602 | 2 | 42.222 | 16.765 | 32.863 | 2 |
| 2025-06-18T18:05:00 | 53.707934 | 6.429892 | 2.0 | 16.603 | 2 | 42.222 | 16.766 | 32.862 | 2 |
| 2025-06-18T18:06:00 | 53.707815 | 6.429654 | 2.0 | 16.604 | 2 | 42.222 | 16.767 | 32.861 | 2 |
| 2025-06-18T18:07:00 | 53.707699 | 6.429414 | 2.0 | 16.608 | 2 | 42.224 | 16.768 | 32.862 | 2 |
| 2025-06-18T18:08:00 | 53.707572 | 6.429191 | 2.0 | 16.606 | 2 | 42.229 | 16.774 | 32.862 | 2 |
| 2025-06-18T18:09:00 | 53.707438 | 6.428976 | 2.0 | 16.607 | 2 | 42.228 | 16.771 | 32.863 | 2 |
| 2025-06-18T18:10:00 | 53.707304 | 6.428756 | 2.0 | 16.608 | 2 | 42.227 | 16.771 | 32.862 | 2 |
| 2025-06-18T18:11:00 | 53.707169 | 6.428532 | 2.0 | 16.608 | 2 | 42.228 | 16.771 | 32.863 | 2 |
| 2025-06-18T18:12:00 | 53.707025 | 6.428309 | 2.0 | 16.608 | 2 | 42.229 | 16.772 | 32.863 | 2 |
| 2025-06-18T18:13:00 | 53.706871 | 6.428078 | 2.0 | 16.609 | 2 | 42.229 | 16.773 | 32.862 | 2 |
| 2025-06-18T18:14:00 | 53.706717 | 6.427849 | 2.0 | 16.609 | 2 | 42.229 | 16.772 | 32.863 | 2 |
| 2025-06-18T18:15:00 | 53.706561 | 6.427612 | 2.0 | 16.606 | 2 | 42.229 | 16.773 | 32.862 | 2 |
| 2025-06-18T18:16:00 | 53.706412 | 6.427365 | 2.0 | 16.605 | 2 | 42.227 | 16.770 | 32.863 | 2 |
| 2025-06-18T18:17:00 | 53.706266 | 6.427115 | 2.0 | 16.610 | 2 | 42.228 | 16.771 | 32.863 | 2 |
| 2025-06-18T18:18:00 | 53.706123 | 6.426875 | 2.0 | 16.615 | 2 | 42.231 | 16.775 | 32.862 | 2 |
| 2025-06-18T18:19:00 | 53.705972 | 6.426640 | 2.0 | 16.615 | 2 | 42.235 | 16.778 | 32.863 | 2 |
| 2025-06-18T18:20:00 | 53.705822 | 6.426392 | 2.0 | 16.616 | 2 | 42.236 | 16.780 | 32.863 | 2 |
| 2025-06-18T18:21:00 | 53.705679 | 6.426156 | 2.0 | 16.620 | 2 | 42.237 | 16.781 | 32.863 | 2 |
| 2025-06-18T18:22:00 | 53.705527 | 6.425932 | 2.0 | 16.622 | 2 | 42.239 | 16.783 | 32.863 | 2 |
| 2025-06-18T18:23:00 | 53.705360 | 6.425703 | 2.0 | 16.627 | 2 | 42.241 | 16.786 | 32.862 | 2 |
| 2025-06-18T18:24:00 | 53.705191 | 6.425491 | 2.0 | 16.630 | 2 | 42.245 | 16.791 | 32.862 | 2 |
| 2025-06-18T18:25:00 | 53.705025 | 6.425282 | 2.0 | 16.631 | 2 | 42.249 | 16.794 | 32.863 | 2 |
| 2025-06-18T18:26:00 | 53.704862 | 6.425063 | 2.0 | 16.633 | 2 | 42.251 | 16.796 | 32.863 | 2 |
| 2025-06-18T18:27:00 | 53.704703 | 6.424826 | 2.0 | 16.631 | 2 | 42.252 | 16.796 | 32.864 | 2 |
| 2025-06-18T18:28:00 | 53.704542 | 6.424589 | 2.0 | 16.634 | 2 | 42.251 | 16.796 | 32.863 | 2 |
| 2025-06-18T18:29:00 | 53.704386 | 6.424329 | 2.0 | 16.636 | 2 | 42.253 | 16.798 | 32.863 | 2 |
| 2025-06-18T18:30:00 | 53.704226 | 6.424073 | 2.0 | 16.638 | 2 | 42.255 | 16.800 | 32.863 | 2 |
| 2025-06-18T18:31:00 | 53.704057 | 6.423818 | 2.0 | 16.640 | 2 | 42.257 | 16.802 | 32.863 | 2 |
| 2025-06-18T18:32:00 | 53.703889 | 6.423557 | 2.0 | 16.642 | 2 | 42.259 | 16.804 | 32.863 | 2 |
| 2025-06-18T18:33:00 | 53.703730 | 6.423284 | 2.0 | 16.643 | 2 | 42.261 | 16.805 | 32.864 | 2 |
| 2025-06-18T18:34:00 | 53.703564 | 6.423014 | 2.0 | 16.644 | 2 | 42.262 | 16.807 | 32.863 | 2 |
| 2025-06-18T18:35:00 | 53.703381 | 6.422740 | 2.0 | 16.644 | 2 | 42.262 | 16.807 | 32.863 | 2 |
| 2025-06-18T18:36:00 | 53.703191 | 6.422467 | 2.0 | 16.647 | 2 | 42.262 | 16.808 | 32.862 | 2 |
| 2025-06-18T18:37:00 | 53.703004 | 6.422192 | 2.0 | 16.647 | 2 | 42.266 | 16.811 | 32.863 | 2 |
| 2025-06-18T18:38:00 | 53.702801 | 6.421915 | 2.0 | 16.642 | 2 | 42.264 | 16.809 | 32.863 | 2 |
| 2025-06-18T18:39:00 | 53.702604 | 6.421623 | 2.0 | 16.642 | 2 | 42.262 | 16.807 | 32.863 | 2 |
| 2025-06-18T18:40:00 | 53.702409 | 6.421325 | 2.0 | 16.644 | 2 | 42.262 | 16.807 | 32.863 | 2 |
| 2025-06-18T18:41:00 | 53.702211 | 6.421016 | 2.0 | 16.641 | 2 | 42.262 | 16.807 | 32.863 | 2 |
| 2025-06-18T18:42:00 | 53.702007 | 6.420693 | 2.0 | 16.642 | 2 | 42.260 | 16.805 | 32.863 | 2 |
| 2025-06-18T18:43:00 | 53.701799 | 6.420369 | 2.0 | 16.642 | 2 | 42.260 | 16.805 | 32.863 | 2 |
| 2025-06-18T18:44:00 | 53.701601 | 6.420034 | 2.0 | 16.647 | 2 | 42.260 | 16.807 | 32.861 | 2 |
| 2025-06-18T18:45:00 | 53.701400 | 6.419708 | 2.0 | 16.643 | 2 | 42.264 | 16.810 | 32.862 | 2 |
| 2025-06-18T18:46:00 | 53.701191 | 6.419397 | 2.0 | 16.641 | 2 | 42.261 | 16.807 | 32.862 | 2 |
| 2025-06-18T18:47:00 | 53.700986 | 6.419080 | 2.0 | 16.632 | 2 | 42.258 | 16.802 | 32.864 | 2 |
| 2025-06-18T18:48:00 | 53.700781 | 6.418757 | 2.0 | 16.632 | 2 | 42.251 | 16.796 | 32.863 | 2 |
| 2025-06-18T18:49:00 | 53.700578 | 6.418432 | 2.0 | 16.630 | 2 | 42.251 | 16.796 | 32.863 | 2 |
| 2025-06-18T18:50:00 | 53.700364 | 6.418153 | 2.0 | 16.631 | 2 | 42.250 | 16.795 | 32.863 | 2 |
| 2025-06-18T18:51:00 | 53.700166 | 6.417869 | 2.0 | 16.625 | 2 | 42.249 | 16.793 | 32.863 | 2 |
| 2025-06-18T18:52:00 | 53.699970 | 6.417580 | 2.0 | 16.626 | 2 | 42.245 | 16.789 | 32.863 | 2 |
| 2025-06-18T18:53:00 | 53.699770 | 6.417291 | 2.0 | 16.627 | 2 | 42.246 | 16.790 | 32.863 | 2 |
| 2025-06-18T18:54:00 | 53.699569 | 6.416990 | 2.0 | 16.628 | 2 | 42.248 | 16.791 | 32.864 | 2 |
| 2025-06-18T18:55:00 | 53.699362 | 6.416689 | 2.0 | 16.628 | 2 | 42.249 | 16.791 | 32.865 | 2 |
| 2025-06-18T18:56:00 | 53.699087 | 6.416342 | 2.0 | 16.625 | 2 | 42.248 | 16.790 | 32.865 | 2 |
| 2025-06-18T18:57:00 | 53.698784 | 6.415886 | 2.0 | 16.625 | 2 | 42.245 | 16.787 | 32.865 | 2 |
| 2025-06-18T18:58:00 | 53.698475 | 6.415317 | 2.0 | 16.629 | 2 | 42.246 | 16.788 | 32.865 | 2 |
| 2025-06-18T18:59:00 | 53.698175 | 6.414641 | 2.0 | 16.630 | 2 | 42.250 | 16.792 | 32.865 | 2 |
| 2025-06-18T19:00:00 | 53.697914 | 6.413887 | 2.0 | 16.632 | 2 | 42.249 | 16.793 | 32.863 | 2 |
| 2025-06-18T19:01:00 | 53.697737 | 6.413109 | 2.0 | 16.635 | 2 | 42.250 | 16.794 | 32.863 | 2 |
| 2025-06-18T19:02:00 | 53.697659 | 6.412484 | 2.0 | 16.638 | 2 | 42.254 | 16.798 | 32.864 | 2 |
| 2025-06-18T19:03:00 | 53.697607 | 6.412242 | 2.0 | 16.637 | 2 | 42.254 | 16.801 | 32.861 | 2 |
| 2025-06-18T19:04:00 | 53.697515 | 6.412238 | 2.0 | 16.632 | 2 | 42.253 | 16.800 | 32.861 | 2 |
| 2025-06-18T19:05:00 | 53.697453 | 6.412287 | 2.0 | 16.628 | 2 | 42.249 | 16.793 | 32.863 | 2 |
| 2025-06-18T19:06:00 | 53.697413 | 6.412392 | 2.0 | 16.628 | 2 | 42.247 | 16.792 | 32.862 | 2 |
| 2025-06-18T19:07:00 | 53.697367 | 6.412514 | 2.0 | 16.626 | 2 | 42.246 | 16.789 | 32.864 | 2 |
| 2025-06-18T19:08:00 | 53.697320 | 6.412653 | 2.0 | 16.622 | 2 | 42.247 | 16.788 | 32.866 | 2 |
| 2025-06-18T19:09:00 | 53.697294 | 6.412796 | 2.0 | 16.615 | 2 | 42.245 | 16.784 | 32.867 | 2 |
| 2025-06-18T19:10:00 | 53.697279 | 6.412911 | 2.0 | 16.617 | 2 | 42.240 | 16.779 | 32.867 | 2 |
| 2025-06-18T19:11:00 | 53.697255 | 6.413006 | 2.0 | 16.607 | 2 | 42.240 | 16.776 | 32.869 | 2 |
| 2025-06-18T19:12:00 | 53.697206 | 6.413093 | 2.0 | 16.606 | 2 | 42.236 | 16.770 | 32.871 | 2 |
| 2025-06-18T19:13:00 | 53.697165 | 6.413211 | 2.0 | 16.605 | 2 | 42.236 | 16.769 | 32.872 | 2 |
| 2025-06-18T19:14:00 | 53.697132 | 6.413376 | 2.0 | 16.596 | 2 | 42.234 | 16.765 | 32.873 | 2 |
| 2025-06-18T19:15:00 | 53.697132 | 6.413528 | 2.0 | 16.593 | 2 | 42.228 | 16.760 | 32.872 | 2 |
| 2025-06-18T19:16:00 | 53.697134 | 6.413632 | 2.0 | 16.588 | 2 | 42.227 | 16.755 | 32.875 | 2 |
| 2025-06-18T19:17:00 | 53.697119 | 6.413689 | 2.0 | 16.583 | 2 | 42.222 | 16.750 | 32.875 | 2 |
| 2025-06-18T19:18:00 | 53.697081 | 6.413717 | 2.0 | 16.582 | 2 | 42.220 | 16.746 | 32.877 | 2 |
| 2025-06-18T19:19:00 | 53.697026 | 6.413762 | 2.0 | 16.579 | 2 | 42.218 | 16.745 | 32.876 | 2 |
| 2025-06-18T19:20:00 | 53.696968 | 6.413866 | 2.0 | 16.579 | 2 | 42.216 | 16.742 | 32.876 | 2 |
| 2025-06-18T19:21:00 | 53.696930 | 6.414007 | 2.0 | 16.578 | 2 | 42.215 | 16.742 | 32.876 | 2 |
| 2025-06-18T19:22:00 | 53.696892 | 6.414172 | 2.0 | 16.579 | 2 | 42.218 | 16.743 | 32.877 | 2 |
| 2025-06-18T19:23:00 | 53.696872 | 6.414331 | 2.0 | 16.582 | 2 | 42.219 | 16.743 | 32.878 | 2 |
| 2025-06-18T19:24:00 | 53.696849 | 6.414506 | 2.0 | 16.582 | 2 | 42.222 | 16.745 | 32.879 | 2 |
| 2025-06-18T19:25:00 | 53.696848 | 6.414692 | 2.0 | 16.584 | 2 | 42.224 | 16.746 | 32.880 | 2 |
| 2025-06-18T19:26:00 | 53.696859 | 6.414858 | 2.0 | 16.583 | 2 | 42.229 | 16.748 | 32.883 | 2 |
| 2025-06-18T19:27:00 | 53.696858 | 6.415063 | 2.0 | 16.582 | 2 | 42.229 | 16.746 | 32.884 | 2 |
| 2025-06-18T19:28:00 | 53.696878 | 6.415259 | 2.0 | 16.580 | 2 | 42.229 | 16.743 | 32.887 | 2 |
| 2025-06-18T19:29:00 | 53.696885 | 6.415437 | 2.0 | 16.577 | 2 | 42.228 | 16.743 | 32.886 | 2 |
| 2025-06-18T19:30:00 | 53.696869 | 6.415666 | 2.0 | 16.576 | 2 | 42.226 | 16.739 | 32.888 | 2 |
| 2025-06-18T19:31:00 | 53.696875 | 6.415879 | 2.0 | 16.578 | 2 | 42.226 | 16.739 | 32.888 | 2 |
| 2025-06-18T19:32:00 | 53.696883 | 6.416094 | 2.0 | 16.578 | 2 | 42.229 | 16.740 | 32.889 | 2 |
| 2025-06-18T19:33:00 | 53.696884 | 6.416332 | 2.0 | 16.576 | 2 | 42.230 | 16.741 | 32.889 | 2 |
| 2025-06-18T19:34:00 | 53.696897 | 6.416564 | 2.0 | 16.574 | 2 | 42.230 | 16.739 | 32.891 | 2 |
| 2025-06-18T19:35:00 | 53.696920 | 6.416807 | 2.0 | 16.566 | 2 | 42.226 | 16.734 | 32.892 | 2 |
| 2025-06-18T19:36:00 | 53.696954 | 6.417065 | 2.0 | 16.569 | 2 | 42.223 | 16.731 | 32.892 | 2 |
| 2025-06-18T19:37:00 | 53.696990 | 6.417342 | 2.0 | 16.575 | 2 | 42.225 | 16.731 | 32.893 | 2 |
| 2025-06-18T19:38:00 | 53.697064 | 6.417585 | 2.0 | 16.574 | 2 | 42.233 | 16.738 | 32.895 | 2 |
| 2025-06-18T19:39:00 | 53.697147 | 6.417795 | 2.0 | 16.583 | 2 | 42.233 | 16.739 | 32.894 | 2 |
| 2025-06-18T19:40:00 | 53.697215 | 6.418024 | 2.0 | 16.584 | 2 | 42.240 | 16.745 | 32.895 | 2 |
| 2025-06-18T19:41:00 | 53.697298 | 6.418266 | 2.0 | 16.587 | 2 | 42.243 | 16.748 | 32.895 | 2 |
| 2025-06-18T19:42:00 | 53.697395 | 6.418488 | 2.0 | 16.585 | 2 | 42.243 | 16.748 | 32.895 | 2 |
| 2025-06-18T19:43:00 | 53.697484 | 6.418753 | 2.0 | 16.588 | 2 | 42.244 | 16.750 | 32.894 | 2 |
| 2025-06-18T19:44:00 | 53.697578 | 6.418981 | 2.0 | 16.586 | 2 | 42.248 | 16.751 | 32.897 | 2 |
| 2025-06-18T19:45:00 | 53.697673 | 6.419228 | 2.0 | 16.587 | 2 | 42.250 | 16.749 | 32.900 | 2 |
| 2025-06-18T19:46:00 | 53.697760 | 6.419474 | 2.0 | 16.589 | 2 | 42.253 | 16.750 | 32.902 | 2 |
| 2025-06-18T19:47:00 | 53.697843 | 6.419718 | 2.0 | 16.587 | 2 | 42.253 | 16.750 | 32.902 | 2 |
| 2025-06-18T19:48:00 | 53.697931 | 6.419961 | 2.0 | 16.584 | 2 | 42.253 | 16.749 | 32.903 | 2 |
| 2025-06-18T19:49:00 | 53.698023 | 6.420212 | 2.0 | 16.585 | 2 | 42.250 | 16.747 | 32.902 | 2 |
| 2025-06-18T19:50:00 | 53.698134 | 6.420475 | 2.0 | 16.577 | 2 | 42.251 | 16.747 | 32.903 | 2 |
| 2025-06-18T19:51:00 | 53.698249 | 6.420761 | 2.0 | 16.577 | 2 | 42.249 | 16.741 | 32.906 | 2 |
| 2025-06-18T19:52:00 | 53.698372 | 6.421037 | 2.0 | 16.573 | 2 | 42.248 | 16.738 | 32.908 | 2 |
| 2025-06-18T19:53:00 | 53.698484 | 6.421337 | 2.0 | 16.559 | 2 | 42.244 | 16.732 | 32.909 | 2 |
| 2025-06-18T19:54:00 | 53.698593 | 6.421615 | 2.0 | 16.558 | 2 | 42.236 | 16.722 | 32.910 | 2 |
| 2025-06-18T19:55:00 | 53.698685 | 6.421921 | 2.0 | 16.551 | 2 | 42.234 | 16.720 | 32.910 | 2 |
| 2025-06-18T19:56:00 | 53.698788 | 6.422205 | 2.0 | 16.546 | 2 | 42.229 | 16.713 | 32.912 | 2 |
| 2025-06-18T19:57:00 | 53.698894 | 6.422475 | 2.0 | 16.542 | 2 | 42.224 | 16.706 | 32.913 | 2 |
| 2025-06-18T19:58:00 | 53.698993 | 6.422775 | 2.0 | 16.542 | 2 | 42.223 | 16.708 | 32.910 | 2 |
| 2025-06-18T19:59:00 | 53.699100 | 6.423079 | 2.0 | 16.541 | 2 | 42.222 | 16.704 | 32.913 | 2 |
| 2025-06-18T20:00:00 | 53.699215 | 6.423406 | 2.0 | 16.524 | 2 | 42.221 | 16.703 | 32.913 | 2 |
| 2025-06-18T20:01:00 | 53.699334 | 6.423743 | 2.0 | 16.509 | 2 | 42.207 | 16.684 | 32.916 | 2 |
| 2025-06-18T20:02:00 | 53.699468 | 6.424076 | 2.0 | 16.509 | 2 | 42.196 | 16.672 | 32.917 | 2 |
| 2025-06-18T20:03:00 | 53.699593 | 6.424417 | 2.0 | 16.509 | 2 | 42.195 | 16.671 | 32.916 | 2 |
| 2025-06-18T20:04:00 | 53.699707 | 6.424766 | 2.0 | 16.515 | 2 | 42.196 | 16.675 | 32.914 | 2 |
| 2025-06-18T20:05:00 | 53.699811 | 6.425098 | 2.0 | 16.513 | 2 | 42.198 | 16.677 | 32.914 | 2 |
| 2025-06-18T20:06:00 | 53.699910 | 6.425407 | 2.0 | 16.505 | 2 | 42.198 | 16.677 | 32.914 | 2 |
| 2025-06-18T20:07:00 | 53.700031 | 6.425706 | 2.0 | 16.495 | 2 | 42.192 | 16.668 | 32.916 | 2 |
| 2025-06-18T20:08:00 | 53.700165 | 6.426010 | 2.0 | 16.503 | 2 | 42.184 | 16.656 | 32.919 | 2 |
| 2025-06-18T20:09:00 | 53.700274 | 6.426388 | 2.0 | 16.502 | 2 | 42.192 | 16.668 | 32.916 | 2 |
| 2025-06-18T20:10:00 | 53.700384 | 6.426683 | 2.0 | 16.493 | 2 | 42.187 | 16.662 | 32.917 | 2 |
| 2025-06-18T20:11:00 | 53.700469 | 6.426902 | 2.0 | 16.488 | 2 | 42.180 | 16.655 | 32.917 | 2 |
| 2025-06-18T20:12:00 | 53.700512 | 6.427076 | 2.0 | 16.463 | 2 | 42.177 | 16.648 | 32.920 | 2 |
| 2025-06-18T20:13:00 | 53.700536 | 6.427180 | 2.0 | 16.463 | 2 | 42.159 | 16.625 | 32.923 | 2 |
| 2025-06-18T20:14:00 | 53.700524 | 6.427245 | 2.0 | 16.466 | 2 | 42.160 | 16.629 | 32.920 | 2 |
| 2025-06-18T20:15:00 | 53.700474 | 6.427309 | 2.0 | 16.461 | 2 | 42.161 | 16.628 | 32.922 | 2 |
| 2025-06-18T20:16:00 | 53.700406 | 6.427389 | 2.0 | 16.466 | 2 | 42.158 | 16.625 | 32.922 | 2 |
| 2025-06-18T20:17:00 | 53.700359 | 6.427455 | 2.0 | 16.452 | 2 | 42.161 | 16.627 | 32.923 | 2 |
| 2025-06-18T20:18:00 | 53.700322 | 6.427473 | 2.0 | 16.435 | 2 | 42.150 | 16.612 | 32.926 | 2 |
| 2025-06-18T20:19:00 | 53.700278 | 6.427440 | 2.0 | 16.434 | 2 | 42.140 | 16.600 | 32.927 | 2 |
| 2025-06-18T20:20:00 | 53.700208 | 6.427387 | 2.0 | 16.440 | 2 | 42.139 | 16.601 | 32.925 | 2 |
| 2025-06-18T20:21:00 | 53.700127 | 6.427363 | 2.0 | 16.446 | 2 | 42.141 | 16.604 | 32.924 | 2 |
| 2025-06-18T20:22:00 | 53.700055 | 6.427466 | 2.0 | 16.441 | 2 | 42.146 | 16.609 | 32.925 | 2 |
| 2025-06-18T20:23:00 | 53.700028 | 6.427685 | 2.0 | 16.442 | 2 | 42.146 | 16.605 | 32.928 | 2 |
| 2025-06-18T20:24:00 | 53.700080 | 6.427903 | 2.0 | 16.438 | 2 | 42.147 | 16.604 | 32.930 | 2 |
| 2025-06-18T20:25:00 | 53.700170 | 6.428111 | 2.0 | 16.437 | 2 | 42.145 | 16.602 | 32.930 | 2 |
| 2025-06-18T20:26:00 | 53.700271 | 6.428308 | 2.0 | 16.435 | 2 | 42.143 | 16.601 | 32.929 | 2 |
| 2025-06-18T20:27:00 | 53.700374 | 6.428527 | 2.0 | 16.441 | 2 | 42.143 | 16.599 | 32.930 | 2 |
| 2025-06-18T20:28:00 | 53.700490 | 6.428743 | 2.0 | 16.439 | 2 | 42.147 | 16.603 | 32.931 | 2 |
| 2025-06-18T20:29:00 | 53.700585 | 6.428967 | 2.0 | 16.435 | 2 | 42.146 | 16.602 | 32.930 | 2 |
| 2025-06-18T20:30:00 | 53.700678 | 6.429165 | 2.0 | 16.433 | 2 | 42.145 | 16.599 | 32.932 | 2 |
| 2025-06-18T20:31:00 | 53.700760 | 6.429299 | 2.0 | 16.438 | 2 | 42.143 | 16.597 | 32.932 | 2 |
| 2025-06-18T20:32:00 | 53.700800 | 6.429468 | 2.0 | 16.437 | 2 | 42.146 | 16.601 | 32.931 | 2 |
| 2025-06-18T20:33:00 | 53.700859 | 6.429636 | 2.0 | 16.436 | 2 | 42.145 | 16.599 | 32.932 | 2 |
| 2025-06-18T20:34:00 | 53.700919 | 6.429779 | 2.0 | 16.439 | 2 | 42.147 | 16.600 | 32.933 | 2 |
| 2025-06-18T20:35:00 | 53.700972 | 6.429917 | 2.0 | 16.437 | 2 | 42.148 | 16.600 | 32.934 | 2 |
| 2025-06-18T20:36:00 | 53.701001 | 6.430095 | 2.0 | 16.442 | 2 | 42.149 | 16.602 | 32.933 | 2 |
| 2025-06-18T20:37:00 | 53.701035 | 6.430275 | 2.0 | 16.442 | 2 | 42.150 | 16.604 | 32.932 | 2 |
| 2025-06-18T20:38:00 | 53.701070 | 6.430436 | 2.0 | 16.436 | 2 | 42.150 | 16.605 | 32.931 | 2 |
| 2025-06-18T20:39:00 | 53.701101 | 6.430612 | 2.0 | 16.437 | 2 | 42.147 | 16.599 | 32.934 | 2 |
| 2025-06-18T20:40:00 | 53.701140 | 6.430799 | 2.0 | 16.437 | 2 | 42.148 | 16.601 | 32.933 | 2 |
| 2025-06-18T20:41:00 | 53.701188 | 6.430974 | 2.0 | 16.441 | 2 | 42.147 | 16.600 | 32.933 | 2 |
| 2025-06-18T20:42:00 | 53.701233 | 6.431105 | 2.0 | 16.440 | 2 | 42.150 | 16.604 | 32.932 | 2 |
| 2025-06-18T20:43:00 | 53.701262 | 6.431210 | 2.0 | 16.442 | 2 | 42.150 | 16.604 | 32.932 | 2 |
| 2025-06-18T20:44:00 | 53.701270 | 6.431359 | 2.0 | 16.440 | 2 | 42.151 | 16.605 | 32.932 | 2 |
| 2025-06-18T20:45:00 | 53.701272 | 6.431540 | 2.0 | 16.445 | 2 | 42.150 | 16.604 | 32.932 | 2 |
| 2025-06-18T20:46:00 | 53.701294 | 6.431689 | 2.0 | 16.446 | 2 | 42.151 | 16.608 | 32.930 | 2 |
| 2025-06-18T20:47:00 | 53.701311 | 6.431856 | 2.0 | 16.440 | 2 | 42.151 | 16.608 | 32.930 | 2 |
| 2025-06-18T20:48:00 | 53.701327 | 6.432038 | 2.0 | 16.442 | 2 | 42.150 | 16.605 | 32.931 | 2 |
| 2025-06-18T20:49:00 | 53.701354 | 6.432209 | 2.0 | 16.440 | 2 | 42.149 | 16.605 | 32.931 | 2 |
| 2025-06-18T20:50:00 | 53.701386 | 6.432383 | 2.0 | 16.442 | 2 | 42.147 | 16.603 | 32.931 | 2 |
| 2025-06-18T20:51:00 | 53.701428 | 6.432565 | 2.0 | 16.440 | 2 | 42.146 | 16.605 | 32.928 | 2 |
| 2025-06-18T20:52:00 | 53.701465 | 6.432757 | 2.0 | 16.442 | 2 | 42.145 | 16.604 | 32.928 | 2 |
| 2025-06-18T20:53:00 | 53.701496 | 6.432955 | 2.0 | 16.442 | 2 | 42.144 | 16.603 | 32.928 | 2 |
| 2025-06-18T20:54:00 | 53.701534 | 6.433131 | 2.0 | 16.443 | 2 | 42.145 | 16.605 | 32.927 | 2 |
| 2025-06-18T20:55:00 | 53.701572 | 6.433287 | 2.0 | 16.441 | 2 | 42.144 | 16.604 | 32.927 | 2 |
| 2025-06-18T20:56:00 | 53.701613 | 6.433451 | 2.0 | 16.435 | 2 | 42.141 | 16.603 | 32.925 | 2 |
| 2025-06-18T20:57:00 | 53.701651 | 6.433645 | 2.0 | 16.442 | 2 | 42.138 | 16.600 | 32.925 | 2 |
| 2025-06-18T20:58:00 | 53.701690 | 6.433822 | 2.0 | 16.446 | 2 | 42.139 | 16.605 | 32.922 | 2 |
| 2025-06-18T20:59:00 | 53.701716 | 6.434010 | 2.0 | 16.450 | 2 | 42.139 | 16.609 | 32.919 | 2 |
| 2025-06-18T21:00:00 | 53.701742 | 6.434213 | 2.0 | 16.449 | 2 | 42.142 | 16.612 | 32.919 | 2 |
| 2025-06-18T21:01:00 | 53.701762 | 6.434435 | 2.0 | 16.449 | 2 | 42.136 | 16.610 | 32.915 | 2 |
| 2025-06-18T21:02:00 | 53.701800 | 6.434631 | 2.0 | 16.453 | 2 | 42.138 | 16.612 | 32.915 | 2 |
| 2025-06-18T21:03:00 | 53.701838 | 6.434814 | 2.0 | 16.451 | 2 | 42.140 | 16.615 | 32.915 | 2 |
| 2025-06-18T21:04:00 | 53.701867 | 6.435021 | 2.0 | 16.448 | 2 | 42.139 | 16.614 | 32.914 | 2 |
| 2025-06-18T21:05:00 | 53.701888 | 6.435259 | 2.0 | 16.451 | 2 | 42.136 | 16.611 | 32.914 | 2 |
| 2025-06-18T21:06:00 | 53.701924 | 6.435466 | 2.0 | 16.453 | 2 | 42.138 | 16.614 | 32.914 | 2 |
| 2025-06-18T21:07:00 | 53.701949 | 6.435667 | 2.0 | 16.456 | 2 | 42.139 | 16.618 | 32.911 | 2 |
| 2025-06-18T21:08:00 | 53.701970 | 6.435847 | 2.0 | 16.455 | 2 | 42.137 | 16.616 | 32.911 | 2 |
| 2025-06-18T21:09:00 | 53.701994 | 6.436019 | 2.0 | 16.459 | 2 | 42.139 | 16.619 | 32.910 | 2 |
| 2025-06-18T21:10:00 | 53.701997 | 6.436196 | 2.0 | 16.455 | 2 | 42.138 | 16.619 | 32.910 | 2 |
| 2025-06-18T21:11:00 | 53.701991 | 6.436375 | 2.0 | 16.456 | 2 | 42.137 | 16.617 | 32.910 | 2 |
| 2025-06-18T21:12:00 | 53.701996 | 6.436562 | 2.0 | 16.456 | 2 | 42.138 | 16.618 | 32.910 | 2 |
| 2025-06-18T21:13:00 | 53.702009 | 6.436744 | 2.0 | 16.455 | 2 | 42.137 | 16.619 | 32.909 | 2 |
| 2025-06-18T21:14:00 | 53.702011 | 6.436956 | 2.0 | 16.454 | 2 | 42.134 | 16.617 | 32.908 | 2 |
| 2025-06-18T21:15:00 | 53.702027 | 6.437162 | 2.0 | 16.452 | 2 | 42.135 | 16.615 | 32.910 | 2 |
| 2025-06-18T21:16:00 | 53.702049 | 6.437355 | 2.0 | 16.453 | 2 | 42.135 | 16.616 | 32.909 | 2 |
| 2025-06-18T21:17:00 | 53.702069 | 6.437554 | 2.0 | 16.453 | 2 | 42.134 | 16.615 | 32.909 | 2 |
| 2025-06-18T21:18:00 | 53.702072 | 6.437765 | 2.0 | 16.450 | 2 | 42.133 | 16.615 | 32.908 | 2 |
| 2025-06-18T21:19:00 | 53.702067 | 6.438002 | 2.0 | 16.448 | 2 | 42.132 | 16.613 | 32.909 | 2 |
| 2025-06-18T21:20:00 | 53.702093 | 6.438230 | 2.0 | 16.443 | 2 | 42.128 | 16.610 | 32.908 | 2 |
| 2025-06-18T21:21:00 | 53.702117 | 6.438482 | 2.0 | 16.441 | 2 | 42.123 | 16.605 | 32.908 | 2 |
| 2025-06-18T21:22:00 | 53.702152 | 6.438739 | 2.0 | 16.443 | 2 | 42.120 | 16.604 | 32.906 | 2 |
| 2025-06-18T21:23:00 | 53.702191 | 6.438983 | 2.0 | 16.440 | 2 | 42.119 | 16.604 | 32.905 | 2 |
| 2025-06-18T21:24:00 | 53.702230 | 6.439250 | 2.0 | 16.445 | 2 | 42.117 | 16.604 | 32.904 | 2 |
| 2025-06-18T21:25:00 | 53.702269 | 6.439526 | 2.0 | 16.443 | 2 | 42.118 | 16.608 | 32.901 | 2 |
| 2025-06-18T21:26:00 | 53.702316 | 6.439802 | 2.0 | 16.437 | 2 | 42.117 | 16.605 | 32.903 | 2 |
| 2025-06-18T21:27:00 | 53.702355 | 6.440094 | 2.0 | 16.439 | 2 | 42.111 | 16.599 | 32.902 | 2 |
| 2025-06-18T21:28:00 | 53.702398 | 6.440378 | 2.0 | 16.438 | 2 | 42.112 | 16.601 | 32.902 | 2 |
| 2025-06-18T21:29:00 | 53.702429 | 6.440647 | 2.0 | 16.436 | 2 | 42.112 | 16.602 | 32.901 | 2 |
| 2025-06-18T21:30:00 | 53.702445 | 6.440928 | 2.0 | 16.434 | 2 | 42.111 | 16.598 | 32.903 | 2 |
| 2025-06-18T21:31:00 | 53.702460 | 6.441221 | 2.0 | 16.431 | 2 | 42.110 | 16.596 | 32.904 | 2 |
| 2025-06-18T21:32:00 | 53.702486 | 6.441537 | 2.0 | 16.430 | 2 | 42.108 | 16.593 | 32.905 | 2 |
| 2025-06-18T21:33:00 | 53.702503 | 6.441863 | 2.0 | 16.430 | 2 | 42.108 | 16.592 | 32.906 | 2 |
| 2025-06-18T21:34:00 | 53.702527 | 6.442191 | 2.0 | 16.432 | 2 | 42.106 | 16.591 | 32.905 | 2 |
| 2025-06-18T21:35:00 | 53.702546 | 6.442517 | 2.0 | 16.433 | 2 | 42.109 | 16.594 | 32.905 | 2 |
| 2025-06-18T21:36:00 | 53.702556 | 6.442863 | 2.0 | 16.431 | 2 | 42.109 | 16.595 | 32.904 | 2 |
| 2025-06-18T21:37:00 | 53.702585 | 6.443200 | 2.0 | 16.432 | 2 | 42.109 | 16.594 | 32.905 | 2 |
| 2025-06-18T21:38:00 | 53.702607 | 6.443545 | 2.0 | 16.428 | 2 | 42.108 | 16.593 | 32.905 | 2 |
| 2025-06-18T21:39:00 | 53.702625 | 6.443912 | 2.0 | 16.431 | 2 | 42.104 | 16.590 | 32.904 | 2 |
| 2025-06-18T21:40:00 | 53.702650 | 6.444291 | 2.0 | 16.430 | 2 | 42.107 | 16.593 | 32.904 | 2 |
| 2025-06-18T21:41:00 | 53.702677 | 6.444654 | 2.0 | 16.426 | 2 | 42.104 | 16.592 | 32.902 | 2 |
| 2025-06-18T21:42:00 | 53.702686 | 6.445059 | 2.0 | 16.429 | 2 | 42.103 | 16.589 | 32.904 | 2 |
| 2025-06-18T21:43:00 | 53.702693 | 6.445469 | 2.0 | 16.431 | 2 | 42.105 | 16.592 | 32.903 | 2 |
| 2025-06-18T21:44:00 | 53.702705 | 6.445858 | 2.0 | 16.432 | 2 | 42.105 | 16.593 | 32.902 | 2 |
| 2025-06-18T21:45:00 | 53.702719 | 6.446249 | 2.0 | 16.432 | 2 | 42.106 | 16.595 | 32.901 | 2 |
| 2025-06-18T21:46:00 | 53.702720 | 6.446648 | 2.0 | 16.430 | 2 | 42.106 | 16.593 | 32.903 | 2 |
| 2025-06-18T21:47:00 | 53.702716 | 6.447095 | 2.0 | 16.436 | 2 | 42.108 | 16.595 | 32.903 | 2 |
| 2025-06-18T21:48:00 | 53.702732 | 6.447526 | 2.0 | 16.439 | 2 | 42.110 | 16.598 | 32.902 | 2 |
| 2025-06-18T21:49:00 | 53.702739 | 6.447952 | 2.0 | 16.433 | 2 | 42.111 | 16.599 | 32.902 | 2 |
| 2025-06-18T21:50:00 | 53.702752 | 6.448378 | 2.0 | 16.434 | 2 | 42.109 | 16.596 | 32.903 | 2 |
| 2025-06-18T21:51:00 | 53.702765 | 6.448818 | 2.0 | 16.435 | 2 | 42.108 | 16.596 | 32.902 | 2 |
| 2025-06-18T21:52:00 | 53.702796 | 6.449186 | 2.0 | 16.429 | 2 | 42.109 | 16.596 | 32.903 | 2 |
| 2025-06-18T21:53:00 | 53.702840 | 6.449504 | 2.0 | 16.426 | 2 | 42.104 | 16.591 | 32.903 | 2 |
| 2025-06-18T21:54:00 | 53.702904 | 6.449776 | 2.0 | 16.428 | 2 | 42.102 | 16.590 | 32.902 | 2 |
| 2025-06-18T21:55:00 | 53.702994 | 6.450036 | 2.0 | 16.427 | 2 | 42.104 | 16.591 | 32.903 | 2 |
| 2025-06-18T21:56:00 | 53.703106 | 6.450241 | 2.0 | 16.428 | 2 | 42.104 | 16.589 | 32.905 | 2 |
| 2025-06-18T21:57:00 | 53.703230 | 6.450430 | 2.0 | 16.424 | 2 | 42.104 | 16.588 | 32.905 | 2 |
| 2025-06-18T21:58:00 | 53.703369 | 6.450581 | 2.0 | 16.429 | 2 | 42.106 | 16.588 | 32.907 | 2 |
| 2025-06-18T21:59:00 | 53.703517 | 6.450688 | 2.0 | 16.421 | 2 | 42.108 | 16.590 | 32.907 | 2 |
| 2025-06-18T22:00:00 | 53.703674 | 6.450721 | 2.0 | 16.421 | 2 | 42.103 | 16.582 | 32.909 | 2 |
| 2025-06-18T22:01:00 | 53.703821 | 6.450657 | 2.0 | 16.423 | 2 | 42.103 | 16.583 | 32.909 | 2 |
| 2025-06-18T22:02:00 | 53.703929 | 6.450456 | 2.0 | 16.426 | 2 | 42.107 | 16.586 | 32.910 | 2 |
| 2025-06-18T22:03:00 | 53.704006 | 6.450158 | 2.0 | 16.419 | 2 | 42.107 | 16.586 | 32.910 | 2 |
| 2025-06-18T22:04:00 | 53.704058 | 6.449774 | 2.0 | 16.420 | 2 | 42.105 | 16.581 | 32.912 | 2 |
| 2025-06-18T22:05:00 | 53.704090 | 6.449326 | 2.0 | 16.416 | 2 | 42.107 | 16.581 | 32.914 | 2 |
| 2025-06-18T22:06:00 | 53.704136 | 6.448848 | 2.0 | 16.414 | 2 | 42.106 | 16.578 | 32.915 | 2 |
| 2025-06-18T22:07:00 | 53.704192 | 6.448338 | 2.0 | 16.418 | 2 | 42.106 | 16.578 | 32.915 | 2 |
| 2025-06-18T22:08:00 | 53.704245 | 6.447793 | 2.0 | 16.414 | 2 | 42.109 | 16.579 | 32.917 | 2 |
| 2025-06-18T22:09:00 | 53.704307 | 6.447274 | 2.0 | 16.410 | 2 | 42.106 | 16.575 | 32.918 | 2 |
| 2025-06-18T22:10:00 | 53.704329 | 6.446768 | 2.0 | 16.409 | 2 | 42.105 | 16.573 | 32.919 | 2 |
| 2025-06-18T22:11:00 | 53.704375 | 6.446339 | 2.0 | 16.411 | 2 | 42.105 | 16.573 | 32.919 | 2 |
| 2025-06-18T22:12:00 | 53.704421 | 6.445972 | 2.0 | 16.410 | 2 | 42.107 | 16.573 | 32.920 | 2 |
| 2025-06-18T22:13:00 | 53.704413 | 6.445605 | 2.0 | 16.411 | 2 | 42.106 | 16.572 | 32.920 | 2 |
| 2025-06-18T22:14:00 | 53.704401 | 6.445271 | 2.0 | 16.411 | 2 | 42.107 | 16.574 | 32.919 | 2 |
| 2025-06-18T22:15:00 | 53.704398 | 6.444972 | 2.0 | 16.411 | 2 | 42.107 | 16.573 | 32.920 | 2 |
| 2025-06-18T22:16:00 | 53.704380 | 6.444672 | 2.0 | 16.404 | 2 | 42.108 | 16.573 | 32.921 | 2 |
| 2025-06-18T22:17:00 | 53.704357 | 6.444396 | 2.0 | 16.400 | 2 | 42.103 | 16.566 | 32.923 | 2 |
| 2025-06-18T22:18:00 | 53.704346 | 6.444156 | 2.0 | 16.403 | 2 | 42.102 | 16.565 | 32.923 | 2 |
| 2025-06-18T22:19:00 | 53.704326 | 6.443919 | 2.0 | 16.398 | 2 | 42.102 | 16.564 | 32.923 | 2 |
| 2025-06-18T22:20:00 | 53.704316 | 6.443701 | 2.0 | 16.402 | 2 | 42.100 | 16.562 | 32.923 | 2 |
| 2025-06-18T22:21:00 | 53.704276 | 6.443495 | 2.0 | 16.404 | 2 | 42.104 | 16.566 | 32.923 | 2 |
| 2025-06-18T22:22:00 | 53.704186 | 6.443303 | 2.0 | 16.403 | 2 | 42.104 | 16.565 | 32.924 | 2 |
| 2025-06-18T22:23:00 | 53.704095 | 6.443152 | 2.0 | 16.408 | 2 | 42.104 | 16.565 | 32.924 | 2 |
| 2025-06-18T22:24:00 | 53.704046 | 6.443004 | 2.0 | 16.401 | 2 | 42.106 | 16.568 | 32.924 | 2 |
| 2025-06-18T22:25:00 | 53.704011 | 6.442811 | 2.0 | 16.404 | 2 | 42.101 | 16.564 | 32.922 | 2 |
| 2025-06-18T22:26:00 | 53.703962 | 6.442575 | 2.0 | 16.400 | 2 | 42.104 | 16.566 | 32.923 | 2 |
| 2025-06-18T22:27:00 | 53.703938 | 6.442327 | 2.0 | 16.398 | 2 | 42.101 | 16.563 | 32.923 | 2 |
| 2025-06-18T22:28:00 | 53.703936 | 6.442052 | 2.0 | 16.399 | 2 | 42.098 | 16.558 | 32.925 | 2 |
| 2025-06-18T22:29:00 | 53.703938 | 6.441778 | 2.0 | 16.398 | 2 | 42.102 | 16.561 | 32.926 | 2 |
| 2025-06-18T22:30:00 | 53.703927 | 6.441487 | 2.0 | 16.402 | 2 | 42.101 | 16.560 | 32.926 | 2 |
| 2025-06-18T22:31:00 | 53.703930 | 6.441200 | 2.0 | 16.396 | 2 | 42.105 | 16.563 | 32.927 | 2 |
| 2025-06-18T22:32:00 | 53.703940 | 6.440930 | 2.0 | 16.397 | 2 | 42.104 | 16.560 | 32.928 | 2 |
| 2025-06-18T22:33:00 | 53.703944 | 6.440672 | 2.0 | 16.400 | 2 | 42.103 | 16.559 | 32.928 | 2 |
| 2025-06-18T22:34:00 | 53.703959 | 6.440412 | 2.0 | 16.397 | 2 | 42.106 | 16.561 | 32.929 | 2 |
| 2025-06-18T22:35:00 | 53.703984 | 6.440148 | 2.0 | 16.405 | 2 | 42.107 | 16.561 | 32.930 | 2 |
| 2025-06-18T22:36:00 | 53.704021 | 6.439874 | 2.0 | 16.398 | 2 | 42.112 | 16.565 | 32.931 | 2 |
| 2025-06-18T22:37:00 | 53.704064 | 6.439596 | 2.0 | 16.400 | 2 | 42.107 | 16.559 | 32.932 | 2 |
| 2025-06-18T22:38:00 | 53.704105 | 6.439324 | 2.0 | 16.394 | 2 | 42.109 | 16.560 | 32.933 | 2 |
| 2025-06-18T22:39:00 | 53.704138 | 6.439043 | 2.0 | 16.400 | 2 | 42.106 | 16.558 | 32.932 | 2 |
| 2025-06-18T22:40:00 | 53.704182 | 6.438773 | 2.0 | 16.400 | 2 | 42.111 | 16.561 | 32.934 | 2 |
| 2025-06-18T22:41:00 | 53.704203 | 6.438490 | 2.0 | 16.400 | 2 | 42.114 | 16.563 | 32.935 | 2 |
| 2025-06-18T22:42:00 | 53.704213 | 6.438226 | 2.0 | 16.397 | 2 | 42.113 | 16.560 | 32.936 | 2 |
| 2025-06-18T22:43:00 | 53.704239 | 6.437977 | 2.0 | 16.400 | 2 | 42.112 | 16.559 | 32.936 | 2 |
| 2025-06-18T22:44:00 | 53.704272 | 6.437730 | 2.0 | 16.399 | 2 | 42.116 | 16.562 | 32.937 | 2 |
| 2025-06-18T22:45:00 | 53.704329 | 6.437499 | 2.0 | 16.395 | 2 | 42.115 | 16.560 | 32.938 | 2 |
| 2025-06-18T22:46:00 | 53.704375 | 6.437259 | 2.0 | 16.395 | 2 | 42.111 | 16.556 | 32.938 | 2 |
| 2025-06-18T22:47:00 | 53.704444 | 6.437044 | 2.0 | 16.392 | 2 | 42.114 | 16.557 | 32.940 | 2 |
| 2025-06-18T22:48:00 | 53.704490 | 6.436816 | 2.0 | 16.392 | 2 | 42.112 | 16.554 | 32.940 | 2 |
| 2025-06-18T22:49:00 | 53.704570 | 6.436605 | 2.0 | 16.390 | 2 | 42.112 | 16.553 | 32.941 | 2 |
| 2025-06-18T22:50:00 | 53.704637 | 6.436384 | 2.0 | 16.385 | 2 | 42.112 | 16.553 | 32.941 | 2 |
| 2025-06-18T22:51:00 | 53.704699 | 6.436141 | 2.0 | 16.385 | 2 | 42.108 | 16.548 | 32.942 | 2 |
| 2025-06-18T22:52:00 | 53.704780 | 6.435926 | 2.0 | 16.388 | 2 | 42.109 | 16.548 | 32.943 | 2 |
| 2025-06-18T22:53:00 | 53.704832 | 6.435695 | 2.0 | 16.390 | 2 | 42.111 | 16.550 | 32.943 | 2 |
| 2025-06-18T22:54:00 | 53.704903 | 6.435487 | 2.0 | 16.392 | 2 | 42.113 | 16.551 | 32.944 | 2 |
| 2025-06-18T22:55:00 | 53.704942 | 6.435265 | 2.0 | 16.387 | 2 | 42.115 | 16.553 | 32.944 | 2 |
| 2025-06-18T22:56:00 | 53.705007 | 6.435076 | 2.0 | 16.392 | 2 | 42.113 | 16.550 | 32.944 | 2 |
| 2025-06-18T22:57:00 | 53.705074 | 6.434906 | 2.0 | 16.389 | 2 | 42.116 | 16.554 | 32.944 | 2 |
| 2025-06-18T22:58:00 | 53.705100 | 6.434817 | 2.0 | 16.391 | 2 | 42.115 | 16.551 | 32.945 | 2 |
| 2025-06-18T22:59:00 | 53.705103 | 6.434851 | 2.0 | 16.390 | 2 | 42.118 | 16.554 | 32.946 | 2 |
| 2025-06-18T23:00:00 | 53.705071 | 6.435007 | 2.0 | 16.390 | 2 | 42.116 | 16.552 | 32.945 | 2 |
| 2025-06-18T23:01:00 | 53.705002 | 6.435271 | 2.0 | 16.389 | 2 | 42.117 | 16.552 | 32.946 | 2 |
| 2025-06-18T23:02:00 | 53.704894 | 6.435611 | 2.0 | 16.389 | 2 | 42.114 | 16.552 | 32.944 | 2 |
| 2025-06-18T23:03:00 | 53.704742 | 6.436011 | 2.0 | 16.385 | 2 | 42.113 | 16.550 | 32.944 | 2 |
| 2025-06-18T23:04:00 | 53.704565 | 6.436422 | 2.0 | 16.385 | 2 | 42.111 | 16.547 | 32.945 | 2 |
| 2025-06-18T23:05:00 | 53.704359 | 6.436830 | 2.0 | 16.385 | 2 | 42.111 | 16.548 | 32.944 | 2 |
| 2025-06-18T23:06:00 | 53.704133 | 6.437234 | 2.0 | 16.385 | 2 | 42.111 | 16.547 | 32.945 | 2 |
| 2025-06-18T23:07:00 | 53.703906 | 6.437643 | 2.0 | 16.385 | 2 | 42.111 | 16.547 | 32.945 | 2 |
| 2025-06-18T23:08:00 | 53.703674 | 6.438053 | 2.0 | 16.382 | 2 | 42.110 | 16.546 | 32.945 | 2 |
| 2025-06-18T23:09:00 | 53.703438 | 6.438457 | 2.0 | 16.385 | 2 | 42.108 | 16.545 | 32.944 | 2 |
| 2025-06-18T23:10:00 | 53.703199 | 6.438834 | 2.0 | 16.384 | 2 | 42.109 | 16.546 | 32.944 | 2 |
| 2025-06-18T23:11:00 | 53.702974 | 6.439180 | 2.0 | 16.387 | 2 | 42.109 | 16.547 | 32.943 | 2 |
| 2025-06-18T23:12:00 | 53.702768 | 6.439493 | 2.0 | 16.386 | 2 | 42.110 | 16.548 | 32.943 | 2 |
| 2025-06-18T23:13:00 | 53.702586 | 6.439768 | 2.0 | 16.387 | 2 | 42.109 | 16.548 | 32.943 | 2 |
| 2025-06-18T23:14:00 | 53.702436 | 6.439999 | 2.0 | 16.388 | 2 | 42.110 | 16.549 | 32.943 | 2 |
| 2025-06-18T23:15:00 | 53.702333 | 6.440188 | 2.0 | 16.389 | 2 | 42.111 | 16.550 | 32.943 | 2 |
| 2025-06-18T23:16:00 | 53.702291 | 6.440332 | 2.0 | 16.390 | 2 | 42.112 | 16.551 | 32.943 | 2 |
| 2025-06-18T23:17:00 | 53.702308 | 6.440439 | 2.0 | 16.390 | 2 | 42.110 | 16.552 | 32.940 | 2 |
| 2025-06-18T23:18:00 | 53.702385 | 6.440508 | 2.0 | 16.395 | 2 | 42.111 | 16.552 | 32.941 | 2 |
| 2025-06-18T23:19:00 | 53.702476 | 6.440520 | 2.0 | 16.390 | 2 | 42.115 | 16.555 | 32.942 | 2 |
| 2025-06-18T23:20:00 | 53.702617 | 6.440542 | 2.0 | 16.388 | 2 | 42.111 | 16.550 | 32.943 | 2 |
| 2025-06-18T23:21:00 | 53.702749 | 6.440564 | 2.0 | 16.389 | 2 | 42.111 | 16.551 | 32.942 | 2 |
| 2025-06-18T23:22:00 | 53.702835 | 6.440552 | 2.0 | 16.387 | 2 | 42.108 | 16.549 | 32.941 | 2 |
| 2025-06-18T23:23:00 | 53.702922 | 6.440560 | 2.0 | 16.389 | 2 | 42.109 | 16.550 | 32.941 | 2 |
| 2025-06-18T23:24:00 | 53.702995 | 6.440567 | 2.0 | 16.386 | 2 | 42.111 | 16.550 | 32.943 | 2 |
| 2025-06-18T23:25:00 | 53.703057 | 6.440570 | 2.0 | 16.387 | 2 | 42.110 | 16.548 | 32.943 | 2 |
| 2025-06-18T23:26:00 | 53.703144 | 6.440596 | 2.0 | 16.384 | 2 | 42.112 | 16.548 | 32.945 | 2 |
| 2025-06-18T23:27:00 | 53.703224 | 6.440621 | 2.0 | 16.381 | 2 | 42.109 | 16.545 | 32.945 | 2 |
| 2025-06-18T23:28:00 | 53.703302 | 6.440659 | 2.0 | 16.378 | 2 | 42.106 | 16.543 | 32.944 | 2 |
| 2025-06-18T23:29:00 | 53.703391 | 6.440718 | 2.0 | 16.383 | 2 | 42.104 | 16.541 | 32.944 | 2 |
| 2025-06-18T23:30:00 | 53.703463 | 6.440756 | 2.0 | 16.383 | 2 | 42.106 | 16.543 | 32.944 | 2 |
| 2025-06-18T23:31:00 | 53.703546 | 6.440806 | 2.0 | 16.386 | 2 | 42.109 | 16.546 | 32.944 | 2 |
| 2025-06-18T23:32:00 | 53.703628 | 6.440843 | 2.0 | 16.386 | 2 | 42.110 | 16.547 | 32.944 | 2 |
| 2025-06-18T23:33:00 | 53.703698 | 6.440847 | 2.0 | 16.383 | 2 | 42.109 | 16.546 | 32.944 | 2 |
| 2025-06-18T23:34:00 | 53.703774 | 6.440855 | 2.0 | 16.376 | 2 | 42.106 | 16.543 | 32.944 | 2 |
| 2025-06-18T23:35:00 | 53.703835 | 6.440832 | 2.0 | 16.381 | 2 | 42.103 | 16.539 | 32.945 | 2 |
| 2025-06-18T23:36:00 | 53.703896 | 6.440825 | 2.0 | 16.385 | 2 | 42.105 | 16.543 | 32.943 | 2 |
| 2025-06-18T23:37:00 | 53.703950 | 6.440826 | 2.0 | 16.387 | 2 | 42.108 | 16.547 | 32.943 | 2 |
| 2025-06-18T23:38:00 | 53.704017 | 6.440833 | 2.0 | 16.383 | 2 | 42.109 | 16.548 | 32.943 | 2 |
| 2025-06-18T23:39:00 | 53.704077 | 6.440869 | 2.0 | 16.388 | 2 | 42.108 | 16.546 | 32.943 | 2 |
| 2025-06-18T23:40:00 | 53.704103 | 6.440899 | 2.0 | 16.389 | 2 | 42.113 | 16.550 | 32.944 | 2 |
| 2025-06-18T23:41:00 | 53.704156 | 6.440957 | 2.0 | 16.391 | 2 | 42.115 | 16.551 | 32.945 | 2 |
| 2025-06-18T23:42:00 | 53.704208 | 6.440997 | 2.0 | 16.390 | 2 | 42.116 | 16.552 | 32.945 | 2 |
| 2025-06-18T23:43:00 | 53.704269 | 6.441049 | 2.0 | 16.395 | 2 | 42.115 | 16.552 | 32.945 | 2 |
| 2025-06-18T23:44:00 | 53.704329 | 6.441111 | 2.0 | 16.394 | 2 | 42.118 | 16.556 | 32.944 | 2 |
| 2025-06-18T23:45:00 | 53.704367 | 6.441165 | 2.0 | 16.393 | 2 | 42.119 | 16.556 | 32.945 | 2 |
| 2025-06-18T23:46:00 | 53.704415 | 6.441228 | 2.0 | 16.390 | 2 | 42.118 | 16.554 | 32.946 | 2 |
| 2025-06-18T23:47:00 | 53.704463 | 6.441273 | 2.0 | 16.393 | 2 | 42.119 | 16.553 | 32.947 | 2 |
| 2025-06-18T23:48:00 | 53.704523 | 6.441319 | 2.0 | 16.392 | 2 | 42.120 | 16.553 | 32.948 | 2 |
| 2025-06-18T23:49:00 | 53.704600 | 6.441387 | 2.0 | 16.388 | 2 | 42.121 | 16.553 | 32.949 | 2 |
| 2025-06-18T23:50:00 | 53.704676 | 6.441451 | 2.0 | 16.388 | 2 | 42.121 | 16.550 | 32.951 | 2 |
| 2025-06-18T23:51:00 | 53.704746 | 6.441507 | 2.0 | 16.392 | 2 | 42.122 | 16.551 | 32.952 | 2 |
| 2025-06-18T23:52:00 | 53.704827 | 6.441570 | 2.0 | 16.394 | 2 | 42.125 | 16.554 | 32.952 | 2 |
| 2025-06-18T23:53:00 | 53.704883 | 6.441624 | 2.0 | 16.388 | 2 | 42.127 | 16.555 | 32.953 | 2 |
| 2025-06-18T23:54:00 | 53.704961 | 6.441702 | 2.0 | 16.389 | 2 | 42.127 | 16.550 | 32.957 | 2 |
| 2025-06-18T23:55:00 | 53.705021 | 6.441774 | 2.0 | 16.389 | 2 | 42.128 | 16.550 | 32.958 | 2 |
| 2025-06-18T23:56:00 | 53.705099 | 6.441854 | 2.0 | 16.390 | 2 | 42.132 | 16.550 | 32.961 | 2 |
| 2025-06-18T23:57:00 | 53.705182 | 6.441931 | 2.0 | 16.397 | 2 | 42.138 | 16.554 | 32.963 | 2 |
| 2025-06-18T23:58:00 | 53.705240 | 6.441992 | 2.0 | 16.398 | 2 | 42.141 | 16.558 | 32.962 | 2 |
| 2025-06-18T23:59:00 | 53.705320 | 6.442087 | 2.0 | 16.398 | 2 | 42.142 | 16.560 | 32.962 | 2 |
| 2025-06-19T00:00:00 | 53.705377 | 6.442161 | 2.0 | 16.396 | 2 | 42.141 | 16.559 | 32.962 | 2 |
| 2025-06-19T00:01:00 | 53.705432 | 6.442237 | 2.0 | 16.390 | 2 | 42.144 | 16.556 | 32.967 | 2 |
| 2025-06-19T00:02:00 | 53.705514 | 6.442341 | 2.0 | 16.395 | 2 | 42.146 | 16.553 | 32.971 | 2 |
| 2025-06-19T00:03:00 | 53.705565 | 6.442425 | 2.0 | 16.395 | 2 | 42.149 | 16.556 | 32.971 | 2 |
| 2025-06-19T00:04:00 | 53.705605 | 6.442515 | 2.0 | 16.388 | 2 | 42.148 | 16.556 | 32.970 | 2 |
| 2025-06-19T00:05:00 | 53.705647 | 6.442625 | 2.0 | 16.382 | 2 | 42.146 | 16.549 | 32.974 | 2 |
| 2025-06-19T00:06:00 | 53.705705 | 6.442744 | 2.0 | 16.385 | 2 | 42.146 | 16.547 | 32.976 | 2 |
| 2025-06-19T00:07:00 | 53.705759 | 6.442836 | 2.0 | 16.388 | 2 | 42.147 | 16.547 | 32.977 | 2 |
| 2025-06-19T00:08:00 | 53.705838 | 6.442955 | 2.0 | 16.388 | 2 | 42.149 | 16.550 | 32.976 | 2 |
| 2025-06-19T00:09:00 | 53.705908 | 6.443073 | 2.0 | 16.389 | 2 | 42.150 | 16.550 | 32.977 | 2 |
| 2025-06-19T00:10:00 | 53.705946 | 6.443196 | 2.0 | 16.389 | 2 | 42.151 | 16.551 | 32.977 | 2 |
| 2025-06-19T00:11:00 | 53.705998 | 6.443355 | 2.0 | 16.391 | 2 | 42.150 | 16.550 | 32.977 | 2 |
| 2025-06-19T00:12:00 | 53.706039 | 6.443498 | 2.0 | 16.389 | 2 | 42.154 | 16.553 | 32.978 | 2 |
| 2025-06-19T00:13:00 | 53.706057 | 6.443613 | 2.0 | 16.388 | 2 | 42.156 | 16.551 | 32.981 | 2 |
| 2025-06-19T00:14:00 | 53.706087 | 6.443734 | 2.0 | 16.389 | 2 | 42.154 | 16.550 | 32.980 | 2 |
| 2025-06-19T00:15:00 | 53.706118 | 6.443846 | 2.0 | 16.387 | 2 | 42.155 | 16.550 | 32.981 | 2 |
| 2025-06-19T00:16:00 | 53.706150 | 6.443955 | 2.0 | 16.385 | 2 | 42.155 | 16.548 | 32.983 | 2 |
| 2025-06-19T00:17:00 | 53.706188 | 6.444078 | 2.0 | 16.386 | 2 | 42.154 | 16.547 | 32.983 | 2 |
| 2025-06-19T00:18:00 | 53.706237 | 6.444204 | 2.0 | 16.389 | 2 | 42.155 | 16.548 | 32.983 | 2 |
| 2025-06-19T00:19:00 | 53.706260 | 6.444343 | 2.0 | 16.391 | 2 | 42.156 | 16.551 | 32.981 | 2 |
| 2025-06-19T00:20:00 | 53.706275 | 6.444498 | 2.0 | 16.389 | 2 | 42.158 | 16.551 | 32.983 | 2 |
| 2025-06-19T00:21:00 | 53.706296 | 6.444653 | 2.0 | 16.388 | 2 | 42.156 | 16.550 | 32.982 | 2 |
| 2025-06-19T00:22:00 | 53.706310 | 6.444791 | 2.0 | 16.392 | 2 | 42.157 | 16.550 | 32.983 | 2 |
| 2025-06-19T00:23:00 | 53.706299 | 6.444919 | 2.0 | 16.387 | 2 | 42.159 | 16.552 | 32.983 | 2 |
| 2025-06-19T00:24:00 | 53.706294 | 6.445067 | 2.0 | 16.383 | 2 | 42.156 | 16.548 | 32.984 | 2 |
| 2025-06-19T00:25:00 | 53.706285 | 6.445203 | 2.0 | 16.388 | 2 | 42.157 | 16.547 | 32.985 | 2 |
| 2025-06-19T00:26:00 | 53.706270 | 6.445346 | 2.0 | 16.388 | 2 | 42.158 | 16.549 | 32.985 | 2 |
| 2025-06-19T00:27:00 | 53.706245 | 6.445517 | 2.0 | 16.387 | 2 | 42.159 | 16.549 | 32.985 | 2 |
| 2025-06-19T00:28:00 | 53.706218 | 6.445711 | 2.0 | 16.386 | 2 | 42.161 | 16.549 | 32.987 | 2 |
| 2025-06-19T00:29:00 | 53.706183 | 6.445921 | 2.0 | 16.381 | 2 | 42.161 | 16.547 | 32.989 | 2 |
| 2025-06-19T00:30:00 | 53.706150 | 6.446159 | 2.0 | 16.376 | 2 | 42.160 | 16.541 | 32.993 | 2 |
| 2025-06-19T00:31:00 | 53.706153 | 6.446381 | 2.0 | 16.377 | 2 | 42.157 | 16.537 | 32.994 | 2 |
| 2025-06-19T00:32:00 | 53.706172 | 6.446529 | 2.0 | 16.383 | 2 | 42.158 | 16.540 | 32.992 | 2 |
| 2025-06-19T00:33:00 | 53.706187 | 6.446572 | 2.0 | 16.384 | 2 | 42.161 | 16.545 | 32.991 | 2 |
| 2025-06-19T00:34:00 | 53.706225 | 6.446566 | 2.0 | 16.382 | 2 | 42.162 | 16.545 | 32.991 | 2 |
| 2025-06-19T00:35:00 | 53.706276 | 6.446524 | 2.0 | 16.383 | 2 | 42.162 | 16.544 | 32.992 | 2 |
| 2025-06-19T00:36:00 | 53.706344 | 6.446473 | 2.0 | 16.387 | 2 | 42.164 | 16.545 | 32.993 | 2 |
| 2025-06-19T00:37:00 | 53.706391 | 6.446402 | 2.0 | 16.387 | 2 | 42.167 | 16.549 | 32.992 | 2 |
| 2025-06-19T00:38:00 | 53.706448 | 6.446349 | 2.0 | 16.390 | 2 | 42.168 | 16.550 | 32.993 | 2 |
| 2025-06-19T00:39:00 | 53.706501 | 6.446272 | 2.0 | 16.390 | 2 | 42.170 | 16.551 | 32.993 | 2 |
| 2025-06-19T00:40:00 | 53.706573 | 6.446185 | 2.0 | 16.391 | 2 | 42.171 | 16.552 | 32.994 | 2 |
| 2025-06-19T00:41:00 | 53.706658 | 6.446072 | 2.0 | 16.395 | 2 | 42.172 | 16.552 | 32.994 | 2 |
| 2025-06-19T00:42:00 | 53.706747 | 6.445934 | 2.0 | 16.397 | 2 | 42.175 | 16.556 | 32.994 | 2 |
| 2025-06-19T00:43:00 | 53.706831 | 6.445795 | 2.0 | 16.397 | 2 | 42.177 | 16.558 | 32.994 | 2 |
| 2025-06-19T00:44:00 | 53.706933 | 6.445670 | 2.0 | 16.402 | 2 | 42.176 | 16.559 | 32.992 | 2 |
| 2025-06-19T00:45:00 | 53.707024 | 6.445552 | 2.0 | 16.403 | 2 | 42.182 | 16.563 | 32.994 | 2 |
| 2025-06-19T00:46:00 | 53.707113 | 6.445450 | 2.0 | 16.404 | 2 | 42.182 | 16.564 | 32.993 | 2 |
| 2025-06-19T00:47:00 | 53.707211 | 6.445330 | 2.0 | 16.403 | 2 | 42.183 | 16.564 | 32.994 | 2 |
| 2025-06-19T00:48:00 | 53.707327 | 6.445192 | 2.0 | 16.406 | 2 | 42.184 | 16.566 | 32.993 | 2 |
| 2025-06-19T00:49:00 | 53.707434 | 6.445013 | 2.0 | 16.407 | 2 | 42.185 | 16.566 | 32.994 | 2 |
| 2025-06-19T00:50:00 | 53.707562 | 6.444847 | 2.0 | 16.410 | 2 | 42.188 | 16.569 | 32.994 | 2 |
| 2025-06-19T00:51:00 | 53.707685 | 6.444667 | 2.0 | 16.412 | 2 | 42.190 | 16.572 | 32.994 | 2 |
| 2025-06-19T00:52:00 | 53.707820 | 6.444491 | 2.0 | 16.415 | 2 | 42.190 | 16.573 | 32.993 | 2 |
| 2025-06-19T00:53:00 | 53.707953 | 6.444311 | 2.0 | 16.420 | 2 | 42.190 | 16.576 | 32.990 | 2 |
| 2025-06-19T00:54:00 | 53.708090 | 6.444122 | 2.0 | 16.427 | 2 | 42.190 | 16.582 | 32.985 | 2 |
| 2025-06-19T00:55:00 | 53.708240 | 6.443895 | 2.0 | 16.429 | 2 | 42.194 | 16.587 | 32.985 | 2 |
| 2025-06-19T00:56:00 | 53.708362 | 6.443577 | 2.0 | 16.431 | 2 | 42.195 | 16.589 | 32.984 | 2 |
| 2025-06-19T00:57:00 | 53.708481 | 6.443101 | 2.0 | 16.434 | 2 | 42.196 | 16.592 | 32.982 | 2 |
| 2025-06-19T00:58:00 | 53.708604 | 6.442507 | 2.0 | 16.434 | 2 | 42.197 | 16.594 | 32.982 | 2 |
| 2025-06-19T00:59:00 | 53.708729 | 6.441842 | 2.0 | 16.434 | 2 | 42.195 | 16.594 | 32.980 | 2 |
| 2025-06-19T01:00:00 | 53.708879 | 6.441066 | 2.0 | 16.437 | 2 | 42.194 | 16.594 | 32.979 | 2 |
| 2025-06-19T01:01:00 | 53.709080 | 6.440004 | 2.0 | 16.438 | 2 | 42.193 | 16.596 | 32.976 | 2 |
| 2025-06-19T01:02:00 | 53.709372 | 6.438485 | 2.0 | 16.444 | 2 | 42.190 | 16.599 | 32.971 | 2 |
| 2025-06-19T01:03:00 | 53.709739 | 6.436538 | 2.0 | 16.448 | 2 | 42.191 | 16.604 | 32.968 | 2 |
| 2025-06-19T01:04:00 | 53.710147 | 6.434375 | 2.0 | 16.450 | 2 | 42.185 | 16.608 | 32.960 | 2 |
| 2025-06-19T01:05:00 | 53.710567 | 6.432129 | 2.0 | 16.457 | 2 | 42.178 | 16.612 | 32.950 | 2 |
| 2025-06-19T01:06:00 | 53.711084 | 6.429857 | 2.0 | 16.462 | 2 | 42.175 | 16.618 | 32.943 | 2 |
| 2025-06-19T01:07:00 | 53.711543 | 6.427520 | 2.0 | 16.465 | 2 | 42.172 | 16.622 | 32.937 | 2 |
| 2025-06-19T01:08:00 | 53.711968 | 6.425141 | 2.0 | 16.470 | 2 | 42.172 | 16.626 | 32.933 | 2 |
| 2025-06-19T01:09:00 | 53.712398 | 6.422738 | 2.0 | 16.478 | 2 | 42.171 | 16.632 | 32.928 | 2 |
| 2025-06-19T01:10:00 | 53.712861 | 6.420351 | 2.0 | 16.483 | 2 | 42.168 | 16.639 | 32.919 | 2 |
| 2025-06-19T01:11:00 | 53.713339 | 6.417958 | 2.0 | 16.493 | 2 | 42.166 | 16.646 | 32.912 | 2 |
| 2025-06-19T01:12:00 | 53.713824 | 6.415560 | 2.0 | 16.498 | 2 | 42.167 | 16.653 | 32.907 | 2 |
| 2025-06-19T01:13:00 | 53.714289 | 6.413149 | 2.0 | 16.499 | 2 | 42.166 | 16.657 | 32.903 | 2 |
| 2025-06-19T01:14:00 | 53.714740 | 6.410753 | 2.0 | 16.503 | 2 | 42.163 | 16.660 | 32.898 | 2 |
| 2025-06-19T01:15:00 | 53.715213 | 6.408387 | 2.0 | 16.502 | 2 | 42.162 | 16.662 | 32.895 | 2 |
| 2025-06-19T01:16:00 | 53.715665 | 6.406010 | 2.0 | 16.498 | 2 | 42.158 | 16.661 | 32.892 | 2 |
| 2025-06-19T01:17:00 | 53.716133 | 6.403616 | 2.0 | 16.495 | 2 | 42.152 | 16.658 | 32.890 | 2 |
| 2025-06-19T01:18:00 | 53.716620 | 6.401198 | 2.0 | 16.488 | 2 | 42.149 | 16.655 | 32.890 | 2 |
| 2025-06-19T01:19:00 | 53.717389 | 6.398955 | 2.0 | 16.489 | 2 | 42.143 | 16.650 | 32.888 | 2 |
| 2025-06-19T01:20:00 | 53.718520 | 6.397107 | 2.0 | 16.487 | 2 | 42.144 | 16.649 | 32.890 | 2 |
| 2025-06-19T01:21:00 | 53.719931 | 6.395699 | 2.0 | 16.484 | 2 | 42.146 | 16.649 | 32.892 | 2 |
| 2025-06-19T01:22:00 | 53.721432 | 6.394715 | 2.0 | 16.484 | 2 | 42.148 | 16.647 | 32.895 | 2 |
| 2025-06-19T01:23:00 | 53.722871 | 6.393801 | 2.0 | 16.480 | 2 | 42.147 | 16.643 | 32.898 | 2 |
| 2025-06-19T01:24:00 | 53.724265 | 6.392925 | 2.0 | 16.475 | 2 | 42.149 | 16.641 | 32.901 | 2 |
| 2025-06-19T01:25:00 | 53.725645 | 6.392053 | 2.0 | 16.470 | 2 | 42.148 | 16.636 | 32.904 | 2 |
| 2025-06-19T01:26:00 | 53.727015 | 6.391281 | 2.0 | 16.468 | 2 | 42.148 | 16.632 | 32.908 | 2 |
| 2025-06-19T01:27:00 | 53.728364 | 6.390477 | 2.0 | 16.461 | 2 | 42.147 | 16.627 | 32.911 | 2 |
| 2025-06-19T01:28:00 | 53.729710 | 6.389593 | 2.0 | 16.457 | 2 | 42.146 | 16.622 | 32.914 | 2 |
| 2025-06-19T01:29:00 | 53.731077 | 6.388759 | 2.0 | 16.451 | 2 | 42.146 | 16.617 | 32.918 | 2 |
| 2025-06-19T01:30:00 | 53.732446 | 6.387950 | 2.0 | 16.444 | 2 | 42.145 | 16.611 | 32.922 | 2 |
| 2025-06-19T01:31:00 | 53.733807 | 6.387085 | 2.0 | 16.437 | 2 | 42.142 | 16.604 | 32.925 | 2 |
| 2025-06-19T01:32:00 | 53.735171 | 6.386199 | 2.0 | 16.436 | 2 | 42.139 | 16.599 | 32.927 | 2 |
| 2025-06-19T01:33:00 | 53.736553 | 6.385377 | 2.0 | 16.424 | 2 | 42.138 | 16.594 | 32.930 | 2 |
| 2025-06-19T01:34:00 | 53.737934 | 6.384568 | 2.0 | 16.417 | 2 | 42.136 | 16.586 | 32.935 | 2 |
| 2025-06-19T01:35:00 | 53.739293 | 6.383778 | 2.0 | 16.397 | 2 | 42.133 | 16.575 | 32.941 | 2 |
| 2025-06-19T01:36:00 | 53.740724 | 6.383267 | 2.0 | 16.393 | 2 | 42.125 | 16.560 | 32.947 | 2 |
| 2025-06-19T01:37:00 | 53.742234 | 6.383122 | 2.0 | 16.376 | 2 | 42.123 | 16.551 | 32.952 | 2 |
| 2025-06-19T01:38:00 | 53.743743 | 6.382880 | 2.0 | 16.365 | 2 | 42.119 | 16.538 | 32.960 | 2 |
| 2025-06-19T01:39:00 | 53.745252 | 6.382630 | 2.0 | 16.346 | 2 | 42.114 | 16.525 | 32.966 | 2 |
| 2025-06-19T01:40:00 | 53.746763 | 6.382388 | 2.0 | 16.328 | 2 | 42.107 | 16.507 | 32.975 | 2 |
| 2025-06-19T01:41:00 | 53.748270 | 6.382156 | 2.0 | 16.315 | 2 | 42.100 | 16.489 | 32.983 | 2 |
| 2025-06-19T01:42:00 | 53.749781 | 6.381929 | 2.0 | 16.308 | 2 | 42.103 | 16.477 | 32.996 | 2 |
| 2025-06-19T01:43:00 | 53.751294 | 6.381707 | 2.0 | 16.286 | 2 | 42.104 | 16.466 | 33.006 | 2 |
| 2025-06-19T01:44:00 | 53.752796 | 6.381475 | 2.0 | 16.272 | 2 | 42.096 | 16.447 | 33.015 | 2 |
| 2025-06-19T01:45:00 | 53.754284 | 6.381256 | 2.0 | 16.258 | 2 | 42.090 | 16.433 | 33.021 | 2 |
| 2025-06-19T01:46:00 | 53.755770 | 6.381036 | 2.0 | 16.243 | 2 | 42.085 | 16.419 | 33.028 | 2 |
| 2025-06-19T01:47:00 | 53.757258 | 6.380839 | 2.0 | 16.231 | 2 | 42.079 | 16.404 | 33.035 | 2 |
| 2025-06-19T01:48:00 | 53.758736 | 6.380663 | 2.0 | 16.218 | 2 | 42.076 | 16.393 | 33.042 | 2 |
| 2025-06-19T01:49:00 | 53.760202 | 6.380439 | 2.0 | 16.208 | 2 | 42.072 | 16.381 | 33.048 | 2 |
| 2025-06-19T01:50:00 | 53.761631 | 6.380186 | 2.0 | 16.198 | 2 | 42.068 | 16.370 | 33.054 | 2 |
| 2025-06-19T01:51:00 | 53.763061 | 6.379968 | 2.0 | 16.185 | 2 | 42.066 | 16.361 | 33.060 | 2 |
| 2025-06-19T01:52:00 | 53.764504 | 6.379755 | 2.0 | 16.172 | 2 | 42.060 | 16.346 | 33.067 | 2 |
| 2025-06-19T01:53:00 | 53.765965 | 6.379522 | 2.0 | 16.156 | 2 | 42.053 | 16.334 | 33.071 | 2 |
| 2025-06-19T01:54:00 | 53.767421 | 6.379269 | 2.0 | 16.137 | 2 | 42.044 | 16.317 | 33.077 | 2 |
| 2025-06-19T01:55:00 | 53.768870 | 6.379058 | 2.0 | 16.126 | 2 | 42.034 | 16.300 | 33.082 | 2 |
| 2025-06-19T01:56:00 | 53.770321 | 6.378876 | 2.0 | 16.109 | 2 | 42.027 | 16.286 | 33.088 | 2 |
| 2025-06-19T01:57:00 | 53.771736 | 6.378712 | 2.0 | 16.101 | 2 | 42.025 | 16.274 | 33.096 | 2 |
| 2025-06-19T01:58:00 | 53.773139 | 6.378498 | 2.0 | 16.090 | 2 | 42.023 | 16.264 | 33.102 | 2 |
| 2025-06-19T01:59:00 | 53.774539 | 6.378252 | 2.0 | 16.083 | 2 | 42.014 | 16.252 | 33.104 | 2 |
| 2025-06-19T02:00:00 | 53.775959 | 6.377976 | 2.0 | 16.079 | 2 | 42.009 | 16.247 | 33.104 | 2 |
| 2025-06-19T02:01:00 | 53.777376 | 6.377774 | 2.0 | 16.071 | 2 | 42.005 | 16.240 | 33.106 | 2 |
| 2025-06-19T02:02:00 | 53.778776 | 6.377606 | 2.0 | 16.070 | 2 | 42.002 | 16.234 | 33.109 | 2 |
| 2025-06-19T02:03:00 | 53.780170 | 6.377399 | 2.0 | 16.072 | 2 | 42.005 | 16.231 | 33.114 | 2 |
| 2025-06-19T02:04:00 | 53.781566 | 6.377138 | 2.0 | 16.088 | 2 | 42.025 | 16.239 | 33.125 | 2 |
| 2025-06-19T02:05:00 | 53.782984 | 6.376906 | 2.0 | 16.097 | 2 | 42.051 | 16.252 | 33.137 | 2 |
| 2025-06-19T02:06:00 | 53.784419 | 6.376705 | 2.0 | 16.099 | 2 | 42.070 | 16.262 | 33.145 | 2 |
| 2025-06-19T02:07:00 | 53.785846 | 6.376514 | 2.0 | 16.105 | 2 | 42.078 | 16.264 | 33.151 | 2 |
| 2025-06-19T02:08:00 | 53.787285 | 6.376295 | 2.0 | 16.101 | 2 | 42.086 | 16.267 | 33.155 | 2 |
| 2025-06-19T02:09:00 | 53.788722 | 6.376055 | 2.0 | 16.097 | 2 | 42.086 | 16.263 | 33.159 | 2 |
| 2025-06-19T02:10:00 | 53.790163 | 6.375828 | 2.0 | 16.084 | 2 | 42.083 | 16.258 | 33.160 | 2 |
| 2025-06-19T02:11:00 | 53.791615 | 6.375615 | 2.0 | 16.070 | 2 | 42.075 | 16.246 | 33.163 | 2 |
| 2025-06-19T02:12:00 | 53.792949 | 6.375009 | 2.0 | 16.042 | 2 | 42.059 | 16.228 | 33.164 | 2 |
| 2025-06-19T02:13:00 | 53.794166 | 6.373968 | 2.0 | 16.023 | 2 | 42.036 | 16.205 | 33.163 | 2 |
| 2025-06-19T02:14:00 | 53.795427 | 6.373044 | 2.0 | 16.010 | 2 | 42.019 | 16.186 | 33.164 | 2 |
| 2025-06-19T02:15:00 | 53.796728 | 6.372133 | 2.0 | 15.997 | 2 | 42.008 | 16.170 | 33.167 | 2 |
| 2025-06-19T02:16:00 | 53.798022 | 6.371194 | 2.0 | 15.977 | 2 | 41.997 | 16.157 | 33.169 | 2 |
| 2025-06-19T02:17:00 | 53.799344 | 6.370190 | 2.0 | 15.990 | 2 | 41.988 | 16.143 | 33.172 | 2 |
| 2025-06-19T02:18:00 | 53.800745 | 6.369062 | 2.0 | 16.013 | 2 | 42.004 | 16.155 | 33.176 | 2 |
| 2025-06-19T02:19:00 | 53.802195 | 6.367939 | 2.0 | 16.023 | 2 | 42.042 | 16.177 | 33.192 | 2 |
| 2025-06-19T02:20:00 | 53.803658 | 6.366875 | 2.0 | 16.023 | 2 | 42.064 | 16.185 | 33.204 | 2 |
| 2025-06-19T02:21:00 | 53.805085 | 6.365779 | 2.0 | 16.014 | 2 | 42.073 | 16.185 | 33.212 | 2 |
| 2025-06-19T02:22:00 | 53.806531 | 6.364670 | 2.0 | 15.996 | 2 | 42.070 | 16.174 | 33.219 | 2 |
| 2025-06-19T02:23:00 | 53.807989 | 6.363569 | 2.0 | 15.978 | 2 | 42.060 | 16.158 | 33.223 | 2 |
| 2025-06-19T02:24:00 | 53.809480 | 6.362463 | 2.0 | 15.964 | 2 | 42.045 | 16.141 | 33.224 | 2 |
| 2025-06-19T02:25:00 | 53.810968 | 6.361372 | 2.0 | 15.954 | 2 | 42.033 | 16.127 | 33.225 | 2 |
| 2025-06-19T02:26:00 | 53.812467 | 6.360283 | 2.0 | 15.945 | 2 | 42.020 | 16.118 | 33.221 | 2 |
| 2025-06-19T02:27:00 | 53.813972 | 6.359148 | 2.0 | 15.920 | 2 | 42.008 | 16.104 | 33.223 | 2 |
| 2025-06-19T02:28:00 | 53.815449 | 6.358039 | 2.0 | 15.904 | 2 | 41.982 | 16.083 | 33.217 | 2 |
| 2025-06-19T02:29:00 | 53.816911 | 6.356926 | 2.0 | 15.890 | 2 | 41.968 | 16.068 | 33.217 | 2 |
| 2025-06-19T02:30:00 | 53.818366 | 6.355812 | 2.0 | 15.887 | 2 | 41.956 | 16.054 | 33.218 | 2 |
| 2025-06-19T02:31:00 | 53.819802 | 6.354706 | 2.0 | 15.885 | 2 | 41.953 | 16.052 | 33.217 | 2 |
| 2025-06-19T02:32:00 | 53.821265 | 6.353607 | 2.0 | 15.884 | 2 | 41.949 | 16.048 | 33.217 | 2 |
| 2025-06-19T02:33:00 | 53.822761 | 6.352569 | 2.0 | 15.871 | 2 | 41.937 | 16.046 | 33.208 | 2 |
| 2025-06-19T02:34:00 | 53.824221 | 6.351453 | 2.0 | 15.858 | 2 | 41.933 | 16.034 | 33.215 | 2 |
| 2025-06-19T02:35:00 | 53.825643 | 6.350332 | 2.0 | 15.858 | 2 | 41.940 | 16.022 | 33.231 | 2 |
| 2025-06-19T02:36:00 | 53.827021 | 6.349202 | 2.0 | 15.848 | 2 | 41.994 | 16.021 | 33.280 | 2 |
| 2025-06-19T02:37:00 | 53.828455 | 6.348128 | 2.0 | 15.829 | 2 | 41.992 | 16.007 | 33.290 | 2 |
| 2025-06-19T02:38:00 | 53.829884 | 6.347032 | 2.0 | 15.835 | 2 | 41.986 | 15.996 | 33.294 | 2 |
| 2025-06-19T02:39:00 | 53.831248 | 6.346041 | 2.0 | 15.836 | 2 | 41.992 | 15.998 | 33.297 | 2 |
| 2025-06-19T02:40:00 | 53.832586 | 6.345026 | 2.0 | 15.840 | 2 | 42.000 | 15.999 | 33.303 | 2 |
| 2025-06-19T02:41:00 | 53.833969 | 6.343913 | 2.0 | 15.849 | 2 | 42.013 | 16.005 | 33.310 | 2 |
| 2025-06-19T02:42:00 | 53.835417 | 6.342803 | 2.0 | 15.866 | 2 | 42.029 | 16.014 | 33.317 | 2 |
| 2025-06-19T02:43:00 | 53.836888 | 6.341741 | 2.0 | 15.874 | 2 | 42.050 | 16.029 | 33.323 | 2 |
| 2025-06-19T02:44:00 | 53.838342 | 6.340663 | 2.0 | 15.872 | 2 | 42.063 | 16.036 | 33.328 | 2 |
| 2025-06-19T02:45:00 | 53.839807 | 6.339553 | 2.0 | 15.862 | 2 | 42.068 | 16.033 | 33.335 | 2 |
| 2025-06-19T02:46:00 | 53.841272 | 6.338435 | 2.0 | 15.846 | 2 | 42.063 | 16.024 | 33.338 | 2 |
| 2025-06-19T02:47:00 | 53.842756 | 6.337353 | 2.0 | 15.827 | 2 | 42.050 | 16.006 | 33.342 | 2 |
| 2025-06-19T02:48:00 | 53.844217 | 6.336250 | 2.0 | 15.821 | 2 | 42.042 | 15.991 | 33.347 | 2 |
| 2025-06-19T02:49:00 | 53.845648 | 6.335136 | 2.0 | 15.818 | 2 | 42.042 | 15.985 | 33.352 | 2 |
| 2025-06-19T02:50:00 | 53.847071 | 6.334022 | 2.0 | 15.817 | 2 | 42.044 | 15.982 | 33.357 | 2 |
| 2025-06-19T02:51:00 | 53.848507 | 6.332910 | 2.0 | 15.821 | 2 | 42.047 | 15.982 | 33.359 | 2 |
| 2025-06-19T02:52:00 | 53.849982 | 6.331793 | 2.0 | 15.813 | 2 | 42.052 | 15.983 | 33.363 | 2 |
| 2025-06-19T02:53:00 | 53.851485 | 6.330710 | 2.0 | 15.806 | 2 | 42.047 | 15.976 | 33.364 | 2 |
| 2025-06-19T02:54:00 | 53.852966 | 6.329674 | 2.0 | 15.801 | 2 | 42.044 | 15.969 | 33.368 | 2 |
| 2025-06-19T02:55:00 | 53.854408 | 6.328602 | 2.0 | 15.797 | 2 | 42.045 | 15.963 | 33.374 | 2 |
| 2025-06-19T02:56:00 | 53.855841 | 6.327426 | 2.0 | 15.791 | 2 | 42.045 | 15.960 | 33.376 | 2 |
| 2025-06-19T02:57:00 | 53.857315 | 6.326281 | 2.0 | 15.770 | 2 | 42.044 | 15.953 | 33.381 | 2 |
| 2025-06-19T02:58:00 | 53.858799 | 6.325201 | 2.0 | 15.743 | 2 | 42.027 | 15.930 | 33.385 | 2 |
| 2025-06-19T02:59:00 | 53.860268 | 6.324120 | 2.0 | 15.727 | 2 | 42.012 | 15.908 | 33.391 | 2 |
| 2025-06-19T03:00:00 | 53.861748 | 6.322973 | 2.0 | 15.712 | 2 | 42.004 | 15.890 | 33.399 | 2 |
| 2025-06-19T03:01:00 | 53.863245 | 6.321804 | 2.0 | 15.694 | 2 | 41.995 | 15.874 | 33.404 | 2 |
| 2025-06-19T03:02:00 | 53.864745 | 6.320638 | 2.0 | 15.688 | 2 | 41.986 | 15.859 | 33.409 | 2 |
| 2025-06-19T03:03:00 | 53.866236 | 6.319521 | 2.0 | 15.674 | 2 | 41.982 | 15.849 | 33.414 | 2 |
| 2025-06-19T03:04:00 | 53.867692 | 6.318461 | 2.0 | 15.662 | 2 | 41.975 | 15.837 | 33.418 | 2 |
| 2025-06-19T03:05:00 | 53.869155 | 6.317365 | 2.0 | 15.660 | 2 | 41.968 | 15.827 | 33.420 | 2 |
| 2025-06-19T03:06:00 | 53.870592 | 6.316234 | 2.0 | 15.657 | 2 | 41.969 | 15.824 | 33.423 | 2 |
| 2025-06-19T03:07:00 | 53.872038 | 6.315117 | 2.0 | 15.644 | 2 | 41.973 | 15.820 | 33.430 | 2 |
| 2025-06-19T03:08:00 | 53.873512 | 6.314090 | 2.0 | 15.621 | 2 | 41.960 | 15.805 | 33.431 | 2 |
| 2025-06-19T03:09:00 | 53.874965 | 6.313026 | 2.0 | 15.606 | 2 | 41.939 | 15.784 | 33.431 | 2 |
| 2025-06-19T03:10:00 | 53.876409 | 6.311916 | 2.0 | 15.592 | 2 | 41.926 | 15.770 | 33.431 | 2 |
| 2025-06-19T03:11:00 | 53.877849 | 6.310790 | 2.0 | 15.580 | 2 | 41.913 | 15.754 | 33.433 | 2 |
| 2025-06-19T03:12:00 | 53.879311 | 6.309647 | 2.0 | 15.568 | 2 | 41.909 | 15.742 | 33.439 | 2 |
| 2025-06-19T03:13:00 | 53.880784 | 6.308548 | 2.0 | 15.560 | 2 | 41.901 | 15.732 | 33.441 | 2 |
| 2025-06-19T03:14:00 | 53.882225 | 6.307487 | 2.0 | 15.554 | 2 | 41.892 | 15.723 | 33.440 | 2 |
| 2025-06-19T03:15:00 | 53.883677 | 6.306377 | 2.0 | 15.549 | 2 | 41.889 | 15.719 | 33.441 | 2 |
| 2025-06-19T03:16:00 | 53.885085 | 6.305208 | 2.0 | 15.540 | 2 | 41.884 | 15.714 | 33.441 | 2 |
| 2025-06-19T03:17:00 | 53.886511 | 6.304018 | 2.0 | 15.536 | 2 | 41.873 | 15.704 | 33.439 | 2 |
| 2025-06-19T03:18:00 | 53.887939 | 6.302878 | 2.0 | 15.530 | 2 | 41.868 | 15.700 | 33.438 | 2 |
| 2025-06-19T03:19:00 | 53.889325 | 6.301738 | 2.0 | 15.522 | 2 | 41.862 | 15.693 | 33.439 | 2 |
| 2025-06-19T03:20:00 | 53.890732 | 6.300512 | 2.0 | 15.518 | 2 | 41.858 | 15.687 | 33.440 | 2 |
| 2025-06-19T03:21:00 | 53.892184 | 6.299277 | 2.0 | 15.510 | 2 | 41.853 | 15.682 | 33.440 | 2 |
| 2025-06-19T03:22:00 | 53.893656 | 6.298092 | 2.0 | 15.505 | 2 | 41.845 | 15.674 | 33.440 | 2 |
| 2025-06-19T03:23:00 | 53.895111 | 6.296919 | 2.0 | 15.496 | 2 | 41.842 | 15.669 | 33.441 | 2 |
| 2025-06-19T03:24:00 | 53.896502 | 6.295760 | 2.0 | 15.496 | 2 | 41.837 | 15.661 | 33.444 | 2 |
| 2025-06-19T03:25:00 | 53.897940 | 6.294530 | 2.0 | 15.492 | 2 | 41.836 | 15.661 | 33.443 | 2 |
| 2025-06-19T03:26:00 | 53.899398 | 6.293309 | 2.0 | 15.490 | 2 | 41.834 | 15.656 | 33.445 | 2 |
| 2025-06-19T03:27:00 | 53.900853 | 6.292130 | 2.0 | 15.487 | 2 | 41.834 | 15.654 | 33.447 | 2 |
| 2025-06-19T03:28:00 | 53.902315 | 6.290916 | 2.0 | 15.486 | 2 | 41.832 | 15.652 | 33.447 | 2 |
| 2025-06-19T03:29:00 | 53.903787 | 6.289677 | 2.0 | 15.481 | 2 | 41.833 | 15.650 | 33.450 | 2 |
| 2025-06-19T03:30:00 | 53.905271 | 6.288447 | 2.0 | 15.479 | 2 | 41.831 | 15.645 | 33.452 | 2 |
| 2025-06-19T03:31:00 | 53.906770 | 6.287238 | 2.0 | 15.476 | 2 | 41.831 | 15.643 | 33.454 | 2 |
| 2025-06-19T03:32:00 | 53.908261 | 6.286018 | 2.0 | 15.474 | 2 | 41.830 | 15.640 | 33.455 | 2 |
| 2025-06-19T03:33:00 | 53.909733 | 6.284786 | 2.0 | 15.470 | 2 | 41.832 | 15.638 | 33.459 | 2 |
| 2025-06-19T03:34:00 | 53.911108 | 6.283641 | 2.0 | 15.467 | 2 | 41.831 | 15.636 | 33.460 | 2 |
| 2025-06-19T03:35:00 | 53.912217 | 6.282749 | 2.0 | 15.469 | 2 | 41.832 | 15.633 | 33.463 | 2 |
| 2025-06-19T03:36:00 | 53.913112 | 6.282077 | 2.0 | 15.465 | 2 | 41.836 | 15.633 | 33.467 | 2 |
| 2025-06-19T03:37:00 | 53.913868 | 6.281550 | 2.0 | 15.465 | 2 | 41.834 | 15.631 | 33.467 | 2 |
| 2025-06-19T03:38:00 | 53.914512 | 6.281167 | 2.0 | 15.463 | 2 | 41.839 | 15.636 | 33.467 | 2 |
| 2025-06-19T03:39:00 | 53.915001 | 6.280892 | 2.0 | 15.462 | 2 | 41.843 | 15.640 | 33.467 | 2 |
| 2025-06-19T03:40:00 | 53.915320 | 6.280733 | 2.0 | 15.461 | 2 | 41.847 | 15.642 | 33.469 | 2 |
| 2025-06-19T03:41:00 | 53.915591 | 6.280579 | 2.0 | 15.459 | 2 | 41.848 | 15.644 | 33.468 | 2 |
| 2025-06-19T03:42:00 | 53.915896 | 6.280379 | 2.0 | 15.457 | 2 | 41.848 | 15.643 | 33.469 | 2 |
| 2025-06-19T03:43:00 | 53.916226 | 6.280133 | 2.0 | 15.465 | 2 | 41.851 | 15.644 | 33.471 | 2 |
| 2025-06-19T03:44:00 | 53.916503 | 6.279897 | 2.0 | 15.466 | 2 | 41.862 | 15.652 | 33.474 | 2 |
| 2025-06-19T03:45:00 | 53.916711 | 6.279727 | 2.0 | 15.464 | 2 | 41.862 | 15.653 | 33.473 | 2 |
| 2025-06-19T03:46:00 | 53.916818 | 6.279585 | 2.0 | 15.466 | 2 | 41.860 | 15.651 | 33.473 | 2 |
| 2025-06-19T03:47:00 | 53.916835 | 6.279452 | 2.0 | 15.468 | 2 | 41.863 | 15.654 | 33.473 | 2 |
| 2025-06-19T03:48:00 | 53.916793 | 6.279347 | 2.0 | 15.468 | 2 | 41.865 | 15.656 | 33.473 | 2 |
| 2025-06-19T03:49:00 | 53.916746 | 6.279261 | 2.0 | 15.467 | 2 | 41.866 | 15.656 | 33.474 | 2 |
| 2025-06-19T03:50:00 | 53.916721 | 6.279228 | 2.0 | 15.467 | 2 | 41.866 | 15.656 | 33.474 | 2 |
| 2025-06-19T03:51:00 | 53.916740 | 6.279187 | 2.0 | 15.466 | 2 | 41.864 | 15.655 | 33.473 | 2 |
| 2025-06-19T03:52:00 | 53.916794 | 6.279100 | 2.0 | 15.459 | 2 | 41.863 | 15.655 | 33.472 | 2 |
| 2025-06-19T03:53:00 | 53.916827 | 6.279065 | 2.0 | 15.463 | 2 | 41.855 | 15.650 | 33.469 | 2 |
| 2025-06-19T03:54:00 | 53.916833 | 6.279101 | 2.0 | 15.463 | 2 | 41.856 | 15.652 | 33.468 | 2 |
| 2025-06-19T03:55:00 | 53.916821 | 6.279093 | 2.0 | 15.465 | 2 | 41.858 | 15.652 | 33.470 | 2 |
| 2025-06-19T03:56:00 | 53.916807 | 6.279020 | 2.0 | 15.461 | 2 | 41.858 | 15.653 | 33.469 | 2 |
| 2025-06-19T03:57:00 | 53.916812 | 6.278916 | 2.0 | 15.462 | 2 | 41.856 | 15.651 | 33.469 | 2 |
| 2025-06-19T03:58:00 | 53.916837 | 6.278856 | 2.0 | 15.462 | 2 | 41.857 | 15.652 | 33.469 | 2 |
| 2025-06-19T03:59:00 | 53.916837 | 6.278847 | 2.0 | 15.464 | 2 | 41.857 | 15.652 | 33.469 | 2 |
| 2025-06-19T04:00:00 | 53.916807 | 6.278806 | 2.0 | 15.463 | 2 | 41.858 | 15.653 | 33.469 | 2 |
| 2025-06-19T04:01:00 | 53.916763 | 6.278689 | 2.0 | 15.463 | 2 | 41.857 | 15.653 | 33.468 | 2 |
| 2025-06-19T04:02:00 | 53.916757 | 6.278523 | 2.0 | 15.462 | 2 | 41.858 | 15.654 | 33.468 | 2 |
| 2025-06-19T04:03:00 | 53.916741 | 6.278433 | 2.0 | 15.462 | 2 | 41.857 | 15.653 | 33.468 | 2 |
| 2025-06-19T04:04:00 | 53.916719 | 6.278421 | 2.0 | 15.463 | 2 | 41.857 | 15.653 | 33.468 | 2 |
| 2025-06-19T04:05:00 | 53.916741 | 6.278453 | 2.0 | 15.465 | 2 | 41.858 | 15.653 | 33.469 | 2 |
| 2025-06-19T04:06:00 | 53.916770 | 6.278466 | 2.0 | 15.466 | 2 | 41.861 | 15.656 | 33.469 | 2 |
| 2025-06-19T04:07:00 | 53.916800 | 6.278470 | 2.0 | 15.468 | 2 | 41.861 | 15.657 | 33.469 | 2 |
| 2025-06-19T04:08:00 | 53.916855 | 6.278539 | 2.0 | 15.467 | 2 | 41.863 | 15.659 | 33.469 | 2 |
| 2025-06-19T04:09:00 | 53.916895 | 6.278646 | 2.0 | 15.463 | 2 | 41.861 | 15.658 | 33.468 | 2 |
| 2025-06-19T04:10:00 | 53.916931 | 6.278750 | 2.0 | 15.461 | 2 | 41.857 | 15.653 | 33.468 | 2 |
| 2025-06-19T04:11:00 | 53.916951 | 6.278860 | 2.0 | 15.463 | 2 | 41.857 | 15.653 | 33.468 | 2 |
| 2025-06-19T04:12:00 | 53.916942 | 6.278935 | 2.0 | 15.468 | 2 | 41.860 | 15.656 | 33.469 | 2 |
| 2025-06-19T04:13:00 | 53.916928 | 6.278917 | 2.0 | 15.468 | 2 | 41.863 | 15.658 | 33.470 | 2 |
| 2025-06-19T04:14:00 | 53.916917 | 6.278801 | 2.0 | 15.468 | 2 | 41.865 | 15.661 | 33.469 | 2 |
| 2025-06-19T04:15:00 | 53.916872 | 6.278694 | 2.0 | 15.466 | 2 | 41.863 | 15.659 | 33.469 | 2 |
| 2025-06-19T04:16:00 | 53.916804 | 6.278570 | 2.0 | 15.466 | 2 | 41.863 | 15.658 | 33.470 | 2 |
| 2025-06-19T04:17:00 | 53.916757 | 6.278432 | 2.0 | 15.467 | 2 | 41.863 | 15.658 | 33.470 | 2 |
| 2025-06-19T04:18:00 | 53.916720 | 6.278324 | 2.0 | 15.467 | 2 | 41.863 | 15.658 | 33.470 | 2 |
| 2025-06-19T04:19:00 | 53.916663 | 6.278235 | 2.0 | 15.467 | 2 | 41.863 | 15.658 | 33.470 | 2 |
| 2025-06-19T04:20:00 | 53.916613 | 6.278187 | 2.0 | 15.466 | 2 | 41.862 | 15.658 | 33.469 | 2 |
| 2025-06-19T04:21:00 | 53.916622 | 6.278266 | 2.0 | 15.465 | 2 | 41.861 | 15.658 | 33.468 | 2 |
| 2025-06-19T04:22:00 | 53.916674 | 6.278356 | 2.0 | 15.464 | 2 | 41.862 | 15.657 | 33.470 | 2 |
| 2025-06-19T04:23:00 | 53.916724 | 6.278421 | 2.0 | 15.464 | 2 | 41.860 | 15.657 | 33.468 | 2 |
| 2025-06-19T04:24:00 | 53.916728 | 6.278513 | 2.0 | 15.464 | 2 | 41.859 | 15.655 | 33.469 | 2 |
| 2025-06-19T04:25:00 | 53.916700 | 6.278529 | 2.0 | 15.464 | 2 | 41.861 | 15.658 | 33.468 | 2 |
| 2025-06-19T04:26:00 | 53.916697 | 6.278459 | 2.0 | 15.465 | 2 | 41.861 | 15.658 | 33.468 | 2 |
| 2025-06-19T04:27:00 | 53.916686 | 6.278382 | 2.0 | 15.470 | 2 | 41.862 | 15.659 | 33.468 | 2 |
| 2025-06-19T04:28:00 | 53.916672 | 6.278356 | 2.0 | 15.469 | 2 | 41.866 | 15.664 | 33.467 | 2 |
| 2025-06-19T04:29:00 | 53.916631 | 6.278314 | 2.0 | 15.468 | 2 | 41.865 | 15.662 | 33.468 | 2 |
| 2025-06-19T04:30:00 | 53.916654 | 6.278131 | 2.0 | 15.467 | 2 | 41.865 | 15.662 | 33.468 | 2 |
| 2025-06-19T04:31:00 | 53.916657 | 6.277962 | 2.0 | 15.466 | 2 | 41.865 | 15.662 | 33.468 | 2 |
| 2025-06-19T04:32:00 | 53.916635 | 6.277833 | 2.0 | 15.469 | 2 | 41.864 | 15.661 | 33.468 | 2 |
| 2025-06-19T04:33:00 | 53.916584 | 6.277768 | 2.0 | 15.469 | 2 | 41.866 | 15.663 | 33.468 | 2 |
| 2025-06-19T04:34:00 | 53.916555 | 6.277721 | 2.0 | 15.470 | 2 | 41.866 | 15.663 | 33.468 | 2 |
| 2025-06-19T04:35:00 | 53.916569 | 6.277630 | 2.0 | 15.470 | 2 | 41.867 | 15.665 | 33.467 | 2 |
| 2025-06-19T04:36:00 | 53.916565 | 6.277581 | 2.0 | 15.466 | 2 | 41.867 | 15.664 | 33.468 | 2 |
| 2025-06-19T04:37:00 | 53.916554 | 6.277556 | 2.0 | 15.466 | 2 | 41.863 | 15.660 | 33.468 | 2 |
| 2025-06-19T04:38:00 | 53.916600 | 6.277527 | 2.0 | 15.465 | 2 | 41.864 | 15.662 | 33.467 | 2 |
| 2025-06-19T04:39:00 | 53.916645 | 6.277515 | 2.0 | 15.465 | 2 | 41.862 | 15.660 | 33.467 | 2 |
| 2025-06-19T04:40:00 | 53.916674 | 6.277462 | 2.0 | 15.467 | 2 | 41.862 | 15.659 | 33.468 | 2 |
| 2025-06-19T04:41:00 | 53.916741 | 6.277317 | 2.0 | 15.469 | 2 | 41.865 | 15.663 | 33.467 | 2 |
| 2025-06-19T04:42:00 | 53.916780 | 6.277240 | 2.0 | 15.467 | 2 | 41.866 | 15.663 | 33.468 | 2 |
| 2025-06-19T04:43:00 | 53.916820 | 6.277237 | 2.0 | 15.468 | 2 | 41.864 | 15.661 | 33.468 | 2 |
| 2025-06-19T04:44:00 | 53.916892 | 6.277183 | 2.0 | 15.469 | 2 | 41.866 | 15.664 | 33.467 | 2 |
| 2025-06-19T04:45:00 | 53.916985 | 6.277052 | 2.0 | 15.468 | 2 | 41.867 | 15.665 | 33.467 | 2 |
| 2025-06-19T04:46:00 | 53.917052 | 6.276945 | 2.0 | 15.468 | 2 | 41.866 | 15.663 | 33.468 | 2 |
| 2025-06-19T04:47:00 | 53.917078 | 6.276854 | 2.0 | 15.470 | 2 | 41.866 | 15.664 | 33.467 | 2 |
| 2025-06-19T04:48:00 | 53.917047 | 6.276815 | 2.0 | 15.468 | 2 | 41.867 | 15.664 | 33.468 | 2 |
| 2025-06-19T04:49:00 | 53.916971 | 6.276809 | 2.0 | 15.469 | 2 | 41.867 | 15.664 | 33.468 | 2 |
| 2025-06-19T04:50:00 | 53.916885 | 6.276829 | 2.0 | 15.468 | 2 | 41.867 | 15.663 | 33.469 | 2 |
| 2025-06-19T04:51:00 | 53.916789 | 6.276853 | 2.0 | 15.470 | 2 | 41.863 | 15.663 | 33.465 | 2 |
| 2025-06-19T04:52:00 | 53.916745 | 6.276738 | 2.0 | 15.473 | 2 | 41.868 | 15.665 | 33.468 | 2 |
| 2025-06-19T04:53:00 | 53.916712 | 6.276589 | 2.0 | 15.472 | 2 | 41.871 | 15.668 | 33.468 | 2 |
| 2025-06-19T04:54:00 | 53.916694 | 6.276513 | 2.0 | 15.470 | 2 | 41.870 | 15.667 | 33.468 | 2 |
| 2025-06-19T04:55:00 | 53.916684 | 6.276504 | 2.0 | 15.469 | 2 | 41.868 | 15.666 | 33.467 | 2 |
| 2025-06-19T04:56:00 | 53.916637 | 6.276498 | 2.0 | 15.470 | 2 | 41.867 | 15.665 | 33.467 | 2 |
| 2025-06-19T04:57:00 | 53.916592 | 6.276488 | 2.0 | 15.471 | 2 | 41.869 | 15.666 | 33.468 | 2 |
| 2025-06-19T04:58:00 | 53.916593 | 6.276481 | 2.0 | 15.471 | 2 | 41.871 | 15.667 | 33.469 | 2 |
| 2025-06-19T04:59:00 | 53.916579 | 6.276500 | 2.0 | 15.470 | 2 | 41.871 | 15.666 | 33.470 | 2 |
| 2025-06-19T05:00:00 | 53.916558 | 6.276524 | 2.0 | 15.474 | 2 | 41.870 | 15.666 | 33.469 | 2 |
| 2025-06-19T05:01:00 | 53.916538 | 6.276498 | 2.0 | 15.472 | 2 | 41.873 | 15.668 | 33.470 | 2 |
| 2025-06-19T05:02:00 | 53.916491 | 6.276443 | 2.0 | 15.471 | 2 | 41.873 | 15.668 | 33.470 | 2 |
| 2025-06-19T05:03:00 | 53.916460 | 6.276346 | 2.0 | 15.470 | 2 | 41.871 | 15.666 | 33.470 | 2 |
| 2025-06-19T05:04:00 | 53.916412 | 6.276259 | 2.0 | 15.472 | 2 | 41.871 | 15.666 | 33.470 | 2 |
| 2025-06-19T05:05:00 | 53.916367 | 6.276143 | 2.0 | 15.474 | 2 | 41.873 | 15.668 | 33.470 | 2 |
| 2025-06-19T05:06:00 | 53.916331 | 6.276009 | 2.0 | 15.477 | 2 | 41.874 | 15.670 | 33.469 | 2 |
| 2025-06-19T05:07:00 | 53.916377 | 6.275922 | 2.0 | 15.474 | 2 | 41.877 | 15.672 | 33.470 | 2 |
| 2025-06-19T05:08:00 | 53.916492 | 6.275669 | 2.0 | 15.471 | 2 | 41.874 | 15.668 | 33.471 | 2 |
| 2025-06-19T05:09:00 | 53.916778 | 6.274973 | 2.0 | 15.470 | 2 | 41.872 | 15.666 | 33.471 | 2 |
| 2025-06-19T05:10:00 | 53.917382 | 6.273953 | 2.0 | 15.470 | 2 | 41.872 | 15.667 | 33.470 | 2 |
| 2025-06-19T05:11:00 | 53.918152 | 6.272745 | 2.0 | 15.467 | 2 | 41.872 | 15.667 | 33.470 | 2 |
| 2025-06-19T05:12:00 | 53.919002 | 6.271420 | 2.0 | 15.469 | 2 | 41.870 | 15.664 | 33.471 | 2 |
| 2025-06-19T05:13:00 | 53.919875 | 6.270050 | 2.0 | 15.469 | 2 | 41.873 | 15.666 | 33.472 | 2 |
| 2025-06-19T05:14:00 | 53.920752 | 6.268683 | 2.0 | 15.465 | 2 | 41.871 | 15.660 | 33.475 | 2 |
| 2025-06-19T05:15:00 | 53.921649 | 6.267281 | 2.0 | 15.468 | 2 | 41.862 | 15.652 | 33.474 | 2 |
| 2025-06-19T05:16:00 | 53.922533 | 6.265864 | 2.0 | 15.479 | 2 | 41.868 | 15.654 | 33.477 | 2 |
| 2025-06-19T05:17:00 | 53.923428 | 6.264451 | 2.0 | 15.480 | 2 | 41.880 | 15.660 | 33.483 | 2 |
| 2025-06-19T05:18:00 | 53.924339 | 6.263009 | 2.0 | 15.477 | 2 | 41.881 | 15.660 | 33.484 | 2 |
| 2025-06-19T05:19:00 | 53.925268 | 6.261559 | 2.0 | 15.477 | 2 | 41.874 | 15.656 | 33.481 | 2 |
| 2025-06-19T05:20:00 | 53.926221 | 6.260080 | 2.0 | 15.480 | 2 | 41.875 | 15.656 | 33.482 | 2 |
| 2025-06-19T05:21:00 | 53.927181 | 6.258591 | 2.0 | 15.480 | 2 | 41.879 | 15.657 | 33.485 | 2 |
| 2025-06-19T05:22:00 | 53.928080 | 6.257163 | 2.0 | 15.476 | 2 | 41.879 | 15.656 | 33.486 | 2 |
| 2025-06-19T05:23:00 | 53.928992 | 6.255726 | 2.0 | 15.469 | 2 | 41.874 | 15.651 | 33.485 | 2 |
| 2025-06-19T05:24:00 | 53.929932 | 6.254247 | 2.0 | 15.471 | 2 | 41.871 | 15.646 | 33.487 | 2 |
| 2025-06-19T05:25:00 | 53.930875 | 6.252751 | 2.0 | 15.474 | 2 | 41.873 | 15.647 | 33.488 | 2 |
| 2025-06-19T05:26:00 | 53.931836 | 6.251228 | 2.0 | 15.473 | 2 | 41.882 | 15.648 | 33.495 | 2 |
| 2025-06-19T05:27:00 | 53.932853 | 6.249639 | 2.0 | 15.475 | 2 | 41.885 | 15.648 | 33.498 | 2 |
| 2025-06-19T05:28:00 | 53.933959 | 6.247953 | 2.0 | 15.479 | 2 | 41.890 | 15.650 | 33.500 | 2 |
| 2025-06-19T05:29:00 | 53.935062 | 6.246249 | 2.0 | 15.481 | 2 | 41.897 | 15.653 | 33.504 | 2 |
| 2025-06-19T05:30:00 | 53.936189 | 6.244509 | 2.0 | 15.482 | 2 | 41.903 | 15.654 | 33.509 | 2 |
| 2025-06-19T05:31:00 | 53.937343 | 6.242749 | 2.0 | 15.488 | 2 | 41.908 | 15.656 | 33.511 | 2 |
| 2025-06-19T05:32:00 | 53.938510 | 6.240963 | 2.0 | 15.494 | 2 | 41.921 | 15.661 | 33.519 | 2 |
| 2025-06-19T05:33:00 | 53.939658 | 6.239213 | 2.0 | 15.504 | 2 | 41.935 | 15.669 | 33.525 | 2 |
| 2025-06-19T05:34:00 | 53.940786 | 6.237494 | 2.0 | 15.517 | 2 | 41.955 | 15.679 | 33.534 | 2 |
| 2025-06-19T05:35:00 | 53.941944 | 6.235730 | 2.0 | 15.521 | 2 | 41.976 | 15.689 | 33.544 | 2 |
| 2025-06-19T05:36:00 | 53.943112 | 6.233948 | 2.0 | 15.534 | 2 | 41.985 | 15.694 | 33.548 | 2 |
| 2025-06-19T05:37:00 | 53.944298 | 6.232145 | 2.0 | 15.545 | 2 | 42.016 | 15.709 | 33.563 | 2 |
| 2025-06-19T05:38:00 | 53.945484 | 6.230308 | 2.0 | 15.547 | 2 | 42.039 | 15.717 | 33.577 | 2 |
| 2025-06-19T05:39:00 | 53.946662 | 6.228510 | 2.0 | 15.547 | 2 | 42.054 | 15.719 | 33.588 | 2 |
| 2025-06-19T05:40:00 | 53.947835 | 6.226702 | 2.0 | 15.544 | 2 | 42.062 | 15.718 | 33.596 | 2 |
| 2025-06-19T05:41:00 | 53.948992 | 6.224918 | 2.0 | 15.538 | 2 | 42.066 | 15.714 | 33.603 | 2 |
| 2025-06-19T05:42:00 | 53.950156 | 6.223107 | 2.0 | 15.532 | 2 | 42.065 | 15.709 | 33.607 | 2 |
| 2025-06-19T05:43:00 | 53.951330 | 6.221286 | 2.0 | 15.521 | 2 | 42.065 | 15.702 | 33.613 | 2 |
| 2025-06-19T05:44:00 | 53.952476 | 6.219509 | 2.0 | 15.505 | 2 | 42.058 | 15.689 | 33.617 | 2 |
| 2025-06-19T05:45:00 | 53.953595 | 6.217738 | 2.0 | 15.504 | 2 | 42.053 | 15.678 | 33.622 | 2 |
| 2025-06-19T05:46:00 | 53.954705 | 6.215959 | 2.0 | 15.489 | 2 | 42.052 | 15.674 | 33.625 | 2 |
| 2025-06-19T05:47:00 | 53.955852 | 6.214160 | 2.0 | 15.482 | 2 | 42.047 | 15.660 | 33.632 | 2 |
| 2025-06-19T05:48:00 | 53.957012 | 6.212318 | 2.0 | 15.473 | 2 | 42.045 | 15.654 | 33.636 | 2 |
| 2025-06-19T05:49:00 | 53.958151 | 6.210496 | 2.0 | 15.458 | 2 | 42.040 | 15.643 | 33.640 | 2 |
| 2025-06-19T05:50:00 | 53.959305 | 6.208662 | 2.0 | 15.447 | 2 | 42.033 | 15.630 | 33.645 | 2 |
| 2025-06-19T05:51:00 | 53.960444 | 6.206869 | 2.0 | 15.438 | 2 | 42.024 | 15.618 | 33.648 | 2 |
| 2025-06-19T05:52:00 | 53.961561 | 6.205073 | 2.0 | 15.433 | 2 | 42.022 | 15.610 | 33.653 | 2 |
| 2025-06-19T05:53:00 | 53.962677 | 6.203266 | 2.0 | 15.421 | 2 | 42.019 | 15.604 | 33.655 | 2 |
| 2025-06-19T05:54:00 | 53.963728 | 6.201560 | 2.0 | 15.406 | 2 | 42.013 | 15.592 | 33.660 | 2 |
| 2025-06-19T05:55:00 | 53.964640 | 6.200038 | 2.0 | 15.402 | 2 | 42.002 | 15.580 | 33.660 | 2 |
| 2025-06-19T05:56:00 | 53.965385 | 6.198697 | 2.0 | 15.399 | 2 | 41.996 | 15.574 | 33.660 | 2 |
| 2025-06-19T05:57:00 | 53.966018 | 6.197489 | 2.0 | 15.391 | 2 | 41.992 | 15.569 | 33.661 | 2 |
| 2025-06-19T05:58:00 | 53.966611 | 6.196335 | 2.0 | 15.387 | 2 | 41.985 | 15.562 | 33.660 | 2 |
| 2025-06-19T05:59:00 | 53.967152 | 6.195243 | 2.0 | 15.387 | 2 | 41.982 | 15.559 | 33.660 | 2 |
| 2025-06-19T06:00:00 | 53.967655 | 6.194205 | 2.0 | 15.386 | 2 | 41.981 | 15.558 | 33.660 | 2 |
| 2025-06-19T06:01:00 | 53.968140 | 6.193178 | 2.0 | 15.385 | 2 | 41.980 | 15.558 | 33.659 | 2 |
| 2025-06-19T06:02:00 | 53.968603 | 6.192211 | 2.0 | 15.385 | 2 | 41.979 | 15.556 | 33.660 | 2 |
| 2025-06-19T06:03:00 | 53.969069 | 6.191209 | 2.0 | 15.383 | 2 | 41.978 | 15.556 | 33.659 | 2 |
| 2025-06-19T06:04:00 | 53.969501 | 6.190197 | 2.0 | 15.379 | 2 | 41.975 | 15.552 | 33.660 | 2 |
| 2025-06-19T06:05:00 | 53.970121 | 6.188991 | 2.0 | 15.380 | 2 | 41.974 | 15.549 | 33.662 | 2 |
| 2025-06-19T06:06:00 | 53.970940 | 6.187516 | 2.0 | 15.378 | 2 | 41.974 | 15.549 | 33.662 | 2 |
| 2025-06-19T06:07:00 | 53.971870 | 6.185922 | 2.0 | 15.382 | 2 | 41.973 | 15.549 | 33.661 | 2 |
| 2025-06-19T06:08:00 | 53.972822 | 6.184309 | 2.0 | 15.382 | 2 | 41.977 | 15.553 | 33.661 | 2 |
| 2025-06-19T06:09:00 | 53.973823 | 6.182640 | 2.0 | 15.379 | 2 | 41.978 | 15.551 | 33.664 | 2 |
| 2025-06-19T06:10:00 | 53.974852 | 6.180915 | 2.0 | 15.373 | 2 | 41.977 | 15.548 | 33.665 | 2 |
| 2025-06-19T06:11:00 | 53.975889 | 6.179195 | 2.0 | 15.369 | 2 | 41.975 | 15.542 | 33.669 | 2 |
| 2025-06-19T06:12:00 | 53.976846 | 6.177576 | 2.0 | 15.365 | 2 | 41.970 | 15.539 | 33.667 | 2 |
| 2025-06-19T06:13:00 | 53.977754 | 6.175987 | 2.0 | 15.361 | 2 | 41.971 | 15.535 | 33.671 | 2 |
| 2025-06-19T06:14:00 | 53.978727 | 6.174318 | 2.0 | 15.353 | 2 | 41.969 | 15.529 | 33.674 | 2 |
| 2025-06-19T06:15:00 | 53.979735 | 6.172593 | 2.0 | 15.345 | 2 | 41.963 | 15.521 | 33.676 | 2 |
| 2025-06-19T06:16:00 | 53.980764 | 6.170848 | 2.0 | 15.341 | 2 | 41.959 | 15.515 | 33.677 | 2 |
| 2025-06-19T06:17:00 | 53.981810 | 6.169070 | 2.0 | 15.341 | 2 | 41.958 | 15.511 | 33.680 | 2 |
| 2025-06-19T06:18:00 | 53.982876 | 6.167279 | 2.0 | 15.340 | 2 | 41.958 | 15.510 | 33.681 | 2 |
| 2025-06-19T06:19:00 | 53.983902 | 6.165522 | 2.0 | 15.337 | 2 | 41.959 | 15.508 | 33.683 | 2 |
| 2025-06-19T06:20:00 | 53.984954 | 6.163743 | 2.0 | 15.336 | 2 | 41.957 | 15.506 | 33.683 | 2 |
| 2025-06-19T06:21:00 | 53.985989 | 6.161982 | 2.0 | 15.336 | 2 | 41.957 | 15.505 | 33.684 | 2 |
| 2025-06-19T06:22:00 | 53.987034 | 6.160205 | 2.0 | 15.339 | 2 | 41.958 | 15.506 | 33.684 | 2 |
| 2025-06-19T06:23:00 | 53.988079 | 6.158430 | 2.0 | 15.342 | 2 | 41.961 | 15.508 | 33.685 | 2 |
| 2025-06-19T06:24:00 | 53.989150 | 6.156626 | 2.0 | 15.347 | 2 | 41.965 | 15.512 | 33.685 | 2 |
| 2025-06-19T06:25:00 | 53.990153 | 6.154890 | 2.0 | 15.351 | 2 | 41.972 | 15.517 | 33.687 | 2 |
| 2025-06-19T06:26:00 | 53.990979 | 6.153362 | 2.0 | 15.347 | 2 | 41.976 | 15.519 | 33.689 | 2 |
| 2025-06-19T06:27:00 | 53.991616 | 6.152099 | 2.0 | 15.346 | 2 | 41.975 | 15.516 | 33.691 | 2 |
| 2025-06-19T06:28:00 | 53.992144 | 6.151270 | 2.0 | 15.351 | 2 | 41.976 | 15.516 | 33.692 | 2 |
| 2025-06-19T06:29:00 | 53.992563 | 6.150658 | 2.0 | 15.351 | 2 | 41.980 | 15.520 | 33.692 | 2 |
| 2025-06-19T06:30:00 | 53.992890 | 6.150247 | 2.0 | 15.354 | 2 | 41.981 | 15.520 | 33.693 | 2 |
| 2025-06-19T06:31:00 | 53.993130 | 6.150029 | 2.0 | 15.354 | 2 | 41.983 | 15.522 | 33.693 | 2 |
| 2025-06-19T06:32:00 | 53.993322 | 6.149833 | 2.0 | 15.354 | 2 | 41.984 | 15.523 | 33.693 | 2 |
| 2025-06-19T06:33:00 | 53.993445 | 6.149688 | 2.0 | 15.350 | 2 | 41.984 | 15.522 | 33.694 | 2 |
| 2025-06-19T06:34:00 | 53.993571 | 6.149560 | 2.0 | 15.347 | 2 | 41.981 | 15.518 | 33.695 | 2 |
| 2025-06-19T06:35:00 | 53.993800 | 6.149411 | 2.0 | 15.351 | 2 | 41.978 | 15.515 | 33.694 | 2 |
| 2025-06-19T06:36:00 | 53.994119 | 6.149248 | 2.0 | 15.350 | 2 | 41.983 | 15.520 | 33.695 | 2 |
| 2025-06-19T06:37:00 | 53.994461 | 6.149099 | 2.0 | 15.349 | 2 | 41.981 | 15.518 | 33.695 | 2 |
| 2025-06-19T06:38:00 | 53.994822 | 6.148938 | 2.0 | 15.350 | 2 | 41.980 | 15.517 | 33.694 | 2 |
| 2025-06-19T06:39:00 | 53.995167 | 6.148770 | 2.0 | 15.346 | 2 | 41.982 | 15.517 | 33.696 | 2 |
| 2025-06-19T06:40:00 | 53.995439 | 6.148759 | 2.0 | 15.345 | 2 | 41.978 | 15.514 | 33.695 | 2 |
| 2025-06-19T06:41:00 | 53.995647 | 6.148801 | 2.0 | 15.342 | 2 | 41.977 | 15.513 | 33.695 | 2 |
| 2025-06-19T06:42:00 | 53.995796 | 6.148810 | 2.0 | 15.339 | 2 | 41.976 | 15.510 | 33.697 | 2 |
| 2025-06-19T06:43:00 | 53.995887 | 6.148816 | 2.0 | 15.337 | 2 | 41.974 | 15.507 | 33.698 | 2 |
| 2025-06-19T06:44:00 | 53.995933 | 6.148809 | 2.0 | 15.329 | 2 | 41.971 | 15.504 | 33.698 | 2 |
| 2025-06-19T06:45:00 | 53.995949 | 6.148777 | 2.0 | 15.333 | 2 | 41.966 | 15.499 | 33.697 | 2 |
| 2025-06-19T06:46:00 | 53.995943 | 6.148740 | 2.0 | 15.336 | 2 | 41.968 | 15.502 | 33.697 | 2 |
| 2025-06-19T06:47:00 | 53.995908 | 6.148682 | 2.0 | 15.337 | 2 | 41.971 | 15.504 | 33.698 | 2 |
| 2025-06-19T06:48:00 | 53.995830 | 6.148608 | 2.0 | 15.344 | 2 | 41.973 | 15.506 | 33.698 | 2 |
| 2025-06-19T06:49:00 | 53.995743 | 6.148563 | 2.0 | 15.342 | 2 | 41.975 | 15.509 | 33.697 | 2 |
| 2025-06-19T06:50:00 | 53.995679 | 6.148551 | 2.0 | 15.344 | 2 | 41.975 | 15.509 | 33.697 | 2 |
| 2025-06-19T06:51:00 | 53.995617 | 6.148563 | 2.0 | 15.342 | 2 | 41.977 | 15.511 | 33.697 | 2 |
| 2025-06-19T06:52:00 | 53.995574 | 6.148557 | 2.0 | 15.344 | 2 | 41.977 | 15.511 | 33.697 | 2 |
| 2025-06-19T06:53:00 | 53.995590 | 6.148564 | 2.0 | 15.340 | 2 | 41.976 | 15.510 | 33.697 | 2 |
| 2025-06-19T06:54:00 | 53.995684 | 6.148587 | 2.0 | 15.343 | 2 | 41.974 | 15.508 | 33.697 | 2 |
| 2025-06-19T06:55:00 | 53.995770 | 6.148667 | 2.0 | 15.338 | 2 | 41.973 | 15.507 | 33.697 | 2 |
| 2025-06-19T06:56:00 | 53.995803 | 6.148940 | 2.0 | 15.340 | 2 | 41.971 | 15.506 | 33.696 | 2 |
| 2025-06-19T06:57:00 | 53.995782 | 6.149387 | 2.0 | 15.336 | 2 | 41.971 | 15.506 | 33.696 | 2 |
| 2025-06-19T06:58:00 | 53.995747 | 6.149744 | 2.0 | 15.332 | 2 | 41.969 | 15.503 | 33.697 | 2 |
| 2025-06-19T06:59:00 | 53.995762 | 6.150133 | 2.0 | 15.328 | 2 | 41.966 | 15.497 | 33.699 | 2 |
| 2025-06-19T07:00:00 | 53.995752 | 6.151198 | 2.0 | 15.327 | 2 | 41.964 | 15.495 | 33.699 | 2 |
| 2025-06-19T07:01:00 | 53.995777 | 6.152967 | 2.0 | 15.326 | 2 | 41.962 | 15.494 | 33.698 | 2 |
| 2025-06-19T07:02:00 | 53.995879 | 6.155208 | 2.0 | 15.320 | 2 | 41.960 | 15.492 | 33.698 | 2 |
| 2025-06-19T07:03:00 | 53.995989 | 6.157701 | 2.0 | 15.324 | 2 | 41.958 | 15.489 | 33.699 | 2 |
| 2025-06-19T07:04:00 | 53.996120 | 6.160323 | 2.0 | 15.326 | 2 | 41.959 | 15.490 | 33.699 | 2 |
| 2025-06-19T07:05:00 | 53.996258 | 6.163044 | 2.0 | 15.328 | 2 | 41.963 | 15.494 | 33.699 | 2 |
| 2025-06-19T07:06:00 | 53.996408 | 6.165810 | 2.0 | 15.335 | 2 | 41.966 | 15.496 | 33.700 | 2 |
| 2025-06-19T07:07:00 | 53.996553 | 6.168575 | 2.0 | 15.331 | 2 | 41.970 | 15.502 | 33.698 | 2 |
| 2025-06-19T07:08:00 | 53.996696 | 6.171336 | 2.0 | 15.327 | 2 | 41.966 | 15.498 | 33.698 | 2 |
| 2025-06-19T07:09:00 | 53.996850 | 6.174113 | 2.0 | 15.319 | 2 | 41.962 | 15.494 | 33.698 | 2 |
| 2025-06-19T07:10:00 | 53.997005 | 6.176916 | 2.0 | 15.325 | 2 | 41.955 | 15.488 | 33.697 | 2 |
| 2025-06-19T07:11:00 | 53.997150 | 6.179709 | 2.0 | 15.328 | 2 | 41.956 | 15.492 | 33.694 | 2 |
| 2025-06-19T07:12:00 | 53.997299 | 6.182514 | 2.0 | 15.330 | 2 | 41.956 | 15.496 | 33.691 | 2 |
| 2025-06-19T07:13:00 | 53.997453 | 6.185324 | 2.0 | 15.341 | 2 | 41.958 | 15.500 | 33.689 | 2 |
| 2025-06-19T07:14:00 | 53.997594 | 6.188113 | 2.0 | 15.350 | 2 | 41.963 | 15.509 | 33.686 | 2 |
| 2025-06-19T07:15:00 | 53.997748 | 6.190888 | 2.0 | 15.360 | 2 | 41.970 | 15.519 | 33.684 | 2 |
| 2025-06-19T07:16:00 | 53.997906 | 6.193686 | 2.0 | 15.374 | 2 | 41.973 | 15.528 | 33.679 | 2 |
| 2025-06-19T07:17:00 | 53.998065 | 6.196468 | 2.0 | 15.385 | 2 | 41.979 | 15.542 | 33.672 | 2 |
| 2025-06-19T07:18:00 | 53.998222 | 6.199229 | 2.0 | 15.390 | 2 | 41.980 | 15.551 | 33.665 | 2 |
| 2025-06-19T07:19:00 | 53.998371 | 6.201960 | 2.0 | 15.401 | 2 | 41.980 | 15.557 | 33.660 | 2 |
| 2025-06-19T07:20:00 | 53.998519 | 6.204658 | 2.0 | 15.414 | 2 | 41.989 | 15.571 | 33.656 | 2 |
| 2025-06-19T07:21:00 | 53.998685 | 6.207393 | 2.0 | 15.410 | 2 | 41.994 | 15.578 | 33.655 | 2 |
| 2025-06-19T07:22:00 | 53.998840 | 6.210151 | 2.0 | 15.418 | 2 | 41.991 | 15.578 | 33.652 | 2 |
| 2025-06-19T07:23:00 | 53.998983 | 6.212886 | 2.0 | 15.424 | 2 | 41.991 | 15.585 | 33.646 | 2 |
| 2025-06-19T07:24:00 | 53.999149 | 6.215631 | 2.0 | 15.434 | 2 | 41.993 | 15.591 | 33.643 | 2 |
| 2025-06-19T07:25:00 | 53.999295 | 6.218356 | 2.0 | 15.443 | 2 | 41.998 | 15.602 | 33.638 | 2 |
| 2025-06-19T07:26:00 | 53.999450 | 6.221086 | 2.0 | 15.449 | 2 | 42.002 | 15.610 | 33.635 | 2 |
| 2025-06-19T07:27:00 | 53.999608 | 6.223837 | 2.0 | 15.455 | 2 | 42.005 | 15.616 | 33.632 | 2 |
| 2025-06-19T07:28:00 | 53.999755 | 6.226613 | 2.0 | 15.458 | 2 | 42.010 | 15.623 | 33.631 | 2 |
| 2025-06-19T07:29:00 | 53.999894 | 6.229344 | 2.0 | 15.462 | 2 | 42.002 | 15.625 | 33.622 | 2 |
| 2025-06-19T07:30:00 | 54.000036 | 6.232040 | 2.0 | 15.460 | 2 | 41.998 | 15.628 | 33.616 | 2 |
| 2025-06-19T07:31:00 | 54.000178 | 6.234348 | 2.0 | 15.445 | 2 | 41.988 | 15.624 | 33.610 | 2 |
| 2025-06-19T07:32:00 | 54.000228 | 6.236060 | 2.0 | 15.450 | 2 | 41.965 | 15.614 | 33.598 | 2 |
| 2025-06-19T07:33:00 | 54.000234 | 6.237332 | 2.0 | 15.453 | 2 | 41.963 | 15.616 | 33.595 | 2 |
| 2025-06-19T07:34:00 | 54.000426 | 6.237769 | 2.0 | 15.453 | 2 | 41.960 | 15.617 | 33.591 | 2 |
| 2025-06-19T07:35:00 | 54.000614 | 6.237660 | 2.0 | 15.452 | 2 | 41.958 | 15.620 | 33.587 | 2 |
| 2025-06-19T07:36:00 | 54.000665 | 6.237538 | 2.0 | 15.452 | 2 | 41.954 | 15.617 | 33.586 | 2 |
| 2025-06-19T07:37:00 | 54.000669 | 6.237444 | 2.0 | 15.448 | 2 | 41.951 | 15.616 | 33.584 | 2 |
| 2025-06-19T07:38:00 | 54.000692 | 6.237346 | 2.0 | 15.454 | 2 | 41.949 | 15.614 | 33.584 | 2 |
| 2025-06-19T07:39:00 | 54.000696 | 6.237184 | 2.0 | 15.459 | 2 | 41.954 | 15.620 | 33.583 | 2 |
| 2025-06-19T07:40:00 | 54.000688 | 6.236975 | 2.0 | 15.463 | 2 | 41.957 | 15.623 | 33.583 | 2 |
| 2025-06-19T07:41:00 | 54.000651 | 6.236784 | 2.0 | 15.465 | 2 | 41.962 | 15.629 | 33.583 | 2 |
| 2025-06-19T07:42:00 | 54.000610 | 6.236571 | 2.0 | 15.469 | 2 | 41.963 | 15.629 | 33.584 | 2 |
| 2025-06-19T07:43:00 | 54.000604 | 6.236383 | 2.0 | 15.467 | 2 | 41.963 | 15.632 | 33.581 | 2 |
| 2025-06-19T07:44:00 | 54.000542 | 6.236370 | 2.0 | 15.465 | 2 | 41.963 | 15.633 | 33.580 | 2 |
| 2025-06-19T07:45:00 | 54.000470 | 6.236436 | 2.0 | 15.462 | 2 | 41.962 | 15.632 | 33.580 | 2 |
| 2025-06-19T07:46:00 | 54.000387 | 6.236576 | 2.0 | 15.457 | 2 | 41.951 | 15.626 | 33.575 | 2 |
| 2025-06-19T07:47:00 | 54.000291 | 6.236794 | 2.0 | 15.460 | 2 | 41.942 | 15.623 | 33.570 | 2 |
| 2025-06-19T07:48:00 | 54.000142 | 6.237062 | 2.0 | 15.462 | 2 | 41.941 | 15.625 | 33.567 | 2 |
| 2025-06-19T07:49:00 | 53.999794 | 6.236934 | 2.0 | 15.455 | 2 | 41.942 | 15.626 | 33.567 | 2 |
| 2025-06-19T07:50:00 | 53.999314 | 6.236218 | 2.0 | 15.457 | 2 | 41.939 | 15.622 | 33.568 | 2 |
| 2025-06-19T07:51:00 | 53.998680 | 6.235245 | 2.0 | 15.462 | 2 | 41.939 | 15.622 | 33.568 | 2 |
| 2025-06-19T07:52:00 | 53.997912 | 6.234110 | 2.0 | 15.462 | 2 | 41.943 | 15.626 | 33.568 | 2 |
| 2025-06-19T07:53:00 | 53.997048 | 6.232883 | 2.0 | 15.470 | 2 | 41.945 | 15.627 | 33.569 | 2 |
| 2025-06-19T07:54:00 | 53.996131 | 6.231557 | 2.0 | 15.479 | 2 | 41.958 | 15.637 | 33.572 | 2 |
| 2025-06-19T07:55:00 | 53.995127 | 6.230165 | 2.0 | 15.490 | 2 | 41.981 | 15.645 | 33.586 | 2 |
| 2025-06-19T07:56:00 | 53.993956 | 6.228596 | 2.0 | 15.496 | 2 | 41.995 | 15.653 | 33.592 | 2 |
| 2025-06-19T07:57:00 | 53.992675 | 6.226936 | 2.0 | 15.513 | 2 | 42.013 | 15.664 | 33.598 | 2 |
| 2025-06-19T07:58:00 | 53.991338 | 6.225207 | 2.0 | 15.520 | 2 | 42.033 | 15.678 | 33.604 | 2 |
| 2025-06-19T07:59:00 | 53.989963 | 6.223442 | 2.0 | 15.527 | 2 | 42.047 | 15.687 | 33.609 | 2 |
| 2025-06-19T08:00:00 | 53.988569 | 6.221651 | 2.0 | 15.533 | 2 | 42.058 | 15.693 | 33.614 | 2 |
| 2025-06-19T08:01:00 | 53.987157 | 6.219863 | 2.0 | 15.534 | 2 | 42.065 | 15.697 | 33.617 | 2 |
| 2025-06-19T08:02:00 | 53.985701 | 6.218186 | 2.0 | 15.547 | 2 | 42.068 | 15.700 | 33.617 | 2 |
| 2025-06-19T08:03:00 | 53.984239 | 6.216564 | 2.0 | 15.559 | 2 | 42.077 | 15.715 | 33.612 | 2 |
| 2025-06-19T08:04:00 | 53.982791 | 6.214929 | 2.0 | 15.554 | 2 | 42.084 | 15.723 | 33.612 | 2 |
| 2025-06-19T08:05:00 | 53.981334 | 6.213296 | 2.0 | 15.555 | 2 | 42.084 | 15.721 | 33.613 | 2 |
| 2025-06-19T08:06:00 | 53.979875 | 6.211661 | 2.0 | 15.550 | 2 | 42.083 | 15.719 | 33.614 | 2 |
| 2025-06-19T08:07:00 | 53.978423 | 6.210033 | 2.0 | 15.553 | 2 | 42.079 | 15.716 | 33.613 | 2 |
| 2025-06-19T08:08:00 | 53.976985 | 6.208443 | 2.0 | 15.564 | 2 | 42.081 | 15.720 | 33.611 | 2 |
| 2025-06-19T08:09:00 | 53.975555 | 6.206822 | 2.0 | 15.570 | 2 | 42.090 | 15.729 | 33.612 | 2 |
| 2025-06-19T08:10:00 | 53.974110 | 6.205187 | 2.0 | 15.567 | 2 | 42.098 | 15.735 | 33.614 | 2 |
| 2025-06-19T08:11:00 | 53.972651 | 6.203562 | 2.0 | 15.560 | 2 | 42.098 | 15.729 | 33.619 | 2 |
| 2025-06-19T08:12:00 | 53.971196 | 6.201932 | 2.0 | 15.562 | 2 | 42.100 | 15.726 | 33.623 | 2 |
| 2025-06-19T08:13:00 | 53.969693 | 6.200515 | 2.0 | 15.569 | 2 | 42.105 | 15.729 | 33.625 | 2 |
| 2025-06-19T08:14:00 | 53.968176 | 6.199130 | 2.0 | 15.564 | 2 | 42.111 | 15.733 | 33.627 | 2 |
| 2025-06-19T08:15:00 | 53.966664 | 6.197762 | 2.0 | 15.571 | 2 | 42.110 | 15.730 | 33.629 | 2 |
| 2025-06-19T08:16:00 | 53.965149 | 6.196410 | 2.0 | 15.584 | 2 | 42.123 | 15.737 | 33.634 | 2 |
| 2025-06-19T08:17:00 | 53.963627 | 6.195064 | 2.0 | 15.601 | 2 | 42.136 | 15.752 | 33.633 | 2 |
| 2025-06-19T08:18:00 | 53.962101 | 6.193713 | 2.0 | 15.616 | 2 | 42.143 | 15.768 | 33.626 | 2 |
| 2025-06-19T08:19:00 | 53.960571 | 6.192370 | 2.0 | 15.624 | 2 | 42.144 | 15.779 | 33.617 | 2 |
| 2025-06-19T08:20:00 | 53.959053 | 6.191016 | 2.0 | 15.629 | 2 | 42.141 | 15.789 | 33.606 | 2 |
| 2025-06-19T08:21:00 | 53.957529 | 6.189749 | 2.0 | 15.615 | 2 | 42.141 | 15.789 | 33.606 | 2 |
| 2025-06-19T08:22:00 | 53.955990 | 6.188613 | 2.0 | 15.613 | 2 | 42.123 | 15.777 | 33.600 | 2 |
| 2025-06-19T08:23:00 | 53.954435 | 6.187487 | 2.0 | 15.614 | 2 | 42.108 | 15.776 | 33.588 | 2 |
| 2025-06-19T08:24:00 | 53.952866 | 6.186374 | 2.0 | 15.624 | 2 | 42.105 | 15.781 | 33.581 | 2 |
| 2025-06-19T08:25:00 | 53.951298 | 6.185263 | 2.0 | 15.623 | 2 | 42.103 | 15.787 | 33.574 | 2 |
| 2025-06-19T08:26:00 | 53.949731 | 6.184125 | 2.0 | 15.622 | 2 | 42.091 | 15.784 | 33.566 | 2 |
| 2025-06-19T08:27:00 | 53.948159 | 6.182984 | 2.0 | 15.630 | 2 | 42.087 | 15.787 | 33.560 | 2 |
| 2025-06-19T08:28:00 | 53.946586 | 6.181849 | 2.0 | 15.624 | 2 | 42.085 | 15.790 | 33.556 | 2 |
| 2025-06-19T08:29:00 | 53.945012 | 6.180733 | 2.0 | 15.613 | 2 | 42.073 | 15.786 | 33.548 | 2 |
| 2025-06-19T08:30:00 | 53.943449 | 6.179612 | 2.0 | 15.620 | 2 | 42.050 | 15.776 | 33.536 | 2 |
| 2025-06-19T08:31:00 | 53.941970 | 6.178540 | 2.0 | 15.614 | 2 | 42.048 | 15.782 | 33.529 | 2 |
| 2025-06-19T08:32:00 | 53.940686 | 6.177550 | 2.0 | 15.613 | 2 | 42.041 | 15.780 | 33.525 | 2 |
| 2025-06-19T08:33:00 | 53.939581 | 6.176648 | 2.0 | 15.602 | 2 | 42.030 | 15.776 | 33.518 | 2 |
| 2025-06-19T08:34:00 | 53.938610 | 6.175801 | 2.0 | 15.596 | 2 | 42.012 | 15.764 | 33.513 | 2 |
| 2025-06-19T08:35:00 | 53.938173 | 6.174745 | 2.0 | 15.602 | 2 | 42.002 | 15.761 | 33.506 | 2 |
| 2025-06-19T08:36:00 | 53.938125 | 6.173937 | 2.0 | 15.617 | 2 | 42.011 | 15.771 | 33.506 | 2 |
| 2025-06-19T08:37:00 | 53.938137 | 6.173501 | 2.0 | 15.623 | 2 | 42.021 | 15.782 | 33.505 | 2 |
| 2025-06-19T08:38:00 | 53.938136 | 6.173315 | 2.0 | 15.630 | 2 | 42.028 | 15.789 | 33.506 | 2 |
| 2025-06-19T08:39:00 | 53.938135 | 6.173182 | 2.0 | 15.569 | 2 | 42.030 | 15.788 | 33.508 | 2 |
| 2025-06-19T08:40:00 | 53.938122 | 6.173082 | 2.0 | 15.545 | 2 | 41.980 | 15.728 | 33.515 | 2 |
| 2025-06-19T08:41:00 | 53.938100 | 6.172990 | 2.0 | 15.558 | 2 | 41.965 | 15.715 | 33.512 | 2 |
| 2025-06-19T08:42:00 | 53.938064 | 6.172893 | 2.0 | 15.569 | 2 | 41.969 | 15.723 | 33.509 | 2 |
| 2025-06-19T08:43:00 | 53.937978 | 6.172801 | 2.0 | 15.607 | 2 | 41.980 | 15.736 | 33.508 | 2 |
| 2025-06-19T08:44:00 | 53.937921 | 6.172718 | 2.0 | 15.631 | 2 | 42.013 | 15.773 | 33.506 | 2 |
| 2025-06-19T08:45:00 | 53.937917 | 6.172661 | 2.0 | 15.632 | 2 | 42.032 | 15.792 | 33.507 | 2 |
| 2025-06-19T08:46:00 | 53.937983 | 6.172632 | 2.0 | 15.639 | 2 | 42.039 | 15.799 | 33.507 | 2 |
| 2025-06-19T08:47:00 | 53.938116 | 6.172625 | 2.0 | 15.641 | 2 | 42.042 | 15.802 | 33.507 | 2 |
| 2025-06-19T08:48:00 | 53.938260 | 6.172650 | 2.0 | 15.650 | 2 | 42.048 | 15.807 | 33.508 | 2 |
| 2025-06-19T08:49:00 | 53.938366 | 6.172700 | 2.0 | 15.661 | 2 | 42.060 | 15.817 | 33.510 | 2 |
| 2025-06-19T08:50:00 | 53.938459 | 6.172790 | 2.0 | 15.640 | 2 | 42.064 | 15.818 | 33.513 | 2 |
| 2025-06-19T08:51:00 | 53.938534 | 6.172888 | 2.0 | 15.645 | 2 | 42.048 | 15.803 | 33.512 | 2 |
| 2025-06-19T08:52:00 | 53.938580 | 6.173007 | 2.0 | 15.654 | 2 | 42.056 | 15.811 | 33.512 | 2 |
| 2025-06-19T08:53:00 | 53.938624 | 6.173134 | 2.0 | 15.664 | 2 | 42.066 | 15.818 | 33.515 | 2 |
| 2025-06-19T08:54:00 | 53.938648 | 6.173263 | 2.0 | 15.666 | 2 | 42.081 | 15.830 | 33.518 | 2 |
| 2025-06-19T08:55:00 | 53.938672 | 6.173372 | 2.0 | 15.659 | 2 | 42.079 | 15.827 | 33.519 | 2 |
| 2025-06-19T08:56:00 | 53.938684 | 6.173497 | 2.0 | 15.660 | 2 | 42.076 | 15.826 | 33.517 | 2 |
| 2025-06-19T08:57:00 | 53.938693 | 6.173596 | 2.0 | 15.667 | 2 | 42.076 | 15.825 | 33.518 | 2 |
| 2025-06-19T08:58:00 | 53.938696 | 6.173683 | 2.0 | 15.669 | 2 | 42.080 | 15.829 | 33.518 | 2 |
| 2025-06-19T08:59:00 | 53.938705 | 6.173778 | 2.0 | 15.656 | 2 | 42.081 | 15.829 | 33.519 | 2 |
| 2025-06-19T09:00:00 | 53.938711 | 6.173883 | 2.0 | 15.661 | 2 | 42.074 | 15.821 | 33.519 | 2 |
| 2025-06-19T09:01:00 | 53.938727 | 6.174001 | 2.0 | 15.656 | 2 | 42.074 | 15.821 | 33.519 | 2 |
| 2025-06-19T09:02:00 | 53.938755 | 6.174124 | 2.0 | 15.665 | 2 | 42.077 | 15.824 | 33.520 | 2 |
| 2025-06-19T09:03:00 | 53.938766 | 6.174260 | 2.0 | 15.662 | 2 | 42.080 | 15.827 | 33.520 | 2 |
| 2025-06-19T09:04:00 | 53.938768 | 6.174388 | 2.0 | 15.681 | 2 | 42.085 | 15.832 | 33.520 | 2 |
| 2025-06-19T09:05:00 | 53.938763 | 6.174506 | 2.0 | 15.669 | 2 | 42.095 | 15.842 | 33.520 | 2 |
| 2025-06-19T09:06:00 | 53.938760 | 6.174615 | 2.0 | 15.682 | 2 | 42.089 | 15.835 | 33.521 | 2 |
| 2025-06-19T09:07:00 | 53.938752 | 6.174722 | 2.0 | 15.678 | 2 | 42.095 | 15.838 | 33.524 | 2 |
| 2025-06-19T09:08:00 | 53.938747 | 6.174815 | 2.0 | 15.689 | 2 | 42.100 | 15.843 | 33.524 | 2 |
| 2025-06-19T09:09:00 | 53.938746 | 6.174899 | 2.0 | 15.700 | 2 | 42.115 | 15.857 | 33.525 | 2 |
| 2025-06-19T09:10:00 | 53.938711 | 6.174998 | 2.0 | 15.692 | 2 | 42.119 | 15.859 | 33.527 | 2 |
| 2025-06-19T09:11:00 | 53.938688 | 6.175079 | 2.0 | 15.690 | 2 | 42.114 | 15.853 | 33.528 | 2 |
| 2025-06-19T09:12:00 | 53.938675 | 6.175173 | 2.0 | 15.704 | 2 | 42.119 | 15.858 | 33.528 | 2 |
| 2025-06-19T09:13:00 | 53.938735 | 6.175253 | 2.0 | 15.694 | 2 | 42.126 | 15.863 | 33.530 | 2 |
| 2025-06-19T09:14:00 | 53.938815 | 6.175337 | 2.0 | 15.701 | 2 | 42.122 | 15.860 | 33.529 | 2 |
| 2025-06-19T09:15:00 | 53.938863 | 6.175317 | 2.0 | 15.696 | 2 | 42.126 | 15.862 | 33.531 | 2 |
| 2025-06-19T09:16:00 | 53.938859 | 6.175258 | 2.0 | 15.700 | 2 | 42.124 | 15.859 | 33.532 | 2 |
| 2025-06-19T09:17:00 | 53.938793 | 6.175191 | 2.0 | 15.710 | 2 | 42.135 | 15.869 | 33.533 | 2 |
| 2025-06-19T09:18:00 | 53.938702 | 6.175126 | 2.0 | 15.715 | 2 | 42.138 | 15.870 | 33.535 | 2 |
| 2025-06-19T09:19:00 | 53.938603 | 6.175087 | 2.0 | 15.724 | 2 | 42.148 | 15.882 | 33.534 | 2 |
| 2025-06-19T09:20:00 | 53.938497 | 6.175058 | 2.0 | 15.721 | 2 | 42.152 | 15.882 | 33.537 | 2 |
| 2025-06-19T09:21:00 | 53.938420 | 6.175038 | 2.0 | 15.732 | 2 | 42.154 | 15.885 | 33.536 | 2 |
| 2025-06-19T09:22:00 | 53.938396 | 6.174989 | 2.0 | 15.721 | 2 | 42.164 | 15.895 | 33.537 | 2 |
| 2025-06-19T09:23:00 | 53.938444 | 6.174897 | 2.0 | 15.728 | 2 | 42.154 | 15.884 | 33.537 | 2 |
| 2025-06-19T09:24:00 | 53.938554 | 6.174770 | 2.0 | 15.724 | 2 | 42.158 | 15.888 | 33.537 | 2 |
| 2025-06-19T09:25:00 | 53.938610 | 6.174688 | 2.0 | 15.737 | 2 | 42.160 | 15.889 | 33.538 | 2 |
| 2025-06-19T09:26:00 | 53.938640 | 6.174611 | 2.0 | 15.741 | 2 | 42.172 | 15.901 | 33.539 | 2 |
| 2025-06-19T09:27:00 | 53.938617 | 6.174565 | 2.0 | 15.727 | 2 | 42.172 | 15.898 | 33.541 | 2 |
| 2025-06-19T09:28:00 | 53.938547 | 6.174540 | 2.0 | 15.711 | 2 | 42.161 | 15.887 | 33.541 | 2 |
| 2025-06-19T09:29:00 | 53.938459 | 6.174535 | 2.0 | 15.747 | 2 | 42.153 | 15.882 | 33.538 | 2 |
| 2025-06-19T09:30:00 | 53.938382 | 6.174557 | 2.0 | 15.769 | 2 | 42.181 | 15.910 | 33.539 | 2 |
| 2025-06-19T09:31:00 | 53.938380 | 6.174581 | 2.0 | 15.756 | 2 | 42.200 | 15.928 | 33.541 | 2 |
| 2025-06-19T09:32:00 | 53.938381 | 6.174632 | 2.0 | 15.752 | 2 | 42.189 | 15.915 | 33.542 | 2 |
| 2025-06-19T09:33:00 | 53.938411 | 6.174664 | 2.0 | 15.761 | 2 | 42.191 | 15.917 | 33.542 | 2 |
| 2025-06-19T09:34:00 | 53.938438 | 6.174655 | 2.0 | 15.763 | 2 | 42.197 | 15.922 | 33.543 | 2 |
| 2025-06-19T09:35:00 | 53.938484 | 6.174625 | 2.0 | 15.751 | 2 | 42.197 | 15.920 | 33.545 | 2 |
| 2025-06-19T09:36:00 | 53.938524 | 6.174599 | 2.0 | 15.765 | 2 | 42.193 | 15.915 | 33.546 | 2 |
| 2025-06-19T09:37:00 | 53.938543 | 6.174575 | 2.0 | 15.759 | 2 | 42.205 | 15.928 | 33.545 | 2 |
| 2025-06-19T09:38:00 | 53.938567 | 6.174560 | 2.0 | 15.778 | 2 | 42.208 | 15.930 | 33.546 | 2 |
| 2025-06-19T09:39:00 | 53.938572 | 6.174563 | 2.0 | 15.770 | 2 | 42.228 | 15.949 | 33.548 | 2 |
| 2025-06-19T09:40:00 | 53.938575 | 6.174574 | 2.0 | 15.768 | 2 | 42.226 | 15.947 | 33.548 | 2 |
| 2025-06-19T09:41:00 | 53.938572 | 6.174600 | 2.0 | 15.777 | 2 | 42.227 | 15.948 | 33.548 | 2 |
| 2025-06-19T09:42:00 | 53.938544 | 6.174635 | 2.0 | 15.778 | 2 | 42.238 | 15.957 | 33.550 | 2 |
| 2025-06-19T09:43:00 | 53.938554 | 6.174640 | 2.0 | 15.777 | 2 | 42.242 | 15.959 | 33.552 | 2 |
| 2025-06-19T09:44:00 | 53.938605 | 6.174597 | 2.0 | 15.777 | 2 | 42.243 | 15.958 | 33.554 | 2 |
| 2025-06-19T09:45:00 | 53.938666 | 6.174559 | 2.0 | 15.777 | 2 | 42.243 | 15.956 | 33.555 | 2 |
| 2025-06-19T09:46:00 | 53.938656 | 6.174537 | 2.0 | 15.772 | 2 | 42.246 | 15.958 | 33.556 | 2 |
| 2025-06-19T09:47:00 | 53.938626 | 6.174520 | 2.0 | 15.768 | 2 | 42.245 | 15.956 | 33.557 | 2 |
| 2025-06-19T09:48:00 | 53.938632 | 6.174483 | 2.0 | 15.773 | 2 | 42.240 | 15.950 | 33.558 | 2 |
| 2025-06-19T09:49:00 | 53.938583 | 6.174445 | 2.0 | 15.788 | 2 | 42.250 | 15.960 | 33.558 | 2 |
| 2025-06-19T09:50:00 | 53.938539 | 6.174391 | 2.0 | 15.783 | 2 | 42.264 | 15.972 | 33.560 | 2 |
| 2025-06-19T09:51:00 | 53.938462 | 6.174360 | 2.0 | 15.762 | 2 | 42.254 | 15.960 | 33.562 | 2 |
| 2025-06-19T09:52:00 | 53.938462 | 6.174363 | 2.0 | 15.757 | 2 | 42.239 | 15.948 | 33.558 | 2 |
| 2025-06-19T09:53:00 | 53.938416 | 6.174382 | 2.0 | 15.751 | 2 | 42.236 | 15.943 | 33.560 | 2 |
| 2025-06-19T09:54:00 | 53.938348 | 6.174378 | 2.0 | 15.724 | 2 | 42.225 | 15.931 | 33.560 | 2 |
| 2025-06-19T09:55:00 | 53.938574 | 6.174337 | 2.0 | 15.714 | 2 | 42.207 | 15.912 | 33.561 | 2 |
| 2025-06-19T09:56:00 | 53.938915 | 6.174341 | 2.0 | 15.724 | 2 | 42.191 | 15.895 | 33.561 | 2 |
| 2025-06-19T09:57:00 | 53.939080 | 6.174320 | 2.0 | 15.736 | 2 | 42.201 | 15.908 | 33.559 | 2 |
| 2025-06-19T09:58:00 | 53.939120 | 6.174286 | 2.0 | 15.660 | 2 | 42.196 | 15.899 | 33.562 | 2 |
| 2025-06-19T09:59:00 | 53.939089 | 6.174278 | 2.0 | 15.775 | 2 | 42.184 | 15.894 | 33.555 | 2 |
| 2025-06-19T10:00:00 | 53.939010 | 6.174287 | 2.0 | 15.768 | 2 | 42.244 | 15.950 | 33.561 | 2 |
| 2025-06-19T10:01:00 | 53.938930 | 6.174285 | 2.0 | 15.692 | 2 | 42.240 | 15.943 | 33.564 | 2 |
| 2025-06-19T10:02:00 | 53.938895 | 6.174207 | 2.0 | 15.700 | 2 | 42.190 | 15.892 | 33.562 | 2 |
| 2025-06-19T10:03:00 | 53.938816 | 6.174128 | 2.0 | 15.710 | 2 | 42.189 | 15.893 | 33.561 | 2 |
| 2025-06-19T10:04:00 | 53.938703 | 6.174099 | 2.0 | 15.701 | 2 | 42.196 | 15.899 | 33.562 | 2 |
| 2025-06-19T10:05:00 | 53.938553 | 6.174106 | 2.0 | 15.691 | 2 | 42.177 | 15.885 | 33.557 | 2 |
| 2025-06-19T10:06:00 | 53.938408 | 6.174048 | 2.0 | 15.685 | 2 | 42.179 | 15.883 | 33.560 | 2 |
| 2025-06-19T10:07:00 | 53.938302 | 6.173856 | 2.0 | 15.653 | 2 | 42.164 | 15.867 | 33.560 | 2 |
| 2025-06-19T10:08:00 | 53.938278 | 6.173715 | 2.0 | 15.655 | 2 | 42.142 | 15.844 | 33.560 | 2 |
| 2025-06-19T10:09:00 | 53.938308 | 6.173845 | 2.0 | 15.736 | 2 | 42.164 | 15.870 | 33.558 | 2 |
| 2025-06-19T10:10:00 | 53.938401 | 6.174009 | 2.0 | 15.849 | 2 | 42.230 | 15.942 | 33.556 | 2 |
| 2025-06-19T10:11:00 | 53.938534 | 6.174105 | 2.0 | 15.859 | 2 | 42.326 | 16.034 | 33.563 | 2 |
| 2025-06-19T10:12:00 | 53.938650 | 6.174162 | 2.0 | 15.842 | 2 | 42.341 | 16.043 | 33.568 | 2 |
| 2025-06-19T10:13:00 | 53.938774 | 6.174220 | 2.0 | 15.850 | 2 | 42.331 | 16.035 | 33.566 | 2 |
| 2025-06-19T10:14:00 | 53.938898 | 6.174280 | 2.0 | 15.866 | 2 | 42.338 | 16.043 | 33.566 | 2 |
| 2025-06-19T10:15:00 | 53.938999 | 6.174357 | 2.0 | 15.854 | 2 | 42.354 | 16.057 | 33.568 | 2 |
| 2025-06-19T10:16:00 | 53.939080 | 6.174460 | 2.0 | 15.868 | 2 | 42.346 | 16.048 | 33.569 | 2 |
| 2025-06-19T10:17:00 | 53.939144 | 6.174597 | 2.0 | 15.875 | 2 | 42.362 | 16.065 | 33.568 | 2 |
| 2025-06-19T10:18:00 | 53.939200 | 6.174734 | 2.0 | 15.877 | 2 | 42.365 | 16.065 | 33.571 | 2 |
| 2025-06-19T10:19:00 | 53.939259 | 6.174855 | 2.0 | 15.886 | 2 | 42.372 | 16.073 | 33.571 | 2 |
| 2025-06-19T10:20:00 | 53.939499 | 6.174979 | 2.0 | 15.855 | 2 | 42.368 | 16.068 | 33.571 | 2 |
| 2025-06-19T10:21:00 | 53.940007 | 6.175434 | 2.0 | 15.838 | 2 | 42.343 | 16.040 | 33.573 | 2 |
| 2025-06-19T10:22:00 | 53.940747 | 6.175893 | 2.0 | 15.862 | 2 | 42.340 | 16.039 | 33.571 | 2 |
| 2025-06-19T10:23:00 | 53.941674 | 6.176395 | 2.0 | 15.839 | 2 | 42.354 | 16.049 | 33.575 | 2 |
| 2025-06-19T10:24:00 | 53.942808 | 6.176984 | 2.0 | 15.896 | 2 | 42.352 | 16.045 | 33.576 | 2 |
| 2025-06-19T10:25:00 | 53.944141 | 6.177824 | 2.0 | 15.876 | 2 | 42.379 | 16.078 | 33.572 | 2 |
| 2025-06-19T10:26:00 | 53.945458 | 6.179184 | 2.0 | 15.865 | 2 | 42.355 | 16.046 | 33.578 | 2 |
| 2025-06-19T10:27:00 | 53.946651 | 6.181074 | 2.0 | 15.856 | 2 | 42.339 | 16.037 | 33.572 | 2 |
| 2025-06-19T10:28:00 | 53.947838 | 6.183141 | 2.0 | 15.886 | 2 | 42.328 | 16.032 | 33.566 | 2 |
| 2025-06-19T10:29:00 | 53.949075 | 6.185212 | 2.0 | 15.908 | 2 | 42.349 | 16.061 | 33.560 | 2 |
| 2025-06-19T10:30:00 | 53.950657 | 6.187810 | 2.0 | 15.878 | 2 | 42.358 | 16.079 | 33.553 | 2 |
| 2025-06-19T10:31:00 | 53.952441 | 6.190884 | 2.0 | 15.865 | 2 | 42.313 | 16.052 | 33.536 | 2 |
| 2025-06-19T10:32:00 | 53.954321 | 6.194063 | 2.0 | 15.871 | 2 | 42.295 | 16.041 | 33.529 | 2 |
| 2025-06-19T10:33:00 | 53.956235 | 6.197288 | 2.0 | 15.819 | 2 | 42.276 | 16.045 | 33.509 | 2 |
| 2025-06-19T10:34:00 | 53.958155 | 6.200528 | 2.0 | 15.796 | 2 | 42.211 | 15.994 | 33.495 | 2 |
| 2025-06-19T10:35:00 | 53.960079 | 6.203823 | 2.0 | 15.785 | 2 | 42.171 | 15.973 | 33.477 | 2 |
| 2025-06-19T10:36:00 | 53.962019 | 6.207146 | 2.0 | 15.778 | 2 | 42.153 | 15.962 | 33.470 | 2 |
| 2025-06-19T10:37:00 | 53.963948 | 6.210480 | 2.0 | 15.712 | 2 | 42.128 | 15.937 | 33.469 | 2 |
| 2025-06-19T10:38:00 | 53.965903 | 6.213761 | 2.0 | 15.772 | 2 | 42.102 | 15.915 | 33.465 | 2 |
| 2025-06-19T10:39:00 | 53.967858 | 6.217062 | 2.0 | 15.766 | 2 | 42.137 | 15.934 | 33.480 | 2 |
| 2025-06-19T10:40:00 | 53.969802 | 6.220379 | 2.0 | 15.789 | 2 | 42.165 | 15.944 | 33.496 | 2 |
| 2025-06-19T10:41:00 | 53.971741 | 6.223688 | 2.0 | 15.653 | 2 | 42.180 | 15.945 | 33.509 | 2 |
| 2025-06-19T10:42:00 | 53.973686 | 6.226927 | 2.0 | 15.707 | 2 | 42.082 | 15.844 | 33.507 | 2 |
| 2025-06-19T10:43:00 | 53.975612 | 6.230186 | 2.0 | 15.648 | 2 | 42.100 | 15.871 | 33.500 | 2 |
| 2025-06-19T10:44:00 | 53.977530 | 6.233528 | 2.0 | 15.713 | 2 | 42.077 | 15.841 | 33.505 | 2 |
| 2025-06-19T10:45:00 | 53.979463 | 6.236863 | 2.0 | 15.617 | 2 | 42.117 | 15.865 | 33.520 | 2 |
| 2025-06-19T10:46:00 | 53.981392 | 6.240173 | 2.0 | 15.626 | 2 | 42.079 | 15.811 | 33.532 | 2 |
| 2025-06-19T10:47:00 | 53.983342 | 6.243417 | 2.0 | 15.619 | 2 | 42.070 | 15.790 | 33.542 | 2 |
| 2025-06-19T10:48:00 | 53.985261 | 6.246709 | 2.0 | 15.608 | 2 | 42.081 | 15.795 | 33.548 | 2 |
| 2025-06-19T10:49:00 | 53.987206 | 6.249988 | 2.0 | 15.696 | 2 | 42.103 | 15.798 | 33.565 | 2 |
| 2025-06-19T10:50:00 | 53.989125 | 6.253258 | 2.0 | 15.667 | 2 | 42.171 | 15.846 | 33.585 | 2 |
| 2025-06-19T10:51:00 | 53.991049 | 6.256480 | 2.0 | 15.742 | 2 | 42.183 | 15.850 | 33.592 | 2 |
| 2025-06-19T10:52:00 | 53.992993 | 6.259676 | 2.0 | 15.678 | 2 | 42.252 | 15.923 | 33.591 | 2 |
| 2025-06-19T10:53:00 | 53.994949 | 6.262960 | 2.0 | 15.643 | 2 | 42.183 | 15.861 | 33.582 | 2 |
| 2025-06-19T10:54:00 | 53.996924 | 6.266248 | 2.0 | 15.802 | 2 | 42.133 | 15.848 | 33.549 | 2 |
| 2025-06-19T10:55:00 | 53.998897 | 6.269541 | 2.0 | 15.762 | 2 | 42.187 | 15.940 | 33.519 | 2 |
| 2025-06-19T10:56:00 | 54.000852 | 6.272883 | 2.0 | 15.704 | 2 | 42.155 | 15.926 | 33.502 | 2 |
| 2025-06-19T10:57:00 | 54.002830 | 6.276279 | 2.0 | 15.871 | 2 | 42.100 | 15.897 | 33.478 | 2 |
| 2025-06-19T10:58:00 | 54.004816 | 6.279642 | 2.0 | 15.820 | 2 | 42.187 | 16.026 | 33.446 | 2 |
| 2025-06-19T10:59:00 | 54.006813 | 6.282949 | 2.0 | 15.897 | 2 | 42.144 | 15.996 | 33.434 | 2 |
| 2025-06-19T11:00:00 | 54.008783 | 6.286281 | 2.0 | 15.911 | 2 | 42.175 | 16.078 | 33.392 | 2 |
| 2025-06-19T11:01:00 | 54.010750 | 6.289613 | 2.0 | 15.876 | 2 | 42.154 | 16.067 | 33.383 | 2 |
| 2025-06-19T11:02:00 | 54.012705 | 6.292997 | 2.0 | 15.919 | 2 | 42.135 | 16.053 | 33.378 | 2 |
| 2025-06-19T11:03:00 | 54.014814 | 6.296032 | 2.0 | 15.874 | 2 | 42.145 | 16.065 | 33.376 | 2 |
| 2025-06-19T11:04:00 | 54.017289 | 6.298024 | 2.0 | 15.842 | 2 | 42.116 | 16.054 | 33.360 | 2 |
| 2025-06-19T11:05:00 | 54.019725 | 6.300160 | 2.0 | 15.938 | 2 | 42.085 | 16.014 | 33.366 | 2 |
| 2025-06-19T11:06:00 | 54.022174 | 6.302275 | 2.0 | 15.917 | 2 | 42.140 | 16.090 | 33.351 | 2 |
| 2025-06-19T11:07:00 | 54.024625 | 6.304424 | 2.0 | 15.930 | 2 | 42.127 | 16.095 | 33.335 | 2 |
| 2025-06-19T11:08:00 | 54.027090 | 6.306547 | 2.0 | 15.941 | 2 | 42.131 | 16.099 | 33.335 | 2 |
| 2025-06-19T11:09:00 | 54.029553 | 6.308695 | 2.0 | 15.891 | 2 | 42.134 | 16.104 | 33.334 | 2 |
| 2025-06-19T11:10:00 | 54.032004 | 6.310851 | 2.0 | 15.887 | 2 | 42.103 | 16.062 | 33.342 | 2 |
| 2025-06-19T11:11:00 | 54.034135 | 6.312328 | 2.0 | 15.934 | 2 | 42.118 | 16.068 | 33.350 | 2 |
| 2025-06-19T11:12:00 | 54.035743 | 6.313463 | 2.0 | 15.959 | 2 | 42.156 | 16.106 | 33.352 | 2 |
| 2025-06-19T11:13:00 | 54.036897 | 6.314597 | 2.0 | 15.952 | 2 | 42.182 | 16.128 | 33.356 | 2 |
| 2025-06-19T11:14:00 | 54.037724 | 6.315725 | 2.0 | 15.981 | 2 | 42.183 | 16.127 | 33.358 | 2 |
| 2025-06-19T11:15:00 | 54.038383 | 6.316649 | 2.0 | 15.980 | 2 | 42.208 | 16.146 | 33.364 | 2 |
| 2025-06-19T11:16:00 | 54.038835 | 6.316963 | 2.0 | 15.964 | 2 | 42.217 | 16.146 | 33.372 | 2 |
| 2025-06-19T11:17:00 | 54.038956 | 6.316947 | 2.0 | 15.885 | 2 | 42.188 | 16.109 | 33.377 | 2 |
| 2025-06-19T11:18:00 | 54.038913 | 6.316846 | 2.0 | 15.884 | 2 | 42.136 | 16.057 | 33.375 | 2 |
| 2025-06-19T11:19:00 | 54.038843 | 6.316747 | 2.0 | 15.923 | 2 | 42.137 | 16.062 | 33.372 | 2 |
| 2025-06-19T11:20:00 | 54.038839 | 6.316619 | 2.0 | 15.940 | 2 | 42.165 | 16.090 | 33.373 | 2 |
| 2025-06-19T11:21:00 | 54.038869 | 6.316481 | 2.0 | 15.929 | 2 | 42.181 | 16.108 | 33.372 | 2 |
| 2025-06-19T11:22:00 | 54.038862 | 6.316407 | 2.0 | 15.957 | 2 | 42.173 | 16.101 | 33.371 | 2 |
| 2025-06-19T11:23:00 | 54.038820 | 6.316333 | 2.0 | 16.012 | 2 | 42.203 | 16.136 | 33.368 | 2 |
| 2025-06-19T11:24:00 | 54.038770 | 6.316265 | 2.0 | 16.020 | 2 | 42.244 | 16.177 | 33.370 | 2 |
| 2025-06-19T11:25:00 | 54.038721 | 6.316209 | 2.0 | 16.001 | 2 | 42.254 | 16.186 | 33.371 | 2 |
| 2025-06-19T11:26:00 | 54.038710 | 6.316128 | 2.0 | 16.009 | 2 | 42.242 | 16.173 | 33.371 | 2 |
| 2025-06-19T11:27:00 | 54.038822 | 6.316026 | 2.0 | 16.088 | 2 | 42.252 | 16.185 | 33.370 | 2 |
| 2025-06-19T11:28:00 | 54.038974 | 6.316397 | 2.0 | 16.027 | 2 | 42.314 | 16.249 | 33.371 | 2 |
| 2025-06-19T11:29:00 | 54.038696 | 6.317414 | 2.0 | 15.868 | 2 | 42.215 | 16.131 | 33.383 | 2 |
| 2025-06-19T11:30:00 | 54.037697 | 6.318070 | 2.0 | 15.919 | 2 | 42.131 | 16.068 | 33.361 | 2 |
| 2025-06-19T11:31:00 | 54.036173 | 6.318696 | 2.0 | 15.967 | 2 | 42.164 | 16.106 | 33.359 | 2 |
| 2025-06-19T11:32:00 | 54.033931 | 6.319170 | 2.0 | 15.995 | 2 | 42.190 | 16.138 | 33.355 | 2 |
| 2025-06-19T11:33:00 | 54.031303 | 6.319866 | 2.0 | 15.953 | 2 | 42.203 | 16.150 | 33.356 | 2 |
| 2025-06-19T11:34:00 | 54.028555 | 6.320541 | 2.0 | 15.926 | 2 | 42.177 | 16.128 | 33.352 | 2 |
| 2025-06-19T11:35:00 | 54.025778 | 6.321207 | 2.0 | 15.940 | 2 | 42.128 | 16.101 | 33.331 | 2 |
| 2025-06-19T11:36:00 | 54.022982 | 6.321897 | 2.0 | 15.981 | 2 | 42.134 | 16.113 | 33.326 | 2 |
| 2025-06-19T11:37:00 | 54.020177 | 6.322542 | 2.0 | 15.986 | 2 | 42.153 | 16.140 | 33.320 | 2 |
| 2025-06-19T11:38:00 | 54.017394 | 6.323209 | 2.0 | 16.029 | 2 | 42.172 | 16.166 | 33.315 | 2 |
| 2025-06-19T11:39:00 | 54.014661 | 6.323932 | 2.0 | 16.025 | 2 | 42.201 | 16.190 | 33.321 | 2 |
| 2025-06-19T11:40:00 | 54.012304 | 6.324561 | 2.0 | 16.081 | 2 | 42.199 | 16.207 | 33.305 | 2 |
| 2025-06-19T11:41:00 | 54.010368 | 6.325060 | 2.0 | 16.055 | 2 | 42.238 | 16.237 | 33.314 | 2 |
| 2025-06-19T11:42:00 | 54.008645 | 6.325386 | 2.0 | 16.101 | 2 | 42.218 | 16.204 | 33.324 | 2 |
| 2025-06-19T11:43:00 | 54.007062 | 6.325862 | 2.0 | 16.140 | 2 | 42.274 | 16.268 | 33.320 | 2 |
| 2025-06-19T11:44:00 | 54.005670 | 6.326338 | 2.0 | 15.924 | 2 | 42.306 | 16.288 | 33.331 | 2 |
| 2025-06-19T11:45:00 | 54.004472 | 6.326705 | 2.0 | 15.938 | 2 | 42.155 | 16.088 | 33.366 | 2 |
| 2025-06-19T11:46:00 | 54.003445 | 6.327008 | 2.0 | 15.874 | 2 | 42.130 | 16.073 | 33.356 | 2 |
| 2025-06-19T11:47:00 | 54.002542 | 6.327318 | 2.0 | 15.963 | 2 | 42.105 | 16.050 | 33.354 | 2 |
| 2025-06-19T11:48:00 | 54.001793 | 6.327482 | 2.0 | 15.970 | 2 | 42.174 | 16.134 | 33.344 | 2 |
| 2025-06-19T11:49:00 | 54.001578 | 6.327208 | 2.0 | 15.894 | 2 | 42.159 | 16.104 | 33.356 | 2 |
| 2025-06-19T11:50:00 | 54.001629 | 6.327045 | 2.0 | 15.910 | 2 | 42.105 | 16.060 | 33.345 | 2 |
| 2025-06-19T11:51:00 | 54.001683 | 6.326910 | 2.0 | 15.987 | 2 | 42.139 | 16.104 | 33.338 | 2 |
| 2025-06-19T11:52:00 | 54.001696 | 6.326785 | 2.0 | 16.020 | 2 | 42.188 | 16.142 | 33.350 | 2 |
| 2025-06-19T11:53:00 | 54.001680 | 6.326705 | 2.0 | 16.116 | 2 | 42.259 | 16.216 | 33.350 | 2 |
| 2025-06-19T11:54:00 | 54.001666 | 6.326659 | 2.0 | 16.185 | 2 | 42.323 | 16.280 | 33.353 | 2 |
| 2025-06-19T11:55:00 | 54.001655 | 6.326625 | 2.0 | 16.186 | 2 | 42.381 | 16.340 | 33.354 | 2 |
| 2025-06-19T11:56:00 | 54.001662 | 6.326595 | 2.0 | 16.229 | 2 | 42.402 | 16.360 | 33.356 | 2 |
| 2025-06-19T11:57:00 | 54.001671 | 6.326572 | 2.0 | 16.207 | 2 | 42.432 | 16.392 | 33.355 | 2 |
| 2025-06-19T11:58:00 | 54.001687 | 6.326538 | 2.0 | 16.219 | 2 | 42.425 | 16.385 | 33.355 | 2 |
| 2025-06-19T11:59:00 | 54.001700 | 6.326492 | 2.0 | 16.179 | 2 | 42.406 | 16.360 | 33.359 | 2 |
| 2025-06-19T12:00:00 | 54.001731 | 6.326429 | 2.0 | 16.066 | 2 | 42.363 | 16.309 | 33.364 | 2 |
| 2025-06-19T12:01:00 | 54.001787 | 6.326342 | 2.0 | 16.050 | 2 | 42.294 | 16.240 | 33.361 | 2 |
| 2025-06-19T12:02:00 | 54.001835 | 6.326261 | 2.0 | 16.004 | 2 | 42.252 | 16.197 | 33.360 | 2 |
| 2025-06-19T12:03:00 | 54.001901 | 6.326175 | 2.0 | 16.026 | 2 | 42.237 | 16.184 | 33.358 | 2 |
| 2025-06-19T12:04:00 | 54.001932 | 6.326162 | 2.0 | 16.046 | 2 | 42.255 | 16.200 | 33.360 | 2 |
| 2025-06-19T12:05:00 | 54.001915 | 6.326243 | 2.0 | 16.137 | 2 | 42.291 | 16.243 | 33.356 | 2 |
| 2025-06-19T12:06:00 | 54.001863 | 6.326420 | 2.0 | 16.114 | 2 | 42.339 | 16.289 | 33.360 | 2 |
| 2025-06-19T12:07:00 | 54.001796 | 6.326620 | 2.0 | 16.128 | 2 | 42.330 | 16.274 | 33.364 | 2 |
| 2025-06-19T12:08:00 | 54.001721 | 6.326796 | 2.0 | 16.106 | 2 | 42.334 | 16.280 | 33.363 | 2 |
| 2025-06-19T12:09:00 | 54.001661 | 6.326907 | 2.0 | 16.224 | 2 | 42.347 | 16.305 | 33.353 | 2 |
| 2025-06-19T12:10:00 | 54.001627 | 6.326958 | 2.0 | 16.159 | 2 | 42.424 | 16.373 | 33.364 | 2 |
| 2025-06-19T12:11:00 | 54.001650 | 6.326962 | 2.0 | 16.186 | 2 | 42.382 | 16.329 | 33.364 | 2 |
| 2025-06-19T12:12:00 | 54.001700 | 6.326920 | 2.0 | 16.103 | 2 | 42.400 | 16.344 | 33.367 | 2 |
| 2025-06-19T12:13:00 | 54.001756 | 6.326817 | 2.0 | 16.029 | 2 | 42.330 | 16.268 | 33.369 | 2 |
| 2025-06-19T12:14:00 | 54.001828 | 6.326726 | 2.0 | 16.013 | 2 | 42.250 | 16.188 | 33.366 | 2 |
| 2025-06-19T12:15:00 | 54.001879 | 6.326700 | 2.0 | 16.066 | 2 | 42.241 | 16.183 | 33.362 | 2 |
| 2025-06-19T12:16:00 | 54.001890 | 6.326761 | 2.0 | 16.166 | 2 | 42.318 | 16.261 | 33.365 | 2 |
| 2025-06-19T12:17:00 | 54.001872 | 6.326856 | 2.0 | 16.179 | 2 | 42.389 | 16.338 | 33.362 | 2 |
| 2025-06-19T12:18:00 | 54.001842 | 6.326882 | 2.0 | 16.157 | 2 | 42.405 | 16.342 | 33.373 | 2 |
| 2025-06-19T12:19:00 | 54.001820 | 6.326907 | 2.0 | 16.193 | 2 | 42.401 | 16.337 | 33.374 | 2 |
| 2025-06-19T12:20:00 | 54.001811 | 6.326930 | 2.0 | 16.157 | 2 | 42.420 | 16.354 | 33.376 | 2 |
| 2025-06-19T12:21:00 | 54.001815 | 6.326949 | 2.0 | 16.135 | 2 | 42.388 | 16.322 | 33.375 | 2 |
| 2025-06-19T12:22:00 | 54.001845 | 6.326922 | 2.0 | 16.121 | 2 | 42.376 | 16.312 | 33.373 | 2 |
| 2025-06-19T12:23:00 | 54.001866 | 6.326911 | 2.0 | 16.115 | 2 | 42.351 | 16.286 | 33.373 | 2 |
| 2025-06-19T12:24:00 | 54.001842 | 6.326883 | 2.0 | 16.121 | 2 | 42.337 | 16.271 | 33.373 | 2 |
| 2025-06-19T12:25:00 | 54.001820 | 6.326821 | 2.0 | 16.092 | 2 | 42.349 | 16.280 | 33.376 | 2 |
| 2025-06-19T12:26:00 | 54.001815 | 6.326743 | 2.0 | 16.032 | 2 | 42.315 | 16.235 | 33.384 | 2 |
| 2025-06-19T12:27:00 | 54.001838 | 6.326641 | 2.0 | 16.102 | 2 | 42.297 | 16.220 | 33.380 | 2 |
| 2025-06-19T12:28:00 | 54.001865 | 6.326583 | 2.0 | 16.118 | 2 | 42.330 | 16.259 | 33.377 | 2 |
| 2025-06-19T12:29:00 | 54.001832 | 6.326556 | 2.0 | 16.114 | 2 | 42.355 | 16.280 | 33.381 | 2 |
| 2025-06-19T12:30:00 | 54.001785 | 6.326569 | 2.0 | 16.109 | 2 | 42.357 | 16.278 | 33.385 | 2 |
| 2025-06-19T12:31:00 | 54.001760 | 6.326606 | 2.0 | 16.141 | 2 | 42.366 | 16.287 | 33.385 | 2 |
| 2025-06-19T12:32:00 | 54.001737 | 6.326673 | 2.0 | 16.200 | 2 | 42.391 | 16.314 | 33.384 | 2 |
| 2025-06-19T12:33:00 | 54.001733 | 6.326739 | 2.0 | 16.162 | 2 | 42.433 | 16.357 | 33.385 | 2 |
| 2025-06-19T12:34:00 | 54.001719 | 6.326743 | 2.0 | 16.179 | 2 | 42.398 | 16.316 | 33.389 | 2 |
| 2025-06-19T12:35:00 | 54.001704 | 6.326727 | 2.0 | 16.023 | 2 | 42.376 | 16.292 | 33.390 | 2 |
| 2025-06-19T12:36:00 | 54.001699 | 6.326677 | 2.0 | 16.041 | 2 | 42.316 | 16.228 | 33.390 | 2 |
| 2025-06-19T12:37:00 | 54.001705 | 6.326581 | 2.0 | 16.072 | 2 | 42.318 | 16.229 | 33.391 | 2 |
| 2025-06-19T12:38:00 | 54.001491 | 6.326401 | 2.0 | 16.186 | 2 | 42.372 | 16.293 | 33.385 | 2 |
| 2025-06-19T12:39:00 | 54.001103 | 6.325723 | 2.0 | 16.127 | 2 | 42.405 | 16.313 | 33.398 | 2 |
| 2025-06-19T12:40:00 | 54.000614 | 6.324430 | 2.0 | 16.129 | 2 | 42.379 | 16.282 | 33.401 | 2 |
| 2025-06-19T12:41:00 | 54.000027 | 6.322656 | 2.0 | 16.146 | 2 | 42.399 | 16.297 | 33.406 | 2 |
| 2025-06-19T12:42:00 | 53.999262 | 6.320570 | 2.0 | 16.219 | 2 | 42.430 | 16.319 | 33.414 | 2 |
| 2025-06-19T12:43:00 | 53.998265 | 6.318149 | 2.0 | 16.145 | 2 | 42.497 | 16.381 | 33.421 | 2 |
| 2025-06-19T12:44:00 | 53.996997 | 6.315208 | 2.0 | 16.104 | 2 | 42.422 | 16.296 | 33.427 | 2 |
| 2025-06-19T12:45:00 | 53.995648 | 6.312046 | 2.0 | 16.033 | 2 | 42.362 | 16.255 | 33.408 | 2 |
| 2025-06-19T12:46:00 | 53.994202 | 6.308734 | 2.0 | 16.055 | 2 | 42.300 | 16.182 | 33.415 | 2 |
| 2025-06-19T12:47:00 | 53.992750 | 6.305343 | 2.0 | 16.064 | 2 | 42.365 | 16.222 | 33.439 | 2 |
| 2025-06-19T12:48:00 | 53.991283 | 6.301902 | 2.0 | 15.700 | 2 | 42.369 | 16.151 | 33.502 | 2 |
| 2025-06-19T12:49:00 | 53.989759 | 6.298533 | 2.0 | 15.690 | 2 | 42.197 | 15.901 | 33.561 | 2 |
| 2025-06-19T12:50:00 | 53.988282 | 6.295081 | 2.0 | 15.773 | 2 | 42.188 | 15.878 | 33.572 | 2 |
| 2025-06-19T12:51:00 | 53.986756 | 6.291604 | 2.0 | 16.116 | 2 | 42.292 | 15.986 | 33.573 | 2 |
| 2025-06-19T12:52:00 | 53.985265 | 6.288095 | 2.0 | 15.826 | 2 | 42.504 | 16.183 | 33.594 | 2 |
| 2025-06-19T12:53:00 | 53.983758 | 6.284575 | 2.0 | 15.805 | 2 | 42.348 | 16.022 | 33.592 | 2 |
| 2025-06-19T12:54:00 | 53.982203 | 6.281112 | 2.0 | 15.877 | 2 | 42.300 | 15.995 | 33.573 | 2 |
| 2025-06-19T12:55:00 | 53.980731 | 6.277582 | 2.0 | 15.865 | 2 | 42.324 | 16.050 | 33.547 | 2 |
| 2025-06-19T12:56:00 | 53.979240 | 6.274070 | 2.0 | 15.876 | 2 | 42.287 | 16.018 | 33.542 | 2 |
| 2025-06-19T12:57:00 | 53.977773 | 6.270526 | 2.0 | 15.971 | 2 | 42.305 | 16.063 | 33.520 | 2 |
| 2025-06-19T12:58:00 | 53.976277 | 6.267021 | 2.0 | 15.978 | 2 | 42.350 | 16.116 | 33.515 | 2 |
| 2025-06-19T12:59:00 | 53.974747 | 6.263533 | 2.0 | 15.912 | 2 | 42.354 | 16.134 | 33.503 | 2 |
| 2025-06-19T13:00:00 | 53.973243 | 6.260031 | 2.0 | 16.003 | 2 | 42.334 | 16.106 | 33.509 | 2 |
| 2025-06-19T13:01:00 | 53.971781 | 6.256518 | 2.0 | 16.174 | 2 | 42.406 | 16.194 | 33.498 | 2 |
| 2025-06-19T13:02:00 | 53.970272 | 6.253045 | 2.0 | 16.200 | 2 | 42.528 | 16.341 | 33.482 | 2 |
| 2025-06-19T13:03:00 | 53.968787 | 6.249556 | 2.0 | 16.041 | 2 | 42.504 | 16.319 | 33.480 | 2 |
| 2025-06-19T13:04:00 | 53.967307 | 6.246103 | 2.0 | 15.918 | 2 | 42.393 | 16.215 | 33.469 | 2 |
| 2025-06-19T13:05:00 | 53.965823 | 6.242675 | 2.0 | 15.961 | 2 | 42.279 | 16.100 | 33.465 | 2 |
| 2025-06-19T13:06:00 | 53.964370 | 6.239223 | 2.0 | 15.984 | 2 | 42.317 | 16.136 | 33.469 | 2 |
| 2025-06-19T13:07:00 | 53.962906 | 6.235786 | 2.0 | 15.975 | 2 | 42.373 | 16.158 | 33.500 | 2 |
| 2025-06-19T13:08:00 | 53.961436 | 6.232348 | 2.0 | 16.010 | 2 | 42.381 | 16.151 | 33.513 | 2 |
| 2025-06-19T13:09:00 | 53.959928 | 6.228943 | 2.0 | 16.095 | 2 | 42.442 | 16.201 | 33.524 | 2 |
| 2025-06-19T13:10:00 | 53.958457 | 6.225492 | 2.0 | 16.110 | 2 | 42.558 | 16.288 | 33.553 | 2 |
| 2025-06-19T13:11:00 | 53.956986 | 6.222033 | 2.0 | 16.039 | 2 | 42.567 | 16.257 | 33.587 | 2 |
| 2025-06-19T13:12:00 | 53.955494 | 6.218599 | 2.0 | 16.142 | 2 | 42.555 | 16.235 | 33.595 | 2 |
| 2025-06-19T13:13:00 | 53.953983 | 6.215152 | 2.0 | 16.171 | 2 | 42.625 | 16.315 | 33.590 | 2 |
| 2025-06-19T13:14:00 | 53.952508 | 6.211675 | 2.0 | 16.180 | 2 | 42.651 | 16.349 | 33.584 | 2 |
| 2025-06-19T13:15:00 | 53.950974 | 6.208264 | 2.0 | 16.263 | 2 | 42.650 | 16.362 | 33.572 | 2 |
| 2025-06-19T13:16:00 | 53.949603 | 6.205277 | 2.0 | 16.358 | 2 | 42.724 | 16.456 | 33.558 | 2 |
| 2025-06-19T13:17:00 | 53.948458 | 6.202813 | 2.0 | 16.355 | 2 | 42.767 | 16.510 | 33.550 | 2 |
| 2025-06-19T13:18:00 | 53.947493 | 6.200817 | 2.0 | 16.240 | 2 | 42.762 | 16.517 | 33.540 | 2 |
| 2025-06-19T13:19:00 | 53.946703 | 6.199291 | 2.0 | 16.195 | 2 | 42.639 | 16.400 | 33.530 | 2 |
| 2025-06-19T13:20:00 | 53.946132 | 6.198065 | 2.0 | 16.166 | 2 | 42.601 | 16.374 | 33.519 | 2 |
| 2025-06-19T13:21:00 | 53.945613 | 6.197264 | 2.0 | 16.055 | 2 | 42.531 | 16.306 | 33.514 | 2 |
| 2025-06-19T13:22:00 | 53.945524 | 6.196795 | 2.0 | 15.860 | 2 | 42.426 | 16.201 | 33.510 | 2 |
| 2025-06-19T13:23:00 | 53.945567 | 6.196559 | 2.0 | 15.891 | 2 | 42.267 | 16.056 | 33.492 | 2 |
| 2025-06-19T13:24:00 | 53.945548 | 6.196342 | 2.0 | 15.888 | 2 | 42.265 | 16.066 | 33.482 | 2 |
| 2025-06-19T13:25:00 | 53.945514 | 6.196186 | 2.0 | 15.943 | 2 | 42.270 | 16.062 | 33.490 | 2 |
| 2025-06-19T13:26:00 | 53.945444 | 6.196056 | 2.0 | 15.962 | 2 | 42.347 | 16.142 | 33.490 | 2 |
| 2025-06-19T13:27:00 | 53.945397 | 6.195971 | 2.0 | 15.897 | 2 | 42.332 | 16.112 | 33.502 | 2 |
| 2025-06-19T13:28:00 | 53.945373 | 6.195928 | 2.0 | 15.900 | 2 | 42.286 | 16.068 | 33.499 | 2 |
| 2025-06-19T13:29:00 | 53.945363 | 6.195852 | 2.0 | 15.894 | 2 | 42.280 | 16.061 | 33.499 | 2 |
| 2025-06-19T13:30:00 | 53.945366 | 6.195744 | 2.0 | 15.962 | 2 | 42.292 | 16.080 | 33.494 | 2 |
| 2025-06-19T13:31:00 | 53.945363 | 6.195701 | 2.0 | 15.912 | 2 | 42.353 | 16.131 | 33.505 | 2 |
| 2025-06-19T13:32:00 | 53.945349 | 6.195691 | 2.0 | 15.876 | 2 | 42.306 | 16.082 | 33.504 | 2 |
| 2025-06-19T13:33:00 | 53.945338 | 6.195707 | 2.0 | 15.897 | 2 | 42.277 | 16.058 | 33.499 | 2 |
| 2025-06-19T13:34:00 | 53.945306 | 6.195746 | 2.0 | 15.900 | 2 | 42.306 | 16.089 | 33.499 | 2 |
| 2025-06-19T13:35:00 | 53.945285 | 6.195717 | 2.0 | 15.922 | 2 | 42.279 | 16.052 | 33.506 | 2 |
| 2025-06-19T13:36:00 | 53.944999 | 6.196073 | 2.0 | 16.241 | 2 | 42.322 | 16.112 | 33.493 | 2 |
| 2025-06-19T13:37:00 | 53.944616 | 6.197043 | 2.0 | 16.300 | 2 | 42.650 | 16.443 | 33.504 | 2 |
| 2025-06-19T13:38:00 | 53.944078 | 6.198203 | 2.0 | 16.200 | 2 | 42.674 | 16.447 | 33.522 | 2 |
| 2025-06-19T13:39:00 | 53.943430 | 6.199511 | 2.0 | 16.176 | 2 | 42.588 | 16.367 | 33.513 | 2 |
| 2025-06-19T13:40:00 | 53.942701 | 6.200936 | 2.0 | 16.091 | 2 | 42.543 | 16.330 | 33.505 | 2 |
| 2025-06-19T13:41:00 | 53.941741 | 6.202642 | 2.0 | 16.117 | 2 | 42.472 | 16.268 | 33.494 | 2 |
| 2025-06-19T13:42:00 | 53.940446 | 6.204566 | 2.0 | 16.149 | 2 | 42.525 | 16.334 | 33.485 | 2 |
| 2025-06-19T13:43:00 | 53.938851 | 6.206285 | 2.0 | 16.200 | 2 | 42.505 | 16.316 | 33.483 | 2 |
| 2025-06-19T13:44:00 | 53.937207 | 6.208222 | 2.0 | 16.240 | 2 | 42.546 | 16.371 | 33.473 | 2 |
| 2025-06-19T13:45:00 | 53.935543 | 6.210311 | 2.0 | 16.303 | 2 | 42.591 | 16.426 | 33.466 | 2 |
| 2025-06-19T13:46:00 | 53.933838 | 6.212336 | 2.0 | 16.289 | 2 | 42.617 | 16.457 | 33.463 | 2 |
| 2025-06-19T13:47:00 | 53.932115 | 6.214391 | 2.0 | 16.326 | 2 | 42.611 | 16.461 | 33.454 | 2 |
| 2025-06-19T13:48:00 | 53.930385 | 6.216433 | 2.0 | 16.436 | 2 | 42.667 | 16.527 | 33.448 | 2 |
| 2025-06-19T13:49:00 | 53.928621 | 6.218377 | 2.0 | 16.430 | 2 | 42.721 | 16.580 | 33.451 | 2 |
| 2025-06-19T13:50:00 | 53.926819 | 6.220198 | 2.0 | 16.405 | 2 | 42.734 | 16.606 | 33.441 | 2 |
| 2025-06-19T13:51:00 | 53.925049 | 6.222138 | 2.0 | 16.517 | 2 | 42.695 | 16.571 | 33.436 | 2 |
| 2025-06-19T13:52:00 | 53.923265 | 6.224034 | 2.0 | 16.527 | 2 | 42.786 | 16.670 | 33.433 | 2 |
| 2025-06-19T13:53:00 | 53.921474 | 6.225918 | 2.0 | 16.514 | 2 | 42.794 | 16.678 | 33.433 | 2 |
| 2025-06-19T13:54:00 | 53.919682 | 6.227818 | 2.0 | 16.354 | 2 | 42.764 | 16.646 | 33.434 | 2 |
| 2025-06-19T13:55:00 | 53.917876 | 6.229715 | 2.0 | 16.432 | 2 | 42.667 | 16.555 | 33.425 | 2 |
| 2025-06-19T13:56:00 | 53.916060 | 6.231573 | 2.0 | 16.528 | 2 | 42.706 | 16.602 | 33.420 | 2 |
| 2025-06-19T13:57:00 | 53.914266 | 6.233505 | 2.0 | 16.441 | 2 | 42.770 | 16.664 | 33.424 | 2 |
| 2025-06-19T13:58:00 | 53.912479 | 6.235456 | 2.0 | 16.396 | 2 | 42.695 | 16.582 | 33.427 | 2 |
| 2025-06-19T13:59:00 | 53.910670 | 6.237331 | 2.0 | 16.343 | 2 | 42.669 | 16.566 | 33.417 | 2 |
| 2025-06-19T14:00:00 | 53.908878 | 6.239244 | 2.0 | 16.291 | 2 | 42.589 | 16.476 | 33.423 | 2 |
| 2025-06-19T14:01:00 | 53.907079 | 6.241123 | 2.0 | 16.400 | 2 | 42.584 | 16.491 | 33.406 | 2 |
| 2025-06-19T14:02:00 | 53.905280 | 6.242986 | 2.0 | 16.516 | 2 | 42.669 | 16.573 | 33.412 | 2 |
| 2025-06-19T14:03:00 | 53.903500 | 6.244913 | 2.0 | 16.389 | 2 | 42.707 | 16.602 | 33.421 | 2 |
| 2025-06-19T14:04:00 | 53.901734 | 6.246827 | 2.0 | 16.293 | 2 | 42.643 | 16.538 | 33.418 | 2 |
| 2025-06-19T14:05:00 | 53.899932 | 6.248695 | 2.0 | 16.391 | 2 | 42.578 | 16.478 | 33.411 | 2 |
| 2025-06-19T14:06:00 | 53.898099 | 6.250510 | 2.0 | 16.534 | 2 | 42.669 | 16.575 | 33.410 | 2 |
| 2025-06-19T14:07:00 | 53.896281 | 6.252433 | 2.0 | 16.510 | 2 | 42.794 | 16.694 | 33.420 | 2 |
| 2025-06-19T14:08:00 | 53.894470 | 6.254398 | 2.0 | 16.465 | 2 | 42.765 | 16.652 | 33.430 | 2 |
| 2025-06-19T14:09:00 | 53.892648 | 6.256346 | 2.0 | 16.543 | 2 | 42.754 | 16.646 | 33.425 | 2 |
| 2025-06-19T14:10:00 | 53.890824 | 6.258307 | 2.0 | 16.486 | 2 | 42.789 | 16.678 | 33.429 | 2 |
| 2025-06-19T14:11:00 | 53.888973 | 6.260177 | 2.0 | 16.480 | 2 | 42.754 | 16.645 | 33.426 | 2 |
| 2025-06-19T14:12:00 | 53.887135 | 6.262102 | 2.0 | 16.438 | 2 | 42.750 | 16.640 | 33.426 | 2 |
| 2025-06-19T14:13:00 | 53.885306 | 6.264055 | 2.0 | 16.399 | 2 | 42.713 | 16.595 | 33.432 | 2 |
| 2025-06-19T14:14:00 | 53.883471 | 6.265976 | 2.0 | 16.455 | 2 | 42.684 | 16.576 | 33.422 | 2 |
| 2025-06-19T14:15:00 | 53.881645 | 6.267879 | 2.0 | 16.473 | 2 | 42.715 | 16.607 | 33.423 | 2 |
| 2025-06-19T14:16:00 | 53.879827 | 6.269819 | 2.0 | 16.457 | 2 | 42.753 | 16.647 | 33.423 | 2 |
| 2025-06-19T14:17:00 | 53.878012 | 6.271741 | 2.0 | 16.509 | 2 | 42.757 | 16.651 | 33.423 | 2 |
| 2025-06-19T14:18:00 | 53.876203 | 6.273686 | 2.0 | 16.534 | 2 | 42.762 | 16.659 | 33.421 | 2 |
| 2025-06-19T14:19:00 | 53.874373 | 6.275563 | 2.0 | 16.525 | 2 | 42.789 | 16.692 | 33.417 | 2 |
| 2025-06-19T14:20:00 | 53.872550 | 6.277510 | 2.0 | 16.416 | 2 | 42.776 | 16.676 | 33.419 | 2 |
| 2025-06-19T14:21:00 | 53.870736 | 6.279463 | 2.0 | 16.452 | 2 | 42.691 | 16.601 | 33.407 | 2 |
| 2025-06-19T14:22:00 | 53.868919 | 6.281410 | 2.0 | 16.576 | 2 | 42.728 | 16.648 | 33.401 | 2 |
| 2025-06-19T14:23:00 | 53.867112 | 6.283351 | 2.0 | 16.555 | 2 | 42.793 | 16.722 | 33.396 | 2 |
| 2025-06-19T14:24:00 | 53.865304 | 6.285259 | 2.0 | 16.457 | 2 | 42.763 | 16.698 | 33.389 | 2 |
| 2025-06-19T14:25:00 | 53.863526 | 6.287181 | 2.0 | 16.468 | 2 | 42.665 | 16.623 | 33.366 | 2 |
| 2025-06-19T14:26:00 | 53.861733 | 6.289039 | 2.0 | 16.565 | 2 | 42.674 | 16.651 | 33.351 | 2 |
| 2025-06-19T14:27:00 | 53.859934 | 6.290891 | 2.0 | 16.678 | 2 | 42.748 | 16.735 | 33.346 | 2 |
| 2025-06-19T14:28:00 | 53.858164 | 6.292818 | 2.0 | 16.712 | 2 | 42.852 | 16.837 | 33.351 | 2 |
| 2025-06-19T14:29:00 | 53.856369 | 6.294715 | 2.0 | 16.723 | 2 | 42.881 | 16.865 | 33.353 | 2 |
| 2025-06-19T14:30:00 | 53.854575 | 6.296597 | 2.0 | 16.873 | 2 | 42.918 | 16.915 | 33.344 | 2 |
| 2025-06-19T14:31:00 | 53.852789 | 6.298508 | 2.0 | 16.933 | 2 | 43.032 | 17.033 | 33.345 | 2 |
| 2025-06-19T14:32:00 | 53.850992 | 6.300394 | 2.0 | 16.864 | 2 | 43.085 | 17.085 | 33.348 | 2 |
| 2025-06-19T14:33:00 | 53.849195 | 6.302281 | 2.0 | 16.663 | 2 | 42.958 | 16.969 | 33.334 | 2 |
| 2025-06-19T14:34:00 | 53.847409 | 6.304159 | 2.0 | 16.595 | 2 | 42.781 | 16.831 | 33.295 | 2 |
| 2025-06-19T14:35:00 | 53.845646 | 6.306052 | 2.0 | 16.683 | 2 | 42.687 | 16.774 | 33.260 | 2 |
| 2025-06-19T14:36:00 | 53.843879 | 6.307905 | 2.0 | 16.753 | 2 | 42.747 | 16.857 | 33.243 | 2 |
| 2025-06-19T14:37:00 | 53.842110 | 6.309765 | 2.0 | 16.701 | 2 | 42.790 | 16.905 | 33.241 | 2 |
| 2025-06-19T14:38:00 | 53.840336 | 6.311612 | 2.0 | 16.677 | 2 | 42.734 | 16.861 | 33.229 | 2 |
| 2025-06-19T14:39:00 | 53.838573 | 6.313496 | 2.0 | 16.754 | 2 | 42.696 | 16.848 | 33.207 | 2 |
| 2025-06-19T14:40:00 | 53.836813 | 6.315343 | 2.0 | 16.810 | 2 | 42.750 | 16.910 | 33.202 | 2 |
| 2025-06-19T14:41:00 | 53.835046 | 6.317189 | 2.0 | 16.788 | 2 | 42.801 | 16.969 | 33.198 | 2 |
| 2025-06-19T14:42:00 | 53.833301 | 6.319098 | 2.0 | 16.731 | 2 | 42.764 | 16.933 | 33.195 | 2 |
| 2025-06-19T14:43:00 | 53.831551 | 6.320973 | 2.0 | 16.757 | 2 | 42.724 | 16.899 | 33.189 | 2 |
| 2025-06-19T14:44:00 | 53.829795 | 6.322821 | 2.0 | 16.842 | 2 | 42.731 | 16.920 | 33.177 | 2 |
| 2025-06-19T14:45:00 | 53.828030 | 6.324620 | 2.0 | 16.741 | 2 | 42.782 | 16.974 | 33.177 | 2 |
| 2025-06-19T14:46:00 | 53.826294 | 6.326536 | 2.0 | 16.646 | 2 | 42.690 | 16.870 | 33.183 | 2 |
| 2025-06-19T14:47:00 | 53.824575 | 6.328487 | 2.0 | 16.864 | 2 | 42.659 | 16.861 | 33.164 | 2 |
| 2025-06-19T14:48:00 | 53.822859 | 6.330465 | 2.0 | 16.924 | 2 | 42.798 | 17.023 | 33.151 | 2 |
| 2025-06-19T14:49:00 | 53.821140 | 6.332471 | 2.0 | 16.941 | 2 | 42.853 | 17.083 | 33.149 | 2 |
| 2025-06-19T14:50:00 | 53.819411 | 6.334437 | 2.0 | 16.938 | 2 | 42.848 | 17.086 | 33.142 | 2 |
| 2025-06-19T14:51:00 | 53.817696 | 6.336399 | 2.0 | 16.878 | 2 | 42.831 | 17.072 | 33.139 | 2 |
| 2025-06-19T14:52:00 | 53.815968 | 6.338344 | 2.0 | 16.942 | 2 | 42.817 | 17.068 | 33.130 | 2 |
| 2025-06-19T14:53:00 | 53.814245 | 6.340309 | 2.0 | 16.926 | 2 | 42.811 | 17.067 | 33.126 | 2 |
| 2025-06-19T14:54:00 | 53.812519 | 6.342253 | 2.0 | 16.952 | 2 | 42.826 | 17.095 | 33.116 | 2 |
| 2025-06-19T14:55:00 | 53.810805 | 6.344240 | 2.0 | 17.003 | 2 | 42.846 | 17.125 | 33.108 | 2 |
| 2025-06-19T14:56:00 | 53.809100 | 6.346229 | 2.0 | 16.953 | 2 | 42.859 | 17.140 | 33.107 | 2 |
| 2025-06-19T14:57:00 | 53.807377 | 6.348146 | 2.0 | 17.007 | 2 | 42.837 | 17.131 | 33.096 | 2 |
| 2025-06-19T14:58:00 | 53.805662 | 6.350090 | 2.0 | 16.993 | 2 | 42.839 | 17.142 | 33.088 | 2 |
| 2025-06-19T14:59:00 | 53.803958 | 6.352045 | 2.0 | 16.954 | 2 | 42.830 | 17.142 | 33.080 | 2 |
| 2025-06-19T15:00:00 | 53.802248 | 6.354004 | 2.0 | 17.028 | 2 | 42.805 | 17.125 | 33.073 | 2 |
| 2025-06-19T15:01:00 | 53.800522 | 6.355897 | 2.0 | 17.110 | 2 | 42.870 | 17.202 | 33.066 | 2 |
| 2025-06-19T15:02:00 | 53.798821 | 6.357845 | 2.0 | 17.101 | 2 | 42.930 | 17.268 | 33.063 | 2 |
| 2025-06-19T15:03:00 | 53.797141 | 6.359866 | 2.0 | 17.167 | 2 | 42.916 | 17.258 | 33.060 | 2 |
| 2025-06-19T15:04:00 | 53.795422 | 6.361796 | 2.0 | 17.168 | 2 | 42.966 | 17.316 | 33.055 | 2 |
| 2025-06-19T15:05:00 | 53.793690 | 6.363692 | 2.0 | 17.147 | 2 | 42.970 | 17.323 | 33.053 | 2 |
| 2025-06-19T15:06:00 | 53.791958 | 6.365604 | 2.0 | 17.164 | 2 | 42.950 | 17.305 | 33.050 | 2 |
| 2025-06-19T15:07:00 | 53.790253 | 6.367574 | 2.0 | 17.064 | 2 | 42.947 | 17.303 | 33.049 | 2 |
| 2025-06-19T15:08:00 | 53.788483 | 6.369043 | 2.0 | 17.141 | 2 | 42.882 | 17.237 | 33.048 | 2 |
| 2025-06-19T15:09:00 | 53.786776 | 6.370038 | 2.0 | 17.190 | 2 | 42.950 | 17.317 | 33.041 | 2 |
| 2025-06-19T15:10:00 | 53.785184 | 6.371289 | 2.0 | 17.116 | 2 | 42.948 | 17.305 | 33.049 | 2 |
| 2025-06-19T15:11:00 | 53.783616 | 6.372438 | 2.0 | 17.182 | 2 | 42.925 | 17.288 | 33.043 | 2 |
| 2025-06-19T15:12:00 | 53.782045 | 6.373409 | 2.0 | 17.210 | 2 | 42.970 | 17.338 | 33.041 | 2 |
| 2025-06-19T15:13:00 | 53.780491 | 6.374410 | 2.0 | 17.247 | 2 | 43.005 | 17.376 | 33.040 | 2 |
| 2025-06-19T15:14:00 | 53.778949 | 6.375478 | 2.0 | 17.207 | 2 | 43.015 | 17.377 | 33.047 | 2 |
| 2025-06-19T15:15:00 | 53.777422 | 6.376574 | 2.0 | 17.284 | 2 | 42.997 | 17.369 | 33.039 | 2 |
| 2025-06-19T15:16:00 | 53.775888 | 6.377626 | 2.0 | 17.250 | 2 | 43.068 | 17.438 | 33.043 | 2 |
| 2025-06-19T15:17:00 | 53.774342 | 6.378650 | 2.0 | 17.282 | 2 | 43.044 | 17.415 | 33.041 | 2 |
| 2025-06-19T15:18:00 | 53.772803 | 6.379697 | 2.0 | 17.308 | 2 | 43.059 | 17.441 | 33.033 | 2 |
| 2025-06-19T15:19:00 | 53.771259 | 6.380715 | 2.0 | 17.356 | 2 | 43.091 | 17.482 | 33.027 | 2 |
| 2025-06-19T15:20:00 | 53.769642 | 6.381811 | 2.0 | 17.306 | 2 | 43.095 | 17.487 | 33.026 | 2 |
| 2025-06-19T15:21:00 | 53.767935 | 6.383020 | 2.0 | 17.141 | 2 | 43.039 | 17.442 | 33.015 | 2 |
| 2025-06-19T15:22:00 | 53.766176 | 6.384228 | 2.0 | 17.009 | 2 | 42.903 | 17.305 | 33.010 | 2 |
| 2025-06-19T15:23:00 | 53.764381 | 6.385444 | 2.0 | 17.268 | 2 | 42.812 | 17.221 | 33.000 | 2 |
| 2025-06-19T15:24:00 | 53.762561 | 6.386636 | 2.0 | 16.996 | 2 | 42.973 | 17.402 | 32.991 | 2 |
| 2025-06-19T15:25:00 | 53.760733 | 6.387848 | 2.0 | 17.003 | 2 | 42.759 | 17.135 | 33.025 | 2 |
| 2025-06-19T15:26:00 | 53.758916 | 6.389128 | 2.0 | 17.227 | 2 | 42.828 | 17.274 | 32.971 | 2 |
| 2025-06-19T15:27:00 | 53.757080 | 6.390340 | 2.0 | 17.025 | 2 | 42.863 | 17.279 | 32.997 | 2 |
| 2025-06-19T15:28:00 | 53.755246 | 6.391541 | 2.0 | 17.002 | 2 | 42.775 | 17.200 | 32.986 | 2 |
| 2025-06-19T15:29:00 | 53.753421 | 6.392808 | 2.0 | 16.840 | 2 | 42.739 | 17.160 | 32.987 | 2 |
| 2025-06-19T15:30:00 | 53.751600 | 6.394086 | 2.0 | 16.990 | 2 | 42.694 | 17.127 | 32.975 | 2 |
| 2025-06-19T15:31:00 | 53.749772 | 6.395312 | 2.0 | 16.727 | 2 | 42.614 | 17.015 | 32.998 | 2 |
| 2025-06-19T15:32:00 | 53.747945 | 6.396514 | 2.0 | 16.993 | 2 | 42.600 | 17.036 | 32.969 | 2 |
| 2025-06-19T15:33:00 | 53.746120 | 6.397761 | 2.0 | 17.116 | 2 | 42.722 | 17.164 | 32.969 | 2 |
| 2025-06-19T15:34:00 | 53.744298 | 6.399058 | 2.0 | 17.331 | 2 | 42.842 | 17.317 | 32.948 | 2 |
| 2025-06-19T15:35:00 | 53.742469 | 6.400337 | 2.0 | 17.237 | 2 | 42.945 | 17.432 | 32.943 | 2 |
| 2025-06-19T15:36:00 | 53.740622 | 6.401569 | 2.0 | 17.249 | 2 | 42.915 | 17.404 | 32.940 | 2 |
| 2025-06-19T15:37:00 | 53.738761 | 6.402726 | 2.0 | 17.064 | 2 | 42.894 | 17.393 | 32.931 | 2 |
| 2025-06-19T15:38:00 | 53.736935 | 6.403989 | 2.0 | 16.852 | 2 | 42.701 | 17.165 | 32.950 | 2 |
| 2025-06-19T15:39:00 | 53.735135 | 6.405332 | 2.0 | 16.970 | 2 | 42.592 | 17.098 | 32.911 | 2 |
| 2025-06-19T15:40:00 | 53.733306 | 6.406530 | 2.0 | 16.958 | 2 | 42.639 | 17.146 | 32.912 | 2 |
| 2025-06-19T15:41:00 | 53.731476 | 6.407684 | 2.0 | 16.876 | 2 | 42.590 | 17.084 | 32.921 | 2 |
| 2025-06-19T15:42:00 | 53.729680 | 6.408929 | 2.0 | 16.964 | 2 | 42.562 | 17.068 | 32.910 | 2 |
| 2025-06-19T15:43:00 | 53.727876 | 6.410168 | 2.0 | 16.814 | 2 | 42.606 | 17.124 | 32.902 | 2 |
| 2025-06-19T15:44:00 | 53.726081 | 6.411399 | 2.0 | 17.042 | 2 | 42.489 | 16.993 | 32.908 | 2 |
| 2025-06-19T15:45:00 | 53.724284 | 6.412637 | 2.0 | 17.017 | 2 | 42.666 | 17.228 | 32.869 | 2 |
| 2025-06-19T15:46:00 | 53.722485 | 6.413843 | 2.0 | 16.927 | 2 | 42.635 | 17.166 | 32.893 | 2 |
| 2025-06-19T15:47:00 | 53.720681 | 6.415021 | 2.0 | 16.971 | 2 | 42.557 | 17.098 | 32.881 | 2 |
| 2025-06-19T15:48:00 | 53.718885 | 6.416277 | 2.0 | 17.165 | 2 | 42.610 | 17.179 | 32.861 | 2 |
| 2025-06-19T15:49:00 | 53.717080 | 6.417529 | 2.0 | 17.040 | 2 | 42.714 | 17.290 | 32.860 | 2 |
| 2025-06-19T15:50:00 | 53.715271 | 6.418756 | 2.0 | 17.175 | 2 | 42.647 | 17.211 | 32.866 | 2 |
| 2025-06-19T15:51:00 | 53.713464 | 6.419972 | 2.0 | 17.286 | 2 | 42.743 | 17.335 | 32.848 | 2 |
| 2025-06-19T15:52:00 | 53.711669 | 6.421180 | 2.0 | 17.258 | 2 | 42.802 | 17.397 | 32.848 | 2 |
| 2025-06-19T15:53:00 | 53.709875 | 6.422380 | 2.0 | 17.232 | 2 | 42.826 | 17.419 | 32.851 | 2 |
| 2025-06-19T15:54:00 | 53.708087 | 6.423576 | 2.0 | 17.364 | 2 | 42.790 | 17.382 | 32.850 | 2 |
| 2025-06-19T15:55:00 | 53.706309 | 6.424778 | 2.0 | 17.441 | 2 | 42.869 | 17.481 | 32.838 | 2 |
| 2025-06-19T15:56:00 | 53.704535 | 6.426019 | 2.0 | 17.441 | 2 | 42.933 | 17.545 | 32.841 | 2 |
| 2025-06-19T15:57:00 | 53.702751 | 6.427215 | 2.0 | 17.621 | 2 | 42.982 | 17.615 | 32.826 | 2 |
| 2025-06-19T15:58:00 | 53.701079 | 6.428749 | 2.0 | 17.654 | 2 | 43.130 | 17.775 | 32.823 | 2 |
| 2025-06-19T15:59:00 | 53.700176 | 6.431442 | 2.0 | 17.610 | 2 | 43.147 | 17.784 | 32.830 | 2 |
| 2025-06-19T16:00:00 | 53.700295 | 6.434452 | 2.0 | 17.621 | 2 | 43.126 | 17.764 | 32.828 | 2 |
| 2025-06-19T16:01:00 | 53.700878 | 6.437394 | 2.0 | 17.623 | 2 | 43.133 | 17.778 | 32.823 | 2 |
| 2025-06-19T16:02:00 | 53.701346 | 6.440375 | 2.0 | 17.588 | 2 | 43.122 | 17.756 | 32.831 | 2 |
| 2025-06-19T16:03:00 | 53.701698 | 6.442876 | 2.0 | 17.580 | 2 | 43.110 | 17.737 | 32.837 | 2 |
| 2025-06-19T16:04:00 | 53.702088 | 6.444877 | 2.0 | 17.503 | 2 | 43.109 | 17.721 | 32.849 | 2 |
| 2025-06-19T16:05:00 | 53.702403 | 6.446563 | 2.0 | 17.480 | 2 | 43.035 | 17.644 | 32.848 | 2 |
| 2025-06-19T16:06:00 | 53.702675 | 6.447976 | 2.0 | 17.481 | 2 | 43.037 | 17.648 | 32.846 | 2 |
| 2025-06-19T16:07:00 | 53.702868 | 6.449229 | 2.0 | 17.470 | 2 | 43.035 | 17.638 | 32.853 | 2 |
| 2025-06-19T16:08:00 | 53.703017 | 6.450335 | 2.0 | 17.494 | 2 | 43.030 | 17.630 | 32.855 | 2 |
| 2025-06-19T16:09:00 | 53.703156 | 6.451316 | 2.0 | 17.515 | 2 | 43.060 | 17.655 | 32.860 | 2 |
| 2025-06-19T16:10:00 | 53.703245 | 6.452245 | 2.0 | 17.535 | 2 | 43.074 | 17.666 | 32.863 | 2 |
| 2025-06-19T16:11:00 | 53.703342 | 6.453089 | 2.0 | 17.568 | 2 | 43.114 | 17.707 | 32.864 | 2 |
| 2025-06-19T16:12:00 | 53.703404 | 6.453914 | 2.0 | 17.605 | 2 | 43.149 | 17.734 | 32.872 | 2 |
| 2025-06-19T16:13:00 | 53.703470 | 6.454702 | 2.0 | 17.726 | 2 | 43.205 | 17.781 | 32.882 | 2 |
| 2025-06-19T16:14:00 | 53.703518 | 6.455452 | 2.0 | 17.739 | 2 | 43.306 | 17.869 | 32.897 | 2 |
| 2025-06-19T16:15:00 | 53.703545 | 6.456186 | 2.0 | 17.752 | 2 | 43.343 | 17.898 | 32.905 | 2 |
| 2025-06-19T16:16:00 | 53.703583 | 6.456882 | 2.0 | 17.708 | 2 | 43.355 | 17.902 | 32.912 | 2 |
| 2025-06-19T16:17:00 | 53.703647 | 6.457522 | 2.0 | 17.697 | 2 | 43.318 | 17.861 | 32.913 | 2 |
| 2025-06-19T16:18:00 | 53.703706 | 6.458100 | 2.0 | 17.682 | 2 | 43.302 | 17.851 | 32.908 | 2 |
| 2025-06-19T16:19:00 | 53.703758 | 6.458644 | 2.0 | 17.659 | 2 | 43.292 | 17.837 | 32.911 | 2 |
| 2025-06-19T16:20:00 | 53.703803 | 6.459166 | 2.0 | 17.621 | 2 | 43.268 | 17.812 | 32.910 | 2 |
| 2025-06-19T16:21:00 | 53.703838 | 6.459667 | 2.0 | 17.590 | 2 | 43.231 | 17.775 | 32.909 | 2 |
| 2025-06-19T16:22:00 | 53.703893 | 6.460133 | 2.0 | 17.572 | 2 | 43.201 | 17.746 | 32.907 | 2 |
| 2025-06-19T16:23:00 | 53.703948 | 6.460601 | 2.0 | 17.561 | 2 | 43.185 | 17.731 | 32.905 | 2 |
| 2025-06-19T16:24:00 | 53.703996 | 6.461085 | 2.0 | 17.548 | 2 | 43.171 | 17.717 | 32.905 | 2 |
| 2025-06-19T16:25:00 | 53.704050 | 6.461535 | 2.0 | 17.544 | 2 | 43.161 | 17.707 | 32.904 | 2 |
| 2025-06-19T16:26:00 | 53.704113 | 6.461977 | 2.0 | 17.534 | 2 | 43.155 | 17.701 | 32.904 | 2 |
| 2025-06-19T16:27:00 | 53.704166 | 6.462426 | 2.0 | 17.520 | 2 | 43.144 | 17.691 | 32.903 | 2 |
| 2025-06-19T16:28:00 | 53.704224 | 6.462879 | 2.0 | 17.497 | 2 | 43.131 | 17.677 | 32.903 | 2 |
| 2025-06-19T16:29:00 | 53.704283 | 6.463348 | 2.0 | 17.449 | 2 | 43.105 | 17.649 | 32.903 | 2 |
| 2025-06-19T16:30:00 | 53.704352 | 6.463812 | 2.0 | 17.409 | 2 | 43.060 | 17.604 | 32.901 | 2 |
| 2025-06-19T16:31:00 | 53.704433 | 6.464280 | 2.0 | 17.378 | 2 | 43.021 | 17.565 | 32.900 | 2 |
| 2025-06-19T16:32:00 | 53.704524 | 6.464747 | 2.0 | 17.348 | 2 | 42.991 | 17.534 | 32.899 | 2 |
| 2025-06-19T16:33:00 | 53.704613 | 6.465210 | 2.0 | 17.347 | 2 | 42.962 | 17.507 | 32.896 | 2 |
| 2025-06-19T16:34:00 | 53.704687 | 6.465668 | 2.0 | 17.359 | 2 | 42.963 | 17.512 | 32.893 | 2 |
| 2025-06-19T16:35:00 | 53.704772 | 6.466099 | 2.0 | 17.359 | 2 | 42.973 | 17.521 | 32.894 | 2 |
| 2025-06-19T16:36:00 | 53.704858 | 6.466501 | 2.0 | 17.364 | 2 | 42.972 | 17.520 | 32.894 | 2 |
| 2025-06-19T16:37:00 | 53.704930 | 6.466901 | 2.0 | 17.367 | 2 | 42.971 | 17.521 | 32.893 | 2 |
| 2025-06-19T16:38:00 | 53.705007 | 6.467282 | 2.0 | 17.366 | 2 | 42.975 | 17.524 | 32.894 | 2 |
| 2025-06-19T16:39:00 | 53.705092 | 6.467642 | 2.0 | 17.395 | 2 | 42.980 | 17.531 | 32.892 | 2 |
| 2025-06-19T16:40:00 | 53.705168 | 6.467993 | 2.0 | 17.371 | 2 | 42.999 | 17.552 | 32.891 | 2 |
| 2025-06-19T16:41:00 | 53.705260 | 6.468332 | 2.0 | 17.362 | 2 | 42.977 | 17.528 | 32.892 | 2 |
| 2025-06-19T16:42:00 | 53.705362 | 6.468657 | 2.0 | 17.362 | 2 | 42.966 | 17.519 | 32.890 | 2 |
| 2025-06-19T16:43:00 | 53.705431 | 6.469003 | 2.0 | 17.331 | 2 | 42.962 | 17.513 | 32.891 | 2 |
| 2025-06-19T16:44:00 | 53.705479 | 6.469372 | 2.0 | 17.322 | 2 | 42.939 | 17.491 | 32.890 | 2 |
| 2025-06-19T16:45:00 | 53.705542 | 6.469705 | 2.0 | 17.278 | 2 | 42.923 | 17.473 | 32.890 | 2 |
| 2025-06-19T16:46:00 | 53.705632 | 6.470019 | 2.0 | 17.251 | 2 | 42.889 | 17.436 | 32.891 | 2 |
| 2025-06-19T16:47:00 | 53.705722 | 6.470341 | 2.0 | 17.215 | 2 | 42.857 | 17.402 | 32.892 | 2 |
| 2025-06-19T16:48:00 | 53.705826 | 6.470665 | 2.0 | 17.193 | 2 | 42.833 | 17.380 | 32.889 | 2 |
| 2025-06-19T16:49:00 | 53.705927 | 6.470991 | 2.0 | 17.147 | 2 | 42.805 | 17.350 | 32.889 | 2 |
| 2025-06-19T16:50:00 | 53.706027 | 6.471308 | 2.0 | 17.142 | 2 | 42.761 | 17.304 | 32.889 | 2 |
| 2025-06-19T16:51:00 | 53.706138 | 6.471598 | 2.0 | 17.100 | 2 | 42.754 | 17.298 | 32.888 | 2 |
| 2025-06-19T16:52:00 | 53.706248 | 6.471865 | 2.0 | 17.089 | 2 | 42.720 | 17.263 | 32.887 | 2 |
| 2025-06-19T16:53:00 | 53.706341 | 6.472145 | 2.0 | 17.064 | 2 | 42.701 | 17.247 | 32.884 | 2 |
| 2025-06-19T16:54:00 | 53.706412 | 6.472457 | 2.0 | 17.040 | 2 | 42.679 | 17.223 | 32.884 | 2 |
| 2025-06-19T16:55:00 | 53.706498 | 6.472754 | 2.0 | 17.028 | 2 | 42.660 | 17.204 | 32.883 | 2 |
| 2025-06-19T16:56:00 | 53.706571 | 6.473042 | 2.0 | 16.994 | 2 | 42.644 | 17.185 | 32.885 | 2 |
| 2025-06-19T16:57:00 | 53.706627 | 6.473340 | 2.0 | 16.975 | 2 | 42.614 | 17.154 | 32.884 | 2 |
| 2025-06-19T16:58:00 | 53.706684 | 6.473642 | 2.0 | 16.944 | 2 | 42.592 | 17.132 | 32.883 | 2 |
| 2025-06-19T16:59:00 | 53.706742 | 6.473958 | 2.0 | 16.945 | 2 | 42.569 | 17.110 | 32.881 | 2 |
| 2025-06-19T17:00:00 | 53.706816 | 6.474275 | 2.0 | 16.972 | 2 | 42.567 | 17.110 | 32.880 | 2 |
| 2025-06-19T17:01:00 | 53.706890 | 6.474587 | 2.0 | 16.965 | 2 | 42.586 | 17.129 | 32.881 | 2 |
| 2025-06-19T17:02:00 | 53.706967 | 6.474909 | 2.0 | 16.928 | 2 | 42.577 | 17.118 | 32.882 | 2 |
| 2025-06-19T17:03:00 | 53.707043 | 6.475221 | 2.0 | 16.920 | 2 | 42.551 | 17.092 | 32.881 | 2 |
| 2025-06-19T17:04:00 | 53.707111 | 6.475528 | 2.0 | 16.896 | 2 | 42.541 | 17.083 | 32.879 | 2 |
| 2025-06-19T17:05:00 | 53.707172 | 6.475844 | 2.0 | 16.919 | 2 | 42.527 | 17.068 | 32.879 | 2 |
| 2025-06-19T17:06:00 | 53.707245 | 6.476153 | 2.0 | 16.945 | 2 | 42.535 | 17.077 | 32.879 | 2 |
| 2025-06-19T17:07:00 | 53.707319 | 6.476456 | 2.0 | 16.945 | 2 | 42.558 | 17.101 | 32.879 | 2 |
| 2025-06-19T17:08:00 | 53.707391 | 6.476763 | 2.0 | 17.001 | 2 | 42.564 | 17.109 | 32.878 | 2 |
| 2025-06-19T17:09:00 | 53.707426 | 6.477088 | 2.0 | 16.914 | 2 | 42.604 | 17.147 | 32.881 | 2 |
| 2025-06-19T17:10:00 | 53.707496 | 6.477408 | 2.0 | 16.912 | 2 | 42.543 | 17.082 | 32.882 | 2 |
| 2025-06-19T17:11:00 | 53.707575 | 6.477685 | 2.0 | 16.923 | 2 | 42.537 | 17.079 | 32.879 | 2 |
| 2025-06-19T17:12:00 | 53.707651 | 6.477947 | 2.0 | 16.916 | 2 | 42.540 | 17.081 | 32.880 | 2 |
| 2025-06-19T17:13:00 | 53.707705 | 6.478215 | 2.0 | 16.915 | 2 | 42.532 | 17.073 | 32.880 | 2 |
| 2025-06-19T17:14:00 | 53.707763 | 6.478481 | 2.0 | 16.912 | 2 | 42.541 | 17.082 | 32.880 | 2 |
| 2025-06-19T17:15:00 | 53.707825 | 6.478729 | 2.0 | 16.921 | 2 | 42.531 | 17.072 | 32.880 | 2 |
| 2025-06-19T17:16:00 | 53.707876 | 6.478971 | 2.0 | 16.962 | 2 | 42.544 | 17.085 | 32.880 | 2 |
| 2025-06-19T17:17:00 | 53.707930 | 6.479218 | 2.0 | 16.973 | 2 | 42.580 | 17.123 | 32.880 | 2 |
| 2025-06-19T17:18:00 | 53.707995 | 6.479476 | 2.0 | 16.966 | 2 | 42.592 | 17.133 | 32.882 | 2 |
| 2025-06-19T17:19:00 | 53.708070 | 6.479706 | 2.0 | 16.961 | 2 | 42.586 | 17.125 | 32.884 | 2 |
| 2025-06-19T17:20:00 | 53.708137 | 6.479966 | 2.0 | 16.969 | 2 | 42.585 | 17.126 | 32.882 | 2 |
| 2025-06-19T17:21:00 | 53.708213 | 6.480232 | 2.0 | 16.951 | 2 | 42.581 | 17.118 | 32.885 | 2 |
| 2025-06-19T17:22:00 | 53.708282 | 6.480478 | 2.0 | 16.993 | 2 | 42.583 | 17.123 | 32.883 | 2 |
| 2025-06-19T17:23:00 | 53.708354 | 6.480730 | 2.0 | 16.985 | 2 | 42.614 | 17.153 | 32.885 | 2 |
| 2025-06-19T17:24:00 | 53.708423 | 6.480996 | 2.0 | 17.003 | 2 | 42.609 | 17.146 | 32.887 | 2 |
| 2025-06-19T17:25:00 | 53.708472 | 6.481243 | 2.0 | 17.011 | 2 | 42.621 | 17.163 | 32.883 | 2 |
| 2025-06-19T17:26:00 | 53.708508 | 6.481495 | 2.0 | 16.986 | 2 | 42.630 | 17.166 | 32.888 | 2 |
| 2025-06-19T17:27:00 | 53.708561 | 6.481730 | 2.0 | 16.998 | 2 | 42.613 | 17.149 | 32.888 | 2 |
| 2025-06-19T17:28:00 | 53.708610 | 6.481960 | 2.0 | 16.982 | 2 | 42.622 | 17.158 | 32.888 | 2 |
| 2025-06-19T17:29:00 | 53.708647 | 6.482198 | 2.0 | 16.969 | 2 | 42.607 | 17.141 | 32.889 | 2 |
| 2025-06-19T17:30:00 | 53.708700 | 6.482433 | 2.0 | 16.958 | 2 | 42.596 | 17.129 | 32.889 | 2 |
| 2025-06-19T17:31:00 | 53.708748 | 6.482662 | 2.0 | 16.941 | 2 | 42.586 | 17.117 | 32.890 | 2 |
| 2025-06-19T17:32:00 | 53.708795 | 6.482901 | 2.0 | 16.930 | 2 | 42.571 | 17.101 | 32.890 | 2 |
| 2025-06-19T17:33:00 | 53.708847 | 6.483137 | 2.0 | 16.953 | 2 | 42.565 | 17.095 | 32.890 | 2 |
| 2025-06-19T17:34:00 | 53.708900 | 6.483336 | 2.0 | 16.942 | 2 | 42.579 | 17.108 | 32.892 | 2 |
| 2025-06-19T17:35:00 | 53.708933 | 6.483541 | 2.0 | 16.939 | 2 | 42.575 | 17.102 | 32.893 | 2 |
| 2025-06-19T17:36:00 | 53.708968 | 6.483751 | 2.0 | 16.928 | 2 | 42.572 | 17.098 | 32.894 | 2 |
| 2025-06-19T17:37:00 | 53.709007 | 6.483944 | 2.0 | 16.929 | 2 | 42.565 | 17.090 | 32.894 | 2 |
| 2025-06-19T17:38:00 | 53.709023 | 6.484145 | 2.0 | 16.928 | 2 | 42.567 | 17.091 | 32.895 | 2 |
| 2025-06-19T17:39:00 | 53.709042 | 6.484324 | 2.0 | 16.945 | 2 | 42.569 | 17.089 | 32.899 | 2 |
| 2025-06-19T17:40:00 | 53.709061 | 6.484496 | 2.0 | 16.966 | 2 | 42.599 | 17.115 | 32.903 | 2 |
| 2025-06-19T17:41:00 | 53.709063 | 6.484649 | 2.0 | 16.900 | 2 | 42.608 | 17.115 | 32.911 | 2 |
| 2025-06-19T17:42:00 | 53.709083 | 6.484780 | 2.0 | 16.947 | 2 | 42.561 | 17.069 | 32.908 | 2 |
| 2025-06-19T17:43:00 | 53.709099 | 6.484910 | 2.0 | 16.960 | 2 | 42.607 | 17.113 | 32.912 | 2 |
| 2025-06-19T17:44:00 | 53.709120 | 6.485062 | 2.0 | 16.909 | 2 | 42.595 | 17.097 | 32.914 | 2 |
| 2025-06-19T17:45:00 | 53.709148 | 6.485204 | 2.0 | 16.954 | 2 | 42.587 | 17.091 | 32.912 | 2 |
| 2025-06-19T17:46:00 | 53.709177 | 6.485354 | 2.0 | 16.966 | 2 | 42.615 | 17.110 | 32.921 | 2 |
| 2025-06-19T17:47:00 | 53.709204 | 6.485513 | 2.0 | 16.959 | 2 | 42.630 | 17.119 | 32.927 | 2 |
| 2025-06-19T17:48:00 | 53.709238 | 6.485671 | 2.0 | 16.951 | 2 | 42.632 | 17.118 | 32.929 | 2 |
| 2025-06-19T17:49:00 | 53.709274 | 6.485827 | 2.0 | 16.942 | 2 | 42.623 | 17.110 | 32.928 | 2 |
| 2025-06-19T17:50:00 | 53.709304 | 6.485995 | 2.0 | 16.962 | 2 | 42.622 | 17.107 | 32.930 | 2 |
| 2025-06-19T17:51:00 | 53.709325 | 6.486160 | 2.0 | 16.951 | 2 | 42.639 | 17.118 | 32.935 | 2 |
| 2025-06-19T17:52:00 | 53.709356 | 6.486308 | 2.0 | 16.951 | 2 | 42.634 | 17.110 | 32.938 | 2 |
| 2025-06-19T17:53:00 | 53.709387 | 6.486443 | 2.0 | 16.973 | 2 | 42.644 | 17.119 | 32.939 | 2 |
| 2025-06-19T17:54:00 | 53.709411 | 6.486585 | 2.0 | 16.968 | 2 | 42.661 | 17.132 | 32.943 | 2 |
| 2025-06-19T17:55:00 | 53.709435 | 6.486727 | 2.0 | 16.963 | 2 | 42.653 | 17.126 | 32.941 | 2 |
| 2025-06-19T17:56:00 | 53.709471 | 6.486849 | 2.0 | 16.944 | 2 | 42.649 | 17.122 | 32.941 | 2 |
| 2025-06-19T17:57:00 | 53.709475 | 6.486984 | 2.0 | 16.922 | 2 | 42.633 | 17.106 | 32.940 | 2 |
| 2025-06-19T17:58:00 | 53.709508 | 6.487095 | 2.0 | 16.899 | 2 | 42.604 | 17.081 | 32.935 | 2 |
| 2025-06-19T17:59:00 | 53.709547 | 6.487210 | 2.0 | 16.884 | 2 | 42.586 | 17.060 | 32.937 | 2 |
| 2025-06-19T18:00:00 | 53.709578 | 6.487345 | 2.0 | 16.890 | 2 | 42.575 | 17.048 | 32.937 | 2 |
| 2025-06-19T18:01:00 | 53.709606 | 6.487473 | 2.0 | 16.879 | 2 | 42.584 | 17.051 | 32.943 | 2 |
| 2025-06-19T18:02:00 | 53.709634 | 6.487590 | 2.0 | 16.859 | 2 | 42.565 | 17.034 | 32.940 | 2 |
| 2025-06-19T18:03:00 | 53.709655 | 6.487711 | 2.0 | 16.847 | 2 | 42.554 | 17.020 | 32.942 | 2 |
| 2025-06-19T18:04:00 | 53.709674 | 6.487816 | 2.0 | 16.827 | 2 | 42.549 | 17.009 | 32.947 | 2 |
| 2025-06-19T18:05:00 | 53.709699 | 6.487924 | 2.0 | 16.826 | 2 | 42.533 | 16.989 | 32.949 | 2 |
| 2025-06-19T18:06:00 | 53.709723 | 6.488007 | 2.0 | 16.824 | 2 | 42.536 | 16.988 | 32.953 | 2 |
| 2025-06-19T18:07:00 | 53.709746 | 6.488095 | 2.0 | 16.793 | 2 | 42.526 | 16.976 | 32.954 | 2 |
| 2025-06-19T18:08:00 | 53.709782 | 6.488179 | 2.0 | 16.772 | 2 | 42.501 | 16.956 | 32.948 | 2 |
| 2025-06-19T18:09:00 | 53.709833 | 6.488250 | 2.0 | 16.750 | 2 | 42.471 | 16.932 | 32.942 | 2 |
| 2025-06-19T18:10:00 | 53.709881 | 6.488333 | 2.0 | 16.753 | 2 | 42.446 | 16.912 | 32.937 | 2 |
| 2025-06-19T18:11:00 | 53.709941 | 6.488419 | 2.0 | 16.743 | 2 | 42.451 | 16.914 | 32.940 | 2 |
| 2025-06-19T18:12:00 | 53.709985 | 6.488490 | 2.0 | 16.739 | 2 | 42.442 | 16.906 | 32.938 | 2 |
| 2025-06-19T18:13:00 | 53.710015 | 6.488557 | 2.0 | 16.737 | 2 | 42.439 | 16.902 | 32.939 | 2 |
| 2025-06-19T18:14:00 | 53.710064 | 6.488615 | 2.0 | 16.739 | 2 | 42.438 | 16.901 | 32.939 | 2 |
| 2025-06-19T18:15:00 | 53.710126 | 6.488676 | 2.0 | 16.744 | 2 | 42.440 | 16.901 | 32.941 | 2 |
| 2025-06-19T18:16:00 | 53.710192 | 6.488744 | 2.0 | 16.737 | 2 | 42.446 | 16.905 | 32.943 | 2 |
| 2025-06-19T18:17:00 | 53.710248 | 6.488817 | 2.0 | 16.735 | 2 | 42.437 | 16.896 | 32.942 | 2 |
| 2025-06-19T18:18:00 | 53.710304 | 6.488875 | 2.0 | 16.729 | 2 | 42.437 | 16.897 | 32.941 | 2 |
| 2025-06-19T18:19:00 | 53.710348 | 6.488943 | 2.0 | 16.731 | 2 | 42.435 | 16.893 | 32.943 | 2 |
| 2025-06-19T18:20:00 | 53.710392 | 6.489000 | 2.0 | 16.720 | 2 | 42.432 | 16.890 | 32.943 | 2 |
| 2025-06-19T18:21:00 | 53.710454 | 6.489047 | 2.0 | 16.718 | 2 | 42.422 | 16.881 | 32.941 | 2 |
| 2025-06-19T18:22:00 | 53.710492 | 6.489111 | 2.0 | 16.726 | 2 | 42.424 | 16.883 | 32.942 | 2 |
| 2025-06-19T18:23:00 | 53.710547 | 6.489161 | 2.0 | 16.712 | 2 | 42.428 | 16.885 | 32.943 | 2 |
| 2025-06-19T18:24:00 | 53.710618 | 6.489184 | 2.0 | 16.704 | 2 | 42.413 | 16.871 | 32.942 | 2 |
| 2025-06-19T18:25:00 | 53.710690 | 6.489219 | 2.0 | 16.699 | 2 | 42.405 | 16.863 | 32.941 | 2 |
| 2025-06-19T18:26:00 | 53.710767 | 6.489268 | 2.0 | 16.706 | 2 | 42.404 | 16.865 | 32.939 | 2 |
| 2025-06-19T18:27:00 | 53.710827 | 6.489306 | 2.0 | 16.705 | 2 | 42.409 | 16.867 | 32.942 | 2 |
| 2025-06-19T18:28:00 | 53.710905 | 6.489347 | 2.0 | 16.700 | 2 | 42.410 | 16.866 | 32.943 | 2 |
| 2025-06-19T18:29:00 | 53.710986 | 6.489372 | 2.0 | 16.702 | 2 | 42.407 | 16.863 | 32.943 | 2 |
| 2025-06-19T18:30:00 | 53.711045 | 6.489402 | 2.0 | 16.695 | 2 | 42.406 | 16.862 | 32.943 | 2 |
| 2025-06-19T18:31:00 | 53.711120 | 6.489418 | 2.0 | 16.712 | 2 | 42.403 | 16.860 | 32.942 | 2 |
| 2025-06-19T18:32:00 | 53.711162 | 6.489429 | 2.0 | 16.700 | 2 | 42.418 | 16.871 | 32.946 | 2 |
| 2025-06-19T18:33:00 | 53.711231 | 6.489423 | 2.0 | 16.711 | 2 | 42.413 | 16.865 | 32.947 | 2 |
| 2025-06-19T18:34:00 | 53.711293 | 6.489400 | 2.0 | 16.691 | 2 | 42.421 | 16.869 | 32.950 | 2 |
| 2025-06-19T18:35:00 | 53.711341 | 6.489395 | 2.0 | 16.697 | 2 | 42.405 | 16.855 | 32.948 | 2 |
| 2025-06-19T18:36:00 | 53.711403 | 6.489388 | 2.0 | 16.696 | 2 | 42.408 | 16.859 | 32.947 | 2 |
| 2025-06-19T18:37:00 | 53.711465 | 6.489373 | 2.0 | 16.699 | 2 | 42.409 | 16.859 | 32.948 | 2 |
| 2025-06-19T18:38:00 | 53.711529 | 6.489364 | 2.0 | 16.708 | 2 | 42.413 | 16.863 | 32.948 | 2 |
| 2025-06-19T18:39:00 | 53.711606 | 6.489356 | 2.0 | 16.706 | 2 | 42.419 | 16.868 | 32.950 | 2 |
| 2025-06-19T18:40:00 | 53.711687 | 6.489328 | 2.0 | 16.706 | 2 | 42.417 | 16.868 | 32.948 | 2 |
| 2025-06-19T18:41:00 | 53.711754 | 6.489286 | 2.0 | 16.713 | 2 | 42.417 | 16.868 | 32.948 | 2 |
| 2025-06-19T18:42:00 | 53.711811 | 6.489265 | 2.0 | 16.736 | 2 | 42.426 | 16.878 | 32.947 | 2 |
| 2025-06-19T18:43:00 | 53.711871 | 6.489216 | 2.0 | 16.744 | 2 | 42.447 | 16.897 | 32.950 | 2 |
| 2025-06-19T18:44:00 | 53.711931 | 6.489159 | 2.0 | 16.747 | 2 | 42.454 | 16.905 | 32.950 | 2 |
| 2025-06-19T18:45:00 | 53.711997 | 6.489103 | 2.0 | 16.742 | 2 | 42.456 | 16.906 | 32.950 | 2 |
| 2025-06-19T18:46:00 | 53.712068 | 6.489018 | 2.0 | 16.725 | 2 | 42.450 | 16.900 | 32.950 | 2 |
| 2025-06-19T18:47:00 | 53.712130 | 6.488943 | 2.0 | 16.725 | 2 | 42.440 | 16.886 | 32.953 | 2 |
| 2025-06-19T18:48:00 | 53.712186 | 6.488870 | 2.0 | 16.730 | 2 | 42.440 | 16.887 | 32.952 | 2 |
| 2025-06-19T18:49:00 | 53.712257 | 6.488772 | 2.0 | 16.730 | 2 | 42.443 | 16.890 | 32.952 | 2 |
| 2025-06-19T18:50:00 | 53.712322 | 6.488670 | 2.0 | 16.728 | 2 | 42.445 | 16.890 | 32.954 | 2 |
| 2025-06-19T18:51:00 | 53.712367 | 6.488589 | 2.0 | 16.730 | 2 | 42.445 | 16.892 | 32.952 | 2 |
| 2025-06-19T18:52:00 | 53.712425 | 6.488504 | 2.0 | 16.721 | 2 | 42.441 | 16.889 | 32.951 | 2 |
| 2025-06-19T18:53:00 | 53.712479 | 6.488383 | 2.0 | 16.713 | 2 | 42.432 | 16.883 | 32.948 | 2 |
| 2025-06-19T18:54:00 | 53.712523 | 6.488268 | 2.0 | 16.678 | 2 | 42.417 | 16.868 | 32.948 | 2 |
| 2025-06-19T18:55:00 | 53.712582 | 6.488140 | 2.0 | 16.684 | 2 | 42.381 | 16.840 | 32.939 | 2 |
| 2025-06-19T18:56:00 | 53.712642 | 6.488001 | 2.0 | 16.654 | 2 | 42.386 | 16.847 | 32.938 | 2 |
| 2025-06-19T18:57:00 | 53.712701 | 6.487847 | 2.0 | 16.639 | 2 | 42.341 | 16.813 | 32.927 | 2 |
| 2025-06-19T18:58:00 | 53.712758 | 6.487711 | 2.0 | 16.665 | 2 | 42.333 | 16.807 | 32.925 | 2 |
| 2025-06-19T18:59:00 | 53.712824 | 6.487590 | 2.0 | 16.754 | 2 | 42.373 | 16.845 | 32.928 | 2 |
| 2025-06-19T19:00:00 | 53.712864 | 6.487479 | 2.0 | 16.766 | 2 | 42.451 | 16.914 | 32.940 | 2 |
| 2025-06-19T19:01:00 | 53.712912 | 6.487406 | 2.0 | 16.756 | 2 | 42.464 | 16.923 | 32.943 | 2 |
| 2025-06-19T19:02:00 | 53.712984 | 6.487373 | 2.0 | 16.773 | 2 | 42.454 | 16.916 | 32.941 | 2 |
| 2025-06-19T19:03:00 | 53.713089 | 6.487372 | 2.0 | 16.790 | 2 | 42.466 | 16.933 | 32.937 | 2 |
| 2025-06-19T19:04:00 | 53.713199 | 6.487382 | 2.0 | 16.769 | 2 | 42.483 | 16.947 | 32.940 | 2 |
| 2025-06-19T19:05:00 | 53.713308 | 6.487408 | 2.0 | 16.778 | 2 | 42.469 | 16.935 | 32.938 | 2 |
| 2025-06-19T19:06:00 | 53.713436 | 6.487454 | 2.0 | 16.773 | 2 | 42.472 | 16.937 | 32.939 | 2 |
| 2025-06-19T19:07:00 | 53.713564 | 6.487540 | 2.0 | 16.777 | 2 | 42.470 | 16.936 | 32.938 | 2 |
| 2025-06-19T19:08:00 | 53.713701 | 6.487637 | 2.0 | 16.744 | 2 | 42.466 | 16.933 | 32.937 | 2 |
| 2025-06-19T19:09:00 | 53.713825 | 6.487743 | 2.0 | 16.739 | 2 | 42.436 | 16.902 | 32.936 | 2 |
| 2025-06-19T19:10:00 | 53.713951 | 6.487843 | 2.0 | 16.727 | 2 | 42.425 | 16.899 | 32.929 | 2 |
| 2025-06-19T19:11:00 | 53.714091 | 6.487951 | 2.0 | 16.684 | 2 | 42.406 | 16.877 | 32.931 | 2 |
| 2025-06-19T19:12:00 | 53.714215 | 6.488068 | 2.0 | 16.710 | 2 | 42.380 | 16.852 | 32.929 | 2 |
| 2025-06-19T19:13:00 | 53.714358 | 6.488179 | 2.0 | 16.706 | 2 | 42.394 | 16.868 | 32.928 | 2 |
| 2025-06-19T19:14:00 | 53.714482 | 6.488299 | 2.0 | 16.720 | 2 | 42.400 | 16.874 | 32.928 | 2 |
| 2025-06-19T19:15:00 | 53.714614 | 6.488421 | 2.0 | 16.726 | 2 | 42.406 | 16.877 | 32.931 | 2 |
| 2025-06-19T19:16:00 | 53.714765 | 6.488530 | 2.0 | 16.755 | 2 | 42.421 | 16.893 | 32.931 | 2 |
| 2025-06-19T19:17:00 | 53.714902 | 6.488667 | 2.0 | 16.749 | 2 | 42.443 | 16.910 | 32.936 | 2 |
| 2025-06-19T19:18:00 | 53.715051 | 6.488821 | 2.0 | 16.763 | 2 | 42.451 | 16.918 | 32.936 | 2 |
| 2025-06-19T19:19:00 | 53.715202 | 6.488993 | 2.0 | 16.717 | 2 | 42.446 | 16.911 | 32.938 | 2 |
| 2025-06-19T19:20:00 | 53.715358 | 6.489169 | 2.0 | 16.700 | 2 | 42.413 | 16.879 | 32.935 | 2 |
| 2025-06-19T19:21:00 | 53.715522 | 6.489359 | 2.0 | 16.735 | 2 | 42.403 | 16.872 | 32.932 | 2 |
| 2025-06-19T19:22:00 | 53.715670 | 6.489549 | 2.0 | 16.712 | 2 | 42.422 | 16.890 | 32.934 | 2 |
| 2025-06-19T19:23:00 | 53.715833 | 6.489733 | 2.0 | 16.744 | 2 | 42.412 | 16.879 | 32.934 | 2 |
| 2025-06-19T19:24:00 | 53.715981 | 6.489930 | 2.0 | 16.757 | 2 | 42.439 | 16.905 | 32.937 | 2 |
| 2025-06-19T19:25:00 | 53.716121 | 6.490084 | 2.0 | 16.730 | 2 | 42.450 | 16.913 | 32.940 | 2 |
| 2025-06-19T19:26:00 | 53.716255 | 6.490240 | 2.0 | 16.704 | 2 | 42.421 | 16.884 | 32.938 | 2 |
| 2025-06-19T19:27:00 | 53.716388 | 6.490400 | 2.0 | 16.678 | 2 | 42.400 | 16.867 | 32.934 | 2 |
| 2025-06-19T19:28:00 | 53.716515 | 6.490558 | 2.0 | 16.674 | 2 | 42.370 | 16.838 | 32.932 | 2 |
| 2025-06-19T19:29:00 | 53.716641 | 6.490709 | 2.0 | 16.696 | 2 | 42.382 | 16.852 | 32.931 | 2 |
| 2025-06-19T19:30:00 | 53.716781 | 6.490863 | 2.0 | 16.673 | 2 | 42.384 | 16.851 | 32.933 | 2 |
| 2025-06-19T19:31:00 | 53.716918 | 6.491028 | 2.0 | 16.693 | 2 | 42.371 | 16.839 | 32.932 | 2 |
| 2025-06-19T19:32:00 | 53.717059 | 6.491211 | 2.0 | 16.677 | 2 | 42.385 | 16.854 | 32.931 | 2 |
| 2025-06-19T19:33:00 | 53.717172 | 6.491391 | 2.0 | 16.671 | 2 | 42.374 | 16.841 | 32.933 | 2 |
| 2025-06-19T19:34:00 | 53.717299 | 6.491560 | 2.0 | 16.649 | 2 | 42.367 | 16.833 | 32.933 | 2 |
| 2025-06-19T19:35:00 | 53.717436 | 6.491749 | 2.0 | 16.655 | 2 | 42.347 | 16.813 | 32.932 | 2 |
| 2025-06-19T19:36:00 | 53.717582 | 6.491937 | 2.0 | 16.651 | 2 | 42.357 | 16.822 | 32.933 | 2 |
| 2025-06-19T19:37:00 | 53.717717 | 6.492125 | 2.0 | 16.647 | 2 | 42.351 | 16.814 | 32.935 | 2 |
| 2025-06-19T19:38:00 | 53.717853 | 6.492292 | 2.0 | 16.661 | 2 | 42.347 | 16.809 | 32.935 | 2 |
| 2025-06-19T19:39:00 | 53.717951 | 6.492462 | 2.0 | 16.660 | 2 | 42.362 | 16.825 | 32.935 | 2 |
| 2025-06-19T19:40:00 | 53.718046 | 6.492581 | 2.0 | 16.658 | 2 | 42.365 | 16.824 | 32.939 | 2 |
| 2025-06-19T19:41:00 | 53.718164 | 6.492680 | 2.0 | 16.654 | 2 | 42.360 | 16.817 | 32.940 | 2 |
| 2025-06-19T19:42:00 | 53.718257 | 6.492815 | 2.0 | 16.646 | 2 | 42.359 | 16.815 | 32.941 | 2 |
| 2025-06-19T19:43:00 | 53.718373 | 6.492944 | 2.0 | 16.663 | 2 | 42.355 | 16.809 | 32.942 | 2 |
| 2025-06-19T19:44:00 | 53.718471 | 6.493102 | 2.0 | 16.678 | 2 | 42.377 | 16.830 | 32.944 | 2 |
| 2025-06-19T19:45:00 | 53.718587 | 6.493246 | 2.0 | 16.647 | 2 | 42.382 | 16.831 | 32.948 | 2 |
| 2025-06-19T19:46:00 | 53.718679 | 6.493417 | 2.0 | 16.635 | 2 | 42.360 | 16.808 | 32.948 | 2 |
| 2025-06-19T19:47:00 | 53.718811 | 6.493532 | 2.0 | 16.627 | 2 | 42.351 | 16.799 | 32.947 | 2 |
| 2025-06-19T19:48:00 | 53.718894 | 6.493665 | 2.0 | 16.635 | 2 | 42.344 | 16.793 | 32.946 | 2 |
| 2025-06-19T19:49:00 | 53.718962 | 6.493775 | 2.0 | 16.632 | 2 | 42.348 | 16.794 | 32.949 | 2 |
| 2025-06-19T19:50:00 | 53.719038 | 6.493820 | 2.0 | 16.631 | 2 | 42.350 | 16.795 | 32.949 | 2 |
| 2025-06-19T19:51:00 | 53.719091 | 6.493861 | 2.0 | 16.617 | 2 | 42.346 | 16.789 | 32.951 | 2 |
| 2025-06-19T19:52:00 | 53.719157 | 6.493902 | 2.0 | 16.616 | 2 | 42.336 | 16.780 | 32.950 | 2 |
| 2025-06-19T19:53:00 | 53.719243 | 6.493913 | 2.0 | 16.605 | 2 | 42.335 | 16.778 | 32.950 | 2 |
| 2025-06-19T19:54:00 | 53.719286 | 6.493965 | 2.0 | 16.601 | 2 | 42.324 | 16.766 | 32.951 | 2 |
| 2025-06-19T19:55:00 | 53.719324 | 6.494014 | 2.0 | 16.592 | 2 | 42.316 | 16.760 | 32.949 | 2 |
| 2025-06-19T19:56:00 | 53.719380 | 6.494031 | 2.0 | 16.589 | 2 | 42.311 | 16.755 | 32.948 | 2 |
| 2025-06-19T19:57:00 | 53.719435 | 6.494059 | 2.0 | 16.590 | 2 | 42.307 | 16.750 | 32.949 | 2 |
| 2025-06-19T19:58:00 | 53.719490 | 6.494088 | 2.0 | 16.583 | 2 | 42.308 | 16.752 | 32.948 | 2 |
| 2025-06-19T19:59:00 | 53.719539 | 6.494114 | 2.0 | 16.577 | 2 | 42.303 | 16.746 | 32.949 | 2 |
| 2025-06-19T20:00:00 | 53.719533 | 6.494111 | 2.0 | 16.579 | 2 | 42.300 | 16.741 | 32.950 | 2 |
| 2025-06-19T20:01:00 | 53.719414 | 6.494036 | 2.0 | 16.582 | 2 | 42.299 | 16.741 | 32.949 | 2 |
| 2025-06-19T20:02:00 | 53.719200 | 6.493762 | 2.0 | 16.588 | 2 | 42.302 | 16.745 | 32.949 | 2 |
| 2025-06-19T20:03:00 | 53.718914 | 6.493252 | 2.0 | 16.599 | 2 | 42.308 | 16.752 | 32.948 | 2 |
| 2025-06-19T20:04:00 | 53.718576 | 6.492729 | 2.0 | 16.605 | 2 | 42.315 | 16.761 | 32.947 | 2 |
| 2025-06-19T20:05:00 | 53.718174 | 6.492251 | 2.0 | 16.616 | 2 | 42.323 | 16.769 | 32.947 | 2 |
| 2025-06-19T20:06:00 | 53.717724 | 6.491708 | 2.0 | 16.614 | 2 | 42.329 | 16.776 | 32.947 | 2 |
| 2025-06-19T20:07:00 | 53.717258 | 6.491255 | 2.0 | 16.610 | 2 | 42.326 | 16.775 | 32.945 | 2 |
| 2025-06-19T20:08:00 | 53.716766 | 6.490737 | 2.0 | 16.617 | 2 | 42.321 | 16.773 | 32.942 | 2 |
| 2025-06-19T20:09:00 | 53.716256 | 6.490257 | 2.0 | 16.622 | 2 | 42.325 | 16.780 | 32.940 | 2 |
| 2025-06-19T20:10:00 | 53.715727 | 6.489769 | 2.0 | 16.623 | 2 | 42.324 | 16.783 | 32.937 | 2 |
| 2025-06-19T20:11:00 | 53.715176 | 6.489278 | 2.0 | 16.633 | 2 | 42.324 | 16.786 | 32.934 | 2 |
| 2025-06-19T20:12:00 | 53.714622 | 6.488738 | 2.0 | 16.640 | 2 | 42.328 | 16.795 | 32.930 | 2 |
| 2025-06-19T20:13:00 | 53.714107 | 6.488111 | 2.0 | 16.636 | 2 | 42.332 | 16.802 | 32.928 | 2 |
| 2025-06-19T20:14:00 | 53.713617 | 6.487477 | 2.0 | 16.640 | 2 | 42.326 | 16.799 | 32.925 | 2 |
| 2025-06-19T20:15:00 | 53.713153 | 6.486857 | 2.0 | 16.644 | 2 | 42.325 | 16.801 | 32.923 | 2 |
| 2025-06-19T20:16:00 | 53.712711 | 6.486276 | 2.0 | 16.653 | 2 | 42.329 | 16.807 | 32.921 | 2 |
| 2025-06-19T20:17:00 | 53.712294 | 6.485756 | 2.0 | 16.655 | 2 | 42.334 | 16.814 | 32.920 | 2 |
| 2025-06-19T20:18:00 | 53.711894 | 6.485319 | 2.0 | 16.653 | 2 | 42.336 | 16.817 | 32.919 | 2 |
| 2025-06-19T20:19:00 | 53.711546 | 6.484981 | 2.0 | 16.656 | 2 | 42.332 | 16.813 | 32.919 | 2 |
| 2025-06-19T20:20:00 | 53.711259 | 6.484703 | 2.0 | 16.652 | 2 | 42.330 | 16.816 | 32.915 | 2 |
| 2025-06-19T20:21:00 | 53.711040 | 6.484441 | 2.0 | 16.653 | 2 | 42.329 | 16.815 | 32.915 | 2 |
| 2025-06-19T20:22:00 | 53.710884 | 6.484173 | 2.0 | 16.659 | 2 | 42.329 | 16.816 | 32.914 | 2 |
| 2025-06-19T20:23:00 | 53.710762 | 6.483869 | 2.0 | 16.656 | 2 | 42.331 | 16.818 | 32.914 | 2 |
| 2025-06-19T20:24:00 | 53.710659 | 6.483545 | 2.0 | 16.653 | 2 | 42.330 | 16.817 | 32.914 | 2 |
| 2025-06-19T20:25:00 | 53.710552 | 6.483180 | 2.0 | 16.654 | 2 | 42.326 | 16.813 | 32.914 | 2 |
| 2025-06-19T20:26:00 | 53.710437 | 6.482772 | 2.0 | 16.658 | 2 | 42.328 | 16.815 | 32.914 | 2 |
| 2025-06-19T20:27:00 | 53.710325 | 6.482323 | 2.0 | 16.644 | 2 | 42.328 | 16.816 | 32.913 | 2 |
| 2025-06-19T20:28:00 | 53.710204 | 6.481854 | 2.0 | 16.655 | 2 | 42.319 | 16.808 | 32.912 | 2 |
| 2025-06-19T20:29:00 | 53.710066 | 6.481365 | 2.0 | 16.650 | 2 | 42.325 | 16.813 | 32.913 | 2 |
| 2025-06-19T20:30:00 | 53.709936 | 6.480851 | 2.0 | 16.652 | 2 | 42.322 | 16.811 | 32.912 | 2 |
| 2025-06-19T20:31:00 | 53.709794 | 6.480319 | 2.0 | 16.642 | 2 | 42.321 | 16.811 | 32.911 | 2 |
| 2025-06-19T20:32:00 | 53.709648 | 6.479774 | 2.0 | 16.649 | 2 | 42.315 | 16.805 | 32.911 | 2 |
| 2025-06-19T20:33:00 | 53.709495 | 6.479239 | 2.0 | 16.647 | 2 | 42.318 | 16.810 | 32.909 | 2 |
| 2025-06-19T20:34:00 | 53.709352 | 6.478704 | 2.0 | 16.656 | 2 | 42.318 | 16.810 | 32.909 | 2 |
| 2025-06-19T20:35:00 | 53.709202 | 6.478158 | 2.0 | 16.660 | 2 | 42.323 | 16.817 | 32.908 | 2 |
| 2025-06-19T20:36:00 | 53.709050 | 6.477616 | 2.0 | 16.657 | 2 | 42.324 | 16.817 | 32.909 | 2 |
| 2025-06-19T20:37:00 | 53.708899 | 6.477092 | 2.0 | 16.662 | 2 | 42.325 | 16.819 | 32.908 | 2 |
| 2025-06-19T20:38:00 | 53.708748 | 6.476580 | 2.0 | 16.656 | 2 | 42.327 | 16.820 | 32.909 | 2 |
| 2025-06-19T20:39:00 | 53.708600 | 6.476070 | 2.0 | 16.658 | 2 | 42.323 | 16.815 | 32.910 | 2 |
| 2025-06-19T20:40:00 | 53.708435 | 6.475544 | 2.0 | 16.662 | 2 | 42.322 | 16.816 | 32.908 | 2 |
| 2025-06-19T20:41:00 | 53.708280 | 6.475004 | 2.0 | 16.659 | 2 | 42.329 | 16.824 | 32.907 | 2 |
| 2025-06-19T20:42:00 | 53.708129 | 6.474467 | 2.0 | 16.663 | 2 | 42.324 | 16.819 | 32.907 | 2 |
| 2025-06-19T20:43:00 | 53.707977 | 6.473935 | 2.0 | 16.701 | 2 | 42.315 | 16.828 | 32.892 | 2 |
| 2025-06-19T20:44:00 | 53.707837 | 6.473592 | 2.0 | 16.766 | 2 | 42.318 | 16.872 | 32.859 | 2 |
| 2025-06-19T20:45:00 | 53.707721 | 6.473463 | 2.0 | 16.762 | 2 | 42.341 | 16.919 | 32.840 | 2 |
| 2025-06-19T20:46:00 | 53.707628 | 6.473479 | 2.0 | 16.768 | 2 | 42.348 | 16.918 | 32.847 | 2 |
| 2025-06-19T20:47:00 | 53.707565 | 6.473543 | 2.0 | 16.787 | 2 | 42.353 | 16.931 | 32.841 | 2 |
| 2025-06-19T20:48:00 | 53.707478 | 6.473597 | 2.0 | 16.784 | 2 | 42.360 | 16.942 | 32.838 | 2 |
| 2025-06-19T20:49:00 | 53.707374 | 6.473637 | 2.0 | 16.799 | 2 | 42.362 | 16.947 | 32.835 | 2 |
| 2025-06-19T20:50:00 | 53.707301 | 6.473651 | 2.0 | 16.796 | 2 | 42.358 | 16.956 | 32.825 | 2 |
| 2025-06-19T20:51:00 | 53.707200 | 6.473675 | 2.0 | 16.811 | 2 | 42.353 | 16.957 | 32.820 | 2 |
| 2025-06-19T20:52:00 | 53.707111 | 6.473679 | 2.0 | 16.816 | 2 | 42.362 | 16.969 | 32.818 | 2 |
| 2025-06-19T20:53:00 | 53.707029 | 6.473672 | 2.0 | 16.805 | 2 | 42.362 | 16.972 | 32.815 | 2 |
| 2025-06-19T20:54:00 | 53.706946 | 6.473686 | 2.0 | 16.806 | 2 | 42.355 | 16.966 | 32.814 | 2 |
| 2025-06-19T20:55:00 | 53.706874 | 6.473713 | 2.0 | 16.804 | 2 | 42.355 | 16.965 | 32.815 | 2 |
| 2025-06-19T20:56:00 | 53.706792 | 6.473754 | 2.0 | 16.796 | 2 | 42.352 | 16.962 | 32.815 | 2 |
| 2025-06-19T20:57:00 | 53.706712 | 6.473802 | 2.0 | 16.809 | 2 | 42.345 | 16.956 | 32.813 | 2 |
| 2025-06-19T20:58:00 | 53.706638 | 6.473849 | 2.0 | 16.822 | 2 | 42.352 | 16.972 | 32.806 | 2 |
| 2025-06-19T20:59:00 | 53.706561 | 6.473906 | 2.0 | 16.825 | 2 | 42.361 | 16.982 | 32.806 | 2 |
| 2025-06-19T21:00:00 | 53.706489 | 6.473957 | 2.0 | 16.843 | 2 | 42.362 | 16.982 | 32.807 | 2 |
| 2025-06-19T21:01:00 | 53.706426 | 6.474012 | 2.0 | 16.877 | 2 | 42.357 | 17.008 | 32.781 | 2 |
| 2025-06-19T21:02:00 | 53.706339 | 6.474076 | 2.0 | 16.872 | 2 | 42.376 | 17.034 | 32.777 | 2 |
| 2025-06-19T21:03:00 | 53.706279 | 6.474135 | 2.0 | 16.880 | 2 | 42.380 | 17.033 | 32.781 | 2 |
| 2025-06-19T21:04:00 | 53.706233 | 6.474207 | 2.0 | 16.875 | 2 | 42.384 | 17.039 | 32.780 | 2 |
| 2025-06-19T21:05:00 | 53.706181 | 6.474299 | 2.0 | 16.976 | 2 | 42.389 | 17.039 | 32.784 | 2 |
| 2025-06-19T21:06:00 | 53.706159 | 6.474377 | 2.0 | 17.038 | 2 | 42.414 | 17.144 | 32.720 | 2 |
| 2025-06-19T21:07:00 | 53.706126 | 6.474447 | 2.0 | 17.076 | 2 | 42.447 | 17.199 | 32.704 | 2 |
| 2025-06-19T21:08:00 | 53.706070 | 6.474535 | 2.0 | 17.116 | 2 | 42.471 | 17.239 | 32.692 | 2 |
| 2025-06-19T21:09:00 | 53.706047 | 6.474606 | 2.0 | 17.148 | 2 | 42.482 | 17.274 | 32.673 | 2 |
| 2025-06-19T21:10:00 | 53.706004 | 6.474682 | 2.0 | 17.171 | 2 | 42.495 | 17.314 | 32.652 | 2 |
| 2025-06-19T21:11:00 | 53.705969 | 6.474772 | 2.0 | 17.202 | 2 | 42.506 | 17.324 | 32.654 | 2 |
| 2025-06-19T21:12:00 | 53.705926 | 6.474868 | 2.0 | 17.212 | 2 | 42.513 | 17.359 | 32.631 | 2 |
| 2025-06-19T21:13:00 | 53.705894 | 6.474967 | 2.0 | 17.223 | 2 | 42.520 | 17.371 | 32.628 | 2 |
| 2025-06-19T21:14:00 | 53.705857 | 6.475089 | 2.0 | 17.239 | 2 | 42.528 | 17.380 | 32.627 | 2 |
| 2025-06-19T21:15:00 | 53.705816 | 6.475221 | 2.0 | 17.259 | 2 | 42.539 | 17.397 | 32.623 | 2 |
| 2025-06-19T21:16:00 | 53.705795 | 6.475346 | 2.0 | 17.264 | 2 | 42.553 | 17.415 | 32.621 | 2 |
| 2025-06-19T21:17:00 | 53.705727 | 6.475475 | 2.0 | 17.270 | 2 | 42.557 | 17.419 | 32.621 | 2 |
| 2025-06-19T21:18:00 | 53.705702 | 6.475594 | 2.0 | 17.287 | 2 | 42.559 | 17.429 | 32.614 | 2 |
| 2025-06-19T21:19:00 | 53.705693 | 6.475687 | 2.0 | 17.291 | 2 | 42.568 | 17.443 | 32.611 | 2 |
| 2025-06-19T21:20:00 | 53.705632 | 6.475790 | 2.0 | 17.285 | 2 | 42.567 | 17.446 | 32.608 | 2 |
| 2025-06-19T21:21:00 | 53.705616 | 6.475902 | 2.0 | 17.283 | 2 | 42.574 | 17.442 | 32.617 | 2 |
| 2025-06-19T21:22:00 | 53.705555 | 6.476017 | 2.0 | 17.278 | 2 | 42.577 | 17.439 | 32.622 | 2 |
| 2025-06-19T21:23:00 | 53.705550 | 6.476115 | 2.0 | 17.316 | 2 | 42.581 | 17.440 | 32.624 | 2 |
| 2025-06-19T21:24:00 | 53.705590 | 6.476158 | 2.0 | 17.333 | 2 | 42.577 | 17.478 | 32.590 | 2 |
| 2025-06-19T21:25:00 | 53.705616 | 6.476197 | 2.0 | 17.313 | 2 | 42.584 | 17.486 | 32.590 | 2 |
| 2025-06-19T21:26:00 | 53.705628 | 6.476258 | 2.0 | 17.335 | 2 | 42.595 | 17.473 | 32.610 | 2 |
| 2025-06-19T21:27:00 | 53.705672 | 6.476289 | 2.0 | 17.359 | 2 | 42.576 | 17.495 | 32.576 | 2 |
| 2025-06-19T21:28:00 | 53.705708 | 6.476325 | 2.0 | 17.355 | 2 | 42.584 | 17.513 | 32.568 | 2 |
| 2025-06-19T21:29:00 | 53.705737 | 6.476383 | 2.0 | 17.367 | 2 | 42.606 | 17.516 | 32.585 | 2 |
| 2025-06-19T21:30:00 | 53.705782 | 6.476447 | 2.0 | 17.381 | 2 | 42.593 | 17.526 | 32.566 | 2 |
| 2025-06-19T21:31:00 | 53.705813 | 6.476529 | 2.0 | 17.398 | 2 | 42.596 | 17.540 | 32.557 | 2 |
| 2025-06-19T21:32:00 | 53.705863 | 6.476597 | 2.0 | 17.421 | 2 | 42.613 | 17.556 | 32.559 | 2 |
| 2025-06-19T21:33:00 | 53.705935 | 6.476661 | 2.0 | 17.424 | 2 | 42.613 | 17.576 | 32.542 | 2 |
| 2025-06-19T21:34:00 | 53.705981 | 6.476755 | 2.0 | 17.431 | 2 | 42.612 | 17.582 | 32.537 | 2 |
| 2025-06-19T21:35:00 | 53.706054 | 6.476838 | 2.0 | 17.437 | 2 | 42.609 | 17.585 | 32.532 | 2 |
| 2025-06-19T21:36:00 | 53.706080 | 6.476929 | 2.0 | 17.447 | 2 | 42.606 | 17.593 | 32.523 | 2 |
| 2025-06-19T21:37:00 | 53.706107 | 6.477012 | 2.0 | 17.456 | 2 | 42.614 | 17.606 | 32.519 | 2 |
| 2025-06-19T21:38:00 | 53.706170 | 6.477074 | 2.0 | 17.454 | 2 | 42.613 | 17.611 | 32.514 | 2 |
| 2025-06-19T21:39:00 | 53.706206 | 6.477139 | 2.0 | 17.474 | 2 | 42.608 | 17.612 | 32.509 | 2 |
| 2025-06-19T21:40:00 | 53.706248 | 6.477223 | 2.0 | 17.483 | 2 | 42.618 | 17.630 | 32.504 | 2 |
| 2025-06-19T21:41:00 | 53.706319 | 6.477303 | 2.0 | 17.488 | 2 | 42.623 | 17.639 | 32.501 | 2 |
| 2025-06-19T21:42:00 | 53.706347 | 6.477404 | 2.0 | 17.495 | 2 | 42.620 | 17.644 | 32.494 | 2 |
| 2025-06-19T21:43:00 | 53.706413 | 6.477507 | 2.0 | 17.494 | 2 | 42.619 | 17.651 | 32.488 | 2 |
| 2025-06-19T21:44:00 | 53.706477 | 6.477594 | 2.0 | 17.501 | 2 | 42.615 | 17.651 | 32.484 | 2 |
| 2025-06-19T21:45:00 | 53.706519 | 6.477719 | 2.0 | 17.502 | 2 | 42.615 | 17.657 | 32.479 | 2 |
| 2025-06-19T21:46:00 | 53.706575 | 6.477832 | 2.0 | 17.526 | 2 | 42.618 | 17.665 | 32.476 | 2 |
| 2025-06-19T21:47:00 | 53.706616 | 6.477968 | 2.0 | 17.526 | 2 | 42.625 | 17.680 | 32.470 | 2 |
| 2025-06-19T21:48:00 | 53.706680 | 6.478091 | 2.0 | 17.533 | 2 | 42.623 | 17.682 | 32.466 | 2 |
| 2025-06-19T21:49:00 | 53.706761 | 6.478183 | 2.0 | 17.523 | 2 | 42.627 | 17.688 | 32.465 | 2 |
| 2025-06-19T21:50:00 | 53.706849 | 6.478276 | 2.0 | 17.534 | 2 | 42.617 | 17.680 | 32.463 | 2 |
| 2025-06-19T21:51:00 | 53.706932 | 6.478392 | 2.0 | 17.548 | 2 | 42.624 | 17.694 | 32.458 | 2 |
| 2025-06-19T21:52:00 | 53.707032 | 6.478467 | 2.0 | 17.553 | 2 | 42.622 | 17.705 | 32.447 | 2 |
| 2025-06-19T21:53:00 | 53.707103 | 6.478539 | 2.0 | 17.553 | 2 | 42.627 | 17.708 | 32.449 | 2 |
| 2025-06-19T21:54:00 | 53.707126 | 6.478603 | 2.0 | 17.561 | 2 | 42.635 | 17.713 | 32.452 | 2 |
| 2025-06-19T21:55:00 | 53.707194 | 6.478618 | 2.0 | 17.555 | 2 | 42.633 | 17.716 | 32.448 | 2 |
| 2025-06-19T21:56:00 | 53.707292 | 6.478624 | 2.0 | 17.560 | 2 | 42.628 | 17.711 | 32.447 | 2 |
| 2025-06-19T21:57:00 | 53.707360 | 6.478676 | 2.0 | 17.568 | 2 | 42.633 | 17.719 | 32.445 | 2 |
| 2025-06-19T21:58:00 | 53.707391 | 6.478772 | 2.0 | 17.558 | 2 | 42.631 | 17.721 | 32.442 | 2 |
| 2025-06-19T21:59:00 | 53.707453 | 6.478843 | 2.0 | 17.545 | 2 | 42.623 | 17.712 | 32.442 | 2 |
| 2025-06-19T22:00:00 | 53.707559 | 6.478899 | 2.0 | 17.538 | 2 | 42.622 | 17.699 | 32.452 | 2 |
| 2025-06-19T22:01:00 | 53.707662 | 6.478979 | 2.0 | 17.558 | 2 | 42.620 | 17.699 | 32.450 | 2 |
| 2025-06-19T22:02:00 | 53.707772 | 6.479028 | 2.0 | 17.548 | 2 | 42.624 | 17.710 | 32.445 | 2 |
| 2025-06-19T22:03:00 | 53.707881 | 6.479027 | 2.0 | 17.545 | 2 | 42.629 | 17.702 | 32.455 | 2 |
| 2025-06-19T22:04:00 | 53.707966 | 6.479047 | 2.0 | 17.559 | 2 | 42.634 | 17.706 | 32.456 | 2 |
| 2025-06-19T22:05:00 | 53.708024 | 6.479088 | 2.0 | 17.577 | 2 | 42.660 | 17.717 | 32.470 | 2 |
| 2025-06-19T22:06:00 | 53.708100 | 6.479104 | 2.0 | 17.595 | 2 | 42.664 | 17.736 | 32.458 | 2 |
| 2025-06-19T22:07:00 | 53.708174 | 6.479114 | 2.0 | 17.599 | 2 | 42.653 | 17.751 | 32.437 | 2 |
| 2025-06-19T22:08:00 | 53.708205 | 6.479144 | 2.0 | 17.592 | 2 | 42.657 | 17.752 | 32.439 | 2 |
| 2025-06-19T22:09:00 | 53.708273 | 6.479137 | 2.0 | 17.614 | 2 | 42.664 | 17.753 | 32.444 | 2 |
| 2025-06-19T22:10:00 | 53.708330 | 6.479081 | 2.0 | 17.611 | 2 | 42.653 | 17.769 | 32.422 | 2 |
| 2025-06-19T22:11:00 | 53.708353 | 6.479064 | 2.0 | 17.616 | 2 | 42.649 | 17.767 | 32.421 | 2 |
| 2025-06-19T22:12:00 | 53.708336 | 6.479097 | 2.0 | 17.623 | 2 | 42.659 | 17.774 | 32.424 | 2 |
| 2025-06-19T22:13:00 | 53.708351 | 6.479120 | 2.0 | 17.623 | 2 | 42.650 | 17.778 | 32.413 | 2 |
| 2025-06-19T22:14:00 | 53.708407 | 6.479125 | 2.0 | 17.630 | 2 | 42.655 | 17.780 | 32.415 | 2 |
| 2025-06-19T22:15:00 | 53.708437 | 6.479164 | 2.0 | 17.636 | 2 | 42.656 | 17.789 | 32.409 | 2 |
| 2025-06-19T22:16:00 | 53.708461 | 6.479244 | 2.0 | 17.636 | 2 | 42.655 | 17.794 | 32.404 | 2 |
| 2025-06-19T22:17:00 | 53.708506 | 6.479322 | 2.0 | 17.634 | 2 | 42.649 | 17.790 | 32.402 | 2 |
| 2025-06-19T22:18:00 | 53.708552 | 6.479367 | 2.0 | 17.643 | 2 | 42.653 | 17.792 | 32.404 | 2 |
| 2025-06-19T22:19:00 | 53.708588 | 6.479428 | 2.0 | 17.644 | 2 | 42.659 | 17.800 | 32.403 | 2 |
| 2025-06-19T22:20:00 | 53.708610 | 6.479500 | 2.0 | 17.649 | 2 | 42.656 | 17.801 | 32.400 | 2 |
| 2025-06-19T22:21:00 | 53.708663 | 6.479562 | 2.0 | 17.654 | 2 | 42.656 | 17.805 | 32.396 | 2 |
| 2025-06-19T22:22:00 | 53.708713 | 6.479642 | 2.0 | 17.666 | 2 | 42.657 | 17.811 | 32.392 | 2 |
| 2025-06-19T22:23:00 | 53.708742 | 6.479767 | 2.0 | 17.667 | 2 | 42.663 | 17.822 | 32.389 | 2 |
| 2025-06-19T22:24:00 | 53.708783 | 6.479883 | 2.0 | 17.671 | 2 | 42.659 | 17.824 | 32.384 | 2 |
| 2025-06-19T22:25:00 | 53.708826 | 6.479987 | 2.0 | 17.677 | 2 | 42.654 | 17.825 | 32.379 | 2 |
| 2025-06-19T22:26:00 | 53.708851 | 6.480135 | 2.0 | 17.685 | 2 | 42.658 | 17.834 | 32.375 | 2 |
| 2025-06-19T22:27:00 | 53.708893 | 6.480301 | 2.0 | 17.678 | 2 | 42.662 | 17.841 | 32.373 | 2 |
| 2025-06-19T22:28:00 | 53.708965 | 6.480446 | 2.0 | 17.671 | 2 | 42.656 | 17.832 | 32.375 | 2 |
| 2025-06-19T22:29:00 | 53.709007 | 6.480611 | 2.0 | 17.673 | 2 | 42.650 | 17.827 | 32.374 | 2 |
| 2025-06-19T22:30:00 | 53.709020 | 6.480820 | 2.0 | 17.679 | 2 | 42.655 | 17.830 | 32.376 | 2 |
| 2025-06-19T22:31:00 | 53.709063 | 6.481016 | 2.0 | 17.670 | 2 | 42.655 | 17.833 | 32.373 | 2 |
| 2025-06-19T22:32:00 | 53.709125 | 6.481170 | 2.0 | 17.661 | 2 | 42.646 | 17.824 | 32.373 | 2 |
| 2025-06-19T22:33:00 | 53.709208 | 6.481286 | 2.0 | 17.656 | 2 | 42.641 | 17.819 | 32.372 | 2 |
| 2025-06-19T22:34:00 | 53.709283 | 6.481413 | 2.0 | 17.652 | 2 | 42.636 | 17.811 | 32.375 | 2 |
| 2025-06-19T22:35:00 | 53.709352 | 6.481579 | 2.0 | 17.657 | 2 | 42.638 | 17.810 | 32.377 | 2 |
| 2025-06-19T22:36:00 | 53.709447 | 6.481735 | 2.0 | 17.649 | 2 | 42.633 | 17.812 | 32.371 | 2 |
| 2025-06-19T22:37:00 | 53.709543 | 6.481878 | 2.0 | 17.648 | 2 | 42.640 | 17.806 | 32.382 | 2 |
| 2025-06-19T22:38:00 | 53.709626 | 6.482058 | 2.0 | 17.650 | 2 | 42.650 | 17.804 | 32.392 | 2 |
| 2025-06-19T22:39:00 | 53.709711 | 6.482256 | 2.0 | 17.646 | 2 | 42.650 | 17.807 | 32.390 | 2 |
| 2025-06-19T22:40:00 | 53.709797 | 6.482417 | 2.0 | 17.645 | 2 | 42.645 | 17.802 | 32.389 | 2 |
| 2025-06-19T22:41:00 | 53.709863 | 6.482512 | 2.0 | 17.644 | 2 | 42.647 | 17.801 | 32.392 | 2 |
| 2025-06-19T22:42:00 | 53.709898 | 6.482514 | 2.0 | 17.646 | 2 | 42.647 | 17.801 | 32.392 | 2 |
| 2025-06-19T22:43:00 | 53.709901 | 6.482442 | 2.0 | 17.649 | 2 | 42.647 | 17.803 | 32.390 | 2 |
| 2025-06-19T22:44:00 | 53.709875 | 6.482328 | 2.0 | 17.643 | 2 | 42.647 | 17.804 | 32.389 | 2 |
| 2025-06-19T22:45:00 | 53.709830 | 6.482203 | 2.0 | 17.626 | 2 | 42.644 | 17.800 | 32.390 | 2 |
| 2025-06-19T22:46:00 | 53.709761 | 6.482065 | 2.0 | 17.552 | 2 | 42.656 | 17.776 | 32.419 | 2 |
| 2025-06-19T22:47:00 | 53.709673 | 6.481897 | 2.0 | 17.638 | 2 | 42.646 | 17.719 | 32.456 | 2 |
| 2025-06-19T22:48:00 | 53.709583 | 6.481697 | 2.0 | 17.640 | 2 | 42.642 | 17.789 | 32.397 | 2 |
| 2025-06-19T22:49:00 | 53.709512 | 6.481457 | 2.0 | 17.613 | 2 | 42.648 | 17.789 | 32.402 | 2 |
| 2025-06-19T22:50:00 | 53.709471 | 6.481216 | 2.0 | 17.648 | 2 | 42.643 | 17.755 | 32.425 | 2 |
| 2025-06-19T22:51:00 | 53.709458 | 6.481020 | 2.0 | 17.584 | 2 | 42.638 | 17.795 | 32.389 | 2 |
| 2025-06-19T22:52:00 | 53.709483 | 6.480908 | 2.0 | 17.512 | 2 | 42.640 | 17.717 | 32.453 | 2 |
| 2025-06-19T22:53:00 | 53.709524 | 6.480849 | 2.0 | 17.580 | 2 | 42.639 | 17.688 | 32.475 | 2 |
| 2025-06-19T22:54:00 | 53.709570 | 6.480810 | 2.0 | 17.561 | 2 | 42.648 | 17.736 | 32.444 | 2 |
| 2025-06-19T22:55:00 | 53.709624 | 6.480780 | 2.0 | 17.595 | 2 | 42.649 | 17.721 | 32.457 | 2 |
| 2025-06-19T22:56:00 | 53.709688 | 6.480712 | 2.0 | 17.481 | 2 | 42.649 | 17.736 | 32.445 | 2 |
| 2025-06-19T22:57:00 | 53.709775 | 6.480570 | 2.0 | 17.482 | 2 | 42.643 | 17.656 | 32.504 | 2 |
| 2025-06-19T22:58:00 | 53.709851 | 6.480389 | 2.0 | 17.493 | 2 | 42.636 | 17.636 | 32.514 | 2 |
| 2025-06-19T22:59:00 | 53.709927 | 6.480235 | 2.0 | 17.514 | 2 | 42.636 | 17.663 | 32.492 | 2 |
| 2025-06-19T23:00:00 | 53.709941 | 6.480117 | 2.0 | 17.489 | 2 | 42.640 | 17.667 | 32.493 | 2 |
| 2025-06-19T23:01:00 | 53.709910 | 6.480011 | 2.0 | 17.457 | 2 | 42.637 | 17.642 | 32.510 | 2 |
| 2025-06-19T23:02:00 | 53.709839 | 6.479904 | 2.0 | 17.398 | 2 | 42.627 | 17.607 | 32.530 | 2 |
| 2025-06-19T23:03:00 | 53.709726 | 6.479775 | 2.0 | 17.418 | 2 | 42.609 | 17.556 | 32.555 | 2 |
| 2025-06-19T23:04:00 | 53.709580 | 6.479647 | 2.0 | 17.467 | 2 | 42.611 | 17.602 | 32.520 | 2 |
| 2025-06-19T23:05:00 | 53.709416 | 6.479531 | 2.0 | 17.396 | 2 | 42.616 | 17.606 | 32.521 | 2 |
| 2025-06-19T23:06:00 | 53.709230 | 6.479431 | 2.0 | 17.491 | 2 | 42.596 | 17.554 | 32.546 | 2 |
| 2025-06-19T23:07:00 | 53.709032 | 6.479359 | 2.0 | 17.583 | 2 | 42.612 | 17.668 | 32.468 | 2 |
| 2025-06-19T23:08:00 | 53.708842 | 6.479288 | 2.0 | 17.703 | 2 | 42.640 | 17.763 | 32.416 | 2 |
| 2025-06-19T23:09:00 | 53.708666 | 6.479211 | 2.0 | 17.709 | 2 | 42.641 | 17.856 | 32.343 | 2 |
| 2025-06-19T23:10:00 | 53.708500 | 6.479152 | 2.0 | 17.718 | 2 | 42.666 | 17.860 | 32.361 | 2 |
| 2025-06-19T23:11:00 | 53.708350 | 6.479123 | 2.0 | 17.733 | 2 | 42.659 | 17.876 | 32.343 | 2 |
| 2025-06-19T23:12:00 | 53.708219 | 6.479138 | 2.0 | 17.735 | 2 | 42.652 | 17.888 | 32.327 | 2 |
| 2025-06-19T23:13:00 | 53.708100 | 6.479179 | 2.0 | 17.734 | 2 | 42.651 | 17.889 | 32.325 | 2 |
| 2025-06-19T23:14:00 | 53.707996 | 6.479258 | 2.0 | 17.739 | 2 | 42.656 | 17.889 | 32.330 | 2 |
| 2025-06-19T23:15:00 | 53.707884 | 6.479357 | 2.0 | 17.732 | 2 | 42.673 | 17.892 | 32.342 | 2 |
| 2025-06-19T23:16:00 | 53.707792 | 6.479459 | 2.0 | 17.722 | 2 | 42.691 | 17.887 | 32.361 | 2 |
| 2025-06-19T23:17:00 | 53.707716 | 6.479543 | 2.0 | 17.714 | 2 | 42.701 | 17.874 | 32.380 | 2 |
| 2025-06-19T23:18:00 | 53.707677 | 6.479545 | 2.0 | 17.716 | 2 | 42.703 | 17.871 | 32.384 | 2 |
| 2025-06-19T23:19:00 | 53.707646 | 6.479471 | 2.0 | 17.710 | 2 | 42.702 | 17.873 | 32.381 | 2 |
| 2025-06-19T23:20:00 | 53.707627 | 6.479376 | 2.0 | 17.698 | 2 | 42.704 | 17.862 | 32.392 | 2 |
| 2025-06-19T23:21:00 | 53.707594 | 6.479296 | 2.0 | 17.708 | 2 | 42.697 | 17.860 | 32.387 | 2 |
| 2025-06-19T23:22:00 | 53.707573 | 6.479222 | 2.0 | 17.699 | 2 | 42.688 | 17.861 | 32.379 | 2 |
| 2025-06-19T23:23:00 | 53.707575 | 6.479183 | 2.0 | 17.644 | 2 | 42.679 | 17.852 | 32.378 | 2 |
| 2025-06-19T23:24:00 | 53.707604 | 6.479243 | 2.0 | 17.562 | 2 | 42.666 | 17.778 | 32.426 | 2 |
| 2025-06-19T23:25:00 | 53.707653 | 6.479342 | 2.0 | 17.481 | 2 | 42.656 | 17.692 | 32.486 | 2 |
| 2025-06-19T23:26:00 | 53.707714 | 6.479381 | 2.0 | 17.435 | 2 | 42.639 | 17.649 | 32.506 | 2 |
| 2025-06-19T23:27:00 | 53.707763 | 6.479378 | 2.0 | 17.531 | 2 | 42.622 | 17.604 | 32.528 | 2 |
| 2025-06-19T23:28:00 | 53.707841 | 6.479404 | 2.0 | 17.687 | 2 | 42.622 | 17.716 | 32.438 | 2 |
| 2025-06-19T23:29:00 | 53.707946 | 6.479481 | 2.0 | 17.569 | 2 | 42.653 | 17.796 | 32.401 | 2 |
| 2025-06-19T23:30:00 | 53.708052 | 6.479567 | 2.0 | 17.652 | 2 | 42.659 | 17.754 | 32.439 | 2 |
| 2025-06-19T23:31:00 | 53.708164 | 6.479615 | 2.0 | 17.681 | 2 | 42.662 | 17.814 | 32.394 | 2 |
| 2025-06-19T23:32:00 | 53.708270 | 6.479658 | 2.0 | 17.661 | 2 | 42.666 | 17.823 | 32.391 | 2 |
| 2025-06-19T23:33:00 | 53.708358 | 6.479697 | 2.0 | 17.705 | 2 | 42.673 | 17.826 | 32.394 | 2 |
| 2025-06-19T23:34:00 | 53.708437 | 6.479723 | 2.0 | 17.709 | 2 | 42.663 | 17.859 | 32.359 | 2 |
| 2025-06-19T23:35:00 | 53.708495 | 6.479727 | 2.0 | 17.705 | 2 | 42.657 | 17.863 | 32.351 | 2 |
| 2025-06-19T23:36:00 | 53.708545 | 6.479718 | 2.0 | 17.706 | 2 | 42.653 | 17.861 | 32.349 | 2 |
| 2025-06-19T23:37:00 | 53.708591 | 6.479700 | 2.0 | 17.699 | 2 | 42.653 | 17.860 | 32.350 | 2 |
| 2025-06-19T23:38:00 | 53.708640 | 6.479699 | 2.0 | 17.694 | 2 | 42.646 | 17.855 | 32.348 | 2 |
| 2025-06-19T23:39:00 | 53.708699 | 6.479695 | 2.0 | 17.694 | 2 | 42.643 | 17.852 | 32.348 | 2 |
| 2025-06-19T23:40:00 | 53.708757 | 6.479691 | 2.0 | 17.691 | 2 | 42.642 | 17.849 | 32.350 | 2 |
| 2025-06-19T23:41:00 | 53.708834 | 6.479682 | 2.0 | 17.683 | 2 | 42.641 | 17.847 | 32.350 | 2 |
| 2025-06-19T23:42:00 | 53.708925 | 6.479666 | 2.0 | 17.678 | 2 | 42.635 | 17.840 | 32.351 | 2 |
| 2025-06-19T23:43:00 | 53.709029 | 6.479648 | 2.0 | 17.674 | 2 | 42.631 | 17.835 | 32.351 | 2 |
| 2025-06-19T23:44:00 | 53.709121 | 6.479642 | 2.0 | 17.671 | 2 | 42.635 | 17.830 | 32.359 | 2 |
| 2025-06-19T23:45:00 | 53.709190 | 6.479635 | 2.0 | 17.670 | 2 | 42.638 | 17.828 | 32.363 | 2 |
| 2025-06-19T23:46:00 | 53.709245 | 6.479654 | 2.0 | 17.668 | 2 | 42.635 | 17.827 | 32.361 | 2 |
| 2025-06-19T23:47:00 | 53.709291 | 6.479691 | 2.0 | 17.668 | 2 | 42.633 | 17.825 | 32.361 | 2 |
| 2025-06-19T23:48:00 | 53.709348 | 6.479720 | 2.0 | 17.663 | 2 | 42.634 | 17.825 | 32.362 | 2 |
| 2025-06-19T23:49:00 | 53.709408 | 6.479743 | 2.0 | 17.658 | 2 | 42.633 | 17.819 | 32.366 | 2 |
| 2025-06-19T23:50:00 | 53.709467 | 6.479794 | 2.0 | 17.655 | 2 | 42.632 | 17.814 | 32.369 | 2 |
| 2025-06-19T23:51:00 | 53.709497 | 6.479877 | 2.0 | 17.652 | 2 | 42.633 | 17.811 | 32.372 | 2 |
| 2025-06-19T23:52:00 | 53.709524 | 6.479962 | 2.0 | 17.652 | 2 | 42.629 | 17.810 | 32.369 | 2 |
| 2025-06-19T23:53:00 | 53.709544 | 6.480033 | 2.0 | 17.650 | 2 | 42.635 | 17.809 | 32.375 | 2 |
| 2025-06-19T23:54:00 | 53.709559 | 6.480099 | 2.0 | 17.643 | 2 | 42.629 | 17.806 | 32.373 | 2 |
| 2025-06-19T23:55:00 | 53.709545 | 6.480183 | 2.0 | 17.640 | 2 | 42.618 | 17.800 | 32.368 | 2 |
| 2025-06-19T23:56:00 | 53.709546 | 6.480290 | 2.0 | 17.639 | 2 | 42.618 | 17.798 | 32.370 | 2 |
| 2025-06-19T23:57:00 | 53.709584 | 6.480349 | 2.0 | 17.637 | 2 | 42.617 | 17.796 | 32.370 | 2 |
| 2025-06-19T23:58:00 | 53.709638 | 6.480322 | 2.0 | 17.626 | 2 | 42.616 | 17.792 | 32.373 | 2 |
| 2025-06-19T23:59:00 | 53.709711 | 6.480273 | 2.0 | 17.622 | 2 | 42.613 | 17.784 | 32.377 | 2 |
| 2025-06-20T00:00:00 | 53.709779 | 6.480236 | 2.0 | 17.618 | 2 | 42.620 | 17.779 | 32.386 | 2 |
| 2025-06-20T00:01:00 | 53.709851 | 6.480222 | 2.0 | 17.614 | 2 | 42.629 | 17.774 | 32.398 | 2 |
| 2025-06-20T00:02:00 | 53.709940 | 6.480186 | 2.0 | 17.606 | 2 | 42.630 | 17.771 | 32.401 | 2 |
| 2025-06-20T00:03:00 | 53.710029 | 6.480141 | 2.0 | 17.596 | 2 | 42.633 | 17.762 | 32.411 | 2 |
| 2025-06-20T00:04:00 | 53.710138 | 6.480091 | 2.0 | 17.588 | 2 | 42.638 | 17.753 | 32.422 | 2 |
| 2025-06-20T00:05:00 | 53.710263 | 6.480066 | 2.0 | 17.582 | 2 | 42.639 | 17.747 | 32.428 | 2 |
| 2025-06-20T00:06:00 | 53.710394 | 6.480051 | 2.0 | 17.571 | 2 | 42.629 | 17.738 | 32.427 | 2 |
| 2025-06-20T00:07:00 | 53.710516 | 6.480031 | 2.0 | 17.563 | 2 | 42.623 | 17.728 | 32.430 | 2 |
| 2025-06-20T00:08:00 | 53.710627 | 6.480033 | 2.0 | 17.565 | 2 | 42.622 | 17.722 | 32.434 | 2 |
| 2025-06-20T00:09:00 | 53.710741 | 6.480051 | 2.0 | 17.560 | 2 | 42.614 | 17.722 | 32.427 | 2 |
| 2025-06-20T00:10:00 | 53.710867 | 6.480044 | 2.0 | 17.555 | 2 | 42.605 | 17.718 | 32.422 | 2 |
| 2025-06-20T00:11:00 | 53.711009 | 6.480038 | 2.0 | 17.553 | 2 | 42.601 | 17.712 | 32.424 | 2 |
| 2025-06-20T00:12:00 | 53.711161 | 6.480024 | 2.0 | 17.546 | 2 | 42.609 | 17.710 | 32.432 | 2 |
| 2025-06-20T00:13:00 | 53.711323 | 6.480017 | 2.0 | 17.539 | 2 | 42.616 | 17.704 | 32.443 | 2 |
| 2025-06-20T00:14:00 | 53.711486 | 6.480010 | 2.0 | 17.534 | 2 | 42.602 | 17.698 | 32.436 | 2 |
| 2025-06-20T00:15:00 | 53.711600 | 6.480064 | 2.0 | 17.523 | 2 | 42.581 | 17.691 | 32.423 | 2 |
| 2025-06-20T00:16:00 | 53.711665 | 6.480166 | 2.0 | 17.518 | 2 | 42.567 | 17.681 | 32.419 | 2 |
| 2025-06-20T00:17:00 | 53.711690 | 6.480305 | 2.0 | 17.514 | 2 | 42.561 | 17.677 | 32.417 | 2 |
| 2025-06-20T00:18:00 | 53.711683 | 6.480481 | 2.0 | 17.515 | 2 | 42.557 | 17.673 | 32.417 | 2 |
| 2025-06-20T00:19:00 | 53.711659 | 6.480687 | 2.0 | 17.509 | 2 | 42.557 | 17.672 | 32.418 | 2 |
| 2025-06-20T00:20:00 | 53.711609 | 6.480933 | 2.0 | 17.507 | 2 | 42.553 | 17.667 | 32.419 | 2 |
| 2025-06-20T00:21:00 | 53.711549 | 6.481202 | 2.0 | 17.499 | 2 | 42.552 | 17.664 | 32.420 | 2 |
| 2025-06-20T00:22:00 | 53.711458 | 6.481510 | 2.0 | 17.499 | 2 | 42.552 | 17.658 | 32.425 | 2 |
| 2025-06-20T00:23:00 | 53.711369 | 6.481857 | 2.0 | 17.494 | 2 | 42.558 | 17.657 | 32.431 | 2 |
| 2025-06-20T00:24:00 | 53.711273 | 6.482236 | 2.0 | 17.486 | 2 | 42.553 | 17.652 | 32.431 | 2 |
| 2025-06-20T00:25:00 | 53.711178 | 6.482641 | 2.0 | 17.487 | 2 | 42.544 | 17.646 | 32.428 | 2 |
| 2025-06-20T00:26:00 | 53.711100 | 6.483024 | 2.0 | 17.484 | 2 | 42.551 | 17.645 | 32.434 | 2 |
| 2025-06-20T00:27:00 | 53.711025 | 6.483297 | 2.0 | 17.485 | 2 | 42.556 | 17.642 | 32.441 | 2 |
| 2025-06-20T00:28:00 | 53.710970 | 6.483485 | 2.0 | 17.481 | 2 | 42.554 | 17.641 | 32.440 | 2 |
| 2025-06-20T00:29:00 | 53.710974 | 6.483619 | 2.0 | 17.486 | 2 | 42.548 | 17.640 | 32.436 | 2 |
| 2025-06-20T00:30:00 | 53.711040 | 6.483687 | 2.0 | 17.487 | 2 | 42.551 | 17.644 | 32.435 | 2 |
| 2025-06-20T00:31:00 | 53.711127 | 6.483671 | 2.0 | 17.473 | 2 | 42.560 | 17.643 | 32.444 | 2 |
| 2025-06-20T00:32:00 | 53.711235 | 6.483596 | 2.0 | 17.461 | 2 | 42.592 | 17.629 | 32.482 | 2 |
| 2025-06-20T00:33:00 | 53.711334 | 6.483531 | 2.0 | 17.460 | 2 | 42.609 | 17.620 | 32.504 | 2 |
| 2025-06-20T00:34:00 | 53.711422 | 6.483444 | 2.0 | 17.450 | 2 | 42.612 | 17.614 | 32.511 | 2 |
| 2025-06-20T00:35:00 | 53.711514 | 6.483357 | 2.0 | 17.439 | 2 | 42.628 | 17.606 | 32.531 | 2 |
| 2025-06-20T00:36:00 | 53.711599 | 6.483309 | 2.0 | 17.435 | 2 | 42.614 | 17.600 | 32.524 | 2 |
| 2025-06-20T00:37:00 | 53.711675 | 6.483275 | 2.0 | 17.429 | 2 | 42.608 | 17.593 | 32.525 | 2 |
| 2025-06-20T00:38:00 | 53.711740 | 6.483229 | 2.0 | 17.419 | 2 | 42.605 | 17.587 | 32.527 | 2 |
| 2025-06-20T00:39:00 | 53.711827 | 6.483210 | 2.0 | 17.403 | 2 | 42.596 | 17.576 | 32.528 | 2 |
| 2025-06-20T00:40:00 | 53.711893 | 6.483200 | 2.0 | 17.395 | 2 | 42.564 | 17.560 | 32.514 | 2 |
| 2025-06-20T00:41:00 | 53.711957 | 6.483178 | 2.0 | 17.387 | 2 | 42.573 | 17.552 | 32.528 | 2 |
| 2025-06-20T00:42:00 | 53.712058 | 6.483175 | 2.0 | 17.381 | 2 | 42.575 | 17.545 | 32.535 | 2 |
| 2025-06-20T00:43:00 | 53.712149 | 6.483183 | 2.0 | 17.377 | 2 | 42.552 | 17.540 | 32.519 | 2 |
| 2025-06-20T00:44:00 | 53.712214 | 6.483162 | 2.0 | 17.366 | 2 | 42.546 | 17.534 | 32.519 | 2 |
| 2025-06-20T00:45:00 | 53.712261 | 6.483129 | 2.0 | 17.364 | 2 | 42.557 | 17.526 | 32.535 | 2 |
| 2025-06-20T00:46:00 | 53.712301 | 6.483088 | 2.0 | 17.349 | 2 | 42.561 | 17.519 | 32.544 | 2 |
| 2025-06-20T00:47:00 | 53.712325 | 6.483049 | 2.0 | 17.337 | 2 | 42.535 | 17.505 | 32.533 | 2 |
| 2025-06-20T00:48:00 | 53.712378 | 6.483006 | 2.0 | 17.322 | 2 | 42.550 | 17.491 | 32.557 | 2 |
| 2025-06-20T00:49:00 | 53.712420 | 6.482977 | 2.0 | 17.326 | 2 | 42.534 | 17.483 | 32.550 | 2 |
| 2025-06-20T00:50:00 | 53.712477 | 6.482935 | 2.0 | 17.311 | 2 | 42.537 | 17.482 | 32.553 | 2 |
| 2025-06-20T00:51:00 | 53.712542 | 6.482903 | 2.0 | 17.313 | 2 | 42.538 | 17.473 | 32.561 | 2 |
| 2025-06-20T00:52:00 | 53.712612 | 6.482868 | 2.0 | 17.304 | 2 | 42.541 | 17.471 | 32.565 | 2 |
| 2025-06-20T00:53:00 | 53.712674 | 6.482815 | 2.0 | 17.287 | 2 | 42.542 | 17.466 | 32.570 | 2 |
| 2025-06-20T00:54:00 | 53.712758 | 6.482755 | 2.0 | 17.264 | 2 | 42.497 | 17.439 | 32.553 | 2 |
| 2025-06-20T00:55:00 | 53.712830 | 6.482698 | 2.0 | 17.260 | 2 | 42.485 | 17.427 | 32.553 | 2 |
| 2025-06-20T00:56:00 | 53.712894 | 6.482629 | 2.0 | 17.259 | 2 | 42.471 | 17.421 | 32.546 | 2 |
| 2025-06-20T00:57:00 | 53.712981 | 6.482558 | 2.0 | 17.258 | 2 | 42.470 | 17.419 | 32.546 | 2 |
| 2025-06-20T00:58:00 | 53.713056 | 6.482493 | 2.0 | 17.256 | 2 | 42.469 | 17.415 | 32.549 | 2 |
| 2025-06-20T00:59:00 | 53.713129 | 6.482428 | 2.0 | 17.258 | 2 | 42.492 | 17.419 | 32.565 | 2 |
| 2025-06-20T01:00:00 | 53.713213 | 6.482395 | 2.0 | 17.239 | 2 | 42.532 | 17.415 | 32.603 | 2 |
| 2025-06-20T01:01:00 | 53.713268 | 6.482363 | 2.0 | 17.219 | 2 | 42.539 | 17.393 | 32.626 | 2 |
| 2025-06-20T01:02:00 | 53.713323 | 6.482321 | 2.0 | 17.215 | 2 | 42.515 | 17.379 | 32.617 | 2 |
| 2025-06-20T01:03:00 | 53.713392 | 6.482290 | 2.0 | 17.225 | 2 | 42.501 | 17.375 | 32.608 | 2 |
| 2025-06-20T01:04:00 | 53.713459 | 6.482239 | 2.0 | 17.227 | 2 | 42.495 | 17.385 | 32.595 | 2 |
| 2025-06-20T01:05:00 | 53.713526 | 6.482186 | 2.0 | 17.219 | 2 | 42.514 | 17.383 | 32.613 | 2 |
| 2025-06-20T01:06:00 | 53.713609 | 6.482139 | 2.0 | 17.205 | 2 | 42.514 | 17.376 | 32.619 | 2 |
| 2025-06-20T01:07:00 | 53.713683 | 6.482111 | 2.0 | 17.190 | 2 | 42.520 | 17.361 | 32.636 | 2 |
| 2025-06-20T01:08:00 | 53.713715 | 6.482084 | 2.0 | 17.181 | 2 | 42.515 | 17.347 | 32.643 | 2 |
| 2025-06-20T01:09:00 | 53.713780 | 6.482086 | 2.0 | 17.175 | 2 | 42.493 | 17.339 | 32.630 | 2 |
| 2025-06-20T01:10:00 | 53.713862 | 6.482118 | 2.0 | 17.142 | 2 | 42.514 | 17.329 | 32.656 | 2 |
| 2025-06-20T01:11:00 | 53.713922 | 6.482139 | 2.0 | 17.130 | 2 | 42.504 | 17.301 | 32.670 | 2 |
| 2025-06-20T01:12:00 | 53.713971 | 6.482167 | 2.0 | 17.147 | 2 | 42.497 | 17.296 | 32.668 | 2 |
| 2025-06-20T01:13:00 | 53.714043 | 6.482211 | 2.0 | 17.134 | 2 | 42.490 | 17.303 | 32.657 | 2 |
| 2025-06-20T01:14:00 | 53.714107 | 6.482256 | 2.0 | 17.129 | 2 | 42.495 | 17.292 | 32.670 | 2 |
| 2025-06-20T01:15:00 | 53.714149 | 6.482292 | 2.0 | 17.125 | 2 | 42.488 | 17.289 | 32.666 | 2 |
| 2025-06-20T01:16:00 | 53.714203 | 6.482348 | 2.0 | 17.122 | 2 | 42.475 | 17.282 | 32.661 | 2 |
| 2025-06-20T01:17:00 | 53.714276 | 6.482422 | 2.0 | 17.118 | 2 | 42.482 | 17.281 | 32.668 | 2 |
| 2025-06-20T01:18:00 | 53.714338 | 6.482483 | 2.0 | 17.106 | 2 | 42.480 | 17.276 | 32.670 | 2 |
| 2025-06-20T01:19:00 | 53.714409 | 6.482519 | 2.0 | 17.096 | 2 | 42.479 | 17.263 | 32.680 | 2 |
| 2025-06-20T01:20:00 | 53.714492 | 6.482545 | 2.0 | 17.083 | 2 | 42.480 | 17.255 | 32.687 | 2 |
| 2025-06-20T01:21:00 | 53.714554 | 6.482580 | 2.0 | 17.077 | 2 | 42.468 | 17.242 | 32.687 | 2 |
| 2025-06-20T01:22:00 | 53.714619 | 6.482575 | 2.0 | 17.073 | 2 | 42.462 | 17.237 | 32.686 | 2 |
| 2025-06-20T01:23:00 | 53.714686 | 6.482542 | 2.0 | 17.058 | 2 | 42.464 | 17.231 | 32.693 | 2 |
| 2025-06-20T01:24:00 | 53.714783 | 6.482503 | 2.0 | 17.048 | 2 | 42.457 | 17.217 | 32.698 | 2 |
| 2025-06-20T01:25:00 | 53.714871 | 6.482429 | 2.0 | 17.031 | 2 | 42.439 | 17.205 | 32.692 | 2 |
| 2025-06-20T01:26:00 | 53.714956 | 6.482334 | 2.0 | 17.028 | 2 | 42.450 | 17.192 | 32.712 | 2 |
| 2025-06-20T01:27:00 | 53.715048 | 6.482207 | 2.0 | 17.014 | 2 | 42.455 | 17.187 | 32.721 | 2 |
| 2025-06-20T01:28:00 | 53.715167 | 6.482083 | 2.0 | 17.003 | 2 | 42.437 | 17.175 | 32.715 | 2 |
| 2025-06-20T01:29:00 | 53.715258 | 6.481942 | 2.0 | 16.987 | 2 | 42.416 | 17.162 | 32.707 | 2 |
| 2025-06-20T01:30:00 | 53.715381 | 6.481811 | 2.0 | 16.977 | 2 | 42.415 | 17.149 | 32.717 | 2 |
| 2025-06-20T01:31:00 | 53.715488 | 6.481671 | 2.0 | 16.956 | 2 | 42.400 | 17.131 | 32.719 | 2 |
| 2025-06-20T01:32:00 | 53.715599 | 6.481518 | 2.0 | 16.943 | 2 | 42.393 | 17.118 | 32.723 | 2 |
| 2025-06-20T01:33:00 | 53.715689 | 6.481371 | 2.0 | 16.938 | 2 | 42.374 | 17.101 | 32.721 | 2 |
| 2025-06-20T01:34:00 | 53.715788 | 6.481205 | 2.0 | 16.919 | 2 | 42.400 | 17.094 | 32.749 | 2 |
| 2025-06-20T01:35:00 | 53.715882 | 6.481037 | 2.0 | 16.917 | 2 | 42.388 | 17.082 | 32.748 | 2 |
| 2025-06-20T01:36:00 | 53.715972 | 6.480865 | 2.0 | 16.907 | 2 | 42.396 | 17.075 | 32.761 | 2 |
| 2025-06-20T01:37:00 | 53.716063 | 6.480694 | 2.0 | 16.898 | 2 | 42.401 | 17.067 | 32.771 | 2 |
| 2025-06-20T01:38:00 | 53.716144 | 6.480539 | 2.0 | 16.888 | 2 | 42.389 | 17.057 | 32.769 | 2 |
| 2025-06-20T01:39:00 | 53.716242 | 6.480372 | 2.0 | 16.868 | 2 | 42.383 | 17.048 | 32.771 | 2 |
| 2025-06-20T01:40:00 | 53.716342 | 6.480209 | 2.0 | 16.869 | 2 | 42.406 | 17.030 | 32.806 | 2 |
| 2025-06-20T01:41:00 | 53.716449 | 6.480044 | 2.0 | 16.851 | 2 | 42.396 | 17.024 | 32.802 | 2 |
| 2025-06-20T01:42:00 | 53.716561 | 6.479878 | 2.0 | 16.822 | 2 | 42.392 | 17.011 | 32.809 | 2 |
| 2025-06-20T01:43:00 | 53.716658 | 6.479707 | 2.0 | 16.807 | 2 | 42.377 | 16.980 | 32.822 | 2 |
| 2025-06-20T01:44:00 | 53.716750 | 6.479529 | 2.0 | 16.727 | 2 | 42.361 | 16.953 | 32.830 | 2 |
| 2025-06-20T01:45:00 | 53.716830 | 6.479350 | 2.0 | 16.738 | 2 | 42.332 | 16.900 | 32.848 | 2 |
| 2025-06-20T01:46:00 | 53.716922 | 6.479176 | 2.0 | 16.677 | 2 | 42.332 | 16.893 | 32.854 | 2 |
| 2025-06-20T01:47:00 | 53.717011 | 6.478995 | 2.0 | 16.668 | 2 | 42.310 | 16.840 | 32.878 | 2 |
| 2025-06-20T01:48:00 | 53.717099 | 6.478797 | 2.0 | 16.636 | 2 | 42.298 | 16.830 | 32.876 | 2 |
| 2025-06-20T01:49:00 | 53.717172 | 6.478587 | 2.0 | 16.601 | 2 | 42.287 | 16.787 | 32.901 | 2 |
| 2025-06-20T01:50:00 | 53.717250 | 6.478372 | 2.0 | 16.581 | 2 | 42.270 | 16.770 | 32.900 | 2 |
| 2025-06-20T01:51:00 | 53.717324 | 6.478157 | 2.0 | 16.572 | 2 | 42.261 | 16.738 | 32.919 | 2 |
| 2025-06-20T01:52:00 | 53.717398 | 6.477941 | 2.0 | 16.554 | 2 | 42.253 | 16.732 | 32.917 | 2 |
| 2025-06-20T01:53:00 | 53.717445 | 6.477734 | 2.0 | 16.521 | 2 | 42.245 | 16.711 | 32.927 | 2 |
| 2025-06-20T01:54:00 | 53.717505 | 6.477526 | 2.0 | 16.504 | 2 | 42.240 | 16.687 | 32.943 | 2 |
| 2025-06-20T01:55:00 | 53.717559 | 6.477326 | 2.0 | 16.517 | 2 | 42.234 | 16.675 | 32.947 | 2 |
| 2025-06-20T01:56:00 | 53.717616 | 6.477121 | 2.0 | 16.505 | 2 | 42.226 | 16.677 | 32.939 | 2 |
| 2025-06-20T01:57:00 | 53.717676 | 6.476898 | 2.0 | 16.489 | 2 | 42.224 | 16.666 | 32.946 | 2 |
| 2025-06-20T01:58:00 | 53.717735 | 6.476666 | 2.0 | 16.478 | 2 | 42.217 | 16.650 | 32.953 | 2 |
| 2025-06-20T01:59:00 | 53.717788 | 6.476433 | 2.0 | 16.464 | 2 | 42.205 | 16.639 | 32.951 | 2 |
| 2025-06-20T02:00:00 | 53.717836 | 6.476196 | 2.0 | 16.457 | 2 | 42.211 | 16.627 | 32.967 | 2 |
| 2025-06-20T02:01:00 | 53.717878 | 6.475949 | 2.0 | 16.442 | 2 | 42.208 | 16.616 | 32.973 | 2 |
| 2025-06-20T02:02:00 | 53.717908 | 6.475687 | 2.0 | 16.446 | 2 | 42.203 | 16.608 | 32.975 | 2 |
| 2025-06-20T02:03:00 | 53.717920 | 6.475429 | 2.0 | 16.447 | 2 | 42.213 | 16.610 | 32.982 | 2 |
| 2025-06-20T02:04:00 | 53.717951 | 6.475175 | 2.0 | 16.443 | 2 | 42.213 | 16.608 | 32.984 | 2 |
| 2025-06-20T02:05:00 | 53.717973 | 6.474937 | 2.0 | 16.434 | 2 | 42.211 | 16.605 | 32.985 | 2 |
| 2025-06-20T02:06:00 | 53.718010 | 6.474731 | 2.0 | 16.429 | 2 | 42.205 | 16.595 | 32.988 | 2 |
| 2025-06-20T02:07:00 | 53.718015 | 6.474560 | 2.0 | 16.438 | 2 | 42.204 | 16.594 | 32.988 | 2 |
| 2025-06-20T02:08:00 | 53.718027 | 6.474422 | 2.0 | 16.432 | 2 | 42.208 | 16.599 | 32.987 | 2 |
| 2025-06-20T02:09:00 | 53.718041 | 6.474318 | 2.0 | 16.433 | 2 | 42.205 | 16.596 | 32.987 | 2 |
| 2025-06-20T02:10:00 | 53.718066 | 6.474232 | 2.0 | 16.432 | 2 | 42.203 | 16.593 | 32.988 | 2 |
| 2025-06-20T02:11:00 | 53.718067 | 6.474161 | 2.0 | 16.429 | 2 | 42.204 | 16.594 | 32.988 | 2 |
| 2025-06-20T02:12:00 | 53.718087 | 6.474117 | 2.0 | 16.434 | 2 | 42.203 | 16.593 | 32.988 | 2 |
| 2025-06-20T02:13:00 | 53.718098 | 6.474094 | 2.0 | 16.431 | 2 | 42.205 | 16.594 | 32.989 | 2 |
| 2025-06-20T02:14:00 | 53.718088 | 6.474143 | 2.0 | 16.431 | 2 | 42.204 | 16.593 | 32.989 | 2 |
| 2025-06-20T02:15:00 | 53.718106 | 6.474281 | 2.0 | 16.433 | 2 | 42.205 | 16.594 | 32.989 | 2 |
| 2025-06-20T02:16:00 | 53.718129 | 6.474505 | 2.0 | 16.428 | 2 | 42.205 | 16.595 | 32.988 | 2 |
| 2025-06-20T02:17:00 | 53.718148 | 6.474790 | 2.0 | 16.428 | 2 | 42.200 | 16.588 | 32.989 | 2 |
| 2025-06-20T02:18:00 | 53.718150 | 6.475125 | 2.0 | 16.433 | 2 | 42.202 | 16.591 | 32.988 | 2 |
| 2025-06-20T02:19:00 | 53.718138 | 6.475477 | 2.0 | 16.429 | 2 | 42.205 | 16.594 | 32.989 | 2 |
| 2025-06-20T02:20:00 | 53.718102 | 6.475841 | 2.0 | 16.430 | 2 | 42.203 | 16.592 | 32.988 | 2 |
| 2025-06-20T02:21:00 | 53.718048 | 6.476238 | 2.0 | 16.430 | 2 | 42.203 | 16.592 | 32.988 | 2 |
| 2025-06-20T02:22:00 | 53.717965 | 6.476653 | 2.0 | 16.429 | 2 | 42.202 | 16.591 | 32.988 | 2 |
| 2025-06-20T02:23:00 | 53.717875 | 6.477085 | 2.0 | 16.429 | 2 | 42.202 | 16.591 | 32.988 | 2 |
| 2025-06-20T02:24:00 | 53.717785 | 6.477538 | 2.0 | 16.419 | 2 | 42.197 | 16.589 | 32.986 | 2 |
| 2025-06-20T02:25:00 | 53.717684 | 6.478023 | 2.0 | 16.424 | 2 | 42.192 | 16.582 | 32.987 | 2 |
| 2025-06-20T02:26:00 | 53.717582 | 6.478525 | 2.0 | 16.422 | 2 | 42.196 | 16.586 | 32.987 | 2 |
| 2025-06-20T02:27:00 | 53.717481 | 6.479028 | 2.0 | 16.430 | 2 | 42.195 | 16.585 | 32.987 | 2 |
| 2025-06-20T02:28:00 | 53.717377 | 6.479549 | 2.0 | 16.435 | 2 | 42.200 | 16.592 | 32.986 | 2 |
| 2025-06-20T02:29:00 | 53.717275 | 6.480079 | 2.0 | 16.438 | 2 | 42.205 | 16.597 | 32.986 | 2 |
| 2025-06-20T02:30:00 | 53.717179 | 6.480602 | 2.0 | 16.444 | 2 | 42.207 | 16.601 | 32.985 | 2 |
| 2025-06-20T02:31:00 | 53.717078 | 6.481127 | 2.0 | 16.445 | 2 | 42.211 | 16.606 | 32.984 | 2 |
| 2025-06-20T02:32:00 | 53.716985 | 6.481640 | 2.0 | 16.445 | 2 | 42.211 | 16.606 | 32.984 | 2 |
| 2025-06-20T02:33:00 | 53.716893 | 6.482153 | 2.0 | 16.445 | 2 | 42.212 | 16.607 | 32.984 | 2 |
| 2025-06-20T02:34:00 | 53.716801 | 6.482666 | 2.0 | 16.446 | 2 | 42.211 | 16.606 | 32.984 | 2 |
| 2025-06-20T02:35:00 | 53.716716 | 6.483177 | 2.0 | 16.447 | 2 | 42.212 | 16.608 | 32.983 | 2 |
| 2025-06-20T02:36:00 | 53.716626 | 6.483685 | 2.0 | 16.446 | 2 | 42.213 | 16.608 | 32.984 | 2 |
| 2025-06-20T02:37:00 | 53.716540 | 6.484183 | 2.0 | 16.448 | 2 | 42.212 | 16.608 | 32.983 | 2 |
| 2025-06-20T02:38:00 | 53.716447 | 6.484683 | 2.0 | 16.449 | 2 | 42.214 | 16.610 | 32.983 | 2 |
| 2025-06-20T02:39:00 | 53.716348 | 6.485169 | 2.0 | 16.450 | 2 | 42.214 | 16.611 | 32.982 | 2 |
| 2025-06-20T02:40:00 | 53.716247 | 6.485631 | 2.0 | 16.450 | 2 | 42.215 | 16.611 | 32.983 | 2 |
| 2025-06-20T02:41:00 | 53.716136 | 6.486082 | 2.0 | 16.450 | 2 | 42.215 | 16.612 | 32.982 | 2 |
| 2025-06-20T02:42:00 | 53.716028 | 6.486515 | 2.0 | 16.453 | 2 | 42.215 | 16.612 | 32.982 | 2 |
| 2025-06-20T02:43:00 | 53.715916 | 6.486946 | 2.0 | 16.455 | 2 | 42.216 | 16.615 | 32.981 | 2 |
| 2025-06-20T02:44:00 | 53.715816 | 6.487387 | 2.0 | 16.456 | 2 | 42.218 | 16.616 | 32.982 | 2 |
| 2025-06-20T02:45:00 | 53.715707 | 6.487824 | 2.0 | 16.456 | 2 | 42.219 | 16.618 | 32.981 | 2 |
| 2025-06-20T02:46:00 | 53.715600 | 6.488266 | 2.0 | 16.458 | 2 | 42.219 | 16.618 | 32.981 | 2 |
| 2025-06-20T02:47:00 | 53.715501 | 6.488715 | 2.0 | 16.460 | 2 | 42.220 | 16.619 | 32.981 | 2 |
| 2025-06-20T02:48:00 | 53.715406 | 6.489166 | 2.0 | 16.465 | 2 | 42.223 | 16.623 | 32.980 | 2 |
| 2025-06-20T02:49:00 | 53.715315 | 6.489619 | 2.0 | 16.470 | 2 | 42.226 | 16.626 | 32.981 | 2 |
| 2025-06-20T02:50:00 | 53.715229 | 6.490055 | 2.0 | 16.469 | 2 | 42.229 | 16.630 | 32.980 | 2 |
| 2025-06-20T02:51:00 | 53.715128 | 6.490475 | 2.0 | 16.469 | 2 | 42.229 | 16.630 | 32.980 | 2 |
| 2025-06-20T02:52:00 | 53.715044 | 6.490889 | 2.0 | 16.471 | 2 | 42.229 | 16.630 | 32.980 | 2 |
| 2025-06-20T02:53:00 | 53.714953 | 6.491311 | 2.0 | 16.472 | 2 | 42.231 | 16.632 | 32.980 | 2 |
| 2025-06-20T02:54:00 | 53.714863 | 6.491730 | 2.0 | 16.471 | 2 | 42.231 | 16.633 | 32.979 | 2 |
| 2025-06-20T02:55:00 | 53.714773 | 6.492136 | 2.0 | 16.473 | 2 | 42.230 | 16.632 | 32.979 | 2 |
| 2025-06-20T02:56:00 | 53.714677 | 6.492545 | 2.0 | 16.474 | 2 | 42.232 | 16.635 | 32.978 | 2 |
| 2025-06-20T02:57:00 | 53.714587 | 6.492951 | 2.0 | 16.474 | 2 | 42.233 | 16.635 | 32.979 | 2 |
| 2025-06-20T02:58:00 | 53.714502 | 6.493346 | 2.0 | 16.475 | 2 | 42.233 | 16.636 | 32.978 | 2 |
| 2025-06-20T02:59:00 | 53.714411 | 6.493731 | 2.0 | 16.479 | 2 | 42.234 | 16.637 | 32.978 | 2 |
| 2025-06-20T03:00:00 | 53.714319 | 6.494123 | 2.0 | 16.480 | 2 | 42.231 | 16.640 | 32.973 | 2 |
| 2025-06-20T03:01:00 | 53.714234 | 6.494506 | 2.0 | 16.480 | 2 | 42.234 | 16.642 | 32.974 | 2 |
| 2025-06-20T03:02:00 | 53.714152 | 6.494886 | 2.0 | 16.483 | 2 | 42.236 | 16.641 | 32.977 | 2 |
| 2025-06-20T03:03:00 | 53.714067 | 6.495259 | 2.0 | 16.482 | 2 | 42.240 | 16.644 | 32.978 | 2 |
| 2025-06-20T03:04:00 | 53.713977 | 6.495638 | 2.0 | 16.482 | 2 | 42.239 | 16.644 | 32.977 | 2 |
| 2025-06-20T03:05:00 | 53.713885 | 6.496017 | 2.0 | 16.481 | 2 | 42.239 | 16.643 | 32.978 | 2 |
| 2025-06-20T03:06:00 | 53.713787 | 6.496408 | 2.0 | 16.483 | 2 | 42.238 | 16.643 | 32.977 | 2 |
| 2025-06-20T03:07:00 | 53.713694 | 6.496804 | 2.0 | 16.483 | 2 | 42.239 | 16.643 | 32.978 | 2 |
| 2025-06-20T03:08:00 | 53.713594 | 6.497215 | 2.0 | 16.483 | 2 | 42.239 | 16.644 | 32.977 | 2 |
| 2025-06-20T03:09:00 | 53.713494 | 6.497635 | 2.0 | 16.483 | 2 | 42.239 | 16.644 | 32.977 | 2 |
| 2025-06-20T03:10:00 | 53.713393 | 6.498070 | 2.0 | 16.487 | 2 | 42.239 | 16.644 | 32.977 | 2 |
| 2025-06-20T03:11:00 | 53.713307 | 6.498499 | 2.0 | 16.490 | 2 | 42.242 | 16.648 | 32.976 | 2 |
| 2025-06-20T03:12:00 | 53.713206 | 6.498937 | 2.0 | 16.491 | 2 | 42.243 | 16.650 | 32.976 | 2 |
| 2025-06-20T03:13:00 | 53.713117 | 6.499371 | 2.0 | 16.492 | 2 | 42.245 | 16.652 | 32.976 | 2 |
| 2025-06-20T03:14:00 | 53.713023 | 6.499820 | 2.0 | 16.490 | 2 | 42.245 | 16.652 | 32.976 | 2 |
| 2025-06-20T03:15:00 | 53.712919 | 6.500273 | 2.0 | 16.494 | 2 | 42.245 | 16.651 | 32.976 | 2 |
| 2025-06-20T03:16:00 | 53.712820 | 6.500724 | 2.0 | 16.493 | 2 | 42.247 | 16.654 | 32.976 | 2 |
| 2025-06-20T03:17:00 | 53.712725 | 6.501179 | 2.0 | 16.494 | 2 | 42.246 | 16.654 | 32.975 | 2 |
| 2025-06-20T03:18:00 | 53.712634 | 6.501629 | 2.0 | 16.495 | 2 | 42.248 | 16.655 | 32.976 | 2 |
| 2025-06-20T03:19:00 | 53.712553 | 6.502066 | 2.0 | 16.496 | 2 | 42.248 | 16.656 | 32.975 | 2 |
| 2025-06-20T03:20:00 | 53.712459 | 6.502510 | 2.0 | 16.497 | 2 | 42.248 | 16.656 | 32.975 | 2 |
| 2025-06-20T03:21:00 | 53.712369 | 6.502952 | 2.0 | 16.499 | 2 | 42.250 | 16.659 | 32.974 | 2 |
| 2025-06-20T03:22:00 | 53.712284 | 6.503384 | 2.0 | 16.498 | 2 | 42.251 | 16.659 | 32.975 | 2 |
| 2025-06-20T03:23:00 | 53.712201 | 6.503803 | 2.0 | 16.498 | 2 | 42.250 | 16.658 | 32.975 | 2 |
| 2025-06-20T03:24:00 | 53.712123 | 6.504208 | 2.0 | 16.501 | 2 | 42.251 | 16.660 | 32.974 | 2 |
| 2025-06-20T03:25:00 | 53.712027 | 6.504538 | 2.0 | 16.503 | 2 | 42.252 | 16.662 | 32.974 | 2 |
| 2025-06-20T03:26:00 | 53.711950 | 6.504794 | 2.0 | 16.503 | 2 | 42.253 | 16.663 | 32.974 | 2 |
| 2025-06-20T03:27:00 | 53.711928 | 6.505024 | 2.0 | 16.503 | 2 | 42.253 | 16.662 | 32.974 | 2 |
| 2025-06-20T03:28:00 | 53.711981 | 6.505337 | 2.0 | 16.511 | 2 | 42.254 | 16.665 | 32.973 | 2 |
| 2025-06-20T03:29:00 | 53.712147 | 6.505805 | 2.0 | 16.509 | 2 | 42.260 | 16.671 | 32.973 | 2 |
| 2025-06-20T03:30:00 | 53.712313 | 6.506298 | 2.0 | 16.505 | 2 | 42.259 | 16.669 | 32.974 | 2 |
| 2025-06-20T03:31:00 | 53.712470 | 6.506800 | 2.0 | 16.501 | 2 | 42.256 | 16.666 | 32.974 | 2 |
| 2025-06-20T03:32:00 | 53.712584 | 6.507347 | 2.0 | 16.500 | 2 | 42.253 | 16.662 | 32.974 | 2 |
| 2025-06-20T03:33:00 | 53.712700 | 6.507897 | 2.0 | 16.498 | 2 | 42.249 | 16.659 | 32.973 | 2 |
| 2025-06-20T03:34:00 | 53.712758 | 6.508383 | 2.0 | 16.500 | 2 | 42.251 | 16.660 | 32.974 | 2 |
| 2025-06-20T03:35:00 | 53.712775 | 6.508819 | 2.0 | 16.501 | 2 | 42.251 | 16.661 | 32.973 | 2 |
| 2025-06-20T03:36:00 | 53.712705 | 6.509191 | 2.0 | 16.500 | 2 | 42.256 | 16.665 | 32.975 | 2 |
| 2025-06-20T03:37:00 | 53.712657 | 6.509595 | 2.0 | 16.502 | 2 | 42.261 | 16.671 | 32.974 | 2 |
| 2025-06-20T03:38:00 | 53.712620 | 6.510038 | 2.0 | 16.503 | 2 | 42.266 | 16.676 | 32.974 | 2 |
| 2025-06-20T03:39:00 | 53.712682 | 6.510510 | 2.0 | 16.501 | 2 | 42.269 | 16.680 | 32.974 | 2 |
| 2025-06-20T03:40:00 | 53.712753 | 6.510965 | 2.0 | 16.491 | 2 | 42.267 | 16.677 | 32.974 | 2 |
| 2025-06-20T03:41:00 | 53.712782 | 6.511419 | 2.0 | 16.494 | 2 | 42.262 | 16.671 | 32.975 | 2 |
| 2025-06-20T03:42:00 | 53.712817 | 6.511886 | 2.0 | 16.496 | 2 | 42.264 | 16.675 | 32.973 | 2 |
| 2025-06-20T03:43:00 | 53.712983 | 6.512275 | 2.0 | 16.494 | 2 | 42.266 | 16.676 | 32.974 | 2 |
| 2025-06-20T03:44:00 | 53.713179 | 6.511554 | 2.0 | 16.495 | 2 | 42.266 | 16.676 | 32.974 | 2 |
| 2025-06-20T03:45:00 | 53.713413 | 6.509808 | 2.0 | 16.504 | 2 | 42.269 | 16.679 | 32.974 | 2 |
| 2025-06-20T03:46:00 | 53.713680 | 6.507503 | 2.0 | 16.513 | 2 | 42.277 | 16.689 | 32.973 | 2 |
| 2025-06-20T03:47:00 | 53.713915 | 6.504878 | 2.0 | 16.526 | 2 | 42.285 | 16.698 | 32.973 | 2 |
| 2025-06-20T03:48:00 | 53.714129 | 6.502107 | 2.0 | 16.537 | 2 | 42.288 | 16.705 | 32.970 | 2 |
| 2025-06-20T03:49:00 | 53.714335 | 6.499276 | 2.0 | 16.545 | 2 | 42.294 | 16.711 | 32.970 | 2 |
| 2025-06-20T03:50:00 | 53.714571 | 6.496375 | 2.0 | 16.552 | 2 | 42.296 | 16.716 | 32.967 | 2 |
| 2025-06-20T03:51:00 | 53.714788 | 6.493458 | 2.0 | 16.554 | 2 | 42.298 | 16.720 | 32.966 | 2 |
| 2025-06-20T03:52:00 | 53.715026 | 6.490538 | 2.0 | 16.554 | 2 | 42.299 | 16.722 | 32.965 | 2 |
| 2025-06-20T03:53:00 | 53.715291 | 6.487603 | 2.0 | 16.557 | 2 | 42.298 | 16.721 | 32.965 | 2 |
| 2025-06-20T03:54:00 | 53.715544 | 6.484673 | 2.0 | 16.560 | 2 | 42.300 | 16.724 | 32.964 | 2 |
| 2025-06-20T03:55:00 | 53.715762 | 6.481760 | 2.0 | 16.561 | 2 | 42.302 | 16.726 | 32.964 | 2 |
| 2025-06-20T03:56:00 | 53.716005 | 6.478809 | 2.0 | 16.562 | 2 | 42.305 | 16.726 | 32.967 | 2 |
| 2025-06-20T03:57:00 | 53.716268 | 6.475803 | 2.0 | 16.560 | 2 | 42.308 | 16.728 | 32.968 | 2 |
| 2025-06-20T03:58:00 | 53.716526 | 6.472772 | 2.0 | 16.558 | 2 | 42.309 | 16.725 | 32.971 | 2 |
| 2025-06-20T03:59:00 | 53.716773 | 6.469724 | 2.0 | 16.554 | 2 | 42.310 | 16.722 | 32.975 | 2 |
| 2025-06-20T04:00:00 | 53.717044 | 6.466686 | 2.0 | 16.553 | 2 | 42.312 | 16.719 | 32.979 | 2 |
| 2025-06-20T04:01:00 | 53.717306 | 6.463673 | 2.0 | 16.552 | 2 | 42.316 | 16.718 | 32.983 | 2 |
| 2025-06-20T04:02:00 | 53.717650 | 6.460655 | 2.0 | 16.548 | 2 | 42.319 | 16.716 | 32.987 | 2 |
| 2025-06-20T04:03:00 | 53.718056 | 6.457652 | 2.0 | 16.550 | 2 | 42.320 | 16.712 | 32.992 | 2 |
| 2025-06-20T04:04:00 | 53.718465 | 6.454655 | 2.0 | 16.547 | 2 | 42.324 | 16.714 | 32.993 | 2 |
| 2025-06-20T04:05:00 | 53.718950 | 6.451658 | 2.0 | 16.537 | 2 | 42.323 | 16.710 | 32.996 | 2 |
| 2025-06-20T04:06:00 | 53.719417 | 6.448674 | 2.0 | 16.516 | 2 | 42.313 | 16.697 | 32.998 | 2 |
| 2025-06-20T04:07:00 | 53.719895 | 6.445678 | 2.0 | 16.500 | 2 | 42.298 | 16.681 | 32.998 | 2 |
| 2025-06-20T04:08:00 | 53.720386 | 6.442692 | 2.0 | 16.488 | 2 | 42.285 | 16.663 | 33.001 | 2 |
| 2025-06-20T04:09:00 | 53.720846 | 6.439740 | 2.0 | 16.479 | 2 | 42.277 | 16.652 | 33.004 | 2 |
| 2025-06-20T04:10:00 | 53.721317 | 6.436793 | 2.0 | 16.468 | 2 | 42.271 | 16.641 | 33.007 | 2 |
| 2025-06-20T04:11:00 | 53.721751 | 6.433848 | 2.0 | 16.464 | 2 | 42.264 | 16.633 | 33.008 | 2 |
| 2025-06-20T04:12:00 | 53.722477 | 6.431082 | 2.0 | 16.454 | 2 | 42.253 | 16.627 | 33.003 | 2 |
| 2025-06-20T04:13:00 | 53.723963 | 6.429472 | 2.0 | 16.451 | 2 | 42.246 | 16.618 | 33.005 | 2 |
| 2025-06-20T04:14:00 | 53.725545 | 6.428057 | 2.0 | 16.447 | 2 | 42.251 | 16.615 | 33.011 | 2 |
| 2025-06-20T04:15:00 | 53.727203 | 6.426910 | 2.0 | 16.448 | 2 | 42.250 | 16.608 | 33.016 | 2 |
| 2025-06-20T04:16:00 | 53.728933 | 6.426364 | 2.0 | 16.452 | 2 | 42.260 | 16.612 | 33.022 | 2 |
| 2025-06-20T04:17:00 | 53.730674 | 6.425625 | 2.0 | 16.450 | 2 | 42.270 | 16.616 | 33.027 | 2 |
| 2025-06-20T04:18:00 | 53.732469 | 6.424877 | 2.0 | 16.445 | 2 | 42.271 | 16.613 | 33.031 | 2 |
| 2025-06-20T04:19:00 | 53.734267 | 6.424201 | 2.0 | 16.433 | 2 | 42.267 | 16.607 | 33.032 | 2 |
| 2025-06-20T04:20:00 | 53.735992 | 6.423586 | 2.0 | 16.424 | 2 | 42.260 | 16.595 | 33.036 | 2 |
| 2025-06-20T04:21:00 | 53.737767 | 6.422874 | 2.0 | 16.407 | 2 | 42.253 | 16.585 | 33.038 | 2 |
| 2025-06-20T04:22:00 | 53.739524 | 6.422137 | 2.0 | 16.390 | 2 | 42.242 | 16.569 | 33.042 | 2 |
| 2025-06-20T04:23:00 | 53.741317 | 6.421460 | 2.0 | 16.378 | 2 | 42.231 | 16.554 | 33.044 | 2 |
| 2025-06-20T04:24:00 | 53.743063 | 6.420809 | 2.0 | 16.386 | 2 | 42.224 | 16.543 | 33.047 | 2 |
| 2025-06-20T04:25:00 | 53.744818 | 6.420124 | 2.0 | 16.372 | 2 | 42.226 | 16.547 | 33.046 | 2 |
| 2025-06-20T04:26:00 | 53.746598 | 6.419461 | 2.0 | 16.367 | 2 | 42.225 | 16.535 | 33.055 | 2 |
| 2025-06-20T04:27:00 | 53.748343 | 6.418682 | 2.0 | 16.359 | 2 | 42.225 | 16.531 | 33.058 | 2 |
| 2025-06-20T04:28:00 | 53.750164 | 6.417943 | 2.0 | 16.356 | 2 | 42.220 | 16.523 | 33.060 | 2 |
| 2025-06-20T04:29:00 | 53.751983 | 6.417247 | 2.0 | 16.348 | 2 | 42.216 | 16.518 | 33.061 | 2 |
| 2025-06-20T04:30:00 | 53.753787 | 6.416582 | 2.0 | 16.340 | 2 | 42.213 | 16.510 | 33.065 | 2 |
| 2025-06-20T04:31:00 | 53.755593 | 6.415879 | 2.0 | 16.338 | 2 | 42.207 | 16.504 | 33.065 | 2 |
| 2025-06-20T04:32:00 | 53.757353 | 6.415170 | 2.0 | 16.328 | 2 | 42.206 | 16.499 | 33.068 | 2 |
| 2025-06-20T04:33:00 | 53.759171 | 6.414420 | 2.0 | 16.317 | 2 | 42.201 | 16.490 | 33.071 | 2 |
| 2025-06-20T04:34:00 | 53.760962 | 6.413768 | 2.0 | 16.306 | 2 | 42.195 | 16.481 | 33.073 | 2 |
| 2025-06-20T04:35:00 | 53.762696 | 6.413095 | 2.0 | 16.298 | 2 | 42.184 | 16.470 | 33.073 | 2 |
| 2025-06-20T04:36:00 | 53.764420 | 6.412452 | 2.0 | 16.286 | 2 | 42.180 | 16.460 | 33.077 | 2 |
| 2025-06-20T04:37:00 | 53.766180 | 6.411739 | 2.0 | 16.275 | 2 | 42.177 | 16.448 | 33.085 | 2 |
| 2025-06-20T04:38:00 | 53.767933 | 6.411034 | 2.0 | 16.267 | 2 | 42.171 | 16.439 | 33.087 | 2 |
| 2025-06-20T04:39:00 | 53.769720 | 6.410367 | 2.0 | 16.263 | 2 | 42.170 | 16.431 | 33.093 | 2 |
| 2025-06-20T04:40:00 | 53.771499 | 6.409664 | 2.0 | 16.260 | 2 | 42.171 | 16.425 | 33.099 | 2 |
| 2025-06-20T04:41:00 | 53.773324 | 6.408924 | 2.0 | 16.261 | 2 | 42.174 | 16.425 | 33.101 | 2 |
| 2025-06-20T04:42:00 | 53.775140 | 6.408208 | 2.0 | 16.255 | 2 | 42.178 | 16.424 | 33.106 | 2 |
| 2025-06-20T04:43:00 | 53.776909 | 6.407509 | 2.0 | 16.244 | 2 | 42.179 | 16.416 | 33.113 | 2 |
| 2025-06-20T04:44:00 | 53.778668 | 6.406814 | 2.0 | 16.235 | 2 | 42.177 | 16.408 | 33.118 | 2 |
| 2025-06-20T04:45:00 | 53.780459 | 6.406150 | 2.0 | 16.220 | 2 | 42.174 | 16.396 | 33.125 | 2 |
| 2025-06-20T04:46:00 | 53.782280 | 6.405454 | 2.0 | 16.208 | 2 | 42.166 | 16.383 | 33.129 | 2 |
| 2025-06-20T04:47:00 | 53.784116 | 6.404754 | 2.0 | 16.194 | 2 | 42.158 | 16.371 | 33.132 | 2 |
| 2025-06-20T04:48:00 | 53.785948 | 6.403980 | 2.0 | 16.195 | 2 | 42.147 | 16.359 | 33.132 | 2 |
| 2025-06-20T04:49:00 | 53.787805 | 6.403211 | 2.0 | 16.205 | 2 | 42.141 | 16.361 | 33.125 | 2 |
| 2025-06-20T04:50:00 | 53.789642 | 6.402479 | 2.0 | 16.198 | 2 | 42.148 | 16.369 | 33.125 | 2 |
| 2025-06-20T04:51:00 | 53.791412 | 6.401881 | 2.0 | 16.167 | 2 | 42.147 | 16.358 | 33.133 | 2 |
| 2025-06-20T04:52:00 | 53.793059 | 6.401241 | 2.0 | 16.160 | 2 | 42.133 | 16.332 | 33.142 | 2 |
| 2025-06-20T04:53:00 | 53.794724 | 6.400524 | 2.0 | 16.155 | 2 | 42.126 | 16.324 | 33.143 | 2 |
| 2025-06-20T04:54:00 | 53.796356 | 6.399874 | 2.0 | 16.151 | 2 | 42.123 | 16.319 | 33.144 | 2 |
| 2025-06-20T04:55:00 | 53.798065 | 6.399229 | 2.0 | 16.142 | 2 | 42.120 | 16.314 | 33.146 | 2 |
| 2025-06-20T04:56:00 | 53.799850 | 6.398542 | 2.0 | 16.134 | 2 | 42.114 | 16.305 | 33.148 | 2 |
| 2025-06-20T04:57:00 | 53.801646 | 6.397875 | 2.0 | 16.122 | 2 | 42.111 | 16.297 | 33.152 | 2 |
| 2025-06-20T04:58:00 | 53.803410 | 6.397167 | 2.0 | 16.115 | 2 | 42.103 | 16.286 | 33.154 | 2 |
| 2025-06-20T04:59:00 | 53.805174 | 6.396443 | 2.0 | 16.116 | 2 | 42.099 | 16.281 | 33.155 | 2 |
| 2025-06-20T05:00:00 | 53.806952 | 6.395750 | 2.0 | 16.117 | 2 | 42.101 | 16.280 | 33.158 | 2 |
| 2025-06-20T05:01:00 | 53.808743 | 6.395086 | 2.0 | 16.119 | 2 | 42.104 | 16.282 | 33.159 | 2 |
| 2025-06-20T05:02:00 | 53.810510 | 6.394425 | 2.0 | 16.118 | 2 | 42.107 | 16.283 | 33.160 | 2 |
| 2025-06-20T05:03:00 | 53.812282 | 6.393723 | 2.0 | 16.130 | 2 | 42.108 | 16.283 | 33.161 | 2 |
| 2025-06-20T05:04:00 | 53.814080 | 6.393028 | 2.0 | 16.147 | 2 | 42.118 | 16.298 | 33.158 | 2 |
| 2025-06-20T05:05:00 | 53.815829 | 6.392328 | 2.0 | 16.152 | 2 | 42.130 | 16.309 | 33.159 | 2 |
| 2025-06-20T05:06:00 | 53.817583 | 6.391656 | 2.0 | 16.157 | 2 | 42.134 | 16.317 | 33.156 | 2 |
| 2025-06-20T05:07:00 | 53.819369 | 6.390966 | 2.0 | 16.117 | 2 | 42.132 | 16.316 | 33.155 | 2 |
| 2025-06-20T05:08:00 | 53.821165 | 6.390192 | 2.0 | 16.116 | 2 | 42.120 | 16.287 | 33.168 | 2 |
| 2025-06-20T05:09:00 | 53.822967 | 6.389479 | 2.0 | 16.086 | 2 | 42.115 | 16.275 | 33.174 | 2 |
| 2025-06-20T05:10:00 | 53.824776 | 6.388803 | 2.0 | 16.125 | 2 | 42.103 | 16.258 | 33.178 | 2 |
| 2025-06-20T05:11:00 | 53.826584 | 6.388178 | 2.0 | 16.140 | 2 | 42.117 | 16.288 | 33.165 | 2 |
| 2025-06-20T05:12:00 | 53.828313 | 6.387470 | 2.0 | 16.190 | 2 | 42.141 | 16.306 | 33.171 | 2 |
| 2025-06-20T05:13:00 | 53.830070 | 6.386745 | 2.0 | 16.220 | 2 | 42.183 | 16.356 | 33.166 | 2 |
| 2025-06-20T05:14:00 | 53.831805 | 6.386050 | 2.0 | 16.228 | 2 | 42.205 | 16.380 | 33.166 | 2 |
| 2025-06-20T05:15:00 | 53.833506 | 6.385388 | 2.0 | 16.223 | 2 | 42.214 | 16.389 | 33.166 | 2 |
| 2025-06-20T05:16:00 | 53.835226 | 6.384708 | 2.0 | 16.154 | 2 | 42.210 | 16.378 | 33.172 | 2 |
| 2025-06-20T05:17:00 | 53.836957 | 6.384001 | 2.0 | 16.159 | 2 | 42.174 | 16.312 | 33.195 | 2 |
| 2025-06-20T05:18:00 | 53.838751 | 6.383339 | 2.0 | 16.141 | 2 | 42.174 | 16.317 | 33.191 | 2 |
| 2025-06-20T05:19:00 | 53.840536 | 6.382658 | 2.0 | 16.160 | 2 | 42.167 | 16.305 | 33.195 | 2 |
| 2025-06-20T05:20:00 | 53.842295 | 6.381985 | 2.0 | 16.162 | 2 | 42.179 | 16.330 | 33.185 | 2 |
| 2025-06-20T05:21:00 | 53.844048 | 6.381244 | 2.0 | 16.178 | 2 | 42.185 | 16.324 | 33.195 | 2 |
| 2025-06-20T05:22:00 | 53.845763 | 6.380541 | 2.0 | 16.200 | 2 | 42.200 | 16.341 | 33.194 | 2 |
| 2025-06-20T05:23:00 | 53.847566 | 6.379845 | 2.0 | 16.190 | 2 | 42.223 | 16.364 | 33.195 | 2 |
| 2025-06-20T05:24:00 | 53.849401 | 6.379154 | 2.0 | 16.137 | 2 | 42.217 | 16.346 | 33.205 | 2 |
| 2025-06-20T05:25:00 | 53.851208 | 6.378451 | 2.0 | 16.160 | 2 | 42.183 | 16.307 | 33.207 | 2 |
| 2025-06-20T05:26:00 | 53.852754 | 6.377862 | 2.0 | 16.176 | 2 | 42.191 | 16.325 | 33.199 | 2 |
| 2025-06-20T05:27:00 | 53.853992 | 6.377365 | 2.0 | 16.179 | 2 | 42.203 | 16.339 | 33.198 | 2 |
| 2025-06-20T05:28:00 | 53.855056 | 6.376915 | 2.0 | 16.179 | 2 | 42.209 | 16.343 | 33.200 | 2 |
| 2025-06-20T05:29:00 | 53.855995 | 6.376534 | 2.0 | 16.174 | 2 | 42.211 | 16.341 | 33.204 | 2 |
| 2025-06-20T05:30:00 | 53.856859 | 6.376205 | 2.0 | 16.162 | 2 | 42.208 | 16.335 | 33.206 | 2 |
| 2025-06-20T05:31:00 | 53.857758 | 6.375843 | 2.0 | 16.162 | 2 | 42.204 | 16.323 | 33.212 | 2 |
| 2025-06-20T05:32:00 | 53.858689 | 6.375459 | 2.0 | 16.173 | 2 | 42.209 | 16.326 | 33.214 | 2 |
| 2025-06-20T05:33:00 | 53.859636 | 6.375070 | 2.0 | 16.183 | 2 | 42.218 | 16.336 | 33.214 | 2 |
| 2025-06-20T05:34:00 | 53.860583 | 6.374677 | 2.0 | 16.197 | 2 | 42.227 | 16.346 | 33.213 | 2 |
| 2025-06-20T05:35:00 | 53.861495 | 6.374302 | 2.0 | 16.202 | 2 | 42.241 | 16.360 | 33.214 | 2 |
| 2025-06-20T05:36:00 | 53.862393 | 6.373929 | 2.0 | 16.193 | 2 | 42.244 | 16.362 | 33.215 | 2 |
| 2025-06-20T05:37:00 | 53.863222 | 6.373588 | 2.0 | 16.190 | 2 | 42.237 | 16.354 | 33.216 | 2 |
| 2025-06-20T05:38:00 | 53.863964 | 6.373302 | 2.0 | 16.197 | 2 | 42.236 | 16.354 | 33.215 | 2 |
| 2025-06-20T05:39:00 | 53.864489 | 6.373400 | 2.0 | 16.190 | 2 | 42.241 | 16.358 | 33.216 | 2 |
| 2025-06-20T05:40:00 | 53.864780 | 6.373739 | 2.0 | 16.195 | 2 | 42.245 | 16.355 | 33.222 | 2 |
| 2025-06-20T05:41:00 | 53.864943 | 6.374074 | 2.0 | 16.199 | 2 | 42.243 | 16.358 | 33.217 | 2 |
| 2025-06-20T05:42:00 | 53.865034 | 6.374374 | 2.0 | 16.203 | 2 | 42.240 | 16.361 | 33.212 | 2 |
| 2025-06-20T05:43:00 | 53.865058 | 6.374587 | 2.0 | 16.201 | 2 | 42.241 | 16.365 | 33.210 | 2 |
| 2025-06-20T05:44:00 | 53.865028 | 6.374645 | 2.0 | 16.202 | 2 | 42.239 | 16.363 | 33.210 | 2 |
| 2025-06-20T05:45:00 | 53.864959 | 6.374622 | 2.0 | 16.205 | 2 | 42.239 | 16.364 | 33.209 | 2 |
| 2025-06-20T05:46:00 | 53.864897 | 6.374470 | 2.0 | 16.206 | 2 | 42.242 | 16.366 | 33.210 | 2 |
| 2025-06-20T05:47:00 | 53.864840 | 6.374218 | 2.0 | 16.198 | 2 | 42.243 | 16.366 | 33.211 | 2 |
| 2025-06-20T05:48:00 | 53.864817 | 6.373897 | 2.0 | 16.203 | 2 | 42.239 | 16.361 | 33.211 | 2 |
| 2025-06-20T05:49:00 | 53.864806 | 6.373612 | 2.0 | 16.198 | 2 | 42.242 | 16.364 | 33.212 | 2 |
| 2025-06-20T05:50:00 | 53.864768 | 6.373387 | 2.0 | 16.192 | 2 | 42.238 | 16.357 | 33.214 | 2 |
| 2025-06-20T05:51:00 | 53.864696 | 6.373227 | 2.0 | 16.197 | 2 | 42.235 | 16.354 | 33.214 | 2 |
| 2025-06-20T05:52:00 | 53.864600 | 6.373108 | 2.0 | 16.201 | 2 | 42.237 | 16.357 | 33.213 | 2 |
| 2025-06-20T05:53:00 | 53.864495 | 6.373063 | 2.0 | 16.206 | 2 | 42.241 | 16.362 | 33.212 | 2 |
| 2025-06-20T05:54:00 | 53.864419 | 6.373122 | 2.0 | 16.208 | 2 | 42.244 | 16.366 | 33.212 | 2 |
| 2025-06-20T05:55:00 | 53.864396 | 6.373212 | 2.0 | 16.209 | 2 | 42.246 | 16.368 | 33.212 | 2 |
| 2025-06-20T05:56:00 | 53.864405 | 6.373287 | 2.0 | 16.169 | 2 | 42.242 | 16.358 | 33.217 | 2 |
| 2025-06-20T05:57:00 | 53.864454 | 6.373315 | 2.0 | 16.148 | 2 | 42.224 | 16.327 | 33.227 | 2 |
| 2025-06-20T05:58:00 | 53.864520 | 6.373294 | 2.0 | 16.150 | 2 | 42.215 | 16.314 | 33.230 | 2 |
| 2025-06-20T05:59:00 | 53.864561 | 6.373232 | 2.0 | 16.073 | 2 | 42.208 | 16.300 | 33.235 | 2 |
| 2025-06-20T06:00:00 | 53.864589 | 6.373138 | 2.0 | 16.039 | 2 | 42.160 | 16.233 | 33.249 | 2 |
| 2025-06-20T06:01:00 | 53.864601 | 6.373007 | 2.0 | 16.042 | 2 | 42.134 | 16.205 | 33.249 | 2 |
| 2025-06-20T06:02:00 | 53.864582 | 6.372843 | 2.0 | 16.068 | 2 | 42.134 | 16.207 | 33.248 | 2 |
| 2025-06-20T06:03:00 | 53.864525 | 6.372643 | 2.0 | 16.086 | 2 | 42.151 | 16.232 | 33.242 | 2 |
| 2025-06-20T06:04:00 | 53.864552 | 6.372541 | 2.0 | 16.140 | 2 | 42.166 | 16.254 | 33.236 | 2 |
| 2025-06-20T06:05:00 | 53.864551 | 6.372808 | 2.0 | 16.213 | 2 | 42.204 | 16.311 | 33.222 | 2 |
| 2025-06-20T06:06:00 | 53.864055 | 6.372828 | 2.0 | 16.209 | 2 | 42.246 | 16.366 | 33.213 | 2 |
| 2025-06-20T06:07:00 | 53.862878 | 6.372777 | 2.0 | 16.207 | 2 | 42.247 | 16.366 | 33.214 | 2 |
| 2025-06-20T06:08:00 | 53.860849 | 6.372762 | 2.0 | 16.175 | 2 | 42.250 | 16.366 | 33.217 | 2 |
| 2025-06-20T06:09:00 | 53.858223 | 6.372792 | 2.0 | 16.120 | 2 | 42.227 | 16.325 | 33.231 | 2 |
| 2025-06-20T06:10:00 | 53.855435 | 6.372842 | 2.0 | 16.166 | 2 | 42.197 | 16.296 | 33.229 | 2 |
| 2025-06-20T06:11:00 | 53.852606 | 6.372907 | 2.0 | 16.117 | 2 | 42.212 | 16.328 | 33.215 | 2 |
| 2025-06-20T06:12:00 | 53.849776 | 6.372957 | 2.0 | 16.088 | 2 | 42.182 | 16.275 | 33.233 | 2 |
| 2025-06-20T06:13:00 | 53.846939 | 6.372979 | 2.0 | 16.070 | 2 | 42.143 | 16.243 | 33.225 | 2 |
| 2025-06-20T06:14:00 | 53.844096 | 6.372948 | 2.0 | 16.126 | 2 | 42.133 | 16.244 | 33.216 | 2 |
| 2025-06-20T06:15:00 | 53.841248 | 6.372867 | 2.0 | 16.086 | 2 | 42.166 | 16.291 | 33.206 | 2 |
| 2025-06-20T06:16:00 | 53.838410 | 6.373048 | 2.0 | 16.085 | 2 | 42.139 | 16.254 | 33.213 | 2 |
| 2025-06-20T06:17:00 | 53.835586 | 6.373228 | 2.0 | 16.089 | 2 | 42.132 | 16.250 | 33.210 | 2 |
| 2025-06-20T06:18:00 | 53.832759 | 6.373406 | 2.0 | 16.120 | 2 | 42.137 | 16.257 | 33.208 | 2 |
| 2025-06-20T06:19:00 | 53.829938 | 6.373603 | 2.0 | 16.148 | 2 | 42.153 | 16.284 | 33.200 | 2 |
| 2025-06-20T06:20:00 | 53.827107 | 6.373770 | 2.0 | 16.126 | 2 | 42.159 | 16.303 | 33.189 | 2 |
| 2025-06-20T06:21:00 | 53.824252 | 6.373956 | 2.0 | 16.138 | 2 | 42.146 | 16.293 | 33.186 | 2 |
| 2025-06-20T06:22:00 | 53.821398 | 6.374128 | 2.0 | 16.086 | 2 | 42.140 | 16.292 | 33.182 | 2 |
| 2025-06-20T06:23:00 | 53.818578 | 6.374284 | 2.0 | 16.113 | 2 | 42.108 | 16.260 | 33.180 | 2 |
| 2025-06-20T06:24:00 | 53.815776 | 6.374430 | 2.0 | 16.126 | 2 | 42.112 | 16.277 | 33.170 | 2 |
| 2025-06-20T06:25:00 | 53.812973 | 6.374574 | 2.0 | 16.127 | 2 | 42.118 | 16.289 | 33.165 | 2 |
| 2025-06-20T06:26:00 | 53.810178 | 6.374703 | 2.0 | 16.124 | 2 | 42.116 | 16.291 | 33.162 | 2 |
| 2025-06-20T06:27:00 | 53.807391 | 6.374826 | 2.0 | 16.136 | 2 | 42.111 | 16.288 | 33.160 | 2 |
| 2025-06-20T06:28:00 | 53.804597 | 6.374944 | 2.0 | 16.151 | 2 | 42.123 | 16.303 | 33.158 | 2 |
| 2025-06-20T06:29:00 | 53.801788 | 6.375065 | 2.0 | 16.163 | 2 | 42.133 | 16.317 | 33.155 | 2 |
| 2025-06-20T06:30:00 | 53.798978 | 6.375163 | 2.0 | 16.177 | 2 | 42.145 | 16.329 | 33.155 | 2 |
| 2025-06-20T06:31:00 | 53.796163 | 6.375253 | 2.0 | 16.191 | 2 | 42.149 | 16.340 | 33.150 | 2 |
| 2025-06-20T06:32:00 | 53.793358 | 6.375345 | 2.0 | 16.218 | 2 | 42.161 | 16.360 | 33.144 | 2 |
| 2025-06-20T06:33:00 | 53.790554 | 6.375422 | 2.0 | 16.234 | 2 | 42.174 | 16.382 | 33.137 | 2 |
| 2025-06-20T06:34:00 | 53.787743 | 6.375506 | 2.0 | 16.253 | 2 | 42.187 | 16.398 | 33.135 | 2 |
| 2025-06-20T06:35:00 | 53.784957 | 6.375598 | 2.0 | 16.291 | 2 | 42.203 | 16.422 | 33.129 | 2 |
| 2025-06-20T06:36:00 | 53.782164 | 6.375679 | 2.0 | 16.293 | 2 | 42.220 | 16.450 | 33.121 | 2 |
| 2025-06-20T06:37:00 | 53.779361 | 6.375729 | 2.0 | 16.287 | 2 | 42.217 | 16.455 | 33.114 | 2 |
| 2025-06-20T06:38:00 | 53.776545 | 6.375777 | 2.0 | 16.297 | 2 | 42.203 | 16.449 | 33.107 | 2 |
| 2025-06-20T06:39:00 | 53.773742 | 6.375809 | 2.0 | 16.314 | 2 | 42.207 | 16.463 | 33.099 | 2 |
| 2025-06-20T06:40:00 | 53.770935 | 6.375837 | 2.0 | 16.336 | 2 | 42.216 | 16.478 | 33.094 | 2 |
| 2025-06-20T06:41:00 | 53.768128 | 6.375891 | 2.0 | 16.363 | 2 | 42.238 | 16.503 | 33.093 | 2 |
| 2025-06-20T06:42:00 | 53.765333 | 6.375928 | 2.0 | 16.370 | 2 | 42.253 | 16.524 | 33.088 | 2 |
| 2025-06-20T06:43:00 | 53.762519 | 6.375953 | 2.0 | 16.377 | 2 | 42.257 | 16.532 | 33.085 | 2 |
| 2025-06-20T06:44:00 | 53.759696 | 6.375966 | 2.0 | 16.396 | 2 | 42.263 | 16.541 | 33.083 | 2 |
| 2025-06-20T06:45:00 | 53.756874 | 6.375961 | 2.0 | 16.404 | 2 | 42.273 | 16.555 | 33.080 | 2 |
| 2025-06-20T06:46:00 | 53.754052 | 6.375964 | 2.0 | 16.409 | 2 | 42.283 | 16.566 | 33.080 | 2 |
| 2025-06-20T06:47:00 | 53.751214 | 6.376008 | 2.0 | 16.448 | 2 | 42.273 | 16.576 | 33.063 | 2 |
| 2025-06-20T06:48:00 | 53.748362 | 6.376093 | 2.0 | 16.514 | 2 | 42.261 | 16.614 | 33.021 | 2 |
| 2025-06-20T06:49:00 | 53.745511 | 6.376193 | 2.0 | 16.627 | 2 | 42.293 | 16.693 | 32.984 | 2 |
| 2025-06-20T06:50:00 | 53.742658 | 6.376133 | 2.0 | 16.738 | 2 | 42.332 | 16.787 | 32.940 | 2 |
| 2025-06-20T06:51:00 | 53.739791 | 6.376068 | 2.0 | 16.777 | 2 | 42.383 | 16.906 | 32.887 | 2 |
| 2025-06-20T06:52:00 | 53.736895 | 6.375928 | 2.0 | 16.768 | 2 | 42.398 | 16.936 | 32.876 | 2 |
| 2025-06-20T06:53:00 | 53.733976 | 6.375756 | 2.0 | 16.808 | 2 | 42.400 | 16.933 | 32.880 | 2 |
| 2025-06-20T06:54:00 | 53.731059 | 6.375555 | 2.0 | 16.873 | 2 | 42.428 | 16.968 | 32.875 | 2 |
| 2025-06-20T06:55:00 | 53.728150 | 6.375345 | 2.0 | 16.922 | 2 | 42.474 | 17.041 | 32.856 | 2 |
| 2025-06-20T06:56:00 | 53.725219 | 6.375120 | 2.0 | 16.949 | 2 | 42.501 | 17.076 | 32.850 | 2 |
| 2025-06-20T06:57:00 | 53.722304 | 6.374883 | 2.0 | 16.937 | 2 | 42.519 | 17.094 | 32.851 | 2 |
| 2025-06-20T06:58:00 | 53.719389 | 6.374647 | 2.0 | 16.922 | 2 | 42.522 | 17.099 | 32.850 | 2 |
| 2025-06-20T06:59:00 | 53.716472 | 6.374392 | 2.0 | 16.825 | 2 | 42.496 | 17.062 | 32.858 | 2 |
| 2025-06-20T07:00:00 | 53.713565 | 6.374118 | 2.0 | 16.758 | 2 | 42.416 | 16.977 | 32.858 | 2 |
| 2025-06-20T07:01:00 | 53.710646 | 6.373867 | 2.0 | 16.802 | 2 | 42.373 | 16.936 | 32.854 | 2 |
| 2025-06-20T07:02:00 | 53.707727 | 6.373619 | 2.0 | 16.747 | 2 | 42.385 | 16.948 | 32.855 | 2 |
| 2025-06-20T07:03:00 | 53.704846 | 6.373363 | 2.0 | 16.774 | 2 | 42.348 | 16.917 | 32.848 | 2 |
| 2025-06-20T07:04:00 | 53.702625 | 6.373292 | 2.0 | 16.795 | 2 | 42.359 | 16.939 | 32.839 | 2 |
| 2025-06-20T07:05:00 | 53.700909 | 6.373095 | 2.0 | 16.779 | 2 | 42.366 | 16.949 | 32.837 | 2 |
| 2025-06-20T07:06:00 | 53.699479 | 6.372857 | 2.0 | 16.775 | 2 | 42.355 | 16.936 | 32.838 | 2 |
| 2025-06-20T07:07:00 | 53.698583 | 6.372066 | 2.0 | 16.772 | 2 | 42.351 | 16.934 | 32.837 | 2 |
| 2025-06-20T07:08:00 | 53.698552 | 6.371131 | 2.0 | 16.761 | 2 | 42.349 | 16.926 | 32.841 | 2 |
| 2025-06-20T07:09:00 | 53.698634 | 6.370589 | 2.0 | 16.746 | 2 | 42.342 | 16.917 | 32.843 | 2 |
| 2025-06-20T07:10:00 | 53.698682 | 6.370186 | 2.0 | 16.740 | 2 | 42.331 | 16.902 | 32.845 | 2 |
| 2025-06-20T07:11:00 | 53.698701 | 6.369849 | 2.0 | 16.755 | 2 | 42.331 | 16.905 | 32.843 | 2 |
| 2025-06-20T07:12:00 | 53.698720 | 6.369556 | 2.0 | 16.758 | 2 | 42.334 | 16.908 | 32.843 | 2 |
| 2025-06-20T07:13:00 | 53.698744 | 6.369291 | 2.0 | 16.801 | 2 | 42.344 | 16.923 | 32.839 | 2 |
| 2025-06-20T07:14:00 | 53.698773 | 6.369048 | 2.0 | 16.814 | 2 | 42.375 | 16.958 | 32.838 | 2 |
| 2025-06-20T07:15:00 | 53.698817 | 6.368822 | 2.0 | 16.810 | 2 | 42.387 | 16.968 | 32.840 | 2 |
| 2025-06-20T07:16:00 | 53.698870 | 6.368609 | 2.0 | 16.760 | 2 | 42.378 | 16.956 | 32.842 | 2 |
| 2025-06-20T07:17:00 | 53.698921 | 6.368412 | 2.0 | 16.712 | 2 | 42.340 | 16.913 | 32.844 | 2 |
| 2025-06-20T07:18:00 | 53.698982 | 6.368214 | 2.0 | 16.751 | 2 | 42.311 | 16.878 | 32.848 | 2 |
| 2025-06-20T07:19:00 | 53.699050 | 6.368026 | 2.0 | 16.799 | 2 | 42.337 | 16.916 | 32.839 | 2 |
| 2025-06-20T07:20:00 | 53.699116 | 6.367843 | 2.0 | 16.809 | 2 | 42.370 | 16.954 | 32.837 | 2 |
| 2025-06-20T07:21:00 | 53.699193 | 6.367656 | 2.0 | 16.821 | 2 | 42.382 | 16.965 | 32.838 | 2 |
| 2025-06-20T07:22:00 | 53.699266 | 6.367482 | 2.0 | 16.826 | 2 | 42.393 | 16.977 | 32.838 | 2 |
| 2025-06-20T07:23:00 | 53.699347 | 6.367310 | 2.0 | 16.800 | 2 | 42.396 | 16.979 | 32.839 | 2 |
| 2025-06-20T07:24:00 | 53.699444 | 6.367136 | 2.0 | 16.815 | 2 | 42.376 | 16.958 | 32.839 | 2 |
| 2025-06-20T07:25:00 | 53.699583 | 6.367041 | 2.0 | 16.844 | 2 | 42.394 | 16.981 | 32.835 | 2 |
| 2025-06-20T07:26:00 | 53.699552 | 6.367012 | 2.0 | 16.844 | 2 | 42.414 | 17.000 | 32.837 | 2 |
| 2025-06-20T07:27:00 | 53.699361 | 6.366764 | 2.0 | 16.829 | 2 | 42.415 | 16.999 | 32.839 | 2 |
| 2025-06-20T07:28:00 | 53.699044 | 6.365932 | 2.0 | 16.790 | 2 | 42.391 | 16.972 | 32.840 | 2 |
| 2025-06-20T07:29:00 | 53.698454 | 6.364562 | 2.0 | 16.747 | 2 | 42.370 | 16.951 | 32.839 | 2 |
| 2025-06-20T07:30:00 | 53.697963 | 6.362678 | 2.0 | 16.745 | 2 | 42.337 | 16.910 | 32.844 | 2 |
| 2025-06-20T07:31:00 | 53.697854 | 6.360462 | 2.0 | 16.748 | 2 | 42.329 | 16.893 | 32.851 | 2 |
| 2025-06-20T07:32:00 | 53.697569 | 6.358033 | 2.0 | 16.759 | 2 | 42.341 | 16.914 | 32.844 | 2 |
| 2025-06-20T07:33:00 | 53.697205 | 6.355259 | 2.0 | 16.713 | 2 | 42.350 | 16.910 | 32.855 | 2 |
| 2025-06-20T07:34:00 | 53.696744 | 6.352062 | 2.0 | 16.745 | 2 | 42.330 | 16.881 | 32.862 | 2 |
| 2025-06-20T07:35:00 | 53.696246 | 6.348623 | 2.0 | 16.723 | 2 | 42.342 | 16.895 | 32.861 | 2 |
| 2025-06-20T07:36:00 | 53.695732 | 6.345063 | 2.0 | 16.742 | 2 | 42.328 | 16.884 | 32.857 | 2 |
| 2025-06-20T07:37:00 | 53.695226 | 6.341429 | 2.0 | 16.749 | 2 | 42.346 | 16.901 | 32.859 | 2 |
| 2025-06-20T07:38:00 | 53.694717 | 6.337777 | 2.0 | 16.731 | 2 | 42.349 | 16.902 | 32.861 | 2 |
| 2025-06-20T07:39:00 | 53.694232 | 6.334211 | 2.0 | 16.744 | 2 | 42.343 | 16.897 | 32.860 | 2 |
| 2025-06-20T07:40:00 | 53.693840 | 6.331173 | 2.0 | 16.741 | 2 | 42.352 | 16.904 | 32.862 | 2 |
| 2025-06-20T07:41:00 | 53.693463 | 6.328611 | 2.0 | 16.736 | 2 | 42.352 | 16.899 | 32.866 | 2 |
| 2025-06-20T07:42:00 | 53.693127 | 6.326347 | 2.0 | 16.728 | 2 | 42.351 | 16.896 | 32.868 | 2 |
| 2025-06-20T07:43:00 | 53.693337 | 6.324940 | 2.0 | 16.700 | 2 | 42.345 | 16.881 | 32.875 | 2 |
| 2025-06-20T07:44:00 | 53.693573 | 6.324289 | 2.0 | 16.701 | 2 | 42.331 | 16.861 | 32.879 | 2 |
| 2025-06-20T07:45:00 | 53.693700 | 6.323818 | 2.0 | 16.762 | 2 | 42.333 | 16.867 | 32.876 | 2 |
| 2025-06-20T07:46:00 | 53.693825 | 6.323553 | 2.0 | 16.790 | 2 | 42.379 | 16.930 | 32.864 | 2 |
| 2025-06-20T07:47:00 | 53.693970 | 6.323453 | 2.0 | 16.777 | 2 | 42.394 | 16.941 | 32.868 | 2 |
| 2025-06-20T07:48:00 | 53.694115 | 6.323363 | 2.0 | 16.778 | 2 | 42.385 | 16.934 | 32.866 | 2 |
| 2025-06-20T07:49:00 | 53.694252 | 6.323290 | 2.0 | 16.777 | 2 | 42.386 | 16.937 | 32.864 | 2 |
| 2025-06-20T07:50:00 | 53.694394 | 6.323229 | 2.0 | 16.810 | 2 | 42.387 | 16.939 | 32.864 | 2 |
| 2025-06-20T07:51:00 | 53.694522 | 6.323171 | 2.0 | 16.818 | 2 | 42.411 | 16.969 | 32.860 | 2 |
| 2025-06-20T07:52:00 | 53.694613 | 6.323075 | 2.0 | 16.777 | 2 | 42.414 | 16.970 | 32.862 | 2 |
| 2025-06-20T07:53:00 | 53.694709 | 6.322909 | 2.0 | 16.757 | 2 | 42.387 | 16.934 | 32.868 | 2 |
| 2025-06-20T07:54:00 | 53.694847 | 6.322695 | 2.0 | 16.756 | 2 | 42.368 | 16.913 | 32.868 | 2 |
| 2025-06-20T07:55:00 | 53.694984 | 6.322561 | 2.0 | 16.762 | 2 | 42.372 | 16.918 | 32.868 | 2 |
| 2025-06-20T07:56:00 | 53.695107 | 6.322533 | 2.0 | 16.763 | 2 | 42.371 | 16.921 | 32.864 | 2 |
| 2025-06-20T07:57:00 | 53.695258 | 6.322536 | 2.0 | 16.740 | 2 | 42.368 | 16.916 | 32.866 | 2 |
| 2025-06-20T07:58:00 | 53.695416 | 6.322542 | 2.0 | 16.755 | 2 | 42.357 | 16.905 | 32.865 | 2 |
| 2025-06-20T07:59:00 | 53.695553 | 6.322561 | 2.0 | 16.755 | 2 | 42.364 | 16.914 | 32.864 | 2 |
| 2025-06-20T08:00:00 | 53.695638 | 6.322609 | 2.0 | 16.757 | 2 | 42.365 | 16.916 | 32.863 | 2 |
| 2025-06-20T08:01:00 | 53.695705 | 6.322665 | 2.0 | 16.756 | 2 | 42.364 | 16.910 | 32.867 | 2 |
| 2025-06-20T08:02:00 | 53.695763 | 6.322719 | 2.0 | 16.793 | 2 | 42.373 | 16.922 | 32.865 | 2 |
| 2025-06-20T08:03:00 | 53.695841 | 6.322745 | 2.0 | 16.811 | 2 | 42.399 | 16.953 | 32.863 | 2 |
| 2025-06-20T08:04:00 | 53.695919 | 6.322778 | 2.0 | 16.818 | 2 | 42.409 | 16.967 | 32.860 | 2 |
| 2025-06-20T08:05:00 | 53.695981 | 6.322823 | 2.0 | 16.848 | 2 | 42.418 | 16.982 | 32.855 | 2 |
| 2025-06-20T08:06:00 | 53.696028 | 6.322875 | 2.0 | 16.789 | 2 | 42.429 | 16.990 | 32.858 | 2 |
| 2025-06-20T08:07:00 | 53.696095 | 6.322895 | 2.0 | 16.796 | 2 | 42.396 | 16.954 | 32.859 | 2 |
| 2025-06-20T08:08:00 | 53.696170 | 6.322913 | 2.0 | 16.799 | 2 | 42.395 | 16.955 | 32.858 | 2 |
| 2025-06-20T08:09:00 | 53.696248 | 6.322923 | 2.0 | 16.793 | 2 | 42.402 | 16.962 | 32.858 | 2 |
| 2025-06-20T08:10:00 | 53.696326 | 6.322936 | 2.0 | 16.802 | 2 | 42.392 | 16.951 | 32.858 | 2 |
| 2025-06-20T08:11:00 | 53.696398 | 6.322958 | 2.0 | 16.818 | 2 | 42.399 | 16.959 | 32.858 | 2 |
| 2025-06-20T08:12:00 | 53.696481 | 6.322972 | 2.0 | 16.817 | 2 | 42.414 | 16.977 | 32.856 | 2 |
| 2025-06-20T08:13:00 | 53.696556 | 6.322973 | 2.0 | 16.805 | 2 | 42.408 | 16.968 | 32.858 | 2 |
| 2025-06-20T08:14:00 | 53.696635 | 6.322973 | 2.0 | 16.802 | 2 | 42.404 | 16.963 | 32.859 | 2 |
| 2025-06-20T08:15:00 | 53.696715 | 6.322969 | 2.0 | 16.810 | 2 | 42.403 | 16.963 | 32.858 | 2 |
| 2025-06-20T08:16:00 | 53.696778 | 6.322953 | 2.0 | 16.799 | 2 | 42.404 | 16.963 | 32.859 | 2 |
| 2025-06-20T08:17:00 | 53.696842 | 6.322927 | 2.0 | 16.818 | 2 | 42.401 | 16.963 | 32.856 | 2 |
| 2025-06-20T08:18:00 | 53.696909 | 6.322906 | 2.0 | 16.838 | 2 | 42.416 | 16.980 | 32.855 | 2 |
| 2025-06-20T08:19:00 | 53.696974 | 6.322896 | 2.0 | 16.968 | 2 | 42.433 | 16.996 | 32.857 | 2 |
| 2025-06-20T08:20:00 | 53.696956 | 6.322928 | 2.0 | 17.069 | 2 | 42.575 | 17.158 | 32.847 | 2 |
| 2025-06-20T08:21:00 | 53.696767 | 6.322558 | 2.0 | 16.885 | 2 | 42.618 | 17.188 | 32.860 | 2 |
| 2025-06-20T08:22:00 | 53.696653 | 6.321769 | 2.0 | 16.791 | 2 | 42.486 | 17.045 | 32.863 | 2 |
| 2025-06-20T08:23:00 | 53.696870 | 6.320709 | 2.0 | 16.767 | 2 | 42.396 | 16.950 | 32.862 | 2 |
| 2025-06-20T08:24:00 | 53.697460 | 6.319700 | 2.0 | 16.794 | 2 | 42.382 | 16.940 | 32.859 | 2 |
| 2025-06-20T08:25:00 | 53.698384 | 6.318679 | 2.0 | 16.784 | 2 | 42.392 | 16.951 | 32.858 | 2 |
| 2025-06-20T08:26:00 | 53.699793 | 6.317645 | 2.0 | 16.864 | 2 | 42.391 | 16.950 | 32.858 | 2 |
| 2025-06-20T08:27:00 | 53.701461 | 6.316421 | 2.0 | 16.842 | 2 | 42.460 | 17.031 | 32.852 | 2 |
| 2025-06-20T08:28:00 | 53.703237 | 6.315121 | 2.0 | 16.811 | 2 | 42.436 | 16.996 | 32.860 | 2 |
| 2025-06-20T08:29:00 | 53.705098 | 6.313790 | 2.0 | 16.820 | 2 | 42.414 | 16.974 | 32.858 | 2 |
| 2025-06-20T08:30:00 | 53.706737 | 6.312550 | 2.0 | 16.805 | 2 | 42.416 | 16.976 | 32.859 | 2 |
| 2025-06-20T08:31:00 | 53.707991 | 6.311482 | 2.0 | 16.862 | 2 | 42.410 | 16.968 | 32.860 | 2 |
| 2025-06-20T08:32:00 | 53.709002 | 6.310537 | 2.0 | 16.895 | 2 | 42.444 | 17.017 | 32.849 | 2 |
| 2025-06-20T08:33:00 | 53.709609 | 6.310185 | 2.0 | 16.877 | 2 | 42.466 | 17.050 | 32.841 | 2 |
| 2025-06-20T08:34:00 | 53.709683 | 6.310695 | 2.0 | 16.921 | 2 | 42.459 | 17.033 | 32.849 | 2 |
| 2025-06-20T08:35:00 | 53.709664 | 6.311386 | 2.0 | 16.933 | 2 | 42.491 | 17.073 | 32.844 | 2 |
| 2025-06-20T08:36:00 | 53.709639 | 6.311902 | 2.0 | 16.971 | 2 | 42.507 | 17.091 | 32.843 | 2 |
| 2025-06-20T08:37:00 | 53.709739 | 6.312171 | 2.0 | 17.002 | 2 | 42.543 | 17.133 | 32.840 | 2 |
| 2025-06-20T08:38:00 | 53.709839 | 6.312347 | 2.0 | 16.975 | 2 | 42.566 | 17.155 | 32.842 | 2 |
| 2025-06-20T08:39:00 | 53.709922 | 6.312468 | 2.0 | 16.963 | 2 | 42.549 | 17.134 | 32.845 | 2 |
| 2025-06-20T08:40:00 | 53.710008 | 6.312491 | 2.0 | 16.955 | 2 | 42.543 | 17.124 | 32.848 | 2 |
| 2025-06-20T08:41:00 | 53.710077 | 6.312437 | 2.0 | 16.966 | 2 | 42.532 | 17.108 | 32.851 | 2 |
| 2025-06-20T08:42:00 | 53.710123 | 6.312374 | 2.0 | 16.912 | 2 | 42.533 | 17.115 | 32.846 | 2 |
| 2025-06-20T08:43:00 | 53.710140 | 6.312312 | 2.0 | 16.961 | 2 | 42.505 | 17.083 | 32.848 | 2 |
| 2025-06-20T08:44:00 | 53.710168 | 6.312244 | 2.0 | 16.919 | 2 | 42.523 | 17.111 | 32.841 | 2 |
| 2025-06-20T08:45:00 | 53.710203 | 6.312182 | 2.0 | 16.890 | 2 | 42.496 | 17.076 | 32.846 | 2 |
| 2025-06-20T08:46:00 | 53.710235 | 6.312132 | 2.0 | 16.894 | 2 | 42.471 | 17.051 | 32.845 | 2 |
| 2025-06-20T08:47:00 | 53.710256 | 6.312084 | 2.0 | 16.950 | 2 | 42.486 | 17.073 | 32.840 | 2 |
| 2025-06-20T08:48:00 | 53.710290 | 6.312020 | 2.0 | 16.919 | 2 | 42.509 | 17.098 | 32.839 | 2 |
| 2025-06-20T08:49:00 | 53.710320 | 6.311957 | 2.0 | 16.905 | 2 | 42.488 | 17.073 | 32.842 | 2 |
| 2025-06-20T08:50:00 | 53.710330 | 6.311899 | 2.0 | 16.907 | 2 | 42.480 | 17.063 | 32.843 | 2 |
| 2025-06-20T08:51:00 | 53.710344 | 6.311847 | 2.0 | 16.896 | 2 | 42.479 | 17.063 | 32.842 | 2 |
| 2025-06-20T08:52:00 | 53.710388 | 6.311843 | 2.0 | 16.876 | 2 | 42.466 | 17.046 | 32.845 | 2 |
| 2025-06-20T08:53:00 | 53.710795 | 6.311546 | 2.0 | 16.907 | 2 | 42.462 | 17.043 | 32.844 | 2 |
| 2025-06-20T08:54:00 | 53.711807 | 6.310751 | 2.0 | 16.946 | 2 | 42.481 | 17.065 | 32.842 | 2 |
| 2025-06-20T08:55:00 | 53.713544 | 6.309709 | 2.0 | 17.003 | 2 | 42.523 | 17.113 | 32.839 | 2 |
| 2025-06-20T08:56:00 | 53.715859 | 6.308504 | 2.0 | 17.001 | 2 | 42.559 | 17.154 | 32.837 | 2 |
| 2025-06-20T08:57:00 | 53.718455 | 6.307235 | 2.0 | 17.014 | 2 | 42.567 | 17.162 | 32.837 | 2 |
| 2025-06-20T08:58:00 | 53.721033 | 6.306009 | 2.0 | 16.940 | 2 | 42.575 | 17.165 | 32.842 | 2 |
| 2025-06-20T08:59:00 | 53.723544 | 6.305128 | 2.0 | 16.853 | 2 | 42.546 | 17.098 | 32.871 | 2 |
| 2025-06-20T09:00:00 | 53.726137 | 6.304292 | 2.0 | 16.878 | 2 | 42.509 | 17.039 | 32.888 | 2 |
| 2025-06-20T09:01:00 | 53.728851 | 6.303217 | 2.0 | 16.804 | 2 | 42.494 | 17.013 | 32.896 | 2 |
| 2025-06-20T09:02:00 | 53.731567 | 6.302277 | 2.0 | 16.803 | 2 | 42.464 | 16.969 | 32.906 | 2 |
| 2025-06-20T09:03:00 | 53.734277 | 6.301302 | 2.0 | 16.729 | 2 | 42.466 | 16.967 | 32.909 | 2 |
| 2025-06-20T09:04:00 | 53.736998 | 6.300321 | 2.0 | 16.732 | 2 | 42.427 | 16.906 | 32.925 | 2 |
| 2025-06-20T09:05:00 | 53.739710 | 6.299365 | 2.0 | 16.737 | 2 | 42.427 | 16.913 | 32.920 | 2 |
| 2025-06-20T09:06:00 | 53.742390 | 6.298384 | 2.0 | 16.822 | 2 | 42.435 | 16.912 | 32.927 | 2 |
| 2025-06-20T09:07:00 | 53.745078 | 6.297396 | 2.0 | 16.659 | 2 | 42.465 | 16.946 | 32.925 | 2 |
| 2025-06-20T09:08:00 | 53.747768 | 6.296491 | 2.0 | 16.641 | 2 | 42.380 | 16.818 | 32.957 | 2 |
| 2025-06-20T09:09:00 | 53.750444 | 6.295516 | 2.0 | 16.631 | 2 | 42.365 | 16.798 | 32.960 | 2 |
| 2025-06-20T09:10:00 | 53.753136 | 6.294557 | 2.0 | 16.573 | 2 | 42.374 | 16.811 | 32.957 | 2 |
| 2025-06-20T09:11:00 | 53.755847 | 6.293604 | 2.0 | 16.470 | 2 | 42.332 | 16.715 | 33.000 | 2 |
| 2025-06-20T09:12:00 | 53.758529 | 6.292601 | 2.0 | 16.462 | 2 | 42.312 | 16.655 | 33.032 | 2 |
| 2025-06-20T09:13:00 | 53.761232 | 6.291612 | 2.0 | 16.459 | 2 | 42.307 | 16.620 | 33.056 | 2 |
| 2025-06-20T09:14:00 | 53.763906 | 6.290683 | 2.0 | 16.588 | 2 | 42.352 | 16.666 | 33.057 | 2 |
| 2025-06-20T09:15:00 | 53.766596 | 6.289878 | 2.0 | 16.476 | 2 | 42.403 | 16.741 | 33.040 | 2 |
| 2025-06-20T09:16:00 | 53.769304 | 6.289103 | 2.0 | 16.467 | 2 | 42.321 | 16.641 | 33.051 | 2 |
| 2025-06-20T09:17:00 | 53.771985 | 6.288282 | 2.0 | 16.489 | 2 | 42.323 | 16.647 | 33.048 | 2 |
| 2025-06-20T09:18:00 | 53.774675 | 6.287497 | 2.0 | 16.492 | 2 | 42.344 | 16.661 | 33.055 | 2 |
| 2025-06-20T09:19:00 | 53.777361 | 6.286698 | 2.0 | 16.457 | 2 | 42.343 | 16.646 | 33.066 | 2 |
| 2025-06-20T09:20:00 | 53.780066 | 6.285839 | 2.0 | 16.516 | 2 | 42.339 | 16.623 | 33.082 | 2 |
| 2025-06-20T09:21:00 | 53.782766 | 6.285047 | 2.0 | 16.551 | 2 | 42.400 | 16.696 | 33.075 | 2 |
| 2025-06-20T09:22:00 | 53.785490 | 6.284264 | 2.0 | 16.494 | 2 | 42.410 | 16.697 | 33.082 | 2 |
| 2025-06-20T09:23:00 | 53.788180 | 6.283412 | 2.0 | 16.607 | 2 | 42.399 | 16.669 | 33.096 | 2 |
| 2025-06-20T09:24:00 | 53.790833 | 6.282620 | 2.0 | 16.694 | 2 | 42.473 | 16.775 | 33.073 | 2 |
| 2025-06-20T09:25:00 | 53.793503 | 6.281854 | 2.0 | 16.682 | 2 | 42.546 | 16.861 | 33.065 | 2 |
| 2025-06-20T09:26:00 | 53.796098 | 6.281047 | 2.0 | 16.656 | 2 | 42.527 | 16.836 | 33.070 | 2 |
| 2025-06-20T09:27:00 | 53.798693 | 6.280289 | 2.0 | 16.590 | 2 | 42.528 | 16.816 | 33.087 | 2 |
| 2025-06-20T09:28:00 | 53.801335 | 6.279474 | 2.0 | 16.591 | 2 | 42.496 | 16.764 | 33.102 | 2 |
| 2025-06-20T09:29:00 | 53.804013 | 6.278710 | 2.0 | 16.614 | 2 | 42.490 | 16.758 | 33.102 | 2 |
| 2025-06-20T09:30:00 | 53.806688 | 6.277924 | 2.0 | 16.639 | 2 | 42.507 | 16.782 | 33.097 | 2 |
| 2025-06-20T09:31:00 | 53.809375 | 6.277115 | 2.0 | 16.673 | 2 | 42.533 | 16.805 | 33.100 | 2 |
| 2025-06-20T09:32:00 | 53.812057 | 6.276312 | 2.0 | 16.673 | 2 | 42.574 | 16.838 | 33.109 | 2 |
| 2025-06-20T09:33:00 | 53.814731 | 6.275509 | 2.0 | 16.652 | 2 | 42.571 | 16.830 | 33.113 | 2 |
| 2025-06-20T09:34:00 | 53.817398 | 6.274553 | 2.0 | 16.615 | 2 | 42.552 | 16.813 | 33.110 | 2 |
| 2025-06-20T09:35:00 | 53.820028 | 6.273564 | 2.0 | 16.546 | 2 | 42.527 | 16.780 | 33.116 | 2 |
| 2025-06-20T09:36:00 | 53.822706 | 6.272644 | 2.0 | 16.623 | 2 | 42.518 | 16.735 | 33.145 | 2 |
| 2025-06-20T09:37:00 | 53.825365 | 6.271696 | 2.0 | 16.634 | 2 | 42.525 | 16.765 | 33.126 | 2 |
| 2025-06-20T09:38:00 | 53.828042 | 6.270758 | 2.0 | 16.591 | 2 | 42.555 | 16.784 | 33.137 | 2 |
| 2025-06-20T09:39:00 | 53.830713 | 6.269763 | 2.0 | 16.577 | 2 | 42.539 | 16.753 | 33.148 | 2 |
| 2025-06-20T09:40:00 | 53.833389 | 6.268841 | 2.0 | 16.631 | 2 | 42.530 | 16.738 | 33.153 | 2 |
| 2025-06-20T09:41:00 | 53.836050 | 6.267828 | 2.0 | 16.619 | 2 | 42.585 | 16.798 | 33.151 | 2 |
| 2025-06-20T09:42:00 | 53.838700 | 6.266862 | 2.0 | 16.497 | 2 | 42.577 | 16.774 | 33.164 | 2 |
| 2025-06-20T09:43:00 | 53.841363 | 6.265943 | 2.0 | 16.431 | 2 | 42.487 | 16.658 | 33.182 | 2 |
| 2025-06-20T09:44:00 | 53.843990 | 6.265052 | 2.0 | 16.414 | 2 | 42.454 | 16.607 | 33.195 | 2 |
| 2025-06-20T09:45:00 | 53.846666 | 6.264079 | 2.0 | 16.367 | 2 | 42.478 | 16.561 | 33.254 | 2 |
| 2025-06-20T09:46:00 | 53.849356 | 6.263135 | 2.0 | 16.353 | 2 | 42.485 | 16.533 | 33.284 | 2 |
| 2025-06-20T09:47:00 | 53.852019 | 6.262190 | 2.0 | 16.237 | 2 | 42.488 | 16.517 | 33.300 | 2 |
| 2025-06-20T09:48:00 | 53.854688 | 6.261160 | 2.0 | 16.155 | 2 | 42.377 | 16.399 | 33.301 | 2 |
| 2025-06-20T09:49:00 | 53.857348 | 6.260185 | 2.0 | 16.110 | 2 | 42.290 | 16.325 | 33.286 | 2 |
| 2025-06-20T09:50:00 | 53.860036 | 6.259242 | 2.0 | 16.090 | 2 | 42.243 | 16.278 | 33.284 | 2 |
| 2025-06-20T09:51:00 | 53.862762 | 6.258208 | 2.0 | 16.079 | 2 | 42.202 | 16.250 | 33.272 | 2 |
| 2025-06-20T09:52:00 | 53.865506 | 6.257229 | 2.0 | 16.364 | 2 | 42.259 | 16.334 | 33.252 | 2 |
| 2025-06-20T09:53:00 | 53.868250 | 6.256263 | 2.0 | 16.213 | 2 | 42.417 | 16.507 | 33.246 | 2 |
| 2025-06-20T09:54:00 | 53.870982 | 6.255274 | 2.0 | 16.214 | 2 | 42.334 | 16.389 | 33.272 | 2 |
| 2025-06-20T09:55:00 | 53.873709 | 6.254288 | 2.0 | 16.099 | 2 | 42.309 | 16.359 | 33.275 | 2 |
| 2025-06-20T09:56:00 | 53.876443 | 6.253310 | 2.0 | 16.061 | 2 | 42.262 | 16.282 | 33.298 | 2 |
| 2025-06-20T09:57:00 | 53.879189 | 6.252312 | 2.0 | 16.098 | 2 | 42.240 | 16.254 | 33.302 | 2 |
| 2025-06-20T09:58:00 | 53.881903 | 6.251348 | 2.0 | 16.299 | 2 | 42.259 | 16.290 | 33.288 | 2 |
| 2025-06-20T09:59:00 | 53.884585 | 6.250401 | 2.0 | 16.290 | 2 | 42.372 | 16.432 | 33.269 | 2 |
| 2025-06-20T10:00:00 | 53.887253 | 6.249455 | 2.0 | 16.408 | 2 | 42.412 | 16.466 | 33.276 | 2 |
| 2025-06-20T10:01:00 | 53.889955 | 6.248481 | 2.0 | 16.398 | 2 | 42.517 | 16.574 | 33.278 | 2 |
| 2025-06-20T10:02:00 | 53.892645 | 6.247503 | 2.0 | 15.931 | 2 | 42.473 | 16.463 | 33.332 | 2 |
| 2025-06-20T10:03:00 | 53.895324 | 6.246548 | 2.0 | 15.949 | 2 | 42.207 | 16.155 | 33.356 | 2 |
| 2025-06-20T10:04:00 | 53.897968 | 6.245513 | 2.0 | 15.932 | 2 | 42.184 | 16.139 | 33.349 | 2 |
| 2025-06-20T10:05:00 | 53.900597 | 6.244492 | 2.0 | 15.941 | 2 | 42.175 | 16.129 | 33.349 | 2 |
| 2025-06-20T10:06:00 | 53.903274 | 6.243433 | 2.0 | 15.998 | 2 | 42.168 | 16.120 | 33.350 | 2 |
| 2025-06-20T10:07:00 | 53.905960 | 6.242419 | 2.0 | 16.051 | 2 | 42.230 | 16.198 | 33.340 | 2 |
| 2025-06-20T10:08:00 | 53.908629 | 6.241386 | 2.0 | 16.026 | 2 | 42.246 | 16.214 | 33.340 | 2 |
| 2025-06-20T10:09:00 | 53.911270 | 6.240363 | 2.0 | 16.132 | 2 | 42.253 | 16.228 | 33.335 | 2 |
| 2025-06-20T10:10:00 | 53.913913 | 6.239305 | 2.0 | 16.180 | 2 | 42.314 | 16.305 | 33.324 | 2 |
| 2025-06-20T10:11:00 | 53.916567 | 6.238264 | 2.0 | 16.204 | 2 | 42.346 | 16.351 | 33.314 | 2 |
| 2025-06-20T10:12:00 | 53.919231 | 6.237220 | 2.0 | 16.229 | 2 | 42.363 | 16.375 | 33.309 | 2 |
| 2025-06-20T10:13:00 | 53.921889 | 6.236158 | 2.0 | 16.126 | 2 | 42.370 | 16.370 | 33.319 | 2 |
| 2025-06-20T10:14:00 | 53.924237 | 6.235145 | 2.0 | 16.145 | 2 | 42.327 | 16.299 | 33.341 | 2 |
| 2025-06-20T10:15:00 | 53.926004 | 6.234319 | 2.0 | 16.192 | 2 | 42.372 | 16.331 | 33.353 | 2 |
| 2025-06-20T10:16:00 | 53.927376 | 6.233839 | 2.0 | 16.217 | 2 | 42.423 | 16.362 | 33.372 | 2 |
| 2025-06-20T10:17:00 | 53.928476 | 6.233418 | 2.0 | 16.139 | 2 | 42.436 | 16.371 | 33.376 | 2 |
| 2025-06-20T10:18:00 | 53.929385 | 6.232988 | 2.0 | 16.101 | 2 | 42.371 | 16.304 | 33.375 | 2 |
| 2025-06-20T10:19:00 | 53.930120 | 6.232631 | 2.0 | 16.169 | 2 | 42.354 | 16.299 | 33.364 | 2 |
| 2025-06-20T10:20:00 | 53.930759 | 6.232340 | 2.0 | 16.128 | 2 | 42.381 | 16.323 | 33.368 | 2 |
| 2025-06-20T10:21:00 | 53.931275 | 6.232063 | 2.0 | 16.147 | 2 | 42.368 | 16.307 | 33.370 | 2 |
| 2025-06-20T10:22:00 | 53.931653 | 6.231766 | 2.0 | 16.077 | 2 | 42.379 | 16.313 | 33.375 | 2 |
| 2025-06-20T10:23:00 | 53.931956 | 6.231460 | 2.0 | 16.164 | 2 | 42.335 | 16.268 | 33.374 | 2 |
| 2025-06-20T10:24:00 | 53.932173 | 6.231291 | 2.0 | 16.111 | 2 | 42.379 | 16.317 | 33.371 | 2 |
| 2025-06-20T10:25:00 | 53.932348 | 6.231188 | 2.0 | 16.168 | 2 | 42.358 | 16.291 | 33.375 | 2 |
| 2025-06-20T10:26:00 | 53.932487 | 6.231094 | 2.0 | 16.200 | 2 | 42.414 | 16.354 | 33.371 | 2 |
| 2025-06-20T10:27:00 | 53.932575 | 6.231068 | 2.0 | 16.213 | 2 | 42.424 | 16.353 | 33.381 | 2 |
| 2025-06-20T10:28:00 | 53.932651 | 6.231085 | 2.0 | 16.245 | 2 | 42.463 | 16.398 | 33.377 | 2 |
| 2025-06-20T10:29:00 | 53.932691 | 6.231143 | 2.0 | 16.148 | 2 | 42.450 | 16.373 | 33.387 | 2 |
| 2025-06-20T10:30:00 | 53.932732 | 6.231196 | 2.0 | 16.197 | 2 | 42.400 | 16.330 | 33.379 | 2 |
| 2025-06-20T10:31:00 | 53.932775 | 6.231251 | 2.0 | 16.218 | 2 | 42.435 | 16.368 | 33.378 | 2 |
| 2025-06-20T10:32:00 | 53.932819 | 6.231305 | 2.0 | 16.184 | 2 | 42.446 | 16.377 | 33.380 | 2 |
| 2025-06-20T10:33:00 | 53.932871 | 6.231346 | 2.0 | 16.189 | 2 | 42.414 | 16.339 | 33.384 | 2 |
| 2025-06-20T10:34:00 | 53.932939 | 6.231355 | 2.0 | 16.222 | 2 | 42.406 | 16.334 | 33.381 | 2 |
| 2025-06-20T10:35:00 | 53.933015 | 6.231372 | 2.0 | 16.161 | 2 | 42.447 | 16.379 | 33.379 | 2 |
| 2025-06-20T10:36:00 | 53.933082 | 6.231382 | 2.0 | 16.217 | 2 | 42.401 | 16.327 | 33.382 | 2 |
| 2025-06-20T10:37:00 | 53.933132 | 6.231361 | 2.0 | 16.230 | 2 | 42.451 | 16.384 | 33.378 | 2 |
| 2025-06-20T10:38:00 | 53.933166 | 6.231303 | 2.0 | 16.244 | 2 | 42.467 | 16.397 | 33.382 | 2 |
| 2025-06-20T10:39:00 | 53.933181 | 6.231219 | 2.0 | 16.196 | 2 | 42.479 | 16.400 | 33.390 | 2 |
| 2025-06-20T10:40:00 | 53.933179 | 6.231115 | 2.0 | 16.349 | 2 | 42.460 | 16.378 | 33.391 | 2 |
| 2025-06-20T10:41:00 | 53.933185 | 6.230989 | 2.0 | 16.369 | 2 | 42.597 | 16.533 | 33.382 | 2 |
| 2025-06-20T10:42:00 | 53.933187 | 6.230911 | 2.0 | 16.172 | 2 | 42.596 | 16.506 | 33.404 | 2 |
| 2025-06-20T10:43:00 | 53.933199 | 6.230868 | 2.0 | 16.124 | 2 | 42.433 | 16.297 | 33.436 | 2 |
| 2025-06-20T10:44:00 | 53.933251 | 6.230882 | 2.0 | 16.165 | 2 | 42.461 | 16.299 | 33.459 | 2 |
| 2025-06-20T10:45:00 | 53.933341 | 6.230927 | 2.0 | 16.147 | 2 | 42.502 | 16.325 | 33.473 | 2 |
| 2025-06-20T10:46:00 | 53.933464 | 6.230997 | 2.0 | 16.178 | 2 | 42.492 | 16.311 | 33.476 | 2 |
| 2025-06-20T10:47:00 | 53.933574 | 6.231048 | 2.0 | 16.144 | 2 | 42.508 | 16.328 | 33.476 | 2 |
| 2025-06-20T10:48:00 | 53.933661 | 6.231076 | 2.0 | 16.178 | 2 | 42.483 | 16.303 | 33.475 | 2 |
| 2025-06-20T10:49:00 | 53.933716 | 6.231083 | 2.0 | 16.168 | 2 | 42.510 | 16.328 | 33.477 | 2 |
| 2025-06-20T10:50:00 | 53.933748 | 6.231069 | 2.0 | 16.267 | 2 | 42.543 | 16.370 | 33.471 | 2 |
| 2025-06-20T10:51:00 | 53.933774 | 6.231034 | 2.0 | 16.233 | 2 | 42.575 | 16.391 | 33.482 | 2 |
| 2025-06-20T10:52:00 | 53.933833 | 6.231060 | 2.0 | 16.066 | 2 | 42.567 | 16.387 | 33.478 | 2 |
| 2025-06-20T10:53:00 | 53.933910 | 6.231253 | 2.0 | 16.017 | 2 | 42.432 | 16.231 | 33.490 | 2 |
| 2025-06-20T10:54:00 | 53.934004 | 6.231488 | 2.0 | 16.039 | 2 | 42.392 | 16.205 | 33.477 | 2 |
| 2025-06-20T10:55:00 | 53.934104 | 6.231736 | 2.0 | 16.164 | 2 | 42.393 | 16.204 | 33.479 | 2 |
| 2025-06-20T10:56:00 | 53.934188 | 6.231930 | 2.0 | 16.083 | 2 | 42.485 | 16.300 | 33.479 | 2 |
| 2025-06-20T10:57:00 | 53.934261 | 6.232054 | 2.0 | 16.175 | 2 | 42.453 | 16.272 | 33.474 | 2 |
| 2025-06-20T10:58:00 | 53.934293 | 6.232123 | 2.0 | 16.278 | 2 | 42.529 | 16.359 | 33.468 | 2 |
| 2025-06-20T10:59:00 | 53.934310 | 6.232138 | 2.0 | 16.282 | 2 | 42.611 | 16.437 | 33.475 | 2 |
| 2025-06-20T11:00:00 | 53.934271 | 6.232009 | 2.0 | 15.933 | 2 | 42.537 | 16.340 | 33.491 | 2 |
| 2025-06-20T11:01:00 | 53.934120 | 6.231804 | 2.0 | 16.106 | 2 | 42.363 | 16.171 | 33.480 | 2 |
| 2025-06-20T11:02:00 | 53.934020 | 6.231528 | 2.0 | 16.096 | 2 | 42.483 | 16.304 | 33.474 | 2 |
| 2025-06-20T11:03:00 | 53.934009 | 6.231096 | 2.0 | 16.054 | 2 | 42.445 | 16.251 | 33.485 | 2 |
| 2025-06-20T11:04:00 | 53.934177 | 6.230690 | 2.0 | 16.017 | 2 | 42.443 | 16.258 | 33.477 | 2 |
| 2025-06-20T11:05:00 | 53.934408 | 6.230623 | 2.0 | 16.090 | 2 | 42.412 | 16.222 | 33.480 | 2 |
| 2025-06-20T11:06:00 | 53.934508 | 6.230636 | 2.0 | 15.995 | 2 | 42.445 | 16.256 | 33.481 | 2 |
| 2025-06-20T11:07:00 | 53.934609 | 6.230643 | 2.0 | 16.235 | 2 | 42.388 | 16.199 | 33.478 | 2 |
| 2025-06-20T11:08:00 | 53.934693 | 6.230733 | 2.0 | 16.183 | 2 | 42.599 | 16.430 | 33.470 | 2 |
| 2025-06-20T11:09:00 | 53.934755 | 6.230760 | 2.0 | 16.030 | 2 | 42.524 | 16.331 | 33.487 | 2 |
| 2025-06-20T11:10:00 | 53.934790 | 6.230798 | 2.0 | 16.455 | 2 | 42.508 | 16.337 | 33.468 | 2 |
| 2025-06-20T11:11:00 | 53.934811 | 6.230853 | 2.0 | 16.469 | 2 | 42.778 | 16.622 | 33.466 | 2 |
| 2025-06-20T11:12:00 | 53.934799 | 6.230845 | 2.0 | 16.001 | 2 | 42.690 | 16.493 | 33.497 | 2 |
| 2025-06-20T11:13:00 | 53.934773 | 6.230763 | 2.0 | 15.752 | 2 | 42.407 | 16.194 | 33.499 | 2 |
| 2025-06-20T11:14:00 | 53.934811 | 6.230738 | 2.0 | 16.106 | 2 | 42.216 | 16.027 | 33.471 | 2 |
| 2025-06-20T11:15:00 | 53.934860 | 6.230729 | 2.0 | 16.109 | 2 | 42.463 | 16.297 | 33.462 | 2 |
| 2025-06-20T11:16:00 | 53.934883 | 6.230727 | 2.0 | 16.178 | 2 | 42.494 | 16.319 | 33.471 | 2 |
| 2025-06-20T11:17:00 | 53.934885 | 6.230730 | 2.0 | 16.089 | 2 | 42.531 | 16.361 | 33.468 | 2 |
| 2025-06-20T11:18:00 | 53.934869 | 6.230717 | 2.0 | 16.030 | 2 | 42.450 | 16.264 | 33.478 | 2 |
| 2025-06-20T11:19:00 | 53.934843 | 6.230696 | 2.0 | 16.005 | 2 | 42.392 | 16.210 | 33.473 | 2 |
| 2025-06-20T11:20:00 | 53.934840 | 6.230703 | 2.0 | 15.993 | 2 | 42.374 | 16.195 | 33.469 | 2 |
| 2025-06-20T11:21:00 | 53.934839 | 6.230715 | 2.0 | 15.961 | 2 | 42.371 | 16.187 | 33.473 | 2 |
| 2025-06-20T11:22:00 | 53.934830 | 6.230713 | 2.0 | 15.938 | 2 | 42.334 | 16.144 | 33.477 | 2 |
| 2025-06-20T11:23:00 | 53.934807 | 6.230713 | 2.0 | 15.971 | 2 | 42.326 | 16.140 | 33.473 | 2 |
| 2025-06-20T11:24:00 | 53.934811 | 6.230678 | 2.0 | 15.881 | 2 | 42.346 | 16.161 | 33.473 | 2 |
| 2025-06-20T11:25:00 | 53.934828 | 6.230620 | 2.0 | 15.808 | 2 | 42.254 | 16.052 | 33.484 | 2 |
| 2025-06-20T11:26:00 | 53.934819 | 6.230572 | 2.0 | 15.765 | 2 | 42.200 | 16.014 | 33.468 | 2 |
| 2025-06-20T11:27:00 | 53.934814 | 6.230578 | 2.0 | 15.711 | 2 | 42.148 | 15.950 | 33.476 | 2 |
| 2025-06-20T11:28:00 | 53.934829 | 6.230610 | 2.0 | 15.764 | 2 | 42.131 | 15.937 | 33.472 | 2 |
| 2025-06-20T11:29:00 | 53.934889 | 6.230620 | 2.0 | 15.711 | 2 | 42.122 | 15.947 | 33.455 | 2 |
| 2025-06-20T11:30:00 | 53.934938 | 6.230628 | 2.0 | 15.794 | 2 | 42.116 | 15.931 | 33.464 | 2 |
| 2025-06-20T11:31:00 | 53.934930 | 6.230652 | 2.0 | 15.911 | 2 | 42.171 | 16.013 | 33.443 | 2 |
| 2025-06-20T11:32:00 | 53.934898 | 6.230659 | 2.0 | 15.908 | 2 | 42.273 | 16.092 | 33.467 | 2 |
| 2025-06-20T11:33:00 | 53.934869 | 6.230637 | 2.0 | 15.813 | 2 | 42.261 | 16.081 | 33.466 | 2 |
| 2025-06-20T11:34:00 | 53.934858 | 6.230695 | 2.0 | 15.781 | 2 | 42.204 | 16.010 | 33.475 | 2 |
| 2025-06-20T11:35:00 | 53.934830 | 6.230724 | 2.0 | 15.699 | 2 | 42.160 | 15.955 | 33.482 | 2 |
| 2025-06-20T11:36:00 | 53.934791 | 6.230702 | 2.0 | 15.629 | 2 | 42.094 | 15.879 | 33.488 | 2 |
| 2025-06-20T11:37:00 | 53.934792 | 6.230696 | 2.0 | 15.627 | 2 | 42.045 | 15.831 | 33.485 | 2 |
| 2025-06-20T11:38:00 | 53.934817 | 6.230704 | 2.0 | 15.635 | 2 | 42.040 | 15.827 | 33.484 | 2 |
| 2025-06-20T11:39:00 | 53.934830 | 6.230727 | 2.0 | 15.640 | 2 | 42.045 | 15.833 | 33.483 | 2 |
| 2025-06-20T11:40:00 | 53.934828 | 6.230739 | 2.0 | 15.664 | 2 | 42.049 | 15.838 | 33.483 | 2 |
| 2025-06-20T11:41:00 | 53.934826 | 6.230709 | 2.0 | 15.735 | 2 | 42.079 | 15.875 | 33.478 | 2 |
| 2025-06-20T11:42:00 | 53.934826 | 6.230651 | 2.0 | 15.970 | 2 | 42.186 | 15.995 | 33.472 | 2 |
| 2025-06-20T11:43:00 | 53.934820 | 6.230614 | 2.0 | 15.833 | 2 | 42.327 | 16.138 | 33.476 | 2 |
| 2025-06-20T11:44:00 | 53.934779 | 6.230582 | 2.0 | 15.819 | 2 | 42.211 | 15.999 | 33.490 | 2 |
| 2025-06-20T11:45:00 | 53.934723 | 6.230557 | 2.0 | 15.755 | 2 | 42.200 | 16.001 | 33.479 | 2 |
| 2025-06-20T11:46:00 | 53.934709 | 6.230578 | 2.0 | 15.825 | 2 | 42.171 | 15.970 | 33.479 | 2 |
| 2025-06-20T11:47:00 | 53.934721 | 6.230622 | 2.0 | 15.900 | 2 | 42.242 | 16.056 | 33.470 | 2 |
| 2025-06-20T11:48:00 | 53.934730 | 6.230638 | 2.0 | 15.848 | 2 | 42.278 | 16.085 | 33.477 | 2 |
| 2025-06-20T11:49:00 | 53.934733 | 6.230624 | 2.0 | 15.922 | 2 | 42.253 | 16.054 | 33.481 | 2 |
| 2025-06-20T11:50:00 | 53.934738 | 6.230595 | 2.0 | 16.012 | 2 | 42.319 | 16.132 | 33.474 | 2 |
| 2025-06-20T11:51:00 | 53.934738 | 6.230564 | 2.0 | 16.049 | 2 | 42.390 | 16.202 | 33.478 | 2 |
| 2025-06-20T11:52:00 | 53.934717 | 6.230526 | 2.0 | 16.136 | 2 | 42.453 | 16.271 | 33.475 | 2 |
| 2025-06-20T11:53:00 | 53.934690 | 6.230495 | 2.0 | 16.137 | 2 | 42.553 | 16.376 | 33.475 | 2 |
| 2025-06-20T11:54:00 | 53.934691 | 6.230513 | 2.0 | 16.046 | 2 | 42.472 | 16.270 | 33.493 | 2 |
| 2025-06-20T11:55:00 | 53.934698 | 6.230556 | 2.0 | 16.194 | 2 | 42.470 | 16.290 | 33.474 | 2 |
| 2025-06-20T11:56:00 | 53.934683 | 6.230583 | 2.0 | 16.127 | 2 | 42.533 | 16.344 | 33.484 | 2 |
| 2025-06-20T11:57:00 | 53.934659 | 6.230644 | 2.0 | 16.071 | 2 | 42.520 | 16.335 | 33.480 | 2 |
| 2025-06-20T11:58:00 | 53.934607 | 6.230708 | 2.0 | 16.003 | 2 | 42.455 | 16.259 | 33.487 | 2 |
| 2025-06-20T11:59:00 | 53.934621 | 6.230763 | 2.0 | 15.956 | 2 | 42.391 | 16.194 | 33.485 | 2 |
| 2025-06-20T12:00:00 | 53.934627 | 6.230853 | 2.0 | 15.818 | 2 | 42.331 | 16.129 | 33.487 | 2 |
| 2025-06-20T12:01:00 | 53.934612 | 6.230943 | 2.0 | 15.855 | 2 | 42.242 | 16.036 | 33.487 | 2 |
| 2025-06-20T12:02:00 | 53.934607 | 6.230961 | 2.0 | 15.883 | 2 | 42.264 | 16.067 | 33.480 | 2 |
| 2025-06-20T12:03:00 | 53.934658 | 6.230959 | 2.0 | 15.937 | 2 | 42.284 | 16.085 | 33.482 | 2 |
| 2025-06-20T12:04:00 | 53.934679 | 6.230951 | 2.0 | 16.553 | 2 | 42.413 | 16.239 | 33.467 | 2 |
| 2025-06-20T12:05:00 | 53.934641 | 6.230927 | 2.0 | 16.875 | 2 | 42.898 | 16.760 | 33.455 | 2 |
| 2025-06-20T12:06:00 | 53.934589 | 6.230906 | 2.0 | 16.650 | 2 | 43.218 | 17.074 | 33.472 | 2 |
| 2025-06-20T12:07:00 | 53.934559 | 6.230899 | 2.0 | 16.845 | 2 | 43.055 | 16.868 | 33.502 | 2 |
| 2025-06-20T12:08:00 | 53.934519 | 6.230880 | 2.0 | 16.780 | 2 | 43.146 | 16.990 | 33.479 | 2 |
| 2025-06-20T12:09:00 | 53.934487 | 6.230869 | 2.0 | 16.506 | 2 | 43.139 | 16.980 | 33.482 | 2 |
| 2025-06-20T12:10:00 | 53.934470 | 6.230898 | 2.0 | 16.457 | 2 | 42.928 | 16.750 | 33.490 | 2 |
| 2025-06-20T12:11:00 | 53.934505 | 6.230920 | 2.0 | 16.408 | 2 | 42.825 | 16.647 | 33.486 | 2 |
| 2025-06-20T12:12:00 | 53.934545 | 6.230939 | 2.0 | 16.260 | 2 | 42.791 | 16.619 | 33.480 | 2 |
| 2025-06-20T12:13:00 | 53.934554 | 6.230998 | 2.0 | 16.331 | 2 | 42.636 | 16.450 | 33.486 | 2 |
| 2025-06-20T12:14:00 | 53.934541 | 6.231027 | 2.0 | 16.188 | 2 | 42.725 | 16.564 | 33.468 | 2 |
| 2025-06-20T12:15:00 | 53.934563 | 6.230979 | 2.0 | 16.164 | 2 | 42.606 | 16.413 | 33.490 | 2 |
| 2025-06-20T12:16:00 | 53.934537 | 6.230918 | 2.0 | 16.353 | 2 | 42.582 | 16.406 | 33.475 | 2 |
| 2025-06-20T12:17:00 | 53.934522 | 6.230892 | 2.0 | 16.399 | 2 | 42.717 | 16.550 | 33.473 | 2 |
| 2025-06-20T12:18:00 | 53.934517 | 6.230889 | 2.0 | 16.394 | 2 | 42.778 | 16.624 | 33.464 | 2 |
| 2025-06-20T12:19:00 | 53.934507 | 6.230897 | 2.0 | 16.480 | 2 | 42.765 | 16.589 | 33.482 | 2 |
| 2025-06-20T12:20:00 | 53.934486 | 6.230940 | 2.0 | 16.344 | 2 | 42.857 | 16.699 | 33.471 | 2 |
| 2025-06-20T12:21:00 | 53.934478 | 6.230944 | 2.0 | 16.151 | 2 | 42.728 | 16.538 | 33.493 | 2 |
| 2025-06-20T12:22:00 | 53.934519 | 6.230900 | 2.0 | 15.971 | 2 | 42.537 | 16.340 | 33.491 | 2 |
| 2025-06-20T12:23:00 | 53.934604 | 6.230840 | 2.0 | 15.774 | 2 | 42.406 | 16.216 | 33.480 | 2 |
| 2025-06-20T12:24:00 | 53.934644 | 6.230957 | 2.0 | 15.867 | 2 | 42.226 | 16.011 | 33.494 | 2 |
| 2025-06-20T12:25:00 | 53.934645 | 6.231088 | 2.0 | 16.614 | 2 | 42.399 | 16.257 | 33.439 | 2 |
| 2025-06-20T12:26:00 | 53.934632 | 6.231237 | 2.0 | 16.800 | 2 | 42.937 | 16.845 | 33.419 | 2 |
| 2025-06-20T12:27:00 | 53.934671 | 6.231404 | 2.0 | 16.507 | 2 | 43.059 | 16.951 | 33.436 | 2 |
| 2025-06-20T12:28:00 | 53.934715 | 6.231562 | 2.0 | 16.461 | 2 | 42.824 | 16.658 | 33.476 | 2 |
| 2025-06-20T12:29:00 | 53.934809 | 6.231531 | 2.0 | 16.395 | 2 | 42.802 | 16.669 | 33.448 | 2 |
| 2025-06-20T12:30:00 | 53.934920 | 6.231389 | 2.0 | 16.398 | 2 | 42.712 | 16.585 | 33.439 | 2 |
| 2025-06-20T12:31:00 | 53.935019 | 6.231166 | 2.0 | 16.355 | 2 | 42.687 | 16.573 | 33.427 | 2 |
| 2025-06-20T12:32:00 | 53.935090 | 6.230964 | 2.0 | 16.265 | 2 | 42.681 | 16.579 | 33.417 | 2 |
| 2025-06-20T12:33:00 | 53.935128 | 6.230711 | 2.0 | 16.488 | 2 | 42.574 | 16.434 | 33.445 | 2 |
| 2025-06-20T12:34:00 | 53.934763 | 6.230316 | 2.0 | 16.619 | 2 | 42.765 | 16.727 | 33.367 | 2 |
| 2025-06-20T12:35:00 | 53.934060 | 6.229538 | 2.0 | 16.375 | 2 | 42.833 | 16.755 | 33.403 | 2 |
| 2025-06-20T12:36:00 | 53.933043 | 6.228154 | 2.0 | 16.286 | 2 | 42.657 | 16.569 | 33.404 | 2 |
| 2025-06-20T12:37:00 | 53.931946 | 6.226011 | 2.0 | 16.217 | 2 | 42.567 | 16.489 | 33.392 | 2 |
| 2025-06-20T12:38:00 | 53.930450 | 6.223172 | 2.0 | 16.234 | 2 | 42.492 | 16.430 | 33.376 | 2 |
| 2025-06-20T12:39:00 | 53.928661 | 6.220024 | 2.0 | 16.219 | 2 | 42.475 | 16.451 | 33.344 | 2 |
| 2025-06-20T12:40:00 | 53.926788 | 6.216778 | 2.0 | 16.160 | 2 | 42.438 | 16.408 | 33.347 | 2 |
| 2025-06-20T12:41:00 | 53.924905 | 6.213496 | 2.0 | 16.309 | 2 | 42.402 | 16.371 | 33.346 | 2 |
| 2025-06-20T12:42:00 | 53.923050 | 6.210214 | 2.0 | 16.205 | 2 | 42.512 | 16.497 | 33.338 | 2 |
| 2025-06-20T12:43:00 | 53.921220 | 6.206912 | 2.0 | 16.167 | 2 | 42.428 | 16.385 | 33.357 | 2 |
| 2025-06-20T12:44:00 | 53.919336 | 6.203698 | 2.0 | 16.263 | 2 | 42.399 | 16.371 | 33.344 | 2 |
| 2025-06-20T12:45:00 | 53.917493 | 6.200458 | 2.0 | 16.786 | 2 | 42.501 | 16.520 | 33.309 | 2 |
| 2025-06-20T12:46:00 | 53.915668 | 6.197230 | 2.0 | 16.949 | 2 | 43.009 | 17.096 | 33.273 | 2 |
| 2025-06-20T12:47:00 | 53.913777 | 6.194099 | 2.0 | 16.961 | 2 | 43.051 | 17.092 | 33.313 | 2 |
| 2025-06-20T12:48:00 | 53.911940 | 6.190947 | 2.0 | 16.539 | 2 | 43.043 | 17.055 | 33.336 | 2 |
| 2025-06-20T12:49:00 | 53.910039 | 6.187913 | 2.0 | 16.283 | 2 | 42.736 | 16.667 | 33.392 | 2 |
| 2025-06-20T12:50:00 | 53.908144 | 6.184864 | 2.0 | 16.249 | 2 | 42.574 | 16.480 | 33.406 | 2 |
| 2025-06-20T12:51:00 | 53.906257 | 6.181788 | 2.0 | 16.053 | 2 | 42.516 | 16.390 | 33.431 | 2 |
| 2025-06-20T12:52:00 | 53.904334 | 6.178716 | 2.0 | 16.208 | 2 | 42.407 | 16.266 | 33.439 | 2 |
| 2025-06-20T12:53:00 | 53.902417 | 6.175610 | 2.0 | 16.284 | 2 | 42.518 | 16.407 | 33.418 | 2 |
| 2025-06-20T12:54:00 | 53.900518 | 6.172470 | 2.0 | 16.330 | 2 | 42.587 | 16.456 | 33.438 | 2 |
| 2025-06-20T12:55:00 | 53.898606 | 6.169357 | 2.0 | 16.317 | 2 | 42.623 | 16.515 | 33.420 | 2 |
| 2025-06-20T12:56:00 | 53.896708 | 6.166218 | 2.0 | 16.302 | 2 | 42.588 | 16.493 | 33.408 | 2 |
| 2025-06-20T12:57:00 | 53.894822 | 6.163060 | 2.0 | 16.264 | 2 | 42.570 | 16.496 | 33.389 | 2 |
| 2025-06-20T12:58:00 | 53.892910 | 6.159939 | 2.0 | 16.242 | 2 | 42.532 | 16.455 | 33.390 | 2 |
| 2025-06-20T12:59:00 | 53.891129 | 6.157127 | 2.0 | 16.472 | 2 | 42.521 | 16.459 | 33.377 | 2 |
| 2025-06-20T13:00:00 | 53.889671 | 6.155025 | 2.0 | 16.489 | 2 | 42.636 | 16.615 | 33.348 | 2 |
| 2025-06-20T13:01:00 | 53.888472 | 6.153347 | 2.0 | 16.781 | 2 | 42.738 | 16.747 | 33.327 | 2 |
| 2025-06-20T13:02:00 | 53.887515 | 6.152059 | 2.0 | 16.788 | 2 | 42.927 | 16.942 | 33.329 | 2 |
| 2025-06-20T13:03:00 | 53.886800 | 6.150974 | 2.0 | 16.579 | 2 | 42.912 | 16.897 | 33.354 | 2 |
| 2025-06-20T13:04:00 | 53.886449 | 6.149907 | 2.0 | 16.703 | 2 | 42.848 | 16.856 | 33.332 | 2 |
| 2025-06-20T13:05:00 | 53.886710 | 6.149391 | 2.0 | 16.322 | 2 | 42.876 | 16.844 | 33.366 | 2 |
| 2025-06-20T13:06:00 | 53.886976 | 6.149102 | 2.0 | 17.030 | 2 | 42.630 | 16.578 | 33.373 | 2 |
| 2025-06-20T13:07:00 | 53.887019 | 6.148920 | 2.0 | 16.634 | 2 | 43.090 | 17.137 | 33.309 | 2 |
| 2025-06-20T13:08:00 | 53.887011 | 6.148877 | 2.0 | 16.626 | 2 | 42.829 | 16.781 | 33.378 | 2 |
| 2025-06-20T13:09:00 | 53.886996 | 6.148874 | 2.0 | 16.693 | 2 | 42.803 | 16.781 | 33.355 | 2 |
| 2025-06-20T13:10:00 | 53.887009 | 6.148882 | 2.0 | 16.313 | 2 | 42.798 | 16.763 | 33.366 | 2 |
| 2025-06-20T13:11:00 | 53.887014 | 6.148924 | 2.0 | 16.588 | 2 | 42.626 | 16.577 | 33.371 | 2 |
| 2025-06-20T13:12:00 | 53.886983 | 6.149008 | 2.0 | 16.668 | 2 | 42.758 | 16.743 | 33.348 | 2 |
| 2025-06-20T13:13:00 | 53.886928 | 6.149045 | 2.0 | 16.429 | 2 | 42.791 | 16.759 | 33.363 | 2 |
| 2025-06-20T13:14:00 | 53.886881 | 6.149031 | 2.0 | 16.472 | 2 | 42.692 | 16.655 | 33.363 | 2 |
| 2025-06-20T13:15:00 | 53.886857 | 6.149044 | 2.0 | 16.425 | 2 | 42.734 | 16.711 | 33.353 | 2 |
| 2025-06-20T13:16:00 | 53.886856 | 6.149072 | 2.0 | 16.300 | 2 | 42.604 | 16.541 | 33.381 | 2 |
| 2025-06-20T13:17:00 | 53.886808 | 6.149128 | 2.0 | 16.823 | 2 | 42.614 | 16.587 | 33.352 | 2 |
| 2025-06-20T13:18:00 | 53.886746 | 6.149180 | 2.0 | 16.693 | 2 | 42.963 | 17.002 | 33.311 | 2 |
| 2025-06-20T13:19:00 | 53.886724 | 6.149212 | 2.0 | 16.327 | 2 | 42.788 | 16.734 | 33.381 | 2 |
| 2025-06-20T13:20:00 | 53.886711 | 6.149159 | 2.0 | 16.684 | 2 | 42.643 | 16.619 | 33.350 | 2 |
| 2025-06-20T13:21:00 | 53.886959 | 6.149097 | 2.0 | 16.742 | 2 | 42.806 | 16.804 | 33.339 | 2 |
| 2025-06-20T13:22:00 | 53.887665 | 6.150445 | 2.0 | 16.581 | 2 | 42.829 | 16.835 | 33.333 | 2 |
| 2025-06-20T13:23:00 | 53.889020 | 6.153466 | 2.0 | 16.703 | 2 | 42.804 | 16.804 | 33.337 | 2 |
| 2025-06-20T13:24:00 | 53.890871 | 6.156993 | 2.0 | 16.707 | 2 | 42.885 | 16.884 | 33.341 | 2 |
| 2025-06-20T13:25:00 | 53.892834 | 6.160691 | 2.0 | 16.598 | 2 | 42.878 | 16.862 | 33.353 | 2 |
| 2025-06-20T13:26:00 | 53.894839 | 6.164403 | 2.0 | 16.621 | 2 | 42.806 | 16.805 | 33.338 | 2 |
| 2025-06-20T13:27:00 | 53.896814 | 6.168223 | 2.0 | 16.296 | 2 | 42.756 | 16.713 | 33.371 | 2 |
| 2025-06-20T13:28:00 | 53.898814 | 6.171958 | 2.0 | 16.315 | 2 | 42.600 | 16.533 | 33.385 | 2 |
| 2025-06-20T13:29:00 | 53.900791 | 6.175685 | 2.0 | 16.292 | 2 | 42.558 | 16.478 | 33.394 | 2 |
| 2025-06-20T13:30:00 | 53.902777 | 6.179453 | 2.0 | 16.282 | 2 | 42.562 | 16.484 | 33.392 | 2 |
| 2025-06-20T13:31:00 | 53.904758 | 6.183228 | 2.0 | 16.306 | 2 | 42.573 | 16.469 | 33.414 | 2 |
| 2025-06-20T13:32:00 | 53.906742 | 6.187009 | 2.0 | 16.311 | 2 | 42.614 | 16.490 | 33.433 | 2 |
| 2025-06-20T13:33:00 | 53.908716 | 6.190737 | 2.0 | 16.188 | 2 | 42.607 | 16.473 | 33.441 | 2 |
| 2025-06-20T13:34:00 | 53.910701 | 6.194438 | 2.0 | 16.058 | 2 | 42.511 | 16.363 | 33.449 | 2 |
| 2025-06-20T13:35:00 | 53.912682 | 6.198134 | 2.0 | 15.951 | 2 | 42.371 | 16.205 | 33.458 | 2 |
| 2025-06-20T13:36:00 | 53.914663 | 6.201789 | 2.0 | 16.260 | 2 | 42.333 | 16.183 | 33.443 | 2 |
| 2025-06-20T13:37:00 | 53.916677 | 6.205504 | 2.0 | 16.557 | 2 | 42.543 | 16.453 | 33.402 | 2 |
| 2025-06-20T13:38:00 | 53.918688 | 6.209273 | 2.0 | 16.649 | 2 | 42.743 | 16.705 | 33.366 | 2 |
| 2025-06-20T13:39:00 | 53.920713 | 6.213040 | 2.0 | 16.731 | 2 | 42.830 | 16.805 | 33.359 | 2 |
| 2025-06-20T13:40:00 | 53.922725 | 6.216879 | 2.0 | 16.805 | 2 | 42.909 | 16.920 | 33.332 | 2 |
| 2025-06-20T13:41:00 | 53.924726 | 6.220677 | 2.0 | 16.809 | 2 | 42.929 | 16.965 | 33.312 | 2 |
| 2025-06-20T13:42:00 | 53.926759 | 6.224421 | 2.0 | 16.817 | 2 | 42.938 | 16.983 | 33.305 | 2 |
| 2025-06-20T13:43:00 | 53.928785 | 6.228225 | 2.0 | 16.677 | 2 | 42.940 | 16.976 | 33.312 | 2 |
| 2025-06-20T13:44:00 | 53.930779 | 6.232058 | 2.0 | 16.262 | 2 | 42.783 | 16.769 | 33.348 | 2 |
| 2025-06-20T13:45:00 | 53.932787 | 6.235816 | 2.0 | 16.303 | 2 | 42.504 | 16.473 | 33.351 | 2 |
| 2025-06-20T13:46:00 | 53.934776 | 6.239648 | 2.0 | 16.628 | 2 | 42.550 | 16.543 | 33.332 | 2 |
| 2025-06-20T13:47:00 | 53.936818 | 6.243406 | 2.0 | 16.488 | 2 | 42.815 | 16.833 | 33.322 | 2 |
| 2025-06-20T13:48:00 | 53.938816 | 6.247218 | 2.0 | 16.251 | 2 | 42.665 | 16.595 | 33.390 | 2 |
| 2025-06-20T13:49:00 | 53.940804 | 6.250924 | 2.0 | 16.230 | 2 | 42.505 | 16.433 | 33.385 | 2 |
| 2025-06-20T13:50:00 | 53.942782 | 6.254700 | 2.0 | 16.265 | 2 | 42.493 | 16.413 | 33.391 | 2 |
| 2025-06-20T13:51:00 | 53.944785 | 6.258463 | 2.0 | 16.302 | 2 | 42.539 | 16.440 | 33.409 | 2 |
| 2025-06-20T13:52:00 | 53.946777 | 6.262220 | 2.0 | 16.431 | 2 | 42.591 | 16.475 | 33.425 | 2 |
| 2025-06-20T13:53:00 | 53.948787 | 6.265958 | 2.0 | 16.564 | 2 | 42.707 | 16.603 | 33.420 | 2 |
| 2025-06-20T13:54:00 | 53.950780 | 6.269714 | 2.0 | 16.679 | 2 | 42.858 | 16.756 | 33.424 | 2 |
| 2025-06-20T13:55:00 | 53.952520 | 6.272989 | 2.0 | 16.440 | 2 | 42.950 | 16.831 | 33.442 | 2 |
| 2025-06-20T13:56:00 | 53.953911 | 6.275235 | 2.0 | 16.268 | 2 | 42.788 | 16.601 | 33.492 | 2 |
| 2025-06-20T13:57:00 | 53.955009 | 6.276967 | 2.0 | 16.200 | 2 | 42.607 | 16.427 | 33.479 | 2 |
| 2025-06-20T13:58:00 | 53.955842 | 6.278602 | 2.0 | 16.155 | 2 | 42.533 | 16.371 | 33.461 | 2 |
| 2025-06-20T13:59:00 | 53.956497 | 6.280155 | 2.0 | 16.183 | 2 | 42.478 | 16.336 | 33.442 | 2 |
| 2025-06-20T14:00:00 | 53.956965 | 6.281574 | 2.0 | 16.197 | 2 | 42.485 | 16.361 | 33.428 | 2 |
| 2025-06-20T14:01:00 | 53.956921 | 6.282623 | 2.0 | 16.247 | 2 | 42.486 | 16.367 | 33.423 | 2 |
| 2025-06-20T14:02:00 | 53.956769 | 6.283071 | 2.0 | 16.180 | 2 | 42.569 | 16.464 | 33.415 | 2 |
| 2025-06-20T14:03:00 | 53.956744 | 6.283132 | 2.0 | 16.115 | 2 | 42.501 | 16.335 | 33.464 | 2 |
| 2025-06-20T14:04:00 | 53.956767 | 6.283151 | 2.0 | 15.973 | 2 | 42.443 | 16.267 | 33.470 | 2 |
| 2025-06-20T14:05:00 | 53.956802 | 6.283146 | 2.0 | 15.923 | 2 | 42.342 | 16.155 | 33.475 | 2 |
| 2025-06-20T14:06:00 | 53.956838 | 6.283085 | 2.0 | 16.128 | 2 | 42.347 | 16.179 | 33.459 | 2 |
| 2025-06-20T14:07:00 | 53.956868 | 6.283048 | 2.0 | 16.134 | 2 | 42.454 | 16.291 | 33.459 | 2 |
| 2025-06-20T14:08:00 | 53.956920 | 6.283047 | 2.0 | 16.191 | 2 | 42.482 | 16.313 | 33.465 | 2 |
| 2025-06-20T14:09:00 | 53.956970 | 6.283099 | 2.0 | 16.068 | 2 | 42.534 | 16.366 | 33.467 | 2 |
| 2025-06-20T14:10:00 | 53.957001 | 6.283088 | 2.0 | 16.131 | 2 | 42.427 | 16.215 | 33.499 | 2 |
| 2025-06-20T14:11:00 | 53.956089 | 6.283319 | 2.0 | 16.376 | 2 | 42.559 | 16.398 | 33.462 | 2 |
| 2025-06-20T14:12:00 | 53.954020 | 6.283363 | 2.0 | 16.162 | 2 | 42.633 | 16.447 | 33.486 | 2 |
| 2025-06-20T14:13:00 | 53.951458 | 6.283242 | 2.0 | 16.276 | 2 | 42.560 | 16.392 | 33.468 | 2 |
| 2025-06-20T14:14:00 | 53.948728 | 6.283360 | 2.0 | 16.061 | 2 | 42.578 | 16.394 | 33.482 | 2 |
| 2025-06-20T14:15:00 | 53.945953 | 6.283423 | 2.0 | 16.020 | 2 | 42.430 | 16.231 | 33.488 | 2 |
| 2025-06-20T14:16:00 | 53.943167 | 6.283423 | 2.0 | 15.925 | 2 | 42.376 | 16.180 | 33.484 | 2 |
| 2025-06-20T14:17:00 | 53.940366 | 6.283415 | 2.0 | 15.904 | 2 | 42.315 | 16.112 | 33.487 | 2 |
| 2025-06-20T14:18:00 | 53.937565 | 6.283455 | 2.0 | 15.913 | 2 | 42.275 | 16.074 | 33.484 | 2 |
| 2025-06-20T14:19:00 | 53.934753 | 6.283429 | 2.0 | 15.866 | 2 | 42.297 | 16.101 | 33.480 | 2 |
| 2025-06-20T14:20:00 | 53.931923 | 6.283447 | 2.0 | 15.891 | 2 | 42.233 | 16.026 | 33.487 | 2 |
| 2025-06-20T14:21:00 | 53.929083 | 6.283424 | 2.0 | 16.203 | 2 | 42.312 | 16.146 | 33.456 | 2 |
| 2025-06-20T14:22:00 | 53.926240 | 6.283410 | 2.0 | 16.359 | 2 | 42.531 | 16.383 | 33.450 | 2 |
| 2025-06-20T14:23:00 | 53.923393 | 6.283424 | 2.0 | 16.501 | 2 | 42.675 | 16.565 | 33.424 | 2 |
| 2025-06-20T14:24:00 | 53.920549 | 6.283431 | 2.0 | 16.315 | 2 | 42.690 | 16.570 | 33.432 | 2 |
| 2025-06-20T14:25:00 | 53.917701 | 6.283423 | 2.0 | 16.324 | 2 | 42.619 | 16.525 | 33.408 | 2 |
| 2025-06-20T14:26:00 | 53.914840 | 6.283459 | 2.0 | 16.170 | 2 | 42.538 | 16.438 | 33.410 | 2 |
| 2025-06-20T14:27:00 | 53.911980 | 6.283454 | 2.0 | 16.143 | 2 | 42.443 | 16.341 | 33.407 | 2 |
| 2025-06-20T14:28:00 | 53.909125 | 6.283462 | 2.0 | 16.591 | 2 | 42.520 | 16.482 | 33.357 | 2 |
| 2025-06-20T14:29:00 | 53.906288 | 6.283490 | 2.0 | 16.263 | 2 | 42.708 | 16.681 | 33.356 | 2 |
| 2025-06-20T14:30:00 | 53.903455 | 6.283451 | 2.0 | 16.270 | 2 | 42.477 | 16.437 | 33.357 | 2 |
| 2025-06-20T14:31:00 | 53.900648 | 6.283466 | 2.0 | 16.658 | 2 | 42.584 | 16.599 | 33.316 | 2 |
| 2025-06-20T14:32:00 | 53.897857 | 6.283432 | 2.0 | 16.705 | 2 | 42.779 | 16.787 | 33.329 | 2 |
| 2025-06-20T14:33:00 | 53.895070 | 6.283413 | 2.0 | 16.460 | 2 | 42.819 | 16.817 | 33.339 | 2 |
| 2025-06-20T14:34:00 | 53.892285 | 6.283404 | 2.0 | 16.514 | 2 | 42.670 | 16.650 | 33.348 | 2 |
| 2025-06-20T14:35:00 | 53.889503 | 6.283398 | 2.0 | 16.318 | 2 | 42.665 | 16.658 | 33.337 | 2 |
| 2025-06-20T14:36:00 | 53.886720 | 6.283356 | 2.0 | 16.290 | 2 | 42.529 | 16.498 | 33.352 | 2 |
| 2025-06-20T14:37:00 | 53.883956 | 6.283379 | 2.0 | 16.367 | 2 | 42.480 | 16.476 | 33.327 | 2 |
| 2025-06-20T14:38:00 | 53.881193 | 6.283294 | 2.0 | 16.388 | 2 | 42.494 | 16.529 | 33.295 | 2 |
| 2025-06-20T14:39:00 | 53.878431 | 6.283238 | 2.0 | 16.040 | 2 | 42.487 | 16.504 | 33.310 | 2 |
| 2025-06-20T14:40:00 | 53.875662 | 6.283124 | 2.0 | 16.008 | 2 | 42.268 | 16.227 | 33.349 | 2 |
| 2025-06-20T14:41:00 | 53.872896 | 6.282996 | 2.0 | 16.143 | 2 | 42.272 | 16.236 | 33.345 | 2 |
| 2025-06-20T14:42:00 | 53.870134 | 6.282915 | 2.0 | 16.190 | 2 | 42.372 | 16.314 | 33.368 | 2 |
| 2025-06-20T14:43:00 | 53.867362 | 6.282873 | 2.0 | 16.357 | 2 | 42.435 | 16.394 | 33.356 | 2 |
| 2025-06-20T14:44:00 | 53.864582 | 6.282847 | 2.0 | 16.429 | 2 | 42.564 | 16.533 | 33.353 | 2 |
| 2025-06-20T14:45:00 | 53.861842 | 6.282644 | 2.0 | 16.563 | 2 | 42.631 | 16.604 | 33.352 | 2 |
| 2025-06-20T14:46:00 | 53.859479 | 6.282574 | 2.0 | 17.791 | 2 | 43.107 | 17.182 | 33.287 | 2 |
| 2025-06-20T14:47:00 | 53.857653 | 6.282237 | 2.0 | 17.497 | 2 | 43.635 | 17.735 | 33.286 | 2 |
| 2025-06-20T14:48:00 | 53.856194 | 6.281670 | 2.0 | 17.284 | 2 | 43.528 | 17.616 | 33.292 | 2 |
| 2025-06-20T14:49:00 | 53.855095 | 6.281094 | 2.0 | 17.143 | 2 | 43.334 | 17.423 | 33.284 | 2 |
| 2025-06-20T14:50:00 | 53.854519 | 6.280239 | 2.0 | 17.077 | 2 | 43.209 | 17.300 | 33.277 | 2 |
| 2025-06-20T14:51:00 | 53.854252 | 6.279541 | 2.0 | 17.024 | 2 | 43.149 | 17.243 | 33.273 | 2 |
| 2025-06-20T14:52:00 | 53.854318 | 6.279098 | 2.0 | 17.047 | 2 | 43.114 | 17.194 | 33.283 | 2 |
| 2025-06-20T14:53:00 | 53.854348 | 6.278824 | 2.0 | 17.111 | 2 | 43.148 | 17.238 | 33.276 | 2 |
| 2025-06-20T14:54:00 | 53.854396 | 6.278778 | 2.0 | 17.038 | 2 | 43.160 | 17.249 | 33.277 | 2 |
| 2025-06-20T14:55:00 | 53.854472 | 6.278810 | 2.0 | 17.012 | 2 | 43.133 | 17.203 | 33.292 | 2 |
| 2025-06-20T14:56:00 | 53.854491 | 6.278887 | 2.0 | 16.998 | 2 | 43.107 | 17.175 | 33.292 | 2 |
| 2025-06-20T14:57:00 | 53.854493 | 6.278946 | 2.0 | 16.970 | 2 | 43.081 | 17.158 | 33.284 | 2 |
| 2025-06-20T14:58:00 | 53.854503 | 6.278989 | 2.0 | 16.950 | 2 | 43.048 | 17.136 | 33.274 | 2 |
| 2025-06-20T14:59:00 | 53.854514 | 6.279013 | 2.0 | 16.986 | 2 | 43.041 | 17.115 | 33.285 | 2 |
| 2025-06-20T15:00:00 | 53.854525 | 6.278969 | 2.0 | 16.946 | 2 | 43.064 | 17.176 | 33.255 | 2 |
| 2025-06-20T15:01:00 | 53.854542 | 6.278868 | 2.0 | 17.382 | 2 | 43.101 | 17.253 | 33.223 | 2 |
| 2025-06-20T15:02:00 | 53.854575 | 6.278721 | 2.0 | 17.258 | 2 | 43.322 | 17.469 | 33.236 | 2 |
| 2025-06-20T15:03:00 | 53.854604 | 6.278546 | 2.0 | 17.254 | 2 | 43.303 | 17.445 | 33.239 | 2 |
| 2025-06-20T15:04:00 | 53.854865 | 6.278562 | 2.0 | 16.949 | 2 | 43.245 | 17.361 | 33.258 | 2 |
| 2025-06-20T15:05:00 | 53.855745 | 6.278827 | 2.0 | 17.112 | 2 | 43.068 | 17.177 | 33.257 | 2 |
| 2025-06-20T15:06:00 | 53.857139 | 6.278959 | 2.0 | 17.120 | 2 | 43.171 | 17.298 | 33.246 | 2 |
| 2025-06-20T15:07:00 | 53.858807 | 6.278903 | 2.0 | 17.300 | 2 | 43.214 | 17.332 | 33.255 | 2 |
| 2025-06-20T15:08:00 | 53.860615 | 6.278880 | 2.0 | 17.613 | 2 | 43.403 | 17.530 | 33.255 | 2 |
| 2025-06-20T15:09:00 | 53.862475 | 6.278901 | 2.0 | 17.819 | 2 | 43.671 | 17.804 | 33.260 | 2 |
| 2025-06-20T15:10:00 | 53.864330 | 6.278875 | 2.0 | 17.865 | 2 | 43.875 | 17.983 | 33.287 | 2 |
| 2025-06-20T15:11:00 | 53.866188 | 6.278846 | 2.0 | 17.815 | 2 | 43.945 | 17.990 | 33.341 | 2 |
| 2025-06-20T15:12:00 | 53.868067 | 6.278784 | 2.0 | 16.243 | 2 | 43.839 | 17.808 | 33.400 | 2 |
| 2025-06-20T15:13:00 | 53.869934 | 6.278726 | 2.0 | 16.045 | 2 | 42.761 | 16.530 | 33.528 | 2 |
| 2025-06-20T15:14:00 | 53.871804 | 6.278807 | 2.0 | 16.094 | 2 | 42.419 | 16.281 | 33.437 | 2 |
| 2025-06-20T15:15:00 | 53.873677 | 6.278856 | 2.0 | 16.017 | 2 | 42.419 | 16.289 | 33.430 | 2 |
| 2025-06-20T15:16:00 | 53.875545 | 6.278848 | 2.0 | 16.127 | 2 | 42.362 | 16.235 | 33.425 | 2 |
| 2025-06-20T15:17:00 | 53.877404 | 6.278820 | 2.0 | 16.054 | 2 | 42.452 | 16.333 | 33.422 | 2 |
| 2025-06-20T15:18:00 | 53.879270 | 6.278809 | 2.0 | 15.968 | 2 | 42.340 | 16.196 | 33.438 | 2 |
| 2025-06-20T15:19:00 | 53.881143 | 6.278784 | 2.0 | 16.096 | 2 | 42.320 | 16.196 | 33.421 | 2 |
| 2025-06-20T15:20:00 | 53.883052 | 6.278768 | 2.0 | 16.151 | 2 | 42.452 | 16.342 | 33.415 | 2 |
| 2025-06-20T15:21:00 | 53.884950 | 6.278785 | 2.0 | 16.331 | 2 | 42.510 | 16.399 | 33.418 | 2 |
| 2025-06-20T15:22:00 | 53.886848 | 6.278737 | 2.0 | 16.159 | 2 | 42.607 | 16.504 | 33.415 | 2 |
| 2025-06-20T15:23:00 | 53.888721 | 6.278760 | 2.0 | 16.287 | 2 | 42.582 | 16.488 | 33.406 | 2 |
| 2025-06-20T15:24:00 | 53.890594 | 6.278735 | 2.0 | 16.480 | 2 | 42.588 | 16.475 | 33.423 | 2 |
| 2025-06-20T15:25:00 | 53.892468 | 6.278751 | 2.0 | 16.503 | 2 | 42.708 | 16.630 | 33.398 | 2 |
| 2025-06-20T15:26:00 | 53.894364 | 6.278785 | 2.0 | 16.585 | 2 | 42.780 | 16.701 | 33.402 | 2 |
| 2025-06-20T15:27:00 | 53.896282 | 6.278770 | 2.0 | 16.480 | 2 | 42.833 | 16.757 | 33.401 | 2 |
| 2025-06-20T15:28:00 | 53.898239 | 6.278746 | 2.0 | 16.613 | 2 | 42.783 | 16.706 | 33.400 | 2 |
| 2025-06-20T15:29:00 | 53.900197 | 6.278762 | 2.0 | 16.575 | 2 | 42.863 | 16.804 | 33.388 | 2 |
| 2025-06-20T15:30:00 | 53.902150 | 6.278751 | 2.0 | 16.721 | 2 | 42.882 | 16.825 | 33.387 | 2 |
| 2025-06-20T15:31:00 | 53.904119 | 6.278767 | 2.0 | 16.513 | 2 | 42.948 | 16.903 | 33.380 | 2 |
| 2025-06-20T15:32:00 | 53.906076 | 6.278760 | 2.0 | 16.340 | 2 | 42.787 | 16.704 | 33.405 | 2 |
| 2025-06-20T15:33:00 | 53.907987 | 6.278747 | 2.0 | 16.483 | 2 | 42.601 | 16.529 | 33.389 | 2 |
| 2025-06-20T15:34:00 | 53.909896 | 6.278717 | 2.0 | 16.345 | 2 | 42.706 | 16.673 | 33.360 | 2 |
| 2025-06-20T15:35:00 | 53.911764 | 6.278701 | 2.0 | 16.608 | 2 | 42.638 | 16.592 | 33.369 | 2 |
| 2025-06-20T15:36:00 | 53.913370 | 6.278751 | 2.0 | 16.251 | 2 | 42.801 | 16.750 | 33.379 | 2 |
| 2025-06-20T15:37:00 | 53.914766 | 6.278845 | 2.0 | 16.373 | 2 | 42.536 | 16.456 | 33.393 | 2 |
| 2025-06-20T15:38:00 | 53.915903 | 6.278966 | 2.0 | 16.517 | 2 | 42.677 | 16.619 | 33.380 | 2 |
| 2025-06-20T15:39:00 | 53.916781 | 6.279048 | 2.0 | 16.801 | 2 | 42.876 | 16.836 | 33.373 | 2 |
| 2025-06-20T15:40:00 | 53.917509 | 6.279156 | 2.0 | 16.460 | 2 | 42.940 | 16.862 | 33.407 | 2 |
| 2025-06-20T15:41:00 | 53.918141 | 6.279363 | 2.0 | 16.407 | 2 | 42.761 | 16.682 | 33.401 | 2 |
| 2025-06-20T15:42:00 | 53.918672 | 6.279761 | 2.0 | 16.755 | 2 | 42.730 | 16.669 | 33.385 | 2 |
| 2025-06-20T15:43:00 | 53.919059 | 6.280345 | 2.0 | 16.616 | 2 | 43.012 | 16.974 | 33.377 | 2 |
| 2025-06-20T15:44:00 | 53.919344 | 6.281000 | 2.0 | 16.808 | 2 | 42.891 | 16.831 | 33.390 | 2 |
| 2025-06-20T15:45:00 | 53.919562 | 6.281660 | 2.0 | 16.344 | 2 | 42.957 | 16.903 | 33.388 | 2 |
| 2025-06-20T15:46:00 | 53.919714 | 6.282272 | 2.0 | 16.751 | 2 | 42.638 | 16.545 | 33.408 | 2 |
| 2025-06-20T15:47:00 | 53.919813 | 6.282825 | 2.0 | 16.095 | 2 | 42.935 | 16.898 | 33.373 | 2 |
| 2025-06-20T15:48:00 | 53.919871 | 6.283311 | 2.0 | 16.394 | 2 | 42.489 | 16.381 | 33.414 | 2 |
| 2025-06-20T15:49:00 | 53.919917 | 6.283771 | 2.0 | 16.431 | 2 | 42.621 | 16.559 | 33.381 | 2 |
| 2025-06-20T15:50:00 | 53.919927 | 6.284179 | 2.0 | 16.395 | 2 | 42.671 | 16.598 | 33.392 | 2 |
| 2025-06-20T15:51:00 | 53.919921 | 6.284552 | 2.0 | 16.145 | 2 | 42.633 | 16.545 | 33.403 | 2 |
| 2025-06-20T15:52:00 | 53.919906 | 6.284916 | 2.0 | 16.145 | 2 | 42.408 | 16.291 | 33.419 | 2 |
| 2025-06-20T15:53:00 | 53.919865 | 6.285279 | 2.0 | 16.368 | 2 | 42.441 | 16.359 | 33.391 | 2 |
| 2025-06-20T15:54:00 | 53.919822 | 6.285626 | 2.0 | 16.380 | 2 | 42.610 | 16.538 | 33.389 | 2 |
| 2025-06-20T15:55:00 | 53.919765 | 6.285957 | 2.0 | 16.476 | 2 | 42.623 | 16.539 | 33.400 | 2 |
| 2025-06-20T15:56:00 | 53.919686 | 6.286288 | 2.0 | 16.728 | 2 | 42.726 | 16.664 | 33.385 | 2 |
| 2025-06-20T15:57:00 | 53.919599 | 6.286621 | 2.0 | 16.788 | 2 | 42.947 | 16.904 | 33.378 | 2 |
| 2025-06-20T15:58:00 | 53.919503 | 6.286966 | 2.0 | 16.817 | 2 | 43.005 | 16.952 | 33.389 | 2 |
| 2025-06-20T15:59:00 | 53.919400 | 6.287306 | 2.0 | 16.668 | 2 | 42.983 | 16.921 | 33.395 | 2 |
| 2025-06-20T16:00:00 | 53.919305 | 6.287652 | 2.0 | 16.806 | 2 | 42.909 | 16.842 | 33.397 | 2 |
| 2025-06-20T16:01:00 | 53.919218 | 6.288016 | 2.0 | 16.772 | 2 | 43.016 | 16.962 | 33.390 | 2 |
| 2025-06-20T16:02:00 | 53.919136 | 6.288394 | 2.0 | 16.804 | 2 | 43.000 | 16.939 | 33.395 | 2 |
| 2025-06-20T16:03:00 | 53.919055 | 6.288776 | 2.0 | 16.760 | 2 | 42.996 | 16.934 | 33.396 | 2 |
| 2025-06-20T16:04:00 | 53.918963 | 6.289168 | 2.0 | 17.055 | 2 | 43.034 | 16.984 | 33.387 | 2 |
| 2025-06-20T16:05:00 | 53.918879 | 6.289568 | 2.0 | 17.188 | 2 | 43.225 | 17.185 | 33.386 | 2 |
| 2025-06-20T16:06:00 | 53.918796 | 6.289975 | 2.0 | 17.280 | 2 | 43.394 | 17.370 | 33.379 | 2 |
| 2025-06-20T16:07:00 | 53.918707 | 6.290389 | 2.0 | 17.299 | 2 | 43.489 | 17.462 | 33.385 | 2 |
| 2025-06-20T16:08:00 | 53.918638 | 6.290786 | 2.0 | 17.104 | 2 | 43.469 | 17.424 | 33.399 | 2 |
| 2025-06-20T16:09:00 | 53.918571 | 6.291155 | 2.0 | 17.017 | 2 | 43.296 | 17.238 | 33.404 | 2 |
| 2025-06-20T16:10:00 | 53.918509 | 6.291500 | 2.0 | 17.072 | 2 | 43.240 | 17.188 | 33.397 | 2 |
| 2025-06-20T16:11:00 | 53.918454 | 6.291840 | 2.0 | 17.097 | 2 | 43.273 | 17.234 | 33.387 | 2 |
| 2025-06-20T16:12:00 | 53.918400 | 6.292146 | 2.0 | 17.136 | 2 | 43.262 | 17.262 | 33.354 | 2 |
| 2025-06-20T16:13:00 | 53.918342 | 6.292437 | 2.0 | 17.179 | 2 | 43.310 | 17.307 | 33.359 | 2 |
| 2025-06-20T16:14:00 | 53.918284 | 6.292729 | 2.0 | 17.174 | 2 | 43.367 | 17.341 | 33.380 | 2 |
| 2025-06-20T16:15:00 | 53.918222 | 6.293034 | 2.0 | 17.166 | 2 | 43.353 | 17.323 | 33.382 | 2 |
| 2025-06-20T16:16:00 | 53.918142 | 6.293343 | 2.0 | 17.165 | 2 | 43.378 | 17.344 | 33.387 | 2 |
| 2025-06-20T16:17:00 | 53.918069 | 6.293652 | 2.0 | 17.137 | 2 | 43.355 | 17.331 | 33.378 | 2 |
| 2025-06-20T16:18:00 | 53.918002 | 6.293964 | 2.0 | 17.017 | 2 | 43.338 | 17.294 | 33.393 | 2 |
| 2025-06-20T16:19:00 | 53.917939 | 6.294267 | 2.0 | 16.938 | 2 | 43.227 | 17.171 | 33.399 | 2 |
| 2025-06-20T16:20:00 | 53.917890 | 6.294557 | 2.0 | 17.010 | 2 | 43.186 | 17.128 | 33.400 | 2 |
| 2025-06-20T16:21:00 | 53.917836 | 6.294831 | 2.0 | 17.056 | 2 | 43.226 | 17.181 | 33.390 | 2 |
| 2025-06-20T16:22:00 | 53.917773 | 6.295090 | 2.0 | 17.086 | 2 | 43.284 | 17.236 | 33.395 | 2 |
| 2025-06-20T16:23:00 | 53.917719 | 6.295339 | 2.0 | 17.056 | 2 | 43.303 | 17.250 | 33.400 | 2 |
| 2025-06-20T16:24:00 | 53.917664 | 6.295576 | 2.0 | 17.022 | 2 | 43.275 | 17.219 | 33.401 | 2 |
| 2025-06-20T16:25:00 | 53.917620 | 6.295794 | 2.0 | 16.939 | 2 | 43.235 | 17.171 | 33.406 | 2 |
| 2025-06-20T16:26:00 | 53.917579 | 6.295991 | 2.0 | 16.919 | 2 | 43.206 | 17.140 | 33.407 | 2 |
| 2025-06-20T16:27:00 | 53.917553 | 6.296183 | 2.0 | 16.882 | 2 | 43.132 | 17.052 | 33.416 | 2 |
| 2025-06-20T16:28:00 | 53.917520 | 6.296366 | 2.0 | 16.912 | 2 | 43.134 | 17.065 | 33.407 | 2 |
| 2025-06-20T16:29:00 | 53.917488 | 6.296537 | 2.0 | 16.658 | 2 | 43.102 | 17.014 | 33.421 | 2 |
| 2025-06-20T16:30:00 | 53.917457 | 6.296709 | 2.0 | 16.623 | 2 | 42.941 | 16.847 | 33.420 | 2 |
| 2025-06-20T16:31:00 | 53.917430 | 6.296867 | 2.0 | 16.567 | 2 | 42.890 | 16.794 | 33.420 | 2 |
| 2025-06-20T16:32:00 | 53.917399 | 6.297030 | 2.0 | 16.720 | 2 | 42.869 | 16.783 | 33.411 | 2 |
| 2025-06-20T16:33:00 | 53.917343 | 6.297196 | 2.0 | 16.488 | 2 | 42.947 | 16.860 | 33.415 | 2 |
| 2025-06-20T16:34:00 | 53.917300 | 6.297357 | 2.0 | 16.400 | 2 | 42.770 | 16.659 | 33.428 | 2 |
| 2025-06-20T16:35:00 | 53.917262 | 6.297513 | 2.0 | 16.560 | 2 | 42.718 | 16.617 | 33.418 | 2 |
| 2025-06-20T16:36:00 | 53.917230 | 6.297663 | 2.0 | 16.556 | 2 | 42.807 | 16.711 | 33.417 | 2 |
| 2025-06-20T16:37:00 | 53.917198 | 6.297813 | 2.0 | 16.575 | 2 | 42.838 | 16.743 | 33.417 | 2 |
| 2025-06-20T16:38:00 | 53.917166 | 6.297962 | 2.0 | 16.480 | 2 | 42.841 | 16.736 | 33.426 | 2 |
| 2025-06-20T16:39:00 | 53.917125 | 6.298101 | 2.0 | 16.467 | 2 | 42.770 | 16.664 | 33.424 | 2 |
| 2025-06-20T16:40:00 | 53.917079 | 6.298233 | 2.0 | 16.517 | 2 | 42.747 | 16.642 | 33.422 | 2 |
| 2025-06-20T16:41:00 | 53.917029 | 6.298380 | 2.0 | 16.535 | 2 | 42.805 | 16.713 | 33.414 | 2 |
| 2025-06-20T16:42:00 | 53.916984 | 6.298507 | 2.0 | 16.718 | 2 | 42.827 | 16.727 | 33.421 | 2 |
| 2025-06-20T16:43:00 | 53.916928 | 6.298616 | 2.0 | 16.716 | 2 | 42.962 | 16.884 | 33.408 | 2 |
| 2025-06-20T16:44:00 | 53.916876 | 6.298720 | 2.0 | 16.649 | 2 | 42.963 | 16.866 | 33.424 | 2 |
| 2025-06-20T16:45:00 | 53.916838 | 6.298814 | 2.0 | 16.527 | 2 | 42.841 | 16.809 | 33.365 | 2 |
| 2025-06-20T16:46:00 | 53.916813 | 6.298885 | 2.0 | 16.522 | 2 | 42.649 | 16.705 | 33.284 | 2 |
| 2025-06-20T16:47:00 | 53.916798 | 6.298939 | 2.0 | 16.563 | 2 | 42.621 | 16.686 | 33.275 | 2 |
| 2025-06-20T16:48:00 | 53.916785 | 6.298978 | 2.0 | 16.821 | 2 | 42.692 | 16.767 | 33.270 | 2 |
| 2025-06-20T16:49:00 | 53.916756 | 6.299016 | 2.0 | 16.684 | 2 | 43.019 | 16.980 | 33.378 | 2 |
| 2025-06-20T16:50:00 | 53.916742 | 6.299059 | 2.0 | 16.662 | 2 | 42.873 | 16.828 | 33.377 | 2 |
| 2025-06-20T16:51:00 | 53.916738 | 6.299096 | 2.0 | 16.747 | 2 | 42.947 | 16.863 | 33.412 | 2 |
| 2025-06-20T16:52:00 | 53.916733 | 6.299120 | 2.0 | 16.890 | 2 | 42.936 | 16.923 | 33.353 | 2 |
| 2025-06-20T16:53:00 | 53.916707 | 6.299154 | 2.0 | 16.785 | 2 | 43.089 | 17.026 | 33.400 | 2 |
| 2025-06-20T16:54:00 | 53.916683 | 6.299190 | 2.0 | 16.697 | 2 | 43.002 | 16.932 | 33.403 | 2 |
| 2025-06-20T16:55:00 | 53.916670 | 6.299220 | 2.0 | 16.651 | 2 | 42.774 | 16.863 | 33.262 | 2 |
| 2025-06-20T16:56:00 | 53.916666 | 6.299240 | 2.0 | 16.801 | 2 | 42.717 | 16.874 | 33.203 | 2 |
| 2025-06-20T16:57:00 | 53.916658 | 6.299257 | 2.0 | 16.753 | 2 | 42.936 | 16.937 | 33.341 | 2 |
| 2025-06-20T16:58:00 | 53.916646 | 6.299264 | 2.0 | 16.574 | 2 | 42.687 | 16.866 | 33.184 | 2 |
| 2025-06-20T16:59:00 | 53.916638 | 6.299264 | 2.0 | 16.633 | 2 | 42.838 | 16.774 | 33.391 | 2 |
| 2025-06-20T17:00:00 | 53.916629 | 6.299260 | 2.0 | 16.599 | 2 | 42.759 | 16.801 | 33.300 | 2 |
| 2025-06-20T17:01:00 | 53.916607 | 6.299253 | 2.0 | 16.565 | 2 | 42.788 | 16.756 | 33.363 | 2 |
| 2025-06-20T17:02:00 | 53.916586 | 6.299250 | 2.0 | 16.505 | 2 | 42.785 | 16.741 | 33.373 | 2 |
| 2025-06-20T17:03:00 | 53.916572 | 6.299241 | 2.0 | 16.546 | 2 | 42.719 | 16.686 | 33.361 | 2 |
| 2025-06-20T17:04:00 | 53.916557 | 6.299220 | 2.0 | 16.600 | 2 | 42.758 | 16.732 | 33.357 | 2 |
| 2025-06-20T17:05:00 | 53.916544 | 6.299190 | 2.0 | 16.573 | 2 | 42.703 | 16.771 | 33.276 | 2 |
| 2025-06-20T17:06:00 | 53.916535 | 6.299148 | 2.0 | 16.550 | 2 | 42.730 | 16.730 | 33.334 | 2 |
| 2025-06-20T17:07:00 | 53.916519 | 6.299094 | 2.0 | 16.566 | 2 | 42.717 | 16.731 | 33.322 | 2 |
| 2025-06-20T17:08:00 | 53.916506 | 6.299035 | 2.0 | 16.592 | 2 | 42.772 | 16.732 | 33.369 | 2 |
| 2025-06-20T17:09:00 | 53.916493 | 6.298965 | 2.0 | 16.594 | 2 | 42.820 | 16.764 | 33.384 | 2 |
| 2025-06-20T17:10:00 | 53.916480 | 6.298890 | 2.0 | 16.546 | 2 | 42.810 | 16.757 | 33.381 | 2 |
| 2025-06-20T17:11:00 | 53.916474 | 6.298808 | 2.0 | 16.623 | 2 | 42.814 | 16.733 | 33.405 | 2 |
| 2025-06-20T17:12:00 | 53.916474 | 6.298717 | 2.0 | 16.639 | 2 | 42.856 | 16.792 | 33.392 | 2 |
| 2025-06-20T17:13:00 | 53.916480 | 6.298620 | 2.0 | 16.619 | 2 | 42.890 | 16.807 | 33.409 | 2 |
| 2025-06-20T17:14:00 | 53.916492 | 6.298513 | 2.0 | 16.612 | 2 | 42.882 | 16.787 | 33.419 | 2 |
| 2025-06-20T17:15:00 | 53.916510 | 6.298385 | 2.0 | 16.584 | 2 | 42.826 | 16.765 | 33.389 | 2 |
| 2025-06-20T17:16:00 | 53.916513 | 6.298252 | 2.0 | 16.627 | 2 | 42.861 | 16.765 | 33.419 | 2 |
| 2025-06-20T17:17:00 | 53.916527 | 6.298097 | 2.0 | 16.635 | 2 | 42.878 | 16.793 | 33.411 | 2 |
| 2025-06-20T17:18:00 | 53.916540 | 6.297936 | 2.0 | 16.583 | 2 | 42.889 | 16.791 | 33.422 | 2 |
| 2025-06-20T17:19:00 | 53.916542 | 6.297771 | 2.0 | 16.551 | 2 | 42.853 | 16.743 | 33.430 | 2 |
| 2025-06-20T17:20:00 | 53.916540 | 6.297596 | 2.0 | 16.512 | 2 | 42.818 | 16.710 | 33.427 | 2 |
| 2025-06-20T17:21:00 | 53.916524 | 6.297426 | 2.0 | 16.541 | 2 | 42.796 | 16.683 | 33.431 | 2 |
| 2025-06-20T17:22:00 | 53.916495 | 6.297253 | 2.0 | 16.589 | 2 | 42.819 | 16.720 | 33.420 | 2 |
| 2025-06-20T17:23:00 | 53.916450 | 6.297069 | 2.0 | 16.444 | 2 | 42.843 | 16.726 | 33.436 | 2 |
| 2025-06-20T17:24:00 | 53.916401 | 6.296895 | 2.0 | 16.348 | 2 | 42.703 | 16.576 | 33.439 | 2 |
| 2025-06-20T17:25:00 | 53.916357 | 6.296726 | 2.0 | 16.358 | 2 | 42.684 | 16.560 | 33.436 | 2 |
| 2025-06-20T17:26:00 | 53.916319 | 6.296571 | 2.0 | 16.501 | 2 | 42.719 | 16.603 | 33.430 | 2 |
| 2025-06-20T17:27:00 | 53.916289 | 6.296409 | 2.0 | 16.357 | 2 | 42.774 | 16.654 | 33.436 | 2 |
| 2025-06-20T17:28:00 | 53.916258 | 6.296241 | 2.0 | 16.442 | 2 | 42.668 | 16.535 | 33.442 | 2 |
| 2025-06-20T17:29:00 | 53.916223 | 6.296065 | 2.0 | 16.441 | 2 | 42.709 | 16.590 | 33.432 | 2 |
| 2025-06-20T17:30:00 | 53.916195 | 6.295888 | 2.0 | 16.492 | 2 | 42.748 | 16.630 | 33.433 | 2 |
| 2025-06-20T17:31:00 | 53.916170 | 6.295708 | 2.0 | 16.436 | 2 | 42.765 | 16.639 | 33.440 | 2 |
| 2025-06-20T17:32:00 | 53.916150 | 6.295517 | 2.0 | 16.433 | 2 | 42.733 | 16.607 | 33.439 | 2 |
| 2025-06-20T17:33:00 | 53.916136 | 6.295320 | 2.0 | 16.466 | 2 | 42.731 | 16.605 | 33.439 | 2 |
| 2025-06-20T17:34:00 | 53.916127 | 6.295115 | 2.0 | 16.447 | 2 | 42.745 | 16.619 | 33.440 | 2 |
| 2025-06-20T17:35:00 | 53.916127 | 6.294894 | 2.0 | 16.513 | 2 | 42.757 | 16.632 | 33.439 | 2 |
| 2025-06-20T17:36:00 | 53.916120 | 6.294659 | 2.0 | 16.490 | 2 | 42.815 | 16.696 | 33.436 | 2 |
| 2025-06-20T17:37:00 | 53.916114 | 6.294423 | 2.0 | 16.535 | 2 | 42.794 | 16.666 | 33.443 | 2 |
| 2025-06-20T17:38:00 | 53.916106 | 6.294183 | 2.0 | 16.501 | 2 | 42.810 | 16.683 | 33.443 | 2 |
| 2025-06-20T17:39:00 | 53.916109 | 6.293942 | 2.0 | 16.466 | 2 | 42.765 | 16.659 | 33.424 | 2 |
| 2025-06-20T17:40:00 | 53.916109 | 6.293687 | 2.0 | 16.413 | 2 | 42.740 | 16.631 | 33.425 | 2 |
| 2025-06-20T17:41:00 | 53.916109 | 6.293430 | 2.0 | 16.425 | 2 | 42.676 | 16.578 | 33.414 | 2 |
| 2025-06-20T17:42:00 | 53.916113 | 6.293170 | 2.0 | 16.454 | 2 | 42.707 | 16.600 | 33.422 | 2 |
| 2025-06-20T17:43:00 | 53.916130 | 6.292922 | 2.0 | 16.495 | 2 | 42.737 | 16.622 | 33.430 | 2 |
| 2025-06-20T17:44:00 | 53.916151 | 6.292662 | 2.0 | 16.471 | 2 | 42.766 | 16.648 | 33.434 | 2 |
| 2025-06-20T17:45:00 | 53.916169 | 6.292390 | 2.0 | 16.577 | 2 | 42.786 | 16.666 | 33.436 | 2 |
| 2025-06-20T17:46:00 | 53.916150 | 6.292110 | 2.0 | 16.672 | 2 | 42.858 | 16.742 | 33.436 | 2 |
| 2025-06-20T17:47:00 | 53.916118 | 6.291832 | 2.0 | 16.881 | 2 | 42.951 | 16.845 | 33.431 | 2 |
| 2025-06-20T17:48:00 | 53.916070 | 6.291559 | 2.0 | 16.995 | 2 | 43.160 | 17.054 | 33.438 | 2 |
| 2025-06-20T17:49:00 | 53.916034 | 6.291291 | 2.0 | 17.165 | 2 | 43.302 | 17.200 | 33.440 | 2 |
| 2025-06-20T17:50:00 | 53.916001 | 6.291035 | 2.0 | 17.121 | 2 | 43.422 | 17.316 | 33.448 | 2 |
| 2025-06-20T17:51:00 | 53.915981 | 6.290774 | 2.0 | 17.222 | 2 | 43.406 | 17.285 | 33.459 | 2 |
| 2025-06-20T17:52:00 | 53.915948 | 6.290532 | 2.0 | 17.357 | 2 | 43.459 | 17.360 | 33.443 | 2 |
| 2025-06-20T17:53:00 | 53.915903 | 6.290307 | 2.0 | 17.388 | 2 | 43.601 | 17.510 | 33.441 | 2 |
| 2025-06-20T17:54:00 | 53.915858 | 6.290073 | 2.0 | 17.435 | 2 | 43.662 | 17.565 | 33.448 | 2 |
| 2025-06-20T17:55:00 | 53.915809 | 6.289842 | 2.0 | 17.704 | 2 | 43.710 | 17.618 | 33.446 | 2 |
| 2025-06-20T17:56:00 | 53.915752 | 6.289602 | 2.0 | 17.746 | 2 | 43.931 | 17.859 | 33.436 | 2 |
| 2025-06-20T17:57:00 | 53.915694 | 6.289360 | 2.0 | 17.693 | 2 | 43.967 | 17.884 | 33.446 | 2 |
| 2025-06-20T17:58:00 | 53.915651 | 6.289119 | 2.0 | 17.802 | 2 | 43.948 | 17.867 | 33.444 | 2 |
| 2025-06-20T17:59:00 | 53.915609 | 6.288853 | 2.0 | 17.787 | 2 | 44.018 | 17.949 | 33.436 | 2 |
| 2025-06-20T18:00:00 | 53.915571 | 6.288581 | 2.0 | 17.803 | 2 | 44.022 | 17.944 | 33.444 | 2 |
| 2025-06-20T18:01:00 | 53.915537 | 6.288299 | 2.0 | 17.822 | 2 | 44.034 | 17.961 | 33.440 | 2 |
| 2025-06-20T18:02:00 | 53.915510 | 6.288000 | 2.0 | 17.823 | 2 | 44.048 | 17.979 | 33.437 | 2 |
| 2025-06-20T18:03:00 | 53.915482 | 6.287694 | 2.0 | 17.816 | 2 | 44.040 | 17.976 | 33.433 | 2 |
| 2025-06-20T18:04:00 | 53.915446 | 6.287398 | 2.0 | 17.859 | 2 | 44.039 | 17.982 | 33.427 | 2 |
| 2025-06-20T18:05:00 | 53.915410 | 6.287102 | 2.0 | 17.886 | 2 | 44.070 | 18.021 | 33.422 | 2 |
| 2025-06-20T18:06:00 | 53.915392 | 6.286797 | 2.0 | 17.893 | 2 | 44.093 | 18.042 | 33.424 | 2 |
| 2025-06-20T18:07:00 | 53.915362 | 6.286487 | 2.0 | 17.937 | 2 | 44.107 | 18.061 | 33.420 | 2 |
| 2025-06-20T18:08:00 | 53.915326 | 6.286186 | 2.0 | 17.934 | 2 | 44.128 | 18.084 | 33.419 | 2 |
| 2025-06-20T18:09:00 | 53.915280 | 6.285881 | 2.0 | 17.978 | 2 | 44.141 | 18.103 | 33.415 | 2 |
| 2025-06-20T18:10:00 | 53.915237 | 6.285576 | 2.0 | 17.982 | 2 | 44.166 | 18.130 | 33.414 | 2 |
| 2025-06-20T18:11:00 | 53.915203 | 6.285261 | 2.0 | 17.991 | 2 | 44.170 | 18.137 | 33.412 | 2 |
| 2025-06-20T18:12:00 | 53.915178 | 6.284947 | 2.0 | 18.001 | 2 | 44.174 | 18.147 | 33.407 | 2 |
| 2025-06-20T18:13:00 | 53.915161 | 6.284620 | 2.0 | 18.003 | 2 | 44.179 | 18.157 | 33.403 | 2 |
| 2025-06-20T18:14:00 | 53.915146 | 6.284292 | 2.0 | 18.010 | 2 | 44.175 | 18.159 | 33.398 | 2 |
| 2025-06-20T18:15:00 | 53.915122 | 6.283963 | 2.0 | 18.015 | 2 | 44.178 | 18.166 | 33.395 | 2 |
| 2025-06-20T18:16:00 | 53.915087 | 6.283624 | 2.0 | 18.031 | 2 | 44.184 | 18.173 | 33.394 | 2 |
| 2025-06-20T18:17:00 | 53.915046 | 6.283278 | 2.0 | 18.124 | 2 | 44.205 | 18.205 | 33.386 | 2 |
| 2025-06-20T18:18:00 | 53.915012 | 6.282936 | 2.0 | 18.096 | 2 | 44.262 | 18.271 | 33.380 | 2 |
| 2025-06-20T18:19:00 | 53.914977 | 6.282590 | 2.0 | 18.174 | 2 | 44.272 | 18.282 | 33.380 | 2 |
| 2025-06-20T18:20:00 | 53.914929 | 6.282243 | 2.0 | 18.251 | 2 | 44.319 | 18.345 | 33.368 | 2 |
| 2025-06-20T18:21:00 | 53.914874 | 6.281899 | 2.0 | 18.307 | 2 | 44.371 | 18.395 | 33.371 | 2 |
| 2025-06-20T18:22:00 | 53.914821 | 6.281545 | 2.0 | 18.343 | 2 | 44.435 | 18.478 | 33.358 | 2 |
| 2025-06-20T18:23:00 | 53.914770 | 6.281186 | 2.0 | 18.312 | 2 | 44.461 | 18.492 | 33.368 | 2 |
| 2025-06-20T18:24:00 | 53.914709 | 6.280824 | 2.0 | 18.325 | 2 | 44.442 | 18.470 | 33.370 | 2 |
| 2025-06-20T18:25:00 | 53.914646 | 6.280452 | 2.0 | 18.393 | 2 | 44.460 | 18.493 | 33.366 | 2 |
| 2025-06-20T18:26:00 | 53.914580 | 6.280070 | 2.0 | 18.446 | 2 | 44.524 | 18.560 | 33.366 | 2 |
| 2025-06-20T18:27:00 | 53.914517 | 6.279685 | 2.0 | 18.453 | 2 | 44.563 | 18.598 | 33.368 | 2 |
| 2025-06-20T18:28:00 | 53.914459 | 6.279297 | 2.0 | 18.502 | 2 | 44.578 | 18.615 | 33.367 | 2 |
| 2025-06-20T18:29:00 | 53.914408 | 6.278907 | 2.0 | 18.525 | 2 | 44.617 | 18.655 | 33.367 | 2 |
| 2025-06-20T18:30:00 | 53.914360 | 6.278508 | 2.0 | 18.561 | 2 | 44.646 | 18.688 | 33.364 | 2 |
| 2025-06-20T18:31:00 | 53.914311 | 6.278099 | 2.0 | 18.544 | 2 | 44.668 | 18.708 | 33.367 | 2 |
| 2025-06-20T18:32:00 | 53.914264 | 6.277673 | 2.0 | 18.570 | 2 | 44.663 | 18.702 | 33.367 | 2 |
| 2025-06-20T18:33:00 | 53.914219 | 6.277245 | 2.0 | 18.583 | 2 | 44.682 | 18.726 | 33.364 | 2 |
| 2025-06-20T18:34:00 | 53.914174 | 6.276813 | 2.0 | 18.594 | 2 | 44.690 | 18.735 | 33.363 | 2 |
| 2025-06-20T18:35:00 | 53.914132 | 6.276377 | 2.0 | 18.603 | 2 | 44.701 | 18.746 | 33.363 | 2 |
| 2025-06-20T18:36:00 | 53.914087 | 6.275942 | 2.0 | 18.609 | 2 | 44.709 | 18.757 | 33.361 | 2 |
| 2025-06-20T18:37:00 | 53.914048 | 6.275503 | 2.0 | 18.602 | 2 | 44.713 | 18.761 | 33.361 | 2 |
| 2025-06-20T18:38:00 | 53.914006 | 6.275055 | 2.0 | 18.603 | 2 | 44.709 | 18.758 | 33.360 | 2 |
| 2025-06-20T18:39:00 | 53.913968 | 6.274607 | 2.0 | 18.583 | 2 | 44.706 | 18.754 | 33.361 | 2 |
| 2025-06-20T18:40:00 | 53.913938 | 6.274158 | 2.0 | 18.460 | 2 | 44.665 | 18.711 | 33.362 | 2 |
| 2025-06-20T18:41:00 | 53.913898 | 6.273702 | 2.0 | 18.522 | 2 | 44.582 | 18.625 | 33.362 | 2 |
| 2025-06-20T18:42:00 | 53.913851 | 6.273249 | 2.0 | 18.533 | 2 | 44.625 | 18.679 | 33.354 | 2 |
| 2025-06-20T18:43:00 | 53.913795 | 6.272800 | 2.0 | 18.486 | 2 | 44.629 | 18.678 | 33.358 | 2 |
| 2025-06-20T18:44:00 | 53.913736 | 6.272342 | 2.0 | 18.427 | 2 | 44.589 | 18.633 | 33.361 | 2 |
| 2025-06-20T18:45:00 | 53.913690 | 6.271877 | 2.0 | 18.382 | 2 | 44.539 | 18.582 | 33.361 | 2 |
| 2025-06-20T18:46:00 | 53.913657 | 6.271401 | 2.0 | 18.371 | 2 | 44.495 | 18.535 | 33.362 | 2 |
| 2025-06-20T18:47:00 | 53.913626 | 6.270926 | 2.0 | 18.376 | 2 | 44.486 | 18.532 | 33.357 | 2 |
| 2025-06-20T18:48:00 | 53.913590 | 6.270448 | 2.0 | 18.373 | 2 | 44.488 | 18.533 | 33.357 | 2 |
| 2025-06-20T18:49:00 | 53.913566 | 6.269954 | 2.0 | 18.349 | 2 | 44.481 | 18.524 | 33.359 | 2 |
| 2025-06-20T18:50:00 | 53.913541 | 6.269460 | 2.0 | 18.293 | 2 | 44.457 | 18.498 | 33.360 | 2 |
| 2025-06-20T18:51:00 | 53.913515 | 6.268963 | 2.0 | 18.246 | 2 | 44.405 | 18.441 | 33.362 | 2 |
| 2025-06-20T18:52:00 | 53.913486 | 6.268472 | 2.0 | 18.254 | 2 | 44.368 | 18.408 | 33.358 | 2 |
| 2025-06-20T18:53:00 | 53.913456 | 6.267982 | 2.0 | 18.245 | 2 | 44.368 | 18.408 | 33.358 | 2 |
| 2025-06-20T18:54:00 | 53.913415 | 6.267489 | 2.0 | 18.225 | 2 | 44.360 | 18.399 | 33.359 | 2 |
| 2025-06-20T18:55:00 | 53.913372 | 6.267001 | 2.0 | 18.205 | 2 | 44.341 | 18.378 | 33.360 | 2 |
| 2025-06-20T18:56:00 | 53.913330 | 6.266514 | 2.0 | 18.199 | 2 | 44.324 | 18.363 | 33.358 | 2 |
| 2025-06-20T18:57:00 | 53.913277 | 6.266034 | 2.0 | 18.187 | 2 | 44.317 | 18.355 | 33.358 | 2 |
| 2025-06-20T18:58:00 | 53.913218 | 6.265551 | 2.0 | 18.182 | 2 | 44.307 | 18.344 | 33.359 | 2 |
| 2025-06-20T18:59:00 | 53.913166 | 6.265055 | 2.0 | 18.178 | 2 | 44.301 | 18.338 | 33.358 | 2 |
| 2025-06-20T19:00:00 | 53.913125 | 6.264543 | 2.0 | 18.170 | 2 | 44.298 | 18.336 | 33.358 | 2 |
| 2025-06-20T19:01:00 | 53.913091 | 6.264026 | 2.0 | 18.165 | 2 | 44.291 | 18.326 | 33.360 | 2 |
| 2025-06-20T19:02:00 | 53.913059 | 6.263498 | 2.0 | 18.158 | 2 | 44.282 | 18.318 | 33.359 | 2 |
| 2025-06-20T19:03:00 | 53.913025 | 6.262966 | 2.0 | 18.147 | 2 | 44.275 | 18.314 | 33.356 | 2 |
| 2025-06-20T19:04:00 | 53.912995 | 6.262422 | 2.0 | 18.125 | 2 | 44.253 | 18.295 | 33.353 | 2 |
| 2025-06-20T19:05:00 | 53.912974 | 6.261884 | 2.0 | 18.111 | 2 | 44.242 | 18.281 | 33.355 | 2 |
| 2025-06-20T19:06:00 | 53.912959 | 6.261352 | 2.0 | 18.076 | 2 | 44.229 | 18.261 | 33.360 | 2 |
| 2025-06-20T19:07:00 | 53.912943 | 6.260821 | 2.0 | 17.994 | 2 | 44.180 | 18.207 | 33.363 | 2 |
| 2025-06-20T19:08:00 | 53.912927 | 6.260282 | 2.0 | 17.978 | 2 | 44.134 | 18.163 | 33.360 | 2 |
| 2025-06-20T19:09:00 | 53.912905 | 6.259737 | 2.0 | 18.016 | 2 | 44.121 | 18.149 | 33.360 | 2 |
| 2025-06-20T19:10:00 | 53.912889 | 6.259201 | 2.0 | 17.964 | 2 | 44.130 | 18.161 | 33.358 | 2 |
| 2025-06-20T19:11:00 | 53.912871 | 6.258662 | 2.0 | 17.920 | 2 | 44.068 | 18.102 | 33.354 | 2 |
| 2025-06-20T19:12:00 | 53.912854 | 6.258115 | 2.0 | 17.883 | 2 | 44.042 | 18.074 | 33.355 | 2 |
| 2025-06-20T19:13:00 | 53.912841 | 6.257570 | 2.0 | 17.788 | 2 | 44.001 | 18.030 | 33.356 | 2 |
| 2025-06-20T19:14:00 | 53.912832 | 6.257026 | 2.0 | 17.726 | 2 | 43.917 | 17.937 | 33.360 | 2 |
| 2025-06-20T19:15:00 | 53.912826 | 6.256481 | 2.0 | 17.668 | 2 | 43.849 | 17.863 | 33.363 | 2 |
| 2025-06-20T19:16:00 | 53.912810 | 6.255947 | 2.0 | 17.576 | 2 | 43.802 | 17.814 | 33.363 | 2 |
| 2025-06-20T19:17:00 | 53.912785 | 6.255410 | 2.0 | 17.577 | 2 | 43.734 | 17.739 | 33.367 | 2 |
| 2025-06-20T19:18:00 | 53.912754 | 6.254873 | 2.0 | 17.544 | 2 | 43.730 | 17.738 | 33.364 | 2 |
| 2025-06-20T19:19:00 | 53.912722 | 6.254341 | 2.0 | 17.526 | 2 | 43.703 | 17.705 | 33.368 | 2 |
| 2025-06-20T19:20:00 | 53.912697 | 6.253805 | 2.0 | 17.476 | 2 | 43.676 | 17.678 | 33.367 | 2 |
| 2025-06-20T19:21:00 | 53.912668 | 6.253255 | 2.0 | 17.430 | 2 | 43.622 | 17.628 | 33.362 | 2 |
| 2025-06-20T19:22:00 | 53.912651 | 6.252707 | 2.0 | 17.388 | 2 | 43.584 | 17.588 | 33.362 | 2 |
| 2025-06-20T19:23:00 | 53.912633 | 6.252168 | 2.0 | 17.362 | 2 | 43.550 | 17.548 | 33.366 | 2 |
| 2025-06-20T19:24:00 | 53.912606 | 6.251619 | 2.0 | 17.361 | 2 | 43.529 | 17.527 | 33.365 | 2 |
| 2025-06-20T19:25:00 | 53.912580 | 6.251062 | 2.0 | 17.306 | 2 | 43.526 | 17.521 | 33.368 | 2 |
| 2025-06-20T19:26:00 | 53.912558 | 6.250498 | 2.0 | 17.259 | 2 | 43.480 | 17.467 | 33.373 | 2 |
| 2025-06-20T19:27:00 | 53.912534 | 6.249932 | 2.0 | 17.222 | 2 | 43.435 | 17.419 | 33.374 | 2 |
| 2025-06-20T19:28:00 | 53.912512 | 6.249368 | 2.0 | 17.212 | 2 | 43.402 | 17.386 | 33.373 | 2 |
| 2025-06-20T19:29:00 | 53.912484 | 6.248803 | 2.0 | 17.209 | 2 | 43.388 | 17.372 | 33.372 | 2 |
| 2025-06-20T19:30:00 | 53.912460 | 6.248233 | 2.0 | 17.212 | 2 | 43.391 | 17.376 | 33.371 | 2 |
| 2025-06-20T19:31:00 | 53.912443 | 6.247659 | 2.0 | 17.083 | 2 | 43.385 | 17.364 | 33.376 | 2 |
| 2025-06-20T19:32:00 | 53.912428 | 6.247088 | 2.0 | 17.054 | 2 | 43.280 | 17.248 | 33.381 | 2 |
| 2025-06-20T19:33:00 | 53.912416 | 6.246516 | 2.0 | 17.032 | 2 | 43.248 | 17.221 | 33.376 | 2 |
| 2025-06-20T19:34:00 | 53.912404 | 6.245937 | 2.0 | 17.000 | 2 | 43.225 | 17.194 | 33.379 | 2 |
| 2025-06-20T19:35:00 | 53.912386 | 6.245346 | 2.0 | 16.974 | 2 | 43.193 | 17.159 | 33.380 | 2 |
| 2025-06-20T19:36:00 | 53.912364 | 6.244748 | 2.0 | 16.978 | 2 | 43.175 | 17.141 | 33.379 | 2 |
| 2025-06-20T19:37:00 | 53.912340 | 6.244154 | 2.0 | 16.921 | 2 | 43.167 | 17.135 | 33.377 | 2 |
| 2025-06-20T19:38:00 | 53.912308 | 6.243556 | 2.0 | 16.884 | 2 | 43.118 | 17.077 | 33.383 | 2 |
| 2025-06-20T19:39:00 | 53.912268 | 6.242964 | 2.0 | 16.869 | 2 | 43.086 | 17.046 | 33.381 | 2 |
| 2025-06-20T19:40:00 | 53.912232 | 6.242356 | 2.0 | 16.841 | 2 | 43.067 | 17.027 | 33.380 | 2 |
| 2025-06-20T19:41:00 | 53.912199 | 6.241740 | 2.0 | 16.831 | 2 | 43.049 | 17.007 | 33.381 | 2 |
| 2025-06-20T19:42:00 | 53.912166 | 6.241119 | 2.0 | 16.817 | 2 | 43.038 | 16.995 | 33.382 | 2 |
| 2025-06-20T19:43:00 | 53.912140 | 6.240492 | 2.0 | 16.807 | 2 | 43.024 | 16.981 | 33.381 | 2 |
| 2025-06-20T19:44:00 | 53.912120 | 6.239864 | 2.0 | 16.804 | 2 | 43.014 | 16.968 | 33.383 | 2 |
| 2025-06-20T19:45:00 | 53.912095 | 6.239232 | 2.0 | 16.799 | 2 | 43.014 | 16.969 | 33.382 | 2 |
| 2025-06-20T19:46:00 | 53.912067 | 6.238596 | 2.0 | 16.770 | 2 | 43.008 | 16.959 | 33.386 | 2 |
| 2025-06-20T19:47:00 | 53.912037 | 6.237953 | 2.0 | 16.741 | 2 | 42.982 | 16.930 | 33.387 | 2 |
| 2025-06-20T19:48:00 | 53.912009 | 6.237303 | 2.0 | 16.720 | 2 | 42.957 | 16.901 | 33.389 | 2 |
| 2025-06-20T19:49:00 | 53.911977 | 6.236654 | 2.0 | 16.727 | 2 | 42.945 | 16.889 | 33.389 | 2 |
| 2025-06-20T19:50:00 | 53.911945 | 6.236009 | 2.0 | 16.721 | 2 | 42.947 | 16.890 | 33.390 | 2 |
| 2025-06-20T19:51:00 | 53.911924 | 6.235368 | 2.0 | 16.716 | 2 | 42.943 | 16.884 | 33.391 | 2 |
| 2025-06-20T19:52:00 | 53.911915 | 6.234727 | 2.0 | 16.708 | 2 | 42.940 | 16.881 | 33.391 | 2 |
| 2025-06-20T19:53:00 | 53.911908 | 6.234085 | 2.0 | 16.686 | 2 | 42.930 | 16.868 | 33.393 | 2 |
| 2025-06-20T19:54:00 | 53.911912 | 6.233436 | 2.0 | 16.713 | 2 | 42.916 | 16.854 | 33.393 | 2 |
| 2025-06-20T19:55:00 | 53.911909 | 6.232789 | 2.0 | 16.706 | 2 | 42.938 | 16.877 | 33.393 | 2 |
| 2025-06-20T19:56:00 | 53.911906 | 6.232135 | 2.0 | 16.675 | 2 | 42.931 | 16.868 | 33.394 | 2 |
| 2025-06-20T19:57:00 | 53.911898 | 6.231485 | 2.0 | 16.719 | 2 | 42.910 | 16.843 | 33.397 | 2 |
| 2025-06-20T19:58:00 | 53.911896 | 6.230832 | 2.0 | 16.686 | 2 | 42.934 | 16.870 | 33.395 | 2 |
| 2025-06-20T19:59:00 | 53.911923 | 6.230173 | 2.0 | 16.689 | 2 | 42.918 | 16.851 | 33.397 | 2 |
| 2025-06-20T20:00:00 | 53.912017 | 6.229531 | 2.0 | 16.733 | 2 | 42.920 | 16.855 | 33.395 | 2 |
| 2025-06-20T20:01:00 | 53.912136 | 6.228981 | 2.0 | 16.769 | 2 | 42.960 | 16.901 | 33.392 | 2 |
| 2025-06-20T20:02:00 | 53.912260 | 6.228618 | 2.0 | 16.706 | 2 | 42.974 | 16.906 | 33.400 | 2 |
| 2025-06-20T20:03:00 | 53.912379 | 6.228502 | 2.0 | 16.752 | 2 | 42.962 | 16.902 | 33.393 | 2 |
| 2025-06-20T20:04:00 | 53.912470 | 6.228614 | 2.0 | 16.724 | 2 | 42.967 | 16.905 | 33.395 | 2 |
| 2025-06-20T20:05:00 | 53.912557 | 6.228881 | 2.0 | 16.665 | 2 | 42.940 | 16.872 | 33.399 | 2 |
| 2025-06-20T20:06:00 | 53.912616 | 6.229186 | 2.0 | 16.567 | 2 | 42.883 | 16.818 | 33.394 | 2 |
| 2025-06-20T20:07:00 | 53.912674 | 6.229524 | 2.0 | 16.478 | 2 | 42.804 | 16.733 | 33.396 | 2 |
| 2025-06-20T20:08:00 | 53.912713 | 6.229881 | 2.0 | 16.369 | 2 | 42.694 | 16.600 | 33.411 | 2 |
| 2025-06-20T20:09:00 | 53.912758 | 6.230242 | 2.0 | 16.288 | 2 | 42.610 | 16.517 | 33.407 | 2 |
| 2025-06-20T20:10:00 | 53.912795 | 6.230605 | 2.0 | 16.420 | 2 | 42.559 | 16.467 | 33.404 | 2 |
| 2025-06-20T20:11:00 | 53.912848 | 6.230964 | 2.0 | 16.685 | 2 | 42.720 | 16.669 | 33.376 | 2 |
| 2025-06-20T20:12:00 | 53.912912 | 6.231322 | 2.0 | 16.889 | 2 | 42.919 | 16.880 | 33.374 | 2 |
| 2025-06-20T20:13:00 | 53.912981 | 6.231666 | 2.0 | 17.008 | 2 | 43.091 | 17.066 | 33.369 | 2 |
| 2025-06-20T20:14:00 | 53.913063 | 6.232001 | 2.0 | 17.115 | 2 | 43.200 | 17.183 | 33.366 | 2 |
| 2025-06-20T20:15:00 | 53.913116 | 6.232328 | 2.0 | 17.269 | 2 | 43.306 | 17.292 | 33.368 | 2 |
| 2025-06-20T20:16:00 | 53.913195 | 6.232630 | 2.0 | 17.434 | 2 | 43.422 | 17.430 | 33.354 | 2 |
| 2025-06-20T20:17:00 | 53.913261 | 6.232919 | 2.0 | 17.595 | 2 | 43.590 | 17.614 | 33.346 | 2 |
| 2025-06-20T20:18:00 | 53.913344 | 6.233202 | 2.0 | 17.739 | 2 | 43.729 | 17.753 | 33.351 | 2 |
| 2025-06-20T20:19:00 | 53.913407 | 6.233487 | 2.0 | 17.694 | 2 | 43.814 | 17.854 | 33.341 | 2 |
| 2025-06-20T20:20:00 | 53.913480 | 6.233771 | 2.0 | 17.815 | 2 | 43.839 | 17.869 | 33.350 | 2 |
| 2025-06-20T20:21:00 | 53.913531 | 6.234054 | 2.0 | 17.754 | 2 | 43.904 | 17.931 | 33.354 | 2 |
| 2025-06-20T20:22:00 | 53.913605 | 6.234335 | 2.0 | 17.825 | 2 | 43.893 | 17.922 | 33.352 | 2 |
| 2025-06-20T20:23:00 | 53.913670 | 6.234618 | 2.0 | 17.820 | 2 | 43.918 | 17.953 | 33.348 | 2 |
| 2025-06-20T20:24:00 | 53.913732 | 6.234909 | 2.0 | 17.921 | 2 | 43.967 | 17.996 | 33.355 | 2 |
| 2025-06-20T20:25:00 | 53.913792 | 6.235209 | 2.0 | 17.927 | 2 | 44.046 | 18.078 | 33.355 | 2 |
| 2025-06-20T20:26:00 | 53.913867 | 6.235527 | 2.0 | 17.881 | 2 | 44.041 | 18.065 | 33.361 | 2 |
| 2025-06-20T20:27:00 | 53.913924 | 6.235852 | 2.0 | 17.833 | 2 | 44.010 | 18.039 | 33.356 | 2 |
| 2025-06-20T20:28:00 | 53.913994 | 6.236185 | 2.0 | 17.937 | 2 | 43.971 | 17.986 | 33.366 | 2 |
| 2025-06-20T20:29:00 | 53.914051 | 6.236523 | 2.0 | 17.934 | 2 | 44.002 | 18.020 | 33.365 | 2 |
| 2025-06-20T20:30:00 | 53.914117 | 6.236865 | 2.0 | 17.955 | 2 | 44.062 | 18.094 | 33.355 | 2 |
| 2025-06-20T20:31:00 | 53.914178 | 6.237222 | 2.0 | 17.791 | 2 | 44.048 | 18.057 | 33.374 | 2 |
| 2025-06-20T20:32:00 | 53.914240 | 6.237600 | 2.0 | 17.762 | 2 | 43.954 | 17.968 | 33.366 | 2 |
| 2025-06-20T20:33:00 | 53.914298 | 6.237988 | 2.0 | 17.759 | 2 | 43.881 | 17.890 | 33.368 | 2 |
| 2025-06-20T20:34:00 | 53.914360 | 6.238383 | 2.0 | 17.967 | 2 | 43.912 | 17.931 | 33.361 | 2 |
| 2025-06-20T20:35:00 | 53.914420 | 6.238770 | 2.0 | 18.073 | 2 | 44.090 | 18.116 | 33.361 | 2 |
| 2025-06-20T20:36:00 | 53.914491 | 6.239151 | 2.0 | 18.069 | 2 | 44.200 | 18.220 | 33.369 | 2 |
| 2025-06-20T20:37:00 | 53.914567 | 6.239532 | 2.0 | 18.015 | 2 | 44.203 | 18.212 | 33.378 | 2 |
| 2025-06-20T20:38:00 | 53.914645 | 6.239917 | 2.0 | 17.995 | 2 | 44.165 | 18.167 | 33.383 | 2 |
| 2025-06-20T20:39:00 | 53.914733 | 6.240293 | 2.0 | 17.874 | 2 | 44.136 | 18.135 | 33.384 | 2 |
| 2025-06-20T20:40:00 | 53.914803 | 6.240657 | 2.0 | 17.763 | 2 | 44.038 | 18.016 | 33.399 | 2 |
| 2025-06-20T20:41:00 | 53.914902 | 6.241016 | 2.0 | 17.724 | 2 | 43.953 | 17.914 | 33.410 | 2 |
| 2025-06-20T20:42:00 | 53.914965 | 6.241375 | 2.0 | 17.742 | 2 | 43.934 | 17.897 | 33.408 | 2 |
| 2025-06-20T20:43:00 | 53.915055 | 6.241734 | 2.0 | 17.682 | 2 | 43.942 | 17.896 | 33.415 | 2 |
| 2025-06-20T20:44:00 | 53.915128 | 6.242097 | 2.0 | 17.612 | 2 | 43.885 | 17.825 | 33.425 | 2 |
| 2025-06-20T20:45:00 | 53.915233 | 6.242457 | 2.0 | 17.382 | 2 | 43.812 | 17.746 | 33.428 | 2 |
| 2025-06-20T20:46:00 | 53.915306 | 6.242808 | 2.0 | 17.365 | 2 | 43.597 | 17.501 | 33.445 | 2 |
| 2025-06-20T20:47:00 | 53.915425 | 6.243153 | 2.0 | 16.997 | 2 | 43.553 | 17.476 | 33.428 | 2 |
| 2025-06-20T20:48:00 | 53.915519 | 6.243497 | 2.0 | 17.067 | 2 | 43.192 | 17.040 | 33.478 | 2 |
| 2025-06-20T20:49:00 | 53.915642 | 6.243850 | 2.0 | 16.737 | 2 | 43.346 | 17.264 | 33.425 | 2 |
| 2025-06-20T20:50:00 | 53.915758 | 6.244204 | 2.0 | 17.208 | 2 | 43.099 | 16.989 | 33.440 | 2 |
| 2025-06-20T20:51:00 | 53.915891 | 6.244550 | 2.0 | 16.900 | 2 | 43.342 | 17.239 | 33.442 | 2 |
| 2025-06-20T20:52:00 | 53.916011 | 6.244895 | 2.0 | 16.685 | 2 | 43.111 | 17.000 | 33.441 | 2 |
| 2025-06-20T20:53:00 | 53.916145 | 6.245230 | 2.0 | 16.607 | 2 | 43.022 | 16.915 | 33.434 | 2 |
| 2025-06-20T20:54:00 | 53.916270 | 6.245564 | 2.0 | 16.909 | 2 | 42.955 | 16.872 | 33.412 | 2 |
| 2025-06-20T20:55:00 | 53.916412 | 6.245895 | 2.0 | 16.709 | 2 | 43.122 | 17.023 | 33.431 | 2 |
| 2025-06-20T20:56:00 | 53.916545 | 6.246218 | 2.0 | 16.565 | 2 | 42.951 | 16.837 | 33.437 | 2 |
| 2025-06-20T20:57:00 | 53.916711 | 6.246520 | 2.0 | 16.303 | 2 | 42.803 | 16.684 | 33.436 | 2 |
| 2025-06-20T20:58:00 | 53.916843 | 6.246823 | 2.0 | 16.290 | 2 | 42.611 | 16.497 | 33.424 | 2 |
| 2025-06-20T20:59:00 | 53.917009 | 6.247136 | 2.0 | 16.277 | 2 | 42.549 | 16.441 | 33.417 | 2 |
| 2025-06-20T21:00:00 | 53.917140 | 6.247443 | 2.0 | 16.194 | 2 | 42.529 | 16.425 | 33.413 | 2 |
| 2025-06-20T21:01:00 | 53.917311 | 6.247746 | 2.0 | 16.088 | 2 | 42.464 | 16.356 | 33.413 | 2 |
| 2025-06-20T21:02:00 | 53.917429 | 6.248043 | 2.0 | 16.125 | 2 | 42.378 | 16.269 | 33.411 | 2 |
| 2025-06-20T21:03:00 | 53.917595 | 6.248329 | 2.0 | 16.218 | 2 | 42.410 | 16.313 | 33.402 | 2 |
| 2025-06-20T21:04:00 | 53.917726 | 6.248614 | 2.0 | 16.257 | 2 | 42.476 | 16.388 | 33.397 | 2 |
| 2025-06-20T21:05:00 | 53.917872 | 6.248899 | 2.0 | 16.274 | 2 | 42.503 | 16.420 | 33.394 | 2 |
| 2025-06-20T21:06:00 | 53.918005 | 6.249191 | 2.0 | 16.277 | 2 | 42.513 | 16.440 | 33.386 | 2 |
| 2025-06-20T21:07:00 | 53.918164 | 6.249488 | 2.0 | 16.271 | 2 | 42.505 | 16.436 | 33.382 | 2 |
| 2025-06-20T21:08:00 | 53.918296 | 6.249787 | 2.0 | 16.339 | 2 | 42.512 | 16.450 | 33.377 | 2 |
| 2025-06-20T21:09:00 | 53.918447 | 6.250079 | 2.0 | 16.376 | 2 | 42.558 | 16.506 | 33.370 | 2 |
| 2025-06-20T21:10:00 | 53.918570 | 6.250366 | 2.0 | 16.437 | 2 | 42.590 | 16.544 | 33.367 | 2 |
| 2025-06-20T21:11:00 | 53.918717 | 6.250646 | 2.0 | 16.447 | 2 | 42.633 | 16.592 | 33.364 | 2 |
| 2025-06-20T21:12:00 | 53.918838 | 6.250919 | 2.0 | 16.440 | 2 | 42.647 | 16.599 | 33.371 | 2 |
| 2025-06-20T21:13:00 | 53.918986 | 6.251194 | 2.0 | 16.432 | 2 | 42.651 | 16.605 | 33.369 | 2 |
| 2025-06-20T21:14:00 | 53.919106 | 6.251474 | 2.0 | 16.412 | 2 | 42.637 | 16.584 | 33.374 | 2 |
| 2025-06-20T21:15:00 | 53.919241 | 6.251760 | 2.0 | 16.357 | 2 | 42.622 | 16.569 | 33.374 | 2 |
| 2025-06-20T21:16:00 | 53.919349 | 6.252050 | 2.0 | 16.343 | 2 | 42.575 | 16.519 | 33.374 | 2 |
| 2025-06-20T21:17:00 | 53.919464 | 6.252344 | 2.0 | 16.327 | 2 | 42.561 | 16.509 | 33.370 | 2 |
| 2025-06-20T21:18:00 | 53.919563 | 6.252640 | 2.0 | 16.278 | 2 | 42.536 | 16.479 | 33.374 | 2 |
| 2025-06-20T21:19:00 | 53.919665 | 6.252947 | 2.0 | 16.268 | 2 | 42.498 | 16.441 | 33.372 | 2 |
| 2025-06-20T21:20:00 | 53.919764 | 6.253259 | 2.0 | 16.294 | 2 | 42.476 | 16.418 | 33.372 | 2 |
| 2025-06-20T21:21:00 | 53.919857 | 6.253577 | 2.0 | 16.137 | 2 | 42.472 | 16.413 | 33.373 | 2 |
| 2025-06-20T21:22:00 | 53.919950 | 6.253896 | 2.0 | 16.280 | 2 | 42.426 | 16.374 | 33.365 | 2 |
| 2025-06-20T21:23:00 | 53.920035 | 6.254221 | 2.0 | 16.196 | 2 | 42.465 | 16.407 | 33.372 | 2 |
| 2025-06-20T21:24:00 | 53.920133 | 6.254542 | 2.0 | 16.287 | 2 | 42.439 | 16.387 | 33.365 | 2 |
| 2025-06-20T21:25:00 | 53.920206 | 6.254852 | 2.0 | 16.290 | 2 | 42.487 | 16.443 | 33.361 | 2 |
| 2025-06-20T21:26:00 | 53.920305 | 6.255156 | 2.0 | 16.267 | 2 | 42.494 | 16.448 | 33.363 | 2 |
| 2025-06-20T21:27:00 | 53.920366 | 6.255460 | 2.0 | 16.323 | 2 | 42.470 | 16.421 | 33.364 | 2 |
| 2025-06-20T21:28:00 | 53.920454 | 6.255765 | 2.0 | 16.367 | 2 | 42.525 | 16.492 | 33.353 | 2 |
| 2025-06-20T21:29:00 | 53.920518 | 6.256071 | 2.0 | 16.389 | 2 | 42.555 | 16.518 | 33.358 | 2 |
| 2025-06-20T21:30:00 | 53.920597 | 6.256375 | 2.0 | 16.417 | 2 | 42.582 | 16.558 | 33.348 | 2 |
| 2025-06-20T21:31:00 | 53.920662 | 6.256683 | 2.0 | 16.457 | 2 | 42.606 | 16.587 | 33.345 | 2 |
| 2025-06-20T21:32:00 | 53.920751 | 6.256984 | 2.0 | 16.468 | 2 | 42.642 | 16.623 | 33.346 | 2 |
| 2025-06-20T21:33:00 | 53.920823 | 6.257274 | 2.0 | 16.501 | 2 | 42.647 | 16.626 | 33.348 | 2 |
| 2025-06-20T21:34:00 | 53.920901 | 6.257571 | 2.0 | 16.569 | 2 | 42.691 | 16.675 | 33.346 | 2 |
| 2025-06-20T21:35:00 | 53.920984 | 6.257867 | 2.0 | 16.599 | 2 | 42.743 | 16.732 | 33.344 | 2 |
| 2025-06-20T21:36:00 | 53.921050 | 6.258167 | 2.0 | 16.617 | 2 | 42.771 | 16.760 | 33.345 | 2 |
| 2025-06-20T21:37:00 | 53.921124 | 6.258458 | 2.0 | 16.638 | 2 | 42.779 | 16.767 | 33.346 | 2 |
| 2025-06-20T21:38:00 | 53.921194 | 6.258749 | 2.0 | 16.672 | 2 | 42.805 | 16.804 | 33.338 | 2 |
| 2025-06-20T21:39:00 | 53.921269 | 6.259046 | 2.0 | 16.771 | 2 | 42.833 | 16.834 | 33.337 | 2 |
| 2025-06-20T21:40:00 | 53.921341 | 6.259354 | 2.0 | 16.862 | 2 | 42.929 | 16.946 | 33.328 | 2 |
| 2025-06-20T21:41:00 | 53.921416 | 6.259671 | 2.0 | 16.991 | 2 | 43.024 | 17.046 | 33.327 | 2 |
| 2025-06-20T21:42:00 | 53.921482 | 6.259991 | 2.0 | 17.068 | 2 | 43.107 | 17.132 | 33.328 | 2 |
| 2025-06-20T21:43:00 | 53.921562 | 6.260307 | 2.0 | 17.132 | 2 | 43.194 | 17.225 | 33.326 | 2 |
| 2025-06-20T21:44:00 | 53.921616 | 6.260619 | 2.0 | 17.144 | 2 | 43.245 | 17.274 | 33.330 | 2 |
| 2025-06-20T21:45:00 | 53.921675 | 6.260942 | 2.0 | 17.183 | 2 | 43.274 | 17.304 | 33.330 | 2 |
| 2025-06-20T21:46:00 | 53.921737 | 6.261259 | 2.0 | 17.127 | 2 | 43.299 | 17.329 | 33.331 | 2 |
| 2025-06-20T21:47:00 | 53.921793 | 6.261574 | 2.0 | 17.117 | 2 | 43.217 | 17.228 | 33.344 | 2 |
| 2025-06-20T21:48:00 | 53.921872 | 6.261882 | 2.0 | 17.133 | 2 | 43.255 | 17.293 | 33.323 | 2 |
| 2025-06-20T21:49:00 | 53.921920 | 6.262184 | 2.0 | 17.170 | 2 | 43.205 | 17.222 | 33.338 | 2 |
| 2025-06-20T21:50:00 | 53.921992 | 6.262473 | 2.0 | 17.216 | 2 | 43.291 | 17.340 | 33.315 | 2 |
| 2025-06-20T21:51:00 | 53.922046 | 6.262761 | 2.0 | 17.212 | 2 | 43.312 | 17.340 | 33.333 | 2 |
| 2025-06-20T21:52:00 | 53.922113 | 6.263040 | 2.0 | 17.255 | 2 | 43.333 | 17.370 | 33.326 | 2 |
| 2025-06-20T21:53:00 | 53.922155 | 6.263322 | 2.0 | 17.294 | 2 | 43.373 | 17.404 | 33.333 | 2 |
| 2025-06-20T21:54:00 | 53.922204 | 6.263615 | 2.0 | 17.388 | 2 | 43.407 | 17.446 | 33.327 | 2 |
| 2025-06-20T21:55:00 | 53.922245 | 6.263898 | 2.0 | 17.434 | 2 | 43.489 | 17.528 | 33.330 | 2 |
| 2025-06-20T21:56:00 | 53.922282 | 6.264189 | 2.0 | 17.401 | 2 | 43.535 | 17.570 | 33.335 | 2 |
| 2025-06-20T21:57:00 | 53.922329 | 6.264468 | 2.0 | 17.545 | 2 | 43.542 | 17.577 | 33.336 | 2 |
| 2025-06-20T21:58:00 | 53.922352 | 6.264755 | 2.0 | 17.590 | 2 | 43.662 | 17.704 | 33.334 | 2 |
| 2025-06-20T21:59:00 | 53.922410 | 6.265043 | 2.0 | 17.540 | 2 | 43.696 | 17.730 | 33.342 | 2 |
| 2025-06-20T22:00:00 | 53.922442 | 6.265329 | 2.0 | 17.449 | 2 | 43.638 | 17.659 | 33.350 | 2 |
| 2025-06-20T22:01:00 | 53.922495 | 6.265617 | 2.0 | 17.468 | 2 | 43.557 | 17.576 | 33.349 | 2 |
| 2025-06-20T22:02:00 | 53.922522 | 6.265891 | 2.0 | 17.489 | 2 | 43.590 | 17.617 | 33.344 | 2 |
| 2025-06-20T22:03:00 | 53.922559 | 6.266170 | 2.0 | 17.402 | 2 | 43.625 | 17.645 | 33.351 | 2 |
| 2025-06-20T22:04:00 | 53.922593 | 6.266460 | 2.0 | 17.250 | 2 | 43.382 | 17.330 | 33.402 | 2 |
| 2025-06-20T22:05:00 | 53.922619 | 6.266763 | 2.0 | 16.924 | 2 | 43.296 | 17.249 | 33.394 | 2 |
| 2025-06-20T22:06:00 | 53.922658 | 6.267071 | 2.0 | 17.300 | 2 | 43.250 | 17.226 | 33.374 | 2 |
| 2025-06-20T22:07:00 | 53.922685 | 6.267379 | 2.0 | 17.013 | 2 | 43.463 | 17.438 | 33.382 | 2 |
| 2025-06-20T22:08:00 | 53.922738 | 6.267695 | 2.0 | 16.888 | 2 | 43.355 | 17.257 | 33.439 | 2 |
| 2025-06-20T22:09:00 | 53.922762 | 6.267998 | 2.0 | 16.891 | 2 | 43.131 | 17.032 | 33.432 | 2 |
| 2025-06-20T22:10:00 | 53.922828 | 6.268236 | 2.0 | 16.438 | 2 | 43.126 | 17.011 | 33.445 | 2 |
| 2025-06-20T22:11:00 | 53.922864 | 6.268421 | 2.0 | 16.470 | 2 | 42.726 | 16.566 | 33.467 | 2 |
| 2025-06-20T22:12:00 | 53.922926 | 6.268565 | 2.0 | 16.596 | 2 | 42.889 | 16.798 | 33.416 | 2 |
| 2025-06-20T22:13:00 | 53.922997 | 6.268678 | 2.0 | 16.470 | 2 | 42.792 | 16.647 | 33.457 | 2 |
| 2025-06-20T22:14:00 | 53.923045 | 6.268754 | 2.0 | 16.863 | 2 | 42.910 | 16.803 | 33.430 | 2 |
| 2025-06-20T22:15:00 | 53.923146 | 6.268807 | 2.0 | 16.536 | 2 | 43.045 | 16.933 | 33.439 | 2 |
| 2025-06-20T22:16:00 | 53.923225 | 6.268833 | 2.0 | 16.598 | 2 | 42.860 | 16.726 | 33.451 | 2 |
| 2025-06-20T22:17:00 | 53.923310 | 6.268850 | 2.0 | 17.029 | 2 | 42.905 | 16.809 | 33.421 | 2 |
| 2025-06-20T22:18:00 | 53.923404 | 6.268882 | 2.0 | 16.580 | 2 | 43.203 | 17.132 | 33.411 | 2 |
| 2025-06-20T22:19:00 | 53.923471 | 6.268946 | 2.0 | 16.795 | 2 | 42.878 | 16.760 | 33.438 | 2 |
| 2025-06-20T22:20:00 | 53.923539 | 6.269044 | 2.0 | 16.944 | 2 | 43.040 | 16.981 | 33.395 | 2 |
| 2025-06-20T22:21:00 | 53.923603 | 6.269172 | 2.0 | 16.847 | 2 | 43.131 | 17.065 | 33.404 | 2 |
| 2025-06-20T22:22:00 | 53.923677 | 6.269317 | 2.0 | 16.648 | 2 | 42.978 | 16.881 | 33.424 | 2 |
| 2025-06-20T22:23:00 | 53.923754 | 6.269477 | 2.0 | 16.780 | 2 | 42.882 | 16.810 | 33.400 | 2 |
| 2025-06-20T22:24:00 | 53.923831 | 6.269645 | 2.0 | 16.900 | 2 | 42.979 | 16.914 | 33.398 | 2 |
| 2025-06-20T22:25:00 | 53.923926 | 6.269827 | 2.0 | 16.727 | 2 | 43.135 | 17.110 | 33.370 | 2 |
| 2025-06-20T22:26:00 | 53.924004 | 6.270014 | 2.0 | 16.921 | 2 | 42.981 | 16.902 | 33.409 | 2 |
| 2025-06-20T22:27:00 | 53.924089 | 6.270216 | 2.0 | 16.850 | 2 | 43.055 | 17.000 | 33.392 | 2 |
| 2025-06-20T22:28:00 | 53.924160 | 6.270427 | 2.0 | 16.694 | 2 | 43.031 | 16.963 | 33.402 | 2 |
| 2025-06-20T22:29:00 | 53.924245 | 6.270643 | 2.0 | 16.658 | 2 | 42.941 | 16.876 | 33.396 | 2 |
| 2025-06-20T22:30:00 | 53.924331 | 6.270862 | 2.0 | 16.568 | 2 | 42.924 | 16.858 | 33.396 | 2 |
| 2025-06-20T22:31:00 | 53.924426 | 6.271081 | 2.0 | 16.454 | 2 | 42.818 | 16.742 | 33.401 | 2 |
| 2025-06-20T22:32:00 | 53.924519 | 6.271303 | 2.0 | 16.321 | 2 | 42.667 | 16.581 | 33.403 | 2 |
| 2025-06-20T22:33:00 | 53.924634 | 6.271529 | 2.0 | 16.178 | 2 | 42.543 | 16.463 | 33.393 | 2 |
| 2025-06-20T22:34:00 | 53.924746 | 6.271759 | 2.0 | 16.033 | 2 | 42.413 | 16.327 | 33.393 | 2 |
| 2025-06-20T22:35:00 | 53.924837 | 6.271979 | 2.0 | 15.894 | 2 | 42.293 | 16.202 | 33.392 | 2 |
| 2025-06-20T22:36:00 | 53.924939 | 6.272202 | 2.0 | 15.900 | 2 | 42.175 | 16.079 | 33.391 | 2 |
| 2025-06-20T22:37:00 | 53.925016 | 6.272417 | 2.0 | 15.888 | 2 | 42.156 | 16.070 | 33.382 | 2 |
| 2025-06-20T22:38:00 | 53.925111 | 6.272635 | 2.0 | 15.850 | 2 | 42.133 | 16.052 | 33.377 | 2 |
| 2025-06-20T22:39:00 | 53.925175 | 6.272849 | 2.0 | 15.821 | 2 | 42.096 | 16.016 | 33.374 | 2 |
| 2025-06-20T22:40:00 | 53.925270 | 6.273068 | 2.0 | 15.833 | 2 | 42.069 | 15.993 | 33.370 | 2 |
| 2025-06-20T22:41:00 | 53.925336 | 6.273290 | 2.0 | 15.891 | 2 | 42.075 | 16.010 | 33.361 | 2 |
| 2025-06-20T22:42:00 | 53.925418 | 6.273507 | 2.0 | 15.911 | 2 | 42.107 | 16.059 | 33.348 | 2 |
| 2025-06-20T22:43:00 | 53.925498 | 6.273736 | 2.0 | 15.909 | 2 | 42.123 | 16.075 | 33.348 | 2 |
| 2025-06-20T22:44:00 | 53.925570 | 6.273958 | 2.0 | 15.919 | 2 | 42.120 | 16.077 | 33.344 | 2 |
| 2025-06-20T22:45:00 | 53.925664 | 6.274189 | 2.0 | 15.933 | 2 | 42.121 | 16.087 | 33.337 | 2 |
| 2025-06-20T22:46:00 | 53.925738 | 6.274424 | 2.0 | 15.938 | 2 | 42.126 | 16.098 | 33.332 | 2 |
| 2025-06-20T22:47:00 | 53.925839 | 6.274658 | 2.0 | 15.941 | 2 | 42.128 | 16.103 | 33.329 | 2 |
| 2025-06-20T22:48:00 | 53.925871 | 6.274832 | 2.0 | 15.942 | 2 | 42.128 | 16.106 | 33.327 | 2 |
| 2025-06-20T22:49:00 | 53.925873 | 6.274958 | 2.0 | 15.939 | 2 | 42.128 | 16.106 | 33.327 | 2 |
| 2025-06-20T22:50:00 | 53.925926 | 6.275077 | 2.0 | 15.938 | 2 | 42.125 | 16.103 | 33.327 | 2 |
| 2025-06-20T22:51:00 | 53.925941 | 6.275156 | 2.0 | 15.946 | 2 | 42.126 | 16.105 | 33.326 | 2 |
| 2025-06-20T22:52:00 | 53.925972 | 6.275222 | 2.0 | 15.955 | 2 | 42.131 | 16.112 | 33.324 | 2 |
| 2025-06-20T22:53:00 | 53.926019 | 6.275287 | 2.0 | 15.950 | 2 | 42.136 | 16.119 | 33.323 | 2 |
| 2025-06-20T22:54:00 | 53.926043 | 6.275334 | 2.0 | 15.964 | 2 | 42.133 | 16.116 | 33.323 | 2 |
| 2025-06-20T22:55:00 | 53.926094 | 6.275388 | 2.0 | 15.983 | 2 | 42.145 | 16.133 | 33.319 | 2 |
| 2025-06-20T22:56:00 | 53.926134 | 6.275434 | 2.0 | 16.000 | 2 | 42.156 | 16.145 | 33.319 | 2 |
| 2025-06-20T22:57:00 | 53.926166 | 6.275468 | 2.0 | 16.010 | 2 | 42.168 | 16.164 | 33.314 | 2 |
| 2025-06-20T22:58:00 | 53.926227 | 6.275514 | 2.0 | 16.022 | 2 | 42.179 | 16.175 | 33.314 | 2 |
| 2025-06-20T22:59:00 | 53.926269 | 6.275553 | 2.0 | 16.023 | 2 | 42.188 | 16.185 | 33.314 | 2 |
| 2025-06-20T23:00:00 | 53.926327 | 6.275604 | 2.0 | 16.024 | 2 | 42.191 | 16.188 | 33.314 | 2 |
| 2025-06-20T23:01:00 | 53.926386 | 6.275656 | 2.0 | 16.020 | 2 | 42.188 | 16.185 | 33.314 | 2 |
| 2025-06-20T23:02:00 | 53.926377 | 6.275679 | 2.0 | 16.023 | 2 | 42.187 | 16.184 | 33.314 | 2 |
| 2025-06-20T23:03:00 | 53.926319 | 6.275707 | 2.0 | 16.014 | 2 | 42.187 | 16.185 | 33.313 | 2 |
| 2025-06-20T23:04:00 | 53.926281 | 6.275785 | 2.0 | 16.011 | 2 | 42.181 | 16.178 | 33.313 | 2 |
| 2025-06-20T23:05:00 | 53.926228 | 6.275880 | 2.0 | 16.008 | 2 | 42.176 | 16.173 | 33.313 | 2 |
| 2025-06-20T23:06:00 | 53.926163 | 6.275978 | 2.0 | 16.004 | 2 | 42.172 | 16.170 | 33.312 | 2 |
| 2025-06-20T23:07:00 | 53.926138 | 6.276108 | 2.0 | 16.005 | 2 | 42.170 | 16.167 | 33.313 | 2 |
| 2025-06-20T23:08:00 | 53.926083 | 6.276235 | 2.0 | 16.003 | 2 | 42.170 | 16.170 | 33.310 | 2 |
| 2025-06-20T23:09:00 | 53.926032 | 6.276374 | 2.0 | 16.000 | 2 | 42.165 | 16.164 | 33.311 | 2 |
| 2025-06-20T23:10:00 | 53.925998 | 6.276535 | 2.0 | 15.983 | 2 | 42.160 | 16.161 | 33.309 | 2 |
| 2025-06-20T23:11:00 | 53.925929 | 6.276678 | 2.0 | 15.985 | 2 | 42.151 | 16.151 | 33.309 | 2 |
| 2025-06-20T23:12:00 | 53.925887 | 6.276847 | 2.0 | 15.965 | 2 | 42.144 | 16.142 | 33.311 | 2 |
| 2025-06-20T23:13:00 | 53.925827 | 6.277015 | 2.0 | 15.958 | 2 | 42.131 | 16.130 | 33.309 | 2 |
| 2025-06-20T23:14:00 | 53.925765 | 6.277186 | 2.0 | 15.953 | 2 | 42.124 | 16.122 | 33.310 | 2 |
| 2025-06-20T23:15:00 | 53.925723 | 6.277355 | 2.0 | 15.957 | 2 | 42.119 | 16.117 | 33.310 | 2 |
| 2025-06-20T23:16:00 | 53.925647 | 6.277500 | 2.0 | 15.967 | 2 | 42.123 | 16.124 | 33.307 | 2 |
| 2025-06-20T23:17:00 | 53.925601 | 6.277657 | 2.0 | 15.974 | 2 | 42.129 | 16.132 | 33.306 | 2 |
| 2025-06-20T23:18:00 | 53.925565 | 6.277810 | 2.0 | 15.970 | 2 | 42.131 | 16.135 | 33.305 | 2 |
| 2025-06-20T23:19:00 | 53.925507 | 6.277937 | 2.0 | 15.974 | 2 | 42.130 | 16.134 | 33.305 | 2 |
| 2025-06-20T23:20:00 | 53.925486 | 6.278084 | 2.0 | 15.975 | 2 | 42.132 | 16.137 | 33.304 | 2 |
| 2025-06-20T23:21:00 | 53.925459 | 6.278217 | 2.0 | 15.984 | 2 | 42.134 | 16.137 | 33.306 | 2 |
| 2025-06-20T23:22:00 | 53.925415 | 6.278335 | 2.0 | 15.985 | 2 | 42.137 | 16.148 | 33.300 | 2 |
| 2025-06-20T23:23:00 | 53.925403 | 6.278475 | 2.0 | 15.982 | 2 | 42.137 | 16.147 | 33.300 | 2 |
| 2025-06-20T23:24:00 | 53.925363 | 6.278602 | 2.0 | 15.983 | 2 | 42.133 | 16.145 | 33.299 | 2 |
| 2025-06-20T23:25:00 | 53.925330 | 6.278732 | 2.0 | 15.977 | 2 | 42.133 | 16.145 | 33.299 | 2 |
| 2025-06-20T23:26:00 | 53.925306 | 6.278872 | 2.0 | 15.975 | 2 | 42.123 | 16.140 | 33.294 | 2 |
| 2025-06-20T23:27:00 | 53.925258 | 6.278992 | 2.0 | 15.975 | 2 | 42.123 | 16.139 | 33.295 | 2 |
| 2025-06-20T23:28:00 | 53.925245 | 6.279128 | 2.0 | 15.975 | 2 | 42.120 | 16.138 | 33.293 | 2 |
| 2025-06-20T23:29:00 | 53.925243 | 6.279267 | 2.0 | 15.975 | 2 | 42.125 | 16.136 | 33.299 | 2 |
| 2025-06-20T23:30:00 | 53.925205 | 6.279389 | 2.0 | 15.974 | 2 | 42.126 | 16.139 | 33.297 | 2 |
| 2025-06-20T23:31:00 | 53.925200 | 6.279529 | 2.0 | 15.971 | 2 | 42.123 | 16.136 | 33.297 | 2 |
| 2025-06-20T23:32:00 | 53.925183 | 6.279662 | 2.0 | 15.964 | 2 | 42.120 | 16.134 | 33.296 | 2 |
| 2025-06-20T23:33:00 | 53.925148 | 6.279778 | 2.0 | 15.958 | 2 | 42.114 | 16.126 | 33.298 | 2 |
| 2025-06-20T23:34:00 | 53.925142 | 6.279920 | 2.0 | 15.957 | 2 | 42.106 | 16.120 | 33.296 | 2 |
| 2025-06-20T23:35:00 | 53.925110 | 6.280062 | 2.0 | 15.950 | 2 | 42.102 | 16.118 | 33.294 | 2 |
| 2025-06-20T23:36:00 | 53.925065 | 6.280202 | 2.0 | 15.951 | 2 | 42.096 | 16.114 | 33.292 | 2 |
| 2025-06-20T23:37:00 | 53.925043 | 6.280369 | 2.0 | 15.947 | 2 | 42.093 | 16.113 | 33.290 | 2 |
| 2025-06-20T23:38:00 | 53.924995 | 6.280531 | 2.0 | 15.947 | 2 | 42.088 | 16.110 | 33.288 | 2 |
| 2025-06-20T23:39:00 | 53.924957 | 6.280703 | 2.0 | 15.946 | 2 | 42.088 | 16.110 | 33.288 | 2 |
| 2025-06-20T23:40:00 | 53.924937 | 6.280895 | 2.0 | 15.945 | 2 | 42.085 | 16.108 | 33.287 | 2 |
| 2025-06-20T23:41:00 | 53.924890 | 6.281075 | 2.0 | 15.947 | 2 | 42.085 | 16.109 | 33.286 | 2 |
| 2025-06-20T23:42:00 | 53.924864 | 6.281277 | 2.0 | 15.947 | 2 | 42.085 | 16.110 | 33.286 | 2 |
| 2025-06-20T23:43:00 | 53.924853 | 6.281483 | 2.0 | 15.947 | 2 | 42.085 | 16.110 | 33.286 | 2 |
| 2025-06-20T23:44:00 | 53.924806 | 6.281672 | 2.0 | 15.941 | 2 | 42.082 | 16.108 | 33.285 | 2 |
| 2025-06-20T23:45:00 | 53.924770 | 6.281886 | 2.0 | 15.935 | 2 | 42.078 | 16.104 | 33.284 | 2 |
| 2025-06-20T23:46:00 | 53.924751 | 6.282103 | 2.0 | 15.925 | 2 | 42.069 | 16.096 | 33.283 | 2 |
| 2025-06-20T23:47:00 | 53.924715 | 6.282311 | 2.0 | 15.926 | 2 | 42.060 | 16.088 | 33.282 | 2 |
| 2025-06-20T23:48:00 | 53.924696 | 6.282545 | 2.0 | 15.922 | 2 | 42.059 | 16.088 | 33.281 | 2 |
| 2025-06-20T23:49:00 | 53.924650 | 6.282772 | 2.0 | 15.924 | 2 | 42.056 | 16.086 | 33.280 | 2 |
| 2025-06-20T23:50:00 | 53.924606 | 6.283000 | 2.0 | 15.928 | 2 | 42.056 | 16.088 | 33.278 | 2 |
| 2025-06-20T23:51:00 | 53.924599 | 6.283243 | 2.0 | 15.931 | 2 | 42.056 | 16.091 | 33.276 | 2 |
| 2025-06-20T23:52:00 | 53.924559 | 6.283466 | 2.0 | 15.931 | 2 | 42.058 | 16.093 | 33.276 | 2 |
| 2025-06-20T23:53:00 | 53.924524 | 6.283696 | 2.0 | 15.934 | 2 | 42.057 | 16.094 | 33.274 | 2 |
| 2025-06-20T23:54:00 | 53.924526 | 6.283952 | 2.0 | 15.938 | 2 | 42.058 | 16.096 | 33.273 | 2 |
| 2025-06-20T23:55:00 | 53.924508 | 6.284183 | 2.0 | 15.938 | 2 | 42.061 | 16.100 | 33.273 | 2 |
| 2025-06-20T23:56:00 | 53.924495 | 6.284416 | 2.0 | 15.942 | 2 | 42.059 | 16.101 | 33.270 | 2 |
| 2025-06-20T23:57:00 | 53.924504 | 6.284673 | 2.0 | 15.944 | 2 | 42.061 | 16.104 | 33.269 | 2 |
| 2025-06-20T23:58:00 | 53.924495 | 6.284903 | 2.0 | 15.946 | 2 | 42.062 | 16.107 | 33.268 | 2 |
| 2025-06-20T23:59:00 | 53.924499 | 6.285148 | 2.0 | 15.948 | 2 | 42.065 | 16.109 | 33.269 | 2 |
| 2025-06-21T00:00:00 | 53.924500 | 6.285394 | 2.0 | 15.946 | 2 | 42.064 | 16.110 | 33.267 | 2 |
| 2025-06-21T00:01:00 | 53.924487 | 6.285643 | 2.0 | 15.946 | 2 | 42.061 | 16.108 | 33.266 | 2 |
| 2025-06-21T00:02:00 | 53.924485 | 6.285926 | 2.0 | 15.951 | 2 | 42.060 | 16.109 | 33.264 | 2 |
| 2025-06-21T00:03:00 | 53.924465 | 6.286195 | 2.0 | 15.952 | 2 | 42.060 | 16.113 | 33.261 | 2 |
| 2025-06-21T00:04:00 | 53.924461 | 6.286475 | 2.0 | 15.956 | 2 | 42.060 | 16.115 | 33.259 | 2 |
| 2025-06-21T00:05:00 | 53.924461 | 6.286773 | 2.0 | 15.965 | 2 | 42.058 | 16.120 | 33.253 | 2 |
| 2025-06-21T00:06:00 | 53.924441 | 6.287063 | 2.0 | 15.972 | 2 | 42.059 | 16.128 | 33.247 | 2 |
| 2025-06-21T00:07:00 | 53.924448 | 6.287367 | 2.0 | 15.975 | 2 | 42.061 | 16.134 | 33.244 | 2 |
| 2025-06-21T00:08:00 | 53.924443 | 6.287668 | 2.0 | 15.982 | 2 | 42.062 | 16.138 | 33.242 | 2 |
| 2025-06-21T00:09:00 | 53.924424 | 6.287976 | 2.0 | 15.989 | 2 | 42.065 | 16.145 | 33.239 | 2 |
| 2025-06-21T00:10:00 | 53.924437 | 6.288294 | 2.0 | 15.997 | 2 | 42.067 | 16.152 | 33.234 | 2 |
| 2025-06-21T00:11:00 | 53.924431 | 6.288589 | 2.0 | 16.003 | 2 | 42.070 | 16.159 | 33.231 | 2 |
| 2025-06-21T00:12:00 | 53.924441 | 6.288875 | 2.0 | 16.007 | 2 | 42.074 | 16.164 | 33.231 | 2 |
| 2025-06-21T00:13:00 | 53.924472 | 6.289162 | 2.0 | 16.008 | 2 | 42.074 | 16.169 | 33.226 | 2 |
| 2025-06-21T00:14:00 | 53.924474 | 6.289412 | 2.0 | 16.011 | 2 | 42.076 | 16.170 | 33.227 | 2 |
| 2025-06-21T00:15:00 | 53.924480 | 6.289656 | 2.0 | 16.012 | 2 | 42.077 | 16.173 | 33.226 | 2 |
| 2025-06-21T00:16:00 | 53.924533 | 6.289911 | 2.0 | 16.014 | 2 | 42.079 | 16.173 | 33.227 | 2 |
| 2025-06-21T00:17:00 | 53.924589 | 6.290146 | 2.0 | 16.016 | 2 | 42.082 | 16.175 | 33.228 | 2 |
| 2025-06-21T00:18:00 | 53.924611 | 6.290361 | 2.0 | 16.017 | 2 | 42.083 | 16.177 | 33.228 | 2 |
| 2025-06-21T00:19:00 | 53.924637 | 6.290585 | 2.0 | 16.020 | 2 | 42.083 | 16.179 | 33.226 | 2 |
| 2025-06-21T00:20:00 | 53.924708 | 6.290830 | 2.0 | 16.025 | 2 | 42.084 | 16.182 | 33.224 | 2 |
| 2025-06-21T00:21:00 | 53.924793 | 6.291062 | 2.0 | 16.031 | 2 | 42.087 | 16.188 | 33.222 | 2 |
| 2025-06-21T00:22:00 | 53.924838 | 6.291254 | 2.0 | 16.032 | 2 | 42.088 | 16.193 | 33.219 | 2 |
| 2025-06-21T00:23:00 | 53.924853 | 6.291423 | 2.0 | 16.036 | 2 | 42.092 | 16.195 | 33.221 | 2 |
| 2025-06-21T00:24:00 | 53.924875 | 6.291615 | 2.0 | 16.043 | 2 | 42.094 | 16.198 | 33.220 | 2 |
| 2025-06-21T00:25:00 | 53.924909 | 6.291825 | 2.0 | 16.044 | 2 | 42.095 | 16.203 | 33.217 | 2 |
| 2025-06-21T00:26:00 | 53.924925 | 6.292027 | 2.0 | 16.044 | 2 | 42.097 | 16.205 | 33.217 | 2 |
| 2025-06-21T00:27:00 | 53.924940 | 6.292247 | 2.0 | 16.045 | 2 | 42.097 | 16.205 | 33.217 | 2 |
| 2025-06-21T00:28:00 | 53.924964 | 6.292490 | 2.0 | 16.046 | 2 | 42.097 | 16.206 | 33.216 | 2 |
| 2025-06-21T00:29:00 | 53.924974 | 6.292726 | 2.0 | 16.046 | 2 | 42.098 | 16.207 | 33.216 | 2 |
| 2025-06-21T00:30:00 | 53.924983 | 6.292973 | 2.0 | 16.048 | 2 | 42.097 | 16.207 | 33.215 | 2 |
| 2025-06-21T00:31:00 | 53.925008 | 6.293228 | 2.0 | 16.049 | 2 | 42.097 | 16.209 | 33.213 | 2 |
| 2025-06-21T00:32:00 | 53.925021 | 6.293479 | 2.0 | 16.045 | 2 | 42.099 | 16.210 | 33.214 | 2 |
| 2025-06-21T00:33:00 | 53.925023 | 6.293732 | 2.0 | 16.049 | 2 | 42.097 | 16.207 | 33.215 | 2 |
| 2025-06-21T00:34:00 | 53.925052 | 6.294003 | 2.0 | 16.048 | 2 | 42.096 | 16.209 | 33.212 | 2 |
| 2025-06-21T00:35:00 | 53.925063 | 6.294295 | 2.0 | 16.047 | 2 | 42.096 | 16.209 | 33.212 | 2 |
| 2025-06-21T00:36:00 | 53.925058 | 6.294596 | 2.0 | 16.046 | 2 | 42.094 | 16.208 | 33.211 | 2 |
| 2025-06-21T00:37:00 | 53.925071 | 6.294923 | 2.0 | 16.049 | 2 | 42.090 | 16.208 | 33.208 | 2 |
| 2025-06-21T00:38:00 | 53.925080 | 6.295248 | 2.0 | 16.050 | 2 | 42.092 | 16.210 | 33.208 | 2 |
| 2025-06-21T00:39:00 | 53.925058 | 6.295544 | 2.0 | 16.053 | 2 | 42.094 | 16.212 | 33.208 | 2 |
| 2025-06-21T00:40:00 | 53.925019 | 6.295801 | 2.0 | 16.053 | 2 | 42.095 | 16.214 | 33.207 | 2 |
| 2025-06-21T00:41:00 | 53.924991 | 6.296104 | 2.0 | 16.053 | 2 | 42.094 | 16.213 | 33.207 | 2 |
| 2025-06-21T00:42:00 | 53.924960 | 6.296424 | 2.0 | 16.056 | 2 | 42.094 | 16.215 | 33.206 | 2 |
| 2025-06-21T00:43:00 | 53.924898 | 6.296716 | 2.0 | 16.053 | 2 | 42.095 | 16.216 | 33.206 | 2 |
| 2025-06-21T00:44:00 | 53.924841 | 6.297025 | 2.0 | 16.053 | 2 | 42.095 | 16.216 | 33.206 | 2 |
| 2025-06-21T00:45:00 | 53.924802 | 6.297376 | 2.0 | 16.056 | 2 | 42.094 | 16.215 | 33.206 | 2 |
| 2025-06-21T00:46:00 | 53.924756 | 6.297704 | 2.0 | 16.056 | 2 | 42.096 | 16.217 | 33.206 | 2 |
| 2025-06-21T00:47:00 | 53.924726 | 6.297968 | 2.0 | 16.054 | 2 | 42.097 | 16.217 | 33.207 | 2 |
| 2025-06-21T00:48:00 | 53.924709 | 6.298182 | 2.0 | 16.054 | 2 | 42.095 | 16.215 | 33.207 | 2 |
| 2025-06-21T00:49:00 | 53.924707 | 6.298353 | 2.0 | 16.056 | 2 | 42.095 | 16.215 | 33.207 | 2 |
| 2025-06-21T00:50:00 | 53.924719 | 6.298495 | 2.0 | 16.056 | 2 | 42.098 | 16.218 | 33.207 | 2 |
| 2025-06-21T00:51:00 | 53.924755 | 6.298619 | 2.0 | 16.055 | 2 | 42.099 | 16.218 | 33.208 | 2 |
| 2025-06-21T00:52:00 | 53.924814 | 6.298743 | 2.0 | 16.053 | 2 | 42.096 | 16.215 | 33.207 | 2 |
| 2025-06-21T00:53:00 | 53.924878 | 6.298952 | 2.0 | 16.055 | 2 | 42.094 | 16.213 | 33.207 | 2 |
| 2025-06-21T00:54:00 | 53.924908 | 6.299207 | 2.0 | 16.056 | 2 | 42.097 | 16.217 | 33.207 | 2 |
| 2025-06-21T00:55:00 | 53.924881 | 6.299414 | 2.0 | 16.055 | 2 | 42.099 | 16.217 | 33.208 | 2 |
| 2025-06-21T00:56:00 | 53.924862 | 6.299539 | 2.0 | 16.056 | 2 | 42.097 | 16.216 | 33.207 | 2 |
| 2025-06-21T00:57:00 | 53.924863 | 6.299585 | 2.0 | 16.051 | 2 | 42.098 | 16.216 | 33.208 | 2 |
| 2025-06-21T00:58:00 | 53.924881 | 6.299553 | 2.0 | 16.045 | 2 | 42.094 | 16.210 | 33.210 | 2 |
| 2025-06-21T00:59:00 | 53.924925 | 6.299465 | 2.0 | 16.045 | 2 | 42.091 | 16.206 | 33.211 | 2 |
| 2025-06-21T01:00:00 | 53.924985 | 6.299347 | 2.0 | 16.045 | 2 | 42.090 | 16.205 | 33.210 | 2 |
| 2025-06-21T01:01:00 | 53.925064 | 6.299227 | 2.0 | 16.044 | 2 | 42.092 | 16.205 | 33.212 | 2 |
| 2025-06-21T01:02:00 | 53.925153 | 6.299119 | 2.0 | 16.042 | 2 | 42.092 | 16.204 | 33.213 | 2 |
| 2025-06-21T01:03:00 | 53.925249 | 6.299024 | 2.0 | 16.043 | 2 | 42.092 | 16.203 | 33.214 | 2 |
| 2025-06-21T01:04:00 | 53.925350 | 6.298940 | 2.0 | 16.039 | 2 | 42.092 | 16.203 | 33.214 | 2 |
| 2025-06-21T01:05:00 | 53.925458 | 6.298872 | 2.0 | 16.040 | 2 | 42.090 | 16.200 | 33.215 | 2 |
| 2025-06-21T01:06:00 | 53.925578 | 6.298819 | 2.0 | 16.036 | 2 | 42.090 | 16.199 | 33.215 | 2 |
| 2025-06-21T01:07:00 | 53.925708 | 6.298773 | 2.0 | 16.041 | 2 | 42.089 | 16.198 | 33.215 | 2 |
| 2025-06-21T01:08:00 | 53.925851 | 6.298737 | 2.0 | 16.039 | 2 | 42.093 | 16.202 | 33.216 | 2 |
| 2025-06-21T01:09:00 | 53.925999 | 6.298705 | 2.0 | 16.036 | 2 | 42.091 | 16.199 | 33.216 | 2 |
| 2025-06-21T01:10:00 | 53.926152 | 6.298681 | 2.0 | 16.041 | 2 | 42.090 | 16.198 | 33.216 | 2 |
| 2025-06-21T01:11:00 | 53.926308 | 6.298665 | 2.0 | 16.034 | 2 | 42.092 | 16.200 | 33.216 | 2 |
| 2025-06-21T01:12:00 | 53.926463 | 6.298662 | 2.0 | 16.032 | 2 | 42.087 | 16.196 | 33.215 | 2 |
| 2025-06-21T01:13:00 | 53.926623 | 6.298664 | 2.0 | 16.034 | 2 | 42.086 | 16.193 | 33.217 | 2 |
| 2025-06-21T01:14:00 | 53.926792 | 6.298676 | 2.0 | 16.036 | 2 | 42.089 | 16.195 | 33.218 | 2 |
| 2025-06-21T01:15:00 | 53.926956 | 6.298687 | 2.0 | 16.035 | 2 | 42.089 | 16.195 | 33.218 | 2 |
| 2025-06-21T01:16:00 | 53.927124 | 6.298703 | 2.0 | 16.034 | 2 | 42.089 | 16.196 | 33.217 | 2 |
| 2025-06-21T01:17:00 | 53.927299 | 6.298732 | 2.0 | 16.033 | 2 | 42.088 | 16.196 | 33.216 | 2 |
| 2025-06-21T01:18:00 | 53.927477 | 6.298768 | 2.0 | 16.032 | 2 | 42.085 | 16.193 | 33.216 | 2 |
| 2025-06-21T01:19:00 | 53.927660 | 6.298807 | 2.0 | 16.032 | 2 | 42.084 | 16.193 | 33.215 | 2 |
| 2025-06-21T01:20:00 | 53.927847 | 6.298851 | 2.0 | 16.030 | 2 | 42.085 | 16.193 | 33.216 | 2 |
| 2025-06-21T01:21:00 | 53.928036 | 6.298902 | 2.0 | 16.030 | 2 | 42.085 | 16.191 | 33.218 | 2 |
| 2025-06-21T01:22:00 | 53.928227 | 6.298960 | 2.0 | 16.023 | 2 | 42.085 | 16.190 | 33.219 | 2 |
| 2025-06-21T01:23:00 | 53.928418 | 6.299026 | 2.0 | 16.031 | 2 | 42.080 | 16.185 | 33.218 | 2 |
| 2025-06-21T01:24:00 | 53.928608 | 6.299099 | 2.0 | 16.028 | 2 | 42.086 | 16.191 | 33.219 | 2 |
| 2025-06-21T01:25:00 | 53.928799 | 6.299177 | 2.0 | 16.023 | 2 | 42.084 | 16.188 | 33.219 | 2 |
| 2025-06-21T01:26:00 | 53.928991 | 6.299258 | 2.0 | 16.021 | 2 | 42.080 | 16.184 | 33.219 | 2 |
| 2025-06-21T01:27:00 | 53.929185 | 6.299344 | 2.0 | 16.007 | 2 | 42.079 | 16.183 | 33.219 | 2 |
| 2025-06-21T01:28:00 | 53.929381 | 6.299438 | 2.0 | 16.011 | 2 | 42.066 | 16.168 | 33.220 | 2 |
| 2025-06-21T01:29:00 | 53.929576 | 6.299532 | 2.0 | 16.006 | 2 | 42.072 | 16.175 | 33.220 | 2 |
| 2025-06-21T01:30:00 | 53.929773 | 6.299635 | 2.0 | 16.006 | 2 | 42.065 | 16.166 | 33.221 | 2 |
| 2025-06-21T01:31:00 | 53.929977 | 6.299738 | 2.0 | 16.007 | 2 | 42.068 | 16.169 | 33.221 | 2 |
| 2025-06-21T01:32:00 | 53.930188 | 6.299848 | 2.0 | 16.008 | 2 | 42.068 | 16.168 | 33.222 | 2 |
| 2025-06-21T01:33:00 | 53.930400 | 6.299967 | 2.0 | 16.000 | 2 | 42.068 | 16.166 | 33.224 | 2 |
| 2025-06-21T01:34:00 | 53.930607 | 6.300090 | 2.0 | 16.002 | 2 | 42.063 | 16.161 | 33.223 | 2 |
| 2025-06-21T01:35:00 | 53.930817 | 6.300215 | 2.0 | 16.004 | 2 | 42.066 | 16.162 | 33.225 | 2 |
| 2025-06-21T01:36:00 | 53.931025 | 6.300347 | 2.0 | 16.001 | 2 | 42.071 | 16.164 | 33.228 | 2 |
| 2025-06-21T01:37:00 | 53.931228 | 6.300488 | 2.0 | 15.987 | 2 | 42.065 | 16.158 | 33.228 | 2 |
| 2025-06-21T01:38:00 | 53.931444 | 6.300637 | 2.0 | 15.983 | 2 | 42.055 | 16.147 | 33.228 | 2 |
| 2025-06-21T01:39:00 | 53.931663 | 6.300775 | 2.0 | 15.990 | 2 | 42.053 | 16.144 | 33.229 | 2 |
| 2025-06-21T01:40:00 | 53.931883 | 6.300910 | 2.0 | 15.981 | 2 | 42.056 | 16.147 | 33.229 | 2 |
| 2025-06-21T01:41:00 | 53.932104 | 6.301055 | 2.0 | 15.997 | 2 | 42.053 | 16.146 | 33.227 | 2 |
| 2025-06-21T01:42:00 | 53.932329 | 6.301214 | 2.0 | 15.981 | 2 | 42.058 | 16.152 | 33.227 | 2 |
| 2025-06-21T01:43:00 | 53.932553 | 6.301379 | 2.0 | 15.977 | 2 | 42.044 | 16.137 | 33.227 | 2 |
| 2025-06-21T01:44:00 | 53.932774 | 6.301550 | 2.0 | 15.989 | 2 | 42.045 | 16.141 | 33.224 | 2 |
| 2025-06-21T01:45:00 | 53.932995 | 6.301730 | 2.0 | 15.972 | 2 | 42.049 | 16.145 | 33.224 | 2 |
| 2025-06-21T01:46:00 | 53.933217 | 6.301919 | 2.0 | 15.968 | 2 | 42.038 | 16.133 | 33.225 | 2 |
| 2025-06-21T01:47:00 | 53.933441 | 6.302110 | 2.0 | 15.950 | 2 | 42.028 | 16.126 | 33.222 | 2 |
| 2025-06-21T01:48:00 | 53.933661 | 6.302306 | 2.0 | 15.953 | 2 | 42.020 | 16.112 | 33.226 | 2 |
| 2025-06-21T01:49:00 | 53.933877 | 6.302503 | 2.0 | 15.936 | 2 | 42.024 | 16.110 | 33.232 | 2 |
| 2025-06-21T01:50:00 | 53.934086 | 6.302703 | 2.0 | 15.929 | 2 | 42.016 | 16.096 | 33.236 | 2 |
| 2025-06-21T01:51:00 | 53.934299 | 6.302912 | 2.0 | 15.945 | 2 | 42.015 | 16.093 | 33.238 | 2 |
| 2025-06-21T01:52:00 | 53.934507 | 6.303133 | 2.0 | 15.936 | 2 | 42.035 | 16.103 | 33.247 | 2 |
| 2025-06-21T01:53:00 | 53.934710 | 6.303362 | 2.0 | 15.943 | 2 | 42.032 | 16.096 | 33.250 | 2 |
| 2025-06-21T01:54:00 | 53.934909 | 6.303598 | 2.0 | 15.938 | 2 | 42.040 | 16.104 | 33.251 | 2 |
| 2025-06-21T01:55:00 | 53.935113 | 6.303833 | 2.0 | 15.928 | 2 | 42.029 | 16.090 | 33.253 | 2 |
| 2025-06-21T01:56:00 | 53.935317 | 6.304073 | 2.0 | 15.939 | 2 | 42.028 | 16.095 | 33.248 | 2 |
| 2025-06-21T01:57:00 | 53.935522 | 6.304319 | 2.0 | 15.928 | 2 | 42.029 | 16.093 | 33.250 | 2 |
| 2025-06-21T01:58:00 | 53.935722 | 6.304568 | 2.0 | 15.929 | 2 | 42.027 | 16.087 | 33.254 | 2 |
| 2025-06-21T01:59:00 | 53.935929 | 6.304820 | 2.0 | 15.926 | 2 | 42.029 | 16.089 | 33.254 | 2 |
| 2025-06-21T02:00:00 | 53.936133 | 6.305074 | 2.0 | 15.923 | 2 | 42.026 | 16.083 | 33.256 | 2 |
| 2025-06-21T02:01:00 | 53.936330 | 6.305333 | 2.0 | 15.937 | 2 | 42.032 | 16.087 | 33.258 | 2 |
| 2025-06-21T02:02:00 | 53.936524 | 6.305591 | 2.0 | 15.927 | 2 | 42.036 | 16.089 | 33.260 | 2 |
| 2025-06-21T02:03:00 | 53.936722 | 6.305854 | 2.0 | 15.916 | 2 | 42.033 | 16.085 | 33.261 | 2 |
| 2025-06-21T02:04:00 | 53.936920 | 6.306128 | 2.0 | 15.935 | 2 | 42.030 | 16.082 | 33.260 | 2 |
| 2025-06-21T02:05:00 | 53.937121 | 6.306398 | 2.0 | 15.940 | 2 | 42.040 | 16.091 | 33.262 | 2 |
| 2025-06-21T02:06:00 | 53.937321 | 6.306668 | 2.0 | 15.925 | 2 | 42.041 | 16.093 | 33.261 | 2 |
| 2025-06-21T02:07:00 | 53.937516 | 6.306938 | 2.0 | 15.921 | 2 | 42.034 | 16.084 | 33.262 | 2 |
| 2025-06-21T02:08:00 | 53.937715 | 6.307214 | 2.0 | 15.930 | 2 | 42.035 | 16.086 | 33.261 | 2 |
| 2025-06-21T02:09:00 | 53.937919 | 6.307493 | 2.0 | 15.918 | 2 | 42.040 | 16.089 | 33.263 | 2 |
| 2025-06-21T02:10:00 | 53.938119 | 6.307780 | 2.0 | 15.900 | 2 | 42.025 | 16.071 | 33.265 | 2 |
| 2025-06-21T02:11:00 | 53.938320 | 6.308067 | 2.0 | 15.913 | 2 | 42.021 | 16.070 | 33.262 | 2 |
| 2025-06-21T02:12:00 | 53.938522 | 6.308357 | 2.0 | 15.912 | 2 | 42.023 | 16.072 | 33.263 | 2 |
| 2025-06-21T02:13:00 | 53.938726 | 6.308642 | 2.0 | 15.925 | 2 | 42.025 | 16.073 | 33.264 | 2 |
| 2025-06-21T02:14:00 | 53.938930 | 6.308923 | 2.0 | 15.914 | 2 | 42.035 | 16.081 | 33.266 | 2 |
| 2025-06-21T02:15:00 | 53.939131 | 6.309211 | 2.0 | 15.898 | 2 | 42.024 | 16.069 | 33.266 | 2 |
| 2025-06-21T02:16:00 | 53.939325 | 6.309501 | 2.0 | 15.910 | 2 | 42.018 | 16.062 | 33.267 | 2 |
| 2025-06-21T02:17:00 | 53.939513 | 6.309798 | 2.0 | 15.912 | 2 | 42.029 | 16.073 | 33.267 | 2 |
| 2025-06-21T02:18:00 | 53.939697 | 6.310108 | 2.0 | 15.919 | 2 | 42.031 | 16.071 | 33.270 | 2 |
| 2025-06-21T02:19:00 | 53.939881 | 6.310415 | 2.0 | 15.918 | 2 | 42.038 | 16.078 | 33.271 | 2 |
| 2025-06-21T02:20:00 | 53.940067 | 6.310720 | 2.0 | 15.921 | 2 | 42.039 | 16.078 | 33.272 | 2 |
| 2025-06-21T02:21:00 | 53.940254 | 6.311025 | 2.0 | 15.893 | 2 | 42.039 | 16.080 | 33.270 | 2 |
| 2025-06-21T02:22:00 | 53.940436 | 6.311328 | 2.0 | 15.889 | 2 | 42.006 | 16.050 | 33.266 | 2 |
| 2025-06-21T02:23:00 | 53.940620 | 6.311632 | 2.0 | 15.907 | 2 | 42.007 | 16.053 | 33.264 | 2 |
| 2025-06-21T02:24:00 | 53.940801 | 6.311940 | 2.0 | 15.911 | 2 | 42.023 | 16.067 | 33.267 | 2 |
| 2025-06-21T02:25:00 | 53.940978 | 6.312251 | 2.0 | 15.914 | 2 | 42.031 | 16.073 | 33.269 | 2 |
| 2025-06-21T02:26:00 | 53.941153 | 6.312569 | 2.0 | 15.904 | 2 | 42.030 | 16.071 | 33.270 | 2 |
| 2025-06-21T02:27:00 | 53.941330 | 6.312884 | 2.0 | 15.908 | 2 | 42.027 | 16.065 | 33.272 | 2 |
| 2025-06-21T02:28:00 | 53.941501 | 6.313204 | 2.0 | 15.913 | 2 | 42.030 | 16.068 | 33.272 | 2 |
| 2025-06-21T02:29:00 | 53.941676 | 6.313523 | 2.0 | 15.911 | 2 | 42.035 | 16.073 | 33.272 | 2 |
| 2025-06-21T02:30:00 | 53.941852 | 6.313838 | 2.0 | 15.902 | 2 | 42.032 | 16.068 | 33.274 | 2 |
| 2025-06-21T02:31:00 | 53.942022 | 6.314154 | 2.0 | 15.889 | 2 | 42.026 | 16.063 | 33.273 | 2 |
| 2025-06-21T02:32:00 | 53.942192 | 6.314481 | 2.0 | 15.876 | 2 | 42.008 | 16.043 | 33.274 | 2 |
| 2025-06-21T02:33:00 | 53.942364 | 6.314802 | 2.0 | 15.888 | 2 | 41.997 | 16.033 | 33.272 | 2 |
| 2025-06-21T02:34:00 | 53.942538 | 6.315127 | 2.0 | 15.899 | 2 | 42.012 | 16.053 | 33.269 | 2 |
| 2025-06-21T02:35:00 | 53.942710 | 6.315453 | 2.0 | 15.909 | 2 | 42.023 | 16.063 | 33.270 | 2 |
| 2025-06-21T02:36:00 | 53.942880 | 6.315781 | 2.0 | 15.897 | 2 | 42.029 | 16.070 | 33.270 | 2 |
| 2025-06-21T02:37:00 | 53.943053 | 6.316105 | 2.0 | 15.907 | 2 | 42.017 | 16.055 | 33.272 | 2 |
| 2025-06-21T02:38:00 | 53.943227 | 6.316428 | 2.0 | 15.893 | 2 | 42.022 | 16.064 | 33.268 | 2 |
| 2025-06-21T02:39:00 | 53.943393 | 6.316757 | 2.0 | 15.887 | 2 | 42.011 | 16.049 | 33.271 | 2 |
| 2025-06-21T02:40:00 | 53.943559 | 6.317082 | 2.0 | 15.909 | 2 | 42.012 | 16.052 | 33.270 | 2 |
| 2025-06-21T02:41:00 | 53.943729 | 6.317404 | 2.0 | 15.912 | 2 | 42.026 | 16.067 | 33.269 | 2 |
| 2025-06-21T02:42:00 | 53.943895 | 6.317715 | 2.0 | 15.900 | 2 | 42.031 | 16.070 | 33.271 | 2 |
| 2025-06-21T02:43:00 | 53.944063 | 6.318028 | 2.0 | 15.910 | 2 | 42.025 | 16.063 | 33.272 | 2 |
| 2025-06-21T02:44:00 | 53.944228 | 6.318341 | 2.0 | 15.888 | 2 | 42.028 | 16.068 | 33.270 | 2 |
| 2025-06-21T02:45:00 | 53.944388 | 6.318658 | 2.0 | 15.910 | 2 | 42.015 | 16.052 | 33.272 | 2 |
| 2025-06-21T02:46:00 | 53.944546 | 6.318980 | 2.0 | 15.896 | 2 | 42.026 | 16.063 | 33.273 | 2 |
| 2025-06-21T02:47:00 | 53.944699 | 6.319299 | 2.0 | 15.891 | 2 | 42.018 | 16.055 | 33.272 | 2 |
| 2025-06-21T02:48:00 | 53.944849 | 6.319617 | 2.0 | 15.901 | 2 | 42.014 | 16.050 | 33.273 | 2 |
| 2025-06-21T02:49:00 | 53.944998 | 6.319929 | 2.0 | 15.905 | 2 | 42.024 | 16.061 | 33.273 | 2 |
| 2025-06-21T02:50:00 | 53.945149 | 6.320233 | 2.0 | 15.904 | 2 | 42.027 | 16.064 | 33.273 | 2 |
| 2025-06-21T02:51:00 | 53.945301 | 6.320539 | 2.0 | 15.901 | 2 | 42.027 | 16.066 | 33.271 | 2 |
| 2025-06-21T02:52:00 | 53.945453 | 6.320838 | 2.0 | 15.900 | 2 | 42.026 | 16.062 | 33.274 | 2 |
| 2025-06-21T02:53:00 | 53.945608 | 6.321137 | 2.0 | 15.895 | 2 | 42.024 | 16.059 | 33.274 | 2 |
| 2025-06-21T02:54:00 | 53.945762 | 6.321447 | 2.0 | 15.902 | 2 | 42.022 | 16.057 | 33.274 | 2 |
| 2025-06-21T02:55:00 | 53.945915 | 6.321758 | 2.0 | 15.897 | 2 | 42.027 | 16.062 | 33.274 | 2 |
| 2025-06-21T02:56:00 | 53.946062 | 6.322071 | 2.0 | 15.899 | 2 | 42.027 | 16.060 | 33.276 | 2 |
| 2025-06-21T02:57:00 | 53.946207 | 6.322387 | 2.0 | 15.911 | 2 | 42.027 | 16.060 | 33.276 | 2 |
| 2025-06-21T02:58:00 | 53.946348 | 6.322690 | 2.0 | 15.903 | 2 | 42.037 | 16.069 | 33.277 | 2 |
| 2025-06-21T02:59:00 | 53.946484 | 6.323005 | 2.0 | 15.910 | 2 | 42.032 | 16.065 | 33.276 | 2 |
| 2025-06-21T03:00:00 | 53.946621 | 6.323324 | 2.0 | 15.912 | 2 | 42.034 | 16.070 | 33.274 | 2 |
| 2025-06-21T03:01:00 | 53.946761 | 6.323638 | 2.0 | 15.910 | 2 | 42.034 | 16.071 | 33.273 | 2 |
| 2025-06-21T03:02:00 | 53.946901 | 6.323949 | 2.0 | 15.902 | 2 | 42.033 | 16.069 | 33.274 | 2 |
| 2025-06-21T03:03:00 | 53.947037 | 6.324258 | 2.0 | 15.908 | 2 | 42.027 | 16.063 | 33.274 | 2 |
| 2025-06-21T03:04:00 | 53.947178 | 6.324567 | 2.0 | 15.911 | 2 | 42.034 | 16.070 | 33.274 | 2 |
| 2025-06-21T03:05:00 | 53.947311 | 6.324878 | 2.0 | 15.921 | 2 | 42.038 | 16.075 | 33.273 | 2 |
| 2025-06-21T03:06:00 | 53.947441 | 6.325193 | 2.0 | 15.918 | 2 | 42.043 | 16.080 | 33.274 | 2 |
| 2025-06-21T03:07:00 | 53.947571 | 6.325513 | 2.0 | 15.916 | 2 | 42.040 | 16.077 | 33.273 | 2 |
| 2025-06-21T03:08:00 | 53.947697 | 6.325831 | 2.0 | 15.914 | 2 | 42.039 | 16.075 | 33.274 | 2 |
| 2025-06-21T03:09:00 | 53.947825 | 6.326155 | 2.0 | 15.908 | 2 | 42.038 | 16.073 | 33.275 | 2 |
| 2025-06-21T03:10:00 | 53.947952 | 6.326483 | 2.0 | 15.906 | 2 | 42.034 | 16.069 | 33.275 | 2 |
| 2025-06-21T03:11:00 | 53.948079 | 6.326817 | 2.0 | 15.909 | 2 | 42.034 | 16.069 | 33.275 | 2 |
| 2025-06-21T03:12:00 | 53.948205 | 6.327147 | 2.0 | 15.915 | 2 | 42.033 | 16.069 | 33.274 | 2 |
| 2025-06-21T03:13:00 | 53.948324 | 6.327477 | 2.0 | 15.915 | 2 | 42.040 | 16.076 | 33.274 | 2 |
| 2025-06-21T03:14:00 | 53.948439 | 6.327804 | 2.0 | 15.917 | 2 | 42.042 | 16.076 | 33.276 | 2 |
| 2025-06-21T03:15:00 | 53.948549 | 6.328127 | 2.0 | 15.909 | 2 | 42.042 | 16.076 | 33.276 | 2 |
| 2025-06-21T03:16:00 | 53.948661 | 6.328459 | 2.0 | 15.905 | 2 | 42.037 | 16.070 | 33.277 | 2 |
| 2025-06-21T03:17:00 | 53.948770 | 6.328787 | 2.0 | 15.901 | 2 | 42.033 | 16.065 | 33.277 | 2 |
| 2025-06-21T03:18:00 | 53.948872 | 6.329107 | 2.0 | 15.902 | 2 | 42.030 | 16.060 | 33.279 | 2 |
| 2025-06-21T03:19:00 | 53.948976 | 6.329429 | 2.0 | 15.905 | 2 | 42.031 | 16.062 | 33.278 | 2 |
| 2025-06-21T03:20:00 | 53.949083 | 6.329749 | 2.0 | 15.903 | 2 | 42.035 | 16.066 | 33.278 | 2 |
| 2025-06-21T03:21:00 | 53.949191 | 6.330072 | 2.0 | 15.899 | 2 | 42.033 | 16.062 | 33.280 | 2 |
| 2025-06-21T03:22:00 | 53.949289 | 6.330392 | 2.0 | 15.901 | 2 | 42.030 | 16.059 | 33.280 | 2 |
| 2025-06-21T03:23:00 | 53.949383 | 6.330711 | 2.0 | 15.905 | 2 | 42.031 | 16.062 | 33.278 | 2 |
| 2025-06-21T03:24:00 | 53.949479 | 6.331027 | 2.0 | 15.907 | 2 | 42.036 | 16.066 | 33.279 | 2 |
| 2025-06-21T03:25:00 | 53.949580 | 6.331341 | 2.0 | 15.906 | 2 | 42.036 | 16.067 | 33.278 | 2 |
| 2025-06-21T03:26:00 | 53.949679 | 6.331644 | 2.0 | 15.907 | 2 | 42.037 | 16.066 | 33.280 | 2 |
| 2025-06-21T03:27:00 | 53.949784 | 6.331947 | 2.0 | 15.897 | 2 | 42.036 | 16.064 | 33.281 | 2 |
| 2025-06-21T03:28:00 | 53.949891 | 6.332245 | 2.0 | 15.892 | 2 | 42.031 | 16.058 | 33.281 | 2 |
| 2025-06-21T03:29:00 | 53.949994 | 6.332548 | 2.0 | 15.884 | 2 | 42.023 | 16.048 | 33.283 | 2 |
| 2025-06-21T03:30:00 | 53.950095 | 6.332850 | 2.0 | 15.893 | 2 | 42.022 | 16.048 | 33.282 | 2 |
| 2025-06-21T03:31:00 | 53.950207 | 6.333156 | 2.0 | 15.891 | 2 | 42.028 | 16.052 | 33.284 | 2 |
| 2025-06-21T03:32:00 | 53.950311 | 6.333457 | 2.0 | 15.887 | 2 | 42.025 | 16.051 | 33.282 | 2 |
| 2025-06-21T03:33:00 | 53.950419 | 6.333756 | 2.0 | 15.881 | 2 | 42.023 | 16.048 | 33.283 | 2 |
| 2025-06-21T03:34:00 | 53.950521 | 6.334060 | 2.0 | 15.880 | 2 | 42.017 | 16.040 | 33.284 | 2 |
| 2025-06-21T03:35:00 | 53.950632 | 6.334373 | 2.0 | 15.889 | 2 | 42.019 | 16.043 | 33.283 | 2 |
| 2025-06-21T03:36:00 | 53.950730 | 6.334683 | 2.0 | 15.890 | 2 | 42.028 | 16.049 | 33.286 | 2 |
| 2025-06-21T03:37:00 | 53.950826 | 6.334997 | 2.0 | 15.875 | 2 | 42.027 | 16.047 | 33.287 | 2 |
| 2025-06-21T03:38:00 | 53.950915 | 6.335303 | 2.0 | 15.878 | 2 | 42.016 | 16.035 | 33.287 | 2 |
| 2025-06-21T03:39:00 | 53.951009 | 6.335607 | 2.0 | 15.881 | 2 | 42.019 | 16.040 | 33.286 | 2 |
| 2025-06-21T03:40:00 | 53.951101 | 6.335911 | 2.0 | 15.885 | 2 | 42.022 | 16.042 | 33.287 | 2 |
| 2025-06-21T03:41:00 | 53.951189 | 6.336214 | 2.0 | 15.884 | 2 | 42.026 | 16.046 | 33.287 | 2 |
| 2025-06-21T03:42:00 | 53.951282 | 6.336521 | 2.0 | 15.880 | 2 | 42.023 | 16.042 | 33.288 | 2 |
| 2025-06-21T03:43:00 | 53.951355 | 6.336820 | 2.0 | 15.877 | 2 | 42.022 | 16.041 | 33.288 | 2 |
| 2025-06-21T03:44:00 | 53.951433 | 6.337120 | 2.0 | 15.877 | 2 | 42.019 | 16.038 | 33.288 | 2 |
| 2025-06-21T03:45:00 | 53.951492 | 6.337418 | 2.0 | 15.877 | 2 | 42.019 | 16.037 | 33.288 | 2 |
| 2025-06-21T03:46:00 | 53.951577 | 6.337720 | 2.0 | 15.871 | 2 | 42.021 | 16.037 | 33.290 | 2 |
| 2025-06-21T03:47:00 | 53.951633 | 6.338020 | 2.0 | 15.875 | 2 | 42.018 | 16.033 | 33.291 | 2 |
| 2025-06-21T03:48:00 | 53.951700 | 6.338320 | 2.0 | 15.877 | 2 | 42.020 | 16.036 | 33.290 | 2 |
| 2025-06-21T03:49:00 | 53.951788 | 6.338629 | 2.0 | 15.877 | 2 | 42.021 | 16.036 | 33.291 | 2 |
| 2025-06-21T03:50:00 | 53.951849 | 6.338938 | 2.0 | 15.883 | 2 | 42.023 | 16.039 | 33.290 | 2 |
| 2025-06-21T03:51:00 | 53.951915 | 6.339244 | 2.0 | 15.878 | 2 | 42.027 | 16.041 | 33.292 | 2 |
| 2025-06-21T03:52:00 | 53.951987 | 6.339547 | 2.0 | 15.882 | 2 | 42.024 | 16.038 | 33.292 | 2 |
| 2025-06-21T03:53:00 | 53.952049 | 6.339852 | 2.0 | 15.885 | 2 | 42.029 | 16.042 | 33.293 | 2 |
| 2025-06-21T03:54:00 | 53.952112 | 6.340156 | 2.0 | 15.886 | 2 | 42.032 | 16.044 | 33.294 | 2 |
| 2025-06-21T03:55:00 | 53.952191 | 6.340453 | 2.0 | 15.880 | 2 | 42.033 | 16.045 | 33.294 | 2 |
| 2025-06-21T03:56:00 | 53.952266 | 6.340756 | 2.0 | 15.876 | 2 | 42.028 | 16.039 | 33.295 | 2 |
| 2025-06-21T03:57:00 | 53.952344 | 6.341060 | 2.0 | 15.876 | 2 | 42.025 | 16.037 | 33.294 | 2 |
| 2025-06-21T03:58:00 | 53.952420 | 6.341359 | 2.0 | 15.885 | 2 | 42.025 | 16.039 | 33.292 | 2 |
| 2025-06-21T03:59:00 | 53.952495 | 6.341653 | 2.0 | 15.880 | 2 | 42.032 | 16.044 | 33.294 | 2 |
| 2025-06-21T04:00:00 | 53.952576 | 6.341942 | 2.0 | 15.873 | 2 | 42.029 | 16.039 | 33.296 | 2 |
| 2025-06-21T04:01:00 | 53.952664 | 6.342225 | 2.0 | 15.869 | 2 | 42.025 | 16.033 | 33.297 | 2 |
| 2025-06-21T04:02:00 | 53.952751 | 6.342497 | 2.0 | 15.873 | 2 | 42.025 | 16.031 | 33.299 | 2 |
| 2025-06-21T04:03:00 | 53.952839 | 6.342761 | 2.0 | 15.871 | 2 | 42.029 | 16.033 | 33.301 | 2 |
| 2025-06-21T04:04:00 | 53.952936 | 6.343026 | 2.0 | 15.876 | 2 | 42.028 | 16.032 | 33.301 | 2 |
| 2025-06-21T04:05:00 | 53.953037 | 6.343279 | 2.0 | 15.875 | 2 | 42.030 | 16.035 | 33.300 | 2 |
| 2025-06-21T04:06:00 | 53.953140 | 6.343544 | 2.0 | 15.869 | 2 | 42.031 | 16.035 | 33.301 | 2 |
| 2025-06-21T04:07:00 | 53.953247 | 6.343806 | 2.0 | 15.872 | 2 | 42.027 | 16.030 | 33.301 | 2 |
| 2025-06-21T04:08:00 | 53.953359 | 6.344073 | 2.0 | 15.871 | 2 | 42.031 | 16.032 | 33.303 | 2 |
| 2025-06-21T04:09:00 | 53.953480 | 6.344342 | 2.0 | 15.872 | 2 | 42.030 | 16.030 | 33.304 | 2 |
| 2025-06-21T04:10:00 | 53.953603 | 6.344622 | 2.0 | 15.874 | 2 | 42.031 | 16.033 | 33.302 | 2 |
| 2025-06-21T04:11:00 | 53.953727 | 6.344902 | 2.0 | 15.869 | 2 | 42.032 | 16.033 | 33.303 | 2 |
| 2025-06-21T04:12:00 | 53.953850 | 6.345183 | 2.0 | 15.866 | 2 | 42.029 | 16.028 | 33.305 | 2 |
| 2025-06-21T04:13:00 | 53.953971 | 6.345464 | 2.0 | 15.866 | 2 | 42.026 | 16.026 | 33.304 | 2 |
| 2025-06-21T04:14:00 | 53.954091 | 6.345749 | 2.0 | 15.861 | 2 | 42.029 | 16.026 | 33.306 | 2 |
| 2025-06-21T04:15:00 | 53.954214 | 6.346032 | 2.0 | 15.868 | 2 | 42.026 | 16.022 | 33.307 | 2 |
| 2025-06-21T04:16:00 | 53.954333 | 6.346322 | 2.0 | 15.867 | 2 | 42.032 | 16.028 | 33.307 | 2 |
| 2025-06-21T04:17:00 | 53.954450 | 6.346614 | 2.0 | 15.863 | 2 | 42.033 | 16.027 | 33.309 | 2 |
| 2025-06-21T04:18:00 | 53.954568 | 6.346911 | 2.0 | 15.860 | 2 | 42.027 | 16.021 | 33.309 | 2 |
| 2025-06-21T04:19:00 | 53.954688 | 6.347205 | 2.0 | 15.863 | 2 | 42.026 | 16.021 | 33.308 | 2 |
| 2025-06-21T04:20:00 | 53.954809 | 6.347500 | 2.0 | 15.865 | 2 | 42.028 | 16.024 | 33.307 | 2 |
| 2025-06-21T04:21:00 | 53.954932 | 6.347796 | 2.0 | 15.858 | 2 | 42.029 | 16.023 | 33.309 | 2 |
| 2025-06-21T04:22:00 | 53.955058 | 6.348092 | 2.0 | 15.861 | 2 | 42.025 | 16.018 | 33.310 | 2 |
| 2025-06-21T04:23:00 | 53.955180 | 6.348385 | 2.0 | 15.859 | 2 | 42.027 | 16.020 | 33.310 | 2 |
| 2025-06-21T04:24:00 | 53.955303 | 6.348679 | 2.0 | 15.854 | 2 | 42.025 | 16.017 | 33.310 | 2 |
| 2025-06-21T04:25:00 | 53.955427 | 6.348980 | 2.0 | 15.854 | 2 | 42.023 | 16.014 | 33.311 | 2 |
| 2025-06-21T04:26:00 | 53.955550 | 6.349279 | 2.0 | 15.849 | 2 | 42.022 | 16.013 | 33.311 | 2 |
| 2025-06-21T04:27:00 | 53.955675 | 6.349575 | 2.0 | 15.847 | 2 | 42.019 | 16.008 | 33.313 | 2 |
| 2025-06-21T04:28:00 | 53.955801 | 6.349878 | 2.0 | 15.852 | 2 | 42.018 | 16.007 | 33.313 | 2 |
| 2025-06-21T04:29:00 | 53.955925 | 6.350192 | 2.0 | 15.857 | 2 | 41.923 | 16.011 | 33.225 | 2 |
| 2025-06-21T04:30:00 | 53.956052 | 6.350507 | 2.0 | 15.856 | 2 | 41.864 | 16.016 | 33.169 | 2 |
| 2025-06-21T04:31:00 | 53.956180 | 6.350824 | 2.0 | 15.851 | 2 | 41.867 | 16.014 | 33.173 | 2 |
| 2025-06-21T04:32:00 | 53.956296 | 6.351101 | 2.0 | 15.855 | 2 | 41.863 | 16.010 | 33.173 | 2 |
| 2025-06-21T04:33:00 | 53.956328 | 6.351203 | 2.0 | 15.860 | 2 | 41.861 | 16.015 | 33.167 | 2 |
| 2025-06-21T04:34:00 | 53.956238 | 6.351205 | 2.0 | 15.862 | 2 | 41.874 | 16.019 | 33.175 | 2 |
| 2025-06-21T04:35:00 | 53.956072 | 6.351076 | 2.0 | 15.859 | 2 | 41.902 | 16.020 | 33.199 | 2 |
| 2025-06-21T04:36:00 | 53.955832 | 6.350865 | 2.0 | 15.855 | 2 | 41.909 | 16.017 | 33.208 | 2 |
| 2025-06-21T04:37:00 | 53.955541 | 6.350567 | 2.0 | 15.854 | 2 | 41.895 | 16.013 | 33.199 | 2 |
| 2025-06-21T04:38:00 | 53.955203 | 6.350206 | 2.0 | 15.849 | 2 | 41.900 | 16.012 | 33.204 | 2 |
| 2025-06-21T04:39:00 | 53.954813 | 6.349678 | 2.0 | 15.849 | 2 | 41.941 | 16.008 | 33.244 | 2 |
| 2025-06-21T04:40:00 | 53.954360 | 6.349019 | 2.0 | 15.840 | 2 | 41.951 | 16.006 | 33.254 | 2 |
| 2025-06-21T04:41:00 | 53.953862 | 6.348272 | 2.0 | 15.833 | 2 | 41.949 | 16.000 | 33.257 | 2 |
| 2025-06-21T04:42:00 | 53.953329 | 6.347464 | 2.0 | 15.824 | 2 | 41.967 | 15.990 | 33.282 | 2 |
| 2025-06-21T04:43:00 | 53.952762 | 6.346570 | 2.0 | 16.127 | 2 | 41.965 | 15.986 | 33.283 | 2 |
| 2025-06-21T04:44:00 | 53.952128 | 6.345555 | 2.0 | 16.376 | 2 | 42.324 | 16.356 | 33.290 | 2 |
| 2025-06-21T04:45:00 | 53.951457 | 6.344460 | 2.0 | 16.322 | 2 | 42.488 | 16.484 | 33.327 | 2 |
| 2025-06-21T04:46:00 | 53.950764 | 6.343310 | 2.0 | 16.342 | 2 | 42.489 | 16.502 | 33.313 | 2 |
| 2025-06-21T04:47:00 | 53.950051 | 6.342134 | 2.0 | 16.242 | 2 | 42.472 | 16.449 | 33.343 | 2 |
| 2025-06-21T04:48:00 | 53.949323 | 6.340940 | 2.0 | 16.166 | 2 | 42.440 | 16.400 | 33.355 | 2 |
| 2025-06-21T04:49:00 | 53.948591 | 6.339719 | 2.0 | 16.112 | 2 | 42.391 | 16.328 | 33.373 | 2 |
| 2025-06-21T04:50:00 | 53.947879 | 6.338448 | 2.0 | 16.140 | 2 | 42.342 | 16.266 | 33.381 | 2 |
| 2025-06-21T04:51:00 | 53.947170 | 6.337182 | 2.0 | 16.118 | 2 | 42.368 | 16.281 | 33.392 | 2 |
| 2025-06-21T04:52:00 | 53.946489 | 6.335967 | 2.0 | 16.087 | 2 | 42.364 | 16.266 | 33.401 | 2 |
| 2025-06-21T04:53:00 | 53.945828 | 6.334786 | 2.0 | 16.025 | 2 | 42.355 | 16.242 | 33.413 | 2 |
| 2025-06-21T04:54:00 | 53.945184 | 6.333640 | 2.0 | 15.941 | 2 | 42.295 | 16.176 | 33.416 | 2 |
| 2025-06-21T04:55:00 | 53.944536 | 6.332508 | 2.0 | 15.885 | 2 | 42.212 | 16.086 | 33.418 | 2 |
| 2025-06-21T04:56:00 | 53.943890 | 6.331380 | 2.0 | 15.952 | 2 | 42.181 | 16.046 | 33.424 | 2 |
| 2025-06-21T04:57:00 | 53.943238 | 6.330266 | 2.0 | 16.104 | 2 | 42.268 | 16.143 | 33.419 | 2 |
| 2025-06-21T04:58:00 | 53.942584 | 6.329164 | 2.0 | 16.277 | 2 | 42.410 | 16.301 | 33.412 | 2 |
| 2025-06-21T04:59:00 | 53.941914 | 6.328031 | 2.0 | 16.433 | 2 | 42.557 | 16.450 | 33.416 | 2 |
| 2025-06-21T05:00:00 | 53.941211 | 6.326830 | 2.0 | 16.351 | 2 | 42.658 | 16.553 | 33.419 | 2 |
| 2025-06-21T05:01:00 | 53.940487 | 6.325581 | 2.0 | 16.336 | 2 | 42.639 | 16.533 | 33.419 | 2 |
| 2025-06-21T05:02:00 | 53.939750 | 6.324297 | 2.0 | 16.445 | 2 | 42.604 | 16.499 | 33.417 | 2 |
| 2025-06-21T05:03:00 | 53.939007 | 6.323001 | 2.0 | 16.421 | 2 | 42.653 | 16.568 | 33.402 | 2 |
| 2025-06-21T05:04:00 | 53.938258 | 6.321692 | 2.0 | 16.398 | 2 | 42.631 | 16.547 | 33.400 | 2 |
| 2025-06-21T05:05:00 | 53.937505 | 6.320372 | 2.0 | 16.406 | 2 | 42.632 | 16.560 | 33.390 | 2 |
| 2025-06-21T05:06:00 | 53.936788 | 6.319003 | 2.0 | 16.403 | 2 | 42.627 | 16.564 | 33.382 | 2 |
| 2025-06-21T05:07:00 | 53.936115 | 6.317699 | 2.0 | 16.366 | 2 | 42.609 | 16.558 | 33.372 | 2 |
| 2025-06-21T05:08:00 | 53.935459 | 6.316480 | 2.0 | 16.369 | 2 | 42.577 | 16.523 | 33.373 | 2 |
| 2025-06-21T05:09:00 | 53.934823 | 6.315313 | 2.0 | 16.345 | 2 | 42.571 | 16.522 | 33.368 | 2 |
| 2025-06-21T05:10:00 | 53.934204 | 6.314172 | 2.0 | 16.330 | 2 | 42.552 | 16.501 | 33.369 | 2 |
| 2025-06-21T05:11:00 | 53.933596 | 6.313040 | 2.0 | 16.325 | 2 | 42.543 | 16.490 | 33.371 | 2 |
| 2025-06-21T05:12:00 | 53.932999 | 6.311905 | 2.0 | 16.265 | 2 | 42.527 | 16.468 | 33.375 | 2 |
| 2025-06-21T05:13:00 | 53.932415 | 6.310777 | 2.0 | 16.208 | 2 | 42.483 | 16.417 | 33.379 | 2 |
| 2025-06-21T05:14:00 | 53.931834 | 6.309648 | 2.0 | 16.181 | 2 | 42.435 | 16.367 | 33.379 | 2 |
| 2025-06-21T05:15:00 | 53.931249 | 6.308514 | 2.0 | 16.194 | 2 | 42.409 | 16.350 | 33.370 | 2 |
| 2025-06-21T05:16:00 | 53.930665 | 6.307390 | 2.0 | 16.150 | 2 | 42.394 | 16.340 | 33.365 | 2 |
| 2025-06-21T05:17:00 | 53.930082 | 6.306271 | 2.0 | 16.267 | 2 | 42.370 | 16.321 | 33.360 | 2 |
| 2025-06-21T05:18:00 | 53.929495 | 6.305162 | 2.0 | 16.293 | 2 | 42.456 | 16.422 | 33.351 | 2 |
| 2025-06-21T05:19:00 | 53.928901 | 6.304072 | 2.0 | 16.265 | 2 | 42.487 | 16.441 | 33.362 | 2 |
| 2025-06-21T05:20:00 | 53.928306 | 6.302993 | 2.0 | 16.236 | 2 | 42.472 | 16.421 | 33.366 | 2 |
| 2025-06-21T05:21:00 | 53.927713 | 6.301905 | 2.0 | 16.178 | 2 | 42.443 | 16.385 | 33.371 | 2 |
| 2025-06-21T05:22:00 | 53.927131 | 6.300802 | 2.0 | 16.140 | 2 | 42.402 | 16.336 | 33.376 | 2 |
| 2025-06-21T05:23:00 | 53.926556 | 6.299694 | 2.0 | 16.097 | 2 | 42.364 | 16.295 | 33.377 | 2 |
| 2025-06-21T05:24:00 | 53.925982 | 6.298576 | 2.0 | 16.075 | 2 | 42.329 | 16.255 | 33.379 | 2 |
| 2025-06-21T05:25:00 | 53.925404 | 6.297457 | 2.0 | 16.119 | 2 | 42.315 | 16.239 | 33.380 | 2 |
| 2025-06-21T05:26:00 | 53.924819 | 6.296344 | 2.0 | 16.403 | 2 | 42.420 | 16.348 | 33.381 | 2 |
| 2025-06-21T05:27:00 | 53.924220 | 6.295243 | 2.0 | 16.450 | 2 | 42.644 | 16.554 | 33.406 | 2 |
| 2025-06-21T05:28:00 | 53.923622 | 6.294134 | 2.0 | 16.500 | 2 | 42.704 | 16.606 | 33.415 | 2 |
| 2025-06-21T05:29:00 | 53.923026 | 6.293013 | 2.0 | 16.521 | 2 | 42.752 | 16.653 | 33.417 | 2 |
| 2025-06-21T05:30:00 | 53.922432 | 6.291874 | 2.0 | 16.521 | 2 | 42.778 | 16.675 | 33.422 | 2 |
| 2025-06-21T05:31:00 | 53.921842 | 6.290717 | 2.0 | 16.505 | 2 | 42.779 | 16.673 | 33.424 | 2 |
| 2025-06-21T05:32:00 | 53.921244 | 6.289557 | 2.0 | 16.491 | 2 | 42.760 | 16.652 | 33.425 | 2 |
| 2025-06-21T05:33:00 | 53.920640 | 6.288395 | 2.0 | 16.487 | 2 | 42.753 | 16.643 | 33.427 | 2 |
| 2025-06-21T05:34:00 | 53.920024 | 6.287233 | 2.0 | 16.428 | 2 | 42.752 | 16.640 | 33.428 | 2 |
| 2025-06-21T05:35:00 | 53.919401 | 6.286072 | 2.0 | 16.348 | 2 | 42.692 | 16.572 | 33.433 | 2 |
| 2025-06-21T05:36:00 | 53.918691 | 6.285086 | 2.0 | 16.209 | 2 | 42.601 | 16.473 | 33.436 | 2 |
| 2025-06-21T05:37:00 | 53.918046 | 6.284183 | 2.0 | 16.335 | 2 | 42.542 | 16.427 | 33.422 | 2 |
| 2025-06-21T05:38:00 | 53.917479 | 6.283398 | 2.0 | 16.285 | 2 | 42.585 | 16.465 | 33.428 | 2 |
| 2025-06-21T05:39:00 | 53.916971 | 6.282690 | 2.0 | 16.238 | 2 | 42.553 | 16.433 | 33.427 | 2 |
| 2025-06-21T05:40:00 | 53.916514 | 6.282041 | 2.0 | 16.185 | 2 | 42.515 | 16.392 | 33.428 | 2 |
| 2025-06-21T05:41:00 | 53.916120 | 6.281418 | 2.0 | 16.245 | 2 | 42.469 | 16.354 | 33.419 | 2 |
| 2025-06-21T05:42:00 | 53.916121 | 6.280887 | 2.0 | 16.008 | 2 | 42.421 | 16.370 | 33.364 | 2 |
| 2025-06-21T05:43:00 | 53.916321 | 6.280521 | 2.0 | 16.161 | 2 | 42.168 | 16.184 | 33.297 | 2 |
| 2025-06-21T05:44:00 | 53.916627 | 6.280293 | 2.0 | 16.065 | 2 | 42.305 | 16.334 | 33.292 | 2 |
| 2025-06-21T05:45:00 | 53.916849 | 6.280561 | 2.0 | 16.061 | 2 | 42.181 | 16.190 | 33.303 | 2 |
| 2025-06-21T05:46:00 | 53.916966 | 6.280606 | 2.0 | 16.181 | 2 | 42.261 | 16.280 | 33.298 | 2 |
| 2025-06-21T05:47:00 | 53.917082 | 6.280389 | 2.0 | 16.087 | 2 | 42.299 | 16.332 | 33.288 | 2 |
| 2025-06-21T05:48:00 | 53.917186 | 6.280221 | 2.0 | 16.001 | 2 | 42.210 | 16.224 | 33.300 | 2 |
| 2025-06-21T05:49:00 | 53.917301 | 6.280445 | 2.0 | 15.980 | 2 | 42.124 | 16.150 | 33.286 | 2 |
| 2025-06-21T05:50:00 | 53.917297 | 6.280808 | 2.0 | 15.879 | 2 | 42.115 | 16.140 | 33.287 | 2 |
| 2025-06-21T05:51:00 | 53.917217 | 6.280945 | 2.0 | 15.877 | 2 | 42.056 | 16.028 | 33.329 | 2 |
| 2025-06-21T05:52:00 | 53.917070 | 6.280977 | 2.0 | 16.219 | 2 | 42.102 | 16.083 | 33.323 | 2 |
| 2025-06-21T05:53:00 | 53.916949 | 6.280904 | 2.0 | 16.217 | 2 | 42.362 | 16.359 | 33.321 | 2 |
| 2025-06-21T05:54:00 | 53.916837 | 6.280799 | 2.0 | 16.221 | 2 | 42.383 | 16.383 | 33.320 | 2 |
| 2025-06-21T05:55:00 | 53.916734 | 6.280708 | 2.0 | 16.245 | 2 | 42.420 | 16.396 | 33.341 | 2 |
| 2025-06-21T05:56:00 | 53.916680 | 6.280632 | 2.0 | 16.240 | 2 | 42.475 | 16.414 | 33.374 | 2 |
| 2025-06-21T05:57:00 | 53.916677 | 6.280588 | 2.0 | 16.250 | 2 | 42.474 | 16.416 | 33.372 | 2 |
| 2025-06-21T05:58:00 | 53.916663 | 6.280519 | 2.0 | 16.292 | 2 | 42.510 | 16.439 | 33.384 | 2 |
| 2025-06-21T05:59:00 | 53.916640 | 6.280438 | 2.0 | 16.256 | 2 | 42.504 | 16.465 | 33.357 | 2 |
| 2025-06-21T06:00:00 | 53.916671 | 6.280425 | 2.0 | 16.129 | 2 | 42.513 | 16.433 | 33.392 | 2 |
| 2025-06-21T06:01:00 | 53.916717 | 6.280413 | 2.0 | 16.254 | 2 | 42.399 | 16.313 | 33.392 | 2 |
| 2025-06-21T06:02:00 | 53.916735 | 6.280363 | 2.0 | 16.240 | 2 | 42.489 | 16.412 | 33.388 | 2 |
| 2025-06-21T06:03:00 | 53.916731 | 6.280313 | 2.0 | 16.231 | 2 | 42.459 | 16.416 | 33.359 | 2 |
| 2025-06-21T06:04:00 | 53.916716 | 6.280293 | 2.0 | 16.225 | 2 | 42.515 | 16.410 | 33.413 | 2 |
| 2025-06-21T06:05:00 | 53.916708 | 6.280295 | 2.0 | 16.221 | 2 | 42.507 | 16.407 | 33.408 | 2 |
| 2025-06-21T06:06:00 | 53.916693 | 6.280308 | 2.0 | 16.216 | 2 | 42.516 | 16.403 | 33.420 | 2 |
| 2025-06-21T06:07:00 | 53.916675 | 6.280325 | 2.0 | 16.260 | 2 | 42.509 | 16.401 | 33.415 | 2 |
| 2025-06-21T06:08:00 | 53.916663 | 6.280334 | 2.0 | 16.288 | 2 | 42.543 | 16.447 | 33.407 | 2 |
| 2025-06-21T06:09:00 | 53.916659 | 6.280309 | 2.0 | 16.288 | 2 | 42.566 | 16.468 | 33.409 | 2 |
| 2025-06-21T06:10:00 | 53.916659 | 6.280270 | 2.0 | 16.287 | 2 | 42.569 | 16.470 | 33.410 | 2 |
| 2025-06-21T06:11:00 | 53.916668 | 6.280225 | 2.0 | 16.223 | 2 | 42.566 | 16.457 | 33.418 | 2 |
| 2025-06-21T06:12:00 | 53.916638 | 6.280203 | 2.0 | 16.262 | 2 | 42.523 | 16.411 | 33.419 | 2 |
| 2025-06-21T06:13:00 | 53.916649 | 6.280212 | 2.0 | 16.266 | 2 | 42.539 | 16.436 | 33.412 | 2 |
| 2025-06-21T06:14:00 | 53.916686 | 6.280256 | 2.0 | 16.257 | 2 | 42.559 | 16.447 | 33.421 | 2 |
| 2025-06-21T06:15:00 | 53.916703 | 6.280336 | 2.0 | 16.245 | 2 | 42.556 | 16.440 | 33.424 | 2 |
| 2025-06-21T06:16:00 | 53.916694 | 6.280418 | 2.0 | 16.227 | 2 | 42.551 | 16.435 | 33.424 | 2 |
| 2025-06-21T06:17:00 | 53.916688 | 6.280481 | 2.0 | 15.998 | 2 | 42.506 | 16.378 | 33.432 | 2 |
| 2025-06-21T06:18:00 | 53.916693 | 6.280523 | 2.0 | 15.859 | 2 | 42.301 | 16.162 | 33.433 | 2 |
| 2025-06-21T06:19:00 | 53.916703 | 6.280543 | 2.0 | 15.918 | 2 | 42.169 | 16.036 | 33.422 | 2 |
| 2025-06-21T06:20:00 | 53.916714 | 6.280549 | 2.0 | 16.161 | 2 | 42.269 | 16.161 | 33.405 | 2 |
| 2025-06-21T06:21:00 | 53.916760 | 6.280544 | 2.0 | 16.251 | 2 | 42.456 | 16.348 | 33.413 | 2 |
| 2025-06-21T06:22:00 | 53.916809 | 6.280520 | 2.0 | 16.223 | 2 | 42.537 | 16.424 | 33.421 | 2 |
| 2025-06-21T06:23:00 | 53.916817 | 6.280495 | 2.0 | 16.227 | 2 | 42.524 | 16.406 | 33.424 | 2 |
| 2025-06-21T06:24:00 | 53.916783 | 6.280468 | 2.0 | 16.269 | 2 | 42.527 | 16.413 | 33.421 | 2 |
| 2025-06-21T06:25:00 | 53.916713 | 6.280454 | 2.0 | 16.270 | 2 | 42.568 | 16.456 | 33.421 | 2 |
| 2025-06-21T06:26:00 | 53.916686 | 6.280439 | 2.0 | 15.843 | 2 | 42.464 | 16.329 | 33.436 | 2 |
| 2025-06-21T06:27:00 | 53.916679 | 6.280423 | 2.0 | 15.834 | 2 | 42.200 | 16.059 | 33.430 | 2 |
| 2025-06-21T06:28:00 | 53.916683 | 6.280401 | 2.0 | 15.823 | 2 | 42.165 | 16.038 | 33.417 | 2 |
| 2025-06-21T06:29:00 | 53.916734 | 6.280397 | 2.0 | 15.784 | 2 | 42.135 | 16.006 | 33.417 | 2 |
| 2025-06-21T06:30:00 | 53.916789 | 6.280420 | 2.0 | 15.763 | 2 | 42.104 | 15.979 | 33.412 | 2 |
| 2025-06-21T06:31:00 | 53.916821 | 6.280454 | 2.0 | 15.765 | 2 | 42.085 | 15.957 | 33.414 | 2 |
| 2025-06-21T06:32:00 | 53.916812 | 6.280459 | 2.0 | 15.807 | 2 | 42.088 | 15.963 | 33.412 | 2 |
| 2025-06-21T06:33:00 | 53.916791 | 6.280460 | 2.0 | 15.950 | 2 | 42.130 | 16.009 | 33.410 | 2 |
| 2025-06-21T06:34:00 | 53.916776 | 6.280457 | 2.0 | 15.879 | 2 | 42.256 | 16.138 | 33.413 | 2 |
| 2025-06-21T06:35:00 | 53.916758 | 6.280451 | 2.0 | 15.894 | 2 | 42.201 | 16.073 | 33.419 | 2 |
| 2025-06-21T06:36:00 | 53.916740 | 6.280435 | 2.0 | 15.918 | 2 | 42.206 | 16.083 | 33.415 | 2 |
| 2025-06-21T06:37:00 | 53.916729 | 6.280449 | 2.0 | 15.951 | 2 | 42.230 | 16.108 | 33.415 | 2 |
| 2025-06-21T06:38:00 | 53.916735 | 6.280500 | 2.0 | 15.951 | 2 | 42.273 | 16.152 | 33.416 | 2 |
| 2025-06-21T06:39:00 | 53.916736 | 6.280524 | 2.0 | 15.805 | 2 | 42.223 | 16.090 | 33.424 | 2 |
| 2025-06-21T06:40:00 | 53.916754 | 6.280517 | 2.0 | 15.820 | 2 | 42.138 | 16.010 | 33.416 | 2 |
| 2025-06-21T06:41:00 | 53.916745 | 6.280545 | 2.0 | 15.754 | 2 | 42.127 | 15.998 | 33.417 | 2 |
| 2025-06-21T06:42:00 | 53.916752 | 6.280523 | 2.0 | 15.753 | 2 | 42.078 | 15.949 | 33.415 | 2 |
| 2025-06-21T06:43:00 | 53.916777 | 6.280454 | 2.0 | 15.742 | 2 | 42.072 | 15.945 | 33.413 | 2 |
| 2025-06-21T06:44:00 | 53.916800 | 6.280388 | 2.0 | 15.743 | 2 | 42.065 | 15.938 | 33.412 | 2 |
| 2025-06-21T06:45:00 | 53.916794 | 6.280356 | 2.0 | 15.737 | 2 | 42.060 | 15.933 | 33.412 | 2 |
| 2025-06-21T06:46:00 | 53.916791 | 6.280323 | 2.0 | 15.790 | 2 | 42.063 | 15.936 | 33.412 | 2 |
| 2025-06-21T06:47:00 | 53.916787 | 6.280294 | 2.0 | 15.889 | 2 | 42.120 | 16.000 | 33.409 | 2 |
| 2025-06-21T06:48:00 | 53.916789 | 6.280201 | 2.0 | 15.955 | 2 | 42.206 | 16.087 | 33.412 | 2 |
| 2025-06-21T06:49:00 | 53.916823 | 6.280108 | 2.0 | 15.991 | 2 | 42.269 | 16.150 | 33.414 | 2 |
| 2025-06-21T06:50:00 | 53.916877 | 6.280090 | 2.0 | 15.925 | 2 | 42.295 | 16.177 | 33.415 | 2 |
| 2025-06-21T06:51:00 | 53.916933 | 6.280112 | 2.0 | 16.008 | 2 | 42.256 | 16.130 | 33.420 | 2 |
| 2025-06-21T06:52:00 | 53.916975 | 6.280153 | 2.0 | 16.024 | 2 | 42.315 | 16.194 | 33.418 | 2 |
| 2025-06-21T06:53:00 | 53.916985 | 6.280219 | 2.0 | 16.023 | 2 | 42.333 | 16.211 | 33.420 | 2 |
| 2025-06-21T06:54:00 | 53.916976 | 6.280313 | 2.0 | 16.082 | 2 | 42.345 | 16.224 | 33.419 | 2 |
| 2025-06-21T06:55:00 | 53.916948 | 6.280399 | 2.0 | 16.010 | 2 | 42.386 | 16.264 | 33.422 | 2 |
| 2025-06-21T06:56:00 | 53.916931 | 6.280442 | 2.0 | 15.967 | 2 | 42.329 | 16.201 | 33.425 | 2 |
| 2025-06-21T06:57:00 | 53.916921 | 6.280451 | 2.0 | 16.012 | 2 | 42.307 | 16.184 | 33.419 | 2 |
| 2025-06-21T06:58:00 | 53.916920 | 6.280431 | 2.0 | 16.103 | 2 | 42.347 | 16.227 | 33.419 | 2 |
| 2025-06-21T06:59:00 | 53.916861 | 6.280502 | 2.0 | 16.120 | 2 | 42.408 | 16.291 | 33.419 | 2 |
| 2025-06-21T07:00:00 | 53.917044 | 6.280824 | 2.0 | 16.108 | 2 | 42.431 | 16.310 | 33.423 | 2 |
| 2025-06-21T07:01:00 | 53.917568 | 6.281505 | 2.0 | 16.137 | 2 | 42.422 | 16.299 | 33.424 | 2 |
| 2025-06-21T07:02:00 | 53.918512 | 6.282900 | 2.0 | 16.110 | 2 | 42.429 | 16.307 | 33.424 | 2 |
| 2025-06-21T07:03:00 | 53.920093 | 6.285401 | 2.0 | 16.143 | 2 | 42.421 | 16.305 | 33.418 | 2 |
| 2025-06-21T07:04:00 | 53.921935 | 6.288363 | 2.0 | 15.981 | 2 | 42.407 | 16.277 | 33.429 | 2 |
| 2025-06-21T07:05:00 | 53.923839 | 6.291477 | 2.0 | 16.034 | 2 | 42.312 | 16.185 | 33.423 | 2 |
| 2025-06-21T07:06:00 | 53.925799 | 6.294709 | 2.0 | 16.073 | 2 | 42.348 | 16.228 | 33.419 | 2 |
| 2025-06-21T07:07:00 | 53.927766 | 6.297964 | 2.0 | 16.135 | 2 | 42.382 | 16.264 | 33.418 | 2 |
| 2025-06-21T07:08:00 | 53.929732 | 6.301225 | 2.0 | 16.170 | 2 | 42.453 | 16.341 | 33.416 | 2 |
| 2025-06-21T07:09:00 | 53.931704 | 6.304526 | 2.0 | 16.147 | 2 | 42.442 | 16.325 | 33.420 | 2 |
| 2025-06-21T07:10:00 | 53.933658 | 6.307819 | 2.0 | 16.064 | 2 | 42.417 | 16.306 | 33.414 | 2 |
| 2025-06-21T07:11:00 | 53.935620 | 6.311130 | 2.0 | 16.010 | 2 | 42.344 | 16.238 | 33.407 | 2 |
| 2025-06-21T07:12:00 | 53.937598 | 6.314428 | 2.0 | 16.026 | 2 | 42.279 | 16.191 | 33.389 | 2 |
| 2025-06-21T07:13:00 | 53.939582 | 6.317708 | 2.0 | 16.061 | 2 | 42.284 | 16.209 | 33.378 | 2 |
| 2025-06-21T07:14:00 | 53.941560 | 6.320994 | 2.0 | 16.121 | 2 | 42.312 | 16.244 | 33.373 | 2 |
| 2025-06-21T07:15:00 | 53.943537 | 6.324263 | 2.0 | 16.164 | 2 | 42.378 | 16.302 | 33.383 | 2 |
| 2025-06-21T07:16:00 | 53.945505 | 6.327526 | 2.0 | 16.243 | 2 | 42.429 | 16.351 | 33.387 | 2 |
| 2025-06-21T07:17:00 | 53.947475 | 6.330767 | 2.0 | 16.339 | 2 | 42.493 | 16.415 | 33.389 | 2 |
| 2025-06-21T07:18:00 | 53.949452 | 6.333988 | 2.0 | 16.419 | 2 | 42.577 | 16.522 | 33.374 | 2 |
| 2025-06-21T07:19:00 | 53.951424 | 6.337195 | 2.0 | 16.434 | 2 | 42.654 | 16.578 | 33.394 | 2 |
| 2025-06-21T07:20:00 | 53.953388 | 6.340403 | 2.0 | 16.488 | 2 | 42.700 | 16.617 | 33.402 | 2 |
| 2025-06-21T07:21:00 | 53.955360 | 6.343597 | 2.0 | 16.335 | 2 | 42.720 | 16.639 | 33.401 | 2 |
| 2025-06-21T07:22:00 | 53.957438 | 6.346621 | 2.0 | 15.968 | 2 | 42.578 | 16.473 | 33.415 | 2 |
| 2025-06-21T07:23:00 | 53.959593 | 6.349563 | 2.0 | 15.786 | 2 | 42.220 | 16.094 | 33.418 | 2 |
| 2025-06-21T07:24:00 | 53.961760 | 6.352503 | 2.0 | 15.808 | 2 | 42.075 | 15.978 | 33.388 | 2 |
| 2025-06-21T07:25:00 | 53.963926 | 6.355451 | 2.0 | 15.839 | 2 | 42.067 | 15.988 | 33.372 | 2 |
| 2025-06-21T07:26:00 | 53.965844 | 6.357957 | 2.0 | 15.908 | 2 | 42.094 | 16.030 | 33.361 | 2 |
| 2025-06-21T07:27:00 | 53.967216 | 6.359874 | 2.0 | 15.939 | 2 | 42.132 | 16.078 | 33.354 | 2 |
| 2025-06-21T07:28:00 | 53.968231 | 6.361519 | 2.0 | 15.902 | 2 | 42.145 | 16.105 | 33.343 | 2 |
| 2025-06-21T07:29:00 | 53.968889 | 6.363045 | 2.0 | 15.918 | 2 | 42.100 | 16.083 | 33.321 | 2 |
| 2025-06-21T07:30:00 | 53.969097 | 6.364378 | 2.0 | 15.941 | 2 | 42.089 | 16.086 | 33.309 | 2 |
| 2025-06-21T07:31:00 | 53.969108 | 6.365442 | 2.0 | 15.944 | 2 | 42.095 | 16.106 | 33.298 | 2 |
| 2025-06-21T07:32:00 | 53.968845 | 6.365628 | 2.0 | 15.938 | 2 | 42.095 | 16.111 | 33.294 | 2 |
| 2025-06-21T07:33:00 | 53.968604 | 6.365605 | 2.0 | 15.966 | 2 | 42.094 | 16.109 | 33.294 | 2 |
| 2025-06-21T07:34:00 | 53.968387 | 6.365625 | 2.0 | 15.977 | 2 | 42.118 | 16.138 | 33.291 | 2 |
| 2025-06-21T07:35:00 | 53.968243 | 6.365685 | 2.0 | 15.981 | 2 | 42.122 | 16.139 | 33.294 | 2 |
| 2025-06-21T07:36:00 | 53.968267 | 6.365795 | 2.0 | 15.994 | 2 | 42.135 | 16.158 | 33.289 | 2 |
| 2025-06-21T07:37:00 | 53.968333 | 6.365881 | 2.0 | 15.967 | 2 | 42.134 | 16.155 | 33.291 | 2 |
| 2025-06-21T07:38:00 | 53.968409 | 6.365924 | 2.0 | 15.962 | 2 | 42.114 | 16.134 | 33.291 | 2 |
| 2025-06-21T07:39:00 | 53.968488 | 6.365920 | 2.0 | 15.949 | 2 | 42.106 | 16.124 | 33.292 | 2 |
| 2025-06-21T07:40:00 | 53.968572 | 6.365883 | 2.0 | 15.959 | 2 | 42.099 | 16.118 | 33.291 | 2 |
| 2025-06-21T07:41:00 | 53.968662 | 6.365814 | 2.0 | 15.993 | 2 | 42.104 | 16.127 | 33.288 | 2 |
| 2025-06-21T07:42:00 | 53.968695 | 6.365906 | 2.0 | 16.016 | 2 | 42.133 | 16.161 | 33.285 | 2 |
| 2025-06-21T07:43:00 | 53.968388 | 6.366235 | 2.0 | 15.954 | 2 | 42.143 | 16.169 | 33.287 | 2 |
| 2025-06-21T07:44:00 | 53.967543 | 6.367127 | 2.0 | 15.941 | 2 | 42.096 | 16.117 | 33.289 | 2 |
| 2025-06-21T07:45:00 | 53.965886 | 6.368966 | 2.0 | 15.966 | 2 | 42.093 | 16.124 | 33.281 | 2 |
| 2025-06-21T07:46:00 | 53.963897 | 6.371234 | 2.0 | 16.004 | 2 | 42.111 | 16.158 | 33.268 | 2 |
| 2025-06-21T07:47:00 | 53.961815 | 6.373613 | 2.0 | 15.981 | 2 | 42.113 | 16.169 | 33.261 | 2 |
| 2025-06-21T07:48:00 | 53.959696 | 6.376037 | 2.0 | 16.005 | 2 | 42.088 | 16.157 | 33.249 | 2 |
| 2025-06-21T07:49:00 | 53.957508 | 6.378524 | 2.0 | 16.066 | 2 | 42.101 | 16.180 | 33.241 | 2 |
| 2025-06-21T07:50:00 | 53.955304 | 6.381050 | 2.0 | 16.064 | 2 | 42.157 | 16.245 | 33.236 | 2 |
| 2025-06-21T07:51:00 | 53.953097 | 6.383605 | 2.0 | 16.025 | 2 | 42.132 | 16.215 | 33.239 | 2 |
| 2025-06-21T07:52:00 | 53.950885 | 6.386164 | 2.0 | 16.073 | 2 | 42.112 | 16.207 | 33.228 | 2 |
| 2025-06-21T07:53:00 | 53.948672 | 6.388731 | 2.0 | 16.063 | 2 | 42.134 | 16.233 | 33.226 | 2 |
| 2025-06-21T07:54:00 | 53.946457 | 6.391298 | 2.0 | 16.090 | 2 | 42.132 | 16.237 | 33.221 | 2 |
| 2025-06-21T07:55:00 | 53.944242 | 6.393860 | 2.0 | 16.074 | 2 | 42.154 | 16.263 | 33.218 | 2 |
| 2025-06-21T07:56:00 | 53.942029 | 6.396411 | 2.0 | 16.082 | 2 | 42.133 | 16.248 | 33.212 | 2 |
| 2025-06-21T07:57:00 | 53.939812 | 6.398969 | 2.0 | 16.177 | 2 | 42.136 | 16.261 | 33.204 | 2 |
| 2025-06-21T07:58:00 | 53.937602 | 6.401526 | 2.0 | 16.113 | 2 | 42.173 | 16.313 | 33.193 | 2 |
| 2025-06-21T07:59:00 | 53.935389 | 6.404066 | 2.0 | 16.125 | 2 | 42.139 | 16.295 | 33.179 | 2 |
| 2025-06-21T08:00:00 | 53.933170 | 6.406605 | 2.0 | 16.240 | 2 | 42.153 | 16.318 | 33.172 | 2 |
| 2025-06-21T08:01:00 | 53.930962 | 6.409135 | 2.0 | 16.179 | 2 | 42.208 | 16.391 | 33.159 | 2 |
| 2025-06-21T08:02:00 | 53.928757 | 6.411645 | 2.0 | 16.219 | 2 | 42.156 | 16.358 | 33.141 | 2 |
| 2025-06-21T08:03:00 | 53.926544 | 6.414147 | 2.0 | 16.293 | 2 | 42.181 | 16.396 | 33.131 | 2 |
| 2025-06-21T08:04:00 | 53.924331 | 6.416652 | 2.0 | 16.259 | 2 | 42.226 | 16.454 | 33.123 | 2 |
| 2025-06-21T08:05:00 | 53.922121 | 6.419151 | 2.0 | 16.267 | 2 | 42.191 | 16.432 | 33.110 | 2 |
| 2025-06-21T08:06:00 | 53.919908 | 6.421657 | 2.0 | 16.316 | 2 | 42.192 | 16.437 | 33.107 | 2 |
| 2025-06-21T08:07:00 | 53.917680 | 6.424145 | 2.0 | 16.312 | 2 | 42.232 | 16.484 | 33.103 | 2 |
| 2025-06-21T08:08:00 | 53.915454 | 6.426635 | 2.0 | 16.311 | 2 | 42.222 | 16.476 | 33.101 | 2 |
| 2025-06-21T08:09:00 | 53.913229 | 6.429128 | 2.0 | 16.366 | 2 | 42.226 | 16.488 | 33.095 | 2 |
| 2025-06-21T08:10:00 | 53.911003 | 6.431626 | 2.0 | 16.359 | 2 | 42.236 | 16.528 | 33.070 | 2 |
| 2025-06-21T08:11:00 | 53.908780 | 6.434136 | 2.0 | 16.354 | 2 | 42.215 | 16.530 | 33.050 | 2 |
| 2025-06-21T08:12:00 | 53.906555 | 6.436638 | 2.0 | 16.343 | 2 | 42.216 | 16.518 | 33.061 | 2 |
| 2025-06-21T08:13:00 | 53.904361 | 6.439188 | 2.0 | 16.374 | 2 | 42.190 | 16.517 | 33.039 | 2 |
| 2025-06-21T08:14:00 | 53.902197 | 6.441810 | 2.0 | 16.375 | 2 | 42.189 | 16.538 | 33.021 | 2 |
| 2025-06-21T08:15:00 | 53.900052 | 6.444479 | 2.0 | 16.390 | 2 | 42.199 | 16.542 | 33.026 | 2 |
| 2025-06-21T08:16:00 | 53.897921 | 6.447202 | 2.0 | 16.409 | 2 | 42.227 | 16.556 | 33.039 | 2 |
| 2025-06-21T08:17:00 | 53.895793 | 6.449928 | 2.0 | 16.442 | 2 | 42.234 | 16.577 | 33.028 | 2 |
| 2025-06-21T08:18:00 | 53.893673 | 6.452656 | 2.0 | 16.426 | 2 | 42.256 | 16.604 | 33.025 | 2 |
| 2025-06-21T08:19:00 | 53.891599 | 6.455471 | 2.0 | 16.458 | 2 | 42.241 | 16.596 | 33.018 | 2 |
| 2025-06-21T08:20:00 | 53.889600 | 6.458426 | 2.0 | 16.458 | 2 | 42.258 | 16.620 | 33.013 | 2 |
| 2025-06-21T08:21:00 | 53.887625 | 6.461355 | 2.0 | 16.495 | 2 | 42.270 | 16.630 | 33.016 | 2 |
| 2025-06-21T08:22:00 | 53.886085 | 6.463512 | 2.0 | 16.492 | 2 | 42.288 | 16.658 | 33.008 | 2 |
| 2025-06-21T08:23:00 | 53.884927 | 6.465054 | 2.0 | 16.512 | 2 | 42.292 | 16.660 | 33.010 | 2 |
| 2025-06-21T08:24:00 | 53.883993 | 6.466240 | 2.0 | 16.509 | 2 | 42.298 | 16.668 | 33.009 | 2 |
| 2025-06-21T08:25:00 | 53.883761 | 6.467310 | 2.0 | 16.529 | 2 | 42.306 | 16.679 | 33.007 | 2 |
| 2025-06-21T08:26:00 | 53.883815 | 6.468495 | 2.0 | 16.506 | 2 | 42.313 | 16.685 | 33.008 | 2 |
| 2025-06-21T08:27:00 | 53.883871 | 6.469726 | 2.0 | 16.518 | 2 | 42.297 | 16.671 | 33.005 | 2 |
| 2025-06-21T08:28:00 | 53.883929 | 6.470739 | 2.0 | 16.518 | 2 | 42.305 | 16.680 | 33.005 | 2 |
| 2025-06-21T08:29:00 | 53.883939 | 6.471364 | 2.0 | 16.524 | 2 | 42.304 | 16.680 | 33.004 | 2 |
| 2025-06-21T08:30:00 | 53.883892 | 6.471563 | 2.0 | 16.497 | 2 | 42.305 | 16.682 | 33.003 | 2 |
| 2025-06-21T08:31:00 | 53.883827 | 6.471761 | 2.0 | 16.529 | 2 | 42.291 | 16.669 | 33.002 | 2 |
| 2025-06-21T08:32:00 | 53.883908 | 6.471887 | 2.0 | 16.563 | 2 | 42.310 | 16.691 | 33.000 | 2 |
| 2025-06-21T08:33:00 | 53.884045 | 6.471971 | 2.0 | 16.526 | 2 | 42.337 | 16.719 | 33.001 | 2 |
| 2025-06-21T08:34:00 | 53.884143 | 6.472070 | 2.0 | 16.513 | 2 | 42.309 | 16.687 | 33.003 | 2 |
| 2025-06-21T08:35:00 | 53.884234 | 6.472120 | 2.0 | 16.506 | 2 | 42.296 | 16.675 | 33.001 | 2 |
| 2025-06-21T08:36:00 | 53.884315 | 6.472135 | 2.0 | 16.519 | 2 | 42.291 | 16.672 | 32.999 | 2 |
| 2025-06-21T08:37:00 | 53.884389 | 6.472107 | 2.0 | 16.509 | 2 | 42.299 | 16.681 | 32.999 | 2 |
| 2025-06-21T08:38:00 | 53.884457 | 6.472085 | 2.0 | 16.516 | 2 | 42.292 | 16.673 | 32.999 | 2 |
| 2025-06-21T08:39:00 | 53.884552 | 6.472033 | 2.0 | 16.533 | 2 | 42.297 | 16.680 | 32.998 | 2 |
| 2025-06-21T08:40:00 | 53.884664 | 6.471986 | 2.0 | 16.525 | 2 | 42.310 | 16.694 | 32.998 | 2 |
| 2025-06-21T08:41:00 | 53.884751 | 6.471987 | 2.0 | 16.510 | 2 | 42.301 | 16.682 | 33.000 | 2 |
| 2025-06-21T08:42:00 | 53.884833 | 6.472023 | 2.0 | 16.509 | 2 | 42.290 | 16.672 | 32.998 | 2 |
| 2025-06-21T08:43:00 | 53.884915 | 6.472063 | 2.0 | 16.525 | 2 | 42.289 | 16.673 | 32.997 | 2 |
| 2025-06-21T08:44:00 | 53.884986 | 6.472072 | 2.0 | 16.517 | 2 | 42.301 | 16.685 | 32.997 | 2 |
| 2025-06-21T08:45:00 | 53.885046 | 6.472048 | 2.0 | 16.505 | 2 | 42.295 | 16.678 | 32.998 | 2 |
| 2025-06-21T08:46:00 | 53.885141 | 6.472453 | 2.0 | 16.532 | 2 | 42.290 | 16.674 | 32.997 | 2 |
| 2025-06-21T08:47:00 | 53.885407 | 6.473826 | 2.0 | 16.535 | 2 | 42.304 | 16.692 | 32.994 | 2 |
| 2025-06-21T08:48:00 | 53.885802 | 6.476064 | 2.0 | 16.517 | 2 | 42.305 | 16.692 | 32.995 | 2 |
| 2025-06-21T08:49:00 | 53.886291 | 6.479033 | 2.0 | 16.522 | 2 | 42.296 | 16.684 | 32.994 | 2 |
| 2025-06-21T08:50:00 | 53.886834 | 6.482491 | 2.0 | 16.534 | 2 | 42.298 | 16.686 | 32.994 | 2 |
| 2025-06-21T08:51:00 | 53.887399 | 6.486123 | 2.0 | 16.545 | 2 | 42.307 | 16.698 | 32.992 | 2 |
| 2025-06-21T08:52:00 | 53.887966 | 6.489813 | 2.0 | 16.551 | 2 | 42.314 | 16.706 | 32.991 | 2 |
| 2025-06-21T08:53:00 | 53.888521 | 6.493521 | 2.0 | 16.534 | 2 | 42.319 | 16.713 | 32.990 | 2 |
| 2025-06-21T08:54:00 | 53.889077 | 6.497225 | 2.0 | 16.526 | 2 | 42.307 | 16.696 | 32.993 | 2 |
| 2025-06-21T08:55:00 | 53.889699 | 6.500902 | 2.0 | 16.537 | 2 | 42.299 | 16.692 | 32.990 | 2 |
| 2025-06-21T08:56:00 | 53.890327 | 6.504571 | 2.0 | 16.549 | 2 | 42.301 | 16.703 | 32.982 | 2 |
| 2025-06-21T08:57:00 | 53.890961 | 6.508232 | 2.0 | 16.556 | 2 | 42.305 | 16.712 | 32.979 | 2 |
| 2025-06-21T08:58:00 | 53.891609 | 6.511887 | 2.0 | 16.641 | 2 | 42.313 | 16.727 | 32.973 | 2 |
| 2025-06-21T08:59:00 | 53.892305 | 6.515514 | 2.0 | 16.475 | 2 | 42.398 | 16.799 | 32.988 | 2 |
| 2025-06-21T09:00:00 | 53.893018 | 6.519076 | 2.0 | 16.408 | 2 | 42.276 | 16.629 | 33.022 | 2 |
| 2025-06-21T09:01:00 | 53.893637 | 6.522007 | 2.0 | 16.404 | 2 | 42.206 | 16.574 | 33.006 | 2 |
| 2025-06-21T09:02:00 | 53.894172 | 6.524431 | 2.0 | 16.429 | 2 | 42.204 | 16.577 | 33.002 | 2 |
| 2025-06-21T09:03:00 | 53.894643 | 6.526579 | 2.0 | 16.421 | 2 | 42.219 | 16.591 | 33.003 | 2 |
| 2025-06-21T09:04:00 | 53.895102 | 6.528653 | 2.0 | 16.428 | 2 | 42.211 | 16.584 | 33.002 | 2 |
| 2025-06-21T09:05:00 | 53.895983 | 6.531232 | 2.0 | 16.388 | 2 | 42.215 | 16.591 | 33.000 | 2 |
| 2025-06-21T09:06:00 | 53.897262 | 6.534145 | 2.0 | 16.351 | 2 | 42.184 | 16.554 | 33.003 | 2 |
| 2025-06-21T09:07:00 | 53.898698 | 6.537454 | 2.0 | 16.349 | 2 | 42.153 | 16.523 | 33.002 | 2 |
| 2025-06-21T09:08:00 | 53.900193 | 6.540959 | 2.0 | 16.358 | 2 | 42.149 | 16.516 | 33.004 | 2 |
| 2025-06-21T09:09:00 | 53.901595 | 6.544641 | 2.0 | 16.361 | 2 | 42.161 | 16.522 | 33.010 | 2 |
| 2025-06-21T09:10:00 | 53.902982 | 6.548366 | 2.0 | 16.351 | 2 | 42.187 | 16.531 | 33.025 | 2 |
| 2025-06-21T09:11:00 | 53.904378 | 6.552131 | 2.0 | 16.317 | 2 | 42.187 | 16.516 | 33.037 | 2 |
| 2025-06-21T09:12:00 | 53.905763 | 6.555915 | 2.0 | 16.301 | 2 | 42.179 | 16.494 | 33.048 | 2 |
| 2025-06-21T09:13:00 | 53.907141 | 6.559694 | 2.0 | 16.255 | 2 | 42.169 | 16.469 | 33.060 | 2 |
| 2025-06-21T09:14:00 | 53.908513 | 6.563461 | 2.0 | 16.222 | 2 | 42.130 | 16.423 | 33.064 | 2 |
| 2025-06-21T09:15:00 | 53.909894 | 6.567210 | 2.0 | 16.190 | 2 | 42.099 | 16.386 | 33.068 | 2 |
| 2025-06-21T09:16:00 | 53.911293 | 6.570958 | 2.0 | 16.173 | 2 | 42.073 | 16.355 | 33.071 | 2 |
| 2025-06-21T09:17:00 | 53.912694 | 6.574705 | 2.0 | 16.156 | 2 | 42.057 | 16.335 | 33.073 | 2 |
| 2025-06-21T09:18:00 | 53.914098 | 6.578453 | 2.0 | 16.152 | 2 | 42.048 | 16.323 | 33.075 | 2 |
| 2025-06-21T09:19:00 | 53.915502 | 6.582189 | 2.0 | 16.120 | 2 | 42.045 | 16.317 | 33.078 | 2 |
| 2025-06-21T09:20:00 | 53.916917 | 6.585908 | 2.0 | 16.169 | 2 | 42.034 | 16.306 | 33.077 | 2 |
| 2025-06-21T09:21:00 | 53.918349 | 6.589625 | 2.0 | 16.176 | 2 | 42.061 | 16.337 | 33.075 | 2 |
| 2025-06-21T09:22:00 | 53.919780 | 6.593358 | 2.0 | 16.130 | 2 | 42.062 | 16.334 | 33.078 | 2 |
| 2025-06-21T09:23:00 | 53.921202 | 6.597091 | 2.0 | 16.107 | 2 | 42.029 | 16.295 | 33.082 | 2 |
| 2025-06-21T09:24:00 | 53.922638 | 6.600833 | 2.0 | 16.130 | 2 | 42.018 | 16.283 | 33.082 | 2 |
| 2025-06-21T09:25:00 | 53.924062 | 6.604583 | 2.0 | 16.133 | 2 | 42.038 | 16.299 | 33.086 | 2 |
| 2025-06-21T09:26:00 | 53.925495 | 6.608317 | 2.0 | 16.152 | 2 | 42.046 | 16.302 | 33.091 | 2 |
| 2025-06-21T09:27:00 | 53.927121 | 6.611816 | 2.0 | 16.104 | 2 | 42.060 | 16.312 | 33.095 | 2 |
| 2025-06-21T09:28:00 | 53.928834 | 6.615173 | 2.0 | 16.091 | 2 | 42.027 | 16.275 | 33.097 | 2 |
| 2025-06-21T09:29:00 | 53.930675 | 6.618361 | 2.0 | 16.091 | 2 | 42.015 | 16.258 | 33.100 | 2 |
| 2025-06-21T09:30:00 | 53.932601 | 6.621464 | 2.0 | 16.131 | 2 | 42.030 | 16.265 | 33.108 | 2 |
| 2025-06-21T09:31:00 | 53.934603 | 6.624444 | 2.0 | 16.134 | 2 | 42.072 | 16.293 | 33.121 | 2 |
| 2025-06-21T09:32:00 | 53.936601 | 6.627435 | 2.0 | 16.147 | 2 | 42.112 | 16.318 | 33.136 | 2 |
| 2025-06-21T09:33:00 | 53.938605 | 6.630425 | 2.0 | 16.121 | 2 | 42.126 | 16.304 | 33.160 | 2 |
| 2025-06-21T09:34:00 | 53.940709 | 6.633185 | 2.0 | 16.090 | 2 | 42.124 | 16.288 | 33.171 | 2 |
| 2025-06-21T09:35:00 | 53.943002 | 6.635570 | 2.0 | 16.064 | 2 | 42.098 | 16.242 | 33.187 | 2 |
| 2025-06-21T09:36:00 | 53.945324 | 6.637930 | 2.0 | 16.089 | 2 | 42.099 | 16.237 | 33.192 | 2 |
| 2025-06-21T09:37:00 | 53.947723 | 6.640100 | 2.0 | 15.993 | 2 | 42.083 | 16.230 | 33.183 | 2 |
| 2025-06-21T09:38:00 | 53.950128 | 6.642268 | 2.0 | 16.128 | 2 | 42.073 | 16.194 | 33.205 | 2 |
| 2025-06-21T09:39:00 | 53.952557 | 6.644378 | 2.0 | 16.022 | 2 | 42.112 | 16.264 | 33.181 | 2 |
| 2025-06-21T09:40:00 | 53.955017 | 6.646424 | 2.0 | 16.090 | 2 | 42.056 | 16.214 | 33.173 | 2 |
| 2025-06-21T09:41:00 | 53.957492 | 6.648474 | 2.0 | 16.110 | 2 | 42.072 | 16.256 | 33.152 | 2 |
| 2025-06-21T09:42:00 | 53.959971 | 6.650549 | 2.0 | 16.119 | 2 | 42.072 | 16.290 | 33.124 | 2 |
| 2025-06-21T09:43:00 | 53.962469 | 6.652610 | 2.0 | 16.061 | 2 | 42.045 | 16.267 | 33.119 | 2 |
| 2025-06-21T09:44:00 | 53.964968 | 6.654694 | 2.0 | 16.048 | 2 | 41.994 | 16.225 | 33.109 | 2 |
| 2025-06-21T09:45:00 | 53.967467 | 6.656794 | 2.0 | 16.042 | 2 | 41.979 | 16.219 | 33.101 | 2 |
| 2025-06-21T09:46:00 | 53.969965 | 6.658912 | 2.0 | 16.053 | 2 | 41.974 | 16.211 | 33.103 | 2 |
| 2025-06-21T09:47:00 | 53.972389 | 6.660995 | 2.0 | 16.075 | 2 | 41.981 | 16.219 | 33.103 | 2 |
| 2025-06-21T09:48:00 | 53.974468 | 6.662863 | 2.0 | 16.237 | 2 | 42.028 | 16.274 | 33.098 | 2 |
| 2025-06-21T09:49:00 | 53.976027 | 6.664794 | 2.0 | 16.227 | 2 | 42.140 | 16.397 | 33.095 | 2 |
| 2025-06-21T09:50:00 | 53.977472 | 6.666127 | 2.0 | 16.076 | 2 | 42.098 | 16.353 | 33.094 | 2 |
| 2025-06-21T09:51:00 | 53.978718 | 6.667079 | 2.0 | 16.054 | 2 | 41.997 | 16.248 | 33.093 | 2 |
| 2025-06-21T09:52:00 | 53.979835 | 6.667753 | 2.0 | 16.096 | 2 | 41.965 | 16.223 | 33.085 | 2 |
| 2025-06-21T09:53:00 | 53.980244 | 6.668469 | 2.0 | 16.080 | 2 | 41.992 | 16.260 | 33.078 | 2 |
| 2025-06-21T09:54:00 | 53.980227 | 6.669159 | 2.0 | 16.158 | 2 | 41.996 | 16.260 | 33.082 | 2 |
| 2025-06-21T09:55:00 | 53.980193 | 6.669814 | 2.0 | 16.193 | 2 | 42.061 | 16.331 | 33.080 | 2 |
| 2025-06-21T09:56:00 | 53.980195 | 6.670241 | 2.0 | 16.117 | 2 | 42.064 | 16.338 | 33.077 | 2 |
| 2025-06-21T09:57:00 | 53.980141 | 6.670479 | 2.0 | 16.148 | 2 | 42.002 | 16.282 | 33.069 | 2 |
| 2025-06-21T09:58:00 | 53.980216 | 6.670680 | 2.0 | 16.174 | 2 | 42.040 | 16.331 | 33.062 | 2 |
| 2025-06-21T09:59:00 | 53.980293 | 6.670853 | 2.0 | 16.112 | 2 | 41.976 | 16.325 | 33.010 | 2 |
| 2025-06-21T10:00:00 | 53.980348 | 6.670997 | 2.0 | 16.130 | 2 | 41.824 | 16.286 | 32.909 | 2 |
| 2025-06-21T10:01:00 | 53.980380 | 6.671113 | 2.0 | 16.156 | 2 | 41.869 | 16.289 | 32.946 | 2 |
| 2025-06-21T10:02:00 | 53.980405 | 6.671211 | 2.0 | 16.113 | 2 | 41.940 | 16.340 | 32.966 | 2 |
| 2025-06-21T10:03:00 | 53.980431 | 6.671302 | 2.0 | 16.048 | 2 | 41.872 | 16.275 | 32.960 | 2 |
| 2025-06-21T10:04:00 | 53.980452 | 6.671395 | 2.0 | 16.016 | 2 | 41.775 | 16.214 | 32.926 | 2 |
| 2025-06-21T10:05:00 | 53.980472 | 6.671490 | 2.0 | 16.038 | 2 | 41.800 | 16.186 | 32.971 | 2 |
| 2025-06-21T10:06:00 | 53.980495 | 6.671585 | 2.0 | 16.039 | 2 | 41.803 | 16.207 | 32.956 | 2 |
| 2025-06-21T10:07:00 | 53.980517 | 6.671680 | 2.0 | 16.017 | 2 | 41.809 | 16.205 | 32.963 | 2 |
| 2025-06-21T10:08:00 | 53.980533 | 6.671774 | 2.0 | 16.013 | 2 | 41.810 | 16.186 | 32.980 | 2 |
| 2025-06-21T10:09:00 | 53.980550 | 6.671865 | 2.0 | 16.061 | 2 | 41.824 | 16.191 | 32.988 | 2 |
| 2025-06-21T10:10:00 | 53.980546 | 6.671983 | 2.0 | 16.129 | 2 | 41.866 | 16.233 | 32.990 | 2 |
| 2025-06-21T10:11:00 | 53.980278 | 6.671810 | 2.0 | 16.044 | 2 | 41.912 | 16.273 | 32.997 | 2 |
| 2025-06-21T10:12:00 | 53.979615 | 6.670620 | 2.0 | 16.172 | 2 | 41.854 | 16.221 | 32.989 | 2 |
| 2025-06-21T10:13:00 | 53.978580 | 6.668823 | 2.0 | 16.419 | 2 | 42.016 | 16.384 | 32.997 | 2 |
| 2025-06-21T10:14:00 | 53.977046 | 6.667239 | 2.0 | 16.206 | 2 | 42.200 | 16.542 | 33.027 | 2 |
| 2025-06-21T10:15:00 | 53.974905 | 6.665112 | 2.0 | 16.082 | 2 | 42.034 | 16.343 | 33.046 | 2 |
| 2025-06-21T10:16:00 | 53.972533 | 6.662551 | 2.0 | 16.052 | 2 | 41.915 | 16.249 | 33.020 | 2 |
| 2025-06-21T10:17:00 | 53.970078 | 6.659933 | 2.0 | 16.065 | 2 | 41.885 | 16.225 | 33.013 | 2 |
| 2025-06-21T10:18:00 | 53.967590 | 6.657327 | 2.0 | 16.185 | 2 | 41.887 | 16.245 | 32.998 | 2 |
| 2025-06-21T10:19:00 | 53.965114 | 6.654663 | 2.0 | 16.253 | 2 | 41.967 | 16.345 | 32.986 | 2 |
| 2025-06-21T10:20:00 | 53.962618 | 6.652044 | 2.0 | 16.228 | 2 | 42.073 | 16.419 | 33.018 | 2 |
| 2025-06-21T10:21:00 | 53.960067 | 6.649598 | 2.0 | 16.130 | 2 | 42.072 | 16.371 | 33.057 | 2 |
| 2025-06-21T10:22:00 | 53.957519 | 6.647108 | 2.0 | 16.145 | 2 | 42.014 | 16.301 | 33.064 | 2 |
| 2025-06-21T10:23:00 | 53.954970 | 6.644593 | 2.0 | 16.148 | 2 | 42.020 | 16.312 | 33.060 | 2 |
| 2025-06-21T10:24:00 | 53.952419 | 6.642086 | 2.0 | 16.215 | 2 | 42.025 | 16.316 | 33.061 | 2 |
| 2025-06-21T10:25:00 | 53.949856 | 6.639616 | 2.0 | 16.229 | 2 | 42.100 | 16.392 | 33.064 | 2 |
| 2025-06-21T10:26:00 | 53.947306 | 6.637072 | 2.0 | 16.187 | 2 | 42.119 | 16.387 | 33.084 | 2 |
| 2025-06-21T10:27:00 | 53.944741 | 6.634581 | 2.0 | 16.189 | 2 | 42.090 | 16.357 | 33.084 | 2 |
| 2025-06-21T10:28:00 | 53.942178 | 6.632099 | 2.0 | 16.198 | 2 | 42.087 | 16.353 | 33.085 | 2 |
| 2025-06-21T10:29:00 | 53.939594 | 6.629631 | 2.0 | 16.712 | 2 | 42.157 | 16.410 | 33.099 | 2 |
| 2025-06-21T10:30:00 | 53.937103 | 6.626749 | 2.0 | 16.172 | 2 | 42.575 | 16.762 | 33.172 | 2 |
| 2025-06-21T10:31:00 | 53.934620 | 6.623750 | 2.0 | 16.172 | 2 | 42.290 | 16.413 | 33.213 | 2 |
| 2025-06-21T10:32:00 | 53.932179 | 6.620659 | 2.0 | 16.144 | 2 | 42.204 | 16.357 | 33.184 | 2 |
| 2025-06-21T10:33:00 | 53.930216 | 6.616622 | 2.0 | 16.117 | 2 | 42.146 | 16.311 | 33.171 | 2 |
| 2025-06-21T10:34:00 | 53.928152 | 6.612720 | 2.0 | 16.129 | 2 | 42.099 | 16.294 | 33.144 | 2 |
| 2025-06-21T10:35:00 | 53.926129 | 6.608746 | 2.0 | 16.127 | 2 | 42.093 | 16.313 | 33.123 | 2 |
| 2025-06-21T10:36:00 | 53.924100 | 6.604778 | 2.0 | 16.186 | 2 | 42.103 | 16.340 | 33.109 | 2 |
| 2025-06-21T10:37:00 | 53.922066 | 6.600802 | 2.0 | 16.151 | 2 | 42.124 | 16.370 | 33.103 | 2 |
| 2025-06-21T10:38:00 | 53.920063 | 6.596821 | 2.0 | 16.174 | 2 | 42.104 | 16.354 | 33.099 | 2 |
| 2025-06-21T10:39:00 | 53.918008 | 6.592879 | 2.0 | 16.155 | 2 | 42.079 | 16.327 | 33.099 | 2 |
| 2025-06-21T10:40:00 | 53.915982 | 6.588903 | 2.0 | 16.331 | 2 | 42.089 | 16.363 | 33.078 | 2 |
| 2025-06-21T10:41:00 | 53.913918 | 6.585006 | 2.0 | 16.470 | 2 | 42.214 | 16.495 | 33.078 | 2 |
| 2025-06-21T10:42:00 | 53.911867 | 6.581112 | 2.0 | 16.337 | 2 | 42.298 | 16.598 | 33.066 | 2 |
| 2025-06-21T10:43:00 | 53.909825 | 6.577239 | 2.0 | 16.235 | 2 | 42.187 | 16.490 | 33.059 | 2 |
| 2025-06-21T10:44:00 | 53.907777 | 6.573386 | 2.0 | 16.195 | 2 | 42.078 | 16.399 | 33.039 | 2 |
| 2025-06-21T10:45:00 | 53.905740 | 6.569507 | 2.0 | 16.243 | 2 | 42.040 | 16.372 | 33.028 | 2 |
| 2025-06-21T10:46:00 | 53.903706 | 6.565660 | 2.0 | 16.247 | 2 | 42.059 | 16.403 | 33.019 | 2 |
| 2025-06-21T10:47:00 | 53.901918 | 6.562378 | 2.0 | 16.287 | 2 | 42.072 | 16.421 | 33.015 | 2 |
| 2025-06-21T10:48:00 | 53.900406 | 6.559494 | 2.0 | 16.299 | 2 | 42.094 | 16.449 | 33.011 | 2 |
| 2025-06-21T10:49:00 | 53.899146 | 6.557023 | 2.0 | 16.293 | 2 | 42.104 | 16.453 | 33.017 | 2 |
| 2025-06-21T10:50:00 | 53.898031 | 6.555098 | 2.0 | 16.300 | 2 | 42.103 | 16.450 | 33.018 | 2 |
| 2025-06-21T10:51:00 | 53.897496 | 6.553279 | 2.0 | 16.236 | 2 | 42.105 | 16.454 | 33.017 | 2 |
| 2025-06-21T10:52:00 | 53.897777 | 6.552234 | 2.0 | 16.235 | 2 | 42.064 | 16.397 | 33.028 | 2 |
| 2025-06-21T10:53:00 | 53.898042 | 6.552009 | 2.0 | 16.292 | 2 | 42.093 | 16.435 | 33.022 | 2 |
| 2025-06-21T10:54:00 | 53.898119 | 6.552235 | 2.0 | 16.306 | 2 | 42.113 | 16.453 | 33.025 | 2 |
| 2025-06-21T10:55:00 | 53.898124 | 6.552418 | 2.0 | 16.256 | 2 | 42.127 | 16.472 | 33.021 | 2 |
| 2025-06-21T10:56:00 | 53.898140 | 6.552574 | 2.0 | 16.313 | 2 | 42.136 | 16.486 | 33.017 | 2 |
| 2025-06-21T10:57:00 | 53.898180 | 6.552716 | 2.0 | 16.314 | 2 | 42.155 | 16.511 | 33.013 | 2 |
| 2025-06-21T10:58:00 | 53.898207 | 6.552846 | 2.0 | 16.291 | 2 | 42.127 | 16.474 | 33.019 | 2 |
| 2025-06-21T10:59:00 | 53.898241 | 6.552969 | 2.0 | 16.347 | 2 | 42.123 | 16.479 | 33.012 | 2 |
| 2025-06-21T11:00:00 | 53.898271 | 6.553096 | 2.0 | 16.377 | 2 | 42.140 | 16.495 | 33.013 | 2 |
| 2025-06-21T11:01:00 | 53.898279 | 6.553223 | 2.0 | 17.233 | 2 | 42.234 | 16.616 | 32.996 | 2 |
| 2025-06-21T11:02:00 | 53.898118 | 6.553091 | 2.0 | 17.411 | 2 | 42.940 | 17.407 | 32.959 | 2 |
| 2025-06-21T11:03:00 | 53.897944 | 6.552471 | 2.0 | 16.311 | 2 | 42.999 | 17.345 | 33.060 | 2 |
| 2025-06-21T11:04:00 | 53.898027 | 6.551134 | 2.0 | 16.273 | 2 | 42.198 | 16.508 | 33.053 | 2 |
| 2025-06-21T11:05:00 | 53.898279 | 6.548760 | 2.0 | 16.252 | 2 | 42.130 | 16.480 | 33.017 | 2 |
| 2025-06-21T11:06:00 | 53.898578 | 6.545635 | 2.0 | 16.271 | 2 | 42.096 | 16.428 | 33.030 | 2 |
| 2025-06-21T11:07:00 | 53.898925 | 6.541613 | 2.0 | 16.286 | 2 | 42.119 | 16.451 | 33.031 | 2 |
| 2025-06-21T11:08:00 | 53.899289 | 6.537003 | 2.0 | 16.218 | 2 | 42.122 | 16.438 | 33.045 | 2 |
| 2025-06-21T11:09:00 | 53.899656 | 6.532210 | 2.0 | 16.193 | 2 | 42.076 | 16.377 | 33.055 | 2 |
| 2025-06-21T11:10:00 | 53.900048 | 6.527383 | 2.0 | 16.184 | 2 | 42.085 | 16.381 | 33.060 | 2 |
| 2025-06-21T11:11:00 | 53.900453 | 6.522549 | 2.0 | 16.198 | 2 | 42.078 | 16.368 | 33.064 | 2 |
| 2025-06-21T11:12:00 | 53.900820 | 6.517705 | 2.0 | 16.211 | 2 | 42.073 | 16.366 | 33.062 | 2 |
| 2025-06-21T11:13:00 | 53.901207 | 6.512874 | 2.0 | 16.288 | 2 | 42.077 | 16.373 | 33.059 | 2 |
| 2025-06-21T11:14:00 | 53.901637 | 6.508058 | 2.0 | 16.484 | 2 | 42.215 | 16.549 | 33.034 | 2 |
| 2025-06-21T11:15:00 | 53.902024 | 6.503244 | 2.0 | 16.538 | 2 | 42.345 | 16.669 | 33.049 | 2 |
| 2025-06-21T11:16:00 | 53.902433 | 6.498440 | 2.0 | 16.565 | 2 | 42.381 | 16.699 | 33.055 | 2 |
| 2025-06-21T11:17:00 | 53.902818 | 6.493633 | 2.0 | 16.455 | 2 | 42.373 | 16.702 | 33.046 | 2 |
| 2025-06-21T11:18:00 | 53.903225 | 6.488830 | 2.0 | 16.462 | 2 | 42.317 | 16.639 | 33.049 | 2 |
| 2025-06-21T11:19:00 | 53.903610 | 6.484017 | 2.0 | 16.476 | 2 | 42.297 | 16.628 | 33.041 | 2 |
| 2025-06-21T11:20:00 | 53.904032 | 6.479217 | 2.0 | 16.497 | 2 | 42.286 | 16.623 | 33.035 | 2 |
| 2025-06-21T11:21:00 | 53.904407 | 6.474401 | 2.0 | 16.460 | 2 | 42.286 | 16.626 | 33.033 | 2 |
| 2025-06-21T11:22:00 | 53.904821 | 6.469589 | 2.0 | 16.415 | 2 | 42.282 | 16.624 | 33.031 | 2 |
| 2025-06-21T11:23:00 | 53.905228 | 6.464777 | 2.0 | 16.381 | 2 | 42.244 | 16.589 | 33.027 | 2 |
| 2025-06-21T11:24:00 | 53.905618 | 6.459955 | 2.0 | 16.393 | 2 | 42.202 | 16.543 | 33.028 | 2 |
| 2025-06-21T11:25:00 | 53.906039 | 6.455141 | 2.0 | 16.513 | 2 | 42.230 | 16.581 | 33.021 | 2 |
| 2025-06-21T11:26:00 | 53.906426 | 6.450327 | 2.0 | 16.534 | 2 | 42.312 | 16.674 | 33.016 | 2 |
| 2025-06-21T11:27:00 | 53.906835 | 6.445526 | 2.0 | 16.571 | 2 | 42.357 | 16.713 | 33.023 | 2 |
| 2025-06-21T11:28:00 | 53.907212 | 6.440729 | 2.0 | 16.523 | 2 | 42.381 | 16.735 | 33.026 | 2 |
| 2025-06-21T11:29:00 | 53.907597 | 6.435934 | 2.0 | 16.388 | 2 | 42.342 | 16.680 | 33.037 | 2 |
| 2025-06-21T11:30:00 | 53.908002 | 6.431149 | 2.0 | 16.413 | 2 | 42.259 | 16.570 | 33.056 | 2 |
| 2025-06-21T11:31:00 | 53.908373 | 6.426347 | 2.0 | 16.518 | 2 | 42.303 | 16.607 | 33.063 | 2 |
| 2025-06-21T11:32:00 | 53.908769 | 6.421553 | 2.0 | 16.623 | 2 | 42.397 | 16.700 | 33.069 | 2 |
| 2025-06-21T11:33:00 | 53.909188 | 6.416761 | 2.0 | 16.555 | 2 | 42.495 | 16.795 | 33.076 | 2 |
| 2025-06-21T11:34:00 | 53.909574 | 6.411964 | 2.0 | 16.531 | 2 | 42.452 | 16.730 | 33.092 | 2 |
| 2025-06-21T11:35:00 | 53.909960 | 6.407171 | 2.0 | 16.558 | 2 | 42.459 | 16.742 | 33.088 | 2 |
| 2025-06-21T11:36:00 | 53.910373 | 6.402391 | 2.0 | 16.500 | 2 | 42.430 | 16.705 | 33.093 | 2 |
| 2025-06-21T11:37:00 | 53.910755 | 6.397614 | 2.0 | 16.492 | 2 | 42.395 | 16.678 | 33.085 | 2 |
| 2025-06-21T11:38:00 | 53.911132 | 6.392843 | 2.0 | 16.428 | 2 | 42.382 | 16.660 | 33.089 | 2 |
| 2025-06-21T11:39:00 | 53.911529 | 6.388095 | 2.0 | 16.481 | 2 | 42.353 | 16.626 | 33.091 | 2 |
| 2025-06-21T11:40:00 | 53.911936 | 6.383363 | 2.0 | 16.631 | 2 | 42.379 | 16.661 | 33.085 | 2 |
| 2025-06-21T11:41:00 | 53.912314 | 6.378634 | 2.0 | 16.572 | 2 | 42.494 | 16.787 | 33.081 | 2 |
| 2025-06-21T11:42:00 | 53.912682 | 6.373912 | 2.0 | 16.635 | 2 | 42.475 | 16.765 | 33.083 | 2 |
| 2025-06-21T11:43:00 | 53.913037 | 6.369196 | 2.0 | 16.557 | 2 | 42.472 | 16.761 | 33.084 | 2 |
| 2025-06-21T11:44:00 | 53.913367 | 6.364482 | 2.0 | 16.666 | 2 | 42.462 | 16.758 | 33.077 | 2 |
| 2025-06-21T11:45:00 | 53.913726 | 6.359769 | 2.0 | 16.734 | 2 | 42.520 | 16.826 | 33.072 | 2 |
| 2025-06-21T11:46:00 | 53.914058 | 6.355047 | 2.0 | 16.674 | 2 | 42.569 | 16.877 | 33.072 | 2 |
| 2025-06-21T11:47:00 | 53.914406 | 6.350339 | 2.0 | 16.621 | 2 | 42.537 | 16.841 | 33.074 | 2 |
| 2025-06-21T11:48:00 | 53.914686 | 6.346161 | 2.0 | 16.600 | 2 | 42.485 | 16.789 | 33.072 | 2 |
| 2025-06-21T11:49:00 | 53.914976 | 6.342431 | 2.0 | 16.623 | 2 | 42.468 | 16.778 | 33.066 | 2 |
| 2025-06-21T11:50:00 | 53.915227 | 6.338976 | 2.0 | 16.652 | 2 | 42.477 | 16.798 | 33.057 | 2 |
| 2025-06-21T11:51:00 | 53.915426 | 6.335939 | 2.0 | 16.609 | 2 | 42.489 | 16.810 | 33.058 | 2 |
| 2025-06-21T11:52:00 | 53.915529 | 6.333216 | 2.0 | 16.594 | 2 | 42.439 | 16.759 | 33.057 | 2 |
| 2025-06-21T11:53:00 | 53.915506 | 6.330660 | 2.0 | 16.568 | 2 | 42.428 | 16.753 | 33.052 | 2 |
| 2025-06-21T11:54:00 | 53.915688 | 6.328551 | 2.0 | 16.540 | 2 | 42.414 | 16.738 | 33.052 | 2 |
| 2025-06-21T11:55:00 | 53.916208 | 6.328120 | 2.0 | 16.514 | 2 | 42.381 | 16.687 | 33.065 | 2 |
| 2025-06-21T11:56:00 | 53.916386 | 6.328370 | 2.0 | 16.612 | 2 | 42.377 | 16.692 | 33.058 | 2 |
| 2025-06-21T11:57:00 | 53.916455 | 6.328554 | 2.0 | 16.762 | 2 | 42.489 | 16.821 | 33.049 | 2 |
| 2025-06-21T11:58:00 | 53.916484 | 6.328681 | 2.0 | 17.418 | 2 | 42.604 | 16.943 | 33.048 | 2 |
| 2025-06-21T11:59:00 | 53.916497 | 6.328801 | 2.0 | 17.551 | 2 | 43.145 | 17.574 | 32.998 | 2 |
| 2025-06-21T12:00:00 | 53.916491 | 6.328919 | 2.0 | 17.284 | 2 | 43.357 | 17.733 | 33.050 | 2 |
| 2025-06-21T12:01:00 | 53.916476 | 6.329035 | 2.0 | 17.801 | 2 | 43.201 | 17.559 | 33.058 | 2 |
| 2025-06-21T12:02:00 | 53.916465 | 6.329154 | 2.0 | 17.820 | 2 | 43.486 | 17.879 | 33.041 | 2 |
| 2025-06-21T12:03:00 | 53.916450 | 6.329281 | 2.0 | 18.071 | 2 | 43.624 | 18.022 | 33.043 | 2 |
| 2025-06-21T12:04:00 | 53.916441 | 6.329394 | 2.0 | 18.077 | 2 | 43.794 | 18.196 | 33.046 | 2 |
| 2025-06-21T12:05:00 | 53.916443 | 6.329466 | 2.0 | 18.358 | 2 | 43.832 | 18.238 | 33.044 | 2 |
| 2025-06-21T12:06:00 | 53.916447 | 6.329503 | 2.0 | 18.400 | 2 | 44.064 | 18.487 | 33.039 | 2 |
| 2025-06-21T12:07:00 | 53.916455 | 6.329513 | 2.0 | 18.433 | 2 | 44.117 | 18.532 | 33.047 | 2 |
| 2025-06-21T12:08:00 | 53.916467 | 6.329512 | 2.0 | 18.466 | 2 | 44.164 | 18.585 | 33.044 | 2 |
| 2025-06-21T12:09:00 | 53.916473 | 6.329530 | 2.0 | 18.499 | 2 | 44.193 | 18.615 | 33.044 | 2 |
| 2025-06-21T12:10:00 | 53.916499 | 6.329593 | 2.0 | 18.497 | 2 | 44.226 | 18.649 | 33.045 | 2 |
| 2025-06-21T12:11:00 | 53.916490 | 6.329674 | 2.0 | 18.454 | 2 | 44.208 | 18.626 | 33.048 | 2 |
| 2025-06-21T12:12:00 | 53.916469 | 6.329707 | 2.0 | 18.528 | 2 | 44.197 | 18.621 | 33.043 | 2 |
| 2025-06-21T12:13:00 | 53.916439 | 6.329703 | 2.0 | 18.491 | 2 | 44.238 | 18.664 | 33.043 | 2 |
| 2025-06-21T12:14:00 | 53.916418 | 6.329724 | 2.0 | 18.515 | 2 | 44.220 | 18.645 | 33.043 | 2 |
| 2025-06-21T12:15:00 | 53.916415 | 6.329745 | 2.0 | 18.533 | 2 | 44.235 | 18.661 | 33.043 | 2 |
| 2025-06-21T12:16:00 | 53.916413 | 6.329753 | 2.0 | 18.543 | 2 | 44.253 | 18.682 | 33.041 | 2 |
| 2025-06-21T12:17:00 | 53.916405 | 6.329741 | 2.0 | 18.527 | 2 | 44.260 | 18.688 | 33.042 | 2 |
| 2025-06-21T12:18:00 | 53.916404 | 6.329726 | 2.0 | 18.552 | 2 | 44.251 | 18.682 | 33.039 | 2 |
| 2025-06-21T12:19:00 | 53.916409 | 6.329714 | 2.0 | 18.539 | 2 | 44.277 | 18.710 | 33.038 | 2 |
| 2025-06-21T12:20:00 | 53.916418 | 6.329596 | 2.0 | 18.534 | 2 | 44.261 | 18.688 | 33.043 | 2 |
| 2025-06-21T12:21:00 | 53.916426 | 6.329587 | 2.0 | 18.517 | 2 | 44.268 | 18.700 | 33.039 | 2 |
| 2025-06-21T12:22:00 | 53.916434 | 6.329592 | 2.0 | 18.523 | 2 | 44.251 | 18.685 | 33.037 | 2 |
| 2025-06-21T12:23:00 | 53.916439 | 6.329605 | 2.0 | 18.490 | 2 | 44.256 | 18.687 | 33.039 | 2 |
| 2025-06-21T12:24:00 | 53.916459 | 6.329604 | 2.0 | 18.545 | 2 | 44.237 | 18.670 | 33.037 | 2 |
| 2025-06-21T12:25:00 | 53.916461 | 6.329622 | 2.0 | 18.522 | 2 | 44.272 | 18.707 | 33.037 | 2 |
| 2025-06-21T12:26:00 | 53.916464 | 6.329639 | 2.0 | 18.506 | 2 | 44.257 | 18.690 | 33.038 | 2 |
| 2025-06-21T12:27:00 | 53.916456 | 6.329651 | 2.0 | 18.505 | 2 | 44.242 | 18.676 | 33.036 | 2 |
| 2025-06-21T12:28:00 | 53.916451 | 6.329662 | 2.0 | 18.496 | 2 | 44.249 | 18.684 | 33.036 | 2 |
| 2025-06-21T12:29:00 | 53.916456 | 6.329681 | 2.0 | 18.488 | 2 | 44.235 | 18.665 | 33.039 | 2 |
| 2025-06-21T12:30:00 | 53.916442 | 6.329699 | 2.0 | 18.395 | 2 | 44.174 | 18.594 | 33.045 | 2 |
| 2025-06-21T12:31:00 | 53.916430 | 6.329731 | 2.0 | 18.532 | 2 | 44.178 | 18.615 | 33.032 | 2 |
| 2025-06-21T12:32:00 | 53.916426 | 6.329751 | 2.0 | 18.523 | 2 | 44.258 | 18.697 | 33.033 | 2 |
| 2025-06-21T12:33:00 | 53.916429 | 6.329742 | 2.0 | 18.552 | 2 | 44.261 | 18.695 | 33.037 | 2 |
| 2025-06-21T12:34:00 | 53.916431 | 6.329740 | 2.0 | 18.525 | 2 | 44.283 | 18.718 | 33.037 | 2 |
| 2025-06-21T12:35:00 | 53.916436 | 6.329757 | 2.0 | 18.564 | 2 | 44.275 | 18.710 | 33.037 | 2 |
| 2025-06-21T12:36:00 | 53.916441 | 6.329774 | 2.0 | 18.534 | 2 | 44.295 | 18.728 | 33.039 | 2 |
| 2025-06-21T12:37:00 | 53.916449 | 6.329759 | 2.0 | 18.563 | 2 | 44.281 | 18.716 | 33.037 | 2 |
| 2025-06-21T12:38:00 | 53.916439 | 6.329755 | 2.0 | 18.558 | 2 | 44.296 | 18.731 | 33.037 | 2 |
| 2025-06-21T12:39:00 | 53.916438 | 6.329752 | 2.0 | 18.550 | 2 | 44.295 | 18.731 | 33.037 | 2 |
| 2025-06-21T12:40:00 | 53.916441 | 6.329759 | 2.0 | 18.530 | 2 | 44.287 | 18.721 | 33.038 | 2 |
| 2025-06-21T12:41:00 | 53.916435 | 6.329726 | 2.0 | 18.560 | 2 | 44.272 | 18.707 | 33.037 | 2 |
| 2025-06-21T12:42:00 | 53.916426 | 6.329719 | 2.0 | 18.573 | 2 | 44.305 | 18.745 | 33.034 | 2 |
| 2025-06-21T12:43:00 | 53.916424 | 6.329750 | 2.0 | 18.546 | 2 | 44.312 | 18.748 | 33.037 | 2 |
| 2025-06-21T12:44:00 | 53.916432 | 6.329725 | 2.0 | 18.509 | 2 | 44.284 | 18.715 | 33.040 | 2 |
| 2025-06-21T12:45:00 | 53.916422 | 6.329715 | 2.0 | 18.483 | 2 | 44.253 | 18.686 | 33.038 | 2 |
| 2025-06-21T12:46:00 | 53.916419 | 6.329742 | 2.0 | 18.449 | 2 | 44.228 | 18.660 | 33.038 | 2 |
| 2025-06-21T12:47:00 | 53.916425 | 6.329710 | 2.0 | 18.341 | 2 | 44.189 | 18.617 | 33.039 | 2 |
| 2025-06-21T12:48:00 | 53.916387 | 6.329699 | 2.0 | 18.430 | 2 | 44.115 | 18.543 | 33.037 | 2 |
| 2025-06-21T12:49:00 | 53.916384 | 6.329708 | 2.0 | 18.437 | 2 | 44.163 | 18.600 | 33.031 | 2 |
| 2025-06-21T12:50:00 | 53.916394 | 6.329716 | 2.0 | 18.405 | 2 | 44.144 | 18.608 | 33.009 | 2 |
| 2025-06-21T12:51:00 | 53.916395 | 6.329719 | 2.0 | 18.379 | 2 | 44.143 | 18.586 | 33.026 | 2 |
| 2025-06-21T12:52:00 | 53.916402 | 6.329718 | 2.0 | 18.326 | 2 | 44.110 | 18.542 | 33.033 | 2 |
| 2025-06-21T12:53:00 | 53.916416 | 6.329681 | 2.0 | 18.236 | 2 | 44.002 | 18.424 | 33.038 | 2 |
| 2025-06-21T12:54:00 | 53.916410 | 6.329676 | 2.0 | 18.214 | 2 | 43.997 | 18.438 | 33.022 | 2 |
| 2025-06-21T12:55:00 | 53.916393 | 6.329707 | 2.0 | 18.283 | 2 | 43.935 | 18.356 | 33.036 | 2 |
| 2025-06-21T12:56:00 | 53.916388 | 6.329725 | 2.0 | 18.356 | 2 | 44.009 | 18.458 | 33.016 | 2 |
| 2025-06-21T12:57:00 | 53.916379 | 6.329722 | 2.0 | 18.364 | 2 | 44.100 | 18.536 | 33.030 | 2 |
| 2025-06-21T12:58:00 | 53.916372 | 6.329733 | 2.0 | 18.375 | 2 | 44.115 | 18.548 | 33.033 | 2 |
| 2025-06-21T12:59:00 | 53.916367 | 6.329759 | 2.0 | 18.349 | 2 | 44.116 | 18.551 | 33.031 | 2 |
| 2025-06-21T13:00:00 | 53.916371 | 6.329777 | 2.0 | 18.320 | 2 | 44.095 | 18.524 | 33.035 | 2 |
| 2025-06-21T13:01:00 | 53.916393 | 6.329781 | 2.0 | 18.364 | 2 | 44.079 | 18.510 | 33.033 | 2 |
| 2025-06-21T13:02:00 | 53.916433 | 6.329764 | 2.0 | 17.847 | 2 | 43.966 | 18.364 | 33.056 | 2 |
| 2025-06-21T13:03:00 | 53.916486 | 6.329728 | 2.0 | 18.298 | 2 | 43.807 | 18.235 | 33.026 | 2 |
| 2025-06-21T13:04:00 | 53.916545 | 6.329676 | 2.0 | 18.180 | 2 | 43.950 | 18.370 | 33.037 | 2 |
| 2025-06-21T13:05:00 | 53.916606 | 6.329609 | 2.0 | 18.305 | 2 | 43.994 | 18.426 | 33.029 | 2 |
| 2025-06-21T13:06:00 | 53.916679 | 6.329548 | 2.0 | 18.067 | 2 | 44.068 | 18.503 | 33.029 | 2 |
| 2025-06-21T13:07:00 | 53.916691 | 6.329572 | 2.0 | 17.925 | 2 | 43.789 | 18.171 | 33.062 | 2 |
| 2025-06-21T13:08:00 | 53.916503 | 6.329686 | 2.0 | 18.173 | 2 | 43.753 | 18.182 | 33.023 | 2 |
| 2025-06-21T13:09:00 | 53.916407 | 6.329771 | 2.0 | 18.238 | 2 | 43.905 | 18.332 | 33.030 | 2 |
| 2025-06-21T13:10:00 | 53.916339 | 6.329810 | 2.0 | 18.267 | 2 | 43.991 | 18.424 | 33.028 | 2 |
| 2025-06-21T13:11:00 | 53.916323 | 6.329823 | 2.0 | 18.277 | 2 | 44.016 | 18.444 | 33.033 | 2 |
| 2025-06-21T13:12:00 | 53.916327 | 6.329833 | 2.0 | 18.292 | 2 | 44.039 | 18.471 | 33.031 | 2 |
| 2025-06-21T13:13:00 | 53.916331 | 6.329839 | 2.0 | 18.314 | 2 | 44.044 | 18.475 | 33.032 | 2 |
| 2025-06-21T13:14:00 | 53.916365 | 6.329848 | 2.0 | 18.278 | 2 | 44.058 | 18.487 | 33.034 | 2 |
| 2025-06-21T13:15:00 | 53.916423 | 6.329851 | 2.0 | 18.288 | 2 | 44.039 | 18.467 | 33.034 | 2 |
| 2025-06-21T13:16:00 | 53.916480 | 6.329851 | 2.0 | 18.290 | 2 | 44.043 | 18.472 | 33.033 | 2 |
| 2025-06-21T13:17:00 | 53.916477 | 6.329884 | 2.0 | 18.287 | 2 | 44.047 | 18.476 | 33.034 | 2 |
| 2025-06-21T13:18:00 | 53.916393 | 6.329972 | 2.0 | 18.195 | 2 | 44.031 | 18.454 | 33.038 | 2 |
| 2025-06-21T13:19:00 | 53.916276 | 6.330117 | 2.0 | 18.249 | 2 | 43.981 | 18.407 | 33.034 | 2 |
| 2025-06-21T13:20:00 | 53.916184 | 6.330280 | 2.0 | 18.256 | 2 | 43.983 | 18.409 | 33.034 | 2 |
| 2025-06-21T13:21:00 | 53.916105 | 6.330481 | 2.0 | 18.285 | 2 | 44.009 | 18.443 | 33.028 | 2 |
| 2025-06-21T13:22:00 | 53.916013 | 6.330691 | 2.0 | 18.257 | 2 | 44.032 | 18.464 | 33.031 | 2 |
| 2025-06-21T13:23:00 | 53.915911 | 6.330888 | 2.0 | 18.241 | 2 | 44.003 | 18.428 | 33.035 | 2 |
| 2025-06-21T13:24:00 | 53.915831 | 6.331090 | 2.0 | 18.288 | 2 | 43.995 | 18.426 | 33.030 | 2 |
| 2025-06-21T13:25:00 | 53.915774 | 6.331297 | 2.0 | 18.306 | 2 | 44.016 | 18.449 | 33.029 | 2 |
| 2025-06-21T13:26:00 | 53.915725 | 6.331533 | 2.0 | 18.328 | 2 | 44.046 | 18.484 | 33.026 | 2 |
| 2025-06-21T13:27:00 | 53.915661 | 6.331776 | 2.0 | 18.278 | 2 | 44.055 | 18.489 | 33.030 | 2 |
| 2025-06-21T13:28:00 | 53.915576 | 6.331993 | 2.0 | 18.216 | 2 | 43.992 | 18.417 | 33.035 | 2 |
| 2025-06-21T13:29:00 | 53.915472 | 6.332235 | 2.0 | 18.239 | 2 | 43.952 | 18.383 | 33.028 | 2 |
| 2025-06-21T13:30:00 | 53.915350 | 6.332502 | 2.0 | 18.207 | 2 | 43.985 | 18.419 | 33.027 | 2 |
| 2025-06-21T13:31:00 | 53.915221 | 6.332789 | 2.0 | 18.142 | 2 | 43.938 | 18.364 | 33.032 | 2 |
| 2025-06-21T13:32:00 | 53.915093 | 6.333084 | 2.0 | 18.169 | 2 | 43.880 | 18.307 | 33.029 | 2 |
| 2025-06-21T13:33:00 | 53.914982 | 6.333380 | 2.0 | 18.205 | 2 | 43.908 | 18.341 | 33.025 | 2 |
| 2025-06-21T13:34:00 | 53.914892 | 6.333685 | 2.0 | 18.291 | 2 | 43.936 | 18.373 | 33.023 | 2 |
| 2025-06-21T13:35:00 | 53.914800 | 6.333999 | 2.0 | 18.337 | 2 | 44.016 | 18.463 | 33.018 | 2 |
| 2025-06-21T13:36:00 | 53.914694 | 6.334258 | 2.0 | 17.811 | 2 | 44.013 | 18.446 | 33.029 | 2 |
| 2025-06-21T13:37:00 | 53.914595 | 6.334340 | 2.0 | 16.863 | 2 | 43.471 | 17.835 | 33.064 | 2 |
| 2025-06-21T13:38:00 | 53.914640 | 6.334032 | 2.0 | 16.668 | 2 | 42.741 | 17.063 | 33.068 | 2 |
| 2025-06-21T13:39:00 | 53.914749 | 6.333033 | 2.0 | 16.713 | 2 | 42.547 | 16.891 | 33.042 | 2 |
| 2025-06-21T13:40:00 | 53.914876 | 6.331513 | 2.0 | 16.766 | 2 | 42.559 | 16.909 | 33.037 | 2 |
| 2025-06-21T13:41:00 | 53.915011 | 6.329445 | 2.0 | 16.758 | 2 | 42.590 | 16.940 | 33.039 | 2 |
| 2025-06-21T13:42:00 | 53.915160 | 6.327021 | 2.0 | 16.748 | 2 | 42.592 | 16.935 | 33.045 | 2 |
| 2025-06-21T13:43:00 | 53.915311 | 6.324399 | 2.0 | 16.725 | 2 | 42.584 | 16.927 | 33.044 | 2 |
| 2025-06-21T13:44:00 | 53.915459 | 6.321671 | 2.0 | 16.690 | 2 | 42.553 | 16.895 | 33.044 | 2 |
| 2025-06-21T13:45:00 | 53.915590 | 6.318849 | 2.0 | 16.712 | 2 | 42.536 | 16.877 | 33.044 | 2 |
| 2025-06-21T13:46:00 | 53.915685 | 6.315924 | 2.0 | 16.648 | 2 | 42.545 | 16.869 | 33.058 | 2 |
| 2025-06-21T13:47:00 | 53.915783 | 6.312950 | 2.0 | 16.658 | 2 | 42.507 | 16.823 | 33.063 | 2 |
| 2025-06-21T13:48:00 | 53.915880 | 6.309955 | 2.0 | 16.688 | 2 | 42.531 | 16.838 | 33.071 | 2 |
| 2025-06-21T13:49:00 | 53.915974 | 6.306954 | 2.0 | 16.700 | 2 | 42.567 | 16.861 | 33.084 | 2 |
| 2025-06-21T13:50:00 | 53.916071 | 6.303948 | 2.0 | 16.657 | 2 | 42.597 | 16.873 | 33.100 | 2 |
| 2025-06-21T13:51:00 | 53.916163 | 6.300942 | 2.0 | 16.580 | 2 | 42.589 | 16.838 | 33.122 | 2 |
| 2025-06-21T13:52:00 | 53.916252 | 6.297935 | 2.0 | 16.523 | 2 | 42.521 | 16.737 | 33.146 | 2 |
| 2025-06-21T13:53:00 | 53.916328 | 6.294931 | 2.0 | 16.554 | 2 | 42.503 | 16.706 | 33.156 | 2 |
| 2025-06-21T13:54:00 | 53.916402 | 6.291934 | 2.0 | 16.603 | 2 | 42.543 | 16.734 | 33.168 | 2 |
| 2025-06-21T13:55:00 | 53.916468 | 6.288946 | 2.0 | 16.531 | 2 | 42.603 | 16.772 | 33.189 | 2 |
| 2025-06-21T13:56:00 | 53.916527 | 6.285967 | 2.0 | 16.654 | 2 | 42.584 | 16.727 | 33.209 | 2 |
| 2025-06-21T13:57:00 | 53.916575 | 6.282987 | 2.0 | 16.611 | 2 | 42.736 | 16.833 | 33.254 | 2 |
| 2025-06-21T13:58:00 | 53.916628 | 6.280003 | 2.0 | 16.346 | 2 | 42.689 | 16.750 | 33.282 | 2 |
| 2025-06-21T13:59:00 | 53.916675 | 6.277224 | 2.0 | 16.355 | 2 | 42.476 | 16.540 | 33.270 | 2 |
| 2025-06-21T14:00:00 | 53.916739 | 6.274967 | 2.0 | 16.394 | 2 | 42.487 | 16.546 | 33.275 | 2 |
| 2025-06-21T14:01:00 | 53.916769 | 6.273113 | 2.0 | 16.393 | 2 | 42.536 | 16.571 | 33.297 | 2 |
| 2025-06-21T14:02:00 | 53.916896 | 6.271561 | 2.0 | 16.382 | 2 | 42.537 | 16.552 | 33.314 | 2 |
| 2025-06-21T14:03:00 | 53.916879 | 6.270264 | 2.0 | 16.399 | 2 | 42.569 | 16.585 | 33.314 | 2 |
| 2025-06-21T14:04:00 | 53.916671 | 6.269264 | 2.0 | 16.369 | 2 | 42.562 | 16.558 | 33.330 | 2 |
| 2025-06-21T14:05:00 | 53.916311 | 6.268634 | 2.0 | 16.347 | 2 | 42.541 | 16.537 | 33.330 | 2 |
| 2025-06-21T14:06:00 | 53.915879 | 6.268434 | 2.0 | 16.446 | 2 | 42.534 | 16.532 | 33.328 | 2 |
| 2025-06-21T14:07:00 | 53.915480 | 6.268588 | 2.0 | 17.165 | 2 | 42.731 | 16.756 | 33.313 | 2 |
| 2025-06-21T14:08:00 | 53.915164 | 6.268966 | 2.0 | 17.845 | 2 | 43.328 | 17.405 | 33.293 | 2 |
| 2025-06-21T14:09:00 | 53.914934 | 6.269448 | 2.0 | 18.070 | 2 | 43.918 | 18.005 | 33.306 | 2 |
| 2025-06-21T14:10:00 | 53.914773 | 6.269951 | 2.0 | 18.095 | 2 | 44.141 | 18.217 | 33.322 | 2 |
| 2025-06-21T14:11:00 | 53.914664 | 6.270436 | 2.0 | 18.141 | 2 | 44.171 | 18.242 | 33.327 | 2 |
| 2025-06-21T14:12:00 | 53.914583 | 6.270886 | 2.0 | 18.147 | 2 | 44.212 | 18.285 | 33.327 | 2 |
| 2025-06-21T14:13:00 | 53.914517 | 6.271295 | 2.0 | 18.152 | 2 | 44.230 | 18.303 | 33.327 | 2 |
| 2025-06-21T14:14:00 | 53.914456 | 6.271667 | 2.0 | 18.154 | 2 | 44.236 | 18.309 | 33.327 | 2 |
| 2025-06-21T14:15:00 | 53.914407 | 6.271997 | 2.0 | 18.170 | 2 | 44.237 | 18.310 | 33.327 | 2 |
| 2025-06-21T14:16:00 | 53.914364 | 6.272294 | 2.0 | 18.205 | 2 | 44.257 | 18.335 | 33.324 | 2 |
| 2025-06-21T14:17:00 | 53.914334 | 6.272557 | 2.0 | 18.247 | 2 | 44.295 | 18.375 | 33.323 | 2 |
| 2025-06-21T14:18:00 | 53.914317 | 6.272800 | 2.0 | 18.225 | 2 | 44.323 | 18.402 | 33.325 | 2 |
| 2025-06-21T14:19:00 | 53.914305 | 6.273022 | 2.0 | 18.233 | 2 | 44.308 | 18.385 | 33.326 | 2 |
| 2025-06-21T14:20:00 | 53.914302 | 6.273223 | 2.0 | 18.235 | 2 | 44.306 | 18.384 | 33.325 | 2 |
| 2025-06-21T14:21:00 | 53.914307 | 6.273410 | 2.0 | 18.286 | 2 | 44.323 | 18.405 | 33.323 | 2 |
| 2025-06-21T14:22:00 | 53.914319 | 6.273588 | 2.0 | 18.299 | 2 | 44.360 | 18.442 | 33.324 | 2 |
| 2025-06-21T14:23:00 | 53.914341 | 6.273757 | 2.0 | 18.281 | 2 | 44.373 | 18.454 | 33.325 | 2 |
| 2025-06-21T14:24:00 | 53.914369 | 6.273924 | 2.0 | 18.299 | 2 | 44.370 | 18.446 | 33.329 | 2 |
| 2025-06-21T14:25:00 | 53.914403 | 6.274089 | 2.0 | 18.294 | 2 | 44.380 | 18.458 | 33.328 | 2 |
| 2025-06-21T14:26:00 | 53.914445 | 6.274251 | 2.0 | 18.292 | 2 | 44.387 | 18.464 | 33.329 | 2 |
| 2025-06-21T14:27:00 | 53.914495 | 6.274411 | 2.0 | 18.321 | 2 | 44.390 | 18.467 | 33.329 | 2 |
| 2025-06-21T14:28:00 | 53.914552 | 6.274571 | 2.0 | 18.356 | 2 | 44.419 | 18.498 | 33.328 | 2 |
| 2025-06-21T14:29:00 | 53.914614 | 6.274731 | 2.0 | 18.370 | 2 | 44.453 | 18.530 | 33.331 | 2 |
| 2025-06-21T14:30:00 | 53.914680 | 6.274892 | 2.0 | 18.383 | 2 | 44.468 | 18.551 | 33.326 | 2 |
| 2025-06-21T14:31:00 | 53.914756 | 6.275055 | 2.0 | 18.370 | 2 | 44.475 | 18.556 | 33.328 | 2 |
| 2025-06-21T14:32:00 | 53.914837 | 6.275215 | 2.0 | 18.351 | 2 | 44.466 | 18.540 | 33.333 | 2 |
| 2025-06-21T14:33:00 | 53.914925 | 6.275384 | 2.0 | 18.385 | 2 | 44.466 | 18.539 | 33.334 | 2 |
| 2025-06-21T14:34:00 | 53.915020 | 6.275556 | 2.0 | 18.407 | 2 | 44.490 | 18.562 | 33.336 | 2 |
| 2025-06-21T14:35:00 | 53.915120 | 6.275731 | 2.0 | 18.398 | 2 | 44.515 | 18.591 | 33.333 | 2 |
| 2025-06-21T14:36:00 | 53.915222 | 6.275908 | 2.0 | 18.401 | 2 | 44.507 | 18.575 | 33.339 | 2 |
| 2025-06-21T14:37:00 | 53.915329 | 6.276084 | 2.0 | 18.473 | 2 | 44.527 | 18.602 | 33.334 | 2 |
| 2025-06-21T14:38:00 | 53.915440 | 6.276261 | 2.0 | 18.402 | 2 | 44.558 | 18.630 | 33.338 | 2 |
| 2025-06-21T14:39:00 | 53.915556 | 6.276438 | 2.0 | 18.445 | 2 | 44.514 | 18.581 | 33.340 | 2 |
| 2025-06-21T14:40:00 | 53.915675 | 6.276616 | 2.0 | 18.412 | 2 | 44.542 | 18.611 | 33.340 | 2 |
| 2025-06-21T14:41:00 | 53.915795 | 6.276798 | 2.0 | 18.408 | 2 | 44.518 | 18.582 | 33.343 | 2 |
| 2025-06-21T14:42:00 | 53.915921 | 6.276986 | 2.0 | 18.398 | 2 | 44.509 | 18.573 | 33.343 | 2 |
| 2025-06-21T14:43:00 | 53.916050 | 6.277180 | 2.0 | 18.395 | 2 | 44.506 | 18.569 | 33.343 | 2 |
| 2025-06-21T14:44:00 | 53.916186 | 6.277378 | 2.0 | 18.413 | 2 | 44.496 | 18.558 | 33.344 | 2 |
| 2025-06-21T14:45:00 | 53.916326 | 6.277574 | 2.0 | 18.432 | 2 | 44.513 | 18.577 | 33.343 | 2 |
| 2025-06-21T14:46:00 | 53.916464 | 6.277772 | 2.0 | 18.463 | 2 | 44.537 | 18.602 | 33.343 | 2 |
| 2025-06-21T14:47:00 | 53.916608 | 6.277974 | 2.0 | 18.410 | 2 | 44.548 | 18.609 | 33.346 | 2 |
| 2025-06-21T14:48:00 | 53.916756 | 6.278181 | 2.0 | 18.466 | 2 | 44.529 | 18.594 | 33.342 | 2 |
| 2025-06-21T14:49:00 | 53.916902 | 6.278391 | 2.0 | 18.410 | 2 | 44.555 | 18.619 | 33.344 | 2 |
| 2025-06-21T14:50:00 | 53.917050 | 6.278602 | 2.0 | 18.386 | 2 | 44.510 | 18.573 | 33.344 | 2 |
| 2025-06-21T14:51:00 | 53.917204 | 6.278811 | 2.0 | 18.430 | 2 | 44.485 | 18.545 | 33.345 | 2 |
| 2025-06-21T14:52:00 | 53.917360 | 6.279014 | 2.0 | 18.437 | 2 | 44.519 | 18.584 | 33.342 | 2 |
| 2025-06-21T14:53:00 | 53.917525 | 6.279221 | 2.0 | 18.408 | 2 | 44.528 | 18.587 | 33.347 | 2 |
| 2025-06-21T14:54:00 | 53.917687 | 6.279434 | 2.0 | 18.421 | 2 | 44.519 | 18.581 | 33.345 | 2 |
| 2025-06-21T14:55:00 | 53.917849 | 6.279655 | 2.0 | 18.377 | 2 | 44.511 | 18.569 | 33.348 | 2 |
| 2025-06-21T14:56:00 | 53.918012 | 6.279887 | 2.0 | 18.255 | 2 | 44.475 | 18.530 | 33.349 | 2 |
| 2025-06-21T14:57:00 | 53.918175 | 6.280124 | 2.0 | 18.296 | 2 | 44.392 | 18.441 | 33.351 | 2 |
| 2025-06-21T14:58:00 | 53.918337 | 6.280371 | 2.0 | 18.290 | 2 | 44.407 | 18.460 | 33.349 | 2 |
| 2025-06-21T14:59:00 | 53.918498 | 6.280624 | 2.0 | 18.325 | 2 | 44.394 | 18.445 | 33.350 | 2 |
| 2025-06-21T15:00:00 | 53.918659 | 6.280887 | 2.0 | 18.210 | 2 | 44.420 | 18.472 | 33.350 | 2 |
| 2025-06-21T15:01:00 | 53.918818 | 6.281158 | 2.0 | 18.029 | 2 | 44.276 | 18.308 | 33.362 | 2 |
| 2025-06-21T15:02:00 | 53.918975 | 6.281430 | 2.0 | 18.181 | 2 | 44.181 | 18.221 | 33.352 | 2 |
| 2025-06-21T15:03:00 | 53.919132 | 6.281708 | 2.0 | 18.288 | 2 | 44.307 | 18.374 | 33.334 | 2 |
| 2025-06-21T15:04:00 | 53.919288 | 6.281987 | 2.0 | 18.303 | 2 | 44.380 | 18.443 | 33.340 | 2 |
| 2025-06-21T15:05:00 | 53.919449 | 6.282269 | 2.0 | 18.145 | 2 | 44.379 | 18.432 | 33.348 | 2 |
| 2025-06-21T15:06:00 | 53.919601 | 6.282554 | 2.0 | 18.148 | 2 | 44.258 | 18.299 | 33.354 | 2 |
| 2025-06-21T15:07:00 | 53.919760 | 6.282849 | 2.0 | 18.145 | 2 | 44.260 | 18.310 | 33.347 | 2 |
| 2025-06-21T15:08:00 | 53.919921 | 6.283155 | 2.0 | 18.068 | 2 | 44.266 | 18.312 | 33.350 | 2 |
| 2025-06-21T15:09:00 | 53.920083 | 6.283469 | 2.0 | 18.021 | 2 | 44.199 | 18.236 | 33.355 | 2 |
| 2025-06-21T15:10:00 | 53.920247 | 6.283787 | 2.0 | 17.969 | 2 | 44.136 | 18.166 | 33.359 | 2 |
| 2025-06-21T15:11:00 | 53.920412 | 6.284108 | 2.0 | 18.002 | 2 | 44.107 | 18.139 | 33.357 | 2 |
| 2025-06-21T15:12:00 | 53.920575 | 6.284429 | 2.0 | 18.073 | 2 | 44.142 | 18.182 | 33.351 | 2 |
| 2025-06-21T15:13:00 | 53.920744 | 6.284749 | 2.0 | 18.120 | 2 | 44.193 | 18.232 | 33.354 | 2 |
| 2025-06-21T15:14:00 | 53.920915 | 6.285075 | 2.0 | 18.018 | 2 | 44.221 | 18.258 | 33.356 | 2 |
| 2025-06-21T15:15:00 | 53.921085 | 6.285399 | 2.0 | 17.962 | 2 | 44.158 | 18.185 | 33.362 | 2 |
| 2025-06-21T15:16:00 | 53.921255 | 6.285726 | 2.0 | 17.994 | 2 | 44.116 | 18.146 | 33.359 | 2 |
| 2025-06-21T15:17:00 | 53.921425 | 6.286063 | 2.0 | 18.021 | 2 | 44.129 | 18.163 | 33.356 | 2 |
| 2025-06-21T15:18:00 | 53.921595 | 6.286399 | 2.0 | 17.942 | 2 | 44.116 | 18.138 | 33.365 | 2 |
| 2025-06-21T15:19:00 | 53.921767 | 6.286733 | 2.0 | 18.078 | 2 | 44.117 | 18.155 | 33.352 | 2 |
| 2025-06-21T15:20:00 | 53.921936 | 6.287071 | 2.0 | 17.926 | 2 | 44.183 | 18.214 | 33.360 | 2 |
| 2025-06-21T15:21:00 | 53.922106 | 6.287407 | 2.0 | 17.847 | 2 | 44.049 | 18.070 | 33.364 | 2 |
| 2025-06-21T15:22:00 | 53.922283 | 6.287735 | 2.0 | 17.905 | 2 | 44.000 | 18.021 | 33.362 | 2 |
| 2025-06-21T15:23:00 | 53.922466 | 6.288056 | 2.0 | 18.012 | 2 | 44.050 | 18.079 | 33.357 | 2 |
| 2025-06-21T15:24:00 | 53.922652 | 6.288373 | 2.0 | 18.081 | 2 | 44.139 | 18.176 | 33.354 | 2 |
| 2025-06-21T15:25:00 | 53.922837 | 6.288697 | 2.0 | 18.062 | 2 | 44.200 | 18.243 | 33.351 | 2 |
| 2025-06-21T15:26:00 | 53.923018 | 6.289025 | 2.0 | 17.981 | 2 | 44.162 | 18.196 | 33.357 | 2 |
| 2025-06-21T15:27:00 | 53.923195 | 6.289352 | 2.0 | 17.988 | 2 | 44.122 | 18.156 | 33.355 | 2 |
| 2025-06-21T15:28:00 | 53.923370 | 6.289681 | 2.0 | 17.967 | 2 | 44.117 | 18.143 | 33.362 | 2 |
| 2025-06-21T15:29:00 | 53.923544 | 6.290012 | 2.0 | 17.963 | 2 | 44.108 | 18.132 | 33.363 | 2 |
| 2025-06-21T15:30:00 | 53.923718 | 6.290347 | 2.0 | 17.974 | 2 | 44.102 | 18.125 | 33.364 | 2 |
| 2025-06-21T15:31:00 | 53.923886 | 6.290688 | 2.0 | 17.921 | 2 | 44.102 | 18.123 | 33.365 | 2 |
| 2025-06-21T15:32:00 | 53.924053 | 6.291035 | 2.0 | 17.917 | 2 | 44.047 | 18.065 | 33.366 | 2 |
| 2025-06-21T15:33:00 | 53.924220 | 6.291379 | 2.0 | 17.963 | 2 | 44.074 | 18.105 | 33.356 | 2 |
| 2025-06-21T15:34:00 | 53.924392 | 6.291720 | 2.0 | 17.971 | 2 | 44.093 | 18.114 | 33.365 | 2 |
| 2025-06-21T15:35:00 | 53.924562 | 6.292060 | 2.0 | 17.959 | 2 | 44.112 | 18.136 | 33.363 | 2 |
| 2025-06-21T15:36:00 | 53.924730 | 6.292402 | 2.0 | 18.008 | 2 | 44.109 | 18.134 | 33.362 | 2 |
| 2025-06-21T15:37:00 | 53.924900 | 6.292754 | 2.0 | 17.885 | 2 | 44.125 | 18.148 | 33.365 | 2 |
| 2025-06-21T15:38:00 | 53.925073 | 6.293106 | 2.0 | 17.882 | 2 | 44.061 | 18.074 | 33.371 | 2 |
| 2025-06-21T15:39:00 | 53.925245 | 6.293447 | 2.0 | 18.025 | 2 | 44.055 | 18.079 | 33.362 | 2 |
| 2025-06-21T15:40:00 | 53.925423 | 6.293780 | 2.0 | 18.004 | 2 | 44.155 | 18.191 | 33.355 | 2 |
| 2025-06-21T15:41:00 | 53.925602 | 6.294117 | 2.0 | 17.867 | 2 | 44.097 | 18.114 | 33.369 | 2 |
| 2025-06-21T15:42:00 | 53.925785 | 6.294459 | 2.0 | 17.910 | 2 | 44.024 | 18.044 | 33.364 | 2 |
| 2025-06-21T15:43:00 | 53.925966 | 6.294798 | 2.0 | 17.940 | 2 | 44.058 | 18.080 | 33.363 | 2 |
| 2025-06-21T15:44:00 | 53.926148 | 6.295139 | 2.0 | 17.873 | 2 | 44.076 | 18.095 | 33.366 | 2 |
| 2025-06-21T15:45:00 | 53.926330 | 6.295477 | 2.0 | 17.835 | 2 | 44.022 | 18.031 | 33.373 | 2 |
| 2025-06-21T15:46:00 | 53.926508 | 6.295812 | 2.0 | 17.835 | 2 | 43.985 | 17.995 | 33.371 | 2 |
| 2025-06-21T15:47:00 | 53.926686 | 6.296145 | 2.0 | 17.813 | 2 | 43.980 | 17.991 | 33.370 | 2 |
| 2025-06-21T15:48:00 | 53.926866 | 6.296477 | 2.0 | 17.855 | 2 | 43.978 | 17.990 | 33.369 | 2 |
| 2025-06-21T15:49:00 | 53.927047 | 6.296808 | 2.0 | 17.763 | 2 | 43.986 | 17.993 | 33.373 | 2 |
| 2025-06-21T15:50:00 | 53.927226 | 6.297140 | 2.0 | 17.797 | 2 | 43.931 | 17.937 | 33.372 | 2 |
| 2025-06-21T15:51:00 | 53.927406 | 6.297474 | 2.0 | 17.836 | 2 | 43.961 | 17.972 | 33.369 | 2 |
| 2025-06-21T15:52:00 | 53.927584 | 6.297806 | 2.0 | 17.726 | 2 | 43.965 | 17.967 | 33.377 | 2 |
| 2025-06-21T15:53:00 | 53.927760 | 6.298137 | 2.0 | 17.774 | 2 | 43.900 | 17.901 | 33.375 | 2 |
| 2025-06-21T15:54:00 | 53.927935 | 6.298470 | 2.0 | 17.758 | 2 | 43.937 | 17.947 | 33.369 | 2 |
| 2025-06-21T15:55:00 | 53.928108 | 6.298813 | 2.0 | 17.673 | 2 | 43.900 | 17.897 | 33.379 | 2 |
| 2025-06-21T15:56:00 | 53.928279 | 6.299157 | 2.0 | 17.680 | 2 | 43.849 | 17.849 | 33.375 | 2 |
| 2025-06-21T15:57:00 | 53.928450 | 6.299501 | 2.0 | 17.643 | 2 | 43.842 | 17.836 | 33.379 | 2 |
| 2025-06-21T15:58:00 | 53.928617 | 6.299837 | 2.0 | 17.676 | 2 | 43.822 | 17.816 | 33.379 | 2 |
| 2025-06-21T15:59:00 | 53.928785 | 6.300164 | 2.0 | 17.630 | 2 | 43.836 | 17.829 | 33.380 | 2 |
| 2025-06-21T16:00:00 | 53.928958 | 6.300485 | 2.0 | 17.642 | 2 | 43.810 | 17.802 | 33.380 | 2 |
| 2025-06-21T16:01:00 | 53.929130 | 6.300814 | 2.0 | 17.626 | 2 | 43.812 | 17.802 | 33.382 | 2 |
| 2025-06-21T16:02:00 | 53.929304 | 6.301137 | 2.0 | 17.618 | 2 | 43.799 | 17.788 | 33.382 | 2 |
| 2025-06-21T16:03:00 | 53.929477 | 6.301467 | 2.0 | 17.620 | 2 | 43.789 | 17.776 | 33.383 | 2 |
| 2025-06-21T16:04:00 | 53.929650 | 6.301803 | 2.0 | 17.649 | 2 | 43.797 | 17.788 | 33.380 | 2 |
| 2025-06-21T16:05:00 | 53.929821 | 6.302139 | 2.0 | 17.624 | 2 | 43.741 | 17.805 | 33.319 | 2 |
| 2025-06-21T16:06:00 | 53.929993 | 6.302471 | 2.0 | 17.575 | 2 | 43.637 | 17.771 | 33.258 | 2 |
| 2025-06-21T16:07:00 | 53.930161 | 6.302801 | 2.0 | 17.589 | 2 | 43.761 | 17.747 | 33.383 | 2 |
| 2025-06-21T16:08:00 | 53.930327 | 6.303139 | 2.0 | 17.558 | 2 | 43.682 | 17.753 | 33.311 | 2 |
| 2025-06-21T16:09:00 | 53.930487 | 6.303487 | 2.0 | 17.566 | 2 | 43.737 | 17.716 | 33.388 | 2 |
| 2025-06-21T16:10:00 | 53.930644 | 6.303841 | 2.0 | 17.651 | 2 | 43.759 | 17.745 | 33.383 | 2 |
| 2025-06-21T16:11:00 | 53.930800 | 6.304200 | 2.0 | 17.511 | 2 | 43.811 | 17.801 | 33.382 | 2 |
| 2025-06-21T16:12:00 | 53.930955 | 6.304557 | 2.0 | 17.541 | 2 | 43.695 | 17.685 | 33.378 | 2 |
| 2025-06-21T16:13:00 | 53.931102 | 6.304921 | 2.0 | 17.489 | 2 | 43.643 | 17.695 | 33.325 | 2 |
| 2025-06-21T16:14:00 | 53.931243 | 6.305287 | 2.0 | 17.507 | 2 | 43.658 | 17.651 | 33.374 | 2 |
| 2025-06-21T16:15:00 | 53.931382 | 6.305648 | 2.0 | 17.519 | 2 | 43.681 | 17.671 | 33.377 | 2 |
| 2025-06-21T16:16:00 | 53.931522 | 6.306015 | 2.0 | 17.578 | 2 | 43.519 | 17.686 | 33.227 | 2 |
| 2025-06-21T16:17:00 | 53.931660 | 6.306382 | 2.0 | 17.617 | 2 | 43.654 | 17.749 | 33.290 | 2 |
| 2025-06-21T16:18:00 | 53.931802 | 6.306744 | 2.0 | 17.622 | 2 | 43.664 | 17.774 | 33.278 | 2 |
| 2025-06-21T16:19:00 | 53.931947 | 6.307107 | 2.0 | 17.562 | 2 | 43.610 | 17.780 | 33.227 | 2 |
| 2025-06-21T16:20:00 | 53.932087 | 6.307461 | 2.0 | 17.551 | 2 | 43.552 | 17.714 | 33.232 | 2 |
| 2025-06-21T16:21:00 | 53.932233 | 6.307819 | 2.0 | 17.603 | 2 | 43.561 | 17.727 | 33.229 | 2 |
| 2025-06-21T16:22:00 | 53.932378 | 6.308179 | 2.0 | 17.560 | 2 | 43.563 | 17.755 | 33.208 | 2 |
| 2025-06-21T16:23:00 | 53.932522 | 6.308536 | 2.0 | 17.579 | 2 | 43.592 | 17.728 | 33.255 | 2 |
| 2025-06-21T16:24:00 | 53.932663 | 6.308896 | 2.0 | 17.530 | 2 | 43.596 | 17.729 | 33.257 | 2 |
| 2025-06-21T16:25:00 | 53.932804 | 6.309259 | 2.0 | 17.517 | 2 | 43.567 | 17.697 | 33.259 | 2 |
| 2025-06-21T16:26:00 | 53.932948 | 6.309628 | 2.0 | 17.459 | 2 | 43.550 | 17.673 | 33.264 | 2 |
| 2025-06-21T16:27:00 | 53.933084 | 6.309995 | 2.0 | 17.495 | 2 | 43.504 | 17.629 | 33.260 | 2 |
| 2025-06-21T16:28:00 | 53.933219 | 6.310353 | 2.0 | 17.454 | 2 | 43.548 | 17.665 | 33.269 | 2 |
| 2025-06-21T16:29:00 | 53.933353 | 6.310710 | 2.0 | 17.454 | 2 | 43.513 | 17.600 | 33.292 | 2 |
| 2025-06-21T16:30:00 | 53.933484 | 6.311076 | 2.0 | 17.392 | 2 | 43.534 | 17.606 | 33.305 | 2 |
| 2025-06-21T16:31:00 | 53.933613 | 6.311444 | 2.0 | 17.418 | 2 | 43.479 | 17.564 | 33.292 | 2 |
| 2025-06-21T16:32:00 | 53.933739 | 6.311812 | 2.0 | 17.451 | 2 | 43.505 | 17.596 | 33.288 | 2 |
| 2025-06-21T16:33:00 | 53.933863 | 6.312177 | 2.0 | 17.359 | 2 | 43.531 | 17.594 | 33.312 | 2 |
| 2025-06-21T16:34:00 | 53.933990 | 6.312543 | 2.0 | 17.374 | 2 | 43.473 | 17.533 | 33.313 | 2 |
| 2025-06-21T16:35:00 | 53.934118 | 6.312907 | 2.0 | 17.366 | 2 | 43.506 | 17.538 | 33.337 | 2 |
| 2025-06-21T16:36:00 | 53.934240 | 6.313276 | 2.0 | 17.437 | 2 | 43.488 | 17.544 | 33.316 | 2 |
| 2025-06-21T16:37:00 | 53.934368 | 6.313635 | 2.0 | 17.482 | 2 | 43.550 | 17.607 | 33.318 | 2 |
| 2025-06-21T16:38:00 | 53.934498 | 6.313988 | 2.0 | 17.381 | 2 | 43.554 | 17.622 | 33.309 | 2 |
| 2025-06-21T16:39:00 | 53.934626 | 6.314341 | 2.0 | 17.388 | 2 | 43.525 | 17.545 | 33.347 | 2 |
| 2025-06-21T16:40:00 | 53.934754 | 6.314694 | 2.0 | 17.471 | 2 | 43.568 | 17.571 | 33.363 | 2 |
| 2025-06-21T16:41:00 | 53.934880 | 6.315049 | 2.0 | 17.476 | 2 | 43.636 | 17.637 | 33.367 | 2 |
| 2025-06-21T16:42:00 | 53.935005 | 6.315403 | 2.0 | 17.491 | 2 | 43.625 | 17.631 | 33.362 | 2 |
| 2025-06-21T16:43:00 | 53.935129 | 6.315757 | 2.0 | 17.498 | 2 | 43.664 | 17.657 | 33.374 | 2 |
| 2025-06-21T16:44:00 | 53.935250 | 6.316111 | 2.0 | 17.506 | 2 | 43.653 | 17.665 | 33.358 | 2 |
| 2025-06-21T16:45:00 | 53.935368 | 6.316468 | 2.0 | 17.468 | 2 | 43.671 | 17.655 | 33.382 | 2 |
| 2025-06-21T16:46:00 | 53.935480 | 6.316830 | 2.0 | 17.522 | 2 | 43.666 | 17.642 | 33.388 | 2 |
| 2025-06-21T16:47:00 | 53.935593 | 6.317187 | 2.0 | 17.562 | 2 | 43.702 | 17.691 | 33.379 | 2 |
| 2025-06-21T16:48:00 | 53.935709 | 6.317547 | 2.0 | 17.570 | 2 | 43.739 | 17.723 | 33.384 | 2 |
| 2025-06-21T16:49:00 | 53.935827 | 6.317916 | 2.0 | 17.522 | 2 | 43.736 | 17.718 | 33.386 | 2 |
| 2025-06-21T16:50:00 | 53.935948 | 6.318287 | 2.0 | 17.559 | 2 | 43.701 | 17.690 | 33.379 | 2 |
| 2025-06-21T16:51:00 | 53.936067 | 6.318641 | 2.0 | 17.599 | 2 | 43.740 | 17.729 | 33.380 | 2 |
| 2025-06-21T16:52:00 | 53.936185 | 6.318992 | 2.0 | 17.605 | 2 | 43.778 | 17.759 | 33.388 | 2 |
| 2025-06-21T16:53:00 | 53.936304 | 6.319343 | 2.0 | 17.612 | 2 | 43.780 | 17.768 | 33.382 | 2 |
| 2025-06-21T16:54:00 | 53.936421 | 6.319689 | 2.0 | 17.600 | 2 | 43.792 | 17.773 | 33.388 | 2 |
| 2025-06-21T16:55:00 | 53.936539 | 6.320033 | 2.0 | 17.590 | 2 | 43.777 | 17.756 | 33.389 | 2 |
| 2025-06-21T16:56:00 | 53.936653 | 6.320376 | 2.0 | 17.579 | 2 | 43.776 | 17.754 | 33.390 | 2 |
| 2025-06-21T16:57:00 | 53.936766 | 6.320715 | 2.0 | 17.569 | 2 | 43.761 | 17.738 | 33.391 | 2 |
| 2025-06-21T16:58:00 | 53.936880 | 6.321045 | 2.0 | 17.603 | 2 | 43.752 | 17.735 | 33.385 | 2 |
| 2025-06-21T16:59:00 | 53.936999 | 6.321361 | 2.0 | 17.613 | 2 | 43.782 | 17.765 | 33.386 | 2 |
| 2025-06-21T17:00:00 | 53.937113 | 6.321687 | 2.0 | 17.606 | 2 | 43.791 | 17.773 | 33.387 | 2 |
| 2025-06-21T17:01:00 | 53.937230 | 6.322019 | 2.0 | 17.591 | 2 | 43.783 | 17.762 | 33.390 | 2 |
| 2025-06-21T17:02:00 | 53.937347 | 6.322347 | 2.0 | 17.582 | 2 | 43.774 | 17.756 | 33.387 | 2 |
| 2025-06-21T17:03:00 | 53.937466 | 6.322672 | 2.0 | 17.580 | 2 | 43.757 | 17.738 | 33.387 | 2 |
| 2025-06-21T17:04:00 | 53.937589 | 6.322990 | 2.0 | 17.508 | 2 | 43.750 | 17.728 | 33.389 | 2 |
| 2025-06-21T17:05:00 | 53.937710 | 6.323293 | 2.0 | 17.459 | 2 | 43.684 | 17.660 | 33.389 | 2 |
| 2025-06-21T17:06:00 | 53.937832 | 6.323601 | 2.0 | 17.448 | 2 | 43.644 | 17.622 | 33.386 | 2 |
| 2025-06-21T17:07:00 | 53.937956 | 6.323913 | 2.0 | 17.446 | 2 | 43.630 | 17.612 | 33.382 | 2 |
| 2025-06-21T17:08:00 | 53.938084 | 6.324226 | 2.0 | 17.491 | 2 | 43.632 | 17.615 | 33.381 | 2 |
| 2025-06-21T17:09:00 | 53.938206 | 6.324538 | 2.0 | 17.518 | 2 | 43.662 | 17.655 | 33.374 | 2 |
| 2025-06-21T17:10:00 | 53.938329 | 6.324849 | 2.0 | 17.478 | 2 | 43.687 | 17.673 | 33.381 | 2 |
| 2025-06-21T17:11:00 | 53.938454 | 6.325153 | 2.0 | 17.469 | 2 | 43.657 | 17.639 | 33.383 | 2 |
| 2025-06-21T17:12:00 | 53.938583 | 6.325452 | 2.0 | 17.494 | 2 | 43.649 | 17.637 | 33.378 | 2 |
| 2025-06-21T17:13:00 | 53.938714 | 6.325752 | 2.0 | 17.499 | 2 | 43.671 | 17.659 | 33.379 | 2 |
| 2025-06-21T17:14:00 | 53.938848 | 6.326050 | 2.0 | 17.478 | 2 | 43.668 | 17.653 | 33.381 | 2 |
| 2025-06-21T17:15:00 | 53.938985 | 6.326331 | 2.0 | 17.489 | 2 | 43.653 | 17.645 | 33.375 | 2 |
| 2025-06-21T17:16:00 | 53.939126 | 6.326613 | 2.0 | 17.481 | 2 | 43.657 | 17.651 | 33.373 | 2 |
| 2025-06-21T17:17:00 | 53.939265 | 6.326896 | 2.0 | 17.479 | 2 | 43.651 | 17.643 | 33.375 | 2 |
| 2025-06-21T17:18:00 | 53.939398 | 6.327174 | 2.0 | 17.495 | 2 | 43.652 | 17.640 | 33.378 | 2 |
| 2025-06-21T17:19:00 | 53.939532 | 6.327455 | 2.0 | 17.462 | 2 | 43.662 | 17.648 | 33.380 | 2 |
| 2025-06-21T17:20:00 | 53.939661 | 6.327741 | 2.0 | 17.465 | 2 | 43.641 | 17.627 | 33.379 | 2 |
| 2025-06-21T17:21:00 | 53.939791 | 6.328021 | 2.0 | 17.482 | 2 | 43.644 | 17.633 | 33.377 | 2 |
| 2025-06-21T17:22:00 | 53.939921 | 6.328289 | 2.0 | 17.486 | 2 | 43.654 | 17.642 | 33.378 | 2 |
| 2025-06-21T17:23:00 | 53.940052 | 6.328571 | 2.0 | 17.472 | 2 | 43.652 | 17.640 | 33.378 | 2 |
| 2025-06-21T17:24:00 | 53.940181 | 6.328843 | 2.0 | 17.510 | 2 | 43.656 | 17.646 | 33.376 | 2 |
| 2025-06-21T17:25:00 | 53.940311 | 6.329107 | 2.0 | 17.528 | 2 | 43.680 | 17.674 | 33.374 | 2 |
| 2025-06-21T17:26:00 | 53.940438 | 6.329362 | 2.0 | 17.475 | 2 | 43.681 | 17.677 | 33.372 | 2 |
| 2025-06-21T17:27:00 | 53.940562 | 6.329620 | 2.0 | 17.479 | 2 | 43.646 | 17.638 | 33.374 | 2 |
| 2025-06-21T17:28:00 | 53.940685 | 6.329874 | 2.0 | 17.496 | 2 | 43.654 | 17.645 | 33.376 | 2 |
| 2025-06-21T17:29:00 | 53.940807 | 6.330126 | 2.0 | 17.491 | 2 | 43.671 | 17.659 | 33.379 | 2 |
| 2025-06-21T17:30:00 | 53.940924 | 6.330379 | 2.0 | 17.483 | 2 | 43.658 | 17.642 | 33.381 | 2 |
| 2025-06-21T17:31:00 | 53.941043 | 6.330632 | 2.0 | 17.513 | 2 | 43.662 | 17.652 | 33.377 | 2 |
| 2025-06-21T17:32:00 | 53.941162 | 6.330887 | 2.0 | 17.478 | 2 | 43.680 | 17.669 | 33.378 | 2 |
| 2025-06-21T17:33:00 | 53.941278 | 6.331149 | 2.0 | 17.484 | 2 | 43.650 | 17.646 | 33.371 | 2 |
| 2025-06-21T17:34:00 | 53.941389 | 6.331412 | 2.0 | 17.511 | 2 | 43.647 | 17.651 | 33.365 | 2 |
| 2025-06-21T17:35:00 | 53.941499 | 6.331673 | 2.0 | 17.533 | 2 | 43.548 | 17.673 | 33.262 | 2 |
| 2025-06-21T17:36:00 | 53.941608 | 6.331924 | 2.0 | 17.517 | 2 | 43.678 | 17.687 | 33.362 | 2 |
| 2025-06-21T17:37:00 | 53.941711 | 6.332172 | 2.0 | 17.544 | 2 | 43.699 | 17.687 | 33.379 | 2 |
| 2025-06-21T17:38:00 | 53.941812 | 6.332423 | 2.0 | 17.501 | 2 | 43.636 | 17.691 | 33.322 | 2 |
| 2025-06-21T17:39:00 | 53.941912 | 6.332678 | 2.0 | 17.523 | 2 | 43.548 | 17.670 | 33.264 | 2 |
| 2025-06-21T17:40:00 | 53.942008 | 6.332934 | 2.0 | 17.551 | 2 | 43.631 | 17.681 | 33.326 | 2 |
| 2025-06-21T17:41:00 | 53.942103 | 6.333188 | 2.0 | 17.579 | 2 | 43.712 | 17.716 | 33.367 | 2 |
| 2025-06-21T17:42:00 | 53.942204 | 6.333440 | 2.0 | 17.590 | 2 | 43.617 | 17.740 | 33.266 | 2 |
| 2025-06-21T17:43:00 | 53.942304 | 6.333677 | 2.0 | 17.591 | 2 | 43.706 | 17.755 | 33.330 | 2 |
| 2025-06-21T17:44:00 | 53.942406 | 6.333911 | 2.0 | 17.588 | 2 | 43.673 | 17.749 | 33.306 | 2 |
| 2025-06-21T17:45:00 | 53.942507 | 6.334139 | 2.0 | 17.552 | 2 | 43.612 | 17.742 | 33.260 | 2 |
| 2025-06-21T17:46:00 | 53.942611 | 6.334349 | 2.0 | 17.564 | 2 | 43.549 | 17.716 | 33.228 | 2 |
| 2025-06-21T17:47:00 | 53.942715 | 6.334555 | 2.0 | 17.512 | 2 | 43.522 | 17.708 | 33.211 | 2 |
| 2025-06-21T17:48:00 | 53.942812 | 6.334761 | 2.0 | 17.572 | 2 | 43.511 | 17.692 | 33.215 | 2 |
| 2025-06-21T17:49:00 | 53.942911 | 6.334967 | 2.0 | 17.557 | 2 | 43.556 | 17.725 | 33.226 | 2 |
| 2025-06-21T17:50:00 | 53.943006 | 6.335168 | 2.0 | 17.518 | 2 | 43.545 | 17.710 | 33.229 | 2 |
| 2025-06-21T17:51:00 | 53.943103 | 6.335370 | 2.0 | 17.539 | 2 | 43.544 | 17.688 | 33.246 | 2 |
| 2025-06-21T17:52:00 | 53.943201 | 6.335563 | 2.0 | 17.548 | 2 | 43.566 | 17.704 | 33.252 | 2 |
| 2025-06-21T17:53:00 | 53.943298 | 6.335747 | 2.0 | 17.547 | 2 | 43.613 | 17.709 | 33.288 | 2 |
| 2025-06-21T17:54:00 | 53.943394 | 6.335925 | 2.0 | 17.549 | 2 | 43.565 | 17.707 | 33.249 | 2 |
| 2025-06-21T17:55:00 | 53.943492 | 6.336099 | 2.0 | 17.569 | 2 | 43.578 | 17.709 | 33.258 | 2 |
| 2025-06-21T17:56:00 | 53.943588 | 6.336271 | 2.0 | 17.576 | 2 | 43.632 | 17.736 | 33.282 | 2 |
| 2025-06-21T17:57:00 | 53.943677 | 6.336437 | 2.0 | 17.546 | 2 | 43.631 | 17.735 | 33.282 | 2 |
| 2025-06-21T17:58:00 | 53.943764 | 6.336595 | 2.0 | 17.523 | 2 | 43.604 | 17.697 | 33.290 | 2 |
| 2025-06-21T17:59:00 | 53.943851 | 6.336743 | 2.0 | 17.545 | 2 | 43.596 | 17.688 | 33.291 | 2 |
| 2025-06-21T18:00:00 | 53.943938 | 6.336887 | 2.0 | 17.481 | 2 | 43.615 | 17.696 | 33.300 | 2 |
| 2025-06-21T18:01:00 | 53.944021 | 6.337031 | 2.0 | 17.503 | 2 | 43.600 | 17.652 | 33.324 | 2 |
| 2025-06-21T18:02:00 | 53.944103 | 6.337170 | 2.0 | 17.480 | 2 | 43.614 | 17.663 | 33.327 | 2 |
| 2025-06-21T18:03:00 | 53.944183 | 6.337300 | 2.0 | 17.469 | 2 | 43.569 | 17.637 | 33.309 | 2 |
| 2025-06-21T18:04:00 | 53.944262 | 6.337424 | 2.0 | 17.476 | 2 | 43.621 | 17.636 | 33.355 | 2 |
| 2025-06-21T18:05:00 | 53.944344 | 6.337545 | 2.0 | 17.471 | 2 | 43.609 | 17.636 | 33.344 | 2 |
| 2025-06-21T18:06:00 | 53.944430 | 6.337653 | 2.0 | 17.467 | 2 | 43.611 | 17.633 | 33.349 | 2 |
| 2025-06-21T18:07:00 | 53.944515 | 6.337759 | 2.0 | 17.445 | 2 | 43.627 | 17.625 | 33.369 | 2 |
| 2025-06-21T18:08:00 | 53.944600 | 6.337858 | 2.0 | 17.450 | 2 | 43.609 | 17.608 | 33.367 | 2 |
| 2025-06-21T18:09:00 | 53.944683 | 6.337952 | 2.0 | 17.451 | 2 | 43.621 | 17.610 | 33.376 | 2 |
| 2025-06-21T18:10:00 | 53.944765 | 6.338037 | 2.0 | 17.461 | 2 | 43.467 | 17.617 | 33.239 | 2 |
| 2025-06-21T18:11:00 | 53.944816 | 6.338100 | 2.0 | 17.439 | 2 | 43.543 | 17.617 | 33.304 | 2 |
| 2025-06-21T18:12:00 | 53.944834 | 6.338144 | 2.0 | 17.445 | 2 | 43.513 | 17.602 | 33.290 | 2 |
| 2025-06-21T18:13:00 | 53.944820 | 6.338182 | 2.0 | 17.406 | 2 | 43.538 | 17.605 | 33.309 | 2 |
| 2025-06-21T18:14:00 | 53.944782 | 6.338219 | 2.0 | 17.404 | 2 | 43.453 | 17.563 | 33.271 | 2 |
| 2025-06-21T18:15:00 | 53.944749 | 6.338242 | 2.0 | 17.459 | 2 | 43.461 | 17.579 | 33.265 | 2 |
| 2025-06-21T18:16:00 | 53.944637 | 6.338287 | 2.0 | 17.438 | 2 | 43.493 | 17.614 | 33.263 | 2 |
| 2025-06-21T18:17:00 | 53.944569 | 6.338303 | 2.0 | 17.428 | 2 | 43.464 | 17.597 | 33.252 | 2 |
| 2025-06-21T18:18:00 | 53.944430 | 6.338331 | 2.0 | 17.466 | 2 | 43.489 | 17.598 | 33.273 | 2 |
| 2025-06-21T18:19:00 | 53.944277 | 6.338367 | 2.0 | 17.466 | 2 | 43.509 | 17.626 | 33.267 | 2 |
| 2025-06-21T18:20:00 | 53.944140 | 6.338402 | 2.0 | 17.450 | 2 | 43.521 | 17.625 | 33.278 | 2 |
| 2025-06-21T18:21:00 | 53.944001 | 6.338431 | 2.0 | 17.460 | 2 | 43.535 | 17.606 | 33.306 | 2 |
| 2025-06-21T18:22:00 | 53.943848 | 6.338442 | 2.0 | 17.475 | 2 | 43.536 | 17.623 | 33.293 | 2 |
| 2025-06-21T18:23:00 | 53.943676 | 6.338445 | 2.0 | 17.552 | 2 | 43.580 | 17.648 | 33.310 | 2 |
| 2025-06-21T18:24:00 | 53.943489 | 6.338459 | 2.0 | 17.588 | 2 | 43.649 | 17.708 | 33.320 | 2 |
| 2025-06-21T18:25:00 | 53.943291 | 6.338469 | 2.0 | 17.589 | 2 | 43.681 | 17.733 | 33.326 | 2 |
| 2025-06-21T18:26:00 | 53.943084 | 6.338452 | 2.0 | 17.628 | 2 | 43.708 | 17.767 | 33.322 | 2 |
| 2025-06-21T18:27:00 | 53.942864 | 6.338441 | 2.0 | 17.549 | 2 | 43.741 | 17.783 | 33.337 | 2 |
| 2025-06-21T18:28:00 | 53.942640 | 6.338436 | 2.0 | 17.566 | 2 | 43.695 | 17.732 | 33.339 | 2 |
| 2025-06-21T18:29:00 | 53.942413 | 6.338395 | 2.0 | 17.471 | 2 | 43.686 | 17.686 | 33.369 | 2 |
| 2025-06-21T18:30:00 | 53.942182 | 6.338341 | 2.0 | 17.575 | 2 | 43.640 | 17.633 | 33.373 | 2 |
| 2025-06-21T18:31:00 | 53.941948 | 6.338312 | 2.0 | 17.671 | 2 | 43.763 | 17.750 | 33.382 | 2 |
| 2025-06-21T18:32:00 | 53.941716 | 6.338273 | 2.0 | 17.638 | 2 | 43.840 | 17.822 | 33.389 | 2 |
| 2025-06-21T18:33:00 | 53.941485 | 6.338189 | 2.0 | 17.565 | 2 | 43.760 | 17.753 | 33.377 | 2 |
| 2025-06-21T18:34:00 | 53.941250 | 6.338082 | 2.0 | 17.254 | 2 | 43.750 | 17.733 | 33.385 | 2 |
| 2025-06-21T18:35:00 | 53.941010 | 6.337951 | 2.0 | 17.160 | 2 | 43.478 | 17.412 | 33.416 | 2 |
| 2025-06-21T18:36:00 | 53.940764 | 6.337790 | 2.0 | 17.067 | 2 | 43.334 | 17.272 | 33.408 | 2 |
| 2025-06-21T18:37:00 | 53.940506 | 6.337632 | 2.0 | 17.458 | 2 | 43.321 | 17.273 | 33.396 | 2 |
| 2025-06-21T18:38:00 | 53.940248 | 6.337462 | 2.0 | 17.351 | 2 | 43.557 | 17.512 | 33.402 | 2 |
| 2025-06-21T18:39:00 | 53.939993 | 6.337268 | 2.0 | 17.640 | 2 | 43.606 | 17.579 | 33.389 | 2 |
| 2025-06-21T18:40:00 | 53.939729 | 6.337098 | 2.0 | 17.582 | 2 | 43.843 | 17.806 | 33.405 | 2 |
| 2025-06-21T18:41:00 | 53.939466 | 6.336932 | 2.0 | 17.751 | 2 | 43.799 | 17.745 | 33.417 | 2 |
| 2025-06-21T18:42:00 | 53.939213 | 6.336713 | 2.0 | 17.573 | 2 | 43.830 | 17.777 | 33.417 | 2 |
| 2025-06-21T18:43:00 | 53.938959 | 6.336489 | 2.0 | 17.624 | 2 | 43.796 | 17.744 | 33.415 | 2 |
| 2025-06-21T18:44:00 | 53.938701 | 6.336311 | 2.0 | 17.743 | 2 | 43.887 | 17.847 | 33.409 | 2 |
| 2025-06-21T18:45:00 | 53.938455 | 6.336129 | 2.0 | 17.729 | 2 | 43.960 | 17.914 | 33.416 | 2 |
| 2025-06-21T18:46:00 | 53.938221 | 6.335896 | 2.0 | 17.760 | 2 | 43.942 | 17.888 | 33.422 | 2 |
| 2025-06-21T18:47:00 | 53.937981 | 6.335655 | 2.0 | 17.848 | 2 | 43.935 | 17.879 | 33.423 | 2 |
| 2025-06-21T18:48:00 | 53.937734 | 6.335468 | 2.0 | 17.843 | 2 | 44.006 | 17.963 | 33.415 | 2 |
| 2025-06-21T18:49:00 | 53.937498 | 6.335275 | 2.0 | 17.897 | 2 | 44.043 | 17.995 | 33.420 | 2 |
| 2025-06-21T18:50:00 | 53.937272 | 6.335023 | 2.0 | 17.984 | 2 | 44.123 | 18.083 | 33.416 | 2 |
| 2025-06-21T18:51:00 | 53.937046 | 6.334755 | 2.0 | 17.998 | 2 | 44.181 | 18.138 | 33.420 | 2 |
| 2025-06-21T18:52:00 | 53.936804 | 6.334548 | 2.0 | 18.021 | 2 | 44.194 | 18.150 | 33.421 | 2 |
| 2025-06-21T18:53:00 | 53.936569 | 6.334362 | 2.0 | 18.050 | 2 | 44.218 | 18.177 | 33.420 | 2 |
| 2025-06-21T18:54:00 | 53.936352 | 6.334134 | 2.0 | 18.075 | 2 | 44.248 | 18.210 | 33.418 | 2 |
| 2025-06-21T18:55:00 | 53.936148 | 6.333834 | 2.0 | 18.080 | 2 | 44.266 | 18.230 | 33.417 | 2 |
| 2025-06-21T18:56:00 | 53.935939 | 6.333527 | 2.0 | 18.109 | 2 | 44.276 | 18.242 | 33.416 | 2 |
| 2025-06-21T18:57:00 | 53.935723 | 6.333241 | 2.0 | 18.118 | 2 | 44.299 | 18.266 | 33.415 | 2 |
| 2025-06-21T18:58:00 | 53.935505 | 6.332937 | 2.0 | 18.109 | 2 | 44.303 | 18.270 | 33.415 | 2 |
| 2025-06-21T18:59:00 | 53.935285 | 6.332594 | 2.0 | 18.099 | 2 | 44.295 | 18.262 | 33.415 | 2 |
| 2025-06-21T19:00:00 | 53.935060 | 6.332261 | 2.0 | 18.096 | 2 | 44.292 | 18.254 | 33.419 | 2 |
| 2025-06-21T19:01:00 | 53.934829 | 6.331951 | 2.0 | 18.069 | 2 | 44.287 | 18.251 | 33.417 | 2 |
| 2025-06-21T19:02:00 | 53.934603 | 6.331622 | 2.0 | 18.061 | 2 | 44.261 | 18.221 | 33.420 | 2 |
| 2025-06-21T19:03:00 | 53.934391 | 6.331257 | 2.0 | 18.039 | 2 | 44.256 | 18.218 | 33.418 | 2 |
| 2025-06-21T19:04:00 | 53.934159 | 6.330913 | 2.0 | 18.054 | 2 | 44.236 | 18.198 | 33.418 | 2 |
| 2025-06-21T19:05:00 | 53.933923 | 6.330593 | 2.0 | 18.051 | 2 | 44.241 | 18.211 | 33.411 | 2 |
| 2025-06-21T19:06:00 | 53.933703 | 6.330252 | 2.0 | 18.043 | 2 | 44.239 | 18.208 | 33.412 | 2 |
| 2025-06-21T19:07:00 | 53.933492 | 6.329860 | 2.0 | 18.049 | 2 | 44.220 | 18.199 | 33.403 | 2 |
| 2025-06-21T19:08:00 | 53.933264 | 6.329496 | 2.0 | 18.044 | 2 | 44.231 | 18.205 | 33.408 | 2 |
| 2025-06-21T19:09:00 | 53.933029 | 6.329174 | 2.0 | 18.011 | 2 | 44.226 | 18.198 | 33.409 | 2 |
| 2025-06-21T19:10:00 | 53.932813 | 6.328845 | 2.0 | 17.988 | 2 | 44.199 | 18.166 | 33.412 | 2 |
| 2025-06-21T19:11:00 | 53.932619 | 6.328455 | 2.0 | 17.977 | 2 | 44.180 | 18.146 | 33.413 | 2 |
| 2025-06-21T19:12:00 | 53.932432 | 6.328029 | 2.0 | 17.966 | 2 | 44.169 | 18.135 | 33.412 | 2 |
| 2025-06-21T19:13:00 | 53.932219 | 6.327661 | 2.0 | 17.955 | 2 | 44.155 | 18.123 | 33.410 | 2 |
| 2025-06-21T19:14:00 | 53.932009 | 6.327330 | 2.0 | 17.944 | 2 | 44.143 | 18.113 | 33.408 | 2 |
| 2025-06-21T19:15:00 | 53.931815 | 6.326978 | 2.0 | 17.910 | 2 | 44.133 | 18.100 | 33.410 | 2 |
| 2025-06-21T19:16:00 | 53.931639 | 6.326563 | 2.0 | 17.866 | 2 | 44.098 | 18.064 | 33.410 | 2 |
| 2025-06-21T19:17:00 | 53.931464 | 6.326123 | 2.0 | 17.864 | 2 | 44.061 | 18.028 | 33.408 | 2 |
| 2025-06-21T19:18:00 | 53.931275 | 6.325704 | 2.0 | 17.805 | 2 | 44.044 | 18.012 | 33.407 | 2 |
| 2025-06-21T19:19:00 | 53.931086 | 6.325288 | 2.0 | 17.774 | 2 | 43.997 | 17.965 | 33.405 | 2 |
| 2025-06-21T19:20:00 | 53.930913 | 6.324825 | 2.0 | 17.746 | 2 | 43.958 | 17.934 | 33.398 | 2 |
| 2025-06-21T19:21:00 | 53.930729 | 6.324367 | 2.0 | 17.723 | 2 | 43.927 | 17.903 | 33.397 | 2 |
| 2025-06-21T19:22:00 | 53.930537 | 6.323944 | 2.0 | 17.740 | 2 | 43.910 | 17.887 | 33.395 | 2 |
| 2025-06-21T19:23:00 | 53.930352 | 6.323528 | 2.0 | 17.726 | 2 | 43.922 | 17.896 | 33.398 | 2 |
| 2025-06-21T19:24:00 | 53.930191 | 6.323057 | 2.0 | 17.689 | 2 | 43.904 | 17.883 | 33.394 | 2 |
| 2025-06-21T19:25:00 | 53.930031 | 6.322565 | 2.0 | 17.687 | 2 | 43.870 | 17.847 | 33.394 | 2 |
| 2025-06-21T19:26:00 | 53.929850 | 6.322116 | 2.0 | 17.724 | 2 | 43.874 | 17.855 | 33.391 | 2 |
| 2025-06-21T19:27:00 | 53.929673 | 6.321688 | 2.0 | 17.709 | 2 | 43.899 | 17.881 | 33.391 | 2 |
| 2025-06-21T19:28:00 | 53.929516 | 6.321229 | 2.0 | 17.691 | 2 | 43.889 | 17.867 | 33.394 | 2 |
| 2025-06-21T19:29:00 | 53.929371 | 6.320716 | 2.0 | 17.714 | 2 | 43.878 | 17.855 | 33.394 | 2 |
| 2025-06-21T19:30:00 | 53.929211 | 6.320238 | 2.0 | 17.723 | 2 | 43.898 | 17.878 | 33.393 | 2 |
| 2025-06-21T19:31:00 | 53.929045 | 6.319807 | 2.0 | 17.710 | 2 | 43.903 | 17.880 | 33.395 | 2 |
| 2025-06-21T19:32:00 | 53.928886 | 6.319366 | 2.0 | 17.688 | 2 | 43.889 | 17.867 | 33.394 | 2 |
| 2025-06-21T19:33:00 | 53.928743 | 6.318884 | 2.0 | 17.655 | 2 | 43.869 | 17.843 | 33.397 | 2 |
| 2025-06-21T19:34:00 | 53.928590 | 6.318374 | 2.0 | 17.635 | 2 | 43.839 | 17.811 | 33.397 | 2 |
| 2025-06-21T19:35:00 | 53.928424 | 6.317909 | 2.0 | 17.697 | 2 | 43.831 | 17.807 | 33.394 | 2 |
| 2025-06-21T19:36:00 | 53.928260 | 6.317449 | 2.0 | 17.719 | 2 | 43.877 | 17.859 | 33.390 | 2 |
| 2025-06-21T19:37:00 | 53.928105 | 6.316947 | 2.0 | 17.723 | 2 | 43.899 | 17.878 | 33.393 | 2 |
| 2025-06-21T19:38:00 | 53.927948 | 6.316420 | 2.0 | 17.697 | 2 | 43.900 | 17.879 | 33.393 | 2 |
| 2025-06-21T19:39:00 | 53.927768 | 6.315936 | 2.0 | 17.688 | 2 | 43.881 | 17.857 | 33.395 | 2 |
| 2025-06-21T19:40:00 | 53.927586 | 6.315468 | 2.0 | 17.660 | 2 | 43.871 | 17.848 | 33.394 | 2 |
| 2025-06-21T19:41:00 | 53.927412 | 6.314960 | 2.0 | 17.629 | 2 | 43.834 | 17.806 | 33.397 | 2 |
| 2025-06-21T19:42:00 | 53.927255 | 6.314398 | 2.0 | 17.579 | 2 | 43.807 | 17.778 | 33.397 | 2 |
| 2025-06-21T19:43:00 | 53.927077 | 6.313849 | 2.0 | 17.675 | 2 | 43.795 | 17.771 | 33.392 | 2 |
| 2025-06-21T19:44:00 | 53.926887 | 6.313335 | 2.0 | 17.664 | 2 | 43.864 | 17.847 | 33.389 | 2 |
| 2025-06-21T19:45:00 | 53.926703 | 6.312832 | 2.0 | 17.698 | 2 | 43.867 | 17.845 | 33.393 | 2 |
| 2025-06-21T19:46:00 | 53.926530 | 6.312291 | 2.0 | 17.404 | 2 | 43.818 | 17.781 | 33.404 | 2 |
| 2025-06-21T19:47:00 | 53.926369 | 6.311695 | 2.0 | 17.400 | 2 | 43.633 | 17.592 | 33.401 | 2 |
| 2025-06-21T19:48:00 | 53.926182 | 6.311117 | 2.0 | 17.699 | 2 | 43.613 | 17.596 | 33.381 | 2 |
| 2025-06-21T19:49:00 | 53.925985 | 6.310578 | 2.0 | 17.729 | 2 | 43.858 | 17.848 | 33.383 | 2 |
| 2025-06-21T19:50:00 | 53.925795 | 6.310016 | 2.0 | 17.658 | 2 | 43.895 | 17.871 | 33.396 | 2 |
| 2025-06-21T19:51:00 | 53.925614 | 6.309411 | 2.0 | 17.430 | 2 | 43.792 | 17.752 | 33.406 | 2 |
| 2025-06-21T19:52:00 | 53.925420 | 6.308804 | 2.0 | 17.680 | 2 | 43.654 | 17.624 | 33.393 | 2 |
| 2025-06-21T19:53:00 | 53.925216 | 6.308221 | 2.0 | 17.655 | 2 | 43.833 | 17.822 | 33.383 | 2 |
| 2025-06-21T19:54:00 | 53.925022 | 6.307606 | 2.0 | 17.514 | 2 | 43.809 | 17.773 | 33.403 | 2 |
| 2025-06-21T19:55:00 | 53.924831 | 6.306958 | 2.0 | 17.637 | 2 | 43.703 | 17.669 | 33.398 | 2 |
| 2025-06-21T19:56:00 | 53.924631 | 6.306338 | 2.0 | 17.700 | 2 | 43.813 | 17.792 | 33.391 | 2 |
| 2025-06-21T19:57:00 | 53.924434 | 6.305726 | 2.0 | 17.665 | 2 | 43.865 | 17.842 | 33.394 | 2 |
| 2025-06-21T19:58:00 | 53.924248 | 6.305096 | 2.0 | 17.622 | 2 | 43.851 | 17.823 | 33.398 | 2 |
| 2025-06-21T19:59:00 | 53.924074 | 6.304420 | 2.0 | 17.516 | 2 | 43.787 | 17.751 | 33.402 | 2 |
| 2025-06-21T20:00:00 | 53.923887 | 6.303734 | 2.0 | 17.567 | 2 | 43.723 | 17.688 | 33.399 | 2 |
| 2025-06-21T20:01:00 | 53.923683 | 6.303083 | 2.0 | 17.646 | 2 | 43.762 | 17.735 | 33.394 | 2 |
| 2025-06-21T20:02:00 | 53.923490 | 6.302458 | 2.0 | 17.616 | 2 | 43.822 | 17.795 | 33.396 | 2 |
| 2025-06-21T20:03:00 | 53.923307 | 6.301849 | 2.0 | 17.578 | 2 | 43.798 | 17.765 | 33.400 | 2 |
| 2025-06-21T20:04:00 | 53.923135 | 6.301266 | 2.0 | 17.600 | 2 | 43.780 | 17.750 | 33.397 | 2 |
| 2025-06-21T20:05:00 | 53.922982 | 6.300716 | 2.0 | 17.575 | 2 | 43.783 | 17.751 | 33.399 | 2 |
| 2025-06-21T20:06:00 | 53.922844 | 6.300200 | 2.0 | 17.583 | 2 | 43.768 | 17.737 | 33.397 | 2 |
| 2025-06-21T20:07:00 | 53.922725 | 6.299692 | 2.0 | 17.586 | 2 | 43.774 | 17.744 | 33.397 | 2 |
| 2025-06-21T20:08:00 | 53.922615 | 6.299174 | 2.0 | 17.575 | 2 | 43.773 | 17.743 | 33.397 | 2 |
| 2025-06-21T20:09:00 | 53.922521 | 6.298647 | 2.0 | 17.585 | 2 | 43.764 | 17.737 | 33.394 | 2 |
| 2025-06-21T20:10:00 | 53.922439 | 6.298103 | 2.0 | 17.590 | 2 | 43.775 | 17.747 | 33.395 | 2 |
| 2025-06-21T20:11:00 | 53.922361 | 6.297553 | 2.0 | 17.587 | 2 | 43.779 | 17.750 | 33.396 | 2 |
| 2025-06-21T20:12:00 | 53.922294 | 6.296984 | 2.0 | 17.588 | 2 | 43.775 | 17.746 | 33.396 | 2 |
| 2025-06-21T20:13:00 | 53.922232 | 6.296401 | 2.0 | 17.589 | 2 | 43.777 | 17.749 | 33.395 | 2 |
| 2025-06-21T20:14:00 | 53.922176 | 6.295805 | 2.0 | 17.592 | 2 | 43.777 | 17.748 | 33.396 | 2 |
| 2025-06-21T20:15:00 | 53.922122 | 6.295212 | 2.0 | 17.593 | 2 | 43.780 | 17.752 | 33.395 | 2 |
| 2025-06-21T20:16:00 | 53.922070 | 6.294616 | 2.0 | 17.602 | 2 | 43.782 | 17.754 | 33.395 | 2 |
| 2025-06-21T20:17:00 | 53.922020 | 6.294011 | 2.0 | 17.611 | 2 | 43.788 | 17.762 | 33.394 | 2 |
| 2025-06-21T20:18:00 | 53.921971 | 6.293400 | 2.0 | 17.604 | 2 | 43.794 | 17.769 | 33.393 | 2 |
| 2025-06-21T20:19:00 | 53.921926 | 6.292778 | 2.0 | 17.613 | 2 | 43.789 | 17.763 | 33.394 | 2 |
| 2025-06-21T20:20:00 | 53.921885 | 6.292145 | 2.0 | 17.644 | 2 | 43.804 | 17.780 | 33.393 | 2 |
| 2025-06-21T20:21:00 | 53.921840 | 6.291510 | 2.0 | 17.648 | 2 | 43.824 | 17.800 | 33.393 | 2 |
| 2025-06-21T20:22:00 | 53.921796 | 6.290860 | 2.0 | 17.657 | 2 | 43.829 | 17.806 | 33.393 | 2 |
| 2025-06-21T20:23:00 | 53.921753 | 6.290203 | 2.0 | 17.658 | 2 | 43.838 | 17.816 | 33.392 | 2 |
| 2025-06-21T20:24:00 | 53.921715 | 6.289548 | 2.0 | 17.667 | 2 | 43.842 | 17.819 | 33.393 | 2 |
| 2025-06-21T20:25:00 | 53.921681 | 6.288895 | 2.0 | 17.688 | 2 | 43.849 | 17.826 | 33.393 | 2 |
| 2025-06-21T20:26:00 | 53.921651 | 6.288236 | 2.0 | 17.716 | 2 | 43.871 | 17.851 | 33.392 | 2 |
| 2025-06-21T20:27:00 | 53.921618 | 6.287579 | 2.0 | 17.732 | 2 | 43.892 | 17.876 | 33.389 | 2 |
| 2025-06-21T20:28:00 | 53.921582 | 6.286933 | 2.0 | 17.724 | 2 | 43.907 | 17.889 | 33.391 | 2 |
| 2025-06-21T20:29:00 | 53.921542 | 6.286285 | 2.0 | 17.701 | 2 | 43.897 | 17.878 | 33.392 | 2 |
| 2025-06-21T20:30:00 | 53.921501 | 6.285640 | 2.0 | 17.678 | 2 | 43.879 | 17.857 | 33.394 | 2 |
| 2025-06-21T20:31:00 | 53.921459 | 6.284993 | 2.0 | 17.680 | 2 | 43.861 | 17.839 | 33.393 | 2 |
| 2025-06-21T20:32:00 | 53.921420 | 6.284337 | 2.0 | 17.687 | 2 | 43.863 | 17.842 | 33.392 | 2 |
| 2025-06-21T20:33:00 | 53.921386 | 6.283669 | 2.0 | 17.674 | 2 | 43.866 | 17.845 | 33.392 | 2 |
| 2025-06-21T20:34:00 | 53.921354 | 6.283007 | 2.0 | 17.670 | 2 | 43.851 | 17.829 | 33.393 | 2 |
| 2025-06-21T20:35:00 | 53.921323 | 6.282340 | 2.0 | 17.661 | 2 | 43.849 | 17.829 | 33.391 | 2 |
| 2025-06-21T20:36:00 | 53.921289 | 6.281678 | 2.0 | 17.666 | 2 | 43.844 | 17.824 | 33.391 | 2 |
| 2025-06-21T20:37:00 | 53.921260 | 6.281003 | 2.0 | 17.653 | 2 | 43.841 | 17.824 | 33.388 | 2 |
| 2025-06-21T20:38:00 | 53.921233 | 6.280329 | 2.0 | 17.652 | 2 | 43.832 | 17.811 | 33.391 | 2 |
| 2025-06-21T20:39:00 | 53.921203 | 6.279657 | 2.0 | 17.655 | 2 | 43.833 | 17.813 | 33.390 | 2 |
| 2025-06-21T20:40:00 | 53.921170 | 6.278987 | 2.0 | 17.639 | 2 | 43.831 | 17.810 | 33.391 | 2 |
| 2025-06-21T20:41:00 | 53.921138 | 6.278305 | 2.0 | 17.631 | 2 | 43.820 | 17.799 | 33.391 | 2 |
| 2025-06-21T20:42:00 | 53.921105 | 6.277621 | 2.0 | 17.646 | 2 | 43.815 | 17.795 | 33.390 | 2 |
| 2025-06-21T20:43:00 | 53.921072 | 6.276933 | 2.0 | 17.642 | 2 | 43.823 | 17.804 | 33.389 | 2 |
| 2025-06-21T20:44:00 | 53.921040 | 6.276239 | 2.0 | 17.633 | 2 | 43.819 | 17.799 | 33.390 | 2 |
| 2025-06-21T20:45:00 | 53.921007 | 6.275538 | 2.0 | 17.626 | 2 | 43.810 | 17.790 | 33.390 | 2 |
| 2025-06-21T20:46:00 | 53.920973 | 6.274837 | 2.0 | 17.617 | 2 | 43.805 | 17.786 | 33.389 | 2 |
| 2025-06-21T20:47:00 | 53.920939 | 6.274138 | 2.0 | 17.605 | 2 | 43.797 | 17.777 | 33.389 | 2 |
| 2025-06-21T20:48:00 | 53.920905 | 6.273436 | 2.0 | 17.595 | 2 | 43.784 | 17.763 | 33.390 | 2 |
| 2025-06-21T20:49:00 | 53.920874 | 6.272729 | 2.0 | 17.580 | 2 | 43.773 | 17.753 | 33.388 | 2 |
| 2025-06-21T20:50:00 | 53.920841 | 6.272023 | 2.0 | 17.563 | 2 | 43.760 | 17.738 | 33.390 | 2 |
| 2025-06-21T20:51:00 | 53.920807 | 6.271318 | 2.0 | 17.548 | 2 | 43.742 | 17.723 | 33.387 | 2 |
| 2025-06-21T20:52:00 | 53.920777 | 6.270607 | 2.0 | 17.528 | 2 | 43.726 | 17.705 | 33.388 | 2 |
| 2025-06-21T20:53:00 | 53.920743 | 6.269895 | 2.0 | 17.510 | 2 | 43.708 | 17.686 | 33.388 | 2 |
| 2025-06-21T20:54:00 | 53.920709 | 6.269178 | 2.0 | 17.493 | 2 | 43.691 | 17.668 | 33.388 | 2 |
| 2025-06-21T20:55:00 | 53.920677 | 6.268457 | 2.0 | 17.482 | 2 | 43.679 | 17.653 | 33.390 | 2 |
| 2025-06-21T20:56:00 | 53.920646 | 6.267730 | 2.0 | 17.459 | 2 | 43.665 | 17.639 | 33.390 | 2 |
| 2025-06-21T20:57:00 | 53.920611 | 6.267004 | 2.0 | 17.437 | 2 | 43.645 | 17.618 | 33.390 | 2 |
| 2025-06-21T20:58:00 | 53.920577 | 6.266274 | 2.0 | 17.418 | 2 | 43.625 | 17.596 | 33.391 | 2 |
| 2025-06-21T20:59:00 | 53.920544 | 6.265537 | 2.0 | 17.399 | 2 | 43.605 | 17.578 | 33.389 | 2 |
| 2025-06-21T21:00:00 | 53.920513 | 6.264795 | 2.0 | 17.376 | 2 | 43.587 | 17.557 | 33.391 | 2 |
| 2025-06-21T21:01:00 | 53.920481 | 6.264050 | 2.0 | 17.364 | 2 | 43.569 | 17.537 | 33.392 | 2 |
| 2025-06-21T21:02:00 | 53.920452 | 6.263299 | 2.0 | 17.341 | 2 | 43.554 | 17.522 | 33.391 | 2 |
| 2025-06-21T21:03:00 | 53.920424 | 6.262540 | 2.0 | 17.328 | 2 | 43.535 | 17.501 | 33.392 | 2 |
| 2025-06-21T21:04:00 | 53.920392 | 6.261779 | 2.0 | 17.309 | 2 | 43.520 | 17.488 | 33.390 | 2 |
| 2025-06-21T21:05:00 | 53.920364 | 6.261007 | 2.0 | 17.288 | 2 | 43.504 | 17.470 | 33.391 | 2 |
| 2025-06-21T21:06:00 | 53.920344 | 6.260221 | 2.0 | 17.267 | 2 | 43.484 | 17.448 | 33.392 | 2 |
| 2025-06-21T21:07:00 | 53.920323 | 6.259428 | 2.0 | 17.248 | 2 | 43.466 | 17.427 | 33.394 | 2 |
| 2025-06-21T21:08:00 | 53.920302 | 6.258641 | 2.0 | 17.224 | 2 | 43.442 | 17.407 | 33.390 | 2 |
| 2025-06-21T21:09:00 | 53.920282 | 6.257851 | 2.0 | 17.200 | 2 | 43.422 | 17.384 | 33.391 | 2 |
| 2025-06-21T21:10:00 | 53.920261 | 6.257055 | 2.0 | 17.185 | 2 | 43.402 | 17.361 | 33.393 | 2 |
| 2025-06-21T21:11:00 | 53.920240 | 6.256255 | 2.0 | 17.172 | 2 | 43.390 | 17.348 | 33.394 | 2 |
| 2025-06-21T21:12:00 | 53.920222 | 6.255460 | 2.0 | 17.154 | 2 | 43.370 | 17.331 | 33.390 | 2 |
| 2025-06-21T21:13:00 | 53.920206 | 6.254670 | 2.0 | 17.138 | 2 | 43.361 | 17.315 | 33.396 | 2 |
| 2025-06-21T21:14:00 | 53.920190 | 6.253868 | 2.0 | 17.123 | 2 | 43.349 | 17.300 | 33.398 | 2 |
| 2025-06-21T21:15:00 | 53.920174 | 6.253069 | 2.0 | 17.109 | 2 | 43.333 | 17.285 | 33.397 | 2 |
| 2025-06-21T21:16:00 | 53.920161 | 6.252272 | 2.0 | 17.096 | 2 | 43.322 | 17.271 | 33.399 | 2 |
| 2025-06-21T21:17:00 | 53.920145 | 6.251485 | 2.0 | 17.076 | 2 | 43.308 | 17.256 | 33.399 | 2 |
| 2025-06-21T21:18:00 | 53.920128 | 6.250718 | 2.0 | 17.068 | 2 | 43.293 | 17.240 | 33.399 | 2 |
| 2025-06-21T21:19:00 | 53.920107 | 6.249958 | 2.0 | 17.054 | 2 | 43.282 | 17.228 | 33.400 | 2 |
| 2025-06-21T21:20:00 | 53.920078 | 6.249190 | 2.0 | 17.047 | 2 | 43.270 | 17.215 | 33.400 | 2 |
| 2025-06-21T21:21:00 | 53.920045 | 6.248419 | 2.0 | 17.037 | 2 | 43.260 | 17.208 | 33.397 | 2 |
| 2025-06-21T21:22:00 | 53.920011 | 6.247651 | 2.0 | 17.028 | 2 | 43.254 | 17.199 | 33.400 | 2 |
| 2025-06-21T21:23:00 | 53.919978 | 6.246884 | 2.0 | 17.010 | 2 | 43.244 | 17.189 | 33.399 | 2 |
| 2025-06-21T21:24:00 | 53.919944 | 6.246117 | 2.0 | 16.995 | 2 | 43.227 | 17.171 | 33.399 | 2 |
| 2025-06-21T21:25:00 | 53.919905 | 6.245353 | 2.0 | 16.992 | 2 | 43.213 | 17.159 | 33.397 | 2 |
| 2025-06-21T21:26:00 | 53.919867 | 6.244583 | 2.0 | 17.000 | 2 | 43.211 | 17.156 | 33.398 | 2 |
| 2025-06-21T21:27:00 | 53.919831 | 6.243813 | 2.0 | 17.022 | 2 | 43.219 | 17.167 | 33.396 | 2 |
| 2025-06-21T21:28:00 | 53.919795 | 6.243039 | 2.0 | 17.025 | 2 | 43.232 | 17.183 | 33.394 | 2 |
| 2025-06-21T21:29:00 | 53.919765 | 6.242262 | 2.0 | 17.021 | 2 | 43.235 | 17.186 | 33.394 | 2 |
| 2025-06-21T21:30:00 | 53.919731 | 6.241485 | 2.0 | 17.038 | 2 | 43.236 | 17.187 | 33.394 | 2 |
| 2025-06-21T21:31:00 | 53.919696 | 6.240699 | 2.0 | 17.046 | 2 | 43.248 | 17.201 | 33.393 | 2 |
| 2025-06-21T21:32:00 | 53.919667 | 6.239896 | 2.0 | 17.053 | 2 | 43.254 | 17.208 | 33.392 | 2 |
| 2025-06-21T21:33:00 | 53.919638 | 6.239089 | 2.0 | 17.054 | 2 | 43.261 | 17.214 | 33.393 | 2 |
| 2025-06-21T21:34:00 | 53.919613 | 6.238277 | 2.0 | 17.060 | 2 | 43.263 | 17.217 | 33.392 | 2 |
| 2025-06-21T21:35:00 | 53.919591 | 6.237463 | 2.0 | 17.064 | 2 | 43.269 | 17.223 | 33.393 | 2 |
| 2025-06-21T21:36:00 | 53.919576 | 6.236643 | 2.0 | 17.059 | 2 | 43.271 | 17.224 | 33.394 | 2 |
| 2025-06-21T21:37:00 | 53.919561 | 6.235806 | 2.0 | 17.051 | 2 | 43.267 | 17.218 | 33.395 | 2 |
| 2025-06-21T21:38:00 | 53.919549 | 6.234965 | 2.0 | 17.047 | 2 | 43.262 | 17.213 | 33.395 | 2 |
| 2025-06-21T21:39:00 | 53.919537 | 6.234125 | 2.0 | 17.040 | 2 | 43.256 | 17.207 | 33.395 | 2 |
| 2025-06-21T21:40:00 | 53.919522 | 6.233284 | 2.0 | 17.033 | 2 | 43.252 | 17.201 | 33.396 | 2 |
| 2025-06-21T21:41:00 | 53.919509 | 6.232426 | 2.0 | 17.034 | 2 | 43.249 | 17.196 | 33.398 | 2 |
| 2025-06-21T21:42:00 | 53.919506 | 6.231578 | 2.0 | 17.044 | 2 | 43.251 | 17.196 | 33.399 | 2 |
| 2025-06-21T21:43:00 | 53.919505 | 6.230740 | 2.0 | 17.073 | 2 | 43.267 | 17.210 | 33.402 | 2 |
| 2025-06-21T21:44:00 | 53.919506 | 6.229888 | 2.0 | 17.128 | 2 | 43.300 | 17.239 | 33.406 | 2 |
| 2025-06-21T21:45:00 | 53.919512 | 6.229038 | 2.0 | 17.199 | 2 | 43.355 | 17.295 | 33.407 | 2 |
| 2025-06-21T21:46:00 | 53.919520 | 6.228189 | 2.0 | 17.225 | 2 | 43.417 | 17.358 | 33.409 | 2 |
| 2025-06-21T21:47:00 | 53.919526 | 6.227344 | 2.0 | 17.264 | 2 | 43.451 | 17.389 | 33.412 | 2 |
| 2025-06-21T21:48:00 | 53.919531 | 6.226499 | 2.0 | 17.291 | 2 | 43.489 | 17.426 | 33.414 | 2 |
| 2025-06-21T21:49:00 | 53.919528 | 6.225667 | 2.0 | 17.316 | 2 | 43.521 | 17.454 | 33.419 | 2 |
| 2025-06-21T21:50:00 | 53.919522 | 6.224832 | 2.0 | 17.330 | 2 | 43.545 | 17.475 | 33.422 | 2 |
| 2025-06-21T21:51:00 | 53.919511 | 6.223997 | 2.0 | 17.335 | 2 | 43.560 | 17.488 | 33.424 | 2 |
| 2025-06-21T21:52:00 | 53.919500 | 6.223170 | 2.0 | 17.347 | 2 | 43.569 | 17.495 | 33.426 | 2 |
| 2025-06-21T21:53:00 | 53.919487 | 6.222336 | 2.0 | 17.345 | 2 | 43.580 | 17.506 | 33.427 | 2 |
| 2025-06-21T21:54:00 | 53.919469 | 6.221494 | 2.0 | 17.354 | 2 | 43.580 | 17.507 | 33.426 | 2 |
| 2025-06-21T21:55:00 | 53.919452 | 6.220648 | 2.0 | 17.355 | 2 | 43.581 | 17.512 | 33.422 | 2 |
| 2025-06-21T21:56:00 | 53.919440 | 6.219792 | 2.0 | 17.361 | 2 | 43.583 | 17.515 | 33.422 | 2 |
| 2025-06-21T21:57:00 | 53.919429 | 6.218928 | 2.0 | 17.352 | 2 | 43.584 | 17.518 | 33.420 | 2 |
| 2025-06-21T21:58:00 | 53.919430 | 6.218061 | 2.0 | 17.357 | 2 | 43.580 | 17.514 | 33.420 | 2 |
| 2025-06-21T21:59:00 | 53.919426 | 6.217181 | 2.0 | 17.362 | 2 | 43.583 | 17.517 | 33.420 | 2 |
| 2025-06-21T22:00:00 | 53.919422 | 6.216294 | 2.0 | 17.363 | 2 | 43.586 | 17.520 | 33.420 | 2 |
| 2025-06-21T22:01:00 | 53.919420 | 6.215405 | 2.0 | 17.372 | 2 | 43.590 | 17.524 | 33.420 | 2 |
| 2025-06-21T22:02:00 | 53.919424 | 6.214512 | 2.0 | 17.378 | 2 | 43.598 | 17.531 | 33.421 | 2 |
| 2025-06-21T22:03:00 | 53.919430 | 6.213582 | 2.0 | 17.381 | 2 | 43.604 | 17.538 | 33.421 | 2 |
| 2025-06-21T22:04:00 | 53.919423 | 6.212657 | 2.0 | 17.381 | 2 | 43.607 | 17.539 | 33.422 | 2 |
| 2025-06-21T22:05:00 | 53.919399 | 6.211729 | 2.0 | 17.397 | 2 | 43.609 | 17.542 | 33.422 | 2 |
| 2025-06-21T22:06:00 | 53.919350 | 6.210790 | 2.0 | 17.399 | 2 | 43.621 | 17.555 | 33.421 | 2 |
| 2025-06-21T22:07:00 | 53.919270 | 6.209846 | 2.0 | 17.400 | 2 | 43.624 | 17.558 | 33.421 | 2 |
| 2025-06-21T22:08:00 | 53.919171 | 6.208919 | 2.0 | 17.401 | 2 | 43.623 | 17.559 | 33.420 | 2 |
| 2025-06-21T22:09:00 | 53.919062 | 6.208002 | 2.0 | 17.406 | 2 | 43.626 | 17.560 | 33.421 | 2 |
| 2025-06-21T22:10:00 | 53.918944 | 6.207088 | 2.0 | 17.414 | 2 | 43.630 | 17.565 | 33.421 | 2 |
| 2025-06-21T22:11:00 | 53.918814 | 6.206194 | 2.0 | 17.428 | 2 | 43.638 | 17.575 | 33.419 | 2 |
| 2025-06-21T22:12:00 | 53.918681 | 6.205301 | 2.0 | 17.428 | 2 | 43.649 | 17.586 | 33.420 | 2 |
| 2025-06-21T22:13:00 | 53.918529 | 6.204436 | 2.0 | 17.420 | 2 | 43.647 | 17.585 | 33.419 | 2 |
| 2025-06-21T22:14:00 | 53.918351 | 6.203617 | 2.0 | 17.413 | 2 | 43.640 | 17.577 | 33.419 | 2 |
| 2025-06-21T22:15:00 | 53.918163 | 6.202888 | 2.0 | 17.408 | 2 | 43.633 | 17.570 | 33.419 | 2 |
| 2025-06-21T22:16:00 | 53.917987 | 6.202366 | 2.0 | 17.406 | 2 | 43.628 | 17.566 | 33.418 | 2 |
| 2025-06-21T22:17:00 | 53.917917 | 6.202130 | 2.0 | 17.407 | 2 | 43.626 | 17.563 | 33.419 | 2 |
| 2025-06-21T22:18:00 | 53.917918 | 6.202162 | 2.0 | 17.411 | 2 | 43.628 | 17.566 | 33.418 | 2 |
| 2025-06-21T22:19:00 | 53.917936 | 6.202440 | 2.0 | 17.418 | 2 | 43.633 | 17.571 | 33.418 | 2 |
| 2025-06-21T22:20:00 | 53.917972 | 6.202884 | 2.0 | 17.403 | 2 | 43.638 | 17.576 | 33.419 | 2 |
| 2025-06-21T22:21:00 | 53.918017 | 6.203447 | 2.0 | 17.381 | 2 | 43.624 | 17.558 | 33.421 | 2 |
| 2025-06-21T22:22:00 | 53.918051 | 6.204051 | 2.0 | 17.380 | 2 | 43.606 | 17.543 | 33.418 | 2 |
| 2025-06-21T22:23:00 | 53.918078 | 6.204652 | 2.0 | 17.371 | 2 | 43.603 | 17.539 | 33.419 | 2 |
| 2025-06-21T22:24:00 | 53.918099 | 6.205223 | 2.0 | 17.334 | 2 | 43.589 | 17.524 | 33.419 | 2 |
| 2025-06-21T22:25:00 | 53.918111 | 6.205746 | 2.0 | 17.336 | 2 | 43.564 | 17.497 | 33.420 | 2 |
| 2025-06-21T22:26:00 | 53.918124 | 6.206245 | 2.0 | 17.286 | 2 | 43.560 | 17.492 | 33.421 | 2 |
| 2025-06-21T22:27:00 | 53.918137 | 6.206721 | 2.0 | 17.195 | 2 | 43.501 | 17.434 | 33.418 | 2 |
| 2025-06-21T22:28:00 | 53.918141 | 6.207179 | 2.0 | 17.116 | 2 | 43.406 | 17.347 | 33.408 | 2 |
| 2025-06-21T22:29:00 | 53.918168 | 6.207617 | 2.0 | 17.041 | 2 | 43.333 | 17.269 | 33.410 | 2 |
| 2025-06-21T22:30:00 | 53.918160 | 6.208043 | 2.0 | 17.023 | 2 | 43.266 | 17.207 | 33.403 | 2 |
| 2025-06-21T22:31:00 | 53.918193 | 6.208451 | 2.0 | 16.988 | 2 | 43.237 | 17.182 | 33.399 | 2 |
| 2025-06-21T22:32:00 | 53.918211 | 6.208834 | 2.0 | 16.983 | 2 | 43.206 | 17.152 | 33.397 | 2 |
| 2025-06-21T22:33:00 | 53.918217 | 6.209211 | 2.0 | 16.976 | 2 | 43.195 | 17.147 | 33.392 | 2 |
| 2025-06-21T22:34:00 | 53.918236 | 6.209623 | 2.0 | 16.959 | 2 | 43.184 | 17.137 | 33.390 | 2 |
| 2025-06-21T22:35:00 | 53.918255 | 6.210075 | 2.0 | 16.952 | 2 | 43.171 | 17.122 | 33.392 | 2 |
| 2025-06-21T22:36:00 | 53.918256 | 6.210565 | 2.0 | 16.933 | 2 | 43.166 | 17.114 | 33.394 | 2 |
| 2025-06-21T22:37:00 | 53.918279 | 6.211076 | 2.0 | 16.913 | 2 | 43.150 | 17.096 | 33.395 | 2 |
| 2025-06-21T22:38:00 | 53.918294 | 6.211597 | 2.0 | 16.896 | 2 | 43.127 | 17.073 | 33.394 | 2 |
| 2025-06-21T22:39:00 | 53.918295 | 6.212140 | 2.0 | 16.876 | 2 | 43.113 | 17.057 | 33.395 | 2 |
| 2025-06-21T22:40:00 | 53.918312 | 6.212707 | 2.0 | 16.942 | 2 | 43.101 | 17.045 | 33.395 | 2 |
| 2025-06-21T22:41:00 | 53.918333 | 6.213276 | 2.0 | 17.051 | 2 | 43.161 | 17.122 | 33.383 | 2 |
| 2025-06-21T22:42:00 | 53.918339 | 6.213845 | 2.0 | 17.138 | 2 | 43.247 | 17.213 | 33.382 | 2 |
| 2025-06-21T22:43:00 | 53.918377 | 6.214411 | 2.0 | 17.208 | 2 | 43.329 | 17.303 | 33.378 | 2 |
| 2025-06-21T22:44:00 | 53.918397 | 6.214961 | 2.0 | 17.286 | 2 | 43.400 | 17.378 | 33.377 | 2 |
| 2025-06-21T22:45:00 | 53.918415 | 6.215518 | 2.0 | 17.312 | 2 | 43.460 | 17.441 | 33.377 | 2 |
| 2025-06-21T22:46:00 | 53.918461 | 6.216077 | 2.0 | 17.338 | 2 | 43.488 | 17.470 | 33.377 | 2 |
| 2025-06-21T22:47:00 | 53.918486 | 6.216626 | 2.0 | 17.353 | 2 | 43.515 | 17.496 | 33.379 | 2 |
| 2025-06-21T22:48:00 | 53.918517 | 6.217169 | 2.0 | 17.320 | 2 | 43.530 | 17.507 | 33.383 | 2 |
| 2025-06-21T22:49:00 | 53.918567 | 6.217709 | 2.0 | 17.255 | 2 | 43.501 | 17.470 | 33.388 | 2 |
| 2025-06-21T22:50:00 | 53.918595 | 6.218240 | 2.0 | 17.189 | 2 | 43.445 | 17.408 | 33.391 | 2 |
| 2025-06-21T22:51:00 | 53.918629 | 6.218767 | 2.0 | 17.045 | 2 | 43.375 | 17.330 | 33.396 | 2 |
| 2025-06-21T22:52:00 | 53.918668 | 6.219289 | 2.0 | 17.010 | 2 | 43.259 | 17.202 | 33.401 | 2 |
| 2025-06-21T22:53:00 | 53.918685 | 6.219804 | 2.0 | 16.977 | 2 | 43.219 | 17.170 | 33.393 | 2 |
| 2025-06-21T22:54:00 | 53.918711 | 6.220311 | 2.0 | 16.939 | 2 | 43.168 | 17.111 | 33.398 | 2 |
| 2025-06-21T22:55:00 | 53.918734 | 6.220806 | 2.0 | 16.895 | 2 | 43.134 | 17.079 | 33.395 | 2 |
| 2025-06-21T22:56:00 | 53.918740 | 6.221297 | 2.0 | 16.899 | 2 | 43.105 | 17.052 | 33.392 | 2 |
| 2025-06-21T22:57:00 | 53.918770 | 6.221792 | 2.0 | 16.859 | 2 | 43.104 | 17.054 | 33.390 | 2 |
| 2025-06-21T22:58:00 | 53.918779 | 6.222276 | 2.0 | 16.842 | 2 | 43.078 | 17.021 | 33.395 | 2 |
| 2025-06-21T22:59:00 | 53.918790 | 6.222760 | 2.0 | 16.821 | 2 | 43.059 | 16.999 | 33.397 | 2 |
| 2025-06-21T23:00:00 | 53.918813 | 6.223245 | 2.0 | 16.789 | 2 | 43.042 | 16.982 | 33.396 | 2 |
| 2025-06-21T23:01:00 | 53.918821 | 6.223727 | 2.0 | 16.775 | 2 | 43.009 | 16.946 | 33.397 | 2 |
| 2025-06-21T23:02:00 | 53.918831 | 6.224211 | 2.0 | 16.757 | 2 | 42.996 | 16.937 | 33.393 | 2 |
| 2025-06-21T23:03:00 | 53.918853 | 6.224696 | 2.0 | 16.734 | 2 | 42.981 | 16.919 | 33.395 | 2 |
| 2025-06-21T23:04:00 | 53.918863 | 6.225173 | 2.0 | 16.715 | 2 | 42.960 | 16.896 | 33.396 | 2 |
| 2025-06-21T23:05:00 | 53.918871 | 6.225650 | 2.0 | 16.696 | 2 | 42.939 | 16.876 | 33.395 | 2 |
| 2025-06-21T23:06:00 | 53.918898 | 6.226121 | 2.0 | 16.707 | 2 | 42.925 | 16.860 | 33.396 | 2 |
| 2025-06-21T23:07:00 | 53.918896 | 6.226578 | 2.0 | 16.738 | 2 | 42.935 | 16.873 | 33.394 | 2 |
| 2025-06-21T23:08:00 | 53.918907 | 6.227034 | 2.0 | 16.782 | 2 | 42.963 | 16.905 | 33.391 | 2 |
| 2025-06-21T23:09:00 | 53.918924 | 6.227495 | 2.0 | 16.814 | 2 | 43.006 | 16.951 | 33.390 | 2 |
| 2025-06-21T23:10:00 | 53.918927 | 6.227952 | 2.0 | 16.826 | 2 | 43.030 | 16.975 | 33.391 | 2 |
| 2025-06-21T23:11:00 | 53.918943 | 6.228410 | 2.0 | 16.886 | 2 | 43.049 | 16.997 | 33.390 | 2 |
| 2025-06-21T23:12:00 | 53.918965 | 6.228874 | 2.0 | 16.946 | 2 | 43.099 | 17.054 | 33.386 | 2 |
| 2025-06-21T23:13:00 | 53.918968 | 6.229337 | 2.0 | 16.981 | 2 | 43.146 | 17.101 | 33.387 | 2 |
| 2025-06-21T23:14:00 | 53.918993 | 6.229804 | 2.0 | 17.026 | 2 | 43.189 | 17.150 | 33.384 | 2 |
| 2025-06-21T23:15:00 | 53.919020 | 6.230273 | 2.0 | 17.048 | 2 | 43.223 | 17.186 | 33.384 | 2 |
| 2025-06-21T23:16:00 | 53.919032 | 6.230744 | 2.0 | 17.063 | 2 | 43.239 | 17.205 | 33.382 | 2 |
| 2025-06-21T23:17:00 | 53.919054 | 6.231217 | 2.0 | 17.074 | 2 | 43.254 | 17.221 | 33.381 | 2 |
| 2025-06-21T23:18:00 | 53.919072 | 6.231691 | 2.0 | 17.076 | 2 | 43.262 | 17.232 | 33.379 | 2 |
| 2025-06-21T23:19:00 | 53.919081 | 6.232162 | 2.0 | 17.082 | 2 | 43.262 | 17.232 | 33.379 | 2 |
| 2025-06-21T23:20:00 | 53.919101 | 6.232636 | 2.0 | 17.075 | 2 | 43.268 | 17.242 | 33.376 | 2 |
| 2025-06-21T23:21:00 | 53.919122 | 6.233117 | 2.0 | 17.063 | 2 | 43.261 | 17.235 | 33.376 | 2 |
| 2025-06-21T23:22:00 | 53.919132 | 6.233607 | 2.0 | 17.042 | 2 | 43.245 | 17.219 | 33.375 | 2 |
| 2025-06-21T23:23:00 | 53.919154 | 6.234112 | 2.0 | 17.023 | 2 | 43.224 | 17.200 | 33.373 | 2 |
| 2025-06-21T23:24:00 | 53.919179 | 6.234631 | 2.0 | 17.016 | 2 | 43.208 | 17.185 | 33.371 | 2 |
| 2025-06-21T23:25:00 | 53.919147 | 6.235149 | 2.0 | 17.003 | 2 | 43.197 | 17.174 | 33.371 | 2 |
| 2025-06-21T23:26:00 | 53.919139 | 6.235674 | 2.0 | 16.999 | 2 | 43.187 | 17.164 | 33.371 | 2 |
| 2025-06-21T23:27:00 | 53.919111 | 6.236206 | 2.0 | 17.024 | 2 | 43.184 | 17.163 | 33.369 | 2 |
| 2025-06-21T23:28:00 | 53.919101 | 6.236752 | 2.0 | 17.043 | 2 | 43.205 | 17.189 | 33.365 | 2 |
| 2025-06-21T23:29:00 | 53.919092 | 6.237310 | 2.0 | 17.063 | 2 | 43.222 | 17.206 | 33.366 | 2 |
| 2025-06-21T23:30:00 | 53.919074 | 6.237867 | 2.0 | 17.081 | 2 | 43.238 | 17.225 | 33.364 | 2 |
| 2025-06-21T23:31:00 | 53.919064 | 6.238443 | 2.0 | 17.135 | 2 | 43.258 | 17.245 | 33.365 | 2 |
| 2025-06-21T23:32:00 | 53.919067 | 6.239024 | 2.0 | 17.184 | 2 | 43.311 | 17.305 | 33.361 | 2 |
| 2025-06-21T23:33:00 | 53.919059 | 6.239612 | 2.0 | 17.189 | 2 | 43.347 | 17.341 | 33.362 | 2 |
| 2025-06-21T23:34:00 | 53.919052 | 6.240211 | 2.0 | 17.178 | 2 | 43.352 | 17.345 | 33.363 | 2 |
| 2025-06-21T23:35:00 | 53.919056 | 6.240826 | 2.0 | 17.143 | 2 | 43.338 | 17.332 | 33.362 | 2 |
| 2025-06-21T23:36:00 | 53.919049 | 6.241430 | 2.0 | 17.108 | 2 | 43.312 | 17.302 | 33.364 | 2 |
| 2025-06-21T23:37:00 | 53.919041 | 6.241993 | 2.0 | 16.986 | 2 | 43.269 | 17.259 | 33.363 | 2 |
| 2025-06-21T23:38:00 | 53.919049 | 6.242534 | 2.0 | 16.815 | 2 | 43.132 | 17.110 | 33.368 | 2 |
| 2025-06-21T23:39:00 | 53.919055 | 6.243050 | 2.0 | 16.756 | 2 | 42.994 | 16.973 | 33.362 | 2 |
| 2025-06-21T23:40:00 | 53.919065 | 6.243553 | 2.0 | 16.707 | 2 | 42.935 | 16.917 | 33.357 | 2 |
| 2025-06-21T23:41:00 | 53.919095 | 6.244026 | 2.0 | 16.627 | 2 | 42.882 | 16.861 | 33.357 | 2 |
| 2025-06-21T23:42:00 | 53.919106 | 6.244465 | 2.0 | 16.557 | 2 | 42.806 | 16.785 | 33.354 | 2 |
| 2025-06-21T23:43:00 | 53.919149 | 6.244881 | 2.0 | 16.494 | 2 | 42.745 | 16.721 | 33.355 | 2 |
| 2025-06-21T23:44:00 | 53.919168 | 6.245277 | 2.0 | 16.486 | 2 | 42.688 | 16.663 | 33.353 | 2 |
| 2025-06-21T23:45:00 | 53.919216 | 6.245652 | 2.0 | 16.484 | 2 | 42.672 | 16.657 | 33.344 | 2 |
| 2025-06-21T23:46:00 | 53.919273 | 6.246009 | 2.0 | 16.468 | 2 | 42.663 | 16.646 | 33.345 | 2 |
| 2025-06-21T23:47:00 | 53.919311 | 6.246352 | 2.0 | 16.470 | 2 | 42.649 | 16.633 | 33.344 | 2 |
| 2025-06-21T23:48:00 | 53.919368 | 6.246693 | 2.0 | 16.472 | 2 | 42.646 | 16.635 | 33.340 | 2 |
| 2025-06-21T23:49:00 | 53.919418 | 6.247029 | 2.0 | 16.459 | 2 | 42.649 | 16.637 | 33.341 | 2 |
| 2025-06-21T23:50:00 | 53.919463 | 6.247378 | 2.0 | 16.444 | 2 | 42.633 | 16.618 | 33.343 | 2 |
| 2025-06-21T23:51:00 | 53.919523 | 6.247730 | 2.0 | 16.447 | 2 | 42.620 | 16.607 | 33.340 | 2 |
| 2025-06-21T23:52:00 | 53.919522 | 6.248067 | 2.0 | 16.457 | 2 | 42.620 | 16.613 | 33.335 | 2 |
| 2025-06-21T23:53:00 | 53.919531 | 6.248405 | 2.0 | 16.455 | 2 | 42.626 | 16.621 | 33.334 | 2 |
| 2025-06-21T23:54:00 | 53.919515 | 6.248755 | 2.0 | 16.436 | 2 | 42.620 | 16.615 | 33.334 | 2 |
| 2025-06-21T23:55:00 | 53.919518 | 6.249122 | 2.0 | 16.433 | 2 | 42.606 | 16.601 | 33.333 | 2 |
| 2025-06-21T23:56:00 | 53.919499 | 6.249486 | 2.0 | 16.457 | 2 | 42.603 | 16.600 | 33.331 | 2 |
| 2025-06-21T23:57:00 | 53.919507 | 6.249871 | 2.0 | 16.426 | 2 | 42.613 | 16.617 | 33.326 | 2 |
| 2025-06-21T23:58:00 | 53.919505 | 6.250250 | 2.0 | 16.406 | 2 | 42.588 | 16.591 | 33.326 | 2 |
| 2025-06-21T23:59:00 | 53.919501 | 6.250654 | 2.0 | 16.376 | 2 | 42.561 | 16.564 | 33.325 | 2 |
| 2025-06-22T00:00:00 | 53.919505 | 6.251056 | 2.0 | 16.373 | 2 | 42.538 | 16.542 | 33.323 | 2 |
| 2025-06-22T00:01:00 | 53.919498 | 6.251458 | 2.0 | 16.368 | 2 | 42.526 | 16.536 | 33.317 | 2 |
| 2025-06-22T00:02:00 | 53.919504 | 6.251881 | 2.0 | 16.358 | 2 | 42.513 | 16.532 | 33.309 | 2 |
| 2025-06-22T00:03:00 | 53.919488 | 6.252300 | 2.0 | 16.334 | 2 | 42.500 | 16.519 | 33.309 | 2 |
| 2025-06-22T00:04:00 | 53.919488 | 6.252736 | 2.0 | 16.324 | 2 | 42.483 | 16.498 | 33.311 | 2 |
| 2025-06-22T00:05:00 | 53.919480 | 6.253173 | 2.0 | 16.311 | 2 | 42.472 | 16.487 | 33.311 | 2 |
| 2025-06-22T00:06:00 | 53.919467 | 6.253619 | 2.0 | 16.296 | 2 | 42.460 | 16.474 | 33.311 | 2 |
| 2025-06-22T00:07:00 | 53.919468 | 6.254072 | 2.0 | 16.289 | 2 | 42.447 | 16.461 | 33.311 | 2 |
| 2025-06-22T00:08:00 | 53.919447 | 6.254529 | 2.0 | 16.276 | 2 | 42.438 | 16.454 | 33.309 | 2 |
| 2025-06-22T00:09:00 | 53.919451 | 6.254994 | 2.0 | 16.254 | 2 | 42.422 | 16.438 | 33.308 | 2 |
| 2025-06-22T00:10:00 | 53.919437 | 6.255455 | 2.0 | 16.252 | 2 | 42.403 | 16.418 | 33.308 | 2 |
| 2025-06-22T00:11:00 | 53.919437 | 6.255931 | 2.0 | 16.334 | 2 | 42.407 | 16.435 | 33.297 | 2 |
| 2025-06-22T00:12:00 | 53.919440 | 6.256406 | 2.0 | 16.391 | 2 | 42.462 | 16.508 | 33.285 | 2 |
| 2025-06-22T00:13:00 | 53.919438 | 6.256867 | 2.0 | 16.408 | 2 | 42.501 | 16.550 | 33.284 | 2 |
| 2025-06-22T00:14:00 | 53.919452 | 6.257338 | 2.0 | 16.412 | 2 | 42.519 | 16.573 | 33.280 | 2 |
| 2025-06-22T00:15:00 | 53.919450 | 6.257797 | 2.0 | 16.404 | 2 | 42.518 | 16.573 | 33.279 | 2 |
| 2025-06-22T00:16:00 | 53.919464 | 6.258266 | 2.0 | 16.388 | 2 | 42.303 | 16.563 | 33.100 | 2 |
| 2025-06-22T00:17:00 | 53.919481 | 6.258734 | 2.0 | 16.367 | 2 | 42.490 | 16.548 | 33.276 | 2 |
| 2025-06-22T00:18:00 | 53.919490 | 6.259202 | 2.0 | 16.350 | 2 | 42.474 | 16.530 | 33.277 | 2 |
| 2025-06-22T00:19:00 | 53.919516 | 6.259684 | 2.0 | 16.326 | 2 | 42.432 | 16.511 | 33.256 | 2 |
| 2025-06-22T00:20:00 | 53.919520 | 6.260163 | 2.0 | 16.308 | 2 | 42.434 | 16.489 | 33.276 | 2 |
| 2025-06-22T00:21:00 | 53.919531 | 6.260660 | 2.0 | 16.285 | 2 | 42.420 | 16.472 | 33.278 | 2 |
| 2025-06-22T00:22:00 | 53.919537 | 6.261165 | 2.0 | 16.267 | 2 | 42.398 | 16.448 | 33.278 | 2 |
| 2025-06-22T00:23:00 | 53.919532 | 6.261684 | 2.0 | 16.235 | 2 | 42.376 | 16.426 | 33.278 | 2 |
| 2025-06-22T00:24:00 | 53.919535 | 6.262221 | 2.0 | 16.230 | 2 | 42.354 | 16.400 | 33.280 | 2 |
| 2025-06-22T00:25:00 | 53.919522 | 6.262775 | 2.0 | 16.229 | 2 | 42.248 | 16.396 | 33.190 | 2 |
| 2025-06-22T00:26:00 | 53.919509 | 6.263342 | 2.0 | 16.226 | 2 | 42.194 | 16.394 | 33.144 | 2 |
| 2025-06-22T00:27:00 | 53.919501 | 6.263925 | 2.0 | 16.219 | 2 | 42.212 | 16.390 | 33.164 | 2 |
| 2025-06-22T00:28:00 | 53.919475 | 6.264515 | 2.0 | 16.214 | 2 | 42.168 | 16.383 | 33.131 | 2 |
| 2025-06-22T00:29:00 | 53.919465 | 6.265098 | 2.0 | 16.213 | 2 | 42.165 | 16.379 | 33.131 | 2 |
| 2025-06-22T00:30:00 | 53.919460 | 6.265618 | 2.0 | 16.213 | 2 | 42.174 | 16.378 | 33.140 | 2 |
| 2025-06-22T00:31:00 | 53.919459 | 6.266102 | 2.0 | 16.212 | 2 | 42.124 | 16.378 | 33.096 | 2 |
| 2025-06-22T00:32:00 | 53.919451 | 6.266567 | 2.0 | 16.212 | 2 | 42.172 | 16.377 | 33.139 | 2 |
| 2025-06-22T00:33:00 | 53.919447 | 6.267008 | 2.0 | 16.209 | 2 | 42.153 | 16.377 | 33.123 | 2 |
| 2025-06-22T00:34:00 | 53.919455 | 6.267425 | 2.0 | 16.212 | 2 | 42.120 | 16.374 | 33.096 | 2 |
| 2025-06-22T00:35:00 | 53.919461 | 6.267833 | 2.0 | 16.211 | 2 | 42.159 | 16.377 | 33.128 | 2 |
| 2025-06-22T00:36:00 | 53.919475 | 6.268232 | 2.0 | 16.213 | 2 | 42.142 | 16.376 | 33.114 | 2 |
| 2025-06-22T00:37:00 | 53.919483 | 6.268636 | 2.0 | 16.215 | 2 | 42.151 | 16.379 | 33.119 | 2 |
| 2025-06-22T00:38:00 | 53.919498 | 6.269035 | 2.0 | 16.212 | 2 | 42.151 | 16.379 | 33.119 | 2 |
| 2025-06-22T00:39:00 | 53.919510 | 6.269437 | 2.0 | 16.212 | 2 | 42.162 | 16.377 | 33.131 | 2 |
| 2025-06-22T00:40:00 | 53.919528 | 6.269836 | 2.0 | 16.216 | 2 | 42.159 | 16.378 | 33.127 | 2 |
| 2025-06-22T00:41:00 | 53.919541 | 6.270236 | 2.0 | 16.212 | 2 | 42.173 | 16.380 | 33.138 | 2 |
| 2025-06-22T00:42:00 | 53.919558 | 6.270632 | 2.0 | 16.213 | 2 | 42.175 | 16.377 | 33.142 | 2 |
| 2025-06-22T00:43:00 | 53.919583 | 6.271022 | 2.0 | 16.208 | 2 | 42.174 | 16.377 | 33.141 | 2 |
| 2025-06-22T00:44:00 | 53.919609 | 6.271404 | 2.0 | 16.202 | 2 | 42.176 | 16.372 | 33.147 | 2 |
| 2025-06-22T00:45:00 | 53.919644 | 6.271793 | 2.0 | 16.253 | 2 | 42.172 | 16.375 | 33.141 | 2 |
| 2025-06-22T00:46:00 | 53.919683 | 6.272186 | 2.0 | 16.283 | 2 | 42.216 | 16.417 | 33.145 | 2 |
| 2025-06-22T00:47:00 | 53.919725 | 6.272581 | 2.0 | 16.322 | 2 | 42.230 | 16.454 | 33.126 | 2 |
| 2025-06-22T00:48:00 | 53.919779 | 6.272976 | 2.0 | 16.333 | 2 | 42.281 | 16.485 | 33.145 | 2 |
| 2025-06-22T00:49:00 | 53.919830 | 6.273371 | 2.0 | 16.331 | 2 | 42.293 | 16.494 | 33.148 | 2 |
| 2025-06-22T00:50:00 | 53.919893 | 6.273773 | 2.0 | 16.332 | 2 | 42.300 | 16.494 | 33.154 | 2 |
| 2025-06-22T00:51:00 | 53.919952 | 6.274169 | 2.0 | 16.328 | 2 | 42.297 | 16.493 | 33.153 | 2 |
| 2025-06-22T00:52:00 | 53.920024 | 6.274570 | 2.0 | 16.321 | 2 | 42.309 | 16.491 | 33.165 | 2 |
| 2025-06-22T00:53:00 | 53.920089 | 6.274964 | 2.0 | 16.315 | 2 | 42.316 | 16.484 | 33.177 | 2 |
| 2025-06-22T00:54:00 | 53.920167 | 6.275358 | 2.0 | 16.311 | 2 | 42.302 | 16.478 | 33.169 | 2 |
| 2025-06-22T00:55:00 | 53.920246 | 6.275672 | 2.0 | 16.301 | 2 | 42.310 | 16.474 | 33.180 | 2 |
| 2025-06-22T00:56:00 | 53.920332 | 6.275872 | 2.0 | 16.293 | 2 | 42.290 | 16.464 | 33.170 | 2 |
| 2025-06-22T00:57:00 | 53.920439 | 6.275979 | 2.0 | 16.291 | 2 | 42.289 | 16.456 | 33.176 | 2 |
| 2025-06-22T00:58:00 | 53.920577 | 6.275999 | 2.0 | 16.289 | 2 | 42.293 | 16.455 | 33.181 | 2 |
| 2025-06-22T00:59:00 | 53.920732 | 6.275971 | 2.0 | 16.287 | 2 | 42.294 | 16.452 | 33.184 | 2 |
| 2025-06-22T01:00:00 | 53.920904 | 6.275888 | 2.0 | 16.291 | 2 | 42.303 | 16.452 | 33.192 | 2 |
| 2025-06-22T01:01:00 | 53.921091 | 6.275767 | 2.0 | 16.289 | 2 | 42.298 | 16.455 | 33.185 | 2 |
| 2025-06-22T01:02:00 | 53.921291 | 6.275601 | 2.0 | 16.289 | 2 | 42.298 | 16.453 | 33.187 | 2 |
| 2025-06-22T01:03:00 | 53.921496 | 6.275396 | 2.0 | 16.287 | 2 | 42.298 | 16.452 | 33.187 | 2 |
| 2025-06-22T01:04:00 | 53.921705 | 6.275160 | 2.0 | 16.287 | 2 | 42.300 | 16.451 | 33.190 | 2 |
| 2025-06-22T01:05:00 | 53.921916 | 6.274892 | 2.0 | 16.287 | 2 | 42.300 | 16.451 | 33.190 | 2 |
| 2025-06-22T01:06:00 | 53.922130 | 6.274607 | 2.0 | 16.289 | 2 | 42.298 | 16.451 | 33.188 | 2 |
| 2025-06-22T01:07:00 | 53.922337 | 6.274311 | 2.0 | 16.288 | 2 | 42.299 | 16.452 | 33.188 | 2 |
| 2025-06-22T01:08:00 | 53.922542 | 6.274011 | 2.0 | 16.289 | 2 | 42.297 | 16.453 | 33.186 | 2 |
| 2025-06-22T01:09:00 | 53.922742 | 6.273706 | 2.0 | 16.290 | 2 | 42.294 | 16.454 | 33.182 | 2 |
| 2025-06-22T01:10:00 | 53.922945 | 6.273410 | 2.0 | 16.291 | 2 | 42.293 | 16.454 | 33.181 | 2 |
| 2025-06-22T01:11:00 | 53.923148 | 6.273117 | 2.0 | 16.291 | 2 | 42.293 | 16.454 | 33.181 | 2 |
| 2025-06-22T01:12:00 | 53.923351 | 6.272833 | 2.0 | 16.293 | 2 | 42.295 | 16.455 | 33.182 | 2 |
| 2025-06-22T01:13:00 | 53.923554 | 6.272548 | 2.0 | 16.294 | 2 | 42.297 | 16.456 | 33.183 | 2 |
| 2025-06-22T01:14:00 | 53.923759 | 6.272267 | 2.0 | 16.296 | 2 | 42.298 | 16.458 | 33.182 | 2 |
| 2025-06-22T01:15:00 | 53.923970 | 6.271986 | 2.0 | 16.298 | 2 | 42.299 | 16.460 | 33.182 | 2 |
| 2025-06-22T01:16:00 | 53.924181 | 6.271702 | 2.0 | 16.299 | 2 | 42.300 | 16.462 | 33.181 | 2 |
| 2025-06-22T01:17:00 | 53.924394 | 6.271425 | 2.0 | 16.302 | 2 | 42.300 | 16.463 | 33.180 | 2 |
| 2025-06-22T01:18:00 | 53.924609 | 6.271149 | 2.0 | 16.302 | 2 | 42.301 | 16.466 | 33.178 | 2 |
| 2025-06-22T01:19:00 | 53.924828 | 6.270884 | 2.0 | 16.303 | 2 | 42.300 | 16.466 | 33.178 | 2 |
| 2025-06-22T01:20:00 | 53.925049 | 6.270622 | 2.0 | 16.309 | 2 | 42.300 | 16.466 | 33.178 | 2 |
| 2025-06-22T01:21:00 | 53.925274 | 6.270368 | 2.0 | 16.311 | 2 | 42.302 | 16.473 | 33.174 | 2 |
| 2025-06-22T01:22:00 | 53.925502 | 6.270125 | 2.0 | 16.313 | 2 | 42.302 | 16.475 | 33.172 | 2 |
| 2025-06-22T01:23:00 | 53.925734 | 6.269895 | 2.0 | 16.317 | 2 | 42.303 | 16.477 | 33.171 | 2 |
| 2025-06-22T01:24:00 | 53.925968 | 6.269681 | 2.0 | 16.317 | 2 | 42.303 | 16.480 | 33.169 | 2 |
| 2025-06-22T01:25:00 | 53.926200 | 6.269481 | 2.0 | 16.318 | 2 | 42.304 | 16.481 | 33.169 | 2 |
| 2025-06-22T01:26:00 | 53.926431 | 6.269288 | 2.0 | 16.319 | 2 | 42.303 | 16.481 | 33.168 | 2 |
| 2025-06-22T01:27:00 | 53.926667 | 6.269105 | 2.0 | 16.320 | 2 | 42.304 | 16.483 | 33.167 | 2 |
| 2025-06-22T01:28:00 | 53.926906 | 6.268926 | 2.0 | 16.320 | 2 | 42.303 | 16.483 | 33.166 | 2 |
| 2025-06-22T01:29:00 | 53.927146 | 6.268757 | 2.0 | 16.323 | 2 | 42.301 | 16.484 | 33.164 | 2 |
| 2025-06-22T01:30:00 | 53.927387 | 6.268591 | 2.0 | 16.326 | 2 | 42.301 | 16.486 | 33.162 | 2 |
| 2025-06-22T01:31:00 | 53.927631 | 6.268424 | 2.0 | 16.328 | 2 | 42.303 | 16.489 | 33.161 | 2 |
| 2025-06-22T01:32:00 | 53.927880 | 6.268261 | 2.0 | 16.328 | 2 | 42.304 | 16.491 | 33.160 | 2 |
| 2025-06-22T01:33:00 | 53.928133 | 6.268088 | 2.0 | 16.331 | 2 | 42.305 | 16.492 | 33.160 | 2 |
| 2025-06-22T01:34:00 | 53.928385 | 6.267915 | 2.0 | 16.331 | 2 | 42.305 | 16.494 | 33.159 | 2 |
| 2025-06-22T01:35:00 | 53.928641 | 6.267747 | 2.0 | 16.332 | 2 | 42.305 | 16.494 | 33.159 | 2 |
| 2025-06-22T01:36:00 | 53.928895 | 6.267589 | 2.0 | 16.334 | 2 | 42.304 | 16.495 | 33.157 | 2 |
| 2025-06-22T01:37:00 | 53.929148 | 6.267442 | 2.0 | 16.330 | 2 | 42.304 | 16.497 | 33.155 | 2 |
| 2025-06-22T01:38:00 | 53.929393 | 6.267309 | 2.0 | 16.323 | 2 | 42.299 | 16.492 | 33.155 | 2 |
| 2025-06-22T01:39:00 | 53.929631 | 6.267190 | 2.0 | 16.313 | 2 | 42.292 | 16.486 | 33.154 | 2 |
| 2025-06-22T01:40:00 | 53.929869 | 6.267083 | 2.0 | 16.287 | 2 | 42.288 | 16.474 | 33.160 | 2 |
| 2025-06-22T01:41:00 | 53.930108 | 6.266986 | 2.0 | 16.270 | 2 | 42.279 | 16.444 | 33.177 | 2 |
| 2025-06-22T01:42:00 | 53.930351 | 6.266893 | 2.0 | 16.275 | 2 | 42.275 | 16.437 | 33.180 | 2 |
| 2025-06-22T01:43:00 | 53.930599 | 6.266803 | 2.0 | 16.273 | 2 | 42.276 | 16.438 | 33.180 | 2 |
| 2025-06-22T01:44:00 | 53.930848 | 6.266715 | 2.0 | 16.260 | 2 | 42.275 | 16.433 | 33.183 | 2 |
| 2025-06-22T01:45:00 | 53.931094 | 6.266643 | 2.0 | 16.259 | 2 | 42.271 | 16.424 | 33.187 | 2 |
| 2025-06-22T01:46:00 | 53.931346 | 6.266574 | 2.0 | 16.250 | 2 | 42.269 | 16.422 | 33.187 | 2 |
| 2025-06-22T01:47:00 | 53.931595 | 6.266507 | 2.0 | 16.246 | 2 | 42.265 | 16.414 | 33.190 | 2 |
| 2025-06-22T01:48:00 | 53.931844 | 6.266448 | 2.0 | 16.244 | 2 | 42.264 | 16.410 | 33.193 | 2 |
| 2025-06-22T01:49:00 | 53.932099 | 6.266402 | 2.0 | 16.244 | 2 | 42.263 | 16.408 | 33.193 | 2 |
| 2025-06-22T01:50:00 | 53.932353 | 6.266364 | 2.0 | 16.244 | 2 | 42.263 | 16.407 | 33.194 | 2 |
| 2025-06-22T01:51:00 | 53.932607 | 6.266331 | 2.0 | 16.243 | 2 | 42.263 | 16.407 | 33.194 | 2 |
| 2025-06-22T01:52:00 | 53.932858 | 6.266303 | 2.0 | 16.242 | 2 | 42.262 | 16.406 | 33.194 | 2 |
| 2025-06-22T01:53:00 | 53.933110 | 6.266279 | 2.0 | 16.243 | 2 | 42.262 | 16.406 | 33.194 | 2 |
| 2025-06-22T01:54:00 | 53.933364 | 6.266259 | 2.0 | 16.244 | 2 | 42.262 | 16.407 | 33.193 | 2 |
| 2025-06-22T01:55:00 | 53.933618 | 6.266242 | 2.0 | 16.243 | 2 | 42.262 | 16.407 | 33.193 | 2 |
| 2025-06-22T01:56:00 | 53.933869 | 6.266231 | 2.0 | 16.244 | 2 | 42.262 | 16.407 | 33.193 | 2 |
| 2025-06-22T01:57:00 | 53.934121 | 6.266224 | 2.0 | 16.245 | 2 | 42.262 | 16.407 | 33.193 | 2 |
| 2025-06-22T01:58:00 | 53.934375 | 6.266220 | 2.0 | 16.245 | 2 | 42.261 | 16.408 | 33.192 | 2 |
| 2025-06-22T01:59:00 | 53.934626 | 6.266221 | 2.0 | 16.246 | 2 | 42.261 | 16.409 | 33.191 | 2 |
| 2025-06-22T02:00:00 | 53.934875 | 6.266229 | 2.0 | 16.245 | 2 | 42.261 | 16.409 | 33.191 | 2 |
| 2025-06-22T02:01:00 | 53.935126 | 6.266244 | 2.0 | 16.246 | 2 | 42.260 | 16.408 | 33.191 | 2 |
| 2025-06-22T02:02:00 | 53.935375 | 6.266274 | 2.0 | 16.244 | 2 | 42.261 | 16.409 | 33.191 | 2 |
| 2025-06-22T02:03:00 | 53.935620 | 6.266317 | 2.0 | 16.245 | 2 | 42.261 | 16.408 | 33.192 | 2 |
| 2025-06-22T02:04:00 | 53.935864 | 6.266366 | 2.0 | 16.244 | 2 | 42.261 | 16.408 | 33.192 | 2 |
| 2025-06-22T02:05:00 | 53.936110 | 6.266414 | 2.0 | 16.244 | 2 | 42.260 | 16.407 | 33.192 | 2 |
| 2025-06-22T02:06:00 | 53.936358 | 6.266466 | 2.0 | 16.242 | 2 | 42.260 | 16.406 | 33.192 | 2 |
| 2025-06-22T02:07:00 | 53.936611 | 6.266524 | 2.0 | 16.240 | 2 | 42.258 | 16.405 | 33.191 | 2 |
| 2025-06-22T02:08:00 | 53.936863 | 6.266589 | 2.0 | 16.240 | 2 | 42.256 | 16.402 | 33.192 | 2 |
| 2025-06-22T02:09:00 | 53.937118 | 6.266659 | 2.0 | 16.240 | 2 | 42.257 | 16.403 | 33.192 | 2 |
| 2025-06-22T02:10:00 | 53.937379 | 6.266736 | 2.0 | 16.239 | 2 | 42.257 | 16.402 | 33.193 | 2 |
| 2025-06-22T02:11:00 | 53.937638 | 6.266820 | 2.0 | 16.238 | 2 | 42.255 | 16.402 | 33.191 | 2 |
| 2025-06-22T02:12:00 | 53.937896 | 6.266903 | 2.0 | 16.237 | 2 | 42.255 | 16.401 | 33.192 | 2 |
| 2025-06-22T02:13:00 | 53.938158 | 6.266992 | 2.0 | 16.238 | 2 | 42.254 | 16.400 | 33.192 | 2 |
| 2025-06-22T02:14:00 | 53.938423 | 6.267088 | 2.0 | 16.236 | 2 | 42.253 | 16.400 | 33.191 | 2 |
| 2025-06-22T02:15:00 | 53.938690 | 6.267184 | 2.0 | 16.236 | 2 | 42.253 | 16.399 | 33.192 | 2 |
| 2025-06-22T02:16:00 | 53.938961 | 6.267277 | 2.0 | 16.235 | 2 | 42.253 | 16.399 | 33.192 | 2 |
| 2025-06-22T02:17:00 | 53.939233 | 6.267370 | 2.0 | 16.235 | 2 | 42.251 | 16.398 | 33.191 | 2 |
| 2025-06-22T02:18:00 | 53.939506 | 6.267470 | 2.0 | 16.235 | 2 | 42.251 | 16.398 | 33.191 | 2 |
| 2025-06-22T02:19:00 | 53.939779 | 6.267574 | 2.0 | 16.234 | 2 | 42.250 | 16.398 | 33.190 | 2 |
| 2025-06-22T02:20:00 | 53.940050 | 6.267681 | 2.0 | 16.236 | 2 | 42.249 | 16.398 | 33.189 | 2 |
| 2025-06-22T02:21:00 | 53.940323 | 6.267794 | 2.0 | 16.238 | 2 | 42.250 | 16.399 | 33.189 | 2 |
| 2025-06-22T02:22:00 | 53.940596 | 6.267915 | 2.0 | 16.239 | 2 | 42.251 | 16.401 | 33.189 | 2 |
| 2025-06-22T02:23:00 | 53.940869 | 6.268044 | 2.0 | 16.240 | 2 | 42.250 | 16.402 | 33.187 | 2 |
| 2025-06-22T02:24:00 | 53.941142 | 6.268176 | 2.0 | 16.239 | 2 | 42.252 | 16.402 | 33.189 | 2 |
| 2025-06-22T02:25:00 | 53.941416 | 6.268316 | 2.0 | 16.238 | 2 | 42.249 | 16.401 | 33.187 | 2 |
| 2025-06-22T02:26:00 | 53.941689 | 6.268460 | 2.0 | 16.236 | 2 | 42.249 | 16.401 | 33.187 | 2 |
| 2025-06-22T02:27:00 | 53.941963 | 6.268607 | 2.0 | 16.235 | 2 | 42.248 | 16.399 | 33.188 | 2 |
| 2025-06-22T02:28:00 | 53.942237 | 6.268762 | 2.0 | 16.234 | 2 | 42.247 | 16.398 | 33.188 | 2 |
| 2025-06-22T02:29:00 | 53.942512 | 6.268921 | 2.0 | 16.233 | 2 | 42.245 | 16.397 | 33.187 | 2 |
| 2025-06-22T02:30:00 | 53.942786 | 6.269079 | 2.0 | 16.233 | 2 | 42.245 | 16.396 | 33.188 | 2 |
| 2025-06-22T02:31:00 | 53.943062 | 6.269234 | 2.0 | 16.232 | 2 | 42.244 | 16.395 | 33.188 | 2 |
| 2025-06-22T02:32:00 | 53.943335 | 6.269391 | 2.0 | 16.229 | 2 | 42.244 | 16.395 | 33.188 | 2 |
| 2025-06-22T02:33:00 | 53.943609 | 6.269554 | 2.0 | 16.228 | 2 | 42.241 | 16.392 | 33.187 | 2 |
| 2025-06-22T02:34:00 | 53.943883 | 6.269723 | 2.0 | 16.227 | 2 | 42.239 | 16.391 | 33.186 | 2 |
| 2025-06-22T02:35:00 | 53.944158 | 6.269896 | 2.0 | 16.226 | 2 | 42.238 | 16.389 | 33.187 | 2 |
| 2025-06-22T02:36:00 | 53.944435 | 6.270071 | 2.0 | 16.226 | 2 | 42.237 | 16.389 | 33.186 | 2 |
| 2025-06-22T02:37:00 | 53.944712 | 6.270243 | 2.0 | 16.224 | 2 | 42.236 | 16.388 | 33.186 | 2 |
| 2025-06-22T02:38:00 | 53.944989 | 6.270420 | 2.0 | 16.224 | 2 | 42.235 | 16.387 | 33.186 | 2 |
| 2025-06-22T02:39:00 | 53.945265 | 6.270602 | 2.0 | 16.223 | 2 | 42.234 | 16.386 | 33.186 | 2 |
| 2025-06-22T02:40:00 | 53.945544 | 6.270786 | 2.0 | 16.224 | 2 | 42.231 | 16.386 | 33.184 | 2 |
| 2025-06-22T02:41:00 | 53.945826 | 6.270973 | 2.0 | 16.224 | 2 | 42.233 | 16.387 | 33.185 | 2 |
| 2025-06-22T02:42:00 | 53.946110 | 6.271161 | 2.0 | 16.223 | 2 | 42.234 | 16.387 | 33.185 | 2 |
| 2025-06-22T02:43:00 | 53.946396 | 6.271353 | 2.0 | 16.223 | 2 | 42.232 | 16.386 | 33.184 | 2 |
| 2025-06-22T02:44:00 | 53.946684 | 6.271547 | 2.0 | 16.222 | 2 | 42.231 | 16.386 | 33.184 | 2 |
| 2025-06-22T02:45:00 | 53.946979 | 6.271742 | 2.0 | 16.222 | 2 | 42.231 | 16.385 | 33.184 | 2 |
| 2025-06-22T02:46:00 | 53.947274 | 6.271944 | 2.0 | 16.219 | 2 | 42.230 | 16.384 | 33.184 | 2 |
| 2025-06-22T02:47:00 | 53.947570 | 6.272147 | 2.0 | 16.220 | 2 | 42.228 | 16.382 | 33.184 | 2 |
| 2025-06-22T02:48:00 | 53.947869 | 6.272358 | 2.0 | 16.218 | 2 | 42.228 | 16.382 | 33.184 | 2 |
| 2025-06-22T02:49:00 | 53.948166 | 6.272574 | 2.0 | 16.216 | 2 | 42.226 | 16.380 | 33.184 | 2 |
| 2025-06-22T02:50:00 | 53.948474 | 6.272814 | 2.0 | 16.215 | 2 | 42.225 | 16.379 | 33.184 | 2 |
| 2025-06-22T02:51:00 | 53.948798 | 6.273127 | 2.0 | 16.215 | 2 | 42.225 | 16.378 | 33.185 | 2 |
| 2025-06-22T02:52:00 | 53.949113 | 6.273505 | 2.0 | 16.213 | 2 | 42.224 | 16.377 | 33.185 | 2 |
| 2025-06-22T02:53:00 | 53.949408 | 6.273936 | 2.0 | 16.216 | 2 | 42.218 | 16.376 | 33.181 | 2 |
| 2025-06-22T02:54:00 | 53.949680 | 6.274414 | 2.0 | 16.216 | 2 | 42.218 | 16.378 | 33.179 | 2 |
| 2025-06-22T02:55:00 | 53.949902 | 6.274919 | 2.0 | 16.217 | 2 | 42.223 | 16.379 | 33.182 | 2 |
| 2025-06-22T02:56:00 | 53.950052 | 6.275394 | 2.0 | 16.218 | 2 | 42.225 | 16.380 | 33.183 | 2 |
| 2025-06-22T02:57:00 | 53.950166 | 6.275834 | 2.0 | 16.219 | 2 | 42.224 | 16.381 | 33.182 | 2 |
| 2025-06-22T02:58:00 | 53.950249 | 6.276257 | 2.0 | 16.223 | 2 | 42.224 | 16.381 | 33.182 | 2 |
| 2025-06-22T02:59:00 | 53.950311 | 6.276667 | 2.0 | 16.228 | 2 | 42.226 | 16.386 | 33.179 | 2 |
| 2025-06-22T03:00:00 | 53.950362 | 6.277081 | 2.0 | 16.222 | 2 | 42.229 | 16.389 | 33.179 | 2 |
| 2025-06-22T03:01:00 | 53.950404 | 6.277504 | 2.0 | 16.220 | 2 | 42.225 | 16.384 | 33.180 | 2 |
| 2025-06-22T03:02:00 | 53.950434 | 6.277934 | 2.0 | 16.218 | 2 | 42.223 | 16.382 | 33.180 | 2 |
| 2025-06-22T03:03:00 | 53.950458 | 6.278380 | 2.0 | 16.215 | 2 | 42.221 | 16.379 | 33.181 | 2 |
| 2025-06-22T03:04:00 | 53.950471 | 6.278837 | 2.0 | 16.212 | 2 | 42.220 | 16.377 | 33.181 | 2 |
| 2025-06-22T03:05:00 | 53.950480 | 6.279303 | 2.0 | 16.211 | 2 | 42.219 | 16.375 | 33.182 | 2 |
| 2025-06-22T03:06:00 | 53.950483 | 6.279785 | 2.0 | 16.211 | 2 | 42.219 | 16.373 | 33.184 | 2 |
| 2025-06-22T03:07:00 | 53.950484 | 6.280286 | 2.0 | 16.209 | 2 | 42.219 | 16.373 | 33.184 | 2 |
| 2025-06-22T03:08:00 | 53.950482 | 6.280804 | 2.0 | 16.206 | 2 | 42.217 | 16.371 | 33.184 | 2 |
| 2025-06-22T03:09:00 | 53.950476 | 6.281341 | 2.0 | 16.205 | 2 | 42.215 | 16.368 | 33.185 | 2 |
| 2025-06-22T03:10:00 | 53.950466 | 6.281883 | 2.0 | 16.204 | 2 | 42.215 | 16.367 | 33.185 | 2 |
| 2025-06-22T03:11:00 | 53.950455 | 6.282430 | 2.0 | 16.204 | 2 | 42.215 | 16.367 | 33.185 | 2 |
| 2025-06-22T03:12:00 | 53.950443 | 6.282976 | 2.0 | 16.207 | 2 | 42.213 | 16.366 | 33.184 | 2 |
| 2025-06-22T03:13:00 | 53.950428 | 6.283516 | 2.0 | 16.209 | 2 | 42.216 | 16.370 | 33.184 | 2 |
| 2025-06-22T03:14:00 | 53.950410 | 6.284049 | 2.0 | 16.212 | 2 | 42.217 | 16.372 | 33.183 | 2 |
| 2025-06-22T03:15:00 | 53.950395 | 6.284584 | 2.0 | 16.212 | 2 | 42.217 | 16.373 | 33.182 | 2 |
| 2025-06-22T03:16:00 | 53.950375 | 6.285118 | 2.0 | 16.212 | 2 | 42.218 | 16.374 | 33.182 | 2 |
| 2025-06-22T03:17:00 | 53.950359 | 6.285648 | 2.0 | 16.214 | 2 | 42.218 | 16.374 | 33.182 | 2 |
| 2025-06-22T03:18:00 | 53.950354 | 6.286128 | 2.0 | 16.211 | 2 | 42.219 | 16.376 | 33.181 | 2 |
| 2025-06-22T03:19:00 | 53.950356 | 6.286462 | 2.0 | 16.209 | 2 | 42.218 | 16.373 | 33.183 | 2 |
| 2025-06-22T03:20:00 | 53.950374 | 6.286714 | 2.0 | 16.207 | 2 | 42.215 | 16.372 | 33.181 | 2 |
| 2025-06-22T03:21:00 | 53.950397 | 6.286945 | 2.0 | 16.206 | 2 | 42.216 | 16.369 | 33.185 | 2 |
| 2025-06-22T03:22:00 | 53.950425 | 6.287174 | 2.0 | 16.202 | 2 | 42.217 | 16.367 | 33.187 | 2 |
| 2025-06-22T03:23:00 | 53.950456 | 6.287399 | 2.0 | 16.200 | 2 | 42.216 | 16.364 | 33.189 | 2 |
| 2025-06-22T03:24:00 | 53.950492 | 6.287618 | 2.0 | 16.187 | 2 | 42.215 | 16.360 | 33.191 | 2 |
| 2025-06-22T03:25:00 | 53.950535 | 6.287830 | 2.0 | 16.175 | 2 | 42.204 | 16.348 | 33.192 | 2 |
| 2025-06-22T03:26:00 | 53.950592 | 6.288036 | 2.0 | 16.166 | 2 | 42.199 | 16.337 | 33.196 | 2 |
| 2025-06-22T03:27:00 | 53.950679 | 6.288228 | 2.0 | 16.160 | 2 | 42.196 | 16.328 | 33.201 | 2 |
| 2025-06-22T03:28:00 | 53.950787 | 6.288397 | 2.0 | 16.155 | 2 | 42.196 | 16.322 | 33.206 | 2 |
| 2025-06-22T03:29:00 | 53.950908 | 6.288538 | 2.0 | 16.154 | 2 | 42.195 | 16.318 | 33.209 | 2 |
| 2025-06-22T03:30:00 | 53.951023 | 6.288661 | 2.0 | 16.181 | 2 | 42.195 | 16.322 | 33.205 | 2 |
| 2025-06-22T03:31:00 | 53.951156 | 6.288800 | 2.0 | 16.188 | 2 | 42.204 | 16.344 | 33.195 | 2 |
| 2025-06-22T03:32:00 | 53.951292 | 6.288946 | 2.0 | 16.186 | 2 | 42.209 | 16.349 | 33.195 | 2 |
| 2025-06-22T03:33:00 | 53.951395 | 6.289111 | 2.0 | 16.185 | 2 | 42.210 | 16.347 | 33.198 | 2 |
| 2025-06-22T03:34:00 | 53.951434 | 6.289329 | 2.0 | 16.181 | 2 | 42.210 | 16.346 | 33.198 | 2 |
| 2025-06-22T03:35:00 | 53.951378 | 6.289608 | 2.0 | 16.191 | 2 | 42.210 | 16.344 | 33.200 | 2 |
| 2025-06-22T03:36:00 | 53.951243 | 6.289965 | 2.0 | 16.190 | 2 | 42.215 | 16.352 | 33.198 | 2 |
| 2025-06-22T03:37:00 | 53.951041 | 6.290369 | 2.0 | 16.185 | 2 | 42.218 | 16.351 | 33.201 | 2 |
| 2025-06-22T03:38:00 | 53.950785 | 6.290810 | 2.0 | 16.182 | 2 | 42.217 | 16.347 | 33.204 | 2 |
| 2025-06-22T03:39:00 | 53.950477 | 6.291270 | 2.0 | 16.182 | 2 | 42.214 | 16.344 | 33.204 | 2 |
| 2025-06-22T03:40:00 | 53.950141 | 6.291745 | 2.0 | 16.180 | 2 | 42.215 | 16.344 | 33.205 | 2 |
| 2025-06-22T03:41:00 | 53.949777 | 6.292210 | 2.0 | 16.177 | 2 | 42.216 | 16.342 | 33.207 | 2 |
| 2025-06-22T03:42:00 | 53.949393 | 6.292590 | 2.0 | 16.178 | 2 | 42.216 | 16.339 | 33.210 | 2 |
| 2025-06-22T03:43:00 | 53.949019 | 6.292896 | 2.0 | 16.181 | 2 | 42.218 | 16.341 | 33.210 | 2 |
| 2025-06-22T03:44:00 | 53.948653 | 6.293133 | 2.0 | 16.180 | 2 | 42.223 | 16.344 | 33.212 | 2 |
| 2025-06-22T03:45:00 | 53.948297 | 6.293367 | 2.0 | 16.175 | 2 | 42.223 | 16.342 | 33.213 | 2 |
| 2025-06-22T03:46:00 | 53.947947 | 6.293598 | 2.0 | 16.176 | 2 | 42.222 | 16.337 | 33.217 | 2 |
| 2025-06-22T03:47:00 | 53.947601 | 6.293835 | 2.0 | 16.175 | 2 | 42.224 | 16.337 | 33.218 | 2 |
| 2025-06-22T03:48:00 | 53.947245 | 6.294078 | 2.0 | 16.173 | 2 | 42.226 | 16.337 | 33.220 | 2 |
| 2025-06-22T03:49:00 | 53.946887 | 6.294321 | 2.0 | 16.172 | 2 | 42.226 | 16.335 | 33.222 | 2 |
| 2025-06-22T03:50:00 | 53.946528 | 6.294559 | 2.0 | 16.174 | 2 | 42.226 | 16.334 | 33.223 | 2 |
| 2025-06-22T03:51:00 | 53.946168 | 6.294795 | 2.0 | 16.171 | 2 | 42.230 | 16.335 | 33.225 | 2 |
| 2025-06-22T03:52:00 | 53.945814 | 6.295030 | 2.0 | 16.171 | 2 | 42.229 | 16.333 | 33.226 | 2 |
| 2025-06-22T03:53:00 | 53.945458 | 6.295265 | 2.0 | 16.173 | 2 | 42.231 | 16.334 | 33.227 | 2 |
| 2025-06-22T03:54:00 | 53.945105 | 6.295502 | 2.0 | 16.172 | 2 | 42.234 | 16.334 | 33.230 | 2 |
| 2025-06-22T03:55:00 | 53.944752 | 6.295738 | 2.0 | 16.171 | 2 | 42.234 | 16.334 | 33.230 | 2 |
| 2025-06-22T03:56:00 | 53.944400 | 6.295975 | 2.0 | 16.167 | 2 | 42.235 | 16.333 | 33.231 | 2 |
| 2025-06-22T03:57:00 | 53.944048 | 6.296214 | 2.0 | 16.167 | 2 | 42.234 | 16.330 | 33.233 | 2 |
| 2025-06-22T03:58:00 | 53.943693 | 6.296453 | 2.0 | 16.163 | 2 | 42.238 | 16.328 | 33.238 | 2 |
| 2025-06-22T03:59:00 | 53.943337 | 6.296691 | 2.0 | 16.158 | 2 | 42.238 | 16.324 | 33.241 | 2 |
| 2025-06-22T04:00:00 | 53.942980 | 6.296926 | 2.0 | 16.156 | 2 | 42.238 | 16.320 | 33.245 | 2 |
| 2025-06-22T04:01:00 | 53.942626 | 6.297163 | 2.0 | 16.157 | 2 | 42.238 | 16.318 | 33.246 | 2 |
| 2025-06-22T04:02:00 | 53.942276 | 6.297401 | 2.0 | 16.159 | 2 | 42.242 | 16.319 | 33.249 | 2 |
| 2025-06-22T04:03:00 | 53.941924 | 6.297644 | 2.0 | 16.162 | 2 | 42.243 | 16.321 | 33.248 | 2 |
| 2025-06-22T04:04:00 | 53.941566 | 6.297886 | 2.0 | 16.164 | 2 | 42.250 | 16.324 | 33.252 | 2 |
| 2025-06-22T04:05:00 | 53.941213 | 6.298124 | 2.0 | 16.164 | 2 | 42.254 | 16.325 | 33.255 | 2 |
| 2025-06-22T04:06:00 | 53.940863 | 6.298367 | 2.0 | 16.163 | 2 | 42.258 | 16.326 | 33.257 | 2 |
| 2025-06-22T04:07:00 | 53.940514 | 6.298611 | 2.0 | 16.160 | 2 | 42.260 | 16.324 | 33.261 | 2 |
| 2025-06-22T04:08:00 | 53.940163 | 6.298849 | 2.0 | 16.160 | 2 | 42.262 | 16.323 | 33.263 | 2 |
| 2025-06-22T04:09:00 | 53.939814 | 6.299088 | 2.0 | 16.162 | 2 | 42.264 | 16.322 | 33.266 | 2 |
| 2025-06-22T04:10:00 | 53.939468 | 6.299325 | 2.0 | 16.157 | 2 | 42.268 | 16.323 | 33.269 | 2 |
| 2025-06-22T04:11:00 | 53.939120 | 6.299562 | 2.0 | 16.151 | 2 | 42.268 | 16.318 | 33.273 | 2 |
| 2025-06-22T04:12:00 | 53.938777 | 6.299805 | 2.0 | 16.148 | 2 | 42.266 | 16.313 | 33.275 | 2 |
| 2025-06-22T04:13:00 | 53.938432 | 6.300053 | 2.0 | 16.143 | 2 | 42.266 | 16.309 | 33.279 | 2 |
| 2025-06-22T04:14:00 | 53.938085 | 6.300298 | 2.0 | 16.141 | 2 | 42.264 | 16.305 | 33.280 | 2 |
| 2025-06-22T04:15:00 | 53.937745 | 6.300536 | 2.0 | 16.142 | 2 | 42.264 | 16.304 | 33.281 | 2 |
| 2025-06-22T04:16:00 | 53.937407 | 6.300775 | 2.0 | 16.136 | 2 | 42.266 | 16.304 | 33.283 | 2 |
| 2025-06-22T04:17:00 | 53.937073 | 6.301008 | 2.0 | 16.134 | 2 | 42.265 | 16.298 | 33.287 | 2 |
| 2025-06-22T04:18:00 | 53.936743 | 6.301247 | 2.0 | 16.148 | 2 | 42.267 | 16.299 | 33.288 | 2 |
| 2025-06-22T04:19:00 | 53.936414 | 6.301490 | 2.0 | 16.157 | 2 | 42.282 | 16.312 | 33.290 | 2 |
| 2025-06-22T04:20:00 | 53.936090 | 6.301737 | 2.0 | 16.167 | 2 | 42.292 | 16.320 | 33.292 | 2 |
| 2025-06-22T04:21:00 | 53.935770 | 6.301981 | 2.0 | 16.168 | 2 | 42.301 | 16.327 | 33.294 | 2 |
| 2025-06-22T04:22:00 | 53.935451 | 6.302222 | 2.0 | 16.176 | 2 | 42.304 | 16.331 | 33.294 | 2 |
| 2025-06-22T04:23:00 | 53.935134 | 6.302467 | 2.0 | 16.184 | 2 | 42.312 | 16.339 | 33.294 | 2 |
| 2025-06-22T04:24:00 | 53.934823 | 6.302712 | 2.0 | 16.191 | 2 | 42.320 | 16.347 | 33.294 | 2 |
| 2025-06-22T04:25:00 | 53.934536 | 6.302844 | 2.0 | 16.197 | 2 | 42.328 | 16.352 | 33.297 | 2 |
| 2025-06-22T04:26:00 | 53.934276 | 6.302917 | 2.0 | 16.201 | 2 | 42.335 | 16.359 | 33.297 | 2 |
| 2025-06-22T04:27:00 | 53.934064 | 6.302839 | 2.0 | 16.221 | 2 | 42.344 | 16.365 | 33.300 | 2 |
| 2025-06-22T04:28:00 | 53.933853 | 6.302695 | 2.0 | 16.238 | 2 | 42.362 | 16.383 | 33.301 | 2 |
| 2025-06-22T04:29:00 | 53.933631 | 6.302537 | 2.0 | 16.248 | 2 | 42.379 | 16.399 | 33.303 | 2 |
| 2025-06-22T04:30:00 | 53.933395 | 6.302378 | 2.0 | 16.283 | 2 | 42.394 | 16.412 | 33.305 | 2 |
| 2025-06-22T04:31:00 | 53.933156 | 6.302216 | 2.0 | 16.355 | 2 | 42.440 | 16.463 | 33.303 | 2 |
| 2025-06-22T04:32:00 | 53.932914 | 6.302044 | 2.0 | 16.382 | 2 | 42.490 | 16.515 | 33.303 | 2 |
| 2025-06-22T04:33:00 | 53.932665 | 6.301876 | 2.0 | 16.403 | 2 | 42.517 | 16.544 | 33.303 | 2 |
| 2025-06-22T04:34:00 | 53.932377 | 6.301652 | 2.0 | 16.512 | 2 | 42.542 | 16.573 | 33.300 | 2 |
| 2025-06-22T04:35:00 | 53.931982 | 6.301285 | 2.0 | 16.528 | 2 | 42.632 | 16.675 | 33.294 | 2 |
| 2025-06-22T04:36:00 | 53.931529 | 6.300761 | 2.0 | 16.513 | 2 | 42.647 | 16.682 | 33.301 | 2 |
| 2025-06-22T04:37:00 | 53.931045 | 6.300109 | 2.0 | 16.511 | 2 | 42.637 | 16.667 | 33.305 | 2 |
| 2025-06-22T04:38:00 | 53.930535 | 6.299386 | 2.0 | 16.523 | 2 | 42.639 | 16.669 | 33.305 | 2 |
| 2025-06-22T04:39:00 | 53.929962 | 6.298612 | 2.0 | 16.546 | 2 | 42.656 | 16.682 | 33.309 | 2 |
| 2025-06-22T04:40:00 | 53.929298 | 6.297727 | 2.0 | 16.542 | 2 | 42.689 | 16.708 | 33.317 | 2 |
| 2025-06-22T04:41:00 | 53.928564 | 6.296757 | 2.0 | 16.443 | 2 | 42.682 | 16.684 | 33.330 | 2 |
| 2025-06-22T04:42:00 | 53.927728 | 6.295654 | 2.0 | 16.463 | 2 | 42.620 | 16.607 | 33.340 | 2 |
| 2025-06-22T04:43:00 | 53.926828 | 6.294466 | 2.0 | 16.505 | 2 | 42.656 | 16.644 | 33.341 | 2 |
| 2025-06-22T04:44:00 | 53.925934 | 6.293322 | 2.0 | 16.557 | 2 | 42.695 | 16.675 | 33.349 | 2 |
| 2025-06-22T04:45:00 | 53.925194 | 6.292450 | 2.0 | 16.596 | 2 | 42.738 | 16.717 | 33.352 | 2 |
| 2025-06-22T04:46:00 | 53.924590 | 6.291781 | 2.0 | 16.622 | 2 | 42.778 | 16.756 | 33.354 | 2 |
| 2025-06-22T04:47:00 | 53.924092 | 6.291261 | 2.0 | 16.646 | 2 | 42.806 | 16.784 | 33.355 | 2 |
| 2025-06-22T04:48:00 | 53.923787 | 6.290741 | 2.0 | 16.643 | 2 | 42.824 | 16.802 | 33.356 | 2 |
| 2025-06-22T04:49:00 | 53.923596 | 6.290220 | 2.0 | 16.638 | 2 | 42.824 | 16.800 | 33.358 | 2 |
| 2025-06-22T04:50:00 | 53.923431 | 6.289769 | 2.0 | 16.617 | 2 | 42.824 | 16.794 | 33.363 | 2 |
| 2025-06-22T04:51:00 | 53.923296 | 6.289387 | 2.0 | 16.630 | 2 | 42.818 | 16.787 | 33.363 | 2 |
| 2025-06-22T04:52:00 | 53.923178 | 6.289067 | 2.0 | 16.606 | 2 | 42.815 | 16.786 | 33.361 | 2 |
| 2025-06-22T04:53:00 | 53.923071 | 6.288796 | 2.0 | 16.645 | 2 | 42.810 | 16.779 | 33.363 | 2 |
| 2025-06-22T04:54:00 | 53.922981 | 6.288560 | 2.0 | 16.632 | 2 | 42.831 | 16.801 | 33.363 | 2 |
| 2025-06-22T04:55:00 | 53.922903 | 6.288361 | 2.0 | 16.634 | 2 | 42.825 | 16.793 | 33.364 | 2 |
| 2025-06-22T04:56:00 | 53.922833 | 6.288179 | 2.0 | 16.624 | 2 | 42.826 | 16.793 | 33.365 | 2 |
| 2025-06-22T04:57:00 | 53.922773 | 6.288011 | 2.0 | 16.612 | 2 | 42.817 | 16.781 | 33.367 | 2 |
| 2025-06-22T04:58:00 | 53.922719 | 6.287866 | 2.0 | 16.598 | 2 | 42.810 | 16.774 | 33.367 | 2 |
| 2025-06-22T04:59:00 | 53.922690 | 6.287784 | 2.0 | 16.578 | 2 | 42.794 | 16.753 | 33.371 | 2 |
| 2025-06-22T05:00:00 | 53.922636 | 6.287620 | 2.0 | 16.582 | 2 | 42.781 | 16.740 | 33.370 | 2 |
| 2025-06-22T05:01:00 | 53.922604 | 6.287527 | 2.0 | 16.556 | 2 | 42.781 | 16.741 | 33.369 | 2 |
| 2025-06-22T05:02:00 | 53.922591 | 6.287490 | 2.0 | 16.549 | 2 | 42.758 | 16.715 | 33.371 | 2 |
| 2025-06-22T05:03:00 | 53.922577 | 6.287441 | 2.0 | 16.538 | 2 | 42.754 | 16.709 | 33.372 | 2 |
| 2025-06-22T05:04:00 | 53.922554 | 6.287354 | 2.0 | 16.533 | 2 | 42.745 | 16.698 | 33.374 | 2 |
| 2025-06-22T05:05:00 | 53.922533 | 6.287285 | 2.0 | 16.542 | 2 | 42.743 | 16.698 | 33.372 | 2 |
| 2025-06-22T05:06:00 | 53.922506 | 6.287188 | 2.0 | 16.530 | 2 | 42.746 | 16.701 | 33.372 | 2 |
| 2025-06-22T05:07:00 | 53.922475 | 6.287094 | 2.0 | 16.515 | 2 | 42.734 | 16.689 | 33.372 | 2 |
| 2025-06-22T05:08:00 | 53.922453 | 6.287038 | 2.0 | 16.505 | 2 | 42.725 | 16.677 | 33.374 | 2 |
| 2025-06-22T05:09:00 | 53.922436 | 6.286992 | 2.0 | 16.503 | 2 | 42.717 | 16.669 | 33.373 | 2 |
| 2025-06-22T05:10:00 | 53.922414 | 6.286938 | 2.0 | 16.485 | 2 | 42.712 | 16.661 | 33.376 | 2 |
| 2025-06-22T05:11:00 | 53.922387 | 6.286869 | 2.0 | 16.478 | 2 | 42.700 | 16.648 | 33.376 | 2 |
| 2025-06-22T05:12:00 | 53.922354 | 6.286765 | 2.0 | 16.440 | 2 | 42.681 | 16.632 | 33.373 | 2 |
| 2025-06-22T05:13:00 | 53.922310 | 6.286591 | 2.0 | 16.480 | 2 | 42.655 | 16.603 | 33.374 | 2 |
| 2025-06-22T05:14:00 | 53.922256 | 6.286389 | 2.0 | 16.544 | 2 | 42.690 | 16.647 | 33.368 | 2 |
| 2025-06-22T05:15:00 | 53.922098 | 6.286037 | 2.0 | 16.606 | 2 | 42.752 | 16.712 | 33.368 | 2 |
| 2025-06-22T05:16:00 | 53.921951 | 6.285719 | 2.0 | 16.660 | 2 | 42.812 | 16.774 | 33.369 | 2 |
| 2025-06-22T05:17:00 | 53.921875 | 6.285519 | 2.0 | 16.749 | 2 | 42.855 | 16.815 | 33.372 | 2 |
| 2025-06-22T05:18:00 | 53.921801 | 6.285305 | 2.0 | 16.929 | 2 | 42.967 | 16.953 | 33.355 | 2 |
| 2025-06-22T05:19:00 | 53.921714 | 6.285066 | 2.0 | 16.935 | 2 | 43.083 | 17.075 | 33.354 | 2 |
| 2025-06-22T05:20:00 | 53.921616 | 6.284821 | 2.0 | 16.963 | 2 | 43.095 | 17.087 | 33.355 | 2 |
| 2025-06-22T05:21:00 | 53.921516 | 6.284572 | 2.0 | 16.963 | 2 | 43.117 | 17.116 | 33.350 | 2 |
| 2025-06-22T05:22:00 | 53.921417 | 6.284326 | 2.0 | 16.969 | 2 | 43.121 | 17.119 | 33.351 | 2 |
| 2025-06-22T05:23:00 | 53.921327 | 6.284077 | 2.0 | 16.954 | 2 | 43.124 | 17.122 | 33.351 | 2 |
| 2025-06-22T05:24:00 | 53.921237 | 6.283822 | 2.0 | 16.964 | 2 | 43.118 | 17.117 | 33.350 | 2 |
| 2025-06-22T05:25:00 | 53.921139 | 6.283575 | 2.0 | 16.948 | 2 | 43.116 | 17.113 | 33.351 | 2 |
| 2025-06-22T05:26:00 | 53.921044 | 6.283330 | 2.0 | 16.933 | 2 | 43.110 | 17.107 | 33.351 | 2 |
| 2025-06-22T05:27:00 | 53.920941 | 6.283083 | 2.0 | 16.939 | 2 | 43.095 | 17.090 | 33.352 | 2 |
| 2025-06-22T05:28:00 | 53.920843 | 6.282827 | 2.0 | 16.918 | 2 | 43.099 | 17.096 | 33.351 | 2 |
| 2025-06-22T05:29:00 | 53.920744 | 6.282563 | 2.0 | 16.862 | 2 | 43.072 | 17.061 | 33.356 | 2 |
| 2025-06-22T05:30:00 | 53.920643 | 6.282300 | 2.0 | 16.854 | 2 | 43.037 | 17.025 | 33.356 | 2 |
| 2025-06-22T05:31:00 | 53.920536 | 6.282225 | 2.0 | 16.849 | 2 | 43.029 | 17.015 | 33.357 | 2 |
| 2025-06-22T05:32:00 | 53.920399 | 6.282424 | 2.0 | 16.842 | 2 | 43.022 | 17.007 | 33.358 | 2 |
| 2025-06-22T05:33:00 | 53.920247 | 6.282674 | 2.0 | 16.838 | 2 | 43.015 | 17.000 | 33.358 | 2 |
| 2025-06-22T05:34:00 | 53.920080 | 6.282850 | 2.0 | 16.832 | 2 | 43.011 | 16.993 | 33.360 | 2 |
| 2025-06-22T05:35:00 | 53.919898 | 6.283000 | 2.0 | 16.854 | 2 | 43.010 | 16.997 | 33.356 | 2 |
| 2025-06-22T05:36:00 | 53.919710 | 6.283140 | 2.0 | 16.853 | 2 | 43.026 | 17.016 | 33.354 | 2 |
| 2025-06-22T05:37:00 | 53.919527 | 6.283260 | 2.0 | 16.863 | 2 | 43.020 | 17.016 | 33.349 | 2 |
| 2025-06-22T05:38:00 | 53.919350 | 6.283328 | 2.0 | 16.863 | 2 | 43.026 | 17.018 | 33.352 | 2 |
| 2025-06-22T05:39:00 | 53.919168 | 6.283382 | 2.0 | 16.867 | 2 | 43.027 | 17.027 | 33.346 | 2 |
| 2025-06-22T05:40:00 | 53.918986 | 6.283420 | 2.0 | 16.871 | 2 | 43.035 | 17.022 | 33.357 | 2 |
| 2025-06-22T05:41:00 | 53.918810 | 6.283435 | 2.0 | 16.845 | 2 | 42.985 | 17.026 | 33.310 | 2 |
| 2025-06-22T05:42:00 | 53.918632 | 6.283469 | 2.0 | 16.851 | 2 | 42.890 | 17.007 | 33.243 | 2 |
| 2025-06-22T05:43:00 | 53.918454 | 6.283499 | 2.0 | 16.850 | 2 | 42.895 | 17.003 | 33.251 | 2 |
| 2025-06-22T05:44:00 | 53.918299 | 6.283495 | 2.0 | 16.864 | 2 | 42.852 | 17.011 | 33.207 | 2 |
| 2025-06-22T05:45:00 | 53.918171 | 6.283414 | 2.0 | 16.840 | 2 | 42.868 | 17.017 | 33.216 | 2 |
| 2025-06-22T05:46:00 | 53.918042 | 6.283289 | 2.0 | 16.838 | 2 | 42.899 | 16.999 | 33.258 | 2 |
| 2025-06-22T05:47:00 | 53.917924 | 6.283133 | 2.0 | 16.875 | 2 | 42.836 | 17.001 | 33.202 | 2 |
| 2025-06-22T05:48:00 | 53.917803 | 6.282973 | 2.0 | 16.887 | 2 | 42.892 | 17.028 | 33.228 | 2 |
| 2025-06-22T05:49:00 | 53.917682 | 6.282810 | 2.0 | 16.868 | 2 | 42.908 | 17.043 | 33.229 | 2 |
| 2025-06-22T05:50:00 | 53.917590 | 6.282583 | 2.0 | 16.843 | 2 | 42.881 | 17.020 | 33.225 | 2 |
| 2025-06-22T05:51:00 | 53.917503 | 6.282324 | 2.0 | 16.846 | 2 | 42.893 | 17.004 | 33.249 | 2 |
| 2025-06-22T05:52:00 | 53.917419 | 6.282082 | 2.0 | 16.856 | 2 | 42.855 | 17.007 | 33.213 | 2 |
| 2025-06-22T05:53:00 | 53.917351 | 6.281885 | 2.0 | 16.865 | 2 | 42.907 | 17.017 | 33.250 | 2 |
| 2025-06-22T05:54:00 | 53.917304 | 6.281712 | 2.0 | 16.856 | 2 | 42.918 | 17.023 | 33.255 | 2 |
| 2025-06-22T05:55:00 | 53.917281 | 6.281577 | 2.0 | 16.866 | 2 | 42.921 | 17.017 | 33.262 | 2 |
| 2025-06-22T05:56:00 | 53.917247 | 6.281415 | 2.0 | 16.884 | 2 | 42.968 | 17.028 | 33.294 | 2 |
| 2025-06-22T05:57:00 | 53.917233 | 6.281359 | 2.0 | 16.884 | 2 | 42.947 | 17.043 | 33.263 | 2 |
| 2025-06-22T05:58:00 | 53.917230 | 6.281309 | 2.0 | 16.898 | 2 | 42.958 | 17.046 | 33.270 | 2 |
| 2025-06-22T05:59:00 | 53.917235 | 6.281239 | 2.0 | 16.889 | 2 | 42.994 | 17.055 | 33.294 | 2 |
| 2025-06-22T06:00:00 | 53.917239 | 6.281176 | 2.0 | 16.876 | 2 | 43.009 | 17.044 | 33.316 | 2 |
| 2025-06-22T06:01:00 | 53.917240 | 6.281110 | 2.0 | 16.872 | 2 | 43.006 | 17.034 | 33.322 | 2 |
| 2025-06-22T06:02:00 | 53.917246 | 6.281041 | 2.0 | 16.866 | 2 | 42.986 | 17.029 | 33.308 | 2 |
| 2025-06-22T06:03:00 | 53.917260 | 6.280967 | 2.0 | 16.863 | 2 | 42.999 | 17.028 | 33.321 | 2 |
| 2025-06-22T06:04:00 | 53.917306 | 6.280738 | 2.0 | 16.832 | 2 | 43.012 | 17.018 | 33.340 | 2 |
| 2025-06-22T06:05:00 | 53.917320 | 6.280620 | 2.0 | 16.827 | 2 | 42.996 | 16.994 | 33.346 | 2 |
| 2025-06-22T06:06:00 | 53.917313 | 6.280614 | 2.0 | 16.817 | 2 | 42.997 | 16.985 | 33.354 | 2 |
| 2025-06-22T06:07:00 | 53.917310 | 6.280598 | 2.0 | 16.815 | 2 | 42.993 | 16.977 | 33.358 | 2 |
| 2025-06-22T06:08:00 | 53.917309 | 6.280552 | 2.0 | 16.792 | 2 | 42.995 | 16.970 | 33.365 | 2 |
| 2025-06-22T06:09:00 | 53.917315 | 6.280483 | 2.0 | 16.804 | 2 | 42.976 | 16.957 | 33.359 | 2 |
| 2025-06-22T06:10:00 | 53.917311 | 6.280406 | 2.0 | 16.769 | 2 | 42.986 | 16.956 | 33.369 | 2 |
| 2025-06-22T06:11:00 | 53.917290 | 6.280290 | 2.0 | 16.761 | 2 | 42.961 | 16.930 | 33.369 | 2 |
| 2025-06-22T06:12:00 | 53.917166 | 6.280031 | 2.0 | 16.747 | 2 | 42.960 | 16.922 | 33.375 | 2 |
| 2025-06-22T06:13:00 | 53.917126 | 6.279951 | 2.0 | 16.734 | 2 | 42.950 | 16.906 | 33.379 | 2 |
| 2025-06-22T06:14:00 | 53.917105 | 6.279884 | 2.0 | 16.727 | 2 | 42.943 | 16.897 | 33.381 | 2 |
| 2025-06-22T06:15:00 | 53.917074 | 6.279796 | 2.0 | 16.729 | 2 | 42.933 | 16.887 | 33.380 | 2 |
| 2025-06-22T06:16:00 | 53.917023 | 6.279710 | 2.0 | 16.721 | 2 | 42.937 | 16.889 | 33.382 | 2 |
| 2025-06-22T06:17:00 | 53.916968 | 6.279628 | 2.0 | 16.689 | 2 | 42.930 | 16.875 | 33.388 | 2 |
| 2025-06-22T06:18:00 | 53.916907 | 6.279555 | 2.0 | 16.680 | 2 | 42.910 | 16.852 | 33.389 | 2 |
| 2025-06-22T06:19:00 | 53.916841 | 6.279503 | 2.0 | 16.672 | 2 | 42.900 | 16.840 | 33.391 | 2 |
| 2025-06-22T06:20:00 | 53.916769 | 6.279446 | 2.0 | 16.659 | 2 | 42.889 | 16.832 | 33.388 | 2 |
| 2025-06-22T06:21:00 | 53.916719 | 6.279427 | 2.0 | 16.648 | 2 | 42.882 | 16.821 | 33.391 | 2 |
| 2025-06-22T06:22:00 | 53.916701 | 6.279423 | 2.0 | 16.631 | 2 | 42.863 | 16.809 | 33.384 | 2 |
| 2025-06-22T06:23:00 | 53.916711 | 6.279425 | 2.0 | 16.618 | 2 | 42.845 | 16.790 | 33.384 | 2 |
| 2025-06-22T06:24:00 | 53.916738 | 6.279415 | 2.0 | 16.622 | 2 | 42.838 | 16.778 | 33.388 | 2 |
| 2025-06-22T06:25:00 | 53.916788 | 6.279396 | 2.0 | 16.605 | 2 | 42.846 | 16.781 | 33.393 | 2 |
| 2025-06-22T06:26:00 | 53.916839 | 6.279371 | 2.0 | 16.596 | 2 | 42.830 | 16.764 | 33.393 | 2 |
| 2025-06-22T06:27:00 | 53.916889 | 6.279348 | 2.0 | 16.584 | 2 | 42.823 | 16.755 | 33.394 | 2 |
| 2025-06-22T06:28:00 | 53.916946 | 6.279318 | 2.0 | 16.578 | 2 | 42.815 | 16.746 | 33.395 | 2 |
| 2025-06-22T06:29:00 | 53.917006 | 6.279285 | 2.0 | 16.587 | 2 | 42.813 | 16.744 | 33.395 | 2 |
| 2025-06-22T06:30:00 | 53.917068 | 6.279242 | 2.0 | 16.573 | 2 | 42.818 | 16.746 | 33.397 | 2 |
| 2025-06-22T06:31:00 | 53.917121 | 6.279201 | 2.0 | 16.575 | 2 | 42.810 | 16.734 | 33.400 | 2 |
| 2025-06-22T06:32:00 | 53.917187 | 6.279159 | 2.0 | 16.568 | 2 | 42.813 | 16.737 | 33.401 | 2 |
| 2025-06-22T06:33:00 | 53.917246 | 6.279094 | 2.0 | 16.590 | 2 | 42.802 | 16.727 | 33.399 | 2 |
| 2025-06-22T06:34:00 | 53.917233 | 6.279001 | 2.0 | 16.626 | 2 | 42.837 | 16.767 | 33.396 | 2 |
| 2025-06-22T06:35:00 | 53.917184 | 6.278988 | 2.0 | 16.613 | 2 | 42.860 | 16.785 | 33.401 | 2 |
| 2025-06-22T06:36:00 | 53.917087 | 6.279135 | 2.0 | 16.604 | 2 | 42.851 | 16.773 | 33.404 | 2 |
| 2025-06-22T06:37:00 | 53.917037 | 6.279406 | 2.0 | 16.592 | 2 | 42.840 | 16.761 | 33.404 | 2 |
| 2025-06-22T06:38:00 | 53.916998 | 6.279753 | 2.0 | 16.600 | 2 | 42.833 | 16.754 | 33.404 | 2 |
| 2025-06-22T06:39:00 | 53.916956 | 6.280147 | 2.0 | 16.605 | 2 | 42.839 | 16.761 | 33.403 | 2 |
| 2025-06-22T06:40:00 | 53.916922 | 6.280551 | 2.0 | 16.612 | 2 | 42.845 | 16.767 | 33.403 | 2 |
| 2025-06-22T06:41:00 | 53.916850 | 6.280880 | 2.0 | 16.601 | 2 | 42.849 | 16.771 | 33.404 | 2 |
| 2025-06-22T06:42:00 | 53.916780 | 6.281004 | 2.0 | 16.588 | 2 | 42.842 | 16.764 | 33.403 | 2 |
| 2025-06-22T06:43:00 | 53.916751 | 6.280954 | 2.0 | 16.582 | 2 | 42.828 | 16.748 | 33.404 | 2 |
| 2025-06-22T06:44:00 | 53.916745 | 6.280855 | 2.0 | 16.597 | 2 | 42.823 | 16.743 | 33.404 | 2 |
| 2025-06-22T06:45:00 | 53.916766 | 6.280738 | 2.0 | 16.624 | 2 | 42.840 | 16.762 | 33.403 | 2 |
| 2025-06-22T06:46:00 | 53.916794 | 6.280623 | 2.0 | 16.632 | 2 | 42.863 | 16.786 | 33.403 | 2 |
| 2025-06-22T06:47:00 | 53.916828 | 6.280493 | 2.0 | 16.620 | 2 | 42.856 | 16.788 | 33.396 | 2 |
| 2025-06-22T06:48:00 | 53.916844 | 6.280339 | 2.0 | 16.590 | 2 | 42.849 | 16.776 | 33.399 | 2 |
| 2025-06-22T06:49:00 | 53.916836 | 6.280212 | 2.0 | 16.575 | 2 | 42.826 | 16.752 | 33.399 | 2 |
| 2025-06-22T06:50:00 | 53.916808 | 6.280163 | 2.0 | 16.569 | 2 | 42.820 | 16.741 | 33.403 | 2 |
| 2025-06-22T06:51:00 | 53.916769 | 6.280217 | 2.0 | 16.557 | 2 | 42.821 | 16.738 | 33.407 | 2 |
| 2025-06-22T06:52:00 | 53.916747 | 6.280368 | 2.0 | 16.547 | 2 | 42.817 | 16.732 | 33.408 | 2 |
| 2025-06-22T06:53:00 | 53.916748 | 6.280494 | 2.0 | 16.549 | 2 | 42.811 | 16.726 | 33.408 | 2 |
| 2025-06-22T06:54:00 | 53.916730 | 6.280550 | 2.0 | 16.530 | 2 | 42.810 | 16.725 | 33.408 | 2 |
| 2025-06-22T06:55:00 | 53.916693 | 6.280577 | 2.0 | 16.576 | 2 | 42.800 | 16.715 | 33.408 | 2 |
| 2025-06-22T06:56:00 | 53.916699 | 6.280582 | 2.0 | 16.595 | 2 | 42.846 | 16.766 | 33.405 | 2 |
| 2025-06-22T06:57:00 | 53.916785 | 6.280576 | 2.0 | 16.583 | 2 | 42.856 | 16.773 | 33.408 | 2 |
| 2025-06-22T06:58:00 | 53.916894 | 6.280554 | 2.0 | 16.575 | 2 | 42.847 | 16.765 | 33.407 | 2 |
| 2025-06-22T06:59:00 | 53.916961 | 6.280507 | 2.0 | 16.562 | 2 | 42.840 | 16.757 | 33.407 | 2 |
| 2025-06-22T07:00:00 | 53.916972 | 6.280487 | 2.0 | 16.559 | 2 | 42.831 | 16.745 | 33.410 | 2 |
| 2025-06-22T07:01:00 | 53.916927 | 6.280536 | 2.0 | 16.564 | 2 | 42.832 | 16.747 | 33.409 | 2 |
| 2025-06-22T07:02:00 | 53.916886 | 6.280579 | 2.0 | 16.570 | 2 | 42.837 | 16.750 | 33.411 | 2 |
| 2025-06-22T07:03:00 | 53.916895 | 6.280559 | 2.0 | 16.561 | 2 | 42.837 | 16.755 | 33.406 | 2 |
| 2025-06-22T07:04:00 | 53.916942 | 6.280515 | 2.0 | 16.556 | 2 | 42.831 | 16.746 | 33.409 | 2 |
| 2025-06-22T07:05:00 | 53.916961 | 6.280507 | 2.0 | 16.557 | 2 | 42.831 | 16.744 | 33.410 | 2 |
| 2025-06-22T07:06:00 | 53.916955 | 6.280535 | 2.0 | 16.549 | 2 | 42.830 | 16.742 | 33.411 | 2 |
| 2025-06-22T07:07:00 | 53.916935 | 6.280564 | 2.0 | 16.540 | 2 | 42.823 | 16.735 | 33.411 | 2 |
| 2025-06-22T07:08:00 | 53.916850 | 6.280628 | 2.0 | 16.545 | 2 | 42.816 | 16.730 | 33.409 | 2 |
| 2025-06-22T07:09:00 | 53.916773 | 6.280666 | 2.0 | 16.543 | 2 | 42.821 | 16.733 | 33.411 | 2 |
| 2025-06-22T07:10:00 | 53.916774 | 6.280657 | 2.0 | 16.536 | 2 | 42.818 | 16.728 | 33.412 | 2 |
| 2025-06-22T07:11:00 | 53.916785 | 6.280642 | 2.0 | 16.547 | 2 | 42.814 | 16.725 | 33.411 | 2 |
| 2025-06-22T07:12:00 | 53.916815 | 6.280553 | 2.0 | 16.639 | 2 | 42.829 | 16.743 | 33.409 | 2 |
| 2025-06-22T07:13:00 | 53.916816 | 6.280492 | 2.0 | 16.642 | 2 | 42.896 | 16.817 | 33.406 | 2 |
| 2025-06-22T07:14:00 | 53.916763 | 6.280535 | 2.0 | 16.634 | 2 | 42.910 | 16.827 | 33.410 | 2 |
| 2025-06-22T07:15:00 | 53.916715 | 6.280635 | 2.0 | 16.619 | 2 | 42.905 | 16.821 | 33.411 | 2 |
| 2025-06-22T07:16:00 | 53.916705 | 6.280723 | 2.0 | 16.618 | 2 | 42.895 | 16.810 | 33.411 | 2 |
| 2025-06-22T07:17:00 | 53.916682 | 6.280808 | 2.0 | 16.618 | 2 | 42.892 | 16.807 | 33.411 | 2 |
| 2025-06-22T07:18:00 | 53.916646 | 6.280838 | 2.0 | 16.595 | 2 | 42.888 | 16.802 | 33.412 | 2 |
| 2025-06-22T07:19:00 | 53.916639 | 6.280822 | 2.0 | 16.590 | 2 | 42.872 | 16.786 | 33.411 | 2 |
| 2025-06-22T07:20:00 | 53.916701 | 6.280772 | 2.0 | 16.595 | 2 | 42.868 | 16.781 | 33.412 | 2 |
| 2025-06-22T07:21:00 | 53.916790 | 6.280716 | 2.0 | 16.602 | 2 | 42.873 | 16.786 | 33.412 | 2 |
| 2025-06-22T07:22:00 | 53.916860 | 6.280669 | 2.0 | 16.600 | 2 | 42.879 | 16.793 | 33.411 | 2 |
| 2025-06-22T07:23:00 | 53.916904 | 6.280711 | 2.0 | 16.603 | 2 | 42.878 | 16.792 | 33.411 | 2 |
| 2025-06-22T07:24:00 | 53.916938 | 6.280857 | 2.0 | 16.600 | 2 | 42.880 | 16.793 | 33.412 | 2 |
| 2025-06-22T07:25:00 | 53.916934 | 6.281053 | 2.0 | 16.602 | 2 | 42.880 | 16.794 | 33.411 | 2 |
| 2025-06-22T07:26:00 | 53.916896 | 6.281173 | 2.0 | 16.553 | 2 | 42.857 | 16.766 | 33.415 | 2 |
| 2025-06-22T07:27:00 | 53.916872 | 6.281199 | 2.0 | 16.606 | 2 | 42.849 | 16.763 | 33.410 | 2 |
| 2025-06-22T07:28:00 | 53.916872 | 6.281165 | 2.0 | 16.581 | 2 | 42.881 | 16.796 | 33.411 | 2 |
| 2025-06-22T07:29:00 | 53.916878 | 6.281127 | 2.0 | 16.595 | 2 | 42.849 | 16.760 | 33.413 | 2 |
| 2025-06-22T07:30:00 | 53.916875 | 6.281097 | 2.0 | 16.624 | 2 | 42.878 | 16.794 | 33.410 | 2 |
| 2025-06-22T07:31:00 | 53.916870 | 6.281080 | 2.0 | 16.526 | 2 | 42.889 | 16.803 | 33.412 | 2 |
| 2025-06-22T07:32:00 | 53.916870 | 6.281078 | 2.0 | 16.573 | 2 | 42.817 | 16.725 | 33.414 | 2 |
| 2025-06-22T07:33:00 | 53.916871 | 6.281079 | 2.0 | 16.643 | 2 | 42.864 | 16.783 | 33.407 | 2 |
| 2025-06-22T07:34:00 | 53.916854 | 6.280989 | 2.0 | 16.649 | 2 | 42.915 | 16.834 | 33.409 | 2 |
| 2025-06-22T07:35:00 | 53.916863 | 6.280712 | 2.0 | 16.646 | 2 | 42.923 | 16.838 | 33.412 | 2 |
| 2025-06-22T07:36:00 | 53.916938 | 6.280587 | 2.0 | 16.649 | 2 | 42.920 | 16.837 | 33.410 | 2 |
| 2025-06-22T07:37:00 | 53.916989 | 6.280549 | 2.0 | 16.641 | 2 | 42.922 | 16.840 | 33.410 | 2 |
| 2025-06-22T07:38:00 | 53.916967 | 6.280570 | 2.0 | 16.650 | 2 | 42.921 | 16.837 | 33.411 | 2 |
| 2025-06-22T07:39:00 | 53.916933 | 6.280594 | 2.0 | 16.634 | 2 | 42.926 | 16.841 | 33.412 | 2 |
| 2025-06-22T07:40:00 | 53.916923 | 6.280602 | 2.0 | 16.595 | 2 | 42.895 | 16.808 | 33.413 | 2 |
| 2025-06-22T07:41:00 | 53.916916 | 6.280601 | 2.0 | 16.623 | 2 | 42.875 | 16.789 | 33.411 | 2 |
| 2025-06-22T07:42:00 | 53.916926 | 6.280554 | 2.0 | 16.453 | 2 | 42.870 | 16.777 | 33.417 | 2 |
| 2025-06-22T07:43:00 | 53.916961 | 6.280481 | 2.0 | 16.657 | 2 | 42.799 | 16.713 | 33.408 | 2 |
| 2025-06-22T07:44:00 | 53.916957 | 6.280443 | 2.0 | 16.664 | 2 | 42.925 | 16.845 | 33.408 | 2 |
| 2025-06-22T07:45:00 | 53.916935 | 6.280451 | 2.0 | 16.663 | 2 | 42.940 | 16.856 | 33.412 | 2 |
| 2025-06-22T07:46:00 | 53.916924 | 6.280461 | 2.0 | 16.663 | 2 | 42.940 | 16.856 | 33.412 | 2 |
| 2025-06-22T07:47:00 | 53.916910 | 6.280472 | 2.0 | 16.670 | 2 | 42.941 | 16.858 | 33.411 | 2 |
| 2025-06-22T07:48:00 | 53.916894 | 6.280481 | 2.0 | 16.674 | 2 | 42.947 | 16.864 | 33.411 | 2 |
| 2025-06-22T07:49:00 | 53.916880 | 6.280479 | 2.0 | 16.515 | 2 | 42.950 | 16.868 | 33.411 | 2 |
| 2025-06-22T07:50:00 | 53.916896 | 6.280436 | 2.0 | 15.993 | 2 | 42.685 | 16.567 | 33.431 | 2 |
| 2025-06-22T07:51:00 | 53.916938 | 6.280436 | 2.0 | 16.122 | 2 | 42.375 | 16.251 | 33.423 | 2 |
| 2025-06-22T07:52:00 | 53.916986 | 6.280486 | 2.0 | 16.551 | 2 | 42.477 | 16.386 | 33.400 | 2 |
| 2025-06-22T07:53:00 | 53.917040 | 6.280555 | 2.0 | 16.481 | 2 | 42.784 | 16.705 | 33.402 | 2 |
| 2025-06-22T07:54:00 | 53.917073 | 6.280576 | 2.0 | 16.279 | 2 | 42.753 | 16.653 | 33.418 | 2 |
| 2025-06-22T07:55:00 | 53.917035 | 6.280492 | 2.0 | 16.307 | 2 | 42.601 | 16.495 | 33.417 | 2 |
| 2025-06-22T07:56:00 | 53.917017 | 6.280408 | 2.0 | 16.657 | 2 | 42.675 | 16.591 | 33.402 | 2 |
| 2025-06-22T07:57:00 | 53.916999 | 6.280351 | 2.0 | 16.651 | 2 | 42.901 | 16.825 | 33.404 | 2 |
| 2025-06-22T07:58:00 | 53.916987 | 6.280311 | 2.0 | 16.683 | 2 | 42.928 | 16.845 | 33.411 | 2 |
| 2025-06-22T07:59:00 | 53.916975 | 6.280280 | 2.0 | 16.550 | 2 | 42.941 | 16.856 | 33.413 | 2 |
| 2025-06-22T08:00:00 | 53.916959 | 6.280265 | 2.0 | 16.474 | 2 | 42.838 | 16.745 | 33.416 | 2 |
| 2025-06-22T08:01:00 | 53.916937 | 6.280261 | 2.0 | 16.673 | 2 | 42.780 | 16.687 | 33.413 | 2 |
| 2025-06-22T08:02:00 | 53.916930 | 6.280255 | 2.0 | 16.633 | 2 | 42.915 | 16.837 | 33.406 | 2 |
| 2025-06-22T08:03:00 | 53.916930 | 6.280244 | 2.0 | 16.592 | 2 | 42.915 | 16.830 | 33.412 | 2 |
| 2025-06-22T08:04:00 | 53.916920 | 6.280210 | 2.0 | 16.587 | 2 | 42.884 | 16.795 | 33.414 | 2 |
| 2025-06-22T08:05:00 | 53.916894 | 6.280170 | 2.0 | 16.665 | 2 | 42.877 | 16.793 | 33.410 | 2 |
| 2025-06-22T08:06:00 | 53.916855 | 6.280140 | 2.0 | 16.691 | 2 | 42.942 | 16.863 | 33.408 | 2 |
| 2025-06-22T08:07:00 | 53.916781 | 6.280102 | 2.0 | 16.680 | 2 | 42.966 | 16.885 | 33.411 | 2 |
| 2025-06-22T08:08:00 | 53.916677 | 6.280468 | 2.0 | 16.666 | 2 | 42.957 | 16.873 | 33.413 | 2 |
| 2025-06-22T08:09:00 | 53.916597 | 6.281645 | 2.0 | 16.652 | 2 | 42.942 | 16.858 | 33.412 | 2 |
| 2025-06-22T08:10:00 | 53.916054 | 6.284054 | 2.0 | 16.578 | 2 | 42.908 | 16.833 | 33.403 | 2 |
| 2025-06-22T08:11:00 | 53.915591 | 6.287306 | 2.0 | 16.591 | 2 | 42.859 | 16.782 | 33.403 | 2 |
| 2025-06-22T08:12:00 | 53.915314 | 6.291381 | 2.0 | 16.627 | 2 | 42.865 | 16.794 | 33.398 | 2 |
| 2025-06-22T08:13:00 | 53.915067 | 6.295875 | 2.0 | 16.705 | 2 | 42.889 | 16.835 | 33.385 | 2 |
| 2025-06-22T08:14:00 | 53.914831 | 6.300491 | 2.0 | 16.747 | 2 | 42.945 | 16.899 | 33.381 | 2 |
| 2025-06-22T08:15:00 | 53.914607 | 6.305142 | 2.0 | 16.792 | 2 | 42.990 | 16.949 | 33.378 | 2 |
| 2025-06-22T08:16:00 | 53.914366 | 6.309804 | 2.0 | 16.794 | 2 | 43.020 | 16.987 | 33.373 | 2 |
| 2025-06-22T08:17:00 | 53.914133 | 6.314477 | 2.0 | 16.794 | 2 | 43.022 | 16.990 | 33.372 | 2 |
| 2025-06-22T08:18:00 | 53.913885 | 6.319147 | 2.0 | 16.760 | 2 | 43.016 | 16.987 | 33.369 | 2 |
| 2025-06-22T08:19:00 | 53.913635 | 6.323804 | 2.0 | 16.752 | 2 | 42.987 | 16.961 | 33.366 | 2 |
| 2025-06-22T08:20:00 | 53.913429 | 6.328441 | 2.0 | 16.802 | 2 | 42.963 | 16.935 | 33.366 | 2 |
| 2025-06-22T08:21:00 | 53.913205 | 6.333093 | 2.0 | 16.876 | 2 | 43.022 | 17.005 | 33.359 | 2 |
| 2025-06-22T08:22:00 | 53.912957 | 6.337756 | 2.0 | 16.968 | 2 | 43.091 | 17.086 | 33.352 | 2 |
| 2025-06-22T08:23:00 | 53.912727 | 6.342440 | 2.0 | 16.908 | 2 | 43.156 | 17.156 | 33.350 | 2 |
| 2025-06-22T08:24:00 | 53.912489 | 6.347103 | 2.0 | 16.770 | 2 | 43.105 | 17.094 | 33.358 | 2 |
| 2025-06-22T08:25:00 | 53.912274 | 6.351756 | 2.0 | 16.753 | 2 | 42.992 | 16.975 | 33.358 | 2 |
| 2025-06-22T08:26:00 | 53.912031 | 6.356389 | 2.0 | 16.691 | 2 | 42.945 | 16.935 | 33.351 | 2 |
| 2025-06-22T08:27:00 | 53.911798 | 6.361006 | 2.0 | 16.572 | 2 | 42.897 | 16.893 | 33.344 | 2 |
| 2025-06-22T08:28:00 | 53.911539 | 6.365584 | 2.0 | 16.560 | 2 | 42.782 | 16.780 | 33.338 | 2 |
| 2025-06-22T08:29:00 | 53.911316 | 6.370157 | 2.0 | 16.546 | 2 | 42.746 | 16.774 | 33.311 | 2 |
| 2025-06-22T08:30:00 | 53.911076 | 6.374709 | 2.0 | 16.461 | 2 | 42.680 | 16.721 | 33.298 | 2 |
| 2025-06-22T08:31:00 | 53.910844 | 6.379242 | 2.0 | 16.488 | 2 | 42.606 | 16.678 | 33.269 | 2 |
| 2025-06-22T08:32:00 | 53.910619 | 6.383774 | 2.0 | 16.578 | 2 | 42.599 | 16.685 | 33.257 | 2 |
| 2025-06-22T08:33:00 | 53.910359 | 6.388306 | 2.0 | 16.678 | 2 | 42.679 | 16.780 | 33.248 | 2 |
| 2025-06-22T08:34:00 | 53.910110 | 6.392855 | 2.0 | 16.731 | 2 | 42.768 | 16.869 | 33.252 | 2 |
| 2025-06-22T08:35:00 | 53.909911 | 6.397426 | 2.0 | 16.745 | 2 | 42.809 | 16.909 | 33.254 | 2 |
| 2025-06-22T08:36:00 | 53.909665 | 6.401986 | 2.0 | 16.748 | 2 | 42.823 | 16.933 | 33.247 | 2 |
| 2025-06-22T08:37:00 | 53.909471 | 6.406561 | 2.0 | 16.659 | 2 | 42.789 | 16.916 | 33.231 | 2 |
| 2025-06-22T08:38:00 | 53.909255 | 6.411106 | 2.0 | 16.451 | 2 | 42.642 | 16.796 | 33.203 | 2 |
| 2025-06-22T08:39:00 | 53.908994 | 6.415574 | 2.0 | 16.466 | 2 | 42.447 | 16.651 | 33.153 | 2 |
| 2025-06-22T08:40:00 | 53.908784 | 6.420016 | 2.0 | 16.487 | 2 | 42.420 | 16.651 | 33.129 | 2 |
| 2025-06-22T08:41:00 | 53.908571 | 6.424442 | 2.0 | 16.533 | 2 | 42.416 | 16.677 | 33.104 | 2 |
| 2025-06-22T08:42:00 | 53.908321 | 6.428854 | 2.0 | 16.560 | 2 | 42.429 | 16.715 | 33.084 | 2 |
| 2025-06-22T08:43:00 | 53.908100 | 6.433140 | 2.0 | 16.573 | 2 | 42.431 | 16.739 | 33.066 | 2 |
| 2025-06-22T08:44:00 | 53.907923 | 6.436383 | 2.0 | 16.594 | 2 | 42.429 | 16.755 | 33.051 | 2 |
| 2025-06-22T08:45:00 | 53.907767 | 6.438891 | 2.0 | 16.614 | 2 | 42.434 | 16.774 | 33.040 | 2 |
| 2025-06-22T08:46:00 | 53.907669 | 6.440984 | 2.0 | 16.628 | 2 | 42.443 | 16.789 | 33.035 | 2 |
| 2025-06-22T08:47:00 | 53.907578 | 6.442860 | 2.0 | 16.640 | 2 | 42.455 | 16.805 | 33.033 | 2 |
| 2025-06-22T08:48:00 | 53.907481 | 6.444834 | 2.0 | 16.647 | 2 | 42.454 | 16.815 | 33.023 | 2 |
| 2025-06-22T08:49:00 | 53.907365 | 6.447288 | 2.0 | 16.660 | 2 | 42.458 | 16.822 | 33.021 | 2 |
| 2025-06-22T08:50:00 | 53.907233 | 6.450525 | 2.0 | 16.647 | 2 | 42.459 | 16.827 | 33.018 | 2 |
| 2025-06-22T08:51:00 | 53.907082 | 6.454552 | 2.0 | 16.657 | 2 | 42.450 | 16.825 | 33.012 | 2 |
| 2025-06-22T08:52:00 | 53.906851 | 6.458855 | 2.0 | 16.673 | 2 | 42.458 | 16.836 | 33.010 | 2 |
| 2025-06-22T08:53:00 | 53.906623 | 6.463251 | 2.0 | 16.691 | 2 | 42.341 | 16.848 | 32.898 | 2 |
| 2025-06-22T08:54:00 | 53.906610 | 6.467699 | 2.0 | 16.705 | 2 | 42.135 | 16.867 | 32.704 | 2 |
| 2025-06-22T08:55:00 | 53.906627 | 6.472188 | 2.0 | 16.719 | 2 | 42.335 | 16.881 | 32.866 | 2 |
| 2025-06-22T08:56:00 | 53.907094 | 6.476618 | 2.0 | 16.724 | 2 | 42.341 | 16.892 | 32.862 | 2 |
| 2025-06-22T08:57:00 | 53.907575 | 6.481114 | 2.0 | 16.739 | 2 | 42.328 | 16.898 | 32.846 | 2 |
| 2025-06-22T08:58:00 | 53.908076 | 6.485666 | 2.0 | 16.750 | 2 | 42.337 | 16.911 | 32.843 | 2 |
| 2025-06-22T08:59:00 | 53.908598 | 6.490259 | 2.0 | 16.774 | 2 | 42.311 | 16.927 | 32.808 | 2 |
| 2025-06-22T09:00:00 | 53.909124 | 6.494896 | 2.0 | 16.800 | 2 | 42.359 | 16.950 | 32.830 | 2 |
| 2025-06-22T09:01:00 | 53.909644 | 6.499561 | 2.0 | 16.823 | 2 | 42.345 | 16.972 | 32.800 | 2 |
| 2025-06-22T09:02:00 | 53.910198 | 6.504220 | 2.0 | 16.850 | 2 | 42.391 | 16.996 | 32.821 | 2 |
| 2025-06-22T09:03:00 | 53.910726 | 6.508894 | 2.0 | 16.883 | 2 | 42.382 | 17.028 | 32.787 | 2 |
| 2025-06-22T09:04:00 | 53.911263 | 6.513575 | 2.0 | 16.902 | 2 | 42.405 | 17.054 | 32.785 | 2 |
| 2025-06-22T09:05:00 | 53.911811 | 6.518253 | 2.0 | 16.927 | 2 | 42.452 | 17.075 | 32.809 | 2 |
| 2025-06-22T09:06:00 | 53.912270 | 6.522958 | 2.0 | 16.956 | 2 | 42.452 | 17.100 | 32.789 | 2 |
| 2025-06-22T09:07:00 | 53.912570 | 6.527700 | 2.0 | 16.847 | 2 | 42.482 | 17.123 | 32.796 | 2 |
| 2025-06-22T09:08:00 | 53.912928 | 6.532420 | 2.0 | 16.751 | 2 | 42.466 | 17.007 | 32.876 | 2 |
| 2025-06-22T09:09:00 | 53.913247 | 6.537111 | 2.0 | 16.795 | 2 | 42.434 | 16.939 | 32.904 | 2 |
| 2025-06-22T09:10:00 | 53.913630 | 6.541769 | 2.0 | 16.743 | 2 | 42.468 | 16.956 | 32.920 | 2 |
| 2025-06-22T09:11:00 | 53.913945 | 6.546423 | 2.0 | 16.827 | 2 | 42.455 | 16.930 | 32.930 | 2 |
| 2025-06-22T09:12:00 | 53.914303 | 6.551092 | 2.0 | 16.820 | 2 | 42.483 | 16.994 | 32.902 | 2 |
| 2025-06-22T09:13:00 | 53.914702 | 6.555754 | 2.0 | 16.531 | 2 | 42.445 | 16.903 | 32.943 | 2 |
| 2025-06-22T09:14:00 | 53.914987 | 6.560401 | 2.0 | 16.527 | 2 | 42.278 | 16.718 | 32.950 | 2 |
| 2025-06-22T09:15:00 | 53.915397 | 6.565016 | 2.0 | 16.526 | 2 | 42.265 | 16.701 | 32.953 | 2 |
| 2025-06-22T09:16:00 | 53.915852 | 6.569624 | 2.0 | 16.522 | 2 | 42.266 | 16.701 | 32.954 | 2 |
| 2025-06-22T09:17:00 | 53.916255 | 6.574254 | 2.0 | 16.512 | 2 | 42.288 | 16.693 | 32.979 | 2 |
| 2025-06-22T09:18:00 | 53.916922 | 6.578810 | 2.0 | 16.518 | 2 | 42.287 | 16.690 | 32.981 | 2 |
| 2025-06-22T09:19:00 | 53.917599 | 6.583376 | 2.0 | 16.534 | 2 | 42.297 | 16.694 | 32.986 | 2 |
| 2025-06-22T09:20:00 | 53.918427 | 6.587862 | 2.0 | 16.522 | 2 | 42.326 | 16.703 | 33.004 | 2 |
| 2025-06-22T09:21:00 | 53.919414 | 6.592287 | 2.0 | 16.461 | 2 | 42.328 | 16.694 | 33.013 | 2 |
| 2025-06-22T09:22:00 | 53.920374 | 6.596720 | 2.0 | 16.463 | 2 | 42.312 | 16.639 | 33.045 | 2 |
| 2025-06-22T09:23:00 | 53.921318 | 6.601157 | 2.0 | 16.395 | 2 | 42.302 | 16.633 | 33.041 | 2 |
| 2025-06-22T09:24:00 | 53.922286 | 6.605558 | 2.0 | 16.399 | 2 | 42.265 | 16.571 | 33.060 | 2 |
| 2025-06-22T09:25:00 | 53.923351 | 6.609887 | 2.0 | 16.389 | 2 | 42.261 | 16.571 | 33.056 | 2 |
| 2025-06-22T09:26:00 | 53.924355 | 6.614255 | 2.0 | 16.376 | 2 | 42.253 | 16.566 | 33.054 | 2 |
| 2025-06-22T09:27:00 | 53.925945 | 6.618012 | 2.0 | 16.361 | 2 | 42.257 | 16.548 | 33.072 | 2 |
| 2025-06-22T09:28:00 | 53.928012 | 6.621223 | 2.0 | 16.382 | 2 | 42.250 | 16.539 | 33.073 | 2 |
| 2025-06-22T09:29:00 | 53.930000 | 6.624626 | 2.0 | 16.399 | 2 | 42.279 | 16.556 | 33.085 | 2 |
| 2025-06-22T09:30:00 | 53.932037 | 6.627977 | 2.0 | 16.404 | 2 | 42.312 | 16.570 | 33.102 | 2 |
| 2025-06-22T09:31:00 | 53.934077 | 6.631335 | 2.0 | 16.389 | 2 | 42.339 | 16.572 | 33.124 | 2 |
| 2025-06-22T09:32:00 | 53.936118 | 6.634675 | 2.0 | 16.401 | 2 | 42.348 | 16.565 | 33.137 | 2 |
| 2025-06-22T09:33:00 | 53.938155 | 6.638022 | 2.0 | 16.409 | 2 | 42.372 | 16.574 | 33.151 | 2 |
| 2025-06-22T09:34:00 | 53.940209 | 6.641345 | 2.0 | 16.353 | 2 | 42.386 | 16.572 | 33.165 | 2 |
| 2025-06-22T09:35:00 | 53.942232 | 6.644698 | 2.0 | 16.299 | 2 | 42.361 | 16.530 | 33.178 | 2 |
| 2025-06-22T09:36:00 | 53.944291 | 6.647995 | 2.0 | 16.335 | 2 | 42.325 | 16.483 | 33.185 | 2 |
| 2025-06-22T09:37:00 | 53.946312 | 6.651350 | 2.0 | 16.303 | 2 | 42.328 | 16.497 | 33.176 | 2 |
| 2025-06-22T09:38:00 | 53.948518 | 6.654383 | 2.0 | 16.329 | 2 | 42.310 | 16.478 | 33.176 | 2 |
| 2025-06-22T09:39:00 | 53.950740 | 6.657388 | 2.0 | 16.288 | 2 | 42.322 | 16.488 | 33.179 | 2 |
| 2025-06-22T09:40:00 | 53.952949 | 6.660421 | 2.0 | 16.327 | 2 | 42.308 | 16.484 | 33.170 | 2 |
| 2025-06-22T09:41:00 | 53.955131 | 6.663494 | 2.0 | 16.307 | 2 | 42.297 | 16.499 | 33.148 | 2 |
| 2025-06-22T09:42:00 | 53.957372 | 6.666436 | 2.0 | 16.262 | 2 | 42.256 | 16.476 | 33.131 | 2 |
| 2025-06-22T09:43:00 | 53.959593 | 6.669431 | 2.0 | 16.301 | 2 | 42.203 | 16.439 | 33.115 | 2 |
| 2025-06-22T09:44:00 | 53.961789 | 6.672501 | 2.0 | 16.347 | 2 | 42.223 | 16.483 | 33.096 | 2 |
| 2025-06-22T09:45:00 | 53.963987 | 6.675582 | 2.0 | 16.314 | 2 | 42.216 | 16.503 | 33.073 | 2 |
| 2025-06-22T09:46:00 | 53.966232 | 6.678619 | 2.0 | 16.283 | 2 | 42.173 | 16.485 | 33.051 | 2 |
| 2025-06-22T09:47:00 | 53.968483 | 6.681641 | 2.0 | 16.304 | 2 | 42.138 | 16.463 | 33.038 | 2 |
| 2025-06-22T09:48:00 | 53.970708 | 6.684735 | 2.0 | 16.331 | 2 | 42.140 | 16.478 | 33.028 | 2 |
| 2025-06-22T09:49:00 | 53.972949 | 6.687809 | 2.0 | 16.304 | 2 | 42.158 | 16.503 | 33.023 | 2 |
| 2025-06-22T09:50:00 | 53.975208 | 6.690873 | 2.0 | 16.267 | 2 | 42.117 | 16.467 | 33.016 | 2 |
| 2025-06-22T09:51:00 | 53.977419 | 6.694020 | 2.0 | 16.242 | 2 | 42.095 | 16.439 | 33.020 | 2 |
| 2025-06-22T09:52:00 | 53.979489 | 6.697351 | 2.0 | 16.215 | 2 | 42.086 | 16.408 | 33.038 | 2 |
| 2025-06-22T09:53:00 | 53.981317 | 6.701002 | 2.0 | 16.228 | 2 | 42.051 | 16.384 | 33.027 | 2 |
| 2025-06-22T09:54:00 | 53.983213 | 6.704533 | 2.0 | 16.237 | 2 | 42.026 | 16.403 | 32.990 | 2 |
| 2025-06-22T09:55:00 | 53.985090 | 6.708050 | 2.0 | 16.213 | 2 | 42.003 | 16.415 | 32.960 | 2 |
| 2025-06-22T09:56:00 | 53.986978 | 6.711538 | 2.0 | 16.199 | 2 | 41.946 | 16.378 | 32.940 | 2 |
| 2025-06-22T09:57:00 | 53.988815 | 6.715101 | 2.0 | 16.223 | 2 | 41.936 | 16.379 | 32.931 | 2 |
| 2025-06-22T09:58:00 | 53.990708 | 6.718628 | 2.0 | 16.223 | 2 | 41.918 | 16.393 | 32.903 | 2 |
| 2025-06-22T09:59:00 | 53.992574 | 6.722185 | 2.0 | 16.255 | 2 | 41.914 | 16.398 | 32.896 | 2 |
| 2025-06-22T10:00:00 | 53.994454 | 6.725726 | 2.0 | 16.267 | 2 | 41.981 | 16.432 | 32.926 | 2 |
| 2025-06-22T10:01:00 | 53.996318 | 6.729297 | 2.0 | 16.273 | 2 | 41.980 | 16.436 | 32.922 | 2 |
| 2025-06-22T10:02:00 | 53.998214 | 6.732826 | 2.0 | 16.324 | 2 | 42.005 | 16.450 | 32.932 | 2 |
| 2025-06-22T10:03:00 | 53.999765 | 6.736728 | 2.0 | 16.353 | 2 | 42.046 | 16.495 | 32.931 | 2 |
| 2025-06-22T10:04:00 | 54.000318 | 6.741233 | 2.0 | 16.326 | 2 | 42.054 | 16.512 | 32.924 | 2 |
| 2025-06-22T10:05:00 | 54.000939 | 6.745713 | 2.0 | 16.394 | 2 | 42.049 | 16.513 | 32.919 | 2 |
| 2025-06-22T10:06:00 | 54.001624 | 6.750191 | 2.0 | 16.451 | 2 | 42.092 | 16.566 | 32.913 | 2 |
| 2025-06-22T10:07:00 | 54.002244 | 6.754712 | 2.0 | 16.505 | 2 | 42.133 | 16.623 | 32.902 | 2 |
| 2025-06-22T10:08:00 | 54.002879 | 6.759231 | 2.0 | 16.572 | 2 | 42.169 | 16.682 | 32.885 | 2 |
| 2025-06-22T10:09:00 | 54.003579 | 6.763727 | 2.0 | 16.639 | 2 | 42.229 | 16.743 | 32.887 | 2 |
| 2025-06-22T10:10:00 | 54.004225 | 6.768242 | 2.0 | 16.687 | 2 | 42.298 | 16.807 | 32.894 | 2 |
| 2025-06-22T10:11:00 | 54.004971 | 6.772725 | 2.0 | 16.689 | 2 | 42.336 | 16.849 | 32.893 | 2 |
| 2025-06-22T10:12:00 | 54.005671 | 6.777235 | 2.0 | 16.663 | 2 | 42.341 | 16.857 | 32.891 | 2 |
| 2025-06-22T10:13:00 | 54.006391 | 6.781749 | 2.0 | 16.359 | 2 | 42.282 | 16.773 | 32.908 | 2 |
| 2025-06-22T10:14:00 | 54.007072 | 6.786268 | 2.0 | 16.304 | 2 | 42.090 | 16.550 | 32.924 | 2 |
| 2025-06-22T10:15:00 | 54.007801 | 6.790754 | 2.0 | 16.228 | 2 | 42.021 | 16.476 | 32.925 | 2 |
| 2025-06-22T10:16:00 | 54.008512 | 6.795249 | 2.0 | 16.174 | 2 | 41.965 | 16.395 | 32.943 | 2 |
| 2025-06-22T10:17:00 | 54.009239 | 6.799745 | 2.0 | 16.156 | 2 | 41.916 | 16.349 | 32.938 | 2 |
| 2025-06-22T10:18:00 | 54.009923 | 6.804251 | 2.0 | 16.161 | 2 | 41.896 | 16.331 | 32.935 | 2 |
| 2025-06-22T10:19:00 | 54.010629 | 6.808741 | 2.0 | 16.149 | 2 | 41.889 | 16.329 | 32.931 | 2 |
| 2025-06-22T10:20:00 | 54.011355 | 6.813219 | 2.0 | 16.203 | 2 | 41.882 | 16.335 | 32.920 | 2 |
| 2025-06-22T10:21:00 | 54.012090 | 6.817715 | 2.0 | 16.193 | 2 | 41.909 | 16.375 | 32.910 | 2 |
| 2025-06-22T10:22:00 | 54.012771 | 6.822257 | 2.0 | 16.063 | 2 | 41.891 | 16.353 | 32.913 | 2 |
| 2025-06-22T10:23:00 | 54.013533 | 6.826751 | 2.0 | 15.953 | 2 | 41.778 | 16.222 | 32.922 | 2 |
| 2025-06-22T10:24:00 | 54.014222 | 6.831256 | 2.0 | 15.924 | 2 | 41.682 | 16.132 | 32.912 | 2 |
| 2025-06-22T10:25:00 | 54.014919 | 6.835736 | 2.0 | 15.930 | 2 | 41.650 | 16.100 | 32.910 | 2 |
| 2025-06-22T10:26:00 | 54.015658 | 6.840178 | 2.0 | 15.884 | 2 | 41.642 | 16.092 | 32.909 | 2 |
| 2025-06-22T10:27:00 | 54.016361 | 6.844631 | 2.0 | 15.860 | 2 | 41.606 | 16.053 | 32.910 | 2 |
| 2025-06-22T10:28:00 | 54.017068 | 6.849078 | 2.0 | 15.881 | 2 | 41.587 | 16.034 | 32.909 | 2 |
| 2025-06-22T10:29:00 | 54.017754 | 6.853540 | 2.0 | 15.888 | 2 | 41.601 | 16.051 | 32.907 | 2 |
| 2025-06-22T10:30:00 | 54.018445 | 6.858010 | 2.0 | 15.902 | 2 | 41.611 | 16.062 | 32.907 | 2 |
| 2025-06-22T10:31:00 | 54.019147 | 6.862491 | 2.0 | 15.888 | 2 | 41.613 | 16.066 | 32.905 | 2 |
| 2025-06-22T10:32:00 | 54.019880 | 6.866955 | 2.0 | 15.876 | 2 | 41.605 | 16.054 | 32.908 | 2 |
| 2025-06-22T10:33:00 | 54.020558 | 6.871437 | 2.0 | 15.888 | 2 | 41.601 | 16.050 | 32.908 | 2 |
| 2025-06-22T10:34:00 | 54.021243 | 6.875913 | 2.0 | 15.898 | 2 | 41.612 | 16.062 | 32.908 | 2 |
| 2025-06-22T10:35:00 | 54.021969 | 6.880384 | 2.0 | 15.928 | 2 | 41.624 | 16.074 | 32.908 | 2 |
| 2025-06-22T10:36:00 | 54.022702 | 6.884854 | 2.0 | 15.970 | 2 | 41.652 | 16.103 | 32.909 | 2 |
| 2025-06-22T10:37:00 | 54.023396 | 6.889340 | 2.0 | 15.993 | 2 | 41.689 | 16.141 | 32.910 | 2 |
| 2025-06-22T10:38:00 | 54.024022 | 6.893608 | 2.0 | 16.010 | 2 | 41.710 | 16.166 | 32.908 | 2 |
| 2025-06-22T10:39:00 | 54.024538 | 6.897085 | 2.0 | 16.047 | 2 | 41.732 | 16.186 | 32.911 | 2 |
| 2025-06-22T10:40:00 | 54.024967 | 6.899820 | 2.0 | 16.054 | 2 | 41.760 | 16.214 | 32.912 | 2 |
| 2025-06-22T10:41:00 | 54.025323 | 6.901957 | 2.0 | 16.074 | 2 | 41.773 | 16.225 | 32.915 | 2 |
| 2025-06-22T10:42:00 | 54.025611 | 6.903721 | 2.0 | 16.093 | 2 | 41.795 | 16.244 | 32.918 | 2 |
| 2025-06-22T10:43:00 | 54.025439 | 6.904819 | 2.0 | 16.085 | 2 | 41.809 | 16.259 | 32.918 | 2 |
| 2025-06-22T10:44:00 | 54.025126 | 6.905403 | 2.0 | 16.065 | 2 | 41.782 | 16.241 | 32.909 | 2 |
| 2025-06-22T10:45:00 | 54.024930 | 6.905679 | 2.0 | 16.042 | 2 | 41.671 | 16.221 | 32.828 | 2 |
| 2025-06-22T10:46:00 | 54.024808 | 6.905744 | 2.0 | 16.079 | 2 | 41.570 | 16.209 | 32.749 | 2 |
| 2025-06-22T10:47:00 | 54.024720 | 6.905793 | 2.0 | 16.089 | 2 | 41.584 | 16.246 | 32.731 | 2 |
| 2025-06-22T10:48:00 | 54.024679 | 6.905851 | 2.0 | 16.082 | 2 | 41.703 | 16.255 | 32.828 | 2 |
| 2025-06-22T10:49:00 | 54.024701 | 6.905984 | 2.0 | 16.090 | 2 | 41.672 | 16.253 | 32.803 | 2 |
| 2025-06-22T10:50:00 | 54.024769 | 6.906156 | 2.0 | 16.084 | 2 | 41.580 | 16.258 | 32.718 | 2 |
| 2025-06-22T10:51:00 | 54.024839 | 6.906323 | 2.0 | 16.077 | 2 | 41.663 | 16.251 | 32.796 | 2 |
| 2025-06-22T10:52:00 | 54.024897 | 6.906440 | 2.0 | 16.074 | 2 | 41.596 | 16.245 | 32.743 | 2 |
| 2025-06-22T10:53:00 | 54.024938 | 6.906515 | 2.0 | 16.076 | 2 | 41.618 | 16.243 | 32.764 | 2 |
| 2025-06-22T10:54:00 | 54.024950 | 6.906554 | 2.0 | 16.069 | 2 | 41.644 | 16.243 | 32.786 | 2 |
| 2025-06-22T10:55:00 | 54.024839 | 6.906660 | 2.0 | 16.018 | 2 | 41.607 | 16.236 | 32.760 | 2 |
| 2025-06-22T10:56:00 | 54.024172 | 6.906982 | 2.0 | 15.939 | 2 | 41.550 | 16.165 | 32.768 | 2 |
| 2025-06-22T10:57:00 | 54.022979 | 6.907511 | 2.0 | 15.898 | 2 | 41.496 | 16.112 | 32.764 | 2 |
| 2025-06-22T10:58:00 | 54.021495 | 6.908156 | 2.0 | 15.791 | 2 | 41.445 | 16.052 | 32.769 | 2 |
| 2025-06-22T10:59:00 | 54.019891 | 6.909145 | 2.0 | 15.732 | 2 | 41.339 | 15.950 | 32.759 | 2 |
| 2025-06-22T11:00:00 | 54.017965 | 6.910537 | 2.0 | 15.751 | 2 | 41.277 | 15.903 | 32.743 | 2 |
| 2025-06-22T11:01:00 | 54.015699 | 6.912109 | 2.0 | 15.741 | 2 | 41.266 | 15.923 | 32.717 | 2 |
| 2025-06-22T11:02:00 | 54.013283 | 6.913818 | 2.0 | 15.858 | 2 | 41.288 | 15.932 | 32.729 | 2 |
| 2025-06-22T11:03:00 | 54.010781 | 6.915455 | 2.0 | 15.858 | 2 | 41.364 | 16.020 | 32.724 | 2 |
| 2025-06-22T11:04:00 | 54.008267 | 6.917159 | 2.0 | 15.822 | 2 | 41.352 | 16.018 | 32.715 | 2 |
| 2025-06-22T11:05:00 | 54.005745 | 6.918895 | 2.0 | 15.823 | 2 | 41.327 | 15.994 | 32.712 | 2 |
| 2025-06-22T11:06:00 | 54.003235 | 6.920658 | 2.0 | 15.945 | 2 | 41.363 | 16.019 | 32.723 | 2 |
| 2025-06-22T11:07:00 | 54.000721 | 6.922369 | 2.0 | 15.950 | 2 | 41.427 | 16.119 | 32.698 | 2 |
| 2025-06-22T11:08:00 | 53.998196 | 6.924051 | 2.0 | 15.921 | 2 | 41.407 | 16.113 | 32.685 | 2 |
| 2025-06-22T11:09:00 | 53.995699 | 6.925870 | 2.0 | 15.950 | 2 | 41.414 | 16.097 | 32.704 | 2 |
| 2025-06-22T11:10:00 | 53.993190 | 6.927652 | 2.0 | 15.888 | 2 | 41.359 | 16.112 | 32.643 | 2 |
| 2025-06-22T11:11:00 | 53.990686 | 6.929478 | 2.0 | 15.829 | 2 | 41.343 | 16.050 | 32.680 | 2 |
| 2025-06-22T11:12:00 | 53.988163 | 6.931257 | 2.0 | 15.881 | 2 | 41.296 | 16.015 | 32.668 | 2 |
| 2025-06-22T11:13:00 | 53.985657 | 6.933077 | 2.0 | 15.943 | 2 | 41.330 | 16.062 | 32.659 | 2 |
| 2025-06-22T11:14:00 | 53.983152 | 6.934875 | 2.0 | 15.974 | 2 | 41.369 | 16.105 | 32.658 | 2 |
| 2025-06-22T11:15:00 | 53.980632 | 6.936630 | 2.0 | 16.024 | 2 | 41.417 | 16.157 | 32.657 | 2 |
| 2025-06-22T11:16:00 | 53.978159 | 6.938562 | 2.0 | 16.007 | 2 | 41.437 | 16.184 | 32.653 | 2 |
| 2025-06-22T11:17:00 | 53.976252 | 6.941699 | 2.0 | 16.019 | 2 | 41.439 | 16.178 | 32.660 | 2 |
| 2025-06-22T11:18:00 | 53.974609 | 6.945309 | 2.0 | 16.045 | 2 | 41.435 | 16.189 | 32.647 | 2 |
| 2025-06-22T11:19:00 | 53.973867 | 6.949567 | 2.0 | 16.118 | 2 | 41.462 | 16.223 | 32.643 | 2 |
| 2025-06-22T11:20:00 | 53.973909 | 6.954050 | 2.0 | 16.129 | 2 | 41.520 | 16.288 | 32.641 | 2 |
| 2025-06-22T11:21:00 | 53.974416 | 6.958503 | 2.0 | 16.076 | 2 | 41.516 | 16.282 | 32.642 | 2 |
| 2025-06-22T11:22:00 | 53.974825 | 6.963008 | 2.0 | 16.130 | 2 | 41.489 | 16.256 | 32.640 | 2 |
| 2025-06-22T11:23:00 | 53.975255 | 6.967524 | 2.0 | 16.178 | 2 | 41.534 | 16.309 | 32.636 | 2 |
| 2025-06-22T11:24:00 | 53.975636 | 6.972055 | 2.0 | 16.185 | 2 | 41.567 | 16.342 | 32.638 | 2 |
| 2025-06-22T11:25:00 | 53.976056 | 6.976560 | 2.0 | 16.184 | 2 | 41.571 | 16.350 | 32.634 | 2 |
| 2025-06-22T11:26:00 | 53.976488 | 6.981062 | 2.0 | 16.222 | 2 | 41.575 | 16.357 | 32.632 | 2 |
| 2025-06-22T11:27:00 | 53.976887 | 6.985566 | 2.0 | 16.285 | 2 | 41.604 | 16.390 | 32.631 | 2 |
| 2025-06-22T11:28:00 | 53.977373 | 6.990034 | 2.0 | 16.302 | 2 | 41.654 | 16.448 | 32.627 | 2 |
| 2025-06-22T11:29:00 | 53.977770 | 6.994561 | 2.0 | 16.300 | 2 | 41.682 | 16.469 | 32.634 | 2 |
| 2025-06-22T11:30:00 | 53.978194 | 6.999083 | 2.0 | 16.279 | 2 | 41.692 | 16.465 | 32.646 | 2 |
| 2025-06-22T11:31:00 | 53.978615 | 7.003614 | 2.0 | 16.183 | 2 | 41.687 | 16.430 | 32.671 | 2 |
| 2025-06-22T11:32:00 | 53.979042 | 7.008107 | 2.0 | 16.030 | 2 | 41.614 | 16.325 | 32.693 | 2 |
| 2025-06-22T11:33:00 | 53.979446 | 7.012558 | 2.0 | 16.022 | 2 | 41.530 | 16.206 | 32.717 | 2 |
| 2025-06-22T11:34:00 | 53.979859 | 7.017003 | 2.0 | 15.958 | 2 | 41.517 | 16.181 | 32.726 | 2 |
| 2025-06-22T11:35:00 | 53.980293 | 7.021447 | 2.0 | 15.837 | 2 | 41.494 | 16.123 | 32.753 | 2 |
| 2025-06-22T11:36:00 | 53.980731 | 7.025879 | 2.0 | 15.714 | 2 | 41.395 | 15.975 | 32.788 | 2 |
| 2025-06-22T11:37:00 | 53.981430 | 7.030217 | 2.0 | 15.649 | 2 | 41.337 | 15.896 | 32.802 | 2 |
| 2025-06-22T11:38:00 | 53.982080 | 7.034627 | 2.0 | 15.506 | 2 | 41.276 | 15.801 | 32.827 | 2 |
| 2025-06-22T11:39:00 | 53.982760 | 7.039044 | 2.0 | 15.448 | 2 | 41.187 | 15.690 | 32.840 | 2 |
| 2025-06-22T11:40:00 | 53.983412 | 7.043475 | 2.0 | 15.437 | 2 | 41.122 | 15.616 | 32.844 | 2 |
| 2025-06-22T11:41:00 | 53.984064 | 7.047904 | 2.0 | 15.418 | 2 | 41.112 | 15.617 | 32.834 | 2 |
| 2025-06-22T11:42:00 | 53.984712 | 7.052321 | 2.0 | 15.363 | 2 | 41.080 | 15.586 | 32.831 | 2 |
| 2025-06-22T11:43:00 | 53.985379 | 7.056731 | 2.0 | 15.342 | 2 | 41.035 | 15.546 | 32.824 | 2 |
| 2025-06-22T11:44:00 | 53.986004 | 7.061153 | 2.0 | 15.391 | 2 | 40.995 | 15.506 | 32.822 | 2 |
| 2025-06-22T11:45:00 | 53.986678 | 7.065562 | 2.0 | 15.480 | 2 | 41.050 | 15.581 | 32.809 | 2 |
| 2025-06-22T11:46:00 | 53.987320 | 7.069985 | 2.0 | 15.473 | 2 | 41.110 | 15.644 | 32.810 | 2 |
| 2025-06-22T11:47:00 | 53.987983 | 7.074401 | 2.0 | 15.443 | 2 | 41.090 | 15.633 | 32.801 | 2 |
| 2025-06-22T11:48:00 | 53.988610 | 7.078813 | 2.0 | 15.405 | 2 | 41.057 | 15.613 | 32.788 | 2 |
| 2025-06-22T11:49:00 | 53.989290 | 7.083205 | 2.0 | 15.460 | 2 | 41.027 | 15.586 | 32.784 | 2 |
| 2025-06-22T11:50:00 | 53.989954 | 7.087605 | 2.0 | 15.501 | 2 | 41.052 | 15.630 | 32.770 | 2 |
| 2025-06-22T11:51:00 | 53.990567 | 7.092031 | 2.0 | 15.584 | 2 | 41.086 | 15.684 | 32.755 | 2 |
| 2025-06-22T11:52:00 | 53.991249 | 7.096435 | 2.0 | 15.605 | 2 | 41.144 | 15.747 | 32.754 | 2 |
| 2025-06-22T11:53:00 | 53.991897 | 7.100860 | 2.0 | 15.514 | 2 | 41.157 | 15.766 | 32.750 | 2 |
| 2025-06-22T11:54:00 | 53.992547 | 7.105282 | 2.0 | 15.497 | 2 | 41.065 | 15.681 | 32.739 | 2 |
| 2025-06-22T11:55:00 | 53.993197 | 7.109696 | 2.0 | 15.514 | 2 | 41.045 | 15.681 | 32.721 | 2 |
| 2025-06-22T11:56:00 | 53.993836 | 7.114121 | 2.0 | 15.581 | 2 | 41.040 | 15.685 | 32.713 | 2 |
| 2025-06-22T11:57:00 | 53.994969 | 7.118255 | 2.0 | 15.657 | 2 | 41.117 | 15.765 | 32.716 | 2 |
| 2025-06-22T11:58:00 | 53.996491 | 7.122097 | 2.0 | 15.559 | 2 | 41.174 | 15.812 | 32.727 | 2 |
| 2025-06-22T11:59:00 | 53.997911 | 7.126057 | 2.0 | 15.588 | 2 | 41.057 | 15.701 | 32.715 | 2 |
| 2025-06-22T12:00:00 | 53.999378 | 7.129982 | 2.0 | 15.613 | 2 | 41.109 | 15.773 | 32.702 | 2 |
| 2025-06-22T12:01:00 | 54.000799 | 7.133944 | 2.0 | 15.576 | 2 | 41.064 | 15.722 | 32.704 | 2 |
| 2025-06-22T12:02:00 | 54.002255 | 7.137887 | 2.0 | 15.652 | 2 | 41.091 | 15.769 | 32.689 | 2 |
| 2025-06-22T12:03:00 | 54.003831 | 7.141682 | 2.0 | 15.678 | 2 | 41.133 | 15.816 | 32.688 | 2 |
| 2025-06-22T12:04:00 | 54.005804 | 7.144924 | 2.0 | 15.724 | 2 | 41.151 | 15.849 | 32.676 | 2 |
| 2025-06-22T12:05:00 | 54.007944 | 7.147933 | 2.0 | 15.444 | 2 | 41.144 | 15.834 | 32.682 | 2 |
| 2025-06-22T12:06:00 | 54.010374 | 7.150157 | 2.0 | 15.541 | 2 | 40.989 | 15.682 | 32.670 | 2 |
| 2025-06-22T12:07:00 | 54.013181 | 7.150865 | 2.0 | 15.600 | 2 | 40.994 | 15.689 | 32.669 | 2 |
| 2025-06-22T12:08:00 | 54.016085 | 7.150750 | 2.0 | 15.716 | 2 | 41.096 | 15.796 | 32.671 | 2 |
| 2025-06-22T12:09:00 | 54.018997 | 7.150855 | 2.0 | 15.526 | 2 | 41.212 | 15.877 | 32.707 | 2 |
| 2025-06-22T12:10:00 | 54.021915 | 7.150949 | 2.0 | 15.488 | 2 | 41.078 | 15.702 | 32.733 | 2 |
| 2025-06-22T12:11:00 | 54.024843 | 7.151039 | 2.0 | 15.338 | 2 | 41.033 | 15.640 | 32.744 | 2 |
| 2025-06-22T12:12:00 | 54.027775 | 7.151135 | 2.0 | 15.446 | 2 | 40.943 | 15.545 | 32.743 | 2 |
| 2025-06-22T12:13:00 | 54.030718 | 7.151232 | 2.0 | 15.309 | 2 | 41.009 | 15.607 | 32.750 | 2 |
| 2025-06-22T12:14:00 | 54.033652 | 7.151351 | 2.0 | 15.109 | 2 | 40.908 | 15.473 | 32.772 | 2 |
| 2025-06-22T12:15:00 | 54.036583 | 7.151434 | 2.0 | 15.179 | 2 | 40.772 | 15.313 | 32.783 | 2 |
| 2025-06-22T12:16:00 | 54.039523 | 7.151531 | 2.0 | 15.377 | 2 | 40.855 | 15.393 | 32.791 | 2 |
| 2025-06-22T12:17:00 | 54.042465 | 7.151594 | 2.0 | 15.490 | 2 | 41.026 | 15.543 | 32.819 | 2 |
| 2025-06-22T12:18:00 | 54.045412 | 7.151429 | 2.0 | 15.574 | 2 | 41.176 | 15.695 | 32.826 | 2 |
| 2025-06-22T12:19:00 | 54.048362 | 7.151360 | 2.0 | 15.596 | 2 | 41.239 | 15.738 | 32.846 | 2 |
| 2025-06-22T12:20:00 | 54.051302 | 7.151280 | 2.0 | 15.551 | 2 | 41.314 | 15.774 | 32.883 | 2 |
| 2025-06-22T12:21:00 | 54.053956 | 7.151133 | 2.0 | 15.540 | 2 | 41.275 | 15.693 | 32.916 | 2 |
| 2025-06-22T12:22:00 | 54.056191 | 7.150988 | 2.0 | 15.714 | 2 | 41.314 | 15.737 | 32.914 | 2 |
| 2025-06-22T12:23:00 | 54.058066 | 7.150788 | 2.0 | 15.778 | 2 | 41.467 | 15.880 | 32.931 | 2 |
| 2025-06-22T12:24:00 | 54.059616 | 7.150115 | 2.0 | 15.689 | 2 | 41.538 | 15.927 | 32.954 | 2 |
| 2025-06-22T12:25:00 | 54.060809 | 7.149792 | 2.0 | 15.580 | 2 | 41.476 | 15.843 | 32.969 | 2 |
| 2025-06-22T12:26:00 | 54.061066 | 7.150189 | 2.0 | 15.238 | 2 | 41.302 | 15.655 | 32.972 | 2 |
| 2025-06-22T12:27:00 | 54.061056 | 7.150304 | 2.0 | 15.500 | 2 | 41.102 | 15.476 | 32.943 | 2 |
| 2025-06-22T12:28:00 | 54.061016 | 7.150327 | 2.0 | 15.522 | 2 | 41.283 | 15.667 | 32.945 | 2 |
| 2025-06-22T12:29:00 | 54.060968 | 7.150357 | 2.0 | 15.423 | 2 | 41.313 | 15.689 | 32.953 | 2 |
| 2025-06-22T12:30:00 | 54.060938 | 7.150368 | 2.0 | 15.364 | 2 | 41.184 | 15.556 | 32.949 | 2 |
| 2025-06-22T12:31:00 | 54.060882 | 7.150424 | 2.0 | 15.458 | 2 | 41.184 | 15.569 | 32.938 | 2 |
| 2025-06-22T12:32:00 | 54.060842 | 7.150463 | 2.0 | 15.519 | 2 | 41.237 | 15.626 | 32.938 | 2 |
| 2025-06-22T12:33:00 | 54.060826 | 7.150524 | 2.0 | 15.532 | 2 | 41.294 | 15.683 | 32.941 | 2 |
| 2025-06-22T12:34:00 | 54.060897 | 7.150993 | 2.0 | 15.603 | 2 | 41.318 | 15.706 | 32.943 | 2 |
| 2025-06-22T12:35:00 | 54.061062 | 7.152380 | 2.0 | 15.642 | 2 | 41.375 | 15.766 | 32.944 | 2 |
| 2025-06-22T12:36:00 | 54.061284 | 7.154450 | 2.0 | 15.608 | 2 | 41.411 | 15.808 | 32.941 | 2 |
| 2025-06-22T12:37:00 | 54.061631 | 7.157508 | 2.0 | 15.480 | 2 | 41.345 | 15.742 | 32.937 | 2 |
| 2025-06-22T12:38:00 | 54.062230 | 7.161382 | 2.0 | 15.358 | 2 | 41.183 | 15.591 | 32.919 | 2 |
| 2025-06-22T12:39:00 | 54.062873 | 7.165582 | 2.0 | 15.299 | 2 | 41.116 | 15.541 | 32.901 | 2 |
| 2025-06-22T12:40:00 | 54.063507 | 7.169874 | 2.0 | 15.196 | 2 | 41.046 | 15.468 | 32.899 | 2 |
| 2025-06-22T12:41:00 | 54.064193 | 7.174149 | 2.0 | 14.995 | 2 | 40.925 | 15.342 | 32.896 | 2 |
| 2025-06-22T12:42:00 | 54.064847 | 7.178434 | 2.0 | 15.032 | 2 | 40.768 | 15.183 | 32.889 | 2 |
| 2025-06-22T12:43:00 | 54.065486 | 7.182717 | 2.0 | 15.163 | 2 | 40.807 | 15.231 | 32.884 | 2 |
| 2025-06-22T12:44:00 | 54.066182 | 7.186965 | 2.0 | 15.206 | 2 | 40.896 | 15.323 | 32.886 | 2 |
| 2025-06-22T12:45:00 | 54.066834 | 7.191218 | 2.0 | 15.320 | 2 | 40.969 | 15.393 | 32.893 | 2 |
| 2025-06-22T12:46:00 | 54.067502 | 7.195457 | 2.0 | 15.365 | 2 | 41.066 | 15.487 | 32.901 | 2 |
| 2025-06-22T12:47:00 | 54.068144 | 7.199694 | 2.0 | 15.386 | 2 | 41.119 | 15.535 | 32.909 | 2 |
| 2025-06-22T12:48:00 | 54.068818 | 7.203903 | 2.0 | 15.344 | 2 | 41.126 | 15.533 | 32.917 | 2 |
| 2025-06-22T12:49:00 | 54.069470 | 7.208113 | 2.0 | 15.341 | 2 | 41.112 | 15.515 | 32.919 | 2 |
| 2025-06-22T12:50:00 | 54.070119 | 7.212320 | 2.0 | 15.385 | 2 | 41.112 | 15.514 | 32.920 | 2 |
| 2025-06-22T12:51:00 | 54.070782 | 7.216527 | 2.0 | 15.378 | 2 | 41.149 | 15.552 | 32.921 | 2 |
| 2025-06-22T12:52:00 | 54.071483 | 7.220721 | 2.0 | 15.455 | 2 | 41.142 | 15.553 | 32.914 | 2 |
| 2025-06-22T12:53:00 | 54.072166 | 7.224922 | 2.0 | 15.446 | 2 | 41.160 | 15.604 | 32.888 | 2 |
| 2025-06-22T12:54:00 | 54.072811 | 7.229135 | 2.0 | 15.524 | 2 | 41.129 | 15.637 | 32.832 | 2 |
| 2025-06-22T12:55:00 | 54.073492 | 7.233326 | 2.0 | 15.540 | 2 | 41.139 | 15.682 | 32.804 | 2 |
| 2025-06-22T12:56:00 | 54.074168 | 7.237527 | 2.0 | 15.607 | 2 | 41.190 | 15.717 | 32.820 | 2 |
| 2025-06-22T12:57:00 | 54.074819 | 7.241741 | 2.0 | 15.699 | 2 | 41.220 | 15.780 | 32.795 | 2 |
| 2025-06-22T12:58:00 | 54.075493 | 7.245961 | 2.0 | 15.773 | 2 | 41.294 | 15.875 | 32.781 | 2 |
| 2025-06-22T12:59:00 | 54.076137 | 7.250199 | 2.0 | 15.826 | 2 | 41.393 | 15.939 | 32.816 | 2 |
| 2025-06-22T13:00:00 | 54.076804 | 7.254438 | 2.0 | 15.897 | 2 | 41.443 | 16.005 | 32.806 | 2 |
| 2025-06-22T13:01:00 | 54.077488 | 7.258673 | 2.0 | 15.473 | 2 | 41.474 | 16.002 | 32.836 | 2 |
| 2025-06-22T13:02:00 | 54.078126 | 7.262924 | 2.0 | 15.407 | 2 | 41.168 | 15.620 | 32.881 | 2 |
| 2025-06-22T13:03:00 | 54.078787 | 7.267168 | 2.0 | 15.621 | 2 | 41.188 | 15.685 | 32.845 | 2 |
| 2025-06-22T13:04:00 | 54.079452 | 7.271405 | 2.0 | 15.394 | 2 | 41.231 | 15.703 | 32.868 | 2 |
| 2025-06-22T13:05:00 | 54.080108 | 7.275642 | 2.0 | 15.365 | 2 | 41.134 | 15.610 | 32.859 | 2 |
| 2025-06-22T13:06:00 | 54.080748 | 7.279895 | 2.0 | 15.678 | 2 | 41.031 | 15.490 | 32.868 | 2 |
| 2025-06-22T13:07:00 | 54.081409 | 7.284141 | 2.0 | 16.087 | 2 | 41.345 | 15.887 | 32.817 | 2 |
| 2025-06-22T13:08:00 | 54.082126 | 7.288368 | 2.0 | 16.215 | 2 | 41.666 | 16.211 | 32.832 | 2 |
| 2025-06-22T13:09:00 | 54.082800 | 7.292627 | 2.0 | 16.181 | 2 | 41.767 | 16.327 | 32.825 | 2 |
| 2025-06-22T13:10:00 | 54.083434 | 7.296890 | 2.0 | 16.116 | 2 | 41.791 | 16.351 | 32.827 | 2 |
| 2025-06-22T13:11:00 | 54.084015 | 7.301154 | 2.0 | 15.647 | 2 | 41.614 | 16.166 | 32.823 | 2 |
| 2025-06-22T13:12:00 | 54.084649 | 7.305378 | 2.0 | 15.591 | 2 | 41.313 | 15.857 | 32.813 | 2 |
| 2025-06-22T13:13:00 | 54.085256 | 7.309604 | 2.0 | 15.693 | 2 | 41.246 | 15.820 | 32.784 | 2 |
| 2025-06-22T13:14:00 | 54.085887 | 7.313820 | 2.0 | 15.873 | 2 | 41.330 | 15.937 | 32.762 | 2 |
| 2025-06-22T13:15:00 | 54.086459 | 7.318059 | 2.0 | 15.983 | 2 | 41.482 | 16.104 | 32.758 | 2 |
| 2025-06-22T13:16:00 | 54.086911 | 7.322351 | 2.0 | 15.954 | 2 | 41.516 | 16.142 | 32.757 | 2 |
| 2025-06-22T13:17:00 | 54.087384 | 7.326613 | 2.0 | 15.806 | 2 | 41.499 | 16.122 | 32.758 | 2 |
| 2025-06-22T13:18:00 | 54.087814 | 7.330561 | 2.0 | 15.895 | 2 | 41.411 | 16.007 | 32.776 | 2 |
| 2025-06-22T13:19:00 | 54.088231 | 7.334127 | 2.0 | 16.137 | 2 | 41.477 | 16.113 | 32.747 | 2 |
| 2025-06-22T13:20:00 | 54.088524 | 7.337044 | 2.0 | 16.071 | 2 | 41.631 | 16.305 | 32.724 | 2 |
| 2025-06-22T13:21:00 | 54.088756 | 7.339334 | 2.0 | 16.171 | 2 | 41.597 | 16.245 | 32.743 | 2 |
| 2025-06-22T13:22:00 | 54.088916 | 7.341094 | 2.0 | 16.507 | 2 | 41.553 | 16.371 | 32.602 | 2 |
| 2025-06-22T13:23:00 | 54.089343 | 7.342253 | 2.0 | 16.481 | 2 | 41.731 | 16.676 | 32.508 | 2 |
| 2025-06-22T13:24:00 | 54.089373 | 7.343112 | 2.0 | 15.959 | 2 | 41.667 | 16.469 | 32.621 | 2 |
| 2025-06-22T13:25:00 | 54.089221 | 7.343842 | 2.0 | 15.967 | 2 | 41.387 | 16.168 | 32.622 | 2 |
| 2025-06-22T13:26:00 | 54.089114 | 7.344462 | 2.0 | 15.957 | 2 | 41.413 | 16.155 | 32.656 | 2 |
| 2025-06-22T13:27:00 | 54.089064 | 7.344759 | 2.0 | 16.055 | 2 | 41.385 | 16.126 | 32.655 | 2 |
| 2025-06-22T13:28:00 | 54.089051 | 7.344888 | 2.0 | 16.450 | 2 | 41.518 | 16.298 | 32.631 | 2 |
| 2025-06-22T13:29:00 | 54.089062 | 7.344927 | 2.0 | 16.610 | 2 | 41.759 | 16.627 | 32.573 | 2 |
| 2025-06-22T13:30:00 | 54.089093 | 7.344914 | 2.0 | 16.646 | 2 | 41.900 | 16.762 | 32.586 | 2 |
| 2025-06-22T13:31:00 | 54.089142 | 7.344940 | 2.0 | 16.694 | 2 | 41.936 | 16.819 | 32.571 | 2 |
| 2025-06-22T13:32:00 | 54.089208 | 7.344934 | 2.0 | 16.702 | 2 | 41.979 | 16.849 | 32.583 | 2 |
| 2025-06-22T13:33:00 | 54.089263 | 7.344919 | 2.0 | 16.686 | 2 | 42.002 | 16.863 | 32.592 | 2 |
| 2025-06-22T13:34:00 | 54.089299 | 7.345229 | 2.0 | 16.310 | 2 | 41.975 | 16.827 | 32.598 | 2 |
| 2025-06-22T13:35:00 | 54.089190 | 7.347009 | 2.0 | 16.603 | 2 | 41.725 | 16.462 | 32.678 | 2 |
| 2025-06-22T13:36:00 | 54.088955 | 7.350441 | 2.0 | 16.610 | 2 | 41.910 | 16.758 | 32.597 | 2 |
| 2025-06-22T13:37:00 | 54.088756 | 7.354675 | 2.0 | 16.762 | 2 | 41.965 | 16.795 | 32.615 | 2 |
| 2025-06-22T13:38:00 | 54.088618 | 7.359144 | 2.0 | 16.475 | 2 | 42.053 | 16.855 | 32.643 | 2 |
| 2025-06-22T13:39:00 | 54.088419 | 7.363686 | 2.0 | 16.696 | 2 | 41.942 | 16.718 | 32.658 | 2 |
| 2025-06-22T13:40:00 | 54.088251 | 7.368277 | 2.0 | 16.699 | 2 | 42.067 | 16.841 | 32.666 | 2 |
| 2025-06-22T13:41:00 | 54.088043 | 7.372872 | 2.0 | 16.889 | 2 | 42.136 | 16.888 | 32.688 | 2 |
| 2025-06-22T13:42:00 | 54.087875 | 7.377478 | 2.0 | 16.988 | 2 | 42.304 | 17.060 | 32.693 | 2 |
| 2025-06-22T13:43:00 | 54.087702 | 7.382094 | 2.0 | 17.025 | 2 | 42.447 | 17.146 | 32.747 | 2 |
| 2025-06-22T13:44:00 | 54.087498 | 7.386711 | 2.0 | 16.895 | 2 | 42.528 | 17.164 | 32.802 | 2 |
| 2025-06-22T13:45:00 | 54.087316 | 7.391340 | 2.0 | 16.755 | 2 | 42.431 | 17.052 | 32.810 | 2 |
| 2025-06-22T13:46:00 | 54.087121 | 7.395981 | 2.0 | 16.776 | 2 | 42.296 | 16.926 | 32.795 | 2 |
| 2025-06-22T13:47:00 | 54.086968 | 7.400623 | 2.0 | 16.785 | 2 | 42.308 | 16.945 | 32.790 | 2 |
| 2025-06-22T13:48:00 | 54.086797 | 7.405259 | 2.0 | 16.759 | 2 | 42.315 | 16.947 | 32.795 | 2 |
| 2025-06-22T13:49:00 | 54.086583 | 7.409879 | 2.0 | 16.698 | 2 | 42.279 | 16.921 | 32.785 | 2 |
| 2025-06-22T13:50:00 | 54.086406 | 7.414503 | 2.0 | 16.746 | 2 | 42.231 | 16.859 | 32.794 | 2 |
| 2025-06-22T13:51:00 | 54.086267 | 7.419121 | 2.0 | 16.780 | 2 | 42.278 | 16.918 | 32.786 | 2 |
| 2025-06-22T13:52:00 | 54.086065 | 7.423704 | 2.0 | 16.797 | 2 | 42.305 | 16.946 | 32.787 | 2 |
| 2025-06-22T13:53:00 | 54.085882 | 7.428286 | 2.0 | 16.724 | 2 | 42.328 | 16.947 | 32.806 | 2 |
| 2025-06-22T13:54:00 | 54.085720 | 7.432888 | 2.0 | 16.731 | 2 | 42.325 | 16.888 | 32.852 | 2 |
| 2025-06-22T13:55:00 | 54.085555 | 7.437500 | 2.0 | 16.740 | 2 | 42.366 | 16.892 | 32.884 | 2 |
| 2025-06-22T13:56:00 | 54.085365 | 7.442096 | 2.0 | 16.704 | 2 | 42.422 | 16.898 | 32.928 | 2 |
| 2025-06-22T13:57:00 | 54.085162 | 7.446683 | 2.0 | 16.188 | 2 | 42.419 | 16.866 | 32.951 | 2 |
| 2025-06-22T13:58:00 | 54.085015 | 7.451254 | 2.0 | 15.516 | 2 | 41.811 | 16.216 | 32.956 | 2 |
| 2025-06-22T13:59:00 | 54.084817 | 7.455830 | 2.0 | 14.952 | 2 | 41.219 | 15.688 | 32.870 | 2 |
| 2025-06-22T14:00:00 | 54.084617 | 7.460408 | 2.0 | 15.159 | 2 | 40.730 | 15.205 | 32.836 | 2 |
| 2025-06-22T14:01:00 | 54.084419 | 7.464991 | 2.0 | 15.451 | 2 | 40.862 | 15.409 | 32.784 | 2 |
| 2025-06-22T14:02:00 | 54.084209 | 7.469588 | 2.0 | 15.534 | 2 | 41.076 | 15.623 | 32.797 | 2 |
| 2025-06-22T14:03:00 | 54.083964 | 7.474193 | 2.0 | 15.596 | 2 | 41.178 | 15.733 | 32.796 | 2 |
| 2025-06-22T14:04:00 | 54.083000 | 7.478490 | 2.0 | 15.706 | 2 | 41.218 | 15.770 | 32.801 | 2 |
| 2025-06-22T14:05:00 | 54.082098 | 7.482852 | 2.0 | 15.714 | 2 | 41.296 | 15.856 | 32.799 | 2 |
| 2025-06-22T14:06:00 | 54.081153 | 7.487216 | 2.0 | 15.779 | 2 | 41.322 | 15.886 | 32.797 | 2 |
| 2025-06-22T14:07:00 | 54.080248 | 7.491642 | 2.0 | 15.775 | 2 | 41.368 | 15.944 | 32.790 | 2 |
| 2025-06-22T14:08:00 | 54.079274 | 7.496042 | 2.0 | 15.884 | 2 | 41.356 | 15.949 | 32.775 | 2 |
| 2025-06-22T14:09:00 | 54.078342 | 7.500482 | 2.0 | 15.913 | 2 | 41.431 | 16.042 | 32.765 | 2 |
| 2025-06-22T14:10:00 | 54.077377 | 7.504907 | 2.0 | 16.024 | 2 | 41.466 | 16.102 | 32.746 | 2 |
| 2025-06-22T14:11:00 | 54.075776 | 7.508633 | 2.0 | 16.106 | 2 | 41.515 | 16.184 | 32.722 | 2 |
| 2025-06-22T14:12:00 | 54.073357 | 7.510843 | 2.0 | 16.271 | 2 | 41.597 | 16.293 | 32.704 | 2 |
| 2025-06-22T14:13:00 | 54.070918 | 7.513107 | 2.0 | 16.264 | 2 | 41.700 | 16.414 | 32.695 | 2 |
| 2025-06-22T14:14:00 | 54.068477 | 7.515411 | 2.0 | 16.288 | 2 | 41.702 | 16.430 | 32.684 | 2 |
| 2025-06-22T14:15:00 | 54.066033 | 7.517713 | 2.0 | 16.254 | 2 | 41.702 | 16.446 | 32.671 | 2 |
| 2025-06-22T14:16:00 | 54.063579 | 7.519987 | 2.0 | 16.302 | 2 | 41.690 | 16.444 | 32.662 | 2 |
| 2025-06-22T14:17:00 | 54.061140 | 7.522311 | 2.0 | 16.271 | 2 | 41.675 | 16.434 | 32.657 | 2 |
| 2025-06-22T14:18:00 | 54.058697 | 7.524641 | 2.0 | 16.444 | 2 | 41.682 | 16.456 | 32.645 | 2 |
| 2025-06-22T14:19:00 | 54.056235 | 7.526934 | 2.0 | 16.438 | 2 | 41.781 | 16.576 | 32.633 | 2 |
| 2025-06-22T14:20:00 | 54.053783 | 7.529293 | 2.0 | 16.464 | 2 | 41.799 | 16.596 | 32.633 | 2 |
| 2025-06-22T14:21:00 | 54.051310 | 7.531612 | 2.0 | 16.572 | 2 | 41.816 | 16.630 | 32.620 | 2 |
| 2025-06-22T14:22:00 | 54.048830 | 7.533901 | 2.0 | 16.697 | 2 | 41.908 | 16.753 | 32.600 | 2 |
| 2025-06-22T14:23:00 | 54.046362 | 7.536249 | 2.0 | 16.702 | 2 | 41.995 | 16.872 | 32.579 | 2 |
| 2025-06-22T14:24:00 | 54.043875 | 7.538555 | 2.0 | 16.625 | 2 | 41.975 | 16.844 | 32.584 | 2 |
| 2025-06-22T14:25:00 | 54.041402 | 7.540916 | 2.0 | 16.513 | 2 | 41.894 | 16.753 | 32.588 | 2 |
| 2025-06-22T14:26:00 | 54.038912 | 7.543250 | 2.0 | 16.526 | 2 | 41.861 | 16.735 | 32.574 | 2 |
| 2025-06-22T14:27:00 | 54.036414 | 7.545588 | 2.0 | 16.513 | 2 | 41.831 | 16.687 | 32.587 | 2 |
| 2025-06-22T14:28:00 | 54.033910 | 7.547910 | 2.0 | 16.392 | 2 | 41.810 | 16.657 | 32.593 | 2 |
| 2025-06-22T14:29:00 | 54.031423 | 7.550278 | 2.0 | 16.466 | 2 | 41.748 | 16.584 | 32.598 | 2 |
| 2025-06-22T14:30:00 | 54.028923 | 7.552624 | 2.0 | 16.511 | 2 | 41.784 | 16.641 | 32.583 | 2 |
| 2025-06-22T14:31:00 | 54.026573 | 7.555284 | 2.0 | 16.577 | 2 | 41.818 | 16.687 | 32.575 | 2 |
| 2025-06-22T14:32:00 | 54.024633 | 7.558780 | 2.0 | 16.517 | 2 | 41.860 | 16.733 | 32.574 | 2 |
| 2025-06-22T14:33:00 | 54.022599 | 7.562157 | 2.0 | 16.606 | 2 | 41.824 | 16.695 | 32.574 | 2 |
| 2025-06-22T14:34:00 | 54.020605 | 7.565596 | 2.0 | 16.652 | 2 | 41.884 | 16.779 | 32.558 | 2 |
| 2025-06-22T14:35:00 | 54.018533 | 7.568905 | 2.0 | 16.663 | 2 | 41.919 | 16.815 | 32.559 | 2 |
| 2025-06-22T14:36:00 | 54.016311 | 7.571952 | 2.0 | 16.859 | 2 | 41.942 | 16.842 | 32.557 | 2 |
| 2025-06-22T14:37:00 | 54.013819 | 7.574363 | 2.0 | 16.838 | 2 | 42.099 | 17.011 | 32.556 | 2 |
| 2025-06-22T14:38:00 | 54.011340 | 7.576886 | 2.0 | 16.825 | 2 | 42.082 | 16.977 | 32.569 | 2 |
| 2025-06-22T14:39:00 | 54.008812 | 7.579312 | 2.0 | 16.863 | 2 | 42.086 | 16.989 | 32.563 | 2 |
| 2025-06-22T14:40:00 | 54.006306 | 7.581835 | 2.0 | 16.745 | 2 | 42.074 | 16.958 | 32.577 | 2 |
| 2025-06-22T14:41:00 | 54.003774 | 7.584299 | 2.0 | 16.486 | 2 | 42.022 | 16.860 | 32.612 | 2 |
| 2025-06-22T14:42:00 | 54.001273 | 7.586817 | 2.0 | 15.498 | 2 | 41.780 | 16.566 | 32.641 | 2 |
| 2025-06-22T14:43:00 | 53.998774 | 7.589293 | 2.0 | 15.316 | 2 | 41.043 | 15.753 | 32.660 | 2 |
| 2025-06-22T14:44:00 | 53.996264 | 7.591748 | 2.0 | 15.316 | 2 | 40.777 | 15.531 | 32.607 | 2 |
| 2025-06-22T14:45:00 | 53.993753 | 7.594187 | 2.0 | 15.355 | 2 | 40.751 | 15.524 | 32.589 | 2 |
| 2025-06-22T14:46:00 | 53.991248 | 7.596639 | 2.0 | 15.602 | 2 | 40.790 | 15.586 | 32.573 | 2 |
| 2025-06-22T14:47:00 | 53.988739 | 7.599074 | 2.0 | 15.802 | 2 | 40.974 | 15.801 | 32.559 | 2 |
| 2025-06-22T14:48:00 | 53.986241 | 7.601536 | 2.0 | 15.808 | 2 | 41.116 | 15.970 | 32.546 | 2 |
| 2025-06-22T14:49:00 | 53.983739 | 7.604000 | 2.0 | 15.848 | 2 | 41.058 | 15.906 | 32.547 | 2 |
| 2025-06-22T14:50:00 | 53.981238 | 7.606469 | 2.0 | 15.873 | 2 | 41.085 | 15.975 | 32.514 | 2 |
| 2025-06-22T14:51:00 | 53.978727 | 7.608905 | 2.0 | 15.645 | 2 | 41.110 | 16.014 | 32.504 | 2 |
| 2025-06-22T14:52:00 | 53.976230 | 7.611379 | 2.0 | 15.533 | 2 | 40.955 | 15.827 | 32.521 | 2 |
| 2025-06-22T14:53:00 | 53.973719 | 7.613826 | 2.0 | 15.524 | 2 | 40.828 | 15.696 | 32.516 | 2 |
| 2025-06-22T14:54:00 | 53.971195 | 7.616264 | 2.0 | 15.454 | 2 | 40.798 | 15.679 | 32.503 | 2 |
| 2025-06-22T14:55:00 | 53.968676 | 7.618741 | 2.0 | 15.492 | 2 | 40.750 | 15.638 | 32.494 | 2 |
| 2025-06-22T14:56:00 | 53.966154 | 7.621185 | 2.0 | 15.569 | 2 | 40.763 | 15.669 | 32.480 | 2 |
| 2025-06-22T14:57:00 | 53.963655 | 7.623638 | 2.0 | 15.778 | 2 | 40.847 | 15.793 | 32.453 | 2 |
| 2025-06-22T14:58:00 | 53.961158 | 7.626137 | 2.0 | 15.865 | 2 | 40.944 | 15.917 | 32.437 | 2 |
| 2025-06-22T14:59:00 | 53.958642 | 7.628576 | 2.0 | 16.044 | 2 | 41.040 | 16.052 | 32.411 | 2 |
| 2025-06-22T15:00:00 | 53.956143 | 7.631074 | 2.0 | 16.375 | 2 | 41.201 | 16.273 | 32.373 | 2 |
| 2025-06-22T15:01:00 | 53.953641 | 7.633556 | 2.0 | 16.597 | 2 | 41.415 | 16.544 | 32.340 | 2 |
| 2025-06-22T15:02:00 | 53.951131 | 7.635988 | 2.0 | 16.747 | 2 | 41.571 | 16.751 | 32.309 | 2 |
| 2025-06-22T15:03:00 | 53.948640 | 7.638459 | 2.0 | 16.804 | 2 | 41.671 | 16.897 | 32.278 | 2 |
| 2025-06-22T15:04:00 | 53.946165 | 7.640939 | 2.0 | 17.062 | 2 | 41.742 | 17.027 | 32.235 | 2 |
| 2025-06-22T15:05:00 | 53.943668 | 7.643292 | 2.0 | 17.108 | 2 | 41.854 | 17.207 | 32.188 | 2 |
| 2025-06-22T15:06:00 | 53.941207 | 7.645791 | 2.0 | 17.110 | 2 | 41.881 | 17.258 | 32.170 | 2 |
| 2025-06-22T15:07:00 | 53.938720 | 7.648246 | 2.0 | 17.076 | 2 | 41.872 | 17.251 | 32.168 | 2 |
| 2025-06-22T15:08:00 | 53.936225 | 7.650704 | 2.0 | 17.067 | 2 | 41.840 | 17.234 | 32.154 | 2 |
| 2025-06-22T15:09:00 | 53.933732 | 7.653196 | 2.0 | 16.978 | 2 | 41.804 | 17.214 | 32.139 | 2 |
| 2025-06-22T15:10:00 | 53.931220 | 7.655653 | 2.0 | 16.907 | 2 | 41.712 | 17.133 | 32.125 | 2 |
| 2025-06-22T15:11:00 | 53.928714 | 7.658157 | 2.0 | 16.782 | 2 | 41.617 | 17.041 | 32.116 | 2 |
| 2025-06-22T15:12:00 | 53.926195 | 7.660606 | 2.0 | 16.709 | 2 | 41.516 | 16.954 | 32.099 | 2 |
| 2025-06-22T15:13:00 | 53.923685 | 7.663071 | 2.0 | 16.567 | 2 | 41.412 | 16.856 | 32.087 | 2 |
| 2025-06-22T15:14:00 | 53.921170 | 7.665503 | 2.0 | 16.504 | 2 | 41.274 | 16.736 | 32.063 | 2 |
| 2025-06-22T15:15:00 | 53.918662 | 7.667992 | 2.0 | 16.429 | 2 | 41.197 | 16.711 | 32.017 | 2 |
| 2025-06-22T15:16:00 | 53.916136 | 7.670446 | 2.0 | 16.465 | 2 | 41.085 | 16.625 | 31.988 | 2 |
| 2025-06-22T15:17:00 | 53.913613 | 7.672905 | 2.0 | 16.551 | 2 | 41.095 | 16.648 | 31.978 | 2 |
| 2025-06-22T15:18:00 | 53.911098 | 7.675414 | 2.0 | 16.607 | 2 | 41.136 | 16.721 | 31.956 | 2 |
| 2025-06-22T15:19:00 | 53.908560 | 7.677858 | 2.0 | 16.665 | 2 | 41.177 | 16.777 | 31.947 | 2 |
| 2025-06-22T15:20:00 | 53.906045 | 7.680381 | 2.0 | 16.721 | 2 | 41.213 | 16.833 | 31.933 | 2 |
| 2025-06-22T15:21:00 | 53.903508 | 7.682866 | 2.0 | 16.783 | 2 | 41.247 | 16.890 | 31.917 | 2 |
| 2025-06-22T15:22:00 | 53.901035 | 7.685507 | 2.0 | 16.835 | 2 | 41.284 | 16.951 | 31.901 | 2 |
| 2025-06-22T15:23:00 | 53.899377 | 7.689625 | 2.0 | 16.893 | 2 | 41.319 | 17.002 | 31.891 | 2 |
| 2025-06-22T15:24:00 | 53.897657 | 7.693815 | 2.0 | 16.935 | 2 | 41.365 | 17.058 | 31.886 | 2 |
| 2025-06-22T15:25:00 | 53.895973 | 7.698125 | 2.0 | 17.006 | 2 | 41.400 | 17.106 | 31.878 | 2 |
| 2025-06-22T15:26:00 | 53.894217 | 7.702403 | 2.0 | 17.103 | 2 | 41.454 | 17.177 | 31.868 | 2 |
| 2025-06-22T15:27:00 | 53.892496 | 7.706768 | 2.0 | 17.159 | 2 | 41.525 | 17.261 | 31.863 | 2 |
| 2025-06-22T15:28:00 | 53.890768 | 7.711138 | 2.0 | 17.146 | 2 | 41.592 | 17.316 | 31.877 | 2 |
| 2025-06-22T15:29:00 | 53.889008 | 7.715476 | 2.0 | 17.186 | 2 | 41.599 | 17.310 | 31.888 | 2 |
| 2025-06-22T15:30:00 | 53.887288 | 7.719870 | 2.0 | 17.272 | 2 | 41.664 | 17.354 | 31.909 | 2 |
| 2025-06-22T15:31:00 | 53.885548 | 7.724245 | 2.0 | 17.362 | 2 | 41.769 | 17.469 | 31.908 | 2 |
| 2025-06-25T06:48:00 | 53.827908 | 7.906806 | 2.0 | 17.287 | 2 | 41.450 | 17.458 | 31.645 | 2 |
| 2025-06-25T06:49:00 | 53.828787 | 7.903847 | 2.0 | 17.230 | 2 | 41.584 | 17.518 | 31.712 | 2 |
| 2025-06-25T06:50:00 | 53.829679 | 7.900922 | 2.0 | 17.219 | 2 | 41.507 | 17.402 | 31.737 | 2 |
| 2025-06-25T06:51:00 | 53.830587 | 7.897995 | 2.0 | 17.205 | 2 | 41.487 | 17.384 | 31.734 | 2 |
| 2025-06-25T06:52:00 | 53.831448 | 7.895145 | 2.0 | 17.193 | 2 | 41.480 | 17.369 | 31.740 | 2 |
| 2025-06-25T06:53:00 | 53.832314 | 7.892201 | 2.0 | 17.179 | 2 | 41.477 | 17.358 | 31.746 | 2 |
| 2025-06-25T06:54:00 | 53.833214 | 7.889238 | 2.0 | 17.158 | 2 | 41.468 | 17.343 | 31.750 | 2 |
| 2025-06-25T06:55:00 | 53.834251 | 7.886339 | 2.0 | 17.127 | 2 | 41.455 | 17.322 | 31.755 | 2 |
| 2025-06-25T06:56:00 | 53.836138 | 7.884657 | 2.0 | 17.100 | 2 | 41.437 | 17.290 | 31.765 | 2 |
| 2025-06-25T06:57:00 | 53.838263 | 7.883895 | 2.0 | 17.116 | 2 | 41.442 | 17.274 | 31.782 | 2 |
| 2025-06-25T06:58:00 | 53.840018 | 7.882716 | 2.0 | 17.088 | 2 | 41.446 | 17.275 | 31.784 | 2 |
| 2025-06-25T06:59:00 | 53.842154 | 7.881459 | 2.0 | 17.095 | 2 | 41.430 | 17.252 | 31.789 | 2 |
| 2025-06-25T07:00:00 | 53.844535 | 7.880481 | 2.0 | 17.066 | 2 | 41.440 | 17.268 | 31.785 | 2 |
| 2025-06-25T07:01:00 | 53.846849 | 7.879164 | 2.0 | 17.013 | 2 | 41.430 | 17.221 | 31.813 | 2 |
| 2025-06-25T07:02:00 | 53.849217 | 7.877906 | 2.0 | 17.012 | 2 | 41.412 | 17.184 | 31.827 | 2 |
| 2025-06-25T07:03:00 | 53.851710 | 7.876895 | 2.0 | 16.984 | 2 | 41.410 | 17.184 | 31.825 | 2 |
| 2025-06-25T07:04:00 | 53.854206 | 7.875836 | 2.0 | 16.905 | 2 | 41.391 | 17.143 | 31.841 | 2 |
| 2025-06-25T07:05:00 | 53.856796 | 7.875155 | 2.0 | 16.817 | 2 | 41.356 | 17.063 | 31.874 | 2 |
| 2025-06-25T07:06:00 | 53.859440 | 7.875102 | 2.0 | 16.785 | 2 | 41.318 | 16.982 | 31.906 | 2 |
| 2025-06-25T07:07:00 | 53.861950 | 7.874893 | 2.0 | 16.762 | 2 | 41.306 | 16.954 | 31.918 | 2 |
| 2025-06-25T07:08:00 | 53.864420 | 7.874708 | 2.0 | 16.723 | 2 | 41.295 | 16.927 | 31.929 | 2 |
| 2025-06-25T07:09:00 | 53.866908 | 7.874622 | 2.0 | 16.686 | 2 | 41.278 | 16.887 | 31.947 | 2 |
| 2025-06-25T07:10:00 | 53.869371 | 7.874464 | 2.0 | 16.646 | 2 | 41.260 | 16.852 | 31.959 | 2 |
| 2025-06-25T07:11:00 | 53.871785 | 7.874327 | 2.0 | 16.611 | 2 | 41.242 | 16.813 | 31.974 | 2 |
| 2025-06-25T07:12:00 | 53.874242 | 7.874306 | 2.0 | 16.578 | 2 | 41.223 | 16.776 | 31.987 | 2 |
| 2025-06-25T07:13:00 | 53.876743 | 7.874316 | 2.0 | 16.541 | 2 | 41.208 | 16.743 | 32.001 | 2 |
| 2025-06-25T07:14:00 | 53.879226 | 7.874315 | 2.0 | 16.516 | 2 | 41.194 | 16.710 | 32.015 | 2 |
| 2025-06-25T07:15:00 | 53.881690 | 7.874275 | 2.0 | 16.496 | 2 | 41.182 | 16.685 | 32.024 | 2 |
| 2025-06-25T07:16:00 | 53.884053 | 7.874345 | 2.0 | 16.466 | 2 | 41.173 | 16.662 | 32.035 | 2 |
| 2025-06-25T07:17:00 | 53.886438 | 7.874288 | 2.0 | 16.441 | 2 | 41.163 | 16.633 | 32.049 | 2 |
| 2025-06-25T07:18:00 | 53.888874 | 7.874235 | 2.0 | 16.414 | 2 | 41.154 | 16.609 | 32.061 | 2 |
| 2025-06-25T07:19:00 | 53.891365 | 7.874257 | 2.0 | 16.389 | 2 | 41.147 | 16.581 | 32.077 | 2 |
| 2025-06-25T07:20:00 | 53.893893 | 7.874250 | 2.0 | 16.362 | 2 | 41.141 | 16.557 | 32.091 | 2 |
| 2025-06-25T07:21:00 | 53.896431 | 7.874301 | 2.0 | 16.342 | 2 | 41.137 | 16.530 | 32.109 | 2 |
| 2025-06-25T07:22:00 | 53.898932 | 7.874283 | 2.0 | 16.323 | 2 | 41.135 | 16.510 | 32.124 | 2 |
| 2025-06-25T07:23:00 | 53.901412 | 7.874274 | 2.0 | 16.289 | 2 | 41.136 | 16.489 | 32.141 | 2 |
| 2025-06-25T07:24:00 | 53.903871 | 7.874209 | 2.0 | 16.271 | 2 | 41.135 | 16.460 | 32.164 | 2 |
| 2025-06-25T07:25:00 | 53.906315 | 7.873979 | 2.0 | 16.245 | 2 | 41.134 | 16.441 | 32.178 | 2 |
| 2025-06-25T07:26:00 | 53.908747 | 7.873652 | 2.0 | 16.220 | 2 | 41.133 | 16.411 | 32.202 | 2 |
| 2025-06-25T07:27:00 | 53.911207 | 7.873396 | 2.0 | 16.196 | 2 | 41.124 | 16.390 | 32.211 | 2 |
| 2025-06-25T07:28:00 | 53.913641 | 7.873280 | 2.0 | 16.180 | 2 | 41.115 | 16.367 | 32.221 | 2 |
| 2025-06-25T07:29:00 | 53.916078 | 7.873066 | 2.0 | 16.210 | 2 | 41.112 | 16.355 | 32.229 | 2 |
| 2025-06-25T07:30:00 | 53.918561 | 7.872934 | 2.0 | 16.239 | 2 | 41.131 | 16.389 | 32.218 | 2 |
| 2025-06-25T07:31:00 | 53.921056 | 7.872718 | 2.0 | 16.245 | 2 | 41.146 | 16.408 | 32.215 | 2 |
| 2025-06-25T07:32:00 | 53.923530 | 7.872484 | 2.0 | 16.230 | 2 | 41.155 | 16.412 | 32.220 | 2 |
| 2025-06-25T07:33:00 | 53.926005 | 7.872240 | 2.0 | 16.194 | 2 | 41.157 | 16.391 | 32.239 | 2 |
| 2025-06-25T07:34:00 | 53.928460 | 7.872071 | 2.0 | 16.186 | 2 | 41.148 | 16.365 | 32.252 | 2 |
| 2025-06-25T07:35:00 | 53.930902 | 7.871860 | 2.0 | 16.173 | 2 | 41.143 | 16.352 | 32.258 | 2 |
| 2025-06-25T07:36:00 | 53.933363 | 7.871552 | 2.0 | 16.161 | 2 | 41.145 | 16.340 | 32.270 | 2 |
| 2025-06-25T07:37:00 | 53.935795 | 7.871376 | 2.0 | 16.140 | 2 | 41.149 | 16.328 | 32.283 | 2 |
| 2025-06-25T07:38:00 | 53.938216 | 7.871133 | 2.0 | 16.124 | 2 | 41.140 | 16.310 | 32.289 | 2 |
| 2025-06-25T07:39:00 | 53.940647 | 7.870928 | 2.0 | 16.130 | 2 | 41.130 | 16.295 | 32.293 | 2 |
| 2025-06-25T07:40:00 | 53.943060 | 7.870702 | 2.0 | 16.126 | 2 | 41.127 | 16.299 | 32.287 | 2 |
| 2025-06-25T07:41:00 | 53.945486 | 7.870470 | 2.0 | 16.095 | 2 | 41.120 | 16.291 | 32.287 | 2 |
| 2025-06-25T07:42:00 | 53.947957 | 7.870239 | 2.0 | 16.104 | 2 | 41.104 | 16.260 | 32.298 | 2 |
| 2025-06-25T07:43:00 | 53.950454 | 7.870111 | 2.0 | 16.111 | 2 | 41.125 | 16.270 | 32.309 | 2 |
| 2025-06-25T07:44:00 | 53.952938 | 7.869870 | 2.0 | 15.993 | 2 | 41.148 | 16.266 | 32.332 | 2 |
| 2025-06-25T07:45:00 | 53.955422 | 7.869590 | 2.0 | 15.941 | 2 | 41.117 | 16.163 | 32.389 | 2 |
| 2025-06-25T07:46:00 | 53.957937 | 7.869357 | 2.0 | 15.918 | 2 | 41.087 | 16.113 | 32.403 | 2 |
| 2025-06-25T07:47:00 | 53.960484 | 7.869149 | 2.0 | 15.907 | 2 | 41.068 | 16.090 | 32.405 | 2 |
| 2025-06-25T07:48:00 | 53.962983 | 7.868936 | 2.0 | 15.882 | 2 | 41.065 | 16.074 | 32.416 | 2 |
| 2025-06-25T07:49:00 | 53.965483 | 7.868730 | 2.0 | 15.863 | 2 | 41.054 | 16.053 | 32.423 | 2 |
| 2025-06-25T07:50:00 | 53.967955 | 7.868528 | 2.0 | 15.821 | 2 | 41.039 | 16.023 | 32.434 | 2 |
| 2025-06-25T07:51:00 | 53.970373 | 7.868253 | 2.0 | 15.805 | 2 | 41.017 | 15.992 | 32.440 | 2 |
| 2025-06-25T07:52:00 | 53.972844 | 7.868008 | 2.0 | 15.787 | 2 | 41.008 | 15.975 | 32.446 | 2 |
| 2025-06-25T07:53:00 | 53.975343 | 7.867752 | 2.0 | 15.763 | 2 | 40.998 | 15.957 | 32.452 | 2 |
| 2025-06-25T07:54:00 | 53.977853 | 7.867598 | 2.0 | 15.756 | 2 | 40.983 | 15.933 | 32.458 | 2 |
| 2025-06-25T07:55:00 | 53.980367 | 7.867446 | 2.0 | 15.748 | 2 | 40.982 | 15.928 | 32.462 | 2 |
| 2025-06-25T07:56:00 | 53.982847 | 7.867196 | 2.0 | 15.728 | 2 | 40.983 | 15.919 | 32.470 | 2 |
| 2025-06-25T07:57:00 | 53.985333 | 7.866920 | 2.0 | 15.526 | 2 | 40.966 | 15.871 | 32.494 | 2 |
| 2025-06-25T07:58:00 | 53.987777 | 7.866601 | 2.0 | 15.480 | 2 | 40.850 | 15.709 | 32.525 | 2 |
| 2025-06-25T07:59:00 | 53.990283 | 7.866336 | 2.0 | 15.442 | 2 | 40.804 | 15.656 | 32.527 | 2 |
| 2025-06-25T08:00:00 | 53.992824 | 7.866168 | 2.0 | 15.409 | 2 | 40.780 | 15.616 | 32.539 | 2 |
| 2025-06-25T08:01:00 | 53.995385 | 7.865983 | 2.0 | 15.394 | 2 | 40.762 | 15.582 | 32.551 | 2 |
| 2025-06-25T08:02:00 | 53.997922 | 7.865810 | 2.0 | 15.362 | 2 | 40.758 | 15.569 | 32.558 | 2 |
| 2025-06-25T08:03:00 | 54.000391 | 7.865508 | 2.0 | 15.324 | 2 | 40.735 | 15.522 | 32.577 | 2 |
| 2025-06-25T08:04:00 | 54.002816 | 7.865236 | 2.0 | 15.314 | 2 | 40.722 | 15.500 | 32.583 | 2 |
| 2025-06-25T08:05:00 | 54.005270 | 7.864953 | 2.0 | 15.349 | 2 | 40.722 | 15.490 | 32.592 | 2 |
| 2025-06-25T08:06:00 | 54.007767 | 7.864687 | 2.0 | 15.507 | 2 | 40.724 | 15.553 | 32.541 | 2 |
| 2025-06-25T08:07:00 | 54.010303 | 7.864530 | 2.0 | 15.552 | 2 | 40.732 | 15.672 | 32.450 | 2 |
| 2025-06-25T08:08:00 | 54.012851 | 7.864364 | 2.0 | 15.758 | 2 | 40.731 | 15.758 | 32.379 | 2 |
| 2025-06-25T08:09:00 | 54.015372 | 7.864060 | 2.0 | 15.800 | 2 | 40.778 | 15.915 | 32.292 | 2 |
| 2025-06-25T08:10:00 | 54.017885 | 7.863759 | 2.0 | 15.867 | 2 | 40.797 | 15.973 | 32.262 | 2 |
| 2025-06-25T08:11:00 | 54.020422 | 7.863523 | 2.0 | 15.957 | 2 | 40.808 | 16.048 | 32.210 | 2 |
| 2025-06-25T08:12:00 | 54.022972 | 7.863272 | 2.0 | 16.018 | 2 | 40.815 | 16.123 | 32.156 | 2 |
| 2025-06-25T08:13:00 | 54.025521 | 7.863085 | 2.0 | 16.058 | 2 | 40.820 | 16.180 | 32.114 | 2 |
| 2025-06-25T08:14:00 | 54.028116 | 7.862867 | 2.0 | 16.135 | 2 | 40.822 | 16.231 | 32.075 | 2 |
| 2025-06-25T08:15:00 | 54.030670 | 7.862685 | 2.0 | 16.199 | 2 | 40.828 | 16.304 | 32.021 | 2 |
| 2025-06-25T08:16:00 | 54.033217 | 7.862404 | 2.0 | 16.266 | 2 | 40.832 | 16.371 | 31.971 | 2 |
| 2025-06-25T08:17:00 | 54.035759 | 7.862180 | 2.0 | 16.341 | 2 | 40.839 | 16.437 | 31.924 | 2 |
| 2025-06-25T08:18:00 | 54.038325 | 7.861937 | 2.0 | 16.396 | 2 | 40.840 | 16.511 | 31.866 | 2 |
| 2025-06-25T08:19:00 | 54.040890 | 7.861723 | 2.0 | 16.431 | 2 | 40.848 | 16.560 | 31.834 | 2 |
| 2025-06-25T08:20:00 | 54.043436 | 7.861459 | 2.0 | 16.447 | 2 | 40.843 | 16.595 | 31.802 | 2 |
| 2025-06-25T08:21:00 | 54.046012 | 7.861147 | 2.0 | 16.462 | 2 | 40.851 | 16.609 | 31.798 | 2 |
| 2025-06-25T08:22:00 | 54.048625 | 7.860943 | 2.0 | 16.461 | 2 | 40.851 | 16.624 | 31.786 | 2 |
| 2025-06-25T08:23:00 | 54.051178 | 7.860729 | 2.0 | 16.462 | 2 | 40.842 | 16.623 | 31.779 | 2 |
| 2025-06-25T08:24:00 | 54.053686 | 7.860497 | 2.0 | 16.499 | 2 | 40.841 | 16.634 | 31.769 | 2 |
| 2025-06-25T08:25:00 | 54.056250 | 7.860225 | 2.0 | 16.517 | 2 | 40.823 | 16.659 | 31.734 | 2 |
| 2025-06-25T08:26:00 | 54.058778 | 7.860013 | 2.0 | 16.534 | 2 | 40.807 | 16.681 | 31.702 | 2 |
| 2025-06-25T08:27:00 | 54.061360 | 7.859814 | 2.0 | 16.545 | 2 | 40.794 | 16.698 | 31.678 | 2 |
| 2025-06-25T08:28:00 | 54.063949 | 7.859572 | 2.0 | 16.547 | 2 | 40.780 | 16.708 | 31.658 | 2 |
| 2025-06-25T08:29:00 | 54.066577 | 7.859334 | 2.0 | 16.594 | 2 | 40.772 | 16.716 | 31.645 | 2 |
| 2025-06-25T08:30:00 | 54.069162 | 7.859136 | 2.0 | 16.625 | 2 | 40.763 | 16.762 | 31.600 | 2 |
| 2025-06-25T08:31:00 | 54.071790 | 7.858909 | 2.0 | 16.631 | 2 | 40.754 | 16.788 | 31.572 | 2 |
| 2025-06-25T08:32:00 | 54.074453 | 7.858644 | 2.0 | 16.635 | 2 | 40.740 | 16.795 | 31.555 | 2 |
| 2025-06-25T08:33:00 | 54.077074 | 7.858331 | 2.0 | 16.645 | 2 | 40.725 | 16.800 | 31.538 | 2 |
| 2025-06-25T08:34:00 | 54.079690 | 7.858187 | 2.0 | 16.648 | 2 | 40.709 | 16.808 | 31.518 | 2 |
| 2025-06-25T08:35:00 | 54.082330 | 7.857990 | 2.0 | 16.649 | 2 | 40.709 | 16.812 | 31.515 | 2 |
| 2025-06-25T08:36:00 | 54.085002 | 7.857655 | 2.0 | 16.640 | 2 | 40.713 | 16.809 | 31.520 | 2 |
| 2025-06-25T08:37:00 | 54.087688 | 7.857434 | 2.0 | 16.631 | 2 | 40.714 | 16.802 | 31.527 | 2 |
| 2025-06-25T08:38:00 | 54.090385 | 7.857271 | 2.0 | 16.627 | 2 | 40.715 | 16.795 | 31.533 | 2 |
| 2025-06-25T08:39:00 | 54.093079 | 7.856940 | 2.0 | 16.627 | 2 | 40.718 | 16.793 | 31.537 | 2 |
| 2025-06-25T08:40:00 | 54.095748 | 7.856770 | 2.0 | 16.624 | 2 | 40.730 | 16.792 | 31.548 | 2 |
| 2025-06-25T08:41:00 | 54.098414 | 7.856593 | 2.0 | 16.598 | 2 | 40.748 | 16.785 | 31.569 | 2 |
| 2025-06-25T08:42:00 | 54.101117 | 7.856266 | 2.0 | 16.561 | 2 | 40.740 | 16.756 | 31.585 | 2 |
| 2025-06-25T08:43:00 | 54.103796 | 7.856086 | 2.0 | 16.520 | 2 | 40.579 | 16.723 | 31.472 | 2 |
| 2025-06-25T08:44:00 | 54.106439 | 7.855900 | 2.0 | 16.450 | 2 | 40.602 | 16.676 | 31.529 | 2 |
| 2025-06-25T08:45:00 | 54.109076 | 7.855612 | 2.0 | 16.356 | 2 | 40.608 | 16.600 | 31.594 | 2 |
| 2025-06-25T08:46:00 | 54.111733 | 7.855346 | 2.0 | 16.366 | 2 | 40.554 | 16.535 | 31.598 | 2 |
| 2025-06-25T08:47:00 | 54.114431 | 7.855089 | 2.0 | 16.429 | 2 | 40.606 | 16.538 | 31.641 | 2 |
| 2025-06-25T08:48:00 | 54.117119 | 7.854804 | 2.0 | 16.428 | 2 | 40.626 | 16.594 | 31.614 | 2 |
| 2025-06-25T08:49:00 | 54.119819 | 7.854559 | 2.0 | 16.457 | 2 | 40.614 | 16.596 | 31.602 | 2 |
| 2025-06-25T08:50:00 | 54.122535 | 7.854306 | 2.0 | 16.464 | 2 | 40.598 | 16.623 | 31.567 | 2 |
| 2025-06-25T08:51:00 | 54.125222 | 7.853998 | 2.0 | 16.440 | 2 | 40.566 | 16.626 | 31.537 | 2 |
| 2025-06-25T08:52:00 | 54.127675 | 7.852618 | 2.0 | 16.428 | 2 | 40.562 | 16.605 | 31.550 | 2 |
| 2025-06-25T08:53:00 | 54.130236 | 7.851682 | 2.0 | 16.399 | 2 | 40.555 | 16.592 | 31.554 | 2 |
| 2025-06-25T08:54:00 | 54.132942 | 7.851682 | 2.0 | 16.402 | 2 | 40.562 | 16.566 | 31.581 | 2 |
| 2025-06-25T08:55:00 | 54.135610 | 7.851578 | 2.0 | 16.414 | 2 | 40.575 | 16.570 | 31.589 | 2 |
| 2025-06-25T08:56:00 | 54.138282 | 7.851433 | 2.0 | 16.443 | 2 | 40.600 | 16.585 | 31.599 | 2 |
| 2025-06-25T08:57:00 | 54.140982 | 7.851308 | 2.0 | 16.435 | 2 | 40.584 | 16.605 | 31.569 | 2 |
| 2025-06-25T08:58:00 | 54.143665 | 7.851221 | 2.0 | 16.416 | 2 | 40.622 | 16.597 | 31.608 | 2 |
| 2025-06-25T08:59:00 | 54.146286 | 7.851158 | 2.0 | 16.365 | 2 | 40.624 | 16.580 | 31.624 | 2 |
| 2025-06-25T09:00:00 | 54.148906 | 7.851371 | 2.0 | 16.232 | 2 | 40.636 | 16.511 | 31.689 | 2 |
| 2025-06-25T09:01:00 | 54.151406 | 7.850896 | 2.0 | 16.090 | 2 | 40.664 | 16.376 | 31.820 | 2 |
| 2025-06-25T09:02:00 | 54.153867 | 7.850522 | 2.0 | 16.048 | 2 | 40.644 | 16.263 | 31.893 | 2 |
| 2025-06-25T09:03:00 | 54.156310 | 7.850077 | 2.0 | 16.003 | 2 | 40.644 | 16.215 | 31.932 | 2 |
| 2025-06-25T09:04:00 | 54.158785 | 7.849701 | 2.0 | 15.982 | 2 | 40.664 | 16.173 | 31.983 | 2 |
| 2025-06-25T09:05:00 | 54.161148 | 7.849024 | 2.0 | 15.945 | 2 | 40.667 | 16.153 | 32.002 | 2 |
| 2025-06-25T09:06:00 | 54.163313 | 7.847628 | 2.0 | 15.730 | 2 | 40.663 | 16.058 | 32.075 | 2 |
| 2025-06-25T09:07:00 | 54.165000 | 7.845258 | 2.0 | 15.670 | 2 | 40.628 | 15.906 | 32.167 | 2 |
| 2025-06-25T09:08:00 | 54.166760 | 7.843080 | 2.0 | 15.673 | 2 | 40.593 | 15.844 | 32.186 | 2 |
| 2025-06-25T09:09:00 | 54.168489 | 7.840942 | 2.0 | 15.629 | 2 | 40.597 | 15.841 | 32.192 | 2 |
| 2025-06-25T09:10:00 | 54.170229 | 7.838723 | 2.0 | 15.635 | 2 | 40.572 | 15.810 | 32.195 | 2 |
| 2025-06-25T09:11:00 | 54.172039 | 7.836615 | 2.0 | 15.599 | 2 | 40.587 | 15.803 | 32.214 | 2 |
| 2025-06-25T09:12:00 | 54.173843 | 7.834430 | 2.0 | 15.549 | 2 | 40.584 | 15.761 | 32.246 | 2 |
| 2025-06-25T09:13:00 | 54.175629 | 7.832333 | 2.0 | 15.540 | 2 | 40.557 | 15.726 | 32.251 | 2 |
| 2025-06-25T09:14:00 | 54.177375 | 7.830323 | 2.0 | 15.545 | 2 | 40.552 | 15.712 | 32.258 | 2 |
| 2025-06-25T09:15:00 | 54.179159 | 7.828117 | 2.0 | 15.539 | 2 | 40.568 | 15.716 | 32.269 | 2 |
| 2025-06-25T09:16:00 | 54.181013 | 7.825931 | 2.0 | 15.523 | 2 | 40.576 | 15.709 | 32.281 | 2 |
| 2025-06-25T09:17:00 | 54.182788 | 7.823716 | 2.0 | 15.470 | 2 | 40.599 | 15.676 | 32.329 | 2 |
| 2025-06-25T09:18:00 | 54.184254 | 7.821688 | 2.0 | 15.519 | 2 | 40.615 | 15.652 | 32.363 | 2 |
| 2025-06-25T09:19:00 | 54.185215 | 7.820530 | 2.0 | 15.561 | 2 | 40.671 | 15.697 | 32.376 | 2 |
| 2025-06-25T09:20:00 | 54.185908 | 7.819852 | 2.0 | 15.527 | 2 | 40.736 | 15.721 | 32.414 | 2 |
| 2025-06-25T09:21:00 | 54.186430 | 7.819457 | 2.0 | 15.516 | 2 | 40.727 | 15.694 | 32.428 | 2 |
| 2025-06-25T09:22:00 | 54.186883 | 7.819315 | 2.0 | 15.516 | 2 | 40.718 | 15.682 | 32.430 | 2 |
| 2025-06-25T09:23:00 | 54.187243 | 7.819264 | 2.0 | 15.551 | 2 | 40.729 | 15.693 | 32.430 | 2 |
| 2025-06-25T09:24:00 | 54.187488 | 7.818994 | 2.0 | 15.561 | 2 | 40.758 | 15.718 | 32.436 | 2 |
| 2025-06-25T09:25:00 | 54.187640 | 7.818719 | 2.0 | 15.566 | 2 | 40.768 | 15.729 | 32.435 | 2 |
| 2025-06-25T09:26:00 | 54.187760 | 7.818481 | 2.0 | 15.569 | 2 | 40.769 | 15.730 | 32.435 | 2 |
| 2025-06-25T09:27:00 | 54.187898 | 7.818042 | 2.0 | 15.558 | 2 | 40.766 | 15.729 | 32.434 | 2 |
| 2025-06-25T09:28:00 | 54.188031 | 7.817499 | 2.0 | 15.572 | 2 | 40.762 | 15.729 | 32.430 | 2 |
| 2025-06-25T09:29:00 | 54.188150 | 7.817030 | 2.0 | 15.565 | 2 | 40.769 | 15.737 | 32.430 | 2 |
| 2025-06-25T09:30:00 | 54.188251 | 7.816663 | 2.0 | 15.557 | 2 | 40.762 | 15.730 | 32.429 | 2 |
| 2025-06-25T09:31:00 | 54.188308 | 7.816493 | 2.0 | 15.575 | 2 | 40.755 | 15.723 | 32.429 | 2 |
| 2025-06-25T09:32:00 | 54.188353 | 7.816644 | 2.0 | 15.573 | 2 | 40.770 | 15.742 | 32.426 | 2 |
| 2025-06-25T09:33:00 | 54.188361 | 7.816939 | 2.0 | 15.573 | 2 | 40.773 | 15.745 | 32.427 | 2 |
| 2025-06-25T09:34:00 | 54.188349 | 7.817162 | 2.0 | 15.574 | 2 | 40.778 | 15.751 | 32.426 | 2 |
| 2025-06-25T09:35:00 | 54.188353 | 7.817359 | 2.0 | 15.566 | 2 | 40.782 | 15.754 | 32.427 | 2 |
| 2025-06-25T09:36:00 | 54.188362 | 7.817504 | 2.0 | 15.562 | 2 | 40.779 | 15.750 | 32.428 | 2 |
| 2025-06-25T09:37:00 | 54.188311 | 7.817548 | 2.0 | 15.562 | 2 | 40.778 | 15.749 | 32.428 | 2 |
| 2025-06-25T09:38:00 | 54.188218 | 7.817524 | 2.0 | 15.571 | 2 | 40.779 | 15.750 | 32.428 | 2 |
| 2025-06-25T09:39:00 | 54.188147 | 7.817468 | 2.0 | 15.569 | 2 | 40.785 | 15.758 | 32.427 | 2 |
| 2025-06-25T09:40:00 | 54.188113 | 7.817282 | 2.0 | 15.586 | 2 | 40.788 | 15.762 | 32.426 | 2 |
| 2025-06-25T09:41:00 | 54.188098 | 7.817089 | 2.0 | 15.601 | 2 | 40.799 | 15.776 | 32.424 | 2 |
| 2025-06-25T09:42:00 | 54.188110 | 7.816903 | 2.0 | 15.598 | 2 | 40.810 | 15.789 | 32.423 | 2 |
| 2025-06-25T09:43:00 | 54.188121 | 7.816728 | 2.0 | 15.597 | 2 | 40.809 | 15.787 | 32.424 | 2 |
| 2025-06-25T09:44:00 | 54.188161 | 7.816689 | 2.0 | 15.597 | 2 | 40.808 | 15.787 | 32.423 | 2 |
| 2025-06-25T09:45:00 | 54.188215 | 7.816658 | 2.0 | 15.597 | 2 | 40.807 | 15.785 | 32.424 | 2 |
| 2025-06-25T09:46:00 | 54.188288 | 7.816614 | 2.0 | 15.602 | 2 | 40.809 | 15.788 | 32.423 | 2 |
| 2025-06-25T09:47:00 | 54.188347 | 7.816614 | 2.0 | 15.601 | 2 | 40.815 | 15.795 | 32.423 | 2 |
| 2025-06-25T09:48:00 | 54.188359 | 7.816575 | 2.0 | 15.581 | 2 | 40.813 | 15.791 | 32.424 | 2 |
| 2025-06-25T09:49:00 | 54.188358 | 7.816492 | 2.0 | 15.585 | 2 | 40.796 | 15.772 | 32.425 | 2 |
| 2025-06-25T09:50:00 | 54.188337 | 7.816427 | 2.0 | 15.593 | 2 | 40.798 | 15.778 | 32.422 | 2 |
| 2025-06-25T09:51:00 | 54.188344 | 7.816220 | 2.0 | 15.601 | 2 | 40.806 | 15.786 | 32.422 | 2 |
| 2025-06-25T09:52:00 | 54.188330 | 7.816109 | 2.0 | 15.601 | 2 | 40.812 | 15.793 | 32.422 | 2 |
| 2025-06-25T09:53:00 | 54.188304 | 7.816181 | 2.0 | 15.594 | 2 | 40.806 | 15.785 | 32.423 | 2 |
| 2025-06-25T09:54:00 | 54.188310 | 7.816208 | 2.0 | 15.603 | 2 | 40.805 | 15.787 | 32.421 | 2 |
| 2025-06-25T09:55:00 | 54.188326 | 7.816208 | 2.0 | 15.609 | 2 | 40.813 | 15.795 | 32.421 | 2 |
| 2025-06-25T09:56:00 | 54.188315 | 7.816238 | 2.0 | 15.604 | 2 | 40.819 | 15.803 | 32.420 | 2 |
| 2025-06-25T09:57:00 | 54.188247 | 7.816164 | 2.0 | 15.607 | 2 | 40.812 | 15.793 | 32.422 | 2 |
| 2025-06-25T09:58:00 | 54.188214 | 7.816011 | 2.0 | 15.631 | 2 | 40.822 | 15.809 | 32.418 | 2 |
| 2025-06-25T09:59:00 | 54.188199 | 7.816083 | 2.0 | 15.619 | 2 | 40.833 | 15.819 | 32.419 | 2 |
| 2025-06-25T10:00:00 | 54.188171 | 7.816155 | 2.0 | 15.618 | 2 | 40.827 | 15.813 | 32.419 | 2 |
| 2025-06-25T10:01:00 | 54.188153 | 7.816113 | 2.0 | 15.632 | 2 | 40.827 | 15.813 | 32.419 | 2 |
| 2025-06-25T10:02:00 | 54.188147 | 7.816055 | 2.0 | 15.632 | 2 | 40.836 | 15.822 | 32.419 | 2 |
| 2025-06-25T10:03:00 | 54.188197 | 7.815946 | 2.0 | 15.630 | 2 | 40.839 | 15.827 | 32.418 | 2 |
| 2025-06-25T10:04:00 | 54.188310 | 7.815883 | 2.0 | 15.632 | 2 | 40.838 | 15.824 | 32.420 | 2 |
| 2025-06-25T10:05:00 | 54.188424 | 7.816163 | 2.0 | 15.636 | 2 | 40.839 | 15.827 | 32.418 | 2 |
| 2025-06-25T10:06:00 | 54.188403 | 7.816651 | 2.0 | 15.623 | 2 | 40.838 | 15.822 | 32.421 | 2 |
| 2025-06-25T10:07:00 | 54.188350 | 7.816969 | 2.0 | 15.638 | 2 | 40.838 | 15.825 | 32.419 | 2 |
| 2025-06-25T10:08:00 | 54.188344 | 7.816850 | 2.0 | 15.612 | 2 | 40.845 | 15.832 | 32.419 | 2 |
| 2025-06-25T10:09:00 | 54.188337 | 7.816631 | 2.0 | 15.574 | 2 | 40.823 | 15.806 | 32.421 | 2 |
| 2025-06-25T10:10:00 | 54.188309 | 7.816578 | 2.0 | 15.590 | 2 | 40.791 | 15.767 | 32.425 | 2 |
| 2025-06-25T10:11:00 | 54.188255 | 7.816440 | 2.0 | 15.633 | 2 | 40.814 | 15.802 | 32.416 | 2 |
| 2025-06-25T10:12:00 | 54.188221 | 7.816355 | 2.0 | 15.643 | 2 | 40.838 | 15.826 | 32.418 | 2 |
| 2025-06-25T10:13:00 | 54.188238 | 7.816433 | 2.0 | 15.648 | 2 | 40.850 | 15.840 | 32.417 | 2 |
| 2025-06-25T10:14:00 | 54.188219 | 7.816542 | 2.0 | 15.637 | 2 | 40.854 | 15.842 | 32.419 | 2 |
| 2025-06-25T10:15:00 | 54.188214 | 7.816540 | 2.0 | 15.625 | 2 | 40.844 | 15.831 | 32.419 | 2 |
| 2025-06-25T10:16:00 | 54.188229 | 7.816444 | 2.0 | 15.650 | 2 | 40.842 | 15.830 | 32.418 | 2 |
| 2025-06-25T10:17:00 | 54.188233 | 7.816466 | 2.0 | 15.652 | 2 | 40.856 | 15.844 | 32.419 | 2 |
| 2025-06-25T10:18:00 | 54.188252 | 7.816559 | 2.0 | 15.649 | 2 | 40.858 | 15.848 | 32.418 | 2 |
| 2025-06-25T10:19:00 | 54.188235 | 7.816566 | 2.0 | 15.646 | 2 | 40.857 | 15.845 | 32.419 | 2 |
| 2025-06-25T10:20:00 | 54.188173 | 7.816366 | 2.0 | 15.672 | 2 | 40.860 | 15.850 | 32.418 | 2 |
| 2025-06-25T10:21:00 | 54.188177 | 7.816175 | 2.0 | 15.665 | 2 | 40.878 | 15.871 | 32.416 | 2 |
| 2025-06-25T10:22:00 | 54.188225 | 7.816211 | 2.0 | 15.671 | 2 | 40.872 | 15.862 | 32.418 | 2 |
| 2025-06-25T10:23:00 | 54.188257 | 7.816321 | 2.0 | 15.640 | 2 | 40.873 | 15.863 | 32.419 | 2 |
| 2025-06-25T10:24:00 | 54.188243 | 7.816308 | 2.0 | 15.636 | 2 | 40.851 | 15.835 | 32.422 | 2 |
| 2025-06-25T10:25:00 | 54.188210 | 7.816170 | 2.0 | 15.660 | 2 | 40.853 | 15.843 | 32.417 | 2 |
| 2025-06-25T10:26:00 | 54.188189 | 7.816152 | 2.0 | 15.626 | 2 | 40.862 | 15.850 | 32.419 | 2 |
| 2025-06-25T10:27:00 | 54.188167 | 7.816080 | 2.0 | 15.661 | 2 | 40.847 | 15.838 | 32.416 | 2 |
| 2025-06-25T10:28:00 | 54.188139 | 7.816029 | 2.0 | 15.653 | 2 | 40.866 | 15.855 | 32.419 | 2 |
| 2025-06-25T10:29:00 | 54.188152 | 7.816057 | 2.0 | 15.673 | 2 | 40.864 | 15.854 | 32.418 | 2 |
| 2025-06-25T10:30:00 | 54.188215 | 7.815991 | 2.0 | 15.675 | 2 | 40.880 | 15.874 | 32.416 | 2 |
| 2025-06-25T10:31:00 | 54.188239 | 7.815716 | 2.0 | 15.671 | 2 | 40.882 | 15.873 | 32.418 | 2 |
| 2025-06-25T10:32:00 | 54.188172 | 7.815008 | 2.0 | 15.658 | 2 | 40.880 | 15.870 | 32.419 | 2 |
| 2025-06-25T10:33:00 | 54.188095 | 7.813786 | 2.0 | 15.663 | 2 | 40.873 | 15.864 | 32.418 | 2 |
| 2025-06-25T10:34:00 | 54.187916 | 7.812068 | 2.0 | 15.668 | 2 | 40.863 | 15.858 | 32.414 | 2 |
| 2025-06-25T10:35:00 | 54.187706 | 7.809667 | 2.0 | 15.689 | 2 | 40.865 | 15.866 | 32.409 | 2 |
| 2025-06-25T10:36:00 | 54.187330 | 7.806364 | 2.0 | 15.710 | 2 | 40.878 | 15.884 | 32.406 | 2 |
| 2025-06-25T10:37:00 | 54.186819 | 7.802484 | 2.0 | 15.725 | 2 | 40.892 | 15.895 | 32.409 | 2 |
| 2025-06-25T10:38:00 | 54.186317 | 7.798383 | 2.0 | 15.711 | 2 | 40.898 | 15.910 | 32.402 | 2 |
| 2025-06-25T10:39:00 | 54.185789 | 7.794371 | 2.0 | 15.732 | 2 | 40.872 | 15.899 | 32.388 | 2 |
| 2025-06-25T10:40:00 | 54.185291 | 7.790166 | 2.0 | 15.675 | 2 | 40.851 | 15.891 | 32.376 | 2 |
| 2025-06-25T10:41:00 | 54.184893 | 7.785815 | 2.0 | 15.728 | 2 | 40.816 | 15.874 | 32.359 | 2 |
| 2025-06-25T10:42:00 | 54.184500 | 7.781478 | 2.0 | 15.747 | 2 | 40.854 | 15.908 | 32.365 | 2 |
| 2025-06-25T10:43:00 | 54.183898 | 7.777169 | 2.0 | 15.792 | 2 | 40.891 | 15.935 | 32.376 | 2 |
| 2025-06-25T10:44:00 | 54.183319 | 7.772806 | 2.0 | 15.842 | 2 | 40.923 | 15.978 | 32.369 | 2 |
| 2025-06-25T10:45:00 | 54.182733 | 7.768493 | 2.0 | 15.895 | 2 | 40.947 | 16.024 | 32.352 | 2 |
| 2025-06-25T10:46:00 | 54.182172 | 7.764156 | 2.0 | 15.913 | 2 | 40.980 | 16.069 | 32.345 | 2 |
| 2025-06-25T10:47:00 | 54.181570 | 7.759793 | 2.0 | 15.922 | 2 | 41.004 | 16.090 | 32.349 | 2 |
| 2025-06-25T10:48:00 | 54.180966 | 7.755398 | 2.0 | 15.920 | 2 | 41.023 | 16.098 | 32.359 | 2 |
| 2025-06-25T10:49:00 | 54.180337 | 7.750994 | 2.0 | 15.810 | 2 | 41.010 | 16.085 | 32.358 | 2 |
| 2025-06-25T10:50:00 | 54.179787 | 7.746641 | 2.0 | 15.813 | 2 | 40.965 | 15.986 | 32.399 | 2 |
| 2025-06-25T10:51:00 | 54.179161 | 7.742296 | 2.0 | 15.828 | 2 | 40.967 | 15.992 | 32.396 | 2 |
| 2025-06-25T10:52:00 | 54.178554 | 7.737929 | 2.0 | 15.850 | 2 | 40.986 | 16.005 | 32.402 | 2 |
| 2025-06-25T10:53:00 | 54.177979 | 7.733652 | 2.0 | 15.850 | 2 | 41.003 | 16.023 | 32.403 | 2 |
| 2025-06-25T10:54:00 | 54.177416 | 7.729271 | 2.0 | 15.857 | 2 | 41.015 | 16.029 | 32.408 | 2 |
| 2025-06-25T10:55:00 | 54.176795 | 7.724891 | 2.0 | 15.853 | 2 | 41.024 | 16.031 | 32.415 | 2 |
| 2025-06-25T10:56:00 | 54.176223 | 7.720493 | 2.0 | 15.871 | 2 | 41.032 | 16.031 | 32.422 | 2 |
| 2025-06-25T10:57:00 | 54.175618 | 7.716055 | 2.0 | 15.907 | 2 | 41.070 | 16.053 | 32.437 | 2 |
| 2025-06-25T10:58:00 | 54.175037 | 7.711620 | 2.0 | 15.687 | 2 | 41.126 | 16.070 | 32.473 | 2 |
| 2025-06-25T10:59:00 | 54.174408 | 7.707239 | 2.0 | 15.632 | 2 | 41.058 | 15.888 | 32.562 | 2 |
| 2025-06-25T11:00:00 | 54.173835 | 7.702867 | 2.0 | 15.640 | 2 | 41.040 | 15.818 | 32.603 | 2 |
| 2025-06-25T11:01:00 | 54.173204 | 7.698467 | 2.0 | 15.631 | 2 | 41.025 | 15.811 | 32.596 | 2 |
| 2025-06-25T11:02:00 | 54.172579 | 7.694060 | 2.0 | 15.626 | 2 | 41.015 | 15.811 | 32.587 | 2 |
| 2025-06-25T11:03:00 | 54.171991 | 7.689673 | 2.0 | 15.623 | 2 | 41.000 | 15.805 | 32.579 | 2 |
| 2025-06-25T11:04:00 | 54.171425 | 7.685336 | 2.0 | 15.600 | 2 | 40.986 | 15.795 | 32.575 | 2 |
| 2025-06-25T11:05:00 | 54.170802 | 7.680971 | 2.0 | 15.570 | 2 | 40.967 | 15.775 | 32.574 | 2 |
| 2025-06-25T11:06:00 | 54.170211 | 7.676581 | 2.0 | 15.534 | 2 | 40.953 | 15.744 | 32.587 | 2 |
| 2025-06-25T11:07:00 | 54.169646 | 7.672177 | 2.0 | 15.522 | 2 | 40.931 | 15.713 | 32.593 | 2 |
| 2025-06-25T11:08:00 | 54.169075 | 7.667779 | 2.0 | 15.487 | 2 | 40.925 | 15.695 | 32.603 | 2 |
| 2025-06-25T11:09:00 | 54.168470 | 7.663366 | 2.0 | 15.458 | 2 | 40.910 | 15.660 | 32.618 | 2 |
| 2025-06-25T11:10:00 | 54.167863 | 7.658995 | 2.0 | 15.387 | 2 | 40.903 | 15.632 | 32.635 | 2 |
| 2025-06-25T11:11:00 | 54.167348 | 7.654631 | 2.0 | 15.009 | 2 | 40.841 | 15.496 | 32.693 | 2 |
| 2025-06-25T11:12:00 | 54.166860 | 7.650321 | 2.0 | 14.903 | 2 | 40.646 | 15.218 | 32.750 | 2 |
| 2025-06-25T11:13:00 | 54.166373 | 7.646048 | 2.0 | 14.673 | 2 | 40.507 | 15.051 | 32.764 | 2 |
| 2025-06-25T11:14:00 | 54.165817 | 7.641679 | 2.0 | 14.765 | 2 | 40.365 | 14.891 | 32.770 | 2 |
| 2025-06-25T11:15:00 | 54.165275 | 7.637313 | 2.0 | 14.863 | 2 | 40.420 | 14.965 | 32.758 | 2 |
| 2025-06-25T11:16:00 | 54.164728 | 7.632951 | 2.0 | 14.851 | 2 | 40.487 | 15.039 | 32.756 | 2 |
| 2025-06-25T11:17:00 | 54.164183 | 7.628630 | 2.0 | 14.843 | 2 | 40.497 | 15.040 | 32.764 | 2 |
| 2025-06-25T11:18:00 | 54.163666 | 7.624345 | 2.0 | 14.598 | 2 | 40.459 | 14.981 | 32.780 | 2 |
| 2025-06-25T11:19:00 | 54.163222 | 7.620237 | 2.0 | 14.646 | 2 | 40.306 | 14.806 | 32.788 | 2 |
| 2025-06-25T11:20:00 | 54.162733 | 7.616490 | 2.0 | 14.745 | 2 | 40.331 | 14.848 | 32.776 | 2 |
| 2025-06-25T11:21:00 | 54.162365 | 7.613363 | 2.0 | 14.799 | 2 | 40.425 | 14.947 | 32.777 | 2 |
| 2025-06-25T11:22:00 | 54.162075 | 7.611073 | 2.0 | 14.732 | 2 | 40.461 | 14.971 | 32.790 | 2 |
| 2025-06-25T11:23:00 | 54.161889 | 7.609410 | 2.0 | 14.650 | 2 | 40.407 | 14.899 | 32.802 | 2 |
| 2025-06-25T11:24:00 | 54.161718 | 7.608231 | 2.0 | 14.708 | 2 | 40.358 | 14.854 | 32.795 | 2 |
| 2025-06-25T11:25:00 | 54.161467 | 7.607254 | 2.0 | 14.673 | 2 | 40.378 | 14.871 | 32.799 | 2 |
| 2025-06-25T11:26:00 | 54.161270 | 7.606469 | 2.0 | 14.686 | 2 | 40.357 | 14.848 | 32.799 | 2 |
| 2025-06-25T11:27:00 | 54.161157 | 7.605998 | 2.0 | 14.718 | 2 | 40.375 | 14.865 | 32.801 | 2 |
| 2025-06-25T11:28:00 | 54.161106 | 7.605873 | 2.0 | 14.734 | 2 | 40.406 | 14.898 | 32.801 | 2 |
| 2025-06-25T11:29:00 | 54.161043 | 7.605827 | 2.0 | 14.732 | 2 | 40.420 | 14.910 | 32.804 | 2 |
| 2025-06-25T11:30:00 | 54.160910 | 7.605799 | 2.0 | 14.732 | 2 | 40.416 | 14.906 | 32.804 | 2 |
| 2025-06-25T11:31:00 | 54.160796 | 7.605722 | 2.0 | 14.738 | 2 | 40.417 | 14.908 | 32.803 | 2 |
| 2025-06-25T11:32:00 | 54.160716 | 7.605699 | 2.0 | 14.751 | 2 | 40.427 | 14.919 | 32.803 | 2 |
| 2025-06-25T11:33:00 | 54.160614 | 7.605651 | 2.0 | 14.756 | 2 | 40.434 | 14.927 | 32.802 | 2 |
| 2025-06-25T11:34:00 | 54.160540 | 7.605658 | 2.0 | 14.756 | 2 | 40.439 | 14.931 | 32.804 | 2 |
| 2025-06-25T11:35:00 | 54.160487 | 7.605716 | 2.0 | 14.771 | 2 | 40.440 | 14.934 | 32.802 | 2 |
| 2025-06-25T11:36:00 | 54.160410 | 7.605740 | 2.0 | 14.782 | 2 | 40.453 | 14.948 | 32.802 | 2 |
| 2025-06-25T11:37:00 | 54.160330 | 7.605459 | 2.0 | 14.763 | 2 | 40.458 | 14.951 | 32.804 | 2 |
| 2025-06-25T11:38:00 | 54.160608 | 7.605277 | 2.0 | 14.606 | 2 | 40.426 | 14.914 | 32.806 | 2 |
| 2025-06-25T11:39:00 | 54.161224 | 7.606260 | 2.0 | 14.742 | 2 | 40.327 | 14.809 | 32.805 | 2 |
| 2025-06-25T11:40:00 | 54.162157 | 7.608095 | 2.0 | 14.686 | 2 | 40.394 | 14.894 | 32.794 | 2 |
| 2025-06-25T11:41:00 | 54.163456 | 7.610952 | 2.0 | 14.752 | 2 | 40.378 | 14.878 | 32.793 | 2 |
| 2025-06-25T11:42:00 | 54.165011 | 7.614469 | 2.0 | 14.722 | 2 | 40.415 | 14.932 | 32.781 | 2 |
| 2025-06-25T11:43:00 | 54.166710 | 7.618104 | 2.0 | 14.753 | 2 | 40.389 | 14.894 | 32.789 | 2 |
| 2025-06-25T11:44:00 | 54.168382 | 7.621858 | 2.0 | 14.863 | 2 | 40.427 | 14.956 | 32.772 | 2 |
| 2025-06-25T11:45:00 | 54.170107 | 7.625623 | 2.0 | 14.720 | 2 | 40.490 | 15.014 | 32.780 | 2 |
| 2025-06-25T11:46:00 | 54.171837 | 7.629363 | 2.0 | 14.766 | 2 | 40.391 | 14.900 | 32.786 | 2 |
| 2025-06-25T11:47:00 | 54.173474 | 7.633238 | 2.0 | 15.109 | 2 | 40.473 | 15.026 | 32.755 | 2 |
| 2025-06-25T11:48:00 | 54.174702 | 7.637465 | 2.0 | 15.280 | 2 | 40.677 | 15.282 | 32.724 | 2 |
| 2025-06-25T11:49:00 | 54.175015 | 7.642077 | 2.0 | 15.400 | 2 | 40.785 | 15.456 | 32.676 | 2 |
| 2025-06-25T11:50:00 | 54.174505 | 7.646611 | 2.0 | 15.465 | 2 | 40.855 | 15.570 | 32.644 | 2 |
| 2025-06-25T11:51:00 | 54.173679 | 7.651033 | 2.0 | 15.510 | 2 | 40.902 | 15.639 | 32.629 | 2 |
| 2025-06-25T11:52:00 | 54.173021 | 7.655523 | 2.0 | 15.588 | 2 | 40.932 | 15.686 | 32.616 | 2 |
| 2025-06-25T11:53:00 | 54.172329 | 7.660007 | 2.0 | 15.612 | 2 | 40.987 | 15.751 | 32.612 | 2 |
| 2025-06-25T11:54:00 | 54.171622 | 7.664503 | 2.0 | 15.657 | 2 | 41.013 | 15.787 | 32.605 | 2 |
| 2025-06-25T11:55:00 | 54.170908 | 7.668979 | 2.0 | 15.645 | 2 | 41.033 | 15.818 | 32.597 | 2 |
| 2025-06-25T11:56:00 | 54.170205 | 7.673453 | 2.0 | 15.679 | 2 | 41.022 | 15.816 | 32.589 | 2 |
| 2025-06-25T11:57:00 | 54.169503 | 7.677912 | 2.0 | 15.681 | 2 | 41.038 | 15.846 | 32.579 | 2 |
| 2025-06-25T11:58:00 | 54.168830 | 7.682394 | 2.0 | 15.739 | 2 | 41.041 | 15.860 | 32.570 | 2 |
| 2025-06-25T11:59:00 | 54.168113 | 7.686864 | 2.0 | 15.740 | 2 | 41.086 | 15.898 | 32.578 | 2 |
| 2025-06-25T12:00:00 | 54.167420 | 7.691325 | 2.0 | 15.787 | 2 | 41.111 | 15.915 | 32.586 | 2 |
| 2025-06-25T12:01:00 | 54.166719 | 7.695737 | 2.0 | 15.865 | 2 | 41.169 | 15.951 | 32.608 | 2 |
| 2025-06-25T12:02:00 | 54.166062 | 7.700124 | 2.0 | 16.005 | 2 | 41.172 | 16.055 | 32.525 | 2 |
| 2025-06-25T12:03:00 | 54.165364 | 7.704443 | 2.0 | 16.002 | 2 | 41.189 | 16.157 | 32.457 | 2 |
| 2025-06-25T12:04:00 | 54.164726 | 7.708785 | 2.0 | 15.957 | 2 | 41.184 | 16.155 | 32.454 | 2 |
| 2025-06-25T12:05:00 | 54.164045 | 7.713126 | 2.0 | 15.983 | 2 | 41.166 | 16.133 | 32.456 | 2 |
| 2025-06-25T12:06:00 | 54.163346 | 7.717460 | 2.0 | 15.980 | 2 | 41.182 | 16.147 | 32.459 | 2 |
| 2025-06-25T12:07:00 | 54.162656 | 7.721805 | 2.0 | 15.960 | 2 | 41.189 | 16.144 | 32.468 | 2 |
| 2025-06-25T12:08:00 | 54.161990 | 7.726177 | 2.0 | 15.931 | 2 | 41.172 | 16.120 | 32.472 | 2 |
| 2025-06-25T12:09:00 | 54.161305 | 7.730490 | 2.0 | 15.878 | 2 | 41.152 | 16.096 | 32.474 | 2 |
| 2025-06-25T12:10:00 | 54.160609 | 7.734800 | 2.0 | 15.800 | 2 | 41.111 | 16.031 | 32.491 | 2 |
| 2025-06-25T12:11:00 | 54.159955 | 7.739116 | 2.0 | 15.947 | 2 | 41.073 | 15.986 | 32.495 | 2 |
| 2025-06-25T12:12:00 | 54.159285 | 7.743450 | 2.0 | 15.914 | 2 | 41.162 | 16.103 | 32.477 | 2 |
| 2025-06-25T12:13:00 | 54.158585 | 7.747751 | 2.0 | 15.678 | 2 | 41.155 | 16.071 | 32.497 | 2 |
| 2025-06-25T12:14:00 | 54.157928 | 7.752120 | 2.0 | 15.532 | 2 | 40.977 | 15.795 | 32.567 | 2 |
| 2025-06-25T12:15:00 | 54.157274 | 7.756514 | 2.0 | 15.804 | 2 | 40.901 | 15.760 | 32.528 | 2 |
| 2025-06-25T12:16:00 | 54.156626 | 7.760988 | 2.0 | 16.089 | 2 | 40.963 | 16.007 | 32.380 | 2 |
| 2025-06-25T12:17:00 | 54.155879 | 7.765436 | 2.0 | 16.173 | 2 | 40.981 | 16.229 | 32.216 | 2 |
| 2025-06-25T12:18:00 | 54.155158 | 7.769916 | 2.0 | 16.371 | 2 | 41.016 | 16.375 | 32.128 | 2 |
| 2025-06-25T12:19:00 | 54.154532 | 7.774485 | 2.0 | 16.407 | 2 | 41.059 | 16.498 | 32.067 | 2 |
| 2025-06-25T12:20:00 | 54.153961 | 7.779036 | 2.0 | 16.379 | 2 | 41.083 | 16.575 | 32.026 | 2 |
| 2025-06-25T12:21:00 | 54.153337 | 7.783588 | 2.0 | 16.427 | 2 | 41.054 | 16.542 | 32.028 | 2 |
| 2025-06-25T12:22:00 | 54.152638 | 7.788030 | 2.0 | 16.415 | 2 | 41.074 | 16.585 | 32.011 | 2 |
| 2025-06-25T12:23:00 | 54.152051 | 7.792492 | 2.0 | 16.426 | 2 | 41.070 | 16.586 | 32.006 | 2 |
| 2025-06-25T12:24:00 | 54.151472 | 7.796921 | 2.0 | 16.415 | 2 | 41.057 | 16.587 | 31.994 | 2 |
| 2025-06-25T12:25:00 | 54.150831 | 7.801360 | 2.0 | 16.425 | 2 | 41.031 | 16.579 | 31.978 | 2 |
| 2025-06-25T12:26:00 | 54.150214 | 7.805787 | 2.0 | 16.424 | 2 | 41.035 | 16.592 | 31.971 | 2 |
| 2025-06-25T12:27:00 | 54.149610 | 7.810227 | 2.0 | 16.395 | 2 | 41.033 | 16.587 | 31.973 | 2 |
| 2025-06-25T12:28:00 | 54.149046 | 7.814685 | 2.0 | 16.333 | 2 | 40.949 | 16.555 | 31.926 | 2 |
| 2025-06-25T12:29:00 | 54.148434 | 7.819053 | 2.0 | 16.289 | 2 | 40.912 | 16.496 | 31.941 | 2 |
| 2025-06-25T12:30:00 | 54.147819 | 7.823428 | 2.0 | 16.240 | 2 | 40.874 | 16.454 | 31.941 | 2 |
| 2025-06-25T12:31:00 | 54.147217 | 7.827817 | 2.0 | 16.215 | 2 | 40.821 | 16.397 | 31.941 | 2 |
| 2025-06-25T12:32:00 | 54.146612 | 7.832209 | 2.0 | 16.233 | 2 | 40.818 | 16.390 | 31.944 | 2 |
| 2025-06-25T12:33:00 | 54.146000 | 7.836605 | 2.0 | 16.256 | 2 | 40.836 | 16.399 | 31.952 | 2 |
| 2025-06-25T12:34:00 | 54.145635 | 7.841071 | 2.0 | 16.272 | 2 | 40.854 | 16.424 | 31.948 | 2 |
| 2025-06-25T12:35:00 | 54.145900 | 7.845536 | 2.0 | 16.302 | 2 | 40.852 | 16.433 | 31.939 | 2 |
| 2025-06-25T12:36:00 | 54.146026 | 7.850068 | 2.0 | 16.407 | 2 | 40.899 | 16.497 | 31.929 | 2 |
| 2025-06-25T12:37:00 | 54.146183 | 7.854587 | 2.0 | 16.313 | 2 | 40.942 | 16.552 | 31.922 | 2 |
| 2025-06-25T12:38:00 | 54.146275 | 7.859093 | 2.0 | 16.415 | 2 | 40.855 | 16.498 | 31.889 | 2 |
| 2025-06-25T12:39:00 | 54.146451 | 7.863575 | 2.0 | 16.501 | 2 | 40.939 | 16.600 | 31.881 | 2 |
| 2025-06-25T12:40:00 | 54.146611 | 7.868033 | 2.0 | 16.550 | 2 | 40.999 | 16.663 | 31.883 | 2 |
| 2025-06-25T12:41:00 | 54.146710 | 7.872540 | 2.0 | 16.557 | 2 | 41.029 | 16.708 | 31.873 | 2 |
| 2025-06-25T12:42:00 | 54.146863 | 7.877093 | 2.0 | 16.497 | 2 | 41.014 | 16.714 | 31.856 | 2 |
| 2025-06-25T12:43:00 | 54.146963 | 7.881628 | 2.0 | 16.515 | 2 | 40.943 | 16.679 | 31.822 | 2 |
| 2025-06-25T12:44:00 | 54.147142 | 7.886129 | 2.0 | 16.528 | 2 | 40.909 | 16.671 | 31.799 | 2 |
| 2025-06-25T12:45:00 | 54.147392 | 7.890594 | 2.0 | 16.411 | 2 | 40.887 | 16.682 | 31.771 | 2 |
| 2025-06-25T12:46:00 | 54.148879 | 7.894167 | 2.0 | 16.360 | 2 | 40.786 | 16.539 | 31.797 | 2 |
| 2025-06-25T12:47:00 | 54.151293 | 7.895987 | 2.0 | 16.507 | 2 | 40.777 | 16.571 | 31.764 | 2 |
| 2025-06-25T12:48:00 | 54.153671 | 7.896637 | 2.0 | 16.415 | 2 | 40.834 | 16.653 | 31.748 | 2 |
| 2025-06-26T06:23:00 | 54.159728 | 7.902001 | 2.0 | 17.349 | 2 | 40.810 | 17.224 | 31.280 | 2 |
| 2025-06-26T06:24:00 | 54.158182 | 7.901148 | 2.0 | 17.390 | 2 | 40.941 | 17.525 | 31.160 | 2 |
| 2025-06-26T06:25:00 | 54.156001 | 7.900031 | 2.0 | 17.378 | 2 | 40.968 | 17.557 | 31.158 | 2 |
| 2025-06-26T06:26:00 | 54.153467 | 7.898740 | 2.0 | 17.308 | 2 | 40.979 | 17.512 | 31.202 | 2 |
| 2025-06-26T06:27:00 | 54.150839 | 7.897369 | 2.0 | 17.417 | 2 | 40.969 | 17.491 | 31.210 | 2 |
| 2025-06-26T06:28:00 | 54.148179 | 7.896029 | 2.0 | 17.464 | 2 | 40.978 | 17.604 | 31.131 | 2 |
| 2025-06-26T06:29:00 | 54.145766 | 7.894795 | 2.0 | 17.463 | 2 | 40.995 | 17.628 | 31.127 | 2 |
| 2025-06-26T06:30:00 | 54.143789 | 7.893765 | 2.0 | 17.483 | 2 | 40.996 | 17.635 | 31.122 | 2 |
| 2025-06-26T06:31:00 | 54.142183 | 7.892804 | 2.0 | 17.476 | 2 | 41.001 | 17.645 | 31.119 | 2 |
| 2025-06-26T06:32:00 | 54.140732 | 7.892398 | 2.0 | 17.489 | 2 | 41.009 | 17.642 | 31.128 | 2 |
| 2025-06-26T06:33:00 | 54.139355 | 7.892127 | 2.0 | 17.519 | 2 | 41.014 | 17.659 | 31.119 | 2 |
| 2025-06-26T06:34:00 | 54.137995 | 7.891875 | 2.0 | 17.520 | 2 | 41.027 | 17.682 | 31.113 | 2 |
| 2025-06-26T06:35:00 | 54.136649 | 7.891628 | 2.0 | 17.529 | 2 | 41.039 | 17.686 | 31.120 | 2 |
| 2025-06-26T06:36:00 | 54.135312 | 7.891406 | 2.0 | 17.533 | 2 | 41.050 | 17.690 | 31.126 | 2 |
| 2025-06-26T06:37:00 | 54.134435 | 7.890528 | 2.0 | 17.537 | 2 | 41.057 | 17.698 | 31.126 | 2 |
| 2025-06-26T06:38:00 | 54.133916 | 7.889904 | 2.0 | 17.541 | 2 | 41.062 | 17.702 | 31.127 | 2 |
| 2025-06-26T06:39:00 | 54.133616 | 7.889774 | 2.0 | 17.540 | 2 | 41.065 | 17.705 | 31.127 | 2 |
| 2025-06-26T06:40:00 | 54.133429 | 7.889865 | 2.0 | 17.540 | 2 | 41.064 | 17.703 | 31.128 | 2 |
| 2025-06-26T06:41:00 | 54.133352 | 7.890050 | 2.0 | 17.535 | 2 | 41.061 | 17.704 | 31.125 | 2 |
| 2025-06-26T06:42:00 | 54.133355 | 7.890201 | 2.0 | 17.529 | 2 | 41.060 | 17.698 | 31.128 | 2 |
| 2025-06-26T06:43:00 | 54.133415 | 7.890281 | 2.0 | 17.532 | 2 | 41.058 | 17.692 | 31.131 | 2 |
| 2025-06-26T06:44:00 | 54.133524 | 7.890306 | 2.0 | 17.537 | 2 | 41.059 | 17.696 | 31.129 | 2 |
| 2025-06-26T06:45:00 | 54.133639 | 7.890375 | 2.0 | 17.539 | 2 | 41.059 | 17.700 | 31.126 | 2 |
| 2025-06-26T06:46:00 | 54.133702 | 7.890511 | 2.0 | 17.540 | 2 | 41.062 | 17.704 | 31.125 | 2 |
| 2025-06-26T06:47:00 | 54.133753 | 7.890619 | 2.0 | 17.540 | 2 | 41.062 | 17.704 | 31.125 | 2 |
| 2025-06-26T06:48:00 | 54.133802 | 7.890703 | 2.0 | 17.537 | 2 | 41.060 | 17.703 | 31.125 | 2 |
| 2025-06-26T06:49:00 | 54.133866 | 7.890728 | 2.0 | 17.538 | 2 | 41.058 | 17.701 | 31.124 | 2 |
| 2025-06-26T06:50:00 | 54.133950 | 7.890710 | 2.0 | 17.539 | 2 | 41.057 | 17.701 | 31.124 | 2 |
| 2025-06-26T06:51:00 | 54.134057 | 7.890703 | 2.0 | 17.539 | 2 | 41.055 | 17.701 | 31.122 | 2 |
| 2025-06-26T06:52:00 | 54.134183 | 7.890733 | 2.0 | 17.539 | 2 | 41.056 | 17.701 | 31.123 | 2 |
| 2025-06-26T06:53:00 | 54.134308 | 7.890835 | 2.0 | 17.538 | 2 | 41.056 | 17.701 | 31.123 | 2 |
| 2025-06-26T06:54:00 | 54.134354 | 7.891009 | 2.0 | 17.526 | 2 | 41.055 | 17.698 | 31.124 | 2 |
| 2025-06-26T06:55:00 | 54.134312 | 7.891179 | 2.0 | 17.530 | 2 | 41.053 | 17.687 | 31.131 | 2 |
| 2025-06-26T06:56:00 | 54.134223 | 7.891247 | 2.0 | 17.528 | 2 | 41.052 | 17.691 | 31.127 | 2 |
| 2025-06-26T06:57:00 | 54.134087 | 7.891224 | 2.0 | 17.538 | 2 | 41.053 | 17.694 | 31.125 | 2 |
| 2025-06-26T06:58:00 | 54.133953 | 7.891262 | 2.0 | 17.537 | 2 | 41.053 | 17.700 | 31.121 | 2 |
| 2025-06-26T06:59:00 | 54.133903 | 7.891390 | 2.0 | 17.531 | 2 | 41.054 | 17.697 | 31.124 | 2 |
| 2025-06-26T07:00:00 | 54.133935 | 7.891545 | 2.0 | 17.526 | 2 | 41.051 | 17.691 | 31.126 | 2 |
| 2025-06-26T07:01:00 | 54.134018 | 7.891627 | 2.0 | 17.531 | 2 | 41.053 | 17.690 | 31.129 | 2 |
| 2025-06-26T07:02:00 | 54.134160 | 7.891668 | 2.0 | 17.528 | 2 | 41.054 | 17.692 | 31.128 | 2 |
| 2025-06-26T07:03:00 | 54.134339 | 7.891749 | 2.0 | 17.525 | 2 | 41.053 | 17.691 | 31.128 | 2 |
| 2025-06-26T07:04:00 | 54.134512 | 7.891891 | 2.0 | 17.518 | 2 | 41.052 | 17.686 | 31.131 | 2 |
| 2025-06-26T07:05:00 | 54.134640 | 7.892079 | 2.0 | 17.518 | 2 | 41.051 | 17.681 | 31.134 | 2 |
| 2025-06-26T07:06:00 | 54.134701 | 7.892237 | 2.0 | 17.522 | 2 | 41.051 | 17.682 | 31.133 | 2 |
| 2025-06-26T07:07:00 | 54.134718 | 7.892364 | 2.0 | 17.520 | 2 | 41.051 | 17.683 | 31.132 | 2 |
| 2025-06-26T07:08:00 | 54.134713 | 7.892489 | 2.0 | 17.519 | 2 | 41.050 | 17.682 | 31.132 | 2 |
| 2025-06-26T07:09:00 | 54.134676 | 7.892625 | 2.0 | 17.516 | 2 | 41.050 | 17.681 | 31.133 | 2 |
| 2025-06-26T07:10:00 | 54.134606 | 7.892764 | 2.0 | 17.515 | 2 | 41.048 | 17.677 | 31.134 | 2 |
| 2025-06-26T07:11:00 | 54.134524 | 7.892906 | 2.0 | 17.487 | 2 | 41.047 | 17.676 | 31.134 | 2 |
| 2025-06-26T07:12:00 | 54.134510 | 7.893059 | 2.0 | 17.522 | 2 | 41.039 | 17.652 | 31.146 | 2 |
| 2025-06-26T07:13:00 | 54.134587 | 7.893170 | 2.0 | 17.528 | 2 | 41.044 | 17.681 | 31.128 | 2 |
| 2025-06-26T07:14:00 | 54.134730 | 7.893242 | 2.0 | 17.528 | 2 | 41.049 | 17.688 | 31.127 | 2 |
| 2025-06-26T07:15:00 | 54.134897 | 7.893272 | 2.0 | 17.527 | 2 | 41.052 | 17.691 | 31.127 | 2 |
| 2025-06-26T07:16:00 | 54.135071 | 7.893302 | 2.0 | 17.526 | 2 | 41.050 | 17.688 | 31.128 | 2 |
| 2025-06-26T07:17:00 | 54.135244 | 7.893386 | 2.0 | 17.522 | 2 | 41.049 | 17.687 | 31.127 | 2 |
| 2025-06-26T07:18:00 | 54.135428 | 7.893488 | 2.0 | 17.518 | 2 | 41.048 | 17.683 | 31.130 | 2 |
| 2025-06-26T07:19:00 | 54.135622 | 7.893595 | 2.0 | 17.508 | 2 | 41.046 | 17.678 | 31.132 | 2 |
| 2025-06-26T07:20:00 | 54.135832 | 7.893715 | 2.0 | 17.509 | 2 | 41.044 | 17.670 | 31.136 | 2 |
| 2025-06-26T07:21:00 | 54.136040 | 7.893872 | 2.0 | 17.507 | 2 | 41.043 | 17.670 | 31.135 | 2 |
| 2025-06-26T07:22:00 | 54.136221 | 7.894086 | 2.0 | 17.505 | 2 | 41.042 | 17.668 | 31.136 | 2 |
| 2025-06-26T07:23:00 | 54.136336 | 7.894330 | 2.0 | 17.503 | 2 | 41.041 | 17.667 | 31.136 | 2 |
| 2025-06-26T07:24:00 | 54.136344 | 7.894499 | 2.0 | 17.507 | 2 | 41.040 | 17.666 | 31.136 | 2 |
| 2025-06-26T07:25:00 | 54.136302 | 7.894660 | 2.0 | 17.510 | 2 | 41.039 | 17.669 | 31.133 | 2 |
| 2025-06-26T07:26:00 | 54.136275 | 7.894843 | 2.0 | 17.445 | 2 | 41.039 | 17.669 | 31.133 | 2 |
| 2025-06-26T07:27:00 | 54.136285 | 7.895074 | 2.0 | 17.271 | 2 | 41.032 | 17.570 | 31.203 | 2 |
| 2025-06-26T07:28:00 | 54.136304 | 7.895349 | 2.0 | 17.314 | 2 | 41.002 | 17.449 | 31.270 | 2 |
| 2025-06-26T07:29:00 | 54.136315 | 7.895624 | 2.0 | 17.260 | 2 | 40.999 | 17.471 | 31.251 | 2 |
| 2025-06-26T07:30:00 | 54.136328 | 7.895825 | 2.0 | 17.119 | 2 | 40.994 | 17.402 | 31.300 | 2 |
| 2025-06-26T07:31:00 | 54.136353 | 7.895891 | 2.0 | 16.926 | 2 | 40.980 | 17.258 | 31.399 | 2 |
| 2025-06-26T07:32:00 | 54.136433 | 7.895990 | 2.0 | 16.914 | 2 | 40.946 | 17.106 | 31.488 | 2 |
| 2025-06-26T07:33:00 | 54.136533 | 7.896116 | 2.0 | 16.922 | 2 | 40.927 | 17.085 | 31.489 | 2 |
| 2025-06-26T07:34:00 | 54.136621 | 7.896211 | 2.0 | 16.941 | 2 | 40.927 | 17.103 | 31.475 | 2 |
| 2025-06-26T07:35:00 | 54.136690 | 7.896279 | 2.0 | 16.886 | 2 | 40.933 | 17.108 | 31.476 | 2 |
| 2025-06-26T07:36:00 | 54.136715 | 7.896318 | 2.0 | 16.836 | 2 | 40.930 | 17.039 | 31.527 | 2 |
| 2025-06-26T07:37:00 | 54.136687 | 7.896460 | 2.0 | 16.699 | 2 | 40.914 | 16.979 | 31.560 | 2 |
| 2025-06-26T07:38:00 | 54.137015 | 7.897614 | 2.0 | 17.295 | 2 | 40.892 | 16.961 | 31.555 | 2 |
| 2025-06-26T07:39:00 | 54.137928 | 7.900078 | 2.0 | 17.425 | 2 | 40.950 | 17.458 | 31.219 | 2 |
| 2025-06-26T07:40:00 | 54.139143 | 7.903407 | 2.0 | 17.529 | 2 | 40.999 | 17.567 | 31.177 | 2 |
| 2025-06-26T07:41:00 | 54.140576 | 7.907308 | 2.0 | 17.432 | 2 | 41.004 | 17.617 | 31.143 | 2 |
| 2025-06-26T07:42:00 | 54.142087 | 7.911445 | 2.0 | 17.318 | 2 | 40.997 | 17.614 | 31.139 | 2 |
| 2025-06-26T07:43:00 | 54.143627 | 7.915686 | 2.0 | 17.338 | 2 | 40.995 | 17.456 | 31.259 | 2 |
| 2025-06-26T07:44:00 | 54.145551 | 7.919526 | 2.0 | 17.522 | 2 | 40.972 | 17.515 | 31.194 | 2 |
| 2025-06-26T07:45:00 | 54.147568 | 7.923296 | 2.0 | 17.615 | 2 | 40.979 | 17.680 | 31.074 | 2 |
| 2025-06-26T07:46:00 | 54.149492 | 7.927213 | 2.0 | 17.650 | 2 | 40.989 | 17.762 | 31.020 | 2 |
| 2025-06-26T07:47:00 | 54.151131 | 7.931498 | 2.0 | 17.677 | 2 | 40.991 | 17.808 | 30.986 | 2 |
| 2025-06-26T07:48:00 | 54.152889 | 7.935586 | 2.0 | 17.660 | 2 | 40.992 | 17.830 | 30.970 | 2 |
| 2025-06-26T07:49:00 | 54.154917 | 7.939330 | 2.0 | 17.618 | 2 | 40.990 | 17.816 | 30.979 | 2 |
| 2025-06-26T07:50:00 | 54.157106 | 7.942774 | 2.0 | 17.652 | 2 | 40.982 | 17.778 | 31.001 | 2 |
| 2025-06-26T07:51:00 | 54.159550 | 7.945724 | 2.0 | 17.650 | 2 | 40.980 | 17.808 | 30.977 | 2 |
| 2025-06-26T07:52:00 | 54.162376 | 7.947323 | 2.0 | 17.636 | 2 | 40.973 | 17.808 | 30.971 | 2 |
| 2025-06-26T07:53:00 | 54.165327 | 7.947200 | 2.0 | 17.627 | 2 | 40.964 | 17.797 | 30.972 | 2 |
| 2025-06-26T07:54:00 | 54.168348 | 7.947164 | 2.0 | 17.604 | 2 | 40.957 | 17.786 | 30.974 | 2 |
| 2025-06-26T07:55:00 | 54.171394 | 7.946952 | 2.0 | 17.558 | 2 | 40.948 | 17.732 | 31.008 | 2 |
| 2025-06-26T07:56:00 | 54.174454 | 7.946892 | 2.0 | 17.482 | 2 | 40.932 | 17.703 | 31.016 | 2 |
| 2025-06-26T07:57:00 | 54.177527 | 7.946750 | 2.0 | 17.596 | 2 | 40.918 | 17.676 | 31.025 | 2 |
| 2025-06-26T07:58:00 | 54.180622 | 7.946667 | 2.0 | 17.557 | 2 | 40.931 | 17.747 | 30.982 | 2 |
| 2025-06-26T07:59:00 | 54.183718 | 7.946523 | 2.0 | 17.464 | 2 | 40.940 | 17.697 | 31.028 | 2 |
| 2025-06-26T08:00:00 | 54.186782 | 7.946476 | 2.0 | 17.495 | 2 | 40.936 | 17.640 | 31.068 | 2 |
| 2025-06-26T08:01:00 | 54.189832 | 7.946439 | 2.0 | 17.462 | 2 | 40.944 | 17.653 | 31.065 | 2 |
| 2025-06-26T08:02:00 | 54.192864 | 7.946389 | 2.0 | 17.337 | 2 | 40.956 | 17.605 | 31.111 | 2 |
| 2025-06-26T08:03:00 | 54.195843 | 7.946305 | 2.0 | 16.902 | 2 | 40.964 | 17.425 | 31.256 | 2 |
| 2025-06-26T08:04:00 | 54.198751 | 7.946245 | 2.0 | 16.684 | 2 | 40.967 | 17.056 | 31.546 | 2 |
| 2025-06-26T08:05:00 | 54.201597 | 7.946118 | 2.0 | 16.642 | 2 | 40.945 | 16.867 | 31.675 | 2 |
| 2025-06-26T08:06:00 | 54.204424 | 7.945994 | 2.0 | 16.491 | 2 | 40.935 | 16.827 | 31.698 | 2 |
| 2025-06-26T08:07:00 | 54.207216 | 7.945969 | 2.0 | 16.066 | 2 | 40.904 | 16.571 | 31.874 | 2 |
| 2025-06-26T08:08:00 | 54.209960 | 7.945806 | 2.0 | 15.859 | 2 | 40.805 | 16.290 | 32.012 | 2 |
| 2025-06-26T08:09:00 | 54.212642 | 7.945828 | 2.0 | 15.684 | 2 | 40.716 | 15.998 | 32.170 | 2 |
| 2025-06-26T08:10:00 | 54.215292 | 7.945729 | 2.0 | 15.693 | 2 | 40.655 | 15.881 | 32.211 | 2 |
| 2025-06-26T08:11:00 | 54.217880 | 7.945272 | 2.0 | 15.698 | 2 | 40.651 | 15.878 | 32.210 | 2 |
| 2025-06-26T08:12:00 | 54.220396 | 7.944351 | 2.0 | 15.699 | 2 | 40.653 | 15.879 | 32.211 | 2 |
| 2025-06-26T08:13:00 | 54.222841 | 7.943028 | 2.0 | 15.699 | 2 | 40.656 | 15.878 | 32.214 | 2 |
| 2025-06-26T08:14:00 | 54.225328 | 7.941888 | 2.0 | 15.730 | 2 | 40.659 | 15.880 | 32.215 | 2 |
| 2025-06-26T08:15:00 | 54.227300 | 7.939443 | 2.0 | 15.925 | 2 | 40.686 | 15.973 | 32.164 | 2 |
| 2025-06-26T08:16:00 | 54.229360 | 7.937061 | 2.0 | 16.006 | 2 | 40.735 | 16.101 | 32.103 | 2 |
| 2025-06-26T08:17:00 | 54.231422 | 7.934598 | 2.0 | 16.156 | 2 | 40.765 | 16.195 | 32.054 | 2 |
| 2025-06-26T08:18:00 | 54.233496 | 7.932049 | 2.0 | 16.339 | 2 | 40.792 | 16.343 | 31.958 | 2 |
| 2025-06-26T08:19:00 | 54.235622 | 7.929612 | 2.0 | 16.343 | 2 | 40.817 | 16.510 | 31.847 | 2 |
| 2025-06-26T08:20:00 | 54.237736 | 7.927141 | 2.0 | 16.259 | 2 | 40.815 | 16.490 | 31.861 | 2 |
| 2025-06-26T08:21:00 | 54.239824 | 7.924691 | 2.0 | 16.239 | 2 | 40.783 | 16.429 | 31.882 | 2 |
| 2025-06-26T08:22:00 | 54.241893 | 7.922297 | 2.0 | 16.205 | 2 | 40.776 | 16.405 | 31.895 | 2 |
| 2025-06-26T08:23:00 | 54.243926 | 7.919888 | 2.0 | 16.173 | 2 | 40.774 | 16.372 | 31.920 | 2 |
| 2025-06-26T08:24:00 | 54.246035 | 7.917653 | 2.0 | 16.151 | 2 | 40.776 | 16.344 | 31.944 | 2 |
| 2025-06-26T08:25:00 | 54.248134 | 7.915356 | 2.0 | 16.121 | 2 | 40.768 | 16.317 | 31.958 | 2 |
| 2025-06-26T08:26:00 | 54.250257 | 7.913094 | 2.0 | 16.114 | 2 | 40.751 | 16.294 | 31.962 | 2 |
| 2025-06-26T08:27:00 | 54.252352 | 7.910852 | 2.0 | 16.124 | 2 | 40.743 | 16.287 | 31.961 | 2 |
| 2025-06-26T08:28:00 | 54.254523 | 7.908684 | 2.0 | 16.135 | 2 | 40.745 | 16.296 | 31.955 | 2 |
| 2025-06-26T08:29:00 | 54.256710 | 7.906464 | 2.0 | 16.144 | 2 | 40.750 | 16.306 | 31.951 | 2 |
| 2025-06-26T08:30:00 | 54.258882 | 7.904209 | 2.0 | 16.149 | 2 | 40.755 | 16.314 | 31.949 | 2 |
| 2025-06-26T08:31:00 | 54.261099 | 7.902000 | 2.0 | 16.155 | 2 | 40.758 | 16.322 | 31.946 | 2 |
| 2025-06-26T08:32:00 | 54.263162 | 7.899438 | 2.0 | 16.160 | 2 | 40.760 | 16.326 | 31.944 | 2 |
| 2025-06-26T08:33:00 | 54.265225 | 7.896832 | 2.0 | 16.160 | 2 | 40.762 | 16.331 | 31.942 | 2 |
| 2025-06-26T08:34:00 | 54.267334 | 7.894296 | 2.0 | 16.162 | 2 | 40.763 | 16.331 | 31.943 | 2 |
| 2025-06-26T08:35:00 | 54.269447 | 7.891686 | 2.0 | 16.167 | 2 | 40.766 | 16.333 | 31.944 | 2 |
| 2025-06-26T08:36:00 | 54.271566 | 7.889010 | 2.0 | 16.176 | 2 | 40.768 | 16.338 | 31.942 | 2 |
| 2025-06-26T08:37:00 | 54.273729 | 7.886374 | 2.0 | 16.190 | 2 | 40.771 | 16.347 | 31.937 | 2 |
| 2025-06-26T08:38:00 | 54.275874 | 7.883705 | 2.0 | 16.204 | 2 | 40.775 | 16.362 | 31.928 | 2 |
| 2025-06-26T08:39:00 | 54.278035 | 7.880988 | 2.0 | 16.195 | 2 | 40.784 | 16.372 | 31.928 | 2 |
| 2025-06-26T08:40:00 | 54.280182 | 7.878275 | 2.0 | 16.176 | 2 | 40.789 | 16.358 | 31.944 | 2 |
| 2025-06-26T08:41:00 | 54.282357 | 7.875658 | 2.0 | 16.184 | 2 | 40.784 | 16.349 | 31.947 | 2 |
| 2025-06-26T08:42:00 | 54.284514 | 7.872987 | 2.0 | 16.189 | 2 | 40.786 | 16.353 | 31.945 | 2 |
| 2025-06-26T08:43:00 | 54.286664 | 7.870324 | 2.0 | 16.229 | 2 | 40.789 | 16.363 | 31.940 | 2 |
| 2025-06-26T08:44:00 | 54.288803 | 7.867650 | 2.0 | 16.244 | 2 | 40.792 | 16.401 | 31.912 | 2 |
| 2025-06-26T08:45:00 | 54.290924 | 7.864970 | 2.0 | 16.220 | 2 | 40.798 | 16.409 | 31.911 | 2 |
| 2025-06-26T08:46:00 | 54.293045 | 7.862322 | 2.0 | 16.208 | 2 | 40.805 | 16.386 | 31.935 | 2 |
| 2025-06-26T08:47:00 | 54.295192 | 7.859667 | 2.0 | 16.200 | 2 | 40.808 | 16.379 | 31.944 | 2 |
| 2025-06-26T08:48:00 | 54.297338 | 7.857018 | 2.0 | 16.116 | 2 | 40.816 | 16.354 | 31.971 | 2 |
| 2025-06-26T08:49:00 | 54.299464 | 7.854337 | 2.0 | 16.093 | 2 | 40.821 | 16.287 | 32.029 | 2 |
| 2025-06-26T08:50:00 | 54.301589 | 7.851628 | 2.0 | 16.037 | 2 | 40.827 | 16.252 | 32.062 | 2 |
| 2025-06-26T08:51:00 | 54.303687 | 7.848968 | 2.0 | 16.063 | 2 | 40.848 | 16.215 | 32.110 | 2 |
| 2025-06-26T08:52:00 | 54.305802 | 7.846357 | 2.0 | 16.103 | 2 | 40.856 | 16.240 | 32.097 | 2 |
| 2025-06-26T08:53:00 | 54.307916 | 7.843718 | 2.0 | 16.147 | 2 | 40.865 | 16.276 | 32.076 | 2 |
| 2025-06-26T08:54:00 | 54.310022 | 7.841116 | 2.0 | 16.186 | 2 | 40.877 | 16.320 | 32.051 | 2 |
| 2025-06-26T08:55:00 | 54.312112 | 7.838442 | 2.0 | 16.230 | 2 | 40.885 | 16.357 | 32.029 | 2 |
| 2025-06-26T08:56:00 | 54.314217 | 7.835797 | 2.0 | 16.283 | 2 | 40.891 | 16.404 | 31.996 | 2 |
| 2025-06-26T08:57:00 | 54.316345 | 7.833185 | 2.0 | 16.334 | 2 | 40.900 | 16.458 | 31.961 | 2 |
| 2025-06-26T08:58:00 | 54.318468 | 7.830575 | 2.0 | 16.357 | 2 | 40.910 | 16.499 | 31.937 | 2 |
| 2025-06-26T08:59:00 | 54.320587 | 7.827900 | 2.0 | 16.387 | 2 | 40.912 | 16.525 | 31.918 | 2 |
| 2025-06-26T09:00:00 | 54.322722 | 7.825288 | 2.0 | 16.418 | 2 | 40.918 | 16.555 | 31.899 | 2 |
| 2025-06-26T09:01:00 | 54.324851 | 7.822657 | 2.0 | 16.460 | 2 | 40.921 | 16.587 | 31.876 | 2 |
| 2025-06-26T09:02:00 | 54.326984 | 7.820029 | 2.0 | 16.598 | 2 | 40.923 | 16.631 | 31.843 | 2 |
| 2025-06-26T09:03:00 | 54.329136 | 7.817396 | 2.0 | 16.930 | 2 | 40.916 | 16.817 | 31.689 | 2 |
| 2025-06-26T09:04:00 | 54.331279 | 7.814733 | 2.0 | 17.078 | 2 | 40.916 | 17.111 | 31.459 | 2 |
| 2025-06-26T09:05:00 | 54.333416 | 7.812083 | 2.0 | 17.117 | 2 | 40.933 | 17.228 | 31.382 | 2 |
| 2025-06-26T09:06:00 | 54.335529 | 7.809384 | 2.0 | 17.118 | 2 | 40.940 | 17.267 | 31.358 | 2 |
| 2025-06-26T09:07:00 | 54.337680 | 7.806741 | 2.0 | 17.130 | 2 | 40.946 | 17.273 | 31.359 | 2 |
| 2025-06-26T09:08:00 | 54.339855 | 7.804108 | 2.0 | 17.154 | 2 | 40.954 | 17.294 | 31.349 | 2 |
| 2025-06-26T09:09:00 | 54.342001 | 7.801442 | 2.0 | 17.121 | 2 | 40.979 | 17.302 | 31.364 | 2 |
| 2025-06-26T09:10:00 | 54.344151 | 7.798819 | 2.0 | 17.093 | 2 | 41.001 | 17.276 | 31.403 | 2 |
| 2025-06-26T09:11:00 | 54.346287 | 7.796163 | 2.0 | 17.044 | 2 | 41.013 | 17.245 | 31.438 | 2 |
| 2025-06-26T09:12:00 | 54.348454 | 7.793488 | 2.0 | 17.057 | 2 | 41.032 | 17.216 | 31.476 | 2 |
| 2025-06-26T09:13:00 | 54.350622 | 7.790798 | 2.0 | 17.024 | 2 | 41.068 | 17.212 | 31.510 | 2 |
| 2025-06-26T09:14:00 | 54.352786 | 7.788103 | 2.0 | 16.981 | 2 | 41.079 | 17.182 | 31.543 | 2 |
| 2025-06-26T09:15:00 | 54.354963 | 7.785434 | 2.0 | 16.965 | 2 | 41.090 | 17.145 | 31.581 | 2 |
| 2025-06-26T09:16:00 | 54.357126 | 7.782693 | 2.0 | 16.948 | 2 | 41.105 | 17.131 | 31.605 | 2 |
| 2025-06-26T09:17:00 | 54.359314 | 7.779961 | 2.0 | 16.889 | 2 | 41.103 | 17.104 | 31.625 | 2 |
| 2025-06-26T09:18:00 | 54.361492 | 7.777210 | 2.0 | 16.765 | 2 | 41.086 | 17.036 | 31.663 | 2 |
| 2025-06-26T09:19:00 | 54.363655 | 7.774464 | 2.0 | 16.583 | 2 | 41.035 | 16.900 | 31.727 | 2 |
| 2025-06-26T09:20:00 | 54.365820 | 7.771751 | 2.0 | 16.509 | 2 | 40.961 | 16.735 | 31.793 | 2 |
| 2025-06-26T09:21:00 | 54.368002 | 7.769084 | 2.0 | 16.537 | 2 | 40.923 | 16.690 | 31.796 | 2 |
| 2025-06-26T09:22:00 | 54.370148 | 7.766407 | 2.0 | 16.555 | 2 | 40.927 | 16.709 | 31.784 | 2 |
| 2025-06-26T09:23:00 | 54.372281 | 7.763691 | 2.0 | 16.593 | 2 | 40.934 | 16.726 | 31.777 | 2 |
| 2025-06-26T09:24:00 | 54.374408 | 7.760966 | 2.0 | 16.627 | 2 | 40.948 | 16.770 | 31.754 | 2 |
| 2025-06-26T09:25:00 | 54.376658 | 7.758515 | 2.0 | 16.635 | 2 | 40.970 | 16.793 | 31.755 | 2 |
| 2025-06-26T09:26:00 | 54.378909 | 7.756054 | 2.0 | 16.642 | 2 | 40.983 | 16.805 | 31.757 | 2 |
| 2025-06-26T09:27:00 | 54.381224 | 7.753784 | 2.0 | 16.628 | 2 | 40.990 | 16.806 | 31.762 | 2 |
| 2025-06-26T09:28:00 | 54.383922 | 7.753762 | 2.0 | 16.661 | 2 | 40.991 | 16.797 | 31.770 | 2 |
| 2025-06-26T09:29:00 | 54.386245 | 7.754233 | 2.0 | 16.628 | 2 | 41.014 | 16.817 | 31.774 | 2 |
| 2025-06-26T09:30:00 | 54.388089 | 7.754360 | 2.0 | 16.644 | 2 | 41.012 | 16.793 | 31.791 | 2 |
| 2025-06-26T09:31:00 | 54.389645 | 7.754828 | 2.0 | 16.602 | 2 | 41.013 | 16.807 | 31.781 | 2 |
| 2025-06-26T09:32:00 | 54.391065 | 7.755308 | 2.0 | 16.630 | 2 | 41.003 | 16.773 | 31.799 | 2 |
| 2025-06-26T09:33:00 | 54.392395 | 7.755756 | 2.0 | 16.619 | 2 | 41.005 | 16.780 | 31.796 | 2 |
| 2025-06-26T09:34:00 | 54.393375 | 7.755668 | 2.0 | 16.575 | 2 | 41.001 | 16.769 | 31.801 | 2 |
| 2025-06-26T09:35:00 | 54.394139 | 7.755518 | 2.0 | 16.602 | 2 | 40.993 | 16.747 | 31.811 | 2 |
| 2025-06-26T09:36:00 | 54.394663 | 7.755663 | 2.0 | 16.551 | 2 | 41.002 | 16.769 | 31.802 | 2 |
| 2025-06-26T09:37:00 | 54.395042 | 7.756016 | 2.0 | 16.487 | 2 | 40.968 | 16.691 | 31.834 | 2 |
| 2025-06-26T09:38:00 | 54.395263 | 7.756304 | 2.0 | 16.486 | 2 | 40.947 | 16.665 | 31.837 | 2 |
| 2025-06-26T09:39:00 | 54.395322 | 7.756531 | 2.0 | 16.511 | 2 | 40.958 | 16.669 | 31.843 | 2 |
| 2025-06-26T09:40:00 | 54.395345 | 7.756708 | 2.0 | 16.517 | 2 | 40.974 | 16.693 | 31.838 | 2 |
| 2025-06-26T09:41:00 | 54.395382 | 7.756895 | 2.0 | 16.527 | 2 | 40.980 | 16.701 | 31.837 | 2 |
| 2025-06-26T09:42:00 | 54.395399 | 7.757005 | 2.0 | 16.524 | 2 | 40.990 | 16.712 | 31.836 | 2 |
| 2025-06-26T09:43:00 | 54.395366 | 7.757116 | 2.0 | 16.530 | 2 | 40.988 | 16.713 | 31.834 | 2 |
| 2025-06-26T09:44:00 | 54.395339 | 7.757247 | 2.0 | 16.521 | 2 | 40.986 | 16.718 | 31.828 | 2 |
| 2025-06-26T09:45:00 | 54.395425 | 7.757227 | 2.0 | 16.501 | 2 | 40.980 | 16.706 | 31.833 | 2 |
| 2025-06-26T09:46:00 | 54.395467 | 7.757106 | 2.0 | 16.491 | 2 | 40.976 | 16.690 | 31.842 | 2 |
| 2025-06-26T09:47:00 | 54.395491 | 7.756960 | 2.0 | 16.498 | 2 | 40.976 | 16.681 | 31.849 | 2 |
| 2025-06-26T09:48:00 | 54.395479 | 7.756891 | 2.0 | 16.509 | 2 | 40.976 | 16.693 | 31.839 | 2 |
| 2025-06-26T09:49:00 | 54.395463 | 7.756838 | 2.0 | 16.504 | 2 | 40.971 | 16.700 | 31.830 | 2 |
| 2025-06-26T09:50:00 | 54.395450 | 7.756793 | 2.0 | 16.491 | 2 | 40.972 | 16.689 | 31.839 | 2 |
| 2025-06-26T09:51:00 | 54.395438 | 7.756768 | 2.0 | 16.521 | 2 | 40.967 | 16.689 | 31.835 | 2 |
| 2025-06-26T09:52:00 | 54.395425 | 7.756755 | 2.0 | 16.490 | 2 | 40.982 | 16.706 | 31.834 | 2 |
| 2025-06-26T09:53:00 | 54.395419 | 7.756740 | 2.0 | 16.476 | 2 | 40.969 | 16.681 | 31.843 | 2 |
| 2025-06-26T09:54:00 | 54.395407 | 7.756730 | 2.0 | 16.502 | 2 | 40.960 | 16.668 | 31.845 | 2 |
| 2025-06-26T09:55:00 | 54.395378 | 7.756720 | 2.0 | 16.531 | 2 | 40.981 | 16.703 | 31.836 | 2 |
| 2025-06-26T09:56:00 | 54.395329 | 7.756677 | 2.0 | 16.535 | 2 | 40.995 | 16.722 | 31.833 | 2 |
| 2025-06-26T09:57:00 | 54.395309 | 7.756612 | 2.0 | 16.525 | 2 | 40.998 | 16.725 | 31.833 | 2 |
| 2025-06-26T09:58:00 | 54.395298 | 7.756578 | 2.0 | 16.509 | 2 | 40.995 | 16.713 | 31.840 | 2 |
| 2025-06-26T09:59:00 | 54.395270 | 7.756574 | 2.0 | 16.487 | 2 | 40.984 | 16.696 | 31.844 | 2 |
| 2025-06-26T10:00:00 | 54.395238 | 7.756504 | 2.0 | 16.485 | 2 | 40.976 | 16.680 | 31.850 | 2 |
| 2025-06-26T10:01:00 | 54.395220 | 7.756385 | 2.0 | 16.488 | 2 | 40.974 | 16.679 | 31.849 | 2 |
| 2025-06-26T10:02:00 | 54.395209 | 7.756284 | 2.0 | 16.476 | 2 | 40.971 | 16.673 | 31.851 | 2 |
| 2025-06-26T10:03:00 | 54.395205 | 7.756212 | 2.0 | 16.476 | 2 | 40.970 | 16.672 | 31.851 | 2 |
| 2025-06-26T10:04:00 | 54.395221 | 7.756162 | 2.0 | 16.471 | 2 | 40.966 | 16.668 | 31.851 | 2 |
| 2025-06-26T10:05:00 | 54.395239 | 7.756140 | 2.0 | 16.461 | 2 | 40.953 | 16.662 | 31.844 | 2 |
| 2025-06-26T10:06:00 | 54.395260 | 7.756113 | 2.0 | 16.447 | 2 | 40.944 | 16.651 | 31.845 | 2 |
| 2025-06-26T10:07:00 | 54.395281 | 7.756069 | 2.0 | 16.435 | 2 | 40.931 | 16.639 | 31.843 | 2 |
| 2025-06-26T10:08:00 | 54.395308 | 7.756014 | 2.0 | 16.434 | 2 | 40.918 | 16.628 | 31.841 | 2 |
| 2025-06-26T10:09:00 | 54.395323 | 7.755949 | 2.0 | 16.430 | 2 | 40.922 | 16.627 | 31.845 | 2 |
| 2025-06-26T10:10:00 | 54.395323 | 7.755908 | 2.0 | 16.458 | 2 | 40.914 | 16.625 | 31.840 | 2 |
| 2025-06-26T10:11:00 | 54.395318 | 7.755812 | 2.0 | 16.557 | 2 | 40.923 | 16.669 | 31.813 | 2 |
| 2025-06-26T10:12:00 | 54.395303 | 7.755689 | 2.0 | 16.523 | 2 | 40.972 | 16.737 | 31.801 | 2 |
| 2025-06-26T10:13:00 | 54.395295 | 7.755591 | 2.0 | 16.516 | 2 | 40.965 | 16.714 | 31.813 | 2 |
| 2025-06-26T10:14:00 | 54.395293 | 7.755511 | 2.0 | 16.515 | 2 | 40.960 | 16.711 | 31.811 | 2 |
| 2025-06-26T10:15:00 | 54.395280 | 7.755586 | 2.0 | 16.463 | 2 | 40.969 | 16.690 | 31.836 | 2 |
| 2025-06-26T10:16:00 | 54.395303 | 7.755852 | 2.0 | 16.469 | 2 | 40.966 | 16.664 | 31.854 | 2 |
| 2025-06-26T10:17:00 | 54.395421 | 7.756105 | 2.0 | 16.431 | 2 | 40.959 | 16.660 | 31.851 | 2 |
| 2025-06-26T10:18:00 | 54.395542 | 7.756256 | 2.0 | 16.430 | 2 | 40.954 | 16.628 | 31.872 | 2 |
| 2025-06-26T10:19:00 | 54.395681 | 7.756371 | 2.0 | 16.422 | 2 | 40.947 | 16.624 | 31.869 | 2 |
| 2025-06-26T10:20:00 | 54.395857 | 7.756529 | 2.0 | 16.405 | 2 | 40.943 | 16.613 | 31.874 | 2 |
| 2025-06-26T10:21:00 | 54.396005 | 7.756842 | 2.0 | 16.405 | 2 | 40.939 | 16.602 | 31.880 | 2 |
| 2025-06-26T10:22:00 | 54.395970 | 7.757045 | 2.0 | 16.411 | 2 | 40.936 | 16.605 | 31.875 | 2 |
| 2025-06-26T10:23:00 | 54.395717 | 7.756722 | 2.0 | 16.428 | 2 | 40.940 | 16.612 | 31.873 | 2 |
| 2025-06-26T10:24:00 | 54.395492 | 7.756058 | 2.0 | 16.428 | 2 | 40.934 | 16.627 | 31.855 | 2 |
| 2025-06-26T10:25:00 | 54.395381 | 7.755315 | 2.0 | 16.422 | 2 | 40.929 | 16.621 | 31.856 | 2 |
| 2025-06-26T10:26:00 | 54.395429 | 7.754542 | 2.0 | 16.404 | 2 | 40.931 | 16.618 | 31.860 | 2 |
| 2025-06-26T10:27:00 | 54.395530 | 7.753722 | 2.0 | 16.382 | 2 | 40.934 | 16.598 | 31.879 | 2 |
| 2025-06-26T10:28:00 | 54.395631 | 7.752936 | 2.0 | 16.364 | 2 | 40.931 | 16.580 | 31.890 | 2 |
| 2025-06-26T10:29:00 | 54.395687 | 7.752441 | 2.0 | 16.362 | 2 | 40.922 | 16.560 | 31.898 | 2 |
| 2025-06-26T10:30:00 | 54.395742 | 7.752239 | 2.0 | 16.359 | 2 | 40.904 | 16.565 | 31.879 | 2 |
| 2025-06-26T10:31:00 | 54.395774 | 7.752125 | 2.0 | 16.366 | 2 | 40.901 | 16.557 | 31.882 | 2 |
| 2025-06-26T10:32:00 | 54.395738 | 7.751994 | 2.0 | 16.371 | 2 | 40.885 | 16.568 | 31.860 | 2 |
| 2025-06-26T10:33:00 | 54.395683 | 7.751956 | 2.0 | 16.350 | 2 | 40.896 | 16.564 | 31.873 | 2 |
| 2025-06-26T10:34:00 | 54.395678 | 7.751934 | 2.0 | 16.353 | 2 | 40.912 | 16.554 | 31.894 | 2 |
| 2025-06-26T10:35:00 | 54.395693 | 7.751900 | 2.0 | 16.352 | 2 | 40.914 | 16.552 | 31.898 | 2 |
| 2025-06-26T10:36:00 | 54.395680 | 7.751849 | 2.0 | 16.351 | 2 | 40.911 | 16.553 | 31.894 | 2 |
| 2025-06-26T10:37:00 | 54.395661 | 7.751919 | 2.0 | 16.356 | 2 | 40.911 | 16.553 | 31.894 | 2 |
| 2025-06-26T10:38:00 | 54.395631 | 7.751972 | 2.0 | 16.358 | 2 | 40.915 | 16.556 | 31.895 | 2 |
| 2025-06-26T10:39:00 | 54.395590 | 7.751968 | 2.0 | 16.362 | 2 | 40.910 | 16.562 | 31.886 | 2 |
| 2025-06-26T10:40:00 | 54.395572 | 7.751956 | 2.0 | 16.371 | 2 | 40.916 | 16.562 | 31.892 | 2 |
| 2025-06-26T10:41:00 | 54.395550 | 7.751940 | 2.0 | 16.409 | 2 | 40.882 | 16.583 | 31.845 | 2 |
| 2025-06-26T10:42:00 | 54.395516 | 7.751993 | 2.0 | 16.397 | 2 | 40.852 | 16.601 | 31.805 | 2 |
| 2025-06-26T10:43:00 | 54.395479 | 7.752004 | 2.0 | 16.398 | 2 | 40.871 | 16.601 | 31.821 | 2 |
| 2025-06-26T10:44:00 | 54.395420 | 7.752095 | 2.0 | 16.393 | 2 | 40.892 | 16.599 | 31.841 | 2 |
| 2025-06-26T10:45:00 | 54.395392 | 7.752141 | 2.0 | 16.397 | 2 | 40.899 | 16.597 | 31.849 | 2 |
| 2025-06-26T10:46:00 | 54.395343 | 7.752218 | 2.0 | 16.407 | 2 | 40.905 | 16.600 | 31.852 | 2 |
| 2025-06-26T10:47:00 | 54.395357 | 7.752242 | 2.0 | 16.409 | 2 | 40.888 | 16.610 | 31.829 | 2 |
| 2025-06-26T10:48:00 | 54.395375 | 7.752206 | 2.0 | 16.409 | 2 | 40.857 | 16.612 | 31.801 | 2 |
| 2025-06-26T10:49:00 | 54.395356 | 7.752238 | 2.0 | 16.404 | 2 | 40.829 | 16.612 | 31.776 | 2 |
| 2025-06-26T10:50:00 | 54.395351 | 7.752274 | 2.0 | 16.402 | 2 | 40.856 | 16.608 | 31.803 | 2 |
| 2025-06-26T10:51:00 | 54.395315 | 7.752301 | 2.0 | 16.398 | 2 | 40.858 | 16.605 | 31.807 | 2 |
| 2025-06-26T10:52:00 | 54.395279 | 7.752362 | 2.0 | 16.394 | 2 | 40.915 | 16.602 | 31.859 | 2 |
| 2025-06-26T10:53:00 | 54.395221 | 7.752433 | 2.0 | 16.393 | 2 | 40.893 | 16.598 | 31.843 | 2 |
| 2025-06-26T10:54:00 | 54.395161 | 7.752578 | 2.0 | 16.389 | 2 | 40.889 | 16.600 | 31.838 | 2 |
| 2025-06-26T10:55:00 | 54.395171 | 7.752650 | 2.0 | 16.386 | 2 | 40.885 | 16.596 | 31.838 | 2 |
| 2025-06-26T10:56:00 | 54.395144 | 7.752689 | 2.0 | 16.384 | 2 | 40.882 | 16.592 | 31.838 | 2 |
| 2025-06-26T10:57:00 | 54.395136 | 7.752730 | 2.0 | 16.380 | 2 | 40.895 | 16.591 | 31.850 | 2 |
| 2025-06-26T10:58:00 | 54.395133 | 7.752815 | 2.0 | 16.379 | 2 | 40.831 | 16.587 | 31.798 | 2 |
| 2025-06-26T10:59:00 | 54.395120 | 7.752853 | 2.0 | 16.385 | 2 | 40.793 | 16.593 | 31.760 | 2 |
| 2025-06-26T11:00:00 | 54.395077 | 7.752909 | 2.0 | 16.374 | 2 | 40.837 | 16.587 | 31.803 | 2 |
| 2025-06-26T11:01:00 | 54.395033 | 7.753039 | 2.0 | 16.390 | 2 | 40.856 | 16.589 | 31.818 | 2 |
| 2025-06-26T11:02:00 | 54.395039 | 7.753111 | 2.0 | 16.398 | 2 | 40.840 | 16.598 | 31.797 | 2 |
| 2025-06-26T11:03:00 | 54.395021 | 7.753143 | 2.0 | 16.387 | 2 | 40.840 | 16.607 | 31.790 | 2 |
| 2025-06-26T11:04:00 | 54.394968 | 7.753182 | 2.0 | 16.390 | 2 | 40.897 | 16.593 | 31.850 | 2 |
| 2025-06-26T11:05:00 | 54.394936 | 7.753220 | 2.0 | 16.392 | 2 | 40.857 | 16.606 | 31.805 | 2 |
| 2025-06-26T11:06:00 | 54.394932 | 7.753313 | 2.0 | 16.401 | 2 | 40.881 | 16.600 | 31.831 | 2 |
| 2025-06-26T11:07:00 | 54.394924 | 7.753376 | 2.0 | 16.417 | 2 | 40.837 | 16.613 | 31.782 | 2 |
| 2025-06-26T11:08:00 | 54.394898 | 7.753351 | 2.0 | 16.407 | 2 | 40.826 | 16.625 | 31.763 | 2 |
| 2025-06-26T11:09:00 | 54.394852 | 7.753464 | 2.0 | 16.377 | 2 | 40.891 | 16.614 | 31.828 | 2 |
| 2025-06-26T11:10:00 | 54.394862 | 7.753606 | 2.0 | 16.360 | 2 | 40.904 | 16.585 | 31.863 | 2 |
| 2025-06-26T11:11:00 | 54.394852 | 7.753780 | 2.0 | 16.372 | 2 | 40.900 | 16.572 | 31.870 | 2 |
| 2025-06-26T11:12:00 | 54.394951 | 7.754166 | 2.0 | 16.415 | 2 | 40.883 | 16.593 | 31.838 | 2 |
| 2025-06-26T11:13:00 | 54.395238 | 7.754639 | 2.0 | 16.378 | 2 | 40.850 | 16.628 | 31.782 | 2 |
| 2025-06-26T11:14:00 | 54.395456 | 7.754633 | 2.0 | 16.368 | 2 | 40.904 | 16.582 | 31.865 | 2 |
| 2025-06-26T11:15:00 | 54.395588 | 7.754411 | 2.0 | 16.349 | 2 | 40.890 | 16.582 | 31.853 | 2 |
| 2025-06-26T11:16:00 | 54.395673 | 7.754314 | 2.0 | 16.339 | 2 | 40.910 | 16.561 | 31.887 | 2 |
| 2025-06-26T11:17:00 | 54.395653 | 7.754321 | 2.0 | 16.356 | 2 | 40.918 | 16.557 | 31.897 | 2 |
| 2025-06-26T11:18:00 | 54.395600 | 7.754346 | 2.0 | 16.405 | 2 | 40.879 | 16.584 | 31.842 | 2 |
| 2025-06-26T11:19:00 | 54.395592 | 7.754380 | 2.0 | 16.385 | 2 | 40.859 | 16.614 | 31.801 | 2 |
| 2025-06-26T11:20:00 | 54.395564 | 7.754420 | 2.0 | 16.378 | 2 | 40.893 | 16.598 | 31.843 | 2 |
| 2025-06-26T11:21:00 | 54.395540 | 7.754468 | 2.0 | 16.408 | 2 | 40.887 | 16.601 | 31.835 | 2 |
| 2025-06-26T11:22:00 | 54.395521 | 7.754531 | 2.0 | 16.406 | 2 | 40.867 | 16.622 | 31.801 | 2 |
| 2025-06-26T11:23:00 | 54.395499 | 7.754712 | 2.0 | 16.401 | 2 | 40.887 | 16.617 | 31.823 | 2 |
| 2025-06-26T11:24:00 | 54.395447 | 7.754762 | 2.0 | 16.426 | 2 | 40.874 | 16.623 | 31.807 | 2 |
| 2025-06-26T11:25:00 | 54.395395 | 7.754807 | 2.0 | 16.415 | 2 | 40.871 | 16.638 | 31.792 | 2 |
| 2025-06-26T11:26:00 | 54.395396 | 7.754863 | 2.0 | 16.418 | 2 | 40.892 | 16.638 | 31.810 | 2 |
| 2025-06-26T11:27:00 | 54.395364 | 7.754956 | 2.0 | 16.424 | 2 | 40.917 | 16.635 | 31.834 | 2 |
| 2025-06-26T11:28:00 | 54.395301 | 7.755055 | 2.0 | 16.430 | 2 | 40.904 | 16.642 | 31.817 | 2 |
| 2025-06-26T11:29:00 | 54.395272 | 7.755197 | 2.0 | 16.425 | 2 | 40.890 | 16.647 | 31.801 | 2 |
| 2025-06-26T11:30:00 | 54.395228 | 7.755335 | 2.0 | 16.455 | 2 | 40.868 | 16.652 | 31.778 | 2 |
| 2025-06-26T11:31:00 | 54.395259 | 7.755475 | 2.0 | 16.425 | 2 | 40.834 | 16.666 | 31.738 | 2 |
| 2025-06-26T11:32:00 | 54.395245 | 7.755541 | 2.0 | 16.429 | 2 | 40.876 | 16.649 | 31.788 | 2 |
| 2025-06-26T11:33:00 | 54.395215 | 7.755632 | 2.0 | 16.426 | 2 | 40.893 | 16.648 | 31.803 | 2 |
| 2025-06-26T11:34:00 | 54.395197 | 7.755760 | 2.0 | 16.431 | 2 | 40.888 | 16.647 | 31.800 | 2 |
| 2025-06-26T11:35:00 | 54.395161 | 7.755897 | 2.0 | 16.431 | 2 | 40.869 | 16.654 | 31.778 | 2 |
| 2025-06-26T11:36:00 | 54.395182 | 7.756023 | 2.0 | 16.430 | 2 | 40.873 | 16.653 | 31.782 | 2 |
| 2025-06-26T11:37:00 | 54.395154 | 7.756090 | 2.0 | 16.448 | 2 | 40.864 | 16.657 | 31.771 | 2 |
| 2025-06-26T11:38:00 | 54.395116 | 7.756151 | 2.0 | 16.430 | 2 | 40.864 | 16.663 | 31.766 | 2 |
| 2025-06-26T11:39:00 | 54.395078 | 7.756224 | 2.0 | 16.432 | 2 | 40.891 | 16.651 | 31.799 | 2 |
| 2025-06-26T11:40:00 | 54.394952 | 7.756240 | 2.0 | 16.460 | 2 | 40.876 | 16.660 | 31.779 | 2 |
| 2025-06-26T11:41:00 | 54.394803 | 7.755863 | 2.0 | 16.435 | 2 | 40.854 | 16.679 | 31.745 | 2 |
| 2025-06-26T11:42:00 | 54.394531 | 7.755466 | 2.0 | 16.493 | 2 | 40.892 | 16.671 | 31.784 | 2 |
| 2025-06-26T11:43:00 | 54.393605 | 7.755164 | 2.0 | 16.474 | 2 | 40.853 | 16.710 | 31.719 | 2 |
| 2025-06-26T11:44:00 | 54.392105 | 7.754898 | 2.0 | 16.491 | 2 | 40.910 | 16.707 | 31.771 | 2 |
| 2025-06-26T11:45:00 | 54.390038 | 7.754573 | 2.0 | 16.464 | 2 | 40.922 | 16.703 | 31.785 | 2 |
| 2025-06-26T11:46:00 | 54.387687 | 7.754105 | 2.0 | 16.480 | 2 | 40.975 | 16.693 | 31.839 | 2 |
| 2025-06-26T11:47:00 | 54.385207 | 7.753660 | 2.0 | 16.487 | 2 | 40.946 | 16.695 | 31.812 | 2 |
| 2025-06-26T11:48:00 | 54.382608 | 7.753248 | 2.0 | 16.488 | 2 | 40.944 | 16.691 | 31.813 | 2 |
| 2025-06-26T11:49:00 | 54.380290 | 7.754845 | 2.0 | 16.499 | 2 | 40.943 | 16.690 | 31.813 | 2 |
| 2025-06-26T11:50:00 | 54.378212 | 7.757692 | 2.0 | 16.539 | 2 | 40.970 | 16.698 | 31.830 | 2 |
| 2025-06-26T11:51:00 | 54.375962 | 7.760297 | 2.0 | 16.526 | 2 | 40.934 | 16.730 | 31.774 | 2 |
| 2025-06-26T11:52:00 | 54.374124 | 7.763722 | 2.0 | 16.509 | 2 | 40.943 | 16.718 | 31.791 | 2 |
| 2025-06-26T11:53:00 | 54.371923 | 7.766362 | 2.0 | 16.543 | 2 | 40.939 | 16.703 | 31.799 | 2 |
| 2025-06-26T11:54:00 | 54.369680 | 7.769009 | 2.0 | 16.557 | 2 | 40.948 | 16.738 | 31.779 | 2 |
| 2025-06-26T11:55:00 | 54.367446 | 7.771717 | 2.0 | 16.599 | 2 | 40.976 | 16.750 | 31.794 | 2 |
| 2025-06-26T11:56:00 | 54.365193 | 7.774413 | 2.0 | 16.634 | 2 | 40.966 | 16.792 | 31.752 | 2 |
| 2025-06-26T11:57:00 | 54.362913 | 7.777045 | 2.0 | 16.663 | 2 | 40.987 | 16.823 | 31.746 | 2 |
| 2025-06-26T11:58:00 | 54.360669 | 7.779773 | 2.0 | 16.605 | 2 | 40.972 | 16.847 | 31.714 | 2 |
| 2025-06-26T11:59:00 | 54.358422 | 7.782448 | 2.0 | 16.454 | 2 | 40.871 | 16.767 | 31.690 | 2 |
| 2025-06-26T12:00:00 | 54.356200 | 7.785143 | 2.0 | 16.431 | 2 | 40.739 | 16.651 | 31.667 | 2 |
| 2025-06-26T12:01:00 | 54.353957 | 7.787790 | 2.0 | 16.378 | 2 | 40.764 | 16.613 | 31.719 | 2 |
| 2025-06-26T12:02:00 | 54.351736 | 7.790481 | 2.0 | 16.316 | 2 | 40.786 | 16.559 | 31.781 | 2 |
| 2025-06-26T12:03:00 | 54.349506 | 7.793162 | 2.0 | 16.298 | 2 | 40.740 | 16.507 | 31.782 | 2 |
| 2025-06-26T12:04:00 | 54.347281 | 7.795845 | 2.0 | 16.280 | 2 | 40.689 | 16.484 | 31.756 | 2 |
| 2025-06-26T12:05:00 | 54.345053 | 7.798527 | 2.0 | 16.274 | 2 | 40.732 | 16.467 | 31.807 | 2 |
| 2025-06-26T12:06:00 | 54.342826 | 7.801222 | 2.0 | 16.304 | 2 | 40.755 | 16.470 | 31.825 | 2 |
| 2025-06-26T12:07:00 | 54.340588 | 7.803846 | 2.0 | 16.290 | 2 | 40.805 | 16.488 | 31.854 | 2 |
| 2025-06-26T12:08:00 | 54.338357 | 7.806478 | 2.0 | 16.278 | 2 | 40.884 | 16.470 | 31.937 | 2 |
| 2025-06-26T12:09:00 | 54.336136 | 7.809139 | 2.0 | 16.316 | 2 | 40.907 | 16.478 | 31.951 | 2 |
| 2025-06-26T12:10:00 | 54.333915 | 7.811829 | 2.0 | 16.322 | 2 | 40.937 | 16.501 | 31.958 | 2 |
| 2025-06-26T12:11:00 | 54.331690 | 7.814497 | 2.0 | 16.418 | 2 | 40.950 | 16.517 | 31.957 | 2 |
| 2025-06-26T12:12:00 | 54.329466 | 7.817167 | 2.0 | 16.451 | 2 | 40.860 | 16.600 | 31.813 | 2 |
| 2025-06-26T12:13:00 | 54.327228 | 7.819787 | 2.0 | 16.476 | 2 | 40.864 | 16.633 | 31.790 | 2 |
| 2025-06-26T12:14:00 | 54.325015 | 7.822513 | 2.0 | 16.522 | 2 | 40.924 | 16.665 | 31.817 | 2 |
| 2025-06-26T12:15:00 | 54.322760 | 7.825137 | 2.0 | 16.522 | 2 | 40.951 | 16.701 | 31.811 | 2 |
| 2025-06-26T12:16:00 | 54.320517 | 7.827823 | 2.0 | 16.533 | 2 | 40.983 | 16.704 | 31.837 | 2 |
| 2025-06-26T12:17:00 | 54.318266 | 7.830520 | 2.0 | 16.564 | 2 | 40.990 | 16.720 | 31.830 | 2 |
| 2025-06-26T12:18:00 | 54.316004 | 7.833182 | 2.0 | 16.567 | 2 | 40.980 | 16.746 | 31.801 | 2 |
| 2025-06-26T12:19:00 | 54.313752 | 7.835879 | 2.0 | 16.557 | 2 | 41.010 | 16.747 | 31.826 | 2 |
| 2025-06-26T12:20:00 | 54.311498 | 7.838600 | 2.0 | 16.532 | 2 | 41.029 | 16.733 | 31.854 | 2 |
| 2025-06-26T12:21:00 | 54.309240 | 7.841264 | 2.0 | 16.480 | 2 | 40.971 | 16.702 | 31.828 | 2 |
| 2025-06-26T12:22:00 | 54.306995 | 7.843898 | 2.0 | 16.384 | 2 | 40.932 | 16.658 | 31.829 | 2 |
| 2025-06-26T12:23:00 | 54.304777 | 7.846589 | 2.0 | 16.304 | 2 | 40.886 | 16.551 | 31.874 | 2 |
| 2025-06-26T12:24:00 | 54.302557 | 7.849245 | 2.0 | 16.276 | 2 | 40.872 | 16.489 | 31.911 | 2 |
| 2025-06-26T12:25:00 | 54.300317 | 7.851854 | 2.0 | 16.264 | 2 | 40.918 | 16.461 | 31.974 | 2 |
| 2025-06-26T12:26:00 | 54.298131 | 7.854634 | 2.0 | 16.249 | 2 | 40.940 | 16.449 | 32.003 | 2 |
| 2025-06-26T12:27:00 | 54.295944 | 7.857442 | 2.0 | 16.226 | 2 | 40.926 | 16.429 | 32.007 | 2 |
| 2025-06-26T12:28:00 | 54.293733 | 7.860136 | 2.0 | 16.206 | 2 | 40.733 | 16.407 | 31.856 | 2 |
| 2025-06-26T12:29:00 | 54.291546 | 7.862867 | 2.0 | 16.184 | 2 | 40.784 | 16.386 | 31.917 | 2 |
| 2025-06-26T12:30:00 | 54.289334 | 7.865575 | 2.0 | 16.141 | 2 | 40.830 | 16.359 | 31.979 | 2 |
| 2025-06-26T12:31:00 | 54.287136 | 7.868326 | 2.0 | 16.128 | 2 | 40.808 | 16.318 | 31.993 | 2 |
| 2025-06-26T12:32:00 | 54.284920 | 7.871046 | 2.0 | 16.138 | 2 | 40.787 | 16.313 | 31.978 | 2 |
| 2025-06-26T12:33:00 | 54.282725 | 7.873811 | 2.0 | 16.126 | 2 | 40.722 | 16.317 | 31.918 | 2 |
| 2025-06-26T12:34:00 | 54.280516 | 7.876561 | 2.0 | 16.088 | 2 | 40.724 | 16.303 | 31.931 | 2 |
| 2025-06-26T12:35:00 | 54.278301 | 7.879303 | 2.0 | 16.027 | 2 | 40.725 | 16.259 | 31.967 | 2 |
| 2025-06-26T12:36:00 | 54.276072 | 7.881985 | 2.0 | 16.014 | 2 | 40.686 | 16.213 | 31.970 | 2 |
| 2025-06-26T12:37:00 | 54.273734 | 7.884332 | 2.0 | 16.008 | 2 | 40.705 | 16.198 | 31.999 | 2 |
| 2025-06-26T12:38:00 | 54.271450 | 7.886848 | 2.0 | 16.019 | 2 | 40.725 | 16.193 | 32.020 | 2 |
| 2025-06-26T12:39:00 | 54.269162 | 7.889339 | 2.0 | 16.014 | 2 | 40.660 | 16.200 | 31.958 | 2 |
| 2025-06-26T12:40:00 | 54.266870 | 7.891775 | 2.0 | 16.009 | 2 | 40.637 | 16.195 | 31.942 | 2 |
| 2025-06-26T12:41:00 | 54.264603 | 7.894201 | 2.0 | 15.995 | 2 | 40.651 | 16.188 | 31.959 | 2 |
| 2025-06-26T12:42:00 | 54.262346 | 7.896636 | 2.0 | 16.023 | 2 | 40.678 | 16.173 | 31.995 | 2 |
| 2025-06-26T12:43:00 | 54.260075 | 7.898919 | 2.0 | 16.178 | 2 | 40.697 | 16.231 | 31.965 | 2 |
| 2025-06-26T12:44:00 | 54.257883 | 7.901265 | 2.0 | 16.220 | 2 | 40.754 | 16.357 | 31.914 | 2 |
| 2025-06-26T12:45:00 | 54.255717 | 7.903561 | 2.0 | 16.211 | 2 | 40.779 | 16.395 | 31.906 | 2 |
| 2025-06-26T12:46:00 | 54.253551 | 7.905814 | 2.0 | 16.182 | 2 | 40.811 | 16.386 | 31.941 | 2 |
| 2025-06-26T12:47:00 | 54.251367 | 7.908023 | 2.0 | 16.092 | 2 | 40.833 | 16.343 | 31.994 | 2 |
| 2025-06-26T12:48:00 | 54.249267 | 7.910444 | 2.0 | 16.063 | 2 | 40.816 | 16.271 | 32.037 | 2 |
| 2025-06-26T12:49:00 | 54.247238 | 7.913072 | 2.0 | 16.021 | 2 | 40.814 | 16.237 | 32.063 | 2 |
| 2025-06-26T12:50:00 | 54.244951 | 7.915133 | 2.0 | 15.975 | 2 | 40.796 | 16.195 | 32.081 | 2 |
| 2025-06-26T12:51:00 | 54.242660 | 7.917279 | 2.0 | 15.975 | 2 | 40.750 | 16.161 | 32.068 | 2 |
| 2025-06-26T12:52:00 | 54.240406 | 7.919470 | 2.0 | 15.987 | 2 | 40.709 | 16.160 | 32.033 | 2 |
| 2025-06-26T12:53:00 | 54.238436 | 7.922165 | 2.0 | 16.002 | 2 | 40.693 | 16.174 | 32.008 | 2 |
| 2025-06-26T12:54:00 | 54.236648 | 7.925119 | 2.0 | 16.709 | 2 | 40.625 | 16.270 | 31.871 | 2 |
| 2025-06-26T12:55:00 | 54.234519 | 7.926992 | 2.0 | 16.689 | 2 | 40.697 | 16.830 | 31.490 | 2 |
| 2025-06-26T12:56:00 | 54.232376 | 7.928799 | 2.0 | 16.518 | 2 | 40.798 | 16.828 | 31.579 | 2 |
| 2025-06-26T12:57:00 | 54.230168 | 7.930425 | 2.0 | 16.461 | 2 | 40.835 | 16.694 | 31.716 | 2 |
| 2025-06-26T12:58:00 | 54.227980 | 7.932138 | 2.0 | 16.297 | 2 | 40.799 | 16.613 | 31.749 | 2 |
| 2025-06-26T12:59:00 | 54.225791 | 7.933789 | 2.0 | 16.194 | 2 | 40.775 | 16.467 | 31.845 | 2 |
| 2025-06-26T13:00:00 | 54.223548 | 7.935123 | 2.0 | 16.084 | 2 | 40.752 | 16.352 | 31.916 | 2 |
| 2025-06-26T13:01:00 | 54.221257 | 7.936265 | 2.0 | 16.004 | 2 | 40.733 | 16.258 | 31.975 | 2 |
| 2025-06-26T13:02:00 | 54.218999 | 7.937609 | 2.0 | 15.978 | 2 | 40.717 | 16.188 | 32.017 | 2 |
| 2025-06-26T13:03:00 | 54.216700 | 7.938885 | 2.0 | 15.942 | 2 | 40.703 | 16.155 | 32.032 | 2 |
| 2025-06-26T13:04:00 | 54.214395 | 7.940161 | 2.0 | 15.959 | 2 | 40.702 | 16.135 | 32.047 | 2 |
| 2025-06-26T13:05:00 | 54.212109 | 7.941486 | 2.0 | 15.911 | 2 | 40.705 | 16.137 | 32.048 | 2 |
| 2025-06-26T13:06:00 | 54.209810 | 7.942756 | 2.0 | 15.914 | 2 | 40.699 | 16.087 | 32.083 | 2 |
| 2025-06-26T13:07:00 | 54.207473 | 7.943645 | 2.0 | 16.100 | 2 | 40.724 | 16.107 | 32.089 | 2 |
| 2025-06-26T13:08:00 | 54.205069 | 7.944032 | 2.0 | 15.960 | 2 | 40.799 | 16.280 | 32.015 | 2 |
| 2025-06-26T13:09:00 | 54.202661 | 7.944456 | 2.0 | 15.785 | 2 | 40.771 | 16.100 | 32.136 | 2 |
| 2025-06-26T13:10:00 | 54.200252 | 7.944896 | 2.0 | 15.846 | 2 | 40.702 | 15.990 | 32.164 | 2 |
| 2025-06-26T13:11:00 | 54.197863 | 7.944208 | 2.0 | 15.997 | 2 | 40.546 | 16.048 | 31.980 | 2 |
| 2025-06-26T13:12:00 | 54.195456 | 7.943451 | 2.0 | 16.256 | 2 | 40.591 | 16.195 | 31.901 | 2 |
| 2025-06-26T13:13:00 | 54.193020 | 7.942748 | 2.0 | 16.306 | 2 | 40.617 | 16.403 | 31.758 | 2 |
| 2025-06-26T13:14:00 | 54.190572 | 7.941964 | 2.0 | 16.365 | 2 | 40.646 | 16.481 | 31.721 | 2 |
| 2025-06-26T13:15:00 | 54.188109 | 7.941171 | 2.0 | 16.349 | 2 | 40.678 | 16.525 | 31.714 | 2 |
| 2025-06-26T13:16:00 | 54.185634 | 7.940379 | 2.0 | 16.380 | 2 | 40.649 | 16.526 | 31.688 | 2 |
| 2025-06-26T13:17:00 | 54.183142 | 7.939557 | 2.0 | 16.377 | 2 | 40.711 | 16.551 | 31.722 | 2 |
| 2025-06-26T13:18:00 | 54.180625 | 7.938784 | 2.0 | 16.358 | 2 | 40.706 | 16.545 | 31.723 | 2 |
| 2025-06-26T13:19:00 | 54.178087 | 7.937996 | 2.0 | 16.368 | 2 | 40.705 | 16.532 | 31.732 | 2 |
| 2025-06-26T13:20:00 | 54.175532 | 7.937160 | 2.0 | 16.448 | 2 | 40.667 | 16.552 | 31.683 | 2 |
| 2025-06-26T13:21:00 | 54.172951 | 7.936333 | 2.0 | 16.487 | 2 | 40.694 | 16.629 | 31.646 | 2 |
| 2025-06-26T13:22:00 | 54.170330 | 7.935505 | 2.0 | 16.632 | 2 | 40.716 | 16.670 | 31.632 | 2 |
| 2025-06-26T13:23:00 | 54.167689 | 7.934615 | 2.0 | 16.606 | 2 | 40.788 | 16.781 | 31.607 | 2 |
| 2025-06-28T11:26:00 | 54.159498 | 7.901510 | 2.0 | 16.173 | 2 | 41.660 | 16.859 | 32.299 | 2 |
| 2025-06-28T11:27:00 | 54.158361 | 7.901260 | 2.0 | 16.130 | 2 | 41.173 | 16.434 | 32.218 | 2 |
| 2025-06-28T11:28:00 | 54.157245 | 7.900990 | 2.0 | 16.115 | 2 | 41.093 | 16.357 | 32.210 | 2 |
| 2025-06-28T11:29:00 | 54.155742 | 7.900380 | 2.0 | 16.186 | 2 | 41.092 | 16.335 | 32.227 | 2 |
| 2025-06-28T11:30:00 | 54.153846 | 7.898852 | 2.0 | 16.282 | 2 | 41.164 | 16.404 | 32.234 | 2 |
| 2025-06-28T11:31:00 | 54.151549 | 7.897333 | 2.0 | 16.454 | 2 | 41.249 | 16.508 | 32.225 | 2 |
| 2025-06-28T11:32:00 | 54.149246 | 7.895778 | 2.0 | 16.449 | 2 | 41.355 | 16.625 | 32.223 | 2 |
| 2025-06-28T11:33:00 | 54.147778 | 7.893087 | 2.0 | 16.437 | 2 | 41.363 | 16.635 | 32.222 | 2 |
| 2025-06-28T11:34:00 | 54.148518 | 7.889908 | 2.0 | 16.448 | 2 | 41.357 | 16.626 | 32.224 | 2 |
| 2025-06-28T11:35:00 | 54.149638 | 7.886736 | 2.0 | 16.392 | 2 | 41.351 | 16.612 | 32.230 | 2 |
| 2025-06-28T11:36:00 | 54.150618 | 7.883410 | 2.0 | 16.529 | 2 | 41.343 | 16.614 | 32.221 | 2 |
| 2025-06-28T11:37:00 | 54.151711 | 7.880166 | 2.0 | 16.528 | 2 | 41.401 | 16.698 | 32.204 | 2 |
| 2025-06-28T11:38:00 | 54.152829 | 7.876853 | 2.0 | 16.513 | 2 | 41.399 | 16.700 | 32.201 | 2 |
| 2025-06-28T11:39:00 | 54.153928 | 7.873484 | 2.0 | 16.524 | 2 | 41.383 | 16.689 | 32.196 | 2 |
| 2025-06-28T11:40:00 | 54.155010 | 7.870120 | 2.0 | 16.510 | 2 | 41.378 | 16.696 | 32.186 | 2 |
| 2025-06-28T11:41:00 | 54.156114 | 7.866705 | 2.0 | 16.474 | 2 | 41.358 | 16.679 | 32.182 | 2 |
| 2025-06-28T11:42:00 | 54.157211 | 7.863246 | 2.0 | 16.430 | 2 | 41.320 | 16.644 | 32.177 | 2 |
| 2025-06-28T11:43:00 | 54.158367 | 7.859792 | 2.0 | 16.379 | 2 | 41.270 | 16.600 | 32.169 | 2 |
| 2025-06-28T11:44:00 | 54.159515 | 7.856290 | 2.0 | 16.320 | 2 | 41.214 | 16.549 | 32.161 | 2 |
| 2025-06-28T11:45:00 | 54.160672 | 7.852736 | 2.0 | 16.246 | 2 | 41.156 | 16.488 | 32.160 | 2 |
| 2025-06-28T11:46:00 | 54.161828 | 7.849190 | 2.0 | 16.200 | 2 | 41.093 | 16.421 | 32.159 | 2 |
| 2025-06-28T11:47:00 | 54.162968 | 7.845671 | 2.0 | 16.179 | 2 | 41.057 | 16.378 | 32.162 | 2 |
| 2025-06-28T11:48:00 | 54.164106 | 7.842150 | 2.0 | 16.178 | 2 | 41.046 | 16.358 | 32.168 | 2 |
| 2025-06-28T11:49:00 | 54.165241 | 7.838608 | 2.0 | 16.200 | 2 | 41.057 | 16.358 | 32.178 | 2 |
| 2025-06-28T11:50:00 | 54.166421 | 7.835055 | 2.0 | 16.208 | 2 | 41.080 | 16.377 | 32.183 | 2 |
| 2025-06-28T11:51:00 | 54.167585 | 7.831570 | 2.0 | 16.168 | 2 | 41.081 | 16.375 | 32.185 | 2 |
| 2025-06-28T11:52:00 | 54.168698 | 7.828023 | 2.0 | 16.166 | 2 | 41.065 | 16.346 | 32.195 | 2 |
| 2025-06-28T11:53:00 | 54.169817 | 7.824482 | 2.0 | 16.141 | 2 | 41.066 | 16.336 | 32.204 | 2 |
| 2025-06-28T11:54:00 | 54.170996 | 7.820961 | 2.0 | 16.105 | 2 | 41.055 | 16.314 | 32.212 | 2 |
| 2025-06-28T11:55:00 | 54.172185 | 7.817427 | 2.0 | 16.052 | 2 | 41.022 | 16.270 | 32.218 | 2 |
| 2025-06-28T11:56:00 | 54.173397 | 7.813852 | 2.0 | 16.100 | 2 | 40.997 | 16.235 | 32.225 | 2 |
| 2025-06-28T11:57:00 | 54.174584 | 7.810339 | 2.0 | 16.131 | 2 | 41.034 | 16.282 | 32.219 | 2 |
| 2025-06-28T11:58:00 | 54.175717 | 7.806857 | 2.0 | 16.124 | 2 | 41.054 | 16.299 | 32.223 | 2 |
| 2025-06-28T11:59:00 | 54.176803 | 7.803324 | 2.0 | 16.135 | 2 | 41.063 | 16.292 | 32.237 | 2 |
| 2025-06-28T12:00:00 | 54.178085 | 7.799904 | 2.0 | 16.173 | 2 | 41.136 | 16.312 | 32.284 | 2 |
| 2025-06-28T12:01:00 | 54.180056 | 7.797404 | 2.0 | 16.207 | 2 | 41.150 | 16.348 | 32.267 | 2 |
| 2025-06-28T12:02:00 | 54.182123 | 7.794996 | 2.0 | 16.231 | 2 | 41.147 | 16.380 | 32.239 | 2 |
| 2025-06-28T12:03:00 | 54.184144 | 7.792507 | 2.0 | 16.246 | 2 | 41.163 | 16.403 | 32.234 | 2 |
| 2025-06-28T12:04:00 | 54.186164 | 7.790024 | 2.0 | 16.245 | 2 | 41.147 | 16.418 | 32.208 | 2 |
| 2025-06-28T12:05:00 | 54.188213 | 7.787604 | 2.0 | 16.230 | 2 | 41.097 | 16.411 | 32.170 | 2 |
| 2025-06-28T12:06:00 | 54.190294 | 7.785142 | 2.0 | 16.221 | 2 | 41.056 | 16.401 | 32.143 | 2 |
| 2025-06-28T12:07:00 | 54.192415 | 7.782629 | 2.0 | 16.219 | 2 | 41.033 | 16.392 | 32.130 | 2 |
| 2025-06-28T12:08:00 | 54.194589 | 7.780129 | 2.0 | 16.220 | 2 | 41.024 | 16.391 | 32.123 | 2 |
| 2025-06-28T12:09:00 | 54.196723 | 7.777557 | 2.0 | 16.220 | 2 | 41.022 | 16.392 | 32.120 | 2 |
| 2025-06-28T12:10:00 | 54.198785 | 7.774812 | 2.0 | 16.224 | 2 | 41.020 | 16.393 | 32.118 | 2 |
| 2025-06-28T12:11:00 | 54.200693 | 7.771730 | 2.0 | 16.223 | 2 | 41.026 | 16.397 | 32.120 | 2 |
| 2025-06-28T12:12:00 | 54.202675 | 7.768654 | 2.0 | 16.215 | 2 | 41.021 | 16.394 | 32.118 | 2 |
| 2025-06-28T12:13:00 | 54.204673 | 7.765611 | 2.0 | 16.215 | 2 | 41.014 | 16.387 | 32.117 | 2 |
| 2025-06-28T12:14:00 | 54.206697 | 7.762566 | 2.0 | 16.254 | 2 | 41.018 | 16.394 | 32.115 | 2 |
| 2025-06-28T12:15:00 | 54.208668 | 7.759478 | 2.0 | 16.269 | 2 | 41.052 | 16.428 | 32.117 | 2 |
| 2025-06-28T12:16:00 | 54.210635 | 7.756412 | 2.0 | 16.269 | 2 | 41.060 | 16.436 | 32.118 | 2 |
| 2025-06-28T12:17:00 | 54.212637 | 7.753381 | 2.0 | 16.267 | 2 | 41.063 | 16.439 | 32.118 | 2 |
| 2025-06-28T12:18:00 | 54.214602 | 7.750341 | 2.0 | 16.273 | 2 | 41.059 | 16.438 | 32.115 | 2 |
| 2025-06-28T12:19:00 | 54.216581 | 7.747268 | 2.0 | 16.282 | 2 | 41.061 | 16.445 | 32.111 | 2 |
| 2025-06-28T12:20:00 | 54.218587 | 7.744197 | 2.0 | 16.286 | 2 | 41.064 | 16.453 | 32.108 | 2 |
| 2025-06-28T12:21:00 | 54.220537 | 7.741175 | 2.0 | 16.291 | 2 | 41.066 | 16.455 | 32.108 | 2 |
| 2025-06-28T12:22:00 | 54.222493 | 7.738156 | 2.0 | 16.301 | 2 | 41.081 | 16.463 | 32.114 | 2 |
| 2025-06-28T12:23:00 | 54.224461 | 7.735150 | 2.0 | 16.305 | 2 | 41.102 | 16.473 | 32.125 | 2 |
| 2025-06-28T12:24:00 | 54.226424 | 7.732150 | 2.0 | 16.266 | 2 | 41.117 | 16.469 | 32.141 | 2 |
| 2025-06-28T12:25:00 | 54.228377 | 7.729148 | 2.0 | 16.222 | 2 | 41.110 | 16.433 | 32.164 | 2 |
| 2025-06-28T12:26:00 | 54.230311 | 7.726136 | 2.0 | 16.214 | 2 | 41.093 | 16.397 | 32.178 | 2 |
| 2025-06-28T12:27:00 | 54.232311 | 7.723151 | 2.0 | 16.234 | 2 | 41.095 | 16.392 | 32.184 | 2 |
| 2025-06-28T12:28:00 | 54.234252 | 7.720128 | 2.0 | 16.236 | 2 | 41.109 | 16.405 | 32.186 | 2 |
| 2025-06-28T12:29:00 | 54.236210 | 7.717086 | 2.0 | 16.228 | 2 | 41.106 | 16.404 | 32.184 | 2 |
| 2025-06-28T12:30:00 | 54.238166 | 7.714097 | 2.0 | 16.267 | 2 | 41.113 | 16.405 | 32.189 | 2 |
| 2025-06-28T12:31:00 | 54.240101 | 7.711077 | 2.0 | 16.277 | 2 | 41.153 | 16.430 | 32.204 | 2 |
| 2025-06-28T12:32:00 | 54.242062 | 7.708089 | 2.0 | 16.334 | 2 | 41.196 | 16.461 | 32.216 | 2 |
| 2025-06-28T12:33:00 | 54.244002 | 7.705079 | 2.0 | 16.376 | 2 | 41.250 | 16.510 | 32.224 | 2 |
| 2025-06-28T12:34:00 | 54.245969 | 7.702104 | 2.0 | 16.377 | 2 | 41.259 | 16.538 | 32.209 | 2 |
| 2025-06-28T12:35:00 | 54.247880 | 7.699161 | 2.0 | 16.380 | 2 | 41.258 | 16.549 | 32.200 | 2 |
| 2025-06-28T12:36:00 | 54.249780 | 7.696204 | 2.0 | 16.554 | 2 | 41.265 | 16.571 | 32.188 | 2 |
| 2025-06-28T12:37:00 | 54.251706 | 7.693251 | 2.0 | 16.528 | 2 | 41.373 | 16.700 | 32.178 | 2 |
| 2025-06-28T12:38:00 | 54.253651 | 7.690284 | 2.0 | 16.480 | 2 | 41.340 | 16.684 | 32.162 | 2 |
| 2025-06-28T12:39:00 | 54.255568 | 7.687291 | 2.0 | 16.437 | 2 | 41.283 | 16.642 | 32.147 | 2 |
| 2025-06-28T12:40:00 | 54.257515 | 7.684307 | 2.0 | 16.401 | 2 | 41.243 | 16.603 | 32.143 | 2 |
| 2025-06-28T12:41:00 | 54.259458 | 7.681380 | 2.0 | 16.363 | 2 | 41.224 | 16.570 | 32.153 | 2 |
| 2025-06-28T12:42:00 | 54.261380 | 7.678378 | 2.0 | 16.320 | 2 | 41.192 | 16.524 | 32.162 | 2 |
| 2025-06-28T12:43:00 | 54.263314 | 7.675407 | 2.0 | 16.316 | 2 | 41.172 | 16.491 | 32.171 | 2 |
| 2025-06-28T12:44:00 | 54.265253 | 7.672416 | 2.0 | 16.361 | 2 | 41.189 | 16.492 | 32.185 | 2 |
| 2025-06-28T12:45:00 | 54.267160 | 7.669437 | 2.0 | 16.396 | 2 | 41.262 | 16.536 | 32.213 | 2 |
| 2025-06-28T12:46:00 | 54.269060 | 7.666439 | 2.0 | 16.382 | 2 | 41.313 | 16.560 | 32.239 | 2 |
| 2025-06-28T12:47:00 | 54.271003 | 7.663555 | 2.0 | 16.369 | 2 | 41.311 | 16.548 | 32.246 | 2 |
| 2025-06-28T12:48:00 | 54.272933 | 7.660575 | 2.0 | 16.362 | 2 | 41.308 | 16.538 | 32.252 | 2 |
| 2025-06-28T12:49:00 | 54.274870 | 7.657610 | 2.0 | 16.364 | 2 | 41.306 | 16.531 | 32.256 | 2 |
| 2025-06-28T12:50:00 | 54.276812 | 7.654607 | 2.0 | 16.375 | 2 | 41.310 | 16.535 | 32.256 | 2 |
| 2025-06-28T12:51:00 | 54.278746 | 7.651620 | 2.0 | 16.376 | 2 | 41.320 | 16.543 | 32.258 | 2 |
| 2025-06-28T12:52:00 | 54.280684 | 7.648663 | 2.0 | 16.377 | 2 | 41.325 | 16.546 | 32.260 | 2 |
| 2025-06-28T12:53:00 | 54.282574 | 7.645711 | 2.0 | 16.378 | 2 | 41.329 | 16.547 | 32.263 | 2 |
| 2025-06-28T12:54:00 | 54.284515 | 7.642791 | 2.0 | 16.374 | 2 | 41.332 | 16.547 | 32.266 | 2 |
| 2025-06-28T12:55:00 | 54.286464 | 7.639845 | 2.0 | 16.363 | 2 | 41.334 | 16.542 | 32.271 | 2 |
| 2025-06-28T12:56:00 | 54.288384 | 7.636832 | 2.0 | 16.366 | 2 | 41.331 | 16.532 | 32.277 | 2 |
| 2025-06-28T12:57:00 | 54.290314 | 7.633824 | 2.0 | 16.382 | 2 | 41.347 | 16.536 | 32.288 | 2 |
| 2025-06-28T12:58:00 | 54.292241 | 7.630840 | 2.0 | 16.410 | 2 | 41.380 | 16.553 | 32.303 | 2 |
| 2025-06-28T12:59:00 | 54.294178 | 7.627888 | 2.0 | 16.415 | 2 | 41.418 | 16.576 | 32.317 | 2 |
| 2025-06-28T13:00:00 | 54.296105 | 7.624941 | 2.0 | 16.409 | 2 | 41.434 | 16.582 | 32.326 | 2 |
| 2025-06-28T13:01:00 | 54.298026 | 7.621961 | 2.0 | 16.408 | 2 | 41.436 | 16.578 | 32.331 | 2 |
| 2025-06-28T13:02:00 | 54.299971 | 7.618967 | 2.0 | 16.403 | 2 | 41.437 | 16.577 | 32.333 | 2 |
| 2025-06-28T13:03:00 | 54.301900 | 7.616025 | 2.0 | 16.395 | 2 | 41.430 | 16.570 | 32.332 | 2 |
| 2025-06-28T13:04:00 | 54.303818 | 7.613055 | 2.0 | 16.387 | 2 | 41.423 | 16.563 | 32.332 | 2 |
| 2025-06-28T13:05:00 | 54.305768 | 7.610093 | 2.0 | 16.376 | 2 | 41.415 | 16.554 | 32.332 | 2 |
| 2025-06-28T13:06:00 | 54.307734 | 7.607114 | 2.0 | 16.361 | 2 | 41.406 | 16.542 | 32.334 | 2 |
| 2025-06-28T13:07:00 | 54.309704 | 7.604092 | 2.0 | 16.353 | 2 | 41.396 | 16.530 | 32.335 | 2 |
| 2025-06-28T13:08:00 | 54.311663 | 7.601060 | 2.0 | 16.341 | 2 | 41.388 | 16.522 | 32.335 | 2 |
| 2025-06-28T13:09:00 | 54.313691 | 7.598143 | 2.0 | 16.329 | 2 | 41.378 | 16.507 | 32.338 | 2 |
| 2025-06-28T13:10:00 | 54.315692 | 7.595160 | 2.0 | 16.329 | 2 | 41.371 | 16.497 | 32.340 | 2 |
| 2025-06-28T13:11:00 | 54.317678 | 7.592165 | 2.0 | 16.337 | 2 | 41.373 | 16.500 | 32.339 | 2 |
| 2025-06-28T13:12:00 | 54.319417 | 7.589469 | 2.0 | 16.383 | 2 | 41.394 | 16.516 | 32.345 | 2 |
| 2025-06-28T13:13:00 | 54.320789 | 7.587320 | 2.0 | 16.342 | 2 | 41.434 | 16.546 | 32.355 | 2 |
| 2025-06-28T13:14:00 | 54.321854 | 7.585641 | 2.0 | 16.304 | 2 | 41.384 | 16.503 | 32.346 | 2 |
| 2025-06-28T13:15:00 | 54.322826 | 7.584397 | 2.0 | 16.347 | 2 | 41.358 | 16.480 | 32.342 | 2 |
| 2025-06-28T13:16:00 | 54.323423 | 7.583609 | 2.0 | 16.350 | 2 | 41.406 | 16.516 | 32.355 | 2 |
| 2025-06-28T13:17:00 | 54.323692 | 7.583083 | 2.0 | 16.349 | 2 | 41.412 | 16.515 | 32.361 | 2 |
| 2025-06-28T13:18:00 | 54.323755 | 7.582881 | 2.0 | 16.343 | 2 | 41.412 | 16.515 | 32.361 | 2 |
| 2025-06-28T13:19:00 | 54.323729 | 7.582943 | 2.0 | 16.346 | 2 | 41.406 | 16.510 | 32.360 | 2 |
| 2025-06-28T13:20:00 | 54.323648 | 7.583180 | 2.0 | 16.344 | 2 | 41.408 | 16.512 | 32.360 | 2 |
| 2025-06-28T13:21:00 | 54.323510 | 7.583275 | 2.0 | 16.333 | 2 | 41.405 | 16.507 | 32.362 | 2 |
| 2025-06-28T13:22:00 | 54.323427 | 7.583327 | 2.0 | 16.341 | 2 | 41.398 | 16.501 | 32.360 | 2 |
| 2025-06-28T13:23:00 | 54.323371 | 7.583413 | 2.0 | 16.342 | 2 | 41.403 | 16.508 | 32.359 | 2 |
| 2025-06-28T13:24:00 | 54.323311 | 7.583417 | 2.0 | 16.338 | 2 | 41.402 | 16.505 | 32.361 | 2 |
| 2025-06-28T13:25:00 | 54.323232 | 7.583275 | 2.0 | 16.340 | 2 | 41.401 | 16.505 | 32.360 | 2 |
| 2025-06-28T13:26:00 | 54.323214 | 7.582455 | 2.0 | 16.332 | 2 | 41.400 | 16.503 | 32.360 | 2 |
| 2025-06-28T13:27:00 | 54.324657 | 7.581540 | 2.0 | 16.311 | 2 | 41.390 | 16.492 | 32.361 | 2 |
| 2025-06-28T13:28:00 | 54.327145 | 7.581213 | 2.0 | 16.300 | 2 | 41.388 | 16.481 | 32.368 | 2 |
| 2025-06-28T13:29:00 | 54.329934 | 7.580838 | 2.0 | 16.265 | 2 | 41.395 | 16.470 | 32.383 | 2 |
| 2025-06-28T13:30:00 | 54.332787 | 7.580467 | 2.0 | 16.235 | 2 | 41.368 | 16.429 | 32.392 | 2 |
| 2025-06-28T13:31:00 | 54.335632 | 7.579989 | 2.0 | 16.232 | 2 | 41.363 | 16.406 | 32.407 | 2 |
| 2025-06-28T13:32:00 | 54.338484 | 7.579617 | 2.0 | 16.235 | 2 | 41.387 | 16.405 | 32.429 | 2 |
| 2025-06-28T13:33:00 | 54.341353 | 7.579217 | 2.0 | 16.217 | 2 | 41.411 | 16.403 | 32.451 | 2 |
| 2025-06-28T13:34:00 | 54.344234 | 7.578833 | 2.0 | 16.170 | 2 | 41.420 | 16.379 | 32.479 | 2 |
| 2025-06-28T13:35:00 | 54.347108 | 7.578446 | 2.0 | 16.129 | 2 | 41.417 | 16.336 | 32.511 | 2 |
| 2025-06-28T13:36:00 | 54.349973 | 7.578038 | 2.0 | 15.951 | 2 | 41.405 | 16.288 | 32.540 | 2 |
| 2025-06-28T13:37:00 | 54.352857 | 7.577573 | 2.0 | 15.642 | 2 | 41.288 | 16.075 | 32.611 | 2 |
| 2025-06-28T13:38:00 | 54.355760 | 7.577018 | 2.0 | 15.458 | 2 | 41.074 | 15.794 | 32.653 | 2 |
| 2025-06-28T13:39:00 | 54.358663 | 7.576587 | 2.0 | 15.899 | 2 | 41.041 | 15.791 | 32.627 | 2 |
| 2025-06-28T13:40:00 | 54.361550 | 7.576135 | 2.0 | 15.841 | 2 | 41.252 | 16.036 | 32.611 | 2 |
| 2025-06-28T13:41:00 | 54.364437 | 7.575703 | 2.0 | 15.699 | 2 | 41.211 | 15.991 | 32.612 | 2 |
| 2025-06-28T13:42:00 | 54.367328 | 7.575192 | 2.0 | 15.607 | 2 | 41.091 | 15.869 | 32.607 | 2 |
| 2025-06-28T13:43:00 | 54.370227 | 7.574659 | 2.0 | 15.616 | 2 | 41.008 | 15.792 | 32.596 | 2 |
| 2025-06-28T13:44:00 | 54.373139 | 7.574300 | 2.0 | 15.633 | 2 | 41.006 | 15.796 | 32.591 | 2 |
| 2025-06-28T13:45:00 | 54.376050 | 7.573883 | 2.0 | 15.627 | 2 | 41.016 | 15.806 | 32.592 | 2 |
| 2025-06-28T13:46:00 | 54.378966 | 7.573434 | 2.0 | 15.656 | 2 | 41.010 | 15.798 | 32.593 | 2 |
| 2025-06-28T13:47:00 | 54.381888 | 7.573011 | 2.0 | 15.814 | 2 | 41.053 | 15.858 | 32.582 | 2 |
| 2025-06-28T13:48:00 | 54.384782 | 7.572585 | 2.0 | 15.903 | 2 | 41.149 | 15.982 | 32.565 | 2 |
| 2025-06-28T13:49:00 | 54.387681 | 7.572193 | 2.0 | 15.936 | 2 | 41.217 | 16.066 | 32.556 | 2 |
| 2025-06-28T13:50:00 | 54.390577 | 7.571745 | 2.0 | 15.980 | 2 | 41.257 | 16.116 | 32.550 | 2 |
| 2025-06-28T13:51:00 | 54.393471 | 7.571257 | 2.0 | 15.993 | 2 | 41.276 | 16.136 | 32.551 | 2 |
| 2025-06-28T13:52:00 | 54.396372 | 7.570890 | 2.0 | 16.053 | 2 | 41.298 | 16.174 | 32.539 | 2 |
| 2025-06-28T13:53:00 | 54.399243 | 7.570408 | 2.0 | 16.072 | 2 | 41.330 | 16.221 | 32.529 | 2 |
| 2025-06-28T13:54:00 | 54.402125 | 7.569938 | 2.0 | 16.117 | 2 | 41.345 | 16.244 | 32.523 | 2 |
| 2025-06-28T13:55:00 | 54.405003 | 7.569554 | 2.0 | 16.187 | 2 | 41.381 | 16.299 | 32.510 | 2 |
| 2025-06-28T13:56:00 | 54.407882 | 7.569158 | 2.0 | 16.216 | 2 | 41.406 | 16.350 | 32.490 | 2 |
| 2025-06-28T13:57:00 | 54.410728 | 7.568648 | 2.0 | 16.197 | 2 | 41.390 | 16.375 | 32.456 | 2 |
| 2025-06-28T13:58:00 | 54.413575 | 7.568187 | 2.0 | 16.170 | 2 | 41.353 | 16.357 | 32.438 | 2 |
| 2025-06-28T13:59:00 | 54.416432 | 7.567821 | 2.0 | 16.143 | 2 | 41.318 | 16.336 | 32.424 | 2 |
| 2025-06-28T14:00:00 | 54.419280 | 7.567343 | 2.0 | 16.155 | 2 | 41.285 | 16.315 | 32.412 | 2 |
| 2025-06-28T14:01:00 | 54.422133 | 7.566846 | 2.0 | 16.192 | 2 | 41.282 | 16.330 | 32.398 | 2 |
| 2025-06-28T14:02:00 | 54.424980 | 7.566433 | 2.0 | 16.209 | 2 | 41.297 | 16.361 | 32.386 | 2 |
| 2025-06-28T14:03:00 | 54.427839 | 7.565995 | 2.0 | 16.227 | 2 | 41.310 | 16.377 | 32.384 | 2 |
| 2025-06-28T14:04:00 | 54.430684 | 7.565540 | 2.0 | 16.263 | 2 | 41.334 | 16.398 | 32.388 | 2 |
| 2025-06-28T14:05:00 | 54.433542 | 7.565114 | 2.0 | 16.297 | 2 | 41.377 | 16.434 | 32.396 | 2 |
| 2025-06-28T14:06:00 | 54.436391 | 7.564674 | 2.0 | 16.309 | 2 | 41.421 | 16.476 | 32.401 | 2 |
| 2025-06-28T14:07:00 | 54.439244 | 7.564188 | 2.0 | 16.271 | 2 | 41.396 | 16.465 | 32.388 | 2 |
| 2025-06-28T14:08:00 | 54.442137 | 7.563776 | 2.0 | 16.264 | 2 | 41.348 | 16.437 | 32.368 | 2 |
| 2025-06-28T14:09:00 | 54.445030 | 7.563350 | 2.0 | 16.277 | 2 | 41.331 | 16.434 | 32.356 | 2 |
| 2025-06-28T14:10:00 | 54.447924 | 7.562922 | 2.0 | 16.290 | 2 | 41.335 | 16.449 | 32.347 | 2 |
| 2025-06-28T14:11:00 | 54.450818 | 7.562399 | 2.0 | 16.286 | 2 | 41.336 | 16.456 | 32.343 | 2 |
| 2025-06-28T14:12:00 | 54.453723 | 7.561933 | 2.0 | 16.262 | 2 | 41.321 | 16.452 | 32.333 | 2 |
| 2025-06-28T14:13:00 | 54.456641 | 7.561617 | 2.0 | 16.241 | 2 | 41.289 | 16.428 | 32.324 | 2 |
| 2025-06-28T14:14:00 | 54.459572 | 7.561232 | 2.0 | 16.226 | 2 | 41.261 | 16.409 | 32.315 | 2 |
| 2025-06-28T14:15:00 | 54.462507 | 7.560885 | 2.0 | 16.209 | 2 | 41.233 | 16.393 | 32.304 | 2 |
| 2025-06-28T14:16:00 | 54.465420 | 7.560520 | 2.0 | 16.192 | 2 | 41.209 | 16.378 | 32.295 | 2 |
| 2025-06-28T14:17:00 | 54.467849 | 7.560019 | 2.0 | 16.180 | 2 | 41.193 | 16.361 | 32.295 | 2 |
| 2025-06-28T14:18:00 | 54.469676 | 7.559795 | 2.0 | 16.175 | 2 | 41.177 | 16.348 | 32.291 | 2 |
| 2025-06-28T14:19:00 | 54.471154 | 7.559885 | 2.0 | 16.161 | 2 | 41.164 | 16.338 | 32.288 | 2 |
| 2025-06-28T14:20:00 | 54.472398 | 7.560117 | 2.0 | 16.161 | 2 | 41.150 | 16.329 | 32.283 | 2 |
| 2025-06-28T14:21:00 | 54.473407 | 7.560144 | 2.0 | 16.159 | 2 | 41.141 | 16.327 | 32.277 | 2 |
| 2025-06-28T14:22:00 | 54.473974 | 7.559655 | 2.0 | 16.159 | 2 | 41.135 | 16.326 | 32.272 | 2 |
| 2025-06-28T14:23:00 | 54.474283 | 7.559221 | 2.0 | 16.171 | 2 | 41.134 | 16.326 | 32.271 | 2 |
| 2025-06-28T14:24:00 | 54.474445 | 7.559071 | 2.0 | 16.158 | 2 | 41.139 | 16.334 | 32.269 | 2 |
| 2025-06-28T14:25:00 | 54.474493 | 7.559029 | 2.0 | 16.125 | 2 | 41.129 | 16.316 | 32.275 | 2 |
| 2025-06-28T14:26:00 | 54.474514 | 7.558948 | 2.0 | 16.102 | 2 | 41.109 | 16.285 | 32.283 | 2 |
| 2025-06-28T14:27:00 | 54.474545 | 7.558942 | 2.0 | 16.058 | 2 | 41.098 | 16.271 | 32.284 | 2 |
| 2025-06-28T14:28:00 | 54.474564 | 7.558961 | 2.0 | 16.071 | 2 | 41.076 | 16.229 | 32.299 | 2 |
| 2025-06-28T14:29:00 | 54.474539 | 7.558840 | 2.0 | 16.052 | 2 | 41.075 | 16.234 | 32.294 | 2 |
| 2025-06-28T14:30:00 | 54.474564 | 7.558808 | 2.0 | 16.047 | 2 | 41.068 | 16.218 | 32.301 | 2 |
| 2025-06-28T14:31:00 | 54.474631 | 7.558869 | 2.0 | 16.087 | 2 | 41.071 | 16.228 | 32.295 | 2 |
| 2025-06-28T14:32:00 | 54.474637 | 7.558952 | 2.0 | 16.112 | 2 | 41.092 | 16.261 | 32.287 | 2 |
| 2025-06-28T14:33:00 | 54.474608 | 7.559055 | 2.0 | 16.109 | 2 | 41.105 | 16.276 | 32.286 | 2 |
| 2025-06-28T14:34:00 | 54.474620 | 7.559111 | 2.0 | 16.101 | 2 | 41.104 | 16.275 | 32.286 | 2 |
| 2025-06-28T14:35:00 | 54.474492 | 7.558714 | 2.0 | 16.078 | 2 | 41.098 | 16.263 | 32.291 | 2 |
| 2025-06-28T14:36:00 | 54.474341 | 7.557240 | 2.0 | 16.117 | 2 | 41.090 | 16.250 | 32.294 | 2 |
| 2025-06-28T14:37:00 | 54.474547 | 7.555155 | 2.0 | 16.178 | 2 | 41.115 | 16.286 | 32.287 | 2 |
| 2025-06-28T14:38:00 | 54.475515 | 7.553212 | 2.0 | 16.216 | 2 | 41.155 | 16.346 | 32.273 | 2 |
| 2025-06-28T14:39:00 | 54.477129 | 7.552531 | 2.0 | 16.221 | 2 | 41.175 | 16.381 | 32.263 | 2 |
| 2025-06-28T14:40:00 | 54.478940 | 7.552713 | 2.0 | 16.208 | 2 | 41.170 | 16.382 | 32.257 | 2 |
| 2025-06-28T14:41:00 | 54.480772 | 7.552900 | 2.0 | 16.211 | 2 | 41.160 | 16.377 | 32.253 | 2 |
| 2025-06-28T14:42:00 | 54.482446 | 7.552996 | 2.0 | 16.217 | 2 | 41.152 | 16.376 | 32.247 | 2 |
| 2025-06-28T14:43:00 | 54.483955 | 7.553018 | 2.0 | 16.221 | 2 | 41.152 | 16.385 | 32.239 | 2 |
| 2025-06-28T14:44:00 | 54.485371 | 7.553164 | 2.0 | 16.233 | 2 | 41.152 | 16.391 | 32.234 | 2 |
| 2025-06-28T14:45:00 | 54.486690 | 7.553326 | 2.0 | 16.223 | 2 | 41.155 | 16.398 | 32.231 | 2 |
| 2025-06-28T14:46:00 | 54.487936 | 7.553501 | 2.0 | 16.206 | 2 | 41.144 | 16.388 | 32.230 | 2 |
| 2025-06-28T14:47:00 | 54.489148 | 7.553640 | 2.0 | 16.167 | 2 | 41.125 | 16.367 | 32.230 | 2 |
| 2025-06-28T14:48:00 | 54.490334 | 7.553740 | 2.0 | 16.147 | 2 | 41.094 | 16.331 | 32.232 | 2 |
| 2025-06-28T14:49:00 | 54.491502 | 7.553888 | 2.0 | 16.197 | 2 | 41.087 | 16.330 | 32.227 | 2 |
| 2025-06-28T14:50:00 | 54.492644 | 7.554134 | 2.0 | 16.196 | 2 | 41.113 | 16.360 | 32.225 | 2 |
| 2025-06-28T14:51:00 | 54.493808 | 7.554354 | 2.0 | 16.176 | 2 | 41.115 | 16.359 | 32.228 | 2 |
| 2025-06-28T14:52:00 | 54.494978 | 7.554529 | 2.0 | 16.139 | 2 | 41.102 | 16.338 | 32.234 | 2 |
| 2025-06-28T14:53:00 | 54.496158 | 7.554672 | 2.0 | 16.121 | 2 | 41.075 | 16.302 | 32.239 | 2 |
| 2025-06-28T14:54:00 | 54.497352 | 7.554826 | 2.0 | 16.141 | 2 | 41.065 | 16.296 | 32.235 | 2 |
| 2025-06-28T14:55:00 | 54.498543 | 7.555002 | 2.0 | 16.140 | 2 | 41.069 | 16.304 | 32.232 | 2 |
| 2025-06-28T14:56:00 | 54.499739 | 7.555157 | 2.0 | 16.136 | 2 | 41.068 | 16.305 | 32.230 | 2 |
| 2025-06-28T14:57:00 | 54.500945 | 7.555298 | 2.0 | 16.128 | 2 | 41.063 | 16.301 | 32.229 | 2 |
| 2025-06-28T14:58:00 | 54.502154 | 7.555431 | 2.0 | 16.122 | 2 | 41.056 | 16.295 | 32.228 | 2 |
| 2025-06-28T14:59:00 | 54.503358 | 7.555608 | 2.0 | 16.107 | 2 | 41.047 | 16.286 | 32.227 | 2 |
| 2025-06-28T15:00:00 | 54.504557 | 7.555759 | 2.0 | 16.096 | 2 | 41.034 | 16.273 | 32.227 | 2 |
| 2025-06-28T15:01:00 | 54.505745 | 7.555889 | 2.0 | 16.092 | 2 | 41.024 | 16.263 | 32.226 | 2 |
| 2025-06-28T15:02:00 | 54.506933 | 7.556084 | 2.0 | 16.094 | 2 | 41.020 | 16.259 | 32.226 | 2 |
| 2025-06-28T15:03:00 | 54.508125 | 7.556394 | 2.0 | 16.085 | 2 | 41.029 | 16.260 | 32.233 | 2 |
| 2025-06-28T15:04:00 | 54.509318 | 7.556721 | 2.0 | 16.069 | 2 | 41.023 | 16.247 | 32.238 | 2 |
| 2025-06-28T15:05:00 | 54.510512 | 7.556994 | 2.0 | 16.064 | 2 | 41.013 | 16.237 | 32.237 | 2 |
| 2025-06-28T15:06:00 | 54.511700 | 7.557236 | 2.0 | 16.046 | 2 | 41.009 | 16.229 | 32.240 | 2 |
| 2025-06-28T15:07:00 | 54.512908 | 7.557435 | 2.0 | 16.056 | 2 | 40.997 | 16.213 | 32.243 | 2 |
| 2025-06-28T15:08:00 | 54.514116 | 7.557640 | 2.0 | 16.069 | 2 | 41.007 | 16.225 | 32.242 | 2 |
| 2025-06-28T15:09:00 | 54.515317 | 7.557823 | 2.0 | 16.061 | 2 | 41.021 | 16.234 | 32.247 | 2 |
| 2025-06-28T15:10:00 | 54.516512 | 7.557952 | 2.0 | 16.061 | 2 | 41.012 | 16.229 | 32.243 | 2 |
| 2025-06-28T15:11:00 | 54.517705 | 7.558141 | 2.0 | 16.062 | 2 | 41.009 | 16.227 | 32.242 | 2 |
| 2025-06-28T15:12:00 | 54.518912 | 7.558340 | 2.0 | 16.062 | 2 | 41.013 | 16.229 | 32.244 | 2 |
| 2025-06-28T15:13:00 | 54.520114 | 7.558562 | 2.0 | 16.054 | 2 | 41.016 | 16.226 | 32.249 | 2 |
| 2025-06-28T15:14:00 | 54.521309 | 7.558723 | 2.0 | 16.057 | 2 | 41.016 | 16.224 | 32.250 | 2 |
| 2025-06-28T15:15:00 | 54.522479 | 7.558878 | 2.0 | 16.056 | 2 | 41.018 | 16.223 | 32.253 | 2 |
| 2025-06-28T15:16:00 | 54.523655 | 7.558968 | 2.0 | 16.052 | 2 | 41.020 | 16.221 | 32.256 | 2 |
| 2025-06-28T15:17:00 | 54.524842 | 7.559104 | 2.0 | 16.043 | 2 | 41.022 | 16.218 | 32.261 | 2 |
| 2025-06-28T15:18:00 | 54.526024 | 7.559247 | 2.0 | 16.030 | 2 | 41.020 | 16.208 | 32.267 | 2 |
| 2025-06-28T15:19:00 | 54.527203 | 7.559393 | 2.0 | 16.021 | 2 | 41.013 | 16.196 | 32.271 | 2 |
| 2025-06-28T15:20:00 | 54.528379 | 7.559571 | 2.0 | 16.002 | 2 | 41.009 | 16.185 | 32.276 | 2 |
| 2025-06-28T15:21:00 | 54.529540 | 7.559748 | 2.0 | 15.998 | 2 | 41.001 | 16.170 | 32.281 | 2 |
| 2025-06-28T15:22:00 | 54.530711 | 7.559839 | 2.0 | 15.976 | 2 | 40.996 | 16.159 | 32.286 | 2 |
| 2025-06-28T15:23:00 | 54.531876 | 7.559906 | 2.0 | 15.962 | 2 | 40.987 | 16.143 | 32.291 | 2 |
| 2025-06-28T15:24:00 | 54.533014 | 7.559972 | 2.0 | 15.958 | 2 | 40.978 | 16.130 | 32.293 | 2 |
| 2025-06-28T15:25:00 | 54.534087 | 7.560070 | 2.0 | 15.947 | 2 | 40.975 | 16.124 | 32.296 | 2 |
| 2025-06-28T15:26:00 | 54.535063 | 7.560129 | 2.0 | 15.953 | 2 | 40.967 | 16.117 | 32.294 | 2 |
| 2025-06-28T15:27:00 | 54.535993 | 7.560258 | 2.0 | 15.946 | 2 | 40.973 | 16.119 | 32.298 | 2 |
| 2025-06-28T15:28:00 | 54.536870 | 7.560389 | 2.0 | 15.949 | 2 | 40.970 | 16.115 | 32.299 | 2 |
| 2025-06-28T15:29:00 | 54.537703 | 7.560562 | 2.0 | 15.950 | 2 | 40.973 | 16.115 | 32.301 | 2 |
| 2025-06-28T15:30:00 | 54.538485 | 7.560703 | 2.0 | 15.946 | 2 | 40.976 | 16.117 | 32.302 | 2 |
| 2025-06-28T15:31:00 | 54.539258 | 7.560853 | 2.0 | 15.935 | 2 | 40.977 | 16.112 | 32.307 | 2 |
| 2025-06-28T15:32:00 | 54.540024 | 7.560994 | 2.0 | 15.936 | 2 | 40.972 | 16.105 | 32.308 | 2 |
| 2025-06-28T15:33:00 | 54.540778 | 7.561133 | 2.0 | 15.941 | 2 | 40.971 | 16.104 | 32.308 | 2 |
| 2025-06-28T15:34:00 | 54.541527 | 7.561272 | 2.0 | 15.939 | 2 | 40.974 | 16.107 | 32.309 | 2 |
| 2025-06-28T15:35:00 | 54.542384 | 7.561537 | 2.0 | 15.939 | 2 | 40.975 | 16.106 | 32.310 | 2 |
| 2025-06-28T15:36:00 | 54.543329 | 7.561738 | 2.0 | 15.936 | 2 | 40.977 | 16.106 | 32.312 | 2 |
| 2025-06-28T15:37:00 | 54.544325 | 7.561863 | 2.0 | 15.930 | 2 | 40.980 | 16.101 | 32.319 | 2 |
| 2025-06-28T15:38:00 | 54.545357 | 7.561969 | 2.0 | 15.928 | 2 | 40.979 | 16.096 | 32.322 | 2 |
| 2025-06-28T15:39:00 | 54.546404 | 7.562113 | 2.0 | 15.930 | 2 | 40.981 | 16.096 | 32.324 | 2 |
| 2025-06-28T15:40:00 | 54.547463 | 7.562210 | 2.0 | 15.898 | 2 | 40.984 | 16.090 | 32.331 | 2 |
| 2025-06-28T15:41:00 | 54.548533 | 7.562265 | 2.0 | 15.906 | 2 | 40.975 | 16.070 | 32.340 | 2 |
| 2025-06-28T15:42:00 | 54.549606 | 7.562328 | 2.0 | 15.895 | 2 | 40.975 | 16.067 | 32.342 | 2 |
| 2025-06-28T15:43:00 | 54.550666 | 7.562410 | 2.0 | 15.896 | 2 | 40.969 | 16.062 | 32.341 | 2 |
| 2025-06-28T15:44:00 | 54.551730 | 7.562473 | 2.0 | 15.888 | 2 | 40.969 | 16.061 | 32.342 | 2 |
| 2025-06-28T15:45:00 | 54.552804 | 7.562514 | 2.0 | 15.895 | 2 | 40.962 | 16.057 | 32.339 | 2 |
| 2025-06-28T15:46:00 | 54.553873 | 7.562557 | 2.0 | 15.898 | 2 | 40.966 | 16.062 | 32.338 | 2 |
| 2025-06-28T15:47:00 | 54.554936 | 7.562620 | 2.0 | 15.902 | 2 | 40.968 | 16.065 | 32.337 | 2 |
| 2025-06-28T15:48:00 | 54.556000 | 7.562679 | 2.0 | 15.904 | 2 | 40.969 | 16.069 | 32.335 | 2 |
| 2025-06-28T15:49:00 | 54.557041 | 7.562754 | 2.0 | 15.900 | 2 | 40.970 | 16.069 | 32.336 | 2 |
| 2025-06-28T15:50:00 | 54.558078 | 7.562833 | 2.0 | 15.899 | 2 | 40.965 | 16.067 | 32.333 | 2 |
| 2025-06-28T15:51:00 | 54.559128 | 7.562945 | 2.0 | 15.896 | 2 | 40.965 | 16.064 | 32.336 | 2 |
| 2025-06-28T15:52:00 | 54.560158 | 7.563007 | 2.0 | 15.896 | 2 | 40.965 | 16.063 | 32.336 | 2 |
| 2025-06-28T15:53:00 | 54.561197 | 7.563064 | 2.0 | 15.904 | 2 | 40.963 | 16.063 | 32.335 | 2 |
| 2025-06-28T15:54:00 | 54.562214 | 7.563225 | 2.0 | 15.904 | 2 | 40.967 | 16.071 | 32.332 | 2 |
| 2025-06-28T15:55:00 | 54.563228 | 7.563306 | 2.0 | 15.905 | 2 | 40.967 | 16.071 | 32.332 | 2 |
| 2025-06-28T15:56:00 | 54.564270 | 7.563387 | 2.0 | 15.902 | 2 | 40.969 | 16.070 | 32.334 | 2 |
| 2025-06-28T15:57:00 | 54.565320 | 7.563449 | 2.0 | 15.896 | 2 | 40.969 | 16.066 | 32.338 | 2 |
| 2025-06-28T15:58:00 | 54.566397 | 7.563508 | 2.0 | 15.900 | 2 | 40.965 | 16.063 | 32.336 | 2 |
| 2025-06-28T15:59:00 | 54.567488 | 7.563594 | 2.0 | 15.880 | 2 | 40.970 | 16.065 | 32.339 | 2 |
| 2025-06-28T16:00:00 | 54.568575 | 7.563681 | 2.0 | 15.877 | 2 | 40.955 | 16.045 | 32.342 | 2 |
| 2025-06-28T16:01:00 | 54.569649 | 7.563746 | 2.0 | 15.869 | 2 | 40.950 | 16.041 | 32.341 | 2 |
| 2025-06-28T16:02:00 | 54.570707 | 7.563800 | 2.0 | 15.875 | 2 | 40.942 | 16.038 | 32.337 | 2 |
| 2025-06-28T16:03:00 | 54.571767 | 7.563855 | 2.0 | 15.874 | 2 | 40.939 | 16.040 | 32.332 | 2 |
| 2025-06-28T16:04:00 | 54.572817 | 7.563918 | 2.0 | 15.879 | 2 | 40.935 | 16.042 | 32.327 | 2 |
| 2025-06-28T16:05:00 | 54.573858 | 7.564019 | 2.0 | 15.883 | 2 | 40.933 | 16.045 | 32.323 | 2 |
| 2025-06-28T16:06:00 | 54.574878 | 7.564101 | 2.0 | 15.887 | 2 | 40.930 | 16.048 | 32.318 | 2 |
| 2025-06-28T16:07:00 | 54.575897 | 7.564166 | 2.0 | 15.892 | 2 | 40.933 | 16.055 | 32.315 | 2 |
| 2025-06-28T16:08:00 | 54.576917 | 7.564256 | 2.0 | 15.892 | 2 | 40.935 | 16.057 | 32.315 | 2 |
| 2025-06-28T16:09:00 | 54.577919 | 7.564332 | 2.0 | 15.892 | 2 | 40.934 | 16.057 | 32.314 | 2 |
| 2025-06-28T16:10:00 | 54.578921 | 7.564407 | 2.0 | 15.898 | 2 | 40.932 | 16.059 | 32.311 | 2 |
| 2025-06-28T16:11:00 | 54.579931 | 7.564452 | 2.0 | 15.899 | 2 | 40.935 | 16.063 | 32.310 | 2 |
| 2025-06-28T16:12:00 | 54.580962 | 7.564523 | 2.0 | 15.903 | 2 | 40.936 | 16.065 | 32.309 | 2 |
| 2025-06-28T16:13:00 | 54.582003 | 7.564558 | 2.0 | 15.910 | 2 | 40.936 | 16.069 | 32.306 | 2 |
| 2025-06-28T16:14:00 | 54.583049 | 7.564623 | 2.0 | 15.911 | 2 | 40.939 | 16.075 | 32.304 | 2 |
| 2025-06-28T16:15:00 | 54.584068 | 7.564719 | 2.0 | 15.912 | 2 | 40.941 | 16.077 | 32.304 | 2 |
| 2025-06-28T16:16:00 | 54.585073 | 7.564792 | 2.0 | 15.914 | 2 | 40.944 | 16.078 | 32.306 | 2 |
| 2025-06-28T16:17:00 | 54.586097 | 7.564872 | 2.0 | 15.911 | 2 | 40.947 | 16.079 | 32.308 | 2 |
| 2025-06-28T16:18:00 | 54.587120 | 7.564950 | 2.0 | 15.911 | 2 | 40.946 | 16.077 | 32.308 | 2 |
| 2025-06-28T16:19:00 | 54.588138 | 7.565039 | 2.0 | 15.913 | 2 | 40.945 | 16.077 | 32.307 | 2 |
| 2025-06-28T16:20:00 | 54.589148 | 7.565124 | 2.0 | 15.913 | 2 | 40.948 | 16.079 | 32.308 | 2 |
| 2025-06-28T16:21:00 | 54.590146 | 7.565196 | 2.0 | 15.911 | 2 | 40.948 | 16.078 | 32.309 | 2 |
| 2025-06-28T16:22:00 | 54.591155 | 7.565305 | 2.0 | 15.913 | 2 | 40.947 | 16.078 | 32.308 | 2 |
| 2025-06-28T16:23:00 | 54.592165 | 7.565398 | 2.0 | 15.913 | 2 | 40.948 | 16.078 | 32.309 | 2 |
| 2025-06-28T16:24:00 | 54.593179 | 7.565477 | 2.0 | 15.910 | 2 | 40.947 | 16.077 | 32.309 | 2 |
| 2025-06-28T16:25:00 | 54.594202 | 7.565580 | 2.0 | 15.912 | 2 | 40.947 | 16.076 | 32.310 | 2 |
| 2025-06-28T16:26:00 | 54.595219 | 7.565695 | 2.0 | 15.916 | 2 | 40.949 | 16.079 | 32.309 | 2 |
| 2025-06-28T16:27:00 | 54.596233 | 7.565755 | 2.0 | 15.921 | 2 | 40.950 | 16.083 | 32.307 | 2 |
| 2025-06-28T16:28:00 | 54.597258 | 7.565799 | 2.0 | 15.924 | 2 | 40.952 | 16.087 | 32.305 | 2 |
| 2025-06-28T16:29:00 | 54.598298 | 7.565857 | 2.0 | 15.923 | 2 | 40.954 | 16.089 | 32.306 | 2 |
| 2025-06-28T16:30:00 | 54.599352 | 7.565936 | 2.0 | 15.919 | 2 | 40.958 | 16.088 | 32.310 | 2 |
| 2025-06-28T16:31:00 | 54.600389 | 7.565977 | 2.0 | 15.915 | 2 | 40.959 | 16.084 | 32.314 | 2 |
| 2025-06-28T16:32:00 | 54.601421 | 7.566086 | 2.0 | 15.919 | 2 | 40.957 | 16.082 | 32.314 | 2 |
| 2025-06-28T16:33:00 | 54.602452 | 7.566173 | 2.0 | 15.922 | 2 | 40.958 | 16.085 | 32.312 | 2 |
| 2025-06-28T16:34:00 | 54.603472 | 7.566232 | 2.0 | 15.926 | 2 | 40.960 | 16.089 | 32.311 | 2 |
| 2025-06-28T16:35:00 | 54.604495 | 7.566297 | 2.0 | 15.928 | 2 | 40.961 | 16.091 | 32.310 | 2 |
| 2025-06-28T16:36:00 | 54.605531 | 7.566370 | 2.0 | 15.925 | 2 | 40.964 | 16.093 | 32.311 | 2 |
| 2025-06-28T16:37:00 | 54.606543 | 7.566428 | 2.0 | 15.931 | 2 | 40.965 | 16.093 | 32.312 | 2 |
| 2025-06-28T16:38:00 | 54.607545 | 7.566497 | 2.0 | 15.931 | 2 | 40.969 | 16.097 | 32.312 | 2 |
| 2025-06-28T16:39:00 | 54.608542 | 7.566612 | 2.0 | 15.934 | 2 | 40.970 | 16.097 | 32.313 | 2 |
| 2025-06-28T16:40:00 | 54.609508 | 7.566699 | 2.0 | 15.933 | 2 | 40.972 | 16.099 | 32.313 | 2 |
| 2025-06-28T16:41:00 | 54.610487 | 7.566791 | 2.0 | 15.938 | 2 | 40.973 | 16.101 | 32.313 | 2 |
| 2025-06-28T16:42:00 | 54.611475 | 7.566852 | 2.0 | 15.941 | 2 | 40.976 | 16.104 | 32.313 | 2 |
| 2025-06-28T16:43:00 | 54.612459 | 7.566978 | 2.0 | 15.944 | 2 | 40.977 | 16.106 | 32.312 | 2 |
| 2025-06-28T16:44:00 | 54.613439 | 7.567050 | 2.0 | 15.950 | 2 | 40.979 | 16.111 | 32.310 | 2 |
| 2025-06-28T16:45:00 | 54.614406 | 7.567166 | 2.0 | 15.952 | 2 | 40.985 | 16.116 | 32.311 | 2 |
| 2025-06-28T16:46:00 | 54.615369 | 7.567257 | 2.0 | 15.954 | 2 | 40.986 | 16.116 | 32.312 | 2 |
| 2025-06-28T16:47:00 | 54.616323 | 7.567358 | 2.0 | 15.959 | 2 | 40.987 | 16.120 | 32.309 | 2 |
| 2025-06-28T16:48:00 | 54.617275 | 7.567419 | 2.0 | 15.965 | 2 | 40.980 | 16.125 | 32.299 | 2 |
| 2025-06-28T16:49:00 | 54.618232 | 7.567472 | 2.0 | 15.969 | 2 | 40.977 | 16.130 | 32.292 | 2 |
| 2025-06-28T16:50:00 | 54.619186 | 7.567550 | 2.0 | 15.974 | 2 | 40.970 | 16.135 | 32.282 | 2 |
| 2025-06-28T16:51:00 | 54.620129 | 7.567649 | 2.0 | 15.979 | 2 | 40.982 | 16.139 | 32.290 | 2 |
| 2025-06-28T16:52:00 | 54.621052 | 7.567692 | 2.0 | 15.983 | 2 | 40.986 | 16.145 | 32.288 | 2 |
| 2025-06-28T16:53:00 | 54.621999 | 7.567748 | 2.0 | 15.981 | 2 | 40.990 | 16.146 | 32.291 | 2 |
| 2025-06-28T16:54:00 | 54.622955 | 7.567829 | 2.0 | 15.985 | 2 | 40.987 | 16.147 | 32.287 | 2 |
| 2025-06-28T16:55:00 | 54.623894 | 7.567878 | 2.0 | 15.984 | 2 | 40.997 | 16.149 | 32.295 | 2 |
| 2025-06-28T16:56:00 | 54.624847 | 7.567960 | 2.0 | 15.984 | 2 | 41.001 | 16.150 | 32.297 | 2 |
| 2025-06-28T16:57:00 | 54.625806 | 7.568012 | 2.0 | 15.980 | 2 | 41.005 | 16.148 | 32.302 | 2 |
| 2025-06-28T16:58:00 | 54.626755 | 7.568135 | 2.0 | 15.981 | 2 | 41.002 | 16.146 | 32.301 | 2 |
| 2025-06-28T16:59:00 | 54.627683 | 7.568166 | 2.0 | 15.983 | 2 | 41.002 | 16.147 | 32.301 | 2 |
| 2025-06-28T17:00:00 | 54.628647 | 7.568237 | 2.0 | 15.989 | 2 | 41.002 | 16.149 | 32.299 | 2 |
| 2025-06-28T17:01:00 | 54.629607 | 7.568321 | 2.0 | 15.988 | 2 | 41.009 | 16.153 | 32.302 | 2 |
| 2025-06-28T17:02:00 | 54.630558 | 7.568400 | 2.0 | 15.989 | 2 | 41.011 | 16.154 | 32.303 | 2 |
| 2025-06-28T17:03:00 | 54.631512 | 7.568423 | 2.0 | 15.989 | 2 | 41.013 | 16.154 | 32.305 | 2 |
| 2025-06-28T17:04:00 | 54.632490 | 7.568482 | 2.0 | 15.988 | 2 | 41.014 | 16.154 | 32.306 | 2 |
| 2025-06-28T17:05:00 | 54.633479 | 7.568566 | 2.0 | 15.990 | 2 | 41.015 | 16.153 | 32.307 | 2 |
| 2025-06-28T17:06:00 | 54.634463 | 7.568604 | 2.0 | 15.994 | 2 | 41.016 | 16.155 | 32.306 | 2 |
| 2025-06-28T17:07:00 | 54.635453 | 7.568666 | 2.0 | 15.991 | 2 | 41.019 | 16.157 | 32.307 | 2 |
| 2025-06-28T17:08:00 | 54.636444 | 7.568841 | 2.0 | 15.986 | 2 | 41.019 | 16.156 | 32.308 | 2 |
| 2025-06-28T17:09:00 | 54.637477 | 7.569036 | 2.0 | 15.982 | 2 | 41.019 | 16.151 | 32.312 | 2 |
| 2025-06-28T17:10:00 | 54.638487 | 7.569212 | 2.0 | 15.985 | 2 | 40.942 | 16.148 | 32.247 | 2 |
| 2025-06-28T17:11:00 | 54.639502 | 7.569403 | 2.0 | 15.985 | 2 | 40.938 | 16.149 | 32.243 | 2 |
| 2025-06-28T17:12:00 | 54.640491 | 7.569555 | 2.0 | 15.987 | 2 | 40.929 | 16.150 | 32.234 | 2 |
| 2025-06-28T17:13:00 | 54.641494 | 7.569736 | 2.0 | 15.991 | 2 | 40.958 | 16.153 | 32.257 | 2 |
| 2025-06-28T17:14:00 | 54.642480 | 7.569904 | 2.0 | 15.990 | 2 | 40.990 | 16.155 | 32.284 | 2 |
| 2025-06-28T17:15:00 | 54.643480 | 7.570088 | 2.0 | 15.992 | 2 | 40.981 | 16.156 | 32.275 | 2 |
| 2025-06-28T17:16:00 | 54.644493 | 7.570289 | 2.0 | 15.993 | 2 | 40.991 | 16.157 | 32.283 | 2 |
| 2025-06-28T17:17:00 | 54.645513 | 7.570494 | 2.0 | 15.992 | 2 | 40.982 | 16.159 | 32.273 | 2 |
| 2025-06-28T17:18:00 | 54.646533 | 7.570697 | 2.0 | 15.993 | 2 | 40.993 | 16.157 | 32.285 | 2 |
| 2025-06-28T17:19:00 | 54.647552 | 7.570885 | 2.0 | 15.992 | 2 | 40.996 | 16.158 | 32.286 | 2 |
| 2025-06-28T17:20:00 | 54.648565 | 7.571065 | 2.0 | 15.995 | 2 | 40.987 | 16.158 | 32.279 | 2 |
| 2025-06-28T17:21:00 | 54.649562 | 7.571229 | 2.0 | 16.002 | 2 | 41.000 | 16.162 | 32.287 | 2 |
| 2025-06-28T17:22:00 | 54.650560 | 7.571397 | 2.0 | 16.005 | 2 | 40.992 | 16.167 | 32.276 | 2 |
| 2025-06-28T17:23:00 | 54.651559 | 7.571572 | 2.0 | 16.007 | 2 | 41.000 | 16.170 | 32.280 | 2 |
| 2025-06-28T17:24:00 | 54.652553 | 7.571757 | 2.0 | 16.011 | 2 | 40.997 | 16.172 | 32.276 | 2 |
| 2025-06-28T17:25:00 | 54.653557 | 7.571913 | 2.0 | 16.017 | 2 | 40.999 | 16.176 | 32.274 | 2 |
| 2025-06-28T17:26:00 | 54.654557 | 7.572092 | 2.0 | 16.020 | 2 | 41.005 | 16.182 | 32.275 | 2 |
| 2025-06-28T17:27:00 | 54.655562 | 7.572256 | 2.0 | 16.023 | 2 | 41.006 | 16.184 | 32.274 | 2 |
| 2025-06-28T17:28:00 | 54.656570 | 7.572450 | 2.0 | 16.022 | 2 | 41.008 | 16.187 | 32.273 | 2 |
| 2025-06-28T17:29:00 | 54.657567 | 7.572657 | 2.0 | 16.021 | 2 | 41.008 | 16.187 | 32.273 | 2 |
| 2025-06-28T17:30:00 | 54.658574 | 7.572845 | 2.0 | 16.015 | 2 | 41.010 | 16.184 | 32.278 | 2 |
| 2025-06-28T17:31:00 | 54.659597 | 7.573056 | 2.0 | 16.016 | 2 | 41.008 | 16.181 | 32.278 | 2 |
| 2025-06-28T17:32:00 | 54.660622 | 7.573259 | 2.0 | 16.020 | 2 | 41.007 | 16.182 | 32.277 | 2 |
| 2025-06-28T17:33:00 | 54.661637 | 7.573428 | 2.0 | 16.022 | 2 | 41.008 | 16.185 | 32.275 | 2 |
| 2025-06-28T17:34:00 | 54.662656 | 7.573596 | 2.0 | 16.026 | 2 | 41.008 | 16.187 | 32.273 | 2 |
| 2025-06-28T17:35:00 | 54.663673 | 7.573791 | 2.0 | 16.026 | 2 | 41.009 | 16.190 | 32.272 | 2 |
| 2025-06-28T17:36:00 | 54.664683 | 7.573982 | 2.0 | 16.029 | 2 | 41.007 | 16.192 | 32.269 | 2 |
| 2025-06-28T17:37:00 | 54.665704 | 7.574149 | 2.0 | 16.031 | 2 | 41.008 | 16.195 | 32.267 | 2 |
| 2025-06-28T17:38:00 | 54.666727 | 7.574306 | 2.0 | 16.032 | 2 | 41.010 | 16.197 | 32.267 | 2 |
| 2025-06-28T17:39:00 | 54.667745 | 7.574470 | 2.0 | 16.036 | 2 | 41.008 | 16.197 | 32.265 | 2 |
| 2025-06-28T17:40:00 | 54.668756 | 7.574620 | 2.0 | 16.042 | 2 | 41.002 | 16.201 | 32.257 | 2 |
| 2025-06-28T17:41:00 | 54.669771 | 7.574790 | 2.0 | 16.046 | 2 | 41.002 | 16.207 | 32.252 | 2 |
| 2025-06-28T17:42:00 | 54.670778 | 7.574967 | 2.0 | 16.048 | 2 | 41.002 | 16.210 | 32.250 | 2 |
| 2025-06-28T17:43:00 | 54.671791 | 7.575120 | 2.0 | 16.050 | 2 | 41.001 | 16.213 | 32.246 | 2 |
| 2025-06-28T17:44:00 | 54.672801 | 7.575269 | 2.0 | 16.053 | 2 | 40.999 | 16.215 | 32.243 | 2 |
| 2025-06-28T17:45:00 | 54.673814 | 7.575423 | 2.0 | 16.055 | 2 | 40.999 | 16.217 | 32.241 | 2 |
| 2025-06-28T17:46:00 | 54.674822 | 7.575589 | 2.0 | 16.055 | 2 | 40.999 | 16.220 | 32.239 | 2 |
| 2025-06-28T17:47:00 | 54.675829 | 7.575763 | 2.0 | 16.053 | 2 | 40.993 | 16.218 | 32.235 | 2 |
| 2025-06-28T17:48:00 | 54.676822 | 7.575919 | 2.0 | 16.059 | 2 | 40.990 | 16.219 | 32.232 | 2 |
| 2025-06-28T17:49:00 | 54.677808 | 7.576120 | 2.0 | 16.058 | 2 | 40.989 | 16.223 | 32.228 | 2 |
| 2025-06-28T17:50:00 | 54.678790 | 7.576293 | 2.0 | 16.064 | 2 | 40.987 | 16.224 | 32.225 | 2 |
| 2025-06-28T17:51:00 | 54.679779 | 7.576453 | 2.0 | 16.066 | 2 | 40.990 | 16.229 | 32.224 | 2 |
| 2025-06-28T17:52:00 | 54.680755 | 7.576651 | 2.0 | 16.064 | 2 | 40.987 | 16.230 | 32.220 | 2 |
| 2025-06-28T17:53:00 | 54.681727 | 7.576780 | 2.0 | 16.063 | 2 | 40.981 | 16.228 | 32.217 | 2 |
| 2025-06-28T17:54:00 | 54.682699 | 7.576940 | 2.0 | 16.059 | 2 | 40.978 | 16.227 | 32.215 | 2 |
| 2025-06-28T17:55:00 | 54.683661 | 7.577102 | 2.0 | 16.058 | 2 | 40.974 | 16.224 | 32.214 | 2 |
| 2025-06-28T17:56:00 | 54.684662 | 7.577254 | 2.0 | 16.058 | 2 | 40.971 | 16.221 | 32.213 | 2 |
| 2025-06-28T17:57:00 | 54.685669 | 7.577441 | 2.0 | 16.058 | 2 | 40.970 | 16.222 | 32.212 | 2 |
| 2025-06-28T17:58:00 | 54.686663 | 7.577569 | 2.0 | 16.059 | 2 | 40.970 | 16.223 | 32.211 | 2 |
| 2025-06-28T17:59:00 | 54.687649 | 7.577719 | 2.0 | 16.056 | 2 | 40.969 | 16.223 | 32.210 | 2 |
| 2025-06-28T18:00:00 | 54.688632 | 7.577885 | 2.0 | 16.056 | 2 | 40.968 | 16.221 | 32.211 | 2 |
| 2025-06-28T18:01:00 | 54.689605 | 7.578032 | 2.0 | 16.054 | 2 | 40.967 | 16.220 | 32.211 | 2 |
| 2025-06-28T18:02:00 | 54.690575 | 7.578191 | 2.0 | 16.053 | 2 | 40.965 | 16.217 | 32.211 | 2 |
| 2025-06-28T18:03:00 | 54.691548 | 7.578350 | 2.0 | 16.055 | 2 | 40.964 | 16.217 | 32.211 | 2 |
| 2025-06-28T18:04:00 | 54.692529 | 7.578506 | 2.0 | 16.056 | 2 | 40.964 | 16.220 | 32.208 | 2 |
| 2025-06-28T18:05:00 | 54.693491 | 7.578641 | 2.0 | 16.054 | 2 | 40.966 | 16.220 | 32.210 | 2 |
| 2025-06-28T18:06:00 | 54.694464 | 7.578780 | 2.0 | 16.051 | 2 | 40.967 | 16.218 | 32.212 | 2 |
| 2025-06-28T18:07:00 | 54.695446 | 7.578958 | 2.0 | 16.048 | 2 | 40.969 | 16.216 | 32.216 | 2 |
| 2025-06-28T18:08:00 | 54.696418 | 7.579098 | 2.0 | 16.049 | 2 | 40.969 | 16.213 | 32.218 | 2 |
| 2025-06-28T18:09:00 | 54.697387 | 7.579280 | 2.0 | 16.047 | 2 | 40.970 | 16.212 | 32.220 | 2 |
| 2025-06-28T18:10:00 | 54.698357 | 7.579463 | 2.0 | 16.043 | 2 | 40.969 | 16.210 | 32.221 | 2 |
| 2025-06-28T18:11:00 | 54.699328 | 7.579659 | 2.0 | 16.043 | 2 | 40.965 | 16.208 | 32.219 | 2 |
| 2025-06-28T18:12:00 | 54.700292 | 7.579799 | 2.0 | 16.037 | 2 | 40.966 | 16.207 | 32.220 | 2 |
| 2025-06-28T18:13:00 | 54.701239 | 7.579995 | 2.0 | 16.030 | 2 | 40.963 | 16.200 | 32.223 | 2 |
| 2025-06-28T18:14:00 | 54.702158 | 7.580145 | 2.0 | 16.027 | 2 | 40.955 | 16.195 | 32.220 | 2 |
| 2025-06-28T18:15:00 | 54.703087 | 7.580312 | 2.0 | 16.027 | 2 | 40.947 | 16.192 | 32.216 | 2 |
| 2025-06-28T18:16:00 | 54.703776 | 7.580142 | 2.0 | 16.028 | 2 | 40.941 | 16.191 | 32.211 | 2 |
| 2025-06-28T18:17:00 | 54.704186 | 7.579852 | 2.0 | 16.028 | 2 | 40.941 | 16.192 | 32.211 | 2 |
| 2025-06-28T18:18:00 | 54.704534 | 7.579619 | 2.0 | 16.030 | 2 | 40.941 | 16.193 | 32.210 | 2 |
| 2025-06-28T18:19:00 | 54.704884 | 7.579432 | 2.0 | 16.031 | 2 | 40.941 | 16.195 | 32.208 | 2 |
| 2025-06-28T18:20:00 | 54.705216 | 7.579288 | 2.0 | 16.033 | 2 | 40.939 | 16.195 | 32.206 | 2 |
| 2025-06-28T18:21:00 | 54.705556 | 7.579198 | 2.0 | 16.034 | 2 | 40.937 | 16.197 | 32.203 | 2 |
| 2025-06-28T18:22:00 | 54.705926 | 7.579123 | 2.0 | 16.036 | 2 | 40.935 | 16.198 | 32.200 | 2 |
| 2025-06-28T18:23:00 | 54.706298 | 7.579035 | 2.0 | 16.039 | 2 | 40.933 | 16.200 | 32.197 | 2 |
| 2025-06-28T18:24:00 | 54.706668 | 7.578914 | 2.0 | 16.043 | 2 | 40.930 | 16.203 | 32.192 | 2 |
| 2025-06-28T18:25:00 | 54.707009 | 7.578721 | 2.0 | 16.046 | 2 | 40.928 | 16.207 | 32.187 | 2 |
| 2025-06-28T18:26:00 | 54.707285 | 7.578371 | 2.0 | 16.048 | 2 | 40.927 | 16.210 | 32.184 | 2 |
| 2025-06-28T18:27:00 | 54.707434 | 7.577822 | 2.0 | 16.046 | 2 | 40.927 | 16.211 | 32.183 | 2 |
| 2025-06-28T18:28:00 | 54.707371 | 7.577263 | 2.0 | 16.044 | 2 | 40.928 | 16.210 | 32.185 | 2 |
| 2025-06-28T18:29:00 | 54.707227 | 7.576679 | 2.0 | 16.040 | 2 | 40.932 | 16.207 | 32.191 | 2 |
| 2025-06-28T18:30:00 | 54.707051 | 7.575940 | 2.0 | 16.034 | 2 | 40.937 | 16.204 | 32.197 | 2 |
| 2025-06-28T18:31:00 | 54.706850 | 7.575178 | 2.0 | 16.030 | 2 | 40.942 | 16.199 | 32.206 | 2 |
| 2025-06-28T18:32:00 | 54.706684 | 7.574648 | 2.0 | 16.029 | 2 | 40.946 | 16.195 | 32.213 | 2 |
| 2025-06-28T18:33:00 | 54.706555 | 7.574260 | 2.0 | 16.029 | 2 | 40.948 | 16.194 | 32.215 | 2 |
| 2025-06-28T18:34:00 | 54.706503 | 7.574043 | 2.0 | 16.030 | 2 | 40.947 | 16.194 | 32.214 | 2 |
| 2025-06-28T18:35:00 | 54.706482 | 7.573949 | 2.0 | 16.031 | 2 | 40.949 | 16.195 | 32.215 | 2 |
| 2025-06-28T18:36:00 | 54.706498 | 7.573955 | 2.0 | 16.033 | 2 | 40.950 | 16.196 | 32.215 | 2 |
| 2025-06-28T18:37:00 | 54.706532 | 7.574005 | 2.0 | 16.034 | 2 | 40.950 | 16.197 | 32.214 | 2 |
| 2025-06-28T18:38:00 | 54.706557 | 7.574109 | 2.0 | 16.031 | 2 | 40.947 | 16.197 | 32.212 | 2 |
| 2025-06-28T18:39:00 | 54.706580 | 7.574293 | 2.0 | 16.030 | 2 | 40.944 | 16.196 | 32.210 | 2 |
| 2025-06-28T18:40:00 | 54.706591 | 7.574492 | 2.0 | 16.029 | 2 | 40.932 | 16.194 | 32.201 | 2 |
| 2025-06-28T18:41:00 | 54.706556 | 7.574696 | 2.0 | 16.034 | 2 | 40.927 | 16.194 | 32.197 | 2 |
| 2025-06-28T18:42:00 | 54.706517 | 7.574966 | 2.0 | 16.038 | 2 | 40.918 | 16.199 | 32.185 | 2 |
| 2025-06-28T18:43:00 | 54.706469 | 7.575212 | 2.0 | 16.044 | 2 | 40.911 | 16.203 | 32.175 | 2 |
| 2025-06-28T18:44:00 | 54.706413 | 7.575475 | 2.0 | 16.047 | 2 | 40.920 | 16.209 | 32.178 | 2 |
| 2025-06-28T18:45:00 | 54.706344 | 7.575715 | 2.0 | 16.054 | 2 | 40.918 | 16.213 | 32.173 | 2 |
| 2025-06-28T18:46:00 | 54.706283 | 7.575973 | 2.0 | 16.057 | 2 | 40.912 | 16.218 | 32.164 | 2 |
| 2025-06-28T18:47:00 | 54.706202 | 7.576251 | 2.0 | 16.067 | 2 | 40.907 | 16.222 | 32.156 | 2 |
| 2025-06-28T18:48:00 | 54.706127 | 7.576474 | 2.0 | 16.068 | 2 | 40.901 | 16.229 | 32.146 | 2 |
| 2025-06-28T18:49:00 | 54.706033 | 7.576688 | 2.0 | 16.083 | 2 | 40.899 | 16.235 | 32.139 | 2 |
| 2025-06-28T18:50:00 | 54.705941 | 7.576859 | 2.0 | 16.084 | 2 | 40.892 | 16.247 | 32.123 | 2 |
| 2025-06-28T18:51:00 | 54.705833 | 7.576999 | 2.0 | 16.088 | 2 | 40.891 | 16.248 | 32.121 | 2 |
| 2025-06-28T18:52:00 | 54.705719 | 7.577053 | 2.0 | 16.092 | 2 | 40.884 | 16.251 | 32.113 | 2 |
| 2025-06-28T18:53:00 | 54.705631 | 7.576893 | 2.0 | 16.092 | 2 | 40.881 | 16.255 | 32.107 | 2 |
| 2025-06-28T18:54:00 | 54.705751 | 7.576506 | 2.0 | 16.093 | 2 | 40.876 | 16.256 | 32.102 | 2 |
| 2025-06-28T18:55:00 | 54.706031 | 7.575970 | 2.0 | 16.093 | 2 | 40.873 | 16.256 | 32.099 | 2 |
| 2025-06-28T18:56:00 | 54.706227 | 7.575322 | 2.0 | 16.091 | 2 | 40.874 | 16.256 | 32.100 | 2 |
| 2025-06-28T18:57:00 | 54.706236 | 7.574650 | 2.0 | 16.083 | 2 | 40.884 | 16.252 | 32.112 | 2 |
| 2025-06-28T18:58:00 | 54.706129 | 7.573963 | 2.0 | 16.086 | 2 | 40.888 | 16.248 | 32.119 | 2 |
| 2025-06-28T18:59:00 | 54.705916 | 7.573207 | 2.0 | 16.066 | 2 | 40.892 | 16.246 | 32.124 | 2 |
| 2025-06-28T19:00:00 | 54.705728 | 7.572446 | 2.0 | 16.053 | 2 | 40.904 | 16.227 | 32.150 | 2 |
| 2025-06-28T19:01:00 | 54.705490 | 7.571605 | 2.0 | 16.043 | 2 | 40.910 | 16.216 | 32.164 | 2 |
| 2025-06-28T19:02:00 | 54.705217 | 7.570765 | 2.0 | 16.037 | 2 | 40.920 | 16.207 | 32.180 | 2 |
| 2025-06-28T19:03:00 | 54.704974 | 7.570000 | 2.0 | 16.033 | 2 | 40.926 | 16.201 | 32.190 | 2 |
| 2025-06-28T19:04:00 | 54.704700 | 7.569303 | 2.0 | 16.029 | 2 | 40.931 | 16.197 | 32.198 | 2 |
| 2025-06-28T19:05:00 | 54.704431 | 7.568619 | 2.0 | 16.028 | 2 | 40.934 | 16.194 | 32.203 | 2 |
| 2025-06-28T19:06:00 | 54.704195 | 7.568009 | 2.0 | 16.028 | 2 | 40.938 | 16.193 | 32.207 | 2 |
| 2025-06-28T19:07:00 | 54.703980 | 7.567543 | 2.0 | 16.027 | 2 | 40.943 | 16.193 | 32.212 | 2 |
| 2025-06-28T19:08:00 | 54.703791 | 7.567078 | 2.0 | 16.026 | 2 | 40.945 | 16.192 | 32.214 | 2 |
| 2025-06-28T19:09:00 | 54.703600 | 7.566666 | 2.0 | 16.026 | 2 | 40.948 | 16.192 | 32.217 | 2 |
| 2025-06-28T19:10:00 | 54.703361 | 7.566230 | 2.0 | 16.028 | 2 | 40.952 | 16.192 | 32.220 | 2 |
| 2025-06-28T19:11:00 | 54.703153 | 7.565768 | 2.0 | 16.027 | 2 | 40.956 | 16.192 | 32.224 | 2 |
| 2025-06-28T19:12:00 | 54.702919 | 7.565241 | 2.0 | 16.029 | 2 | 40.959 | 16.192 | 32.226 | 2 |
| 2025-06-28T19:13:00 | 54.702675 | 7.564676 | 2.0 | 16.033 | 2 | 40.962 | 16.194 | 32.227 | 2 |
| 2025-06-28T19:14:00 | 54.702445 | 7.564106 | 2.0 | 16.035 | 2 | 40.965 | 16.197 | 32.228 | 2 |
| 2025-06-28T19:15:00 | 54.702197 | 7.563534 | 2.0 | 16.035 | 2 | 40.967 | 16.199 | 32.228 | 2 |
| 2025-06-28T19:16:00 | 54.701964 | 7.563013 | 2.0 | 16.036 | 2 | 40.968 | 16.200 | 32.228 | 2 |
| 2025-06-28T19:17:00 | 54.701737 | 7.562517 | 2.0 | 16.036 | 2 | 40.970 | 16.200 | 32.230 | 2 |
| 2025-06-28T19:18:00 | 54.701498 | 7.561990 | 2.0 | 16.036 | 2 | 40.971 | 16.201 | 32.230 | 2 |
| 2025-06-28T19:19:00 | 54.701251 | 7.561483 | 2.0 | 16.033 | 2 | 40.972 | 16.199 | 32.232 | 2 |
| 2025-06-28T19:20:00 | 54.700981 | 7.560953 | 2.0 | 16.033 | 2 | 40.973 | 16.198 | 32.234 | 2 |
| 2025-06-28T19:21:00 | 54.700719 | 7.560349 | 2.0 | 16.030 | 2 | 40.974 | 16.196 | 32.236 | 2 |
| 2025-06-28T19:22:00 | 54.700444 | 7.559763 | 2.0 | 16.028 | 2 | 40.975 | 16.194 | 32.239 | 2 |
| 2025-06-28T19:23:00 | 54.700166 | 7.559207 | 2.0 | 16.030 | 2 | 40.976 | 16.193 | 32.240 | 2 |
| 2025-06-28T19:24:00 | 54.699897 | 7.558693 | 2.0 | 16.035 | 2 | 40.978 | 16.196 | 32.240 | 2 |
| 2025-06-28T19:25:00 | 54.699619 | 7.558184 | 2.0 | 16.035 | 2 | 40.978 | 16.199 | 32.237 | 2 |
| 2025-06-28T19:26:00 | 54.699371 | 7.557655 | 2.0 | 16.035 | 2 | 40.978 | 16.199 | 32.237 | 2 |
| 2025-06-28T19:27:00 | 54.699131 | 7.557234 | 2.0 | 16.038 | 2 | 40.978 | 16.200 | 32.237 | 2 |
| 2025-06-28T19:28:00 | 54.698920 | 7.556821 | 2.0 | 16.040 | 2 | 40.978 | 16.202 | 32.235 | 2 |
| 2025-06-28T19:29:00 | 54.698678 | 7.556368 | 2.0 | 16.040 | 2 | 40.978 | 16.203 | 32.234 | 2 |
| 2025-06-28T19:30:00 | 54.698450 | 7.555836 | 2.0 | 16.040 | 2 | 40.977 | 16.203 | 32.233 | 2 |
| 2025-06-28T19:31:00 | 54.698188 | 7.555402 | 2.0 | 16.040 | 2 | 40.976 | 16.204 | 32.232 | 2 |
| 2025-06-28T19:32:00 | 54.697937 | 7.554984 | 2.0 | 16.039 | 2 | 40.977 | 16.204 | 32.232 | 2 |
| 2025-06-28T19:33:00 | 54.697659 | 7.554509 | 2.0 | 16.038 | 2 | 40.976 | 16.203 | 32.232 | 2 |
| 2025-06-28T19:34:00 | 54.697397 | 7.554055 | 2.0 | 16.037 | 2 | 40.975 | 16.201 | 32.233 | 2 |
| 2025-06-28T19:35:00 | 54.697160 | 7.553656 | 2.0 | 16.037 | 2 | 40.975 | 16.201 | 32.233 | 2 |
| 2025-06-28T19:36:00 | 54.696909 | 7.553192 | 2.0 | 16.036 | 2 | 40.974 | 16.201 | 32.232 | 2 |
| 2025-06-28T19:37:00 | 54.696652 | 7.552852 | 2.0 | 16.038 | 2 | 40.974 | 16.201 | 32.232 | 2 |
| 2025-06-28T19:38:00 | 54.696381 | 7.552459 | 2.0 | 16.038 | 2 | 40.974 | 16.202 | 32.231 | 2 |
| 2025-06-28T19:39:00 | 54.696116 | 7.551984 | 2.0 | 16.038 | 2 | 40.974 | 16.203 | 32.231 | 2 |
| 2025-06-28T19:40:00 | 54.695824 | 7.551420 | 2.0 | 16.037 | 2 | 40.973 | 16.202 | 32.231 | 2 |
| 2025-06-28T19:41:00 | 54.695520 | 7.550806 | 2.0 | 16.036 | 2 | 40.973 | 16.201 | 32.231 | 2 |
| 2025-06-28T19:42:00 | 54.695242 | 7.550298 | 2.0 | 16.035 | 2 | 40.973 | 16.200 | 32.232 | 2 |
| 2025-06-28T19:43:00 | 54.694990 | 7.549869 | 2.0 | 16.034 | 2 | 40.973 | 16.199 | 32.233 | 2 |
| 2025-06-28T19:44:00 | 54.694722 | 7.549369 | 2.0 | 16.033 | 2 | 40.973 | 16.199 | 32.233 | 2 |
| 2025-06-28T19:45:00 | 54.694471 | 7.548870 | 2.0 | 16.033 | 2 | 40.972 | 16.198 | 32.233 | 2 |
| 2025-06-28T19:46:00 | 54.694211 | 7.548390 | 2.0 | 16.031 | 2 | 40.972 | 16.197 | 32.234 | 2 |
| 2025-06-28T19:47:00 | 54.693956 | 7.547913 | 2.0 | 16.030 | 2 | 40.970 | 16.196 | 32.233 | 2 |
| 2025-06-28T19:48:00 | 54.693681 | 7.547511 | 2.0 | 16.030 | 2 | 40.969 | 16.195 | 32.233 | 2 |
| 2025-06-28T19:49:00 | 54.693447 | 7.547145 | 2.0 | 16.029 | 2 | 40.969 | 16.194 | 32.234 | 2 |
| 2025-06-28T19:50:00 | 54.693207 | 7.546754 | 2.0 | 16.028 | 2 | 40.968 | 16.193 | 32.233 | 2 |
| 2025-06-28T19:51:00 | 54.692953 | 7.546392 | 2.0 | 16.026 | 2 | 40.968 | 16.192 | 32.234 | 2 |
| 2025-06-28T19:52:00 | 54.692728 | 7.546002 | 2.0 | 16.025 | 2 | 40.967 | 16.190 | 32.235 | 2 |
| 2025-06-28T19:53:00 | 54.692485 | 7.545569 | 2.0 | 16.023 | 2 | 40.966 | 16.189 | 32.235 | 2 |
| 2025-06-28T19:54:00 | 54.692231 | 7.545119 | 2.0 | 16.023 | 2 | 40.966 | 16.187 | 32.237 | 2 |
| 2025-06-28T19:55:00 | 54.691980 | 7.544672 | 2.0 | 16.021 | 2 | 40.966 | 16.187 | 32.237 | 2 |
| 2025-06-28T19:56:00 | 54.691733 | 7.544372 | 2.0 | 16.021 | 2 | 40.965 | 16.185 | 32.237 | 2 |
| 2025-06-28T19:57:00 | 54.691529 | 7.544013 | 2.0 | 16.019 | 2 | 40.965 | 16.185 | 32.237 | 2 |
| 2025-06-28T19:58:00 | 54.691280 | 7.543729 | 2.0 | 16.019 | 2 | 40.964 | 16.184 | 32.237 | 2 |
| 2025-06-28T19:59:00 | 54.691043 | 7.543419 | 2.0 | 16.019 | 2 | 40.963 | 16.183 | 32.237 | 2 |
| 2025-06-28T20:00:00 | 54.690803 | 7.543069 | 2.0 | 16.018 | 2 | 40.963 | 16.184 | 32.236 | 2 |
| 2025-06-28T20:01:00 | 54.690553 | 7.542686 | 2.0 | 16.017 | 2 | 40.963 | 16.183 | 32.237 | 2 |
| 2025-06-28T20:02:00 | 54.690272 | 7.542344 | 2.0 | 16.016 | 2 | 40.963 | 16.181 | 32.239 | 2 |
| 2025-06-28T20:03:00 | 54.690015 | 7.541893 | 2.0 | 16.014 | 2 | 40.963 | 16.180 | 32.240 | 2 |
| 2025-06-28T20:04:00 | 54.689750 | 7.541433 | 2.0 | 16.011 | 2 | 40.961 | 16.177 | 32.240 | 2 |
| 2025-06-28T20:05:00 | 54.689480 | 7.540955 | 2.0 | 16.010 | 2 | 40.961 | 16.175 | 32.242 | 2 |
| 2025-06-28T20:06:00 | 54.689203 | 7.540473 | 2.0 | 16.010 | 2 | 40.961 | 16.174 | 32.243 | 2 |
| 2025-06-28T20:07:00 | 54.688907 | 7.539947 | 2.0 | 16.008 | 2 | 40.961 | 16.174 | 32.243 | 2 |
| 2025-06-28T20:08:00 | 54.688594 | 7.539493 | 2.0 | 16.006 | 2 | 40.961 | 16.172 | 32.244 | 2 |
| 2025-06-28T20:09:00 | 54.688312 | 7.539041 | 2.0 | 16.004 | 2 | 40.960 | 16.170 | 32.245 | 2 |
| 2025-06-28T20:10:00 | 54.688017 | 7.538675 | 2.0 | 16.002 | 2 | 40.961 | 16.168 | 32.248 | 2 |
| 2025-06-28T20:11:00 | 54.687740 | 7.538280 | 2.0 | 16.002 | 2 | 40.961 | 16.167 | 32.248 | 2 |
| 2025-06-28T20:12:00 | 54.687496 | 7.537936 | 2.0 | 16.000 | 2 | 40.962 | 16.166 | 32.250 | 2 |
| 2025-06-28T20:13:00 | 54.687222 | 7.537605 | 2.0 | 15.999 | 2 | 40.961 | 16.164 | 32.251 | 2 |
| 2025-06-28T20:14:00 | 54.686957 | 7.537254 | 2.0 | 15.999 | 2 | 40.962 | 16.164 | 32.252 | 2 |
| 2025-06-28T20:15:00 | 54.686705 | 7.536883 | 2.0 | 15.998 | 2 | 40.963 | 16.163 | 32.253 | 2 |
| 2025-06-28T20:16:00 | 54.686445 | 7.536579 | 2.0 | 15.997 | 2 | 40.964 | 16.162 | 32.255 | 2 |
| 2025-06-28T20:17:00 | 54.686197 | 7.536345 | 2.0 | 15.997 | 2 | 40.964 | 16.162 | 32.255 | 2 |
| 2025-06-28T20:18:00 | 54.685925 | 7.536148 | 2.0 | 15.996 | 2 | 40.965 | 16.161 | 32.257 | 2 |
| 2025-06-28T20:19:00 | 54.685654 | 7.535838 | 2.0 | 15.996 | 2 | 40.966 | 16.161 | 32.258 | 2 |
| 2025-06-28T20:20:00 | 54.685348 | 7.535472 | 2.0 | 15.996 | 2 | 40.967 | 16.161 | 32.259 | 2 |
| 2025-06-28T20:21:00 | 54.685040 | 7.535166 | 2.0 | 15.994 | 2 | 40.967 | 16.160 | 32.259 | 2 |
| 2025-06-28T20:22:00 | 54.684750 | 7.534797 | 2.0 | 15.995 | 2 | 40.968 | 16.160 | 32.260 | 2 |
| 2025-06-28T20:23:00 | 54.684456 | 7.534534 | 2.0 | 15.995 | 2 | 40.967 | 16.159 | 32.260 | 2 |
| 2025-06-28T20:24:00 | 54.684203 | 7.534304 | 2.0 | 15.994 | 2 | 40.967 | 16.159 | 32.260 | 2 |
| 2025-06-28T20:25:00 | 54.683969 | 7.534198 | 2.0 | 15.995 | 2 | 40.968 | 16.159 | 32.261 | 2 |
| 2025-06-28T20:26:00 | 54.683773 | 7.534230 | 2.0 | 15.994 | 2 | 40.969 | 16.159 | 32.262 | 2 |
| 2025-06-28T20:27:00 | 54.683543 | 7.534109 | 2.0 | 15.994 | 2 | 40.967 | 16.158 | 32.261 | 2 |
| 2025-06-28T20:28:00 | 54.683322 | 7.534000 | 2.0 | 15.994 | 2 | 40.969 | 16.158 | 32.263 | 2 |
| 2025-06-28T20:29:00 | 54.683085 | 7.533983 | 2.0 | 15.994 | 2 | 40.970 | 16.159 | 32.263 | 2 |
| 2025-06-28T20:30:00 | 54.682867 | 7.533896 | 2.0 | 15.992 | 2 | 40.970 | 16.157 | 32.264 | 2 |
| 2025-06-28T20:31:00 | 54.682659 | 7.533815 | 2.0 | 15.991 | 2 | 40.970 | 16.156 | 32.265 | 2 |
| 2025-06-28T20:32:00 | 54.682450 | 7.533769 | 2.0 | 15.991 | 2 | 40.974 | 16.155 | 32.270 | 2 |
| 2025-06-28T20:33:00 | 54.682228 | 7.533700 | 2.0 | 15.990 | 2 | 40.976 | 16.155 | 32.271 | 2 |
| 2025-06-28T20:34:00 | 54.682009 | 7.533578 | 2.0 | 15.990 | 2 | 40.978 | 16.154 | 32.274 | 2 |
| 2025-06-28T20:35:00 | 54.681753 | 7.533429 | 2.0 | 15.985 | 2 | 40.980 | 16.153 | 32.276 | 2 |
| 2025-06-28T20:36:00 | 54.681501 | 7.533264 | 2.0 | 15.983 | 2 | 40.982 | 16.149 | 32.281 | 2 |
| 2025-06-28T20:37:00 | 54.681264 | 7.533263 | 2.0 | 15.981 | 2 | 40.983 | 16.148 | 32.283 | 2 |
| 2025-06-28T20:38:00 | 54.681035 | 7.533260 | 2.0 | 15.979 | 2 | 40.983 | 16.146 | 32.285 | 2 |
| 2025-06-28T20:39:00 | 54.680793 | 7.533219 | 2.0 | 15.977 | 2 | 40.984 | 16.143 | 32.288 | 2 |
| 2025-06-28T20:40:00 | 54.680567 | 7.533104 | 2.0 | 15.976 | 2 | 40.985 | 16.142 | 32.290 | 2 |
| 2025-06-28T20:41:00 | 54.680306 | 7.533056 | 2.0 | 15.975 | 2 | 40.987 | 16.141 | 32.292 | 2 |
| 2025-06-28T20:42:00 | 54.680062 | 7.533025 | 2.0 | 15.975 | 2 | 40.988 | 16.140 | 32.294 | 2 |
| 2025-06-28T20:43:00 | 54.679820 | 7.533046 | 2.0 | 15.975 | 2 | 40.989 | 16.139 | 32.296 | 2 |
| 2025-06-28T20:44:00 | 54.679572 | 7.533117 | 2.0 | 15.974 | 2 | 40.991 | 16.139 | 32.297 | 2 |
| 2025-06-28T20:45:00 | 54.679383 | 7.533189 | 2.0 | 15.975 | 2 | 40.992 | 16.139 | 32.298 | 2 |
| 2025-06-28T20:46:00 | 54.679184 | 7.533345 | 2.0 | 15.976 | 2 | 40.996 | 16.140 | 32.301 | 2 |
| 2025-06-28T20:47:00 | 54.679018 | 7.533450 | 2.0 | 15.977 | 2 | 40.998 | 16.141 | 32.302 | 2 |
| 2025-06-28T20:48:00 | 54.678827 | 7.533553 | 2.0 | 15.980 | 2 | 41.001 | 16.142 | 32.304 | 2 |
| 2025-06-28T20:49:00 | 54.678590 | 7.533650 | 2.0 | 15.981 | 2 | 41.004 | 16.145 | 32.304 | 2 |
| 2025-06-28T20:50:00 | 54.678379 | 7.533715 | 2.0 | 15.983 | 2 | 41.006 | 16.146 | 32.305 | 2 |
| 2025-06-28T20:51:00 | 54.678154 | 7.533800 | 2.0 | 15.983 | 2 | 41.008 | 16.147 | 32.306 | 2 |
| 2025-06-28T20:52:00 | 54.677908 | 7.533827 | 2.0 | 15.984 | 2 | 41.008 | 16.147 | 32.306 | 2 |
| 2025-06-28T20:53:00 | 54.677670 | 7.533850 | 2.0 | 15.984 | 2 | 41.011 | 16.148 | 32.308 | 2 |
| 2025-06-28T20:54:00 | 54.677436 | 7.533860 | 2.0 | 15.985 | 2 | 41.012 | 16.149 | 32.308 | 2 |
| 2025-06-28T20:55:00 | 54.677208 | 7.533906 | 2.0 | 15.984 | 2 | 41.013 | 16.149 | 32.309 | 2 |
| 2025-06-28T20:56:00 | 54.676972 | 7.533927 | 2.0 | 15.984 | 2 | 41.015 | 16.149 | 32.310 | 2 |
| 2025-06-28T20:57:00 | 54.676711 | 7.533873 | 2.0 | 15.984 | 2 | 41.016 | 16.148 | 32.312 | 2 |
| 2025-06-28T20:58:00 | 54.676464 | 7.533801 | 2.0 | 15.984 | 2 | 41.017 | 16.148 | 32.313 | 2 |
| 2025-06-28T20:59:00 | 54.676173 | 7.533695 | 2.0 | 15.984 | 2 | 41.018 | 16.148 | 32.314 | 2 |
| 2025-06-28T21:00:00 | 54.675905 | 7.533524 | 2.0 | 15.981 | 2 | 41.018 | 16.147 | 32.315 | 2 |
| 2025-06-28T21:01:00 | 54.675645 | 7.533520 | 2.0 | 15.981 | 2 | 41.018 | 16.146 | 32.316 | 2 |
| 2025-06-28T21:02:00 | 54.675470 | 7.533701 | 2.0 | 15.979 | 2 | 41.019 | 16.145 | 32.317 | 2 |
| 2025-06-28T21:03:00 | 54.675284 | 7.533881 | 2.0 | 15.979 | 2 | 41.020 | 16.144 | 32.319 | 2 |
| 2025-06-28T21:04:00 | 54.675083 | 7.533953 | 2.0 | 15.980 | 2 | 41.019 | 16.144 | 32.318 | 2 |
| 2025-06-28T21:05:00 | 54.674870 | 7.534152 | 2.0 | 15.978 | 2 | 41.020 | 16.144 | 32.319 | 2 |
| 2025-06-28T21:06:00 | 54.674662 | 7.534242 | 2.0 | 15.977 | 2 | 41.019 | 16.142 | 32.320 | 2 |
| 2025-06-28T21:07:00 | 54.674467 | 7.534365 | 2.0 | 15.978 | 2 | 41.021 | 16.141 | 32.322 | 2 |
| 2025-06-28T21:08:00 | 54.674219 | 7.534423 | 2.0 | 15.977 | 2 | 41.020 | 16.142 | 32.321 | 2 |
| 2025-06-28T21:09:00 | 54.674007 | 7.534525 | 2.0 | 15.975 | 2 | 41.020 | 16.141 | 32.321 | 2 |
| 2025-06-28T21:10:00 | 54.673783 | 7.534656 | 2.0 | 15.973 | 2 | 41.020 | 16.139 | 32.323 | 2 |
| 2025-06-28T21:11:00 | 54.673548 | 7.534862 | 2.0 | 15.974 | 2 | 41.020 | 16.138 | 32.324 | 2 |
| 2025-06-28T21:12:00 | 54.673280 | 7.535062 | 2.0 | 15.973 | 2 | 41.021 | 16.139 | 32.324 | 2 |
| 2025-06-28T21:13:00 | 54.673038 | 7.535162 | 2.0 | 15.973 | 2 | 41.020 | 16.137 | 32.325 | 2 |
| 2025-06-28T21:14:00 | 54.672770 | 7.535235 | 2.0 | 15.971 | 2 | 41.020 | 16.137 | 32.325 | 2 |
| 2025-06-28T21:15:00 | 54.672498 | 7.535296 | 2.0 | 15.968 | 2 | 41.020 | 16.134 | 32.327 | 2 |
| 2025-06-28T21:16:00 | 54.672283 | 7.535443 | 2.0 | 15.968 | 2 | 41.022 | 16.135 | 32.328 | 2 |
| 2025-06-28T21:17:00 | 54.672045 | 7.535688 | 2.0 | 15.967 | 2 | 41.021 | 16.132 | 32.330 | 2 |
| 2025-06-28T21:18:00 | 54.671849 | 7.535822 | 2.0 | 15.967 | 2 | 41.021 | 16.132 | 32.330 | 2 |
| 2025-06-28T21:19:00 | 54.671628 | 7.536023 | 2.0 | 15.966 | 2 | 41.021 | 16.131 | 32.330 | 2 |
| 2025-06-28T21:20:00 | 54.671412 | 7.536180 | 2.0 | 15.964 | 2 | 41.021 | 16.130 | 32.331 | 2 |
| 2025-06-28T21:21:00 | 54.671161 | 7.536277 | 2.0 | 15.962 | 2 | 41.021 | 16.128 | 32.333 | 2 |
| 2025-06-28T21:22:00 | 54.670883 | 7.536327 | 2.0 | 15.959 | 2 | 41.022 | 16.126 | 32.335 | 2 |
| 2025-06-28T21:23:00 | 54.670598 | 7.536282 | 2.0 | 15.952 | 2 | 41.021 | 16.121 | 32.338 | 2 |
| 2025-06-28T21:24:00 | 54.670302 | 7.536229 | 2.0 | 15.952 | 2 | 41.021 | 16.117 | 32.342 | 2 |
| 2025-06-28T21:25:00 | 54.669980 | 7.536188 | 2.0 | 15.947 | 2 | 41.021 | 16.116 | 32.343 | 2 |
| 2025-06-28T21:26:00 | 54.669652 | 7.536255 | 2.0 | 15.944 | 2 | 41.020 | 16.111 | 32.346 | 2 |
| 2025-06-28T21:27:00 | 54.669342 | 7.536312 | 2.0 | 15.942 | 2 | 41.019 | 16.108 | 32.347 | 2 |
| 2025-06-28T21:28:00 | 54.669018 | 7.536395 | 2.0 | 15.940 | 2 | 41.018 | 16.107 | 32.347 | 2 |
| 2025-06-28T21:29:00 | 54.668696 | 7.536489 | 2.0 | 15.940 | 2 | 41.018 | 16.105 | 32.349 | 2 |
| 2025-06-28T21:30:00 | 54.668415 | 7.536547 | 2.0 | 15.936 | 2 | 41.017 | 16.105 | 32.348 | 2 |
| 2025-06-28T21:31:00 | 54.668094 | 7.536644 | 2.0 | 15.934 | 2 | 41.016 | 16.102 | 32.350 | 2 |
| 2025-06-28T21:32:00 | 54.667781 | 7.536655 | 2.0 | 15.932 | 2 | 41.014 | 16.099 | 32.350 | 2 |
| 2025-06-28T21:33:00 | 54.667442 | 7.536662 | 2.0 | 15.932 | 2 | 41.012 | 16.097 | 32.350 | 2 |
| 2025-06-28T21:34:00 | 54.667124 | 7.536683 | 2.0 | 15.931 | 2 | 41.012 | 16.097 | 32.350 | 2 |
| 2025-06-28T21:35:00 | 54.666813 | 7.536797 | 2.0 | 15.930 | 2 | 41.011 | 16.095 | 32.351 | 2 |
| 2025-06-28T21:36:00 | 54.666531 | 7.536905 | 2.0 | 15.930 | 2 | 41.011 | 16.095 | 32.351 | 2 |
| 2025-06-28T21:37:00 | 54.666193 | 7.537069 | 2.0 | 15.928 | 2 | 41.011 | 16.094 | 32.352 | 2 |
| 2025-06-28T21:38:00 | 54.665868 | 7.537148 | 2.0 | 15.927 | 2 | 41.010 | 16.093 | 32.352 | 2 |
| 2025-06-28T21:39:00 | 54.665531 | 7.537264 | 2.0 | 15.927 | 2 | 41.010 | 16.092 | 32.352 | 2 |
| 2025-06-28T21:40:00 | 54.665245 | 7.537444 | 2.0 | 15.927 | 2 | 41.011 | 16.092 | 32.353 | 2 |
| 2025-06-28T21:41:00 | 54.664927 | 7.537667 | 2.0 | 15.925 | 2 | 41.011 | 16.091 | 32.354 | 2 |
| 2025-06-28T21:42:00 | 54.664638 | 7.537847 | 2.0 | 15.925 | 2 | 41.009 | 16.089 | 32.354 | 2 |
| 2025-06-28T21:43:00 | 54.664314 | 7.538027 | 2.0 | 15.924 | 2 | 41.009 | 16.089 | 32.354 | 2 |
| 2025-06-28T21:44:00 | 54.664007 | 7.538187 | 2.0 | 15.925 | 2 | 41.009 | 16.088 | 32.355 | 2 |
| 2025-06-28T21:45:00 | 54.663677 | 7.538306 | 2.0 | 15.924 | 2 | 41.010 | 16.089 | 32.355 | 2 |
| 2025-06-28T21:46:00 | 54.663358 | 7.538438 | 2.0 | 15.926 | 2 | 41.011 | 16.089 | 32.356 | 2 |
| 2025-06-28T21:47:00 | 54.663028 | 7.538542 | 2.0 | 15.925 | 2 | 41.014 | 16.089 | 32.358 | 2 |
| 2025-06-28T21:48:00 | 54.662714 | 7.538627 | 2.0 | 15.924 | 2 | 41.015 | 16.089 | 32.359 | 2 |
| 2025-06-28T21:49:00 | 54.662365 | 7.538718 | 2.0 | 15.923 | 2 | 41.014 | 16.088 | 32.359 | 2 |
| 2025-06-28T21:50:00 | 54.662039 | 7.538786 | 2.0 | 15.922 | 2 | 41.014 | 16.087 | 32.360 | 2 |
| 2025-06-28T21:51:00 | 54.661678 | 7.538867 | 2.0 | 15.922 | 2 | 41.014 | 16.086 | 32.361 | 2 |
| 2025-06-28T21:52:00 | 54.661339 | 7.538950 | 2.0 | 15.920 | 2 | 41.015 | 16.086 | 32.362 | 2 |
| 2025-06-28T21:53:00 | 54.661007 | 7.539111 | 2.0 | 15.921 | 2 | 41.015 | 16.085 | 32.363 | 2 |
| 2025-06-28T21:54:00 | 54.660685 | 7.539234 | 2.0 | 15.917 | 2 | 41.015 | 16.084 | 32.363 | 2 |
| 2025-06-28T21:55:00 | 54.660327 | 7.539421 | 2.0 | 15.916 | 2 | 41.013 | 16.081 | 32.364 | 2 |
| 2025-06-28T21:56:00 | 54.660010 | 7.539563 | 2.0 | 15.916 | 2 | 41.013 | 16.080 | 32.365 | 2 |
| 2025-06-28T21:57:00 | 54.659676 | 7.539686 | 2.0 | 15.916 | 2 | 41.013 | 16.080 | 32.365 | 2 |
| 2025-06-28T21:58:00 | 54.659348 | 7.539816 | 2.0 | 15.914 | 2 | 41.013 | 16.079 | 32.366 | 2 |
| 2025-06-28T21:59:00 | 54.659001 | 7.539928 | 2.0 | 15.915 | 2 | 41.014 | 16.079 | 32.367 | 2 |
| 2025-06-28T22:00:00 | 54.658659 | 7.539992 | 2.0 | 15.913 | 2 | 41.015 | 16.079 | 32.367 | 2 |
| 2025-06-28T22:01:00 | 54.658333 | 7.540141 | 2.0 | 15.913 | 2 | 41.015 | 16.078 | 32.368 | 2 |
| 2025-06-28T22:02:00 | 54.658002 | 7.540239 | 2.0 | 15.910 | 2 | 41.015 | 16.077 | 32.369 | 2 |
| 2025-06-28T22:03:00 | 54.657712 | 7.540347 | 2.0 | 15.910 | 2 | 41.014 | 16.075 | 32.370 | 2 |
| 2025-06-28T22:04:00 | 54.657408 | 7.540601 | 2.0 | 15.907 | 2 | 41.015 | 16.074 | 32.371 | 2 |
| 2025-06-28T22:05:00 | 54.657144 | 7.540917 | 2.0 | 15.907 | 2 | 41.014 | 16.071 | 32.373 | 2 |
| 2025-06-28T22:06:00 | 54.656855 | 7.541137 | 2.0 | 15.906 | 2 | 41.014 | 16.071 | 32.373 | 2 |
| 2025-06-28T22:07:00 | 54.656548 | 7.541317 | 2.0 | 15.907 | 2 | 41.015 | 16.071 | 32.374 | 2 |
| 2025-06-28T22:08:00 | 54.656221 | 7.541415 | 2.0 | 15.907 | 2 | 41.015 | 16.072 | 32.373 | 2 |
| 2025-06-28T22:09:00 | 54.655864 | 7.541472 | 2.0 | 15.906 | 2 | 41.015 | 16.071 | 32.374 | 2 |
| 2025-06-28T22:10:00 | 54.655562 | 7.541644 | 2.0 | 15.903 | 2 | 41.014 | 16.070 | 32.374 | 2 |
| 2025-06-28T22:11:00 | 54.655324 | 7.541911 | 2.0 | 15.902 | 2 | 41.014 | 16.066 | 32.377 | 2 |
| 2025-06-28T22:12:00 | 54.655043 | 7.542136 | 2.0 | 15.901 | 2 | 41.014 | 16.066 | 32.377 | 2 |
| 2025-06-28T22:13:00 | 54.654761 | 7.542300 | 2.0 | 15.901 | 2 | 41.014 | 16.066 | 32.377 | 2 |
| 2025-06-28T22:14:00 | 54.654471 | 7.542476 | 2.0 | 15.901 | 2 | 41.015 | 16.065 | 32.379 | 2 |
| 2025-06-28T22:15:00 | 54.654190 | 7.542689 | 2.0 | 15.904 | 2 | 41.015 | 16.065 | 32.379 | 2 |
| 2025-06-28T22:16:00 | 54.653915 | 7.542823 | 2.0 | 15.903 | 2 | 41.015 | 16.069 | 32.376 | 2 |
| 2025-06-28T22:17:00 | 54.653601 | 7.542965 | 2.0 | 15.903 | 2 | 41.015 | 16.068 | 32.376 | 2 |
| 2025-06-28T22:18:00 | 54.653291 | 7.543090 | 2.0 | 15.900 | 2 | 41.016 | 16.066 | 32.379 | 2 |
| 2025-06-28T22:19:00 | 54.652994 | 7.543136 | 2.0 | 15.903 | 2 | 41.015 | 16.065 | 32.379 | 2 |
| 2025-06-28T22:20:00 | 54.652667 | 7.543245 | 2.0 | 15.903 | 2 | 41.015 | 16.067 | 32.377 | 2 |
| 2025-06-28T22:21:00 | 54.652350 | 7.543290 | 2.0 | 15.900 | 2 | 41.017 | 16.067 | 32.379 | 2 |
| 2025-06-28T22:22:00 | 54.652022 | 7.543288 | 2.0 | 15.899 | 2 | 41.017 | 16.064 | 32.381 | 2 |
| 2025-06-28T22:23:00 | 54.651699 | 7.543296 | 2.0 | 15.901 | 2 | 41.017 | 16.064 | 32.381 | 2 |
| 2025-06-28T22:24:00 | 54.651411 | 7.543293 | 2.0 | 15.896 | 2 | 41.017 | 16.063 | 32.382 | 2 |
| 2025-06-28T22:25:00 | 54.651070 | 7.543343 | 2.0 | 15.897 | 2 | 41.017 | 16.061 | 32.384 | 2 |
| 2025-06-28T22:26:00 | 54.650760 | 7.543375 | 2.0 | 15.893 | 2 | 41.017 | 16.059 | 32.385 | 2 |
| 2025-06-28T22:27:00 | 54.650433 | 7.543407 | 2.0 | 15.897 | 2 | 41.018 | 16.059 | 32.386 | 2 |
| 2025-06-28T22:28:00 | 54.650119 | 7.543440 | 2.0 | 15.895 | 2 | 41.018 | 16.061 | 32.385 | 2 |
| 2025-06-28T22:29:00 | 54.649805 | 7.543510 | 2.0 | 15.896 | 2 | 41.018 | 16.060 | 32.386 | 2 |
| 2025-06-28T22:30:00 | 54.649529 | 7.543586 | 2.0 | 15.898 | 2 | 41.019 | 16.061 | 32.386 | 2 |
| 2025-06-28T22:31:00 | 54.649237 | 7.543707 | 2.0 | 15.895 | 2 | 41.018 | 16.061 | 32.385 | 2 |
| 2025-06-28T22:32:00 | 54.648962 | 7.543907 | 2.0 | 15.897 | 2 | 41.019 | 16.059 | 32.387 | 2 |
| 2025-06-28T22:33:00 | 54.648677 | 7.544112 | 2.0 | 15.896 | 2 | 41.019 | 16.060 | 32.386 | 2 |
| 2025-06-28T22:34:00 | 54.648415 | 7.544401 | 2.0 | 15.897 | 2 | 41.020 | 16.061 | 32.386 | 2 |
| 2025-06-28T22:35:00 | 54.648176 | 7.544574 | 2.0 | 15.898 | 2 | 41.021 | 16.062 | 32.387 | 2 |
| 2025-06-28T22:36:00 | 54.647931 | 7.544647 | 2.0 | 15.899 | 2 | 41.021 | 16.062 | 32.387 | 2 |
| 2025-06-28T22:37:00 | 54.647640 | 7.544726 | 2.0 | 15.898 | 2 | 41.021 | 16.063 | 32.386 | 2 |
| 2025-06-28T22:38:00 | 54.647409 | 7.544733 | 2.0 | 15.898 | 2 | 41.022 | 16.062 | 32.387 | 2 |
| 2025-06-28T22:39:00 | 54.647165 | 7.544718 | 2.0 | 15.897 | 2 | 41.022 | 16.063 | 32.387 | 2 |
| 2025-06-28T22:40:00 | 54.646927 | 7.544634 | 2.0 | 15.894 | 2 | 41.022 | 16.061 | 32.388 | 2 |
| 2025-06-28T22:41:00 | 54.646758 | 7.544551 | 2.0 | 15.893 | 2 | 41.022 | 16.059 | 32.390 | 2 |
| 2025-06-28T22:42:00 | 54.646706 | 7.544439 | 2.0 | 15.893 | 2 | 41.022 | 16.058 | 32.391 | 2 |
| 2025-06-28T22:43:00 | 54.646675 | 7.544423 | 2.0 | 15.894 | 2 | 41.022 | 16.058 | 32.391 | 2 |
| 2025-06-28T22:44:00 | 54.646647 | 7.544408 | 2.0 | 15.889 | 2 | 41.022 | 16.057 | 32.392 | 2 |
| 2025-06-28T22:45:00 | 54.646637 | 7.544383 | 2.0 | 15.885 | 2 | 41.022 | 16.053 | 32.395 | 2 |
| 2025-06-28T22:46:00 | 54.646622 | 7.544338 | 2.0 | 15.886 | 2 | 41.022 | 16.050 | 32.397 | 2 |
| 2025-06-28T22:47:00 | 54.646608 | 7.544283 | 2.0 | 15.884 | 2 | 41.023 | 16.050 | 32.398 | 2 |
| 2025-06-28T22:48:00 | 54.646672 | 7.544170 | 2.0 | 15.882 | 2 | 41.022 | 16.047 | 32.400 | 2 |
| 2025-06-28T22:49:00 | 54.646766 | 7.544093 | 2.0 | 15.882 | 2 | 41.022 | 16.047 | 32.400 | 2 |
| 2025-06-28T22:50:00 | 54.646883 | 7.544015 | 2.0 | 15.881 | 2 | 41.022 | 16.047 | 32.400 | 2 |
| 2025-06-28T22:51:00 | 54.646993 | 7.543910 | 2.0 | 15.877 | 2 | 41.023 | 16.045 | 32.402 | 2 |
| 2025-06-28T22:52:00 | 54.647127 | 7.543973 | 2.0 | 15.877 | 2 | 41.023 | 16.042 | 32.405 | 2 |
| 2025-06-28T22:53:00 | 54.647255 | 7.544051 | 2.0 | 15.874 | 2 | 41.023 | 16.041 | 32.405 | 2 |
| 2025-06-28T22:54:00 | 54.647369 | 7.544143 | 2.0 | 15.874 | 2 | 41.022 | 16.039 | 32.406 | 2 |
| 2025-06-28T22:55:00 | 54.647498 | 7.544181 | 2.0 | 15.872 | 2 | 41.022 | 16.038 | 32.407 | 2 |
| 2025-06-28T22:56:00 | 54.647625 | 7.544193 | 2.0 | 15.871 | 2 | 41.022 | 16.037 | 32.408 | 2 |
| 2025-06-28T22:57:00 | 54.647772 | 7.544202 | 2.0 | 15.871 | 2 | 41.022 | 16.036 | 32.409 | 2 |
| 2025-06-28T22:58:00 | 54.647906 | 7.544212 | 2.0 | 15.870 | 2 | 41.022 | 16.036 | 32.409 | 2 |
| 2025-06-28T22:59:00 | 54.648049 | 7.544210 | 2.0 | 15.867 | 2 | 41.023 | 16.034 | 32.411 | 2 |
| 2025-06-28T23:00:00 | 54.648172 | 7.544210 | 2.0 | 15.863 | 2 | 41.023 | 16.031 | 32.414 | 2 |
| 2025-06-28T23:01:00 | 54.648284 | 7.544166 | 2.0 | 15.863 | 2 | 41.023 | 16.028 | 32.416 | 2 |
| 2025-06-28T23:02:00 | 54.648401 | 7.544093 | 2.0 | 15.861 | 2 | 41.023 | 16.027 | 32.417 | 2 |
| 2025-06-28T23:03:00 | 54.648522 | 7.544028 | 2.0 | 15.862 | 2 | 41.023 | 16.026 | 32.418 | 2 |
| 2025-06-28T23:04:00 | 54.648671 | 7.544035 | 2.0 | 15.859 | 2 | 41.024 | 16.026 | 32.419 | 2 |
| 2025-06-28T23:05:00 | 54.648802 | 7.543999 | 2.0 | 15.858 | 2 | 41.023 | 16.024 | 32.419 | 2 |
| 2025-06-28T23:06:00 | 54.648929 | 7.543884 | 2.0 | 15.857 | 2 | 41.023 | 16.023 | 32.420 | 2 |
| 2025-06-28T23:07:00 | 54.649093 | 7.543848 | 2.0 | 15.854 | 2 | 41.023 | 16.022 | 32.421 | 2 |
| 2025-06-28T23:08:00 | 54.649224 | 7.543780 | 2.0 | 15.850 | 2 | 41.023 | 16.018 | 32.424 | 2 |
| 2025-06-28T23:09:00 | 54.649378 | 7.543754 | 2.0 | 15.845 | 2 | 41.023 | 16.014 | 32.428 | 2 |
| 2025-06-28T23:10:00 | 54.649514 | 7.543706 | 2.0 | 15.841 | 2 | 41.022 | 16.009 | 32.431 | 2 |
| 2025-06-28T23:11:00 | 54.649660 | 7.543663 | 2.0 | 15.841 | 2 | 41.022 | 16.007 | 32.432 | 2 |
| 2025-06-28T23:12:00 | 54.649800 | 7.543591 | 2.0 | 15.839 | 2 | 41.022 | 16.005 | 32.434 | 2 |
| 2025-06-28T23:13:00 | 54.649944 | 7.543484 | 2.0 | 15.837 | 2 | 41.022 | 16.004 | 32.435 | 2 |
| 2025-06-28T23:14:00 | 54.650095 | 7.543534 | 2.0 | 15.838 | 2 | 41.021 | 16.003 | 32.435 | 2 |
| 2025-06-28T23:15:00 | 54.650277 | 7.543685 | 2.0 | 15.833 | 2 | 41.022 | 16.002 | 32.436 | 2 |
| 2025-06-28T23:16:00 | 54.650467 | 7.543932 | 2.0 | 15.831 | 2 | 41.021 | 15.998 | 32.439 | 2 |
| 2025-06-28T23:17:00 | 54.650643 | 7.544277 | 2.0 | 15.832 | 2 | 41.022 | 15.997 | 32.441 | 2 |
| 2025-06-28T23:18:00 | 54.650818 | 7.544696 | 2.0 | 15.832 | 2 | 41.022 | 15.997 | 32.441 | 2 |
| 2025-06-28T23:19:00 | 54.651007 | 7.545133 | 2.0 | 15.829 | 2 | 41.022 | 15.997 | 32.441 | 2 |
| 2025-06-28T23:20:00 | 54.651194 | 7.545608 | 2.0 | 15.828 | 2 | 41.020 | 15.993 | 32.442 | 2 |
| 2025-06-28T23:21:00 | 54.651366 | 7.546138 | 2.0 | 15.826 | 2 | 41.021 | 15.992 | 32.444 | 2 |
| 2025-06-28T23:22:00 | 54.651538 | 7.546590 | 2.0 | 15.825 | 2 | 41.019 | 15.990 | 32.444 | 2 |
| 2025-06-28T23:23:00 | 54.651722 | 7.547000 | 2.0 | 15.824 | 2 | 41.019 | 15.990 | 32.444 | 2 |
| 2025-06-28T23:24:00 | 54.651911 | 7.547379 | 2.0 | 15.821 | 2 | 41.018 | 15.988 | 32.444 | 2 |
| 2025-06-28T23:25:00 | 54.652105 | 7.547743 | 2.0 | 15.823 | 2 | 41.018 | 15.986 | 32.446 | 2 |
| 2025-06-28T23:26:00 | 54.652307 | 7.548047 | 2.0 | 15.821 | 2 | 41.018 | 15.987 | 32.445 | 2 |
| 2025-06-28T23:27:00 | 54.652501 | 7.548300 | 2.0 | 15.820 | 2 | 41.018 | 15.985 | 32.447 | 2 |
| 2025-06-28T23:28:00 | 54.652703 | 7.548488 | 2.0 | 15.819 | 2 | 41.018 | 15.984 | 32.448 | 2 |
| 2025-06-28T23:29:00 | 54.652893 | 7.548608 | 2.0 | 15.817 | 2 | 41.018 | 15.982 | 32.449 | 2 |
| 2025-06-28T23:30:00 | 54.653076 | 7.548570 | 2.0 | 15.812 | 2 | 41.018 | 15.981 | 32.450 | 2 |
| 2025-06-28T23:31:00 | 54.653235 | 7.548338 | 2.0 | 15.810 | 2 | 41.018 | 15.976 | 32.454 | 2 |
| 2025-06-28T23:32:00 | 54.653394 | 7.548001 | 2.0 | 15.806 | 2 | 41.018 | 15.974 | 32.456 | 2 |
| 2025-06-28T23:33:00 | 54.653559 | 7.547668 | 2.0 | 15.800 | 2 | 41.018 | 15.970 | 32.459 | 2 |
| 2025-06-28T23:34:00 | 54.653707 | 7.547270 | 2.0 | 15.799 | 2 | 41.017 | 15.965 | 32.462 | 2 |
| 2025-06-28T23:35:00 | 54.653876 | 7.546843 | 2.0 | 15.798 | 2 | 41.017 | 15.964 | 32.463 | 2 |
| 2025-06-28T23:36:00 | 54.654070 | 7.546592 | 2.0 | 15.796 | 2 | 41.017 | 15.962 | 32.465 | 2 |
| 2025-06-28T23:37:00 | 54.654265 | 7.546412 | 2.0 | 15.793 | 2 | 41.017 | 15.960 | 32.466 | 2 |
| 2025-06-28T23:38:00 | 54.654452 | 7.546215 | 2.0 | 15.788 | 2 | 41.016 | 15.958 | 32.467 | 2 |
| 2025-06-28T23:39:00 | 54.654622 | 7.546075 | 2.0 | 15.783 | 2 | 41.016 | 15.952 | 32.472 | 2 |
| 2025-06-28T23:40:00 | 54.654778 | 7.545880 | 2.0 | 15.784 | 2 | 41.015 | 15.949 | 32.474 | 2 |
| 2025-06-28T23:41:00 | 54.654910 | 7.545591 | 2.0 | 15.778 | 2 | 41.016 | 15.948 | 32.475 | 2 |
| 2025-06-28T23:42:00 | 54.655076 | 7.545323 | 2.0 | 15.775 | 2 | 41.015 | 15.944 | 32.478 | 2 |
| 2025-06-28T23:43:00 | 54.655237 | 7.545134 | 2.0 | 15.774 | 2 | 41.014 | 15.939 | 32.481 | 2 |
| 2025-06-28T23:44:00 | 54.655391 | 7.544934 | 2.0 | 15.775 | 2 | 41.013 | 15.939 | 32.480 | 2 |
| 2025-06-28T23:45:00 | 54.655559 | 7.544775 | 2.0 | 15.770 | 2 | 41.011 | 15.940 | 32.477 | 2 |
| 2025-06-28T23:46:00 | 54.655701 | 7.544545 | 2.0 | 15.767 | 2 | 41.006 | 15.934 | 32.478 | 2 |
| 2025-06-28T23:47:00 | 54.655845 | 7.544309 | 2.0 | 15.764 | 2 | 41.009 | 15.932 | 32.482 | 2 |
| 2025-06-28T23:48:00 | 54.655996 | 7.544172 | 2.0 | 15.759 | 2 | 41.012 | 15.929 | 32.487 | 2 |
| 2025-06-28T23:49:00 | 54.656150 | 7.544079 | 2.0 | 15.756 | 2 | 41.011 | 15.924 | 32.491 | 2 |
| 2025-06-28T23:50:00 | 54.656305 | 7.544049 | 2.0 | 15.752 | 2 | 41.011 | 15.920 | 32.494 | 2 |
| 2025-06-28T23:51:00 | 54.656482 | 7.544152 | 2.0 | 15.752 | 2 | 41.012 | 15.917 | 32.497 | 2 |
| 2025-06-28T23:52:00 | 54.656659 | 7.544335 | 2.0 | 15.749 | 2 | 41.012 | 15.917 | 32.497 | 2 |
| 2025-06-28T23:53:00 | 54.656835 | 7.544571 | 2.0 | 15.749 | 2 | 41.012 | 15.914 | 32.500 | 2 |
| 2025-06-28T23:54:00 | 54.657015 | 7.544831 | 2.0 | 15.751 | 2 | 41.011 | 15.914 | 32.499 | 2 |
| 2025-06-28T23:55:00 | 54.657180 | 7.545076 | 2.0 | 15.750 | 2 | 41.011 | 15.915 | 32.498 | 2 |
| 2025-06-28T23:56:00 | 54.657328 | 7.545232 | 2.0 | 15.749 | 2 | 41.011 | 15.914 | 32.499 | 2 |
| 2025-06-28T23:57:00 | 54.657485 | 7.545388 | 2.0 | 15.748 | 2 | 41.011 | 15.913 | 32.500 | 2 |
| 2025-06-28T23:58:00 | 54.657642 | 7.545539 | 2.0 | 15.747 | 2 | 41.011 | 15.912 | 32.500 | 2 |
| 2025-06-28T23:59:00 | 54.657788 | 7.545613 | 2.0 | 15.749 | 2 | 41.011 | 15.912 | 32.500 | 2 |
| 2025-06-29T00:00:00 | 54.657944 | 7.545571 | 2.0 | 15.745 | 2 | 41.012 | 15.913 | 32.501 | 2 |
| 2025-06-29T00:01:00 | 54.658105 | 7.545532 | 2.0 | 15.741 | 2 | 41.011 | 15.909 | 32.503 | 2 |
| 2025-06-29T00:02:00 | 54.658259 | 7.545445 | 2.0 | 15.735 | 2 | 41.011 | 15.905 | 32.506 | 2 |
| 2025-06-29T00:03:00 | 54.658418 | 7.545314 | 2.0 | 15.734 | 2 | 41.010 | 15.901 | 32.509 | 2 |
| 2025-06-29T00:04:00 | 54.658569 | 7.545170 | 2.0 | 15.730 | 2 | 41.009 | 15.899 | 32.509 | 2 |
| 2025-06-29T00:05:00 | 54.658705 | 7.545030 | 2.0 | 15.730 | 2 | 41.009 | 15.895 | 32.513 | 2 |
| 2025-06-29T00:06:00 | 54.658860 | 7.544833 | 2.0 | 15.724 | 2 | 41.008 | 15.894 | 32.513 | 2 |
| 2025-06-29T00:07:00 | 54.658988 | 7.544554 | 2.0 | 15.723 | 2 | 41.008 | 15.889 | 32.517 | 2 |
| 2025-06-29T00:08:00 | 54.659145 | 7.544382 | 2.0 | 15.721 | 2 | 41.008 | 15.889 | 32.517 | 2 |
| 2025-06-29T00:09:00 | 54.659324 | 7.544295 | 2.0 | 15.718 | 2 | 41.007 | 15.885 | 32.519 | 2 |
| 2025-06-29T00:10:00 | 54.659476 | 7.544183 | 2.0 | 15.715 | 2 | 41.007 | 15.883 | 32.521 | 2 |
| 2025-06-29T00:11:00 | 54.659589 | 7.544060 | 2.0 | 15.713 | 2 | 41.006 | 15.878 | 32.524 | 2 |
| 2025-06-29T00:12:00 | 54.659707 | 7.543882 | 2.0 | 15.712 | 2 | 41.006 | 15.878 | 32.524 | 2 |
| 2025-06-29T00:13:00 | 54.659837 | 7.543704 | 2.0 | 15.710 | 2 | 41.006 | 15.877 | 32.525 | 2 |
| 2025-06-29T00:14:00 | 54.659969 | 7.543496 | 2.0 | 15.706 | 2 | 41.006 | 15.875 | 32.526 | 2 |
| 2025-06-29T00:15:00 | 54.660118 | 7.543353 | 2.0 | 15.706 | 2 | 41.006 | 15.872 | 32.529 | 2 |
| 2025-06-29T00:16:00 | 54.660269 | 7.543203 | 2.0 | 15.703 | 2 | 41.004 | 15.870 | 32.529 | 2 |
| 2025-06-29T00:17:00 | 54.660445 | 7.543011 | 2.0 | 15.699 | 2 | 41.004 | 15.867 | 32.531 | 2 |
| 2025-06-29T00:18:00 | 54.660627 | 7.542821 | 2.0 | 15.695 | 2 | 41.004 | 15.864 | 32.534 | 2 |
| 2025-06-29T00:19:00 | 54.660803 | 7.542637 | 2.0 | 15.690 | 2 | 41.003 | 15.859 | 32.537 | 2 |
| 2025-06-29T00:20:00 | 54.660980 | 7.542462 | 2.0 | 15.688 | 2 | 41.002 | 15.855 | 32.539 | 2 |
| 2025-06-29T00:21:00 | 54.661214 | 7.542268 | 2.0 | 15.687 | 2 | 41.001 | 15.854 | 32.539 | 2 |
| 2025-06-29T00:22:00 | 54.661457 | 7.542095 | 2.0 | 15.685 | 2 | 41.001 | 15.852 | 32.541 | 2 |
| 2025-06-29T00:23:00 | 54.661707 | 7.541920 | 2.0 | 15.685 | 2 | 41.001 | 15.851 | 32.542 | 2 |
| 2025-06-29T00:24:00 | 54.661971 | 7.541800 | 2.0 | 15.681 | 2 | 41.000 | 15.849 | 32.542 | 2 |
| 2025-06-29T00:25:00 | 54.662227 | 7.541736 | 2.0 | 15.677 | 2 | 41.000 | 15.846 | 32.545 | 2 |
| 2025-06-29T00:26:00 | 54.662477 | 7.541667 | 2.0 | 15.673 | 2 | 40.999 | 15.841 | 32.548 | 2 |
| 2025-06-29T00:27:00 | 54.662719 | 7.541573 | 2.0 | 15.674 | 2 | 40.998 | 15.838 | 32.550 | 2 |
| 2025-06-29T00:28:00 | 54.662956 | 7.541541 | 2.0 | 15.677 | 2 | 40.999 | 15.840 | 32.549 | 2 |
| 2025-06-29T00:29:00 | 54.663230 | 7.541565 | 2.0 | 15.674 | 2 | 40.999 | 15.841 | 32.548 | 2 |
| 2025-06-29T00:30:00 | 54.663473 | 7.541575 | 2.0 | 15.671 | 2 | 40.999 | 15.838 | 32.551 | 2 |
| 2025-06-29T00:31:00 | 54.663701 | 7.541537 | 2.0 | 15.670 | 2 | 40.999 | 15.835 | 32.553 | 2 |
| 2025-06-29T00:32:00 | 54.663951 | 7.541455 | 2.0 | 15.667 | 2 | 40.999 | 15.834 | 32.554 | 2 |
| 2025-06-29T00:33:00 | 54.664205 | 7.541398 | 2.0 | 15.668 | 2 | 40.998 | 15.832 | 32.555 | 2 |
| 2025-06-29T00:34:00 | 54.664468 | 7.541379 | 2.0 | 15.667 | 2 | 40.998 | 15.832 | 32.555 | 2 |
| 2025-06-29T00:35:00 | 54.664723 | 7.541361 | 2.0 | 15.666 | 2 | 40.999 | 15.832 | 32.556 | 2 |
| 2025-06-29T00:36:00 | 54.664967 | 7.541352 | 2.0 | 15.667 | 2 | 40.999 | 15.831 | 32.556 | 2 |
| 2025-06-29T00:37:00 | 54.665204 | 7.541361 | 2.0 | 15.669 | 2 | 41.000 | 15.832 | 32.556 | 2 |
| 2025-06-29T00:38:00 | 54.665472 | 7.541353 | 2.0 | 15.668 | 2 | 41.001 | 15.833 | 32.557 | 2 |
| 2025-06-29T00:39:00 | 54.665723 | 7.541347 | 2.0 | 15.664 | 2 | 41.001 | 15.831 | 32.558 | 2 |
| 2025-06-29T00:40:00 | 54.665960 | 7.541350 | 2.0 | 15.661 | 2 | 41.001 | 15.829 | 32.560 | 2 |
| 2025-06-29T00:41:00 | 54.666216 | 7.541381 | 2.0 | 15.660 | 2 | 41.001 | 15.827 | 32.561 | 2 |
| 2025-06-29T00:42:00 | 54.666454 | 7.541417 | 2.0 | 15.657 | 2 | 41.001 | 15.824 | 32.564 | 2 |
| 2025-06-29T00:43:00 | 54.666689 | 7.541439 | 2.0 | 15.658 | 2 | 41.001 | 15.822 | 32.566 | 2 |
| 2025-06-29T00:44:00 | 54.666920 | 7.541427 | 2.0 | 15.662 | 2 | 41.002 | 15.824 | 32.565 | 2 |
| 2025-06-29T00:45:00 | 54.667150 | 7.541359 | 2.0 | 15.663 | 2 | 41.003 | 15.826 | 32.564 | 2 |
| 2025-06-29T00:46:00 | 54.667385 | 7.541256 | 2.0 | 15.660 | 2 | 41.003 | 15.826 | 32.564 | 2 |
| 2025-06-29T00:47:00 | 54.667638 | 7.541147 | 2.0 | 15.659 | 2 | 41.003 | 15.824 | 32.566 | 2 |
| 2025-06-29T00:48:00 | 54.667880 | 7.541034 | 2.0 | 15.658 | 2 | 41.003 | 15.823 | 32.567 | 2 |
| 2025-06-29T00:49:00 | 54.668127 | 7.540965 | 2.0 | 15.657 | 2 | 41.004 | 15.822 | 32.568 | 2 |
| 2025-06-29T00:50:00 | 54.668374 | 7.540895 | 2.0 | 15.657 | 2 | 41.004 | 15.821 | 32.569 | 2 |
| 2025-06-29T00:51:00 | 54.668628 | 7.540885 | 2.0 | 15.658 | 2 | 41.004 | 15.822 | 32.568 | 2 |
| 2025-06-29T00:52:00 | 54.668857 | 7.540892 | 2.0 | 15.659 | 2 | 41.005 | 15.823 | 32.568 | 2 |
| 2025-06-29T00:53:00 | 54.669124 | 7.540981 | 2.0 | 15.656 | 2 | 41.005 | 15.823 | 32.568 | 2 |
| 2025-06-29T00:54:00 | 54.669400 | 7.541145 | 2.0 | 15.654 | 2 | 41.005 | 15.820 | 32.571 | 2 |
| 2025-06-29T00:55:00 | 54.669658 | 7.541380 | 2.0 | 15.652 | 2 | 41.005 | 15.818 | 32.572 | 2 |
| 2025-06-29T00:56:00 | 54.669898 | 7.541722 | 2.0 | 15.651 | 2 | 41.005 | 15.817 | 32.573 | 2 |
| 2025-06-29T00:57:00 | 54.670118 | 7.542149 | 2.0 | 15.648 | 2 | 41.005 | 15.815 | 32.575 | 2 |
| 2025-06-29T00:58:00 | 54.670328 | 7.542553 | 2.0 | 15.646 | 2 | 41.006 | 15.811 | 32.579 | 2 |
| 2025-06-29T00:59:00 | 54.670548 | 7.542885 | 2.0 | 15.646 | 2 | 41.006 | 15.810 | 32.580 | 2 |
| 2025-06-29T01:00:00 | 54.670749 | 7.543062 | 2.0 | 15.647 | 2 | 41.006 | 15.811 | 32.579 | 2 |
| 2025-06-29T01:01:00 | 54.670984 | 7.543109 | 2.0 | 15.648 | 2 | 41.006 | 15.812 | 32.578 | 2 |
| 2025-06-29T01:02:00 | 54.671247 | 7.543035 | 2.0 | 15.649 | 2 | 41.006 | 15.813 | 32.577 | 2 |
| 2025-06-29T01:03:00 | 54.671497 | 7.542842 | 2.0 | 15.656 | 2 | 41.006 | 15.815 | 32.576 | 2 |
| 2025-06-29T01:04:00 | 54.671786 | 7.542565 | 2.0 | 15.656 | 2 | 41.008 | 15.821 | 32.573 | 2 |
| 2025-06-29T01:05:00 | 54.672062 | 7.542317 | 2.0 | 15.654 | 2 | 41.008 | 15.820 | 32.573 | 2 |
| 2025-06-29T01:06:00 | 54.672335 | 7.542150 | 2.0 | 15.654 | 2 | 41.007 | 15.818 | 32.574 | 2 |
| 2025-06-29T01:07:00 | 54.672600 | 7.542025 | 2.0 | 15.655 | 2 | 41.006 | 15.818 | 32.573 | 2 |
| 2025-06-29T01:08:00 | 54.672854 | 7.541954 | 2.0 | 15.654 | 2 | 41.007 | 15.819 | 32.573 | 2 |
| 2025-06-29T01:09:00 | 54.673120 | 7.541864 | 2.0 | 15.653 | 2 | 41.007 | 15.819 | 32.573 | 2 |
| 2025-06-29T01:10:00 | 54.673369 | 7.541765 | 2.0 | 15.647 | 2 | 41.006 | 15.817 | 32.574 | 2 |
| 2025-06-29T01:11:00 | 54.673614 | 7.541628 | 2.0 | 15.645 | 2 | 41.004 | 15.811 | 32.577 | 2 |
| 2025-06-29T01:12:00 | 54.673875 | 7.541507 | 2.0 | 15.644 | 2 | 41.002 | 15.810 | 32.576 | 2 |
| 2025-06-29T01:13:00 | 54.674145 | 7.541451 | 2.0 | 15.643 | 2 | 41.002 | 15.808 | 32.578 | 2 |
| 2025-06-29T01:14:00 | 54.674378 | 7.541368 | 2.0 | 15.642 | 2 | 41.001 | 15.807 | 32.578 | 2 |
| 2025-06-29T01:15:00 | 54.674598 | 7.541280 | 2.0 | 15.639 | 2 | 40.998 | 15.806 | 32.576 | 2 |
| 2025-06-29T01:16:00 | 54.674816 | 7.541214 | 2.0 | 15.640 | 2 | 40.987 | 15.804 | 32.568 | 2 |
| 2025-06-29T01:17:00 | 54.675047 | 7.541167 | 2.0 | 15.642 | 2 | 40.985 | 15.805 | 32.565 | 2 |
| 2025-06-29T01:18:00 | 54.675275 | 7.541125 | 2.0 | 15.643 | 2 | 40.984 | 15.807 | 32.563 | 2 |
| 2025-06-29T01:19:00 | 54.675482 | 7.541036 | 2.0 | 15.644 | 2 | 40.985 | 15.808 | 32.563 | 2 |
| 2025-06-29T01:20:00 | 54.675675 | 7.540902 | 2.0 | 15.646 | 2 | 40.985 | 15.808 | 32.563 | 2 |
| 2025-06-29T01:21:00 | 54.675884 | 7.540791 | 2.0 | 15.647 | 2 | 40.985 | 15.811 | 32.560 | 2 |
| 2025-06-29T01:22:00 | 54.676078 | 7.540776 | 2.0 | 15.648 | 2 | 40.986 | 15.812 | 32.561 | 2 |
| 2025-06-29T01:23:00 | 54.676276 | 7.540732 | 2.0 | 15.648 | 2 | 40.986 | 15.812 | 32.561 | 2 |
| 2025-06-29T01:24:00 | 54.676463 | 7.540617 | 2.0 | 15.648 | 2 | 40.986 | 15.812 | 32.561 | 2 |
| 2025-06-29T01:25:00 | 54.676654 | 7.540551 | 2.0 | 15.647 | 2 | 40.986 | 15.812 | 32.561 | 2 |
| 2025-06-29T01:26:00 | 54.676856 | 7.540462 | 2.0 | 15.646 | 2 | 40.986 | 15.811 | 32.561 | 2 |
| 2025-06-29T01:27:00 | 54.677059 | 7.540363 | 2.0 | 15.645 | 2 | 40.986 | 15.810 | 32.562 | 2 |
| 2025-06-29T01:28:00 | 54.677269 | 7.540221 | 2.0 | 15.644 | 2 | 40.985 | 15.809 | 32.562 | 2 |
| 2025-06-29T01:29:00 | 54.677477 | 7.540069 | 2.0 | 15.645 | 2 | 40.985 | 15.809 | 32.562 | 2 |
| 2025-06-29T01:30:00 | 54.677684 | 7.539910 | 2.0 | 15.644 | 2 | 40.985 | 15.809 | 32.562 | 2 |
| 2025-06-29T01:31:00 | 54.677903 | 7.539796 | 2.0 | 15.643 | 2 | 40.986 | 15.808 | 32.564 | 2 |
| 2025-06-29T01:32:00 | 54.678101 | 7.539670 | 2.0 | 15.643 | 2 | 40.985 | 15.808 | 32.563 | 2 |
| 2025-06-29T01:33:00 | 54.678318 | 7.539543 | 2.0 | 15.642 | 2 | 40.985 | 15.807 | 32.564 | 2 |
| 2025-06-29T01:34:00 | 54.678542 | 7.539426 | 2.0 | 15.642 | 2 | 40.985 | 15.807 | 32.564 | 2 |
| 2025-06-29T01:35:00 | 54.678765 | 7.539302 | 2.0 | 15.642 | 2 | 40.985 | 15.807 | 32.564 | 2 |
| 2025-06-29T01:36:00 | 54.679000 | 7.539306 | 2.0 | 15.642 | 2 | 40.985 | 15.806 | 32.565 | 2 |
| 2025-06-29T01:37:00 | 54.679239 | 7.539332 | 2.0 | 15.644 | 2 | 40.985 | 15.807 | 32.564 | 2 |
| 2025-06-29T01:38:00 | 54.679466 | 7.539349 | 2.0 | 15.645 | 2 | 40.986 | 15.809 | 32.563 | 2 |
| 2025-06-29T01:39:00 | 54.679693 | 7.539371 | 2.0 | 15.646 | 2 | 40.986 | 15.810 | 32.562 | 2 |
| 2025-06-29T01:40:00 | 54.679893 | 7.539422 | 2.0 | 15.648 | 2 | 40.986 | 15.811 | 32.561 | 2 |
| 2025-06-29T01:41:00 | 54.680092 | 7.539483 | 2.0 | 15.648 | 2 | 40.986 | 15.812 | 32.561 | 2 |
| 2025-06-29T01:42:00 | 54.680294 | 7.539544 | 2.0 | 15.649 | 2 | 40.986 | 15.813 | 32.560 | 2 |
| 2025-06-29T01:43:00 | 54.680493 | 7.539546 | 2.0 | 15.649 | 2 | 40.986 | 15.813 | 32.560 | 2 |
| 2025-06-29T01:44:00 | 54.680699 | 7.539512 | 2.0 | 15.650 | 2 | 40.986 | 15.814 | 32.559 | 2 |
| 2025-06-29T01:45:00 | 54.680907 | 7.539432 | 2.0 | 15.649 | 2 | 40.986 | 15.814 | 32.559 | 2 |
| 2025-06-29T01:46:00 | 54.681123 | 7.539333 | 2.0 | 15.650 | 2 | 40.985 | 15.814 | 32.558 | 2 |
| 2025-06-29T01:47:00 | 54.681361 | 7.539323 | 2.0 | 15.650 | 2 | 40.984 | 15.814 | 32.557 | 2 |
| 2025-06-29T01:48:00 | 54.681597 | 7.539397 | 2.0 | 15.650 | 2 | 40.985 | 15.814 | 32.558 | 2 |
| 2025-06-29T01:49:00 | 54.681824 | 7.539550 | 2.0 | 15.651 | 2 | 40.985 | 15.814 | 32.558 | 2 |
| 2025-06-29T01:50:00 | 54.682026 | 7.539715 | 2.0 | 15.653 | 2 | 40.986 | 15.815 | 32.558 | 2 |
| 2025-06-29T01:51:00 | 54.682224 | 7.539817 | 2.0 | 15.653 | 2 | 40.986 | 15.817 | 32.556 | 2 |
| 2025-06-29T01:52:00 | 54.682434 | 7.539849 | 2.0 | 15.656 | 2 | 40.986 | 15.818 | 32.556 | 2 |
| 2025-06-29T01:53:00 | 54.682662 | 7.539854 | 2.0 | 15.657 | 2 | 40.988 | 15.821 | 32.555 | 2 |
| 2025-06-29T01:54:00 | 54.682902 | 7.539816 | 2.0 | 15.657 | 2 | 40.988 | 15.822 | 32.554 | 2 |
| 2025-06-29T01:55:00 | 54.683148 | 7.539734 | 2.0 | 15.657 | 2 | 40.988 | 15.821 | 32.555 | 2 |
| 2025-06-29T01:56:00 | 54.683407 | 7.539666 | 2.0 | 15.655 | 2 | 40.988 | 15.820 | 32.556 | 2 |
| 2025-06-29T01:57:00 | 54.683655 | 7.539615 | 2.0 | 15.656 | 2 | 40.987 | 15.819 | 32.556 | 2 |
| 2025-06-29T01:58:00 | 54.683890 | 7.539564 | 2.0 | 15.656 | 2 | 40.987 | 15.820 | 32.555 | 2 |
| 2025-06-29T01:59:00 | 54.684141 | 7.539539 | 2.0 | 15.657 | 2 | 40.988 | 15.821 | 32.555 | 2 |
| 2025-06-29T02:00:00 | 54.684383 | 7.539495 | 2.0 | 15.661 | 2 | 40.988 | 15.822 | 32.554 | 2 |
| 2025-06-29T02:01:00 | 54.684616 | 7.539379 | 2.0 | 15.661 | 2 | 40.989 | 15.825 | 32.552 | 2 |
| 2025-06-29T02:02:00 | 54.684853 | 7.539237 | 2.0 | 15.660 | 2 | 40.988 | 15.825 | 32.552 | 2 |
| 2025-06-29T02:03:00 | 54.685098 | 7.539165 | 2.0 | 15.660 | 2 | 40.988 | 15.824 | 32.552 | 2 |
| 2025-06-29T02:04:00 | 54.685337 | 7.539070 | 2.0 | 15.656 | 2 | 40.988 | 15.823 | 32.553 | 2 |
| 2025-06-29T02:05:00 | 54.685571 | 7.538982 | 2.0 | 15.656 | 2 | 40.987 | 15.820 | 32.555 | 2 |
| 2025-06-29T02:06:00 | 54.685821 | 7.538925 | 2.0 | 15.654 | 2 | 40.988 | 15.820 | 32.556 | 2 |
| 2025-06-29T02:07:00 | 54.686061 | 7.538893 | 2.0 | 15.653 | 2 | 40.988 | 15.819 | 32.557 | 2 |
| 2025-06-29T02:08:00 | 54.686298 | 7.538925 | 2.0 | 15.655 | 2 | 40.988 | 15.818 | 32.557 | 2 |
| 2025-06-29T02:09:00 | 54.686529 | 7.539031 | 2.0 | 15.659 | 2 | 40.987 | 15.820 | 32.555 | 2 |
| 2025-06-29T02:10:00 | 54.686738 | 7.539142 | 2.0 | 15.662 | 2 | 40.988 | 15.823 | 32.553 | 2 |
| 2025-06-29T02:11:00 | 54.686929 | 7.539250 | 2.0 | 15.663 | 2 | 40.990 | 15.826 | 32.553 | 2 |
| 2025-06-29T02:12:00 | 54.687122 | 7.539385 | 2.0 | 15.663 | 2 | 40.990 | 15.827 | 32.552 | 2 |
| 2025-06-29T02:13:00 | 54.687311 | 7.539546 | 2.0 | 15.665 | 2 | 40.990 | 15.828 | 32.551 | 2 |
| 2025-06-29T02:14:00 | 54.687484 | 7.539752 | 2.0 | 15.667 | 2 | 40.990 | 15.828 | 32.551 | 2 |
| 2025-06-29T02:15:00 | 54.687652 | 7.540004 | 2.0 | 15.670 | 2 | 40.991 | 15.832 | 32.548 | 2 |
| 2025-06-29T02:16:00 | 54.687823 | 7.540276 | 2.0 | 15.672 | 2 | 40.992 | 15.834 | 32.548 | 2 |
| 2025-06-29T02:17:00 | 54.688000 | 7.540489 | 2.0 | 15.677 | 2 | 40.993 | 15.837 | 32.546 | 2 |
| 2025-06-29T02:18:00 | 54.688187 | 7.540688 | 2.0 | 15.681 | 2 | 40.994 | 15.841 | 32.544 | 2 |
| 2025-06-29T02:19:00 | 54.688378 | 7.540841 | 2.0 | 15.684 | 2 | 40.995 | 15.846 | 32.541 | 2 |
| 2025-06-29T02:20:00 | 54.688575 | 7.540915 | 2.0 | 15.686 | 2 | 40.996 | 15.848 | 32.540 | 2 |
| 2025-06-29T02:21:00 | 54.688786 | 7.540990 | 2.0 | 15.686 | 2 | 40.997 | 15.850 | 32.539 | 2 |
| 2025-06-29T02:22:00 | 54.688989 | 7.541085 | 2.0 | 15.687 | 2 | 40.997 | 15.850 | 32.539 | 2 |
| 2025-06-29T02:23:00 | 54.689189 | 7.541170 | 2.0 | 15.688 | 2 | 40.997 | 15.851 | 32.538 | 2 |
| 2025-06-29T02:24:00 | 54.689388 | 7.541261 | 2.0 | 15.692 | 2 | 40.996 | 15.853 | 32.536 | 2 |
| 2025-06-29T02:25:00 | 54.689588 | 7.541366 | 2.0 | 15.695 | 2 | 40.995 | 15.856 | 32.532 | 2 |
| 2025-06-29T02:26:00 | 54.689803 | 7.541492 | 2.0 | 15.698 | 2 | 40.993 | 15.859 | 32.528 | 2 |
| 2025-06-29T02:27:00 | 54.690007 | 7.541619 | 2.0 | 15.700 | 2 | 40.991 | 15.862 | 32.524 | 2 |
| 2025-06-29T02:28:00 | 54.690196 | 7.541772 | 2.0 | 15.704 | 2 | 40.991 | 15.864 | 32.522 | 2 |
| 2025-06-29T02:29:00 | 54.690368 | 7.541952 | 2.0 | 15.715 | 2 | 40.987 | 15.870 | 32.514 | 2 |
| 2025-06-29T02:30:00 | 54.690530 | 7.542153 | 2.0 | 15.723 | 2 | 40.986 | 15.880 | 32.505 | 2 |
| 2025-06-29T02:31:00 | 54.690694 | 7.542400 | 2.0 | 15.726 | 2 | 40.989 | 15.886 | 32.502 | 2 |
| 2025-06-29T02:32:00 | 54.690865 | 7.542645 | 2.0 | 15.729 | 2 | 40.992 | 15.889 | 32.503 | 2 |
| 2025-06-29T02:33:00 | 54.691051 | 7.542766 | 2.0 | 15.732 | 2 | 40.994 | 15.892 | 32.502 | 2 |
| 2025-06-29T02:34:00 | 54.691235 | 7.542766 | 2.0 | 15.733 | 2 | 40.996 | 15.895 | 32.501 | 2 |
| 2025-06-29T02:35:00 | 54.691429 | 7.542734 | 2.0 | 15.733 | 2 | 40.997 | 15.896 | 32.501 | 2 |
| 2025-06-29T02:36:00 | 54.691641 | 7.542711 | 2.0 | 15.732 | 2 | 40.998 | 15.896 | 32.502 | 2 |
| 2025-06-29T02:37:00 | 54.691850 | 7.542709 | 2.0 | 15.733 | 2 | 40.998 | 15.896 | 32.502 | 2 |
| 2025-06-29T02:38:00 | 54.692043 | 7.542750 | 2.0 | 15.734 | 2 | 40.998 | 15.897 | 32.501 | 2 |
| 2025-06-29T02:39:00 | 54.692226 | 7.542852 | 2.0 | 15.736 | 2 | 40.997 | 15.898 | 32.500 | 2 |
| 2025-06-29T02:40:00 | 54.692404 | 7.543047 | 2.0 | 15.737 | 2 | 40.998 | 15.899 | 32.500 | 2 |
| 2025-06-29T02:41:00 | 54.692610 | 7.543248 | 2.0 | 15.739 | 2 | 40.999 | 15.900 | 32.500 | 2 |
| 2025-06-29T02:42:00 | 54.692836 | 7.543413 | 2.0 | 15.740 | 2 | 40.999 | 15.902 | 32.498 | 2 |
| 2025-06-29T02:43:00 | 54.693067 | 7.543439 | 2.0 | 15.741 | 2 | 41.000 | 15.904 | 32.497 | 2 |
| 2025-06-29T02:44:00 | 54.693276 | 7.543510 | 2.0 | 15.741 | 2 | 41.000 | 15.905 | 32.496 | 2 |
| 2025-06-29T02:45:00 | 54.693481 | 7.543641 | 2.0 | 15.742 | 2 | 41.001 | 15.905 | 32.497 | 2 |
| 2025-06-29T02:46:00 | 54.693665 | 7.543831 | 2.0 | 15.742 | 2 | 41.001 | 15.905 | 32.497 | 2 |
| 2025-06-29T02:47:00 | 54.693897 | 7.543937 | 2.0 | 15.743 | 2 | 41.001 | 15.905 | 32.497 | 2 |
| 2025-06-29T02:48:00 | 54.694128 | 7.543940 | 2.0 | 15.743 | 2 | 41.002 | 15.907 | 32.497 | 2 |
| 2025-06-29T02:49:00 | 54.694312 | 7.543938 | 2.0 | 15.743 | 2 | 41.002 | 15.906 | 32.497 | 2 |
| 2025-06-29T02:50:00 | 54.694487 | 7.543862 | 2.0 | 15.743 | 2 | 41.002 | 15.906 | 32.497 | 2 |
| 2025-06-29T02:51:00 | 54.694666 | 7.543789 | 2.0 | 15.743 | 2 | 41.002 | 15.907 | 32.497 | 2 |
| 2025-06-29T02:52:00 | 54.694837 | 7.543742 | 2.0 | 15.743 | 2 | 41.001 | 15.907 | 32.496 | 2 |
| 2025-06-29T02:53:00 | 54.694995 | 7.543736 | 2.0 | 15.743 | 2 | 41.001 | 15.907 | 32.496 | 2 |
| 2025-06-29T02:54:00 | 54.695152 | 7.543764 | 2.0 | 15.743 | 2 | 40.999 | 15.906 | 32.495 | 2 |
| 2025-06-29T02:55:00 | 54.695296 | 7.543850 | 2.0 | 15.744 | 2 | 40.999 | 15.907 | 32.494 | 2 |
| 2025-06-29T02:56:00 | 54.695429 | 7.543875 | 2.0 | 15.746 | 2 | 41.000 | 15.908 | 32.494 | 2 |
| 2025-06-29T02:57:00 | 54.695606 | 7.543902 | 2.0 | 15.746 | 2 | 41.001 | 15.910 | 32.493 | 2 |
| 2025-06-29T02:58:00 | 54.695805 | 7.543991 | 2.0 | 15.747 | 2 | 41.001 | 15.910 | 32.493 | 2 |
| 2025-06-29T02:59:00 | 54.695992 | 7.544120 | 2.0 | 15.747 | 2 | 41.001 | 15.910 | 32.493 | 2 |
| 2025-06-29T03:00:00 | 54.696178 | 7.544274 | 2.0 | 15.748 | 2 | 41.002 | 15.911 | 32.493 | 2 |
| 2025-06-29T03:01:00 | 54.696365 | 7.544432 | 2.0 | 15.749 | 2 | 41.002 | 15.912 | 32.492 | 2 |
| 2025-06-29T03:02:00 | 54.696554 | 7.544633 | 2.0 | 15.752 | 2 | 41.003 | 15.913 | 32.493 | 2 |
| 2025-06-29T03:03:00 | 54.696733 | 7.544864 | 2.0 | 15.755 | 2 | 41.003 | 15.917 | 32.489 | 2 |
| 2025-06-29T03:04:00 | 54.696889 | 7.545100 | 2.0 | 15.755 | 2 | 41.004 | 15.919 | 32.489 | 2 |
| 2025-06-29T03:05:00 | 54.697040 | 7.545351 | 2.0 | 15.757 | 2 | 41.005 | 15.919 | 32.489 | 2 |
| 2025-06-29T03:06:00 | 54.697199 | 7.545599 | 2.0 | 15.758 | 2 | 41.004 | 15.920 | 32.488 | 2 |
| 2025-06-29T03:07:00 | 54.697380 | 7.545810 | 2.0 | 15.759 | 2 | 41.003 | 15.921 | 32.486 | 2 |
| 2025-06-29T03:08:00 | 54.697553 | 7.545879 | 2.0 | 15.759 | 2 | 41.000 | 15.922 | 32.483 | 2 |
| 2025-06-29T03:09:00 | 54.697703 | 7.545953 | 2.0 | 15.760 | 2 | 40.999 | 15.923 | 32.481 | 2 |
| 2025-06-29T03:10:00 | 54.697824 | 7.546040 | 2.0 | 15.761 | 2 | 41.000 | 15.924 | 32.481 | 2 |
| 2025-06-29T03:11:00 | 54.697946 | 7.546200 | 2.0 | 15.760 | 2 | 41.001 | 15.924 | 32.482 | 2 |
| 2025-06-29T03:12:00 | 54.698041 | 7.546341 | 2.0 | 15.760 | 2 | 40.999 | 15.923 | 32.481 | 2 |
| 2025-06-29T03:13:00 | 54.698120 | 7.546372 | 2.0 | 15.761 | 2 | 40.998 | 15.923 | 32.480 | 2 |
| 2025-06-29T03:14:00 | 54.698230 | 7.546361 | 2.0 | 15.761 | 2 | 40.997 | 15.924 | 32.478 | 2 |
| 2025-06-29T03:15:00 | 54.698411 | 7.546304 | 2.0 | 15.761 | 2 | 40.997 | 15.924 | 32.478 | 2 |
| 2025-06-29T03:16:00 | 54.698623 | 7.546184 | 2.0 | 15.759 | 2 | 40.996 | 15.924 | 32.477 | 2 |
| 2025-06-29T03:17:00 | 54.698840 | 7.546098 | 2.0 | 15.759 | 2 | 40.995 | 15.923 | 32.477 | 2 |
| 2025-06-29T03:18:00 | 54.699073 | 7.546067 | 2.0 | 15.759 | 2 | 40.995 | 15.923 | 32.477 | 2 |
| 2025-06-29T03:19:00 | 54.699304 | 7.546101 | 2.0 | 15.759 | 2 | 40.992 | 15.923 | 32.475 | 2 |
| 2025-06-29T03:20:00 | 54.699500 | 7.546168 | 2.0 | 15.758 | 2 | 40.994 | 15.922 | 32.477 | 2 |
| 2025-06-29T03:21:00 | 54.699672 | 7.546286 | 2.0 | 15.758 | 2 | 40.995 | 15.922 | 32.478 | 2 |
| 2025-06-29T03:22:00 | 54.699830 | 7.546442 | 2.0 | 15.758 | 2 | 40.993 | 15.922 | 32.476 | 2 |
| 2025-06-29T03:23:00 | 54.699979 | 7.546618 | 2.0 | 15.759 | 2 | 40.992 | 15.922 | 32.475 | 2 |
| 2025-06-29T03:24:00 | 54.700113 | 7.546889 | 2.0 | 15.758 | 2 | 40.991 | 15.922 | 32.475 | 2 |
| 2025-06-29T03:25:00 | 54.700224 | 7.547243 | 2.0 | 15.758 | 2 | 40.991 | 15.921 | 32.475 | 2 |
| 2025-06-29T03:26:00 | 54.700291 | 7.547419 | 2.0 | 15.758 | 2 | 40.988 | 15.920 | 32.474 | 2 |
| 2025-06-29T03:27:00 | 54.700296 | 7.547329 | 2.0 | 15.759 | 2 | 40.988 | 15.921 | 32.473 | 2 |
| 2025-06-29T03:28:00 | 54.700358 | 7.546975 | 2.0 | 15.758 | 2 | 40.987 | 15.921 | 32.472 | 2 |
| 2025-06-29T03:29:00 | 54.700597 | 7.546580 | 2.0 | 15.757 | 2 | 40.986 | 15.921 | 32.471 | 2 |
| 2025-06-29T03:30:00 | 54.700870 | 7.546426 | 2.0 | 15.757 | 2 | 40.986 | 15.920 | 32.472 | 2 |
| 2025-06-29T03:31:00 | 54.701179 | 7.546312 | 2.0 | 15.758 | 2 | 40.986 | 15.920 | 32.472 | 2 |
| 2025-06-29T03:32:00 | 54.701490 | 7.546122 | 2.0 | 15.757 | 2 | 40.988 | 15.921 | 32.473 | 2 |
| 2025-06-29T03:33:00 | 54.701800 | 7.545847 | 2.0 | 15.757 | 2 | 40.988 | 15.921 | 32.473 | 2 |
| 2025-06-29T03:34:00 | 54.702123 | 7.545568 | 2.0 | 15.757 | 2 | 40.989 | 15.921 | 32.474 | 2 |
| 2025-06-29T03:35:00 | 54.702409 | 7.545357 | 2.0 | 15.756 | 2 | 40.989 | 15.921 | 32.474 | 2 |
| 2025-06-29T03:36:00 | 54.702677 | 7.545180 | 2.0 | 15.757 | 2 | 40.989 | 15.920 | 32.474 | 2 |
| 2025-06-29T03:37:00 | 54.702938 | 7.545057 | 2.0 | 15.757 | 2 | 40.988 | 15.920 | 32.474 | 2 |
| 2025-06-29T03:38:00 | 54.703181 | 7.544974 | 2.0 | 15.757 | 2 | 40.987 | 15.921 | 32.472 | 2 |
| 2025-06-29T03:39:00 | 54.703411 | 7.544929 | 2.0 | 15.758 | 2 | 40.987 | 15.921 | 32.472 | 2 |
| 2025-06-29T03:40:00 | 54.703628 | 7.544929 | 2.0 | 15.758 | 2 | 40.988 | 15.921 | 32.473 | 2 |
| 2025-06-29T03:41:00 | 54.703848 | 7.544914 | 2.0 | 15.758 | 2 | 40.988 | 15.922 | 32.472 | 2 |
| 2025-06-29T03:42:00 | 54.704057 | 7.544904 | 2.0 | 15.758 | 2 | 40.988 | 15.922 | 32.472 | 2 |
| 2025-06-29T03:43:00 | 54.704252 | 7.544875 | 2.0 | 15.758 | 2 | 40.987 | 15.922 | 32.471 | 2 |
| 2025-06-29T03:44:00 | 54.704427 | 7.544840 | 2.0 | 15.757 | 2 | 40.986 | 15.921 | 32.471 | 2 |
| 2025-06-29T03:45:00 | 54.704622 | 7.544771 | 2.0 | 15.758 | 2 | 40.985 | 15.920 | 32.471 | 2 |
| 2025-06-29T03:46:00 | 54.704870 | 7.544698 | 2.0 | 15.758 | 2 | 40.986 | 15.921 | 32.471 | 2 |
| 2025-06-29T03:47:00 | 54.705124 | 7.544620 | 2.0 | 15.758 | 2 | 40.986 | 15.921 | 32.471 | 2 |
| 2025-06-29T03:48:00 | 54.705359 | 7.544546 | 2.0 | 15.758 | 2 | 40.985 | 15.921 | 32.470 | 2 |
| 2025-06-29T03:49:00 | 54.705583 | 7.544472 | 2.0 | 15.758 | 2 | 40.983 | 15.921 | 32.468 | 2 |
| 2025-06-29T03:50:00 | 54.705801 | 7.544423 | 2.0 | 15.759 | 2 | 40.983 | 15.922 | 32.467 | 2 |
| 2025-06-29T03:51:00 | 54.706014 | 7.544418 | 2.0 | 15.759 | 2 | 40.984 | 15.922 | 32.468 | 2 |
| 2025-06-29T03:52:00 | 54.706222 | 7.544421 | 2.0 | 15.758 | 2 | 40.983 | 15.922 | 32.467 | 2 |
| 2025-06-29T03:53:00 | 54.706406 | 7.544390 | 2.0 | 15.758 | 2 | 40.982 | 15.921 | 32.467 | 2 |
| 2025-06-29T03:54:00 | 54.706581 | 7.544325 | 2.0 | 15.759 | 2 | 40.982 | 15.921 | 32.467 | 2 |
| 2025-06-29T03:55:00 | 54.706766 | 7.544215 | 2.0 | 15.759 | 2 | 40.982 | 15.922 | 32.467 | 2 |
| 2025-06-29T03:56:00 | 54.706977 | 7.544072 | 2.0 | 15.759 | 2 | 40.982 | 15.922 | 32.467 | 2 |
| 2025-06-29T03:57:00 | 54.707192 | 7.543905 | 2.0 | 15.759 | 2 | 40.983 | 15.923 | 32.467 | 2 |
| 2025-06-29T03:58:00 | 54.707399 | 7.543757 | 2.0 | 15.759 | 2 | 40.982 | 15.922 | 32.467 | 2 |
| 2025-06-29T03:59:00 | 54.707614 | 7.543601 | 2.0 | 15.760 | 2 | 40.982 | 15.922 | 32.467 | 2 |
| 2025-06-29T04:00:00 | 54.707852 | 7.543442 | 2.0 | 15.759 | 2 | 40.983 | 15.923 | 32.467 | 2 |
| 2025-06-29T04:01:00 | 54.708082 | 7.543304 | 2.0 | 15.759 | 2 | 40.982 | 15.922 | 32.467 | 2 |
| 2025-06-29T04:02:00 | 54.708314 | 7.543192 | 2.0 | 15.759 | 2 | 40.982 | 15.923 | 32.466 | 2 |
| 2025-06-29T04:03:00 | 54.708503 | 7.543105 | 2.0 | 15.759 | 2 | 40.982 | 15.922 | 32.467 | 2 |
| 2025-06-29T04:04:00 | 54.708649 | 7.543045 | 2.0 | 15.760 | 2 | 40.981 | 15.923 | 32.465 | 2 |
| 2025-06-29T04:05:00 | 54.708784 | 7.543026 | 2.0 | 15.761 | 2 | 40.981 | 15.923 | 32.465 | 2 |
| 2025-06-29T04:06:00 | 54.708931 | 7.542918 | 2.0 | 15.763 | 2 | 40.982 | 15.924 | 32.465 | 2 |
| 2025-06-29T04:07:00 | 54.709137 | 7.542875 | 2.0 | 15.760 | 2 | 40.983 | 15.926 | 32.464 | 2 |
| 2025-06-29T04:08:00 | 54.709359 | 7.542973 | 2.0 | 15.759 | 2 | 40.981 | 15.923 | 32.465 | 2 |
| 2025-06-29T04:09:00 | 54.709558 | 7.543153 | 2.0 | 15.758 | 2 | 40.979 | 15.922 | 32.464 | 2 |
| 2025-06-29T04:10:00 | 54.709724 | 7.543375 | 2.0 | 15.759 | 2 | 40.979 | 15.922 | 32.464 | 2 |
| 2025-06-29T04:11:00 | 54.709847 | 7.543596 | 2.0 | 15.780 | 2 | 40.980 | 15.922 | 32.465 | 2 |
| 2025-06-29T04:12:00 | 54.709981 | 7.543783 | 2.0 | 15.877 | 2 | 40.953 | 15.961 | 32.409 | 2 |
| 2025-06-29T04:13:00 | 54.710144 | 7.543956 | 2.0 | 15.895 | 2 | 40.917 | 16.034 | 32.318 | 2 |
| 2025-06-29T04:14:00 | 54.710309 | 7.544115 | 2.0 | 15.909 | 2 | 40.916 | 16.057 | 32.298 | 2 |
| 2025-06-29T04:15:00 | 54.710478 | 7.544283 | 2.0 | 15.920 | 2 | 40.917 | 16.071 | 32.288 | 2 |
| 2025-06-29T04:16:00 | 54.710637 | 7.544466 | 2.0 | 15.932 | 2 | 40.917 | 16.083 | 32.278 | 2 |
| 2025-06-29T04:17:00 | 54.710795 | 7.544646 | 2.0 | 15.942 | 2 | 40.910 | 16.094 | 32.263 | 2 |
| 2025-06-29T04:18:00 | 54.710952 | 7.544833 | 2.0 | 15.949 | 2 | 40.895 | 16.104 | 32.241 | 2 |
| 2025-06-29T04:19:00 | 54.711098 | 7.545015 | 2.0 | 15.957 | 2 | 40.902 | 16.112 | 32.241 | 2 |
| 2025-06-29T04:20:00 | 54.711213 | 7.545173 | 2.0 | 15.963 | 2 | 40.908 | 16.120 | 32.240 | 2 |
| 2025-06-29T04:21:00 | 54.711307 | 7.545334 | 2.0 | 15.969 | 2 | 40.912 | 16.126 | 32.239 | 2 |
| 2025-06-29T04:22:00 | 54.711393 | 7.545508 | 2.0 | 15.972 | 2 | 40.914 | 16.130 | 32.237 | 2 |
| 2025-06-29T04:23:00 | 54.711481 | 7.545668 | 2.0 | 15.976 | 2 | 40.915 | 16.135 | 32.234 | 2 |
| 2025-06-29T04:24:00 | 54.711574 | 7.545820 | 2.0 | 15.978 | 2 | 40.916 | 16.137 | 32.233 | 2 |
| 2025-06-29T04:25:00 | 54.711667 | 7.545976 | 2.0 | 15.982 | 2 | 40.917 | 16.140 | 32.232 | 2 |
| 2025-06-29T04:26:00 | 54.711771 | 7.546157 | 2.0 | 15.983 | 2 | 40.916 | 16.143 | 32.228 | 2 |
| 2025-06-29T04:27:00 | 54.711894 | 7.546348 | 2.0 | 15.983 | 2 | 40.918 | 16.144 | 32.229 | 2 |
| 2025-06-29T04:28:00 | 54.712065 | 7.546552 | 2.0 | 15.982 | 2 | 40.917 | 16.144 | 32.228 | 2 |
| 2025-06-29T04:29:00 | 54.712279 | 7.546730 | 2.0 | 15.984 | 2 | 40.915 | 16.143 | 32.227 | 2 |
| 2025-06-29T04:30:00 | 54.712524 | 7.546889 | 2.0 | 15.985 | 2 | 40.915 | 16.145 | 32.226 | 2 |
| 2025-06-29T04:31:00 | 54.712759 | 7.547027 | 2.0 | 15.985 | 2 | 40.915 | 16.146 | 32.225 | 2 |
| 2025-06-29T04:32:00 | 54.712988 | 7.547160 | 2.0 | 15.986 | 2 | 40.916 | 16.146 | 32.226 | 2 |
| 2025-06-29T04:33:00 | 54.713209 | 7.547299 | 2.0 | 15.987 | 2 | 40.915 | 16.147 | 32.224 | 2 |
| 2025-06-29T04:34:00 | 54.713426 | 7.547453 | 2.0 | 15.988 | 2 | 40.914 | 16.148 | 32.223 | 2 |
| 2025-06-29T04:35:00 | 54.713652 | 7.547603 | 2.0 | 15.988 | 2 | 40.913 | 16.148 | 32.222 | 2 |
| 2025-06-29T04:36:00 | 54.713877 | 7.547754 | 2.0 | 15.989 | 2 | 40.912 | 16.149 | 32.220 | 2 |
| 2025-06-29T04:37:00 | 54.714093 | 7.547933 | 2.0 | 15.988 | 2 | 40.911 | 16.150 | 32.218 | 2 |
| 2025-06-29T04:38:00 | 54.714310 | 7.548088 | 2.0 | 15.988 | 2 | 40.911 | 16.149 | 32.219 | 2 |
| 2025-06-29T04:39:00 | 54.714532 | 7.548254 | 2.0 | 15.988 | 2 | 40.910 | 16.149 | 32.218 | 2 |
| 2025-06-29T04:40:00 | 54.714754 | 7.548429 | 2.0 | 15.987 | 2 | 40.909 | 16.149 | 32.217 | 2 |
| 2025-06-29T04:41:00 | 54.714973 | 7.548607 | 2.0 | 15.987 | 2 | 40.909 | 16.147 | 32.219 | 2 |
| 2025-06-29T04:42:00 | 54.715187 | 7.548760 | 2.0 | 15.987 | 2 | 40.908 | 16.149 | 32.216 | 2 |
| 2025-06-29T04:43:00 | 54.715410 | 7.548910 | 2.0 | 15.988 | 2 | 40.908 | 16.149 | 32.216 | 2 |
| 2025-06-29T04:44:00 | 54.715640 | 7.549046 | 2.0 | 15.987 | 2 | 40.907 | 16.149 | 32.216 | 2 |
| 2025-06-29T04:45:00 | 54.715872 | 7.549183 | 2.0 | 15.988 | 2 | 40.907 | 16.149 | 32.216 | 2 |
| 2025-06-29T04:46:00 | 54.716114 | 7.549309 | 2.0 | 15.988 | 2 | 40.906 | 16.149 | 32.215 | 2 |
| 2025-06-29T04:47:00 | 54.716356 | 7.549431 | 2.0 | 15.989 | 2 | 40.906 | 16.149 | 32.215 | 2 |
| 2025-06-29T04:48:00 | 54.716589 | 7.549564 | 2.0 | 15.988 | 2 | 40.905 | 16.150 | 32.213 | 2 |
| 2025-06-29T04:49:00 | 54.716817 | 7.549702 | 2.0 | 15.987 | 2 | 40.904 | 16.149 | 32.213 | 2 |
| 2025-06-29T04:50:00 | 54.717039 | 7.549842 | 2.0 | 15.988 | 2 | 40.905 | 16.149 | 32.214 | 2 |
| 2025-06-29T04:51:00 | 54.717267 | 7.549969 | 2.0 | 15.987 | 2 | 40.904 | 16.149 | 32.213 | 2 |
| 2025-06-29T04:52:00 | 54.717494 | 7.550092 | 2.0 | 15.987 | 2 | 40.902 | 16.149 | 32.211 | 2 |
| 2025-06-29T04:53:00 | 54.717717 | 7.550228 | 2.0 | 15.987 | 2 | 40.902 | 16.148 | 32.212 | 2 |
| 2025-06-29T04:54:00 | 54.717935 | 7.550374 | 2.0 | 15.985 | 2 | 40.902 | 16.148 | 32.212 | 2 |
| 2025-06-29T04:55:00 | 54.718156 | 7.550517 | 2.0 | 15.986 | 2 | 40.903 | 16.147 | 32.214 | 2 |
| 2025-06-29T04:56:00 | 54.718373 | 7.550676 | 2.0 | 15.986 | 2 | 40.902 | 16.148 | 32.212 | 2 |
| 2025-06-29T04:57:00 | 54.718590 | 7.550810 | 2.0 | 15.986 | 2 | 40.902 | 16.148 | 32.212 | 2 |
| 2025-06-29T04:58:00 | 54.718812 | 7.550933 | 2.0 | 15.987 | 2 | 40.902 | 16.148 | 32.212 | 2 |
| 2025-06-29T04:59:00 | 54.719033 | 7.551045 | 2.0 | 15.987 | 2 | 40.901 | 16.149 | 32.210 | 2 |
| 2025-06-29T05:00:00 | 54.719250 | 7.551158 | 2.0 | 15.987 | 2 | 40.901 | 16.149 | 32.210 | 2 |
| 2025-06-29T05:01:00 | 54.719468 | 7.551262 | 2.0 | 15.987 | 2 | 40.901 | 16.149 | 32.210 | 2 |
| 2025-06-29T05:02:00 | 54.719684 | 7.551370 | 2.0 | 15.988 | 2 | 40.902 | 16.149 | 32.211 | 2 |
| 2025-06-29T05:03:00 | 54.719901 | 7.551459 | 2.0 | 15.988 | 2 | 40.902 | 16.150 | 32.210 | 2 |
| 2025-06-29T05:04:00 | 54.720122 | 7.551538 | 2.0 | 15.988 | 2 | 40.903 | 16.150 | 32.211 | 2 |
| 2025-06-29T05:05:00 | 54.720351 | 7.551621 | 2.0 | 15.989 | 2 | 40.901 | 16.150 | 32.209 | 2 |
| 2025-06-29T05:06:00 | 54.720593 | 7.551696 | 2.0 | 15.990 | 2 | 40.902 | 16.150 | 32.210 | 2 |
| 2025-06-29T05:07:00 | 54.720837 | 7.551782 | 2.0 | 15.988 | 2 | 40.903 | 16.151 | 32.210 | 2 |
| 2025-06-29T05:08:00 | 54.721086 | 7.551851 | 2.0 | 15.990 | 2 | 40.901 | 16.150 | 32.209 | 2 |
| 2025-06-29T05:09:00 | 54.721329 | 7.551934 | 2.0 | 15.991 | 2 | 40.902 | 16.152 | 32.209 | 2 |
| 2025-06-29T05:10:00 | 54.721564 | 7.552000 | 2.0 | 15.990 | 2 | 40.902 | 16.152 | 32.209 | 2 |
| 2025-06-29T05:11:00 | 54.721803 | 7.552067 | 2.0 | 15.991 | 2 | 40.902 | 16.152 | 32.209 | 2 |
| 2025-06-29T05:12:00 | 54.722037 | 7.552122 | 2.0 | 15.993 | 2 | 40.901 | 16.153 | 32.207 | 2 |
| 2025-06-29T05:13:00 | 54.722272 | 7.552164 | 2.0 | 15.992 | 2 | 40.901 | 16.153 | 32.207 | 2 |
| 2025-06-29T05:14:00 | 54.722514 | 7.552192 | 2.0 | 15.993 | 2 | 40.902 | 16.154 | 32.207 | 2 |
| 2025-06-29T05:15:00 | 54.722746 | 7.552220 | 2.0 | 15.993 | 2 | 40.903 | 16.155 | 32.207 | 2 |
| 2025-06-29T05:16:00 | 54.722970 | 7.552247 | 2.0 | 15.995 | 2 | 40.903 | 16.156 | 32.206 | 2 |
| 2025-06-29T05:17:00 | 54.723187 | 7.552255 | 2.0 | 15.995 | 2 | 40.904 | 16.157 | 32.206 | 2 |
| 2025-06-29T05:18:00 | 54.723396 | 7.552246 | 2.0 | 15.997 | 2 | 40.904 | 16.157 | 32.206 | 2 |
| 2025-06-29T05:19:00 | 54.723645 | 7.552101 | 2.0 | 15.998 | 2 | 40.906 | 16.159 | 32.207 | 2 |
| 2025-06-29T05:20:00 | 54.724070 | 7.551607 | 2.0 | 15.998 | 2 | 40.904 | 16.159 | 32.205 | 2 |
| 2025-06-29T05:21:00 | 54.724779 | 7.551232 | 2.0 | 15.998 | 2 | 40.902 | 16.159 | 32.203 | 2 |
| 2025-06-29T05:22:00 | 54.725439 | 7.551961 | 2.0 | 15.999 | 2 | 40.902 | 16.160 | 32.202 | 2 |
| 2025-06-29T05:23:00 | 54.725346 | 7.553114 | 2.0 | 15.999 | 2 | 40.902 | 16.160 | 32.202 | 2 |
| 2025-06-29T05:24:00 | 54.724631 | 7.554214 | 2.0 | 15.999 | 2 | 40.903 | 16.161 | 32.202 | 2 |
| 2025-06-29T05:25:00 | 54.723660 | 7.555572 | 2.0 | 15.998 | 2 | 40.908 | 16.161 | 32.207 | 2 |
| 2025-06-29T05:26:00 | 54.722690 | 7.556903 | 2.0 | 15.999 | 2 | 40.916 | 16.161 | 32.214 | 2 |
| 2025-06-29T05:27:00 | 54.721764 | 7.558144 | 2.0 | 16.001 | 2 | 40.923 | 16.162 | 32.219 | 2 |
| 2025-06-29T05:28:00 | 54.720884 | 7.559335 | 2.0 | 16.003 | 2 | 40.933 | 16.164 | 32.226 | 2 |
| 2025-06-29T05:29:00 | 54.720027 | 7.560492 | 2.0 | 16.001 | 2 | 40.944 | 16.165 | 32.235 | 2 |
| 2025-06-29T05:30:00 | 54.719178 | 7.561627 | 2.0 | 15.996 | 2 | 40.951 | 16.164 | 32.242 | 2 |
| 2025-06-29T05:31:00 | 54.718328 | 7.562748 | 2.0 | 15.984 | 2 | 40.957 | 16.157 | 32.253 | 2 |
| 2025-06-29T05:32:00 | 54.717492 | 7.563867 | 2.0 | 15.958 | 2 | 40.966 | 16.144 | 32.271 | 2 |
| 2025-06-29T05:33:00 | 54.716656 | 7.564981 | 2.0 | 15.892 | 2 | 40.989 | 16.111 | 32.318 | 2 |
| 2025-06-29T05:34:00 | 54.715847 | 7.566149 | 2.0 | 15.883 | 2 | 41.018 | 16.056 | 32.389 | 2 |
| 2025-06-29T05:35:00 | 54.715052 | 7.567316 | 2.0 | 15.886 | 2 | 41.019 | 16.049 | 32.395 | 2 |
| 2025-06-29T05:36:00 | 54.714259 | 7.568484 | 2.0 | 15.890 | 2 | 41.019 | 16.051 | 32.394 | 2 |
| 2025-06-29T05:37:00 | 54.713459 | 7.569626 | 2.0 | 15.891 | 2 | 41.018 | 16.053 | 32.391 | 2 |
| 2025-06-29T05:38:00 | 54.712654 | 7.570771 | 2.0 | 15.898 | 2 | 41.019 | 16.056 | 32.390 | 2 |
| 2025-06-29T05:39:00 | 54.711851 | 7.571936 | 2.0 | 15.934 | 2 | 41.021 | 16.071 | 32.379 | 2 |
| 2025-06-29T05:40:00 | 54.711064 | 7.573137 | 2.0 | 15.946 | 2 | 41.017 | 16.097 | 32.355 | 2 |
| 2025-06-29T05:41:00 | 54.710271 | 7.574328 | 2.0 | 15.952 | 2 | 41.012 | 16.109 | 32.340 | 2 |
| 2025-06-29T05:42:00 | 54.709477 | 7.575519 | 2.0 | 15.960 | 2 | 41.006 | 16.116 | 32.329 | 2 |
| 2025-06-29T05:43:00 | 54.708686 | 7.576713 | 2.0 | 15.968 | 2 | 41.000 | 16.125 | 32.317 | 2 |
| 2025-06-29T05:44:00 | 54.707893 | 7.577894 | 2.0 | 15.975 | 2 | 40.994 | 16.132 | 32.306 | 2 |
| 2025-06-29T05:45:00 | 54.707096 | 7.579068 | 2.0 | 15.979 | 2 | 40.991 | 16.138 | 32.298 | 2 |
| 2025-06-29T05:46:00 | 54.706303 | 7.580253 | 2.0 | 15.982 | 2 | 40.987 | 16.141 | 32.292 | 2 |
| 2025-06-29T05:47:00 | 54.705421 | 7.581547 | 2.0 | 15.985 | 2 | 40.986 | 16.144 | 32.289 | 2 |
| 2025-06-29T05:48:00 | 54.704452 | 7.582930 | 2.0 | 15.990 | 2 | 40.985 | 16.148 | 32.285 | 2 |
| 2025-06-29T05:49:00 | 54.703466 | 7.584319 | 2.0 | 16.000 | 2 | 40.982 | 16.155 | 32.277 | 2 |
| 2025-06-29T05:50:00 | 54.702414 | 7.585386 | 2.0 | 16.007 | 2 | 40.976 | 16.164 | 32.264 | 2 |
| 2025-06-29T05:51:00 | 54.701334 | 7.586243 | 2.0 | 16.022 | 2 | 40.971 | 16.172 | 32.253 | 2 |
| 2025-06-29T05:52:00 | 54.700562 | 7.585986 | 2.0 | 16.022 | 2 | 40.968 | 16.182 | 32.242 | 2 |
| 2025-06-29T05:53:00 | 54.700353 | 7.585080 | 2.0 | 16.025 | 2 | 40.969 | 16.184 | 32.242 | 2 |
| 2025-06-29T05:54:00 | 54.700194 | 7.584467 | 2.0 | 16.027 | 2 | 40.968 | 16.187 | 32.238 | 2 |
| 2025-06-29T05:55:00 | 54.700131 | 7.584317 | 2.0 | 16.028 | 2 | 40.970 | 16.189 | 32.238 | 2 |
| 2025-06-29T05:56:00 | 54.700076 | 7.584277 | 2.0 | 16.029 | 2 | 40.971 | 16.191 | 32.238 | 2 |
| 2025-06-29T05:57:00 | 54.700036 | 7.584268 | 2.0 | 16.030 | 2 | 40.972 | 16.192 | 32.238 | 2 |
| 2025-06-29T05:58:00 | 54.700006 | 7.584272 | 2.0 | 16.032 | 2 | 40.972 | 16.193 | 32.237 | 2 |
| 2025-06-29T05:59:00 | 54.699985 | 7.584273 | 2.0 | 16.033 | 2 | 40.973 | 16.194 | 32.237 | 2 |
| 2025-06-29T06:00:00 | 54.699961 | 7.584288 | 2.0 | 16.037 | 2 | 40.973 | 16.195 | 32.236 | 2 |
| 2025-06-29T06:01:00 | 54.699934 | 7.584300 | 2.0 | 16.036 | 2 | 40.975 | 16.199 | 32.235 | 2 |
| 2025-06-29T06:02:00 | 54.699896 | 7.584270 | 2.0 | 16.036 | 2 | 40.975 | 16.198 | 32.236 | 2 |
| 2025-06-29T06:03:00 | 54.699664 | 7.583804 | 2.0 | 16.042 | 2 | 40.973 | 16.199 | 32.233 | 2 |
| 2025-06-29T06:04:00 | 54.699495 | 7.582240 | 2.0 | 16.041 | 2 | 40.974 | 16.202 | 32.231 | 2 |
| 2025-06-29T06:05:00 | 54.699411 | 7.579272 | 2.0 | 16.044 | 2 | 40.975 | 16.204 | 32.231 | 2 |
| 2025-06-29T06:06:00 | 54.699319 | 7.575148 | 2.0 | 16.038 | 2 | 40.978 | 16.207 | 32.231 | 2 |
| 2025-06-29T06:07:00 | 54.699227 | 7.570565 | 2.0 | 16.024 | 2 | 40.981 | 16.201 | 32.238 | 2 |
| 2025-06-29T06:08:00 | 54.699137 | 7.565821 | 2.0 | 16.018 | 2 | 40.992 | 16.187 | 32.259 | 2 |
| 2025-06-29T06:09:00 | 54.699046 | 7.560984 | 2.0 | 16.006 | 2 | 41.012 | 16.183 | 32.280 | 2 |
| 2025-06-29T06:10:00 | 54.698936 | 7.556196 | 2.0 | 15.982 | 2 | 41.032 | 16.167 | 32.311 | 2 |
| 2025-06-29T06:11:00 | 54.698825 | 7.551389 | 2.0 | 15.959 | 2 | 41.034 | 16.146 | 32.330 | 2 |
| 2025-06-29T06:12:00 | 54.698664 | 7.546570 | 2.0 | 15.939 | 2 | 41.036 | 16.123 | 32.350 | 2 |
| 2025-06-29T06:13:00 | 54.698490 | 7.541792 | 2.0 | 15.916 | 2 | 41.039 | 16.103 | 32.369 | 2 |
| 2025-06-29T06:14:00 | 54.698290 | 7.537076 | 2.0 | 15.896 | 2 | 41.043 | 16.081 | 32.390 | 2 |
| 2025-06-29T06:15:00 | 54.698089 | 7.532283 | 2.0 | 15.877 | 2 | 41.047 | 16.060 | 32.411 | 2 |
| 2025-06-29T06:16:00 | 54.697851 | 7.527476 | 2.0 | 15.857 | 2 | 41.052 | 16.040 | 32.432 | 2 |
| 2025-06-29T06:17:00 | 54.697552 | 7.522655 | 2.0 | 15.838 | 2 | 41.052 | 16.022 | 32.447 | 2 |
| 2025-06-29T06:18:00 | 54.697245 | 7.517874 | 2.0 | 15.821 | 2 | 41.052 | 16.002 | 32.463 | 2 |
| 2025-06-29T06:19:00 | 54.696936 | 7.513104 | 2.0 | 15.818 | 2 | 41.053 | 15.989 | 32.474 | 2 |
| 2025-06-29T06:20:00 | 54.696628 | 7.508309 | 2.0 | 15.803 | 2 | 41.052 | 15.983 | 32.478 | 2 |
| 2025-06-29T06:21:00 | 54.696328 | 7.503537 | 2.0 | 15.784 | 2 | 41.050 | 15.968 | 32.489 | 2 |
| 2025-06-29T06:22:00 | 54.696025 | 7.498793 | 2.0 | 15.751 | 2 | 41.046 | 15.946 | 32.503 | 2 |
| 2025-06-29T06:23:00 | 54.695706 | 7.494023 | 2.0 | 15.733 | 2 | 41.039 | 15.917 | 32.521 | 2 |
| 2025-06-29T06:24:00 | 54.695379 | 7.489227 | 2.0 | 15.710 | 2 | 41.032 | 15.895 | 32.533 | 2 |
| 2025-06-29T06:25:00 | 54.695067 | 7.484396 | 2.0 | 15.684 | 2 | 41.025 | 15.874 | 32.544 | 2 |
| 2025-06-29T06:26:00 | 54.694744 | 7.479611 | 2.0 | 15.653 | 2 | 41.015 | 15.848 | 32.557 | 2 |
| 2025-06-29T06:27:00 | 54.694417 | 7.474820 | 2.0 | 15.633 | 2 | 41.007 | 15.819 | 32.573 | 2 |
| 2025-06-29T06:28:00 | 54.694084 | 7.470080 | 2.0 | 15.616 | 2 | 41.005 | 15.799 | 32.588 | 2 |
| 2025-06-29T06:29:00 | 54.693732 | 7.465306 | 2.0 | 15.600 | 2 | 41.006 | 15.782 | 32.603 | 2 |
| 2025-06-29T06:30:00 | 54.693369 | 7.460504 | 2.0 | 15.595 | 2 | 41.005 | 15.767 | 32.614 | 2 |
| 2025-06-29T06:31:00 | 54.693015 | 7.455710 | 2.0 | 15.593 | 2 | 41.012 | 15.761 | 32.626 | 2 |
| 2025-06-29T06:32:00 | 54.692652 | 7.450971 | 2.0 | 15.588 | 2 | 41.023 | 15.761 | 32.635 | 2 |
| 2025-06-29T06:33:00 | 54.692302 | 7.446241 | 2.0 | 15.594 | 2 | 41.040 | 15.759 | 32.652 | 2 |
| 2025-06-29T06:34:00 | 54.691955 | 7.441487 | 2.0 | 15.593 | 2 | 41.061 | 15.762 | 32.668 | 2 |
| 2025-06-29T06:35:00 | 54.691599 | 7.436752 | 2.0 | 15.585 | 2 | 41.083 | 15.762 | 32.688 | 2 |
| 2025-06-29T06:36:00 | 54.691231 | 7.432041 | 2.0 | 15.579 | 2 | 41.089 | 15.754 | 32.700 | 2 |
| 2025-06-29T06:37:00 | 54.690856 | 7.427283 | 2.0 | 15.566 | 2 | 41.077 | 15.745 | 32.697 | 2 |
| 2025-06-29T06:38:00 | 54.690492 | 7.422561 | 2.0 | 15.548 | 2 | 41.052 | 15.730 | 32.687 | 2 |
| 2025-06-29T06:39:00 | 54.690125 | 7.417811 | 2.0 | 15.544 | 2 | 41.029 | 15.717 | 32.677 | 2 |
| 2025-06-29T06:40:00 | 54.689762 | 7.413113 | 2.0 | 15.534 | 2 | 41.015 | 15.710 | 32.670 | 2 |
| 2025-06-29T06:41:00 | 54.689396 | 7.408383 | 2.0 | 15.527 | 2 | 41.003 | 15.701 | 32.667 | 2 |
| 2025-06-29T06:42:00 | 54.689018 | 7.403656 | 2.0 | 15.522 | 2 | 40.990 | 15.694 | 32.661 | 2 |
| 2025-06-29T06:43:00 | 54.688649 | 7.399013 | 2.0 | 15.518 | 2 | 40.973 | 15.689 | 32.650 | 2 |
| 2025-06-29T06:44:00 | 54.688276 | 7.394284 | 2.0 | 15.520 | 2 | 40.960 | 15.688 | 32.640 | 2 |
| 2025-06-29T06:45:00 | 54.687902 | 7.389572 | 2.0 | 15.526 | 2 | 40.953 | 15.687 | 32.634 | 2 |
| 2025-06-29T06:46:00 | 54.687524 | 7.384844 | 2.0 | 15.532 | 2 | 40.956 | 15.695 | 32.630 | 2 |
| 2025-06-29T06:47:00 | 54.687163 | 7.380163 | 2.0 | 15.540 | 2 | 40.960 | 15.700 | 32.630 | 2 |
| 2025-06-29T06:48:00 | 54.686895 | 7.375476 | 2.0 | 15.546 | 2 | 40.967 | 15.707 | 32.630 | 2 |
| 2025-06-29T06:49:00 | 54.686795 | 7.370759 | 2.0 | 15.552 | 2 | 40.974 | 15.712 | 32.632 | 2 |
| 2025-06-29T06:50:00 | 54.686701 | 7.366015 | 2.0 | 15.557 | 2 | 40.984 | 15.720 | 32.635 | 2 |
| 2025-06-29T06:51:00 | 54.686605 | 7.361232 | 2.0 | 15.571 | 2 | 40.992 | 15.727 | 32.636 | 2 |
| 2025-06-29T06:52:00 | 54.686501 | 7.356450 | 2.0 | 15.601 | 2 | 41.007 | 15.739 | 32.639 | 2 |
| 2025-06-29T06:53:00 | 54.686412 | 7.351706 | 2.0 | 15.650 | 2 | 41.053 | 15.773 | 32.652 | 2 |
| 2025-06-29T06:54:00 | 54.686248 | 7.346909 | 2.0 | 15.736 | 2 | 41.141 | 15.833 | 32.681 | 2 |
| 2025-06-29T06:55:00 | 54.685854 | 7.342184 | 2.0 | 15.751 | 2 | 41.250 | 15.899 | 32.723 | 2 |
| 2025-06-29T06:56:00 | 54.685420 | 7.337430 | 2.0 | 15.758 | 2 | 41.277 | 15.915 | 32.733 | 2 |
| 2025-06-29T06:57:00 | 54.684996 | 7.332708 | 2.0 | 15.756 | 2 | 41.287 | 15.922 | 32.736 | 2 |
| 2025-06-29T06:58:00 | 54.684594 | 7.328269 | 2.0 | 15.750 | 2 | 41.287 | 15.921 | 32.737 | 2 |
| 2025-06-29T06:59:00 | 54.684301 | 7.325163 | 2.0 | 15.748 | 2 | 41.282 | 15.913 | 32.739 | 2 |
| 2025-06-29T07:00:00 | 54.684094 | 7.322881 | 2.0 | 15.744 | 2 | 41.278 | 15.910 | 32.738 | 2 |
| 2025-06-29T07:01:00 | 54.683960 | 7.321340 | 2.0 | 15.741 | 2 | 41.276 | 15.907 | 32.739 | 2 |
| 2025-06-29T07:02:00 | 54.683852 | 7.320218 | 2.0 | 15.746 | 2 | 41.275 | 15.907 | 32.738 | 2 |
| 2025-06-29T07:03:00 | 54.683769 | 7.319243 | 2.0 | 15.742 | 2 | 41.275 | 15.906 | 32.739 | 2 |
| 2025-06-29T07:04:00 | 54.683669 | 7.318547 | 2.0 | 15.742 | 2 | 41.274 | 15.905 | 32.739 | 2 |
| 2025-06-29T07:05:00 | 54.683550 | 7.318163 | 2.0 | 15.748 | 2 | 41.274 | 15.905 | 32.739 | 2 |
| 2025-06-29T07:06:00 | 54.683470 | 7.318040 | 2.0 | 15.746 | 2 | 41.278 | 15.909 | 32.739 | 2 |
| 2025-06-29T07:07:00 | 54.683383 | 7.317955 | 2.0 | 15.749 | 2 | 41.278 | 15.909 | 32.739 | 2 |
| 2025-06-29T07:08:00 | 54.683287 | 7.317896 | 2.0 | 15.749 | 2 | 41.280 | 15.911 | 32.739 | 2 |
| 2025-06-29T07:09:00 | 54.683146 | 7.317797 | 2.0 | 15.758 | 2 | 41.284 | 15.916 | 32.739 | 2 |
| 2025-06-29T07:10:00 | 54.683003 | 7.317743 | 2.0 | 15.752 | 2 | 41.288 | 15.919 | 32.740 | 2 |
| 2025-06-29T07:11:00 | 54.682879 | 7.317731 | 2.0 | 15.753 | 2 | 41.287 | 15.918 | 32.740 | 2 |
| 2025-06-29T07:12:00 | 54.682763 | 7.317742 | 2.0 | 15.756 | 2 | 41.287 | 15.918 | 32.740 | 2 |
| 2025-06-29T07:13:00 | 54.682645 | 7.317761 | 2.0 | 15.759 | 2 | 41.289 | 15.920 | 32.740 | 2 |
| 2025-06-29T07:14:00 | 54.682508 | 7.317765 | 2.0 | 15.757 | 2 | 41.290 | 15.921 | 32.740 | 2 |
| 2025-06-29T07:15:00 | 54.682352 | 7.317718 | 2.0 | 15.758 | 2 | 41.290 | 15.921 | 32.740 | 2 |
| 2025-06-29T07:16:00 | 54.682183 | 7.317598 | 2.0 | 15.764 | 2 | 41.291 | 15.922 | 32.740 | 2 |
| 2025-06-29T07:17:00 | 54.682000 | 7.317461 | 2.0 | 15.762 | 2 | 41.296 | 15.927 | 32.740 | 2 |
| 2025-06-29T07:18:00 | 54.681787 | 7.317115 | 2.0 | 15.761 | 2 | 41.295 | 15.925 | 32.741 | 2 |
| 2025-06-29T07:19:00 | 54.681691 | 7.315961 | 2.0 | 15.755 | 2 | 41.293 | 15.921 | 32.743 | 2 |
| 2025-06-29T07:20:00 | 54.681793 | 7.313749 | 2.0 | 15.762 | 2 | 41.294 | 15.922 | 32.743 | 2 |
| 2025-06-29T07:21:00 | 54.681984 | 7.310472 | 2.0 | 15.753 | 2 | 41.302 | 15.926 | 32.746 | 2 |
| 2025-06-29T07:22:00 | 54.682243 | 7.306343 | 2.0 | 15.734 | 2 | 41.296 | 15.916 | 32.749 | 2 |
| 2025-06-29T07:23:00 | 54.682524 | 7.301720 | 2.0 | 15.712 | 2 | 41.282 | 15.899 | 32.751 | 2 |
| 2025-06-29T07:24:00 | 54.682826 | 7.296959 | 2.0 | 15.695 | 2 | 41.261 | 15.877 | 32.751 | 2 |
| 2025-06-29T07:25:00 | 54.683129 | 7.292167 | 2.0 | 15.680 | 2 | 41.248 | 15.863 | 32.751 | 2 |
| 2025-06-29T07:26:00 | 54.683445 | 7.287386 | 2.0 | 15.656 | 2 | 41.230 | 15.842 | 32.752 | 2 |
| 2025-06-29T07:27:00 | 54.683751 | 7.282595 | 2.0 | 15.655 | 2 | 41.209 | 15.824 | 32.748 | 2 |
| 2025-06-29T07:28:00 | 54.684060 | 7.277829 | 2.0 | 15.663 | 2 | 41.203 | 15.822 | 32.745 | 2 |
| 2025-06-29T07:29:00 | 54.684378 | 7.273041 | 2.0 | 15.682 | 2 | 41.205 | 15.833 | 32.737 | 2 |
| 2025-06-29T07:30:00 | 54.684695 | 7.268242 | 2.0 | 15.688 | 2 | 41.215 | 15.850 | 32.732 | 2 |
| 2025-06-29T07:31:00 | 54.685014 | 7.263482 | 2.0 | 15.685 | 2 | 41.216 | 15.853 | 32.731 | 2 |
| 2025-06-29T07:32:00 | 54.685330 | 7.258731 | 2.0 | 15.697 | 2 | 41.210 | 15.851 | 32.727 | 2 |
| 2025-06-29T07:33:00 | 54.685642 | 7.254014 | 2.0 | 15.717 | 2 | 41.217 | 15.866 | 32.721 | 2 |
| 2025-06-29T07:34:00 | 54.685959 | 7.249308 | 2.0 | 15.730 | 2 | 41.228 | 15.883 | 32.716 | 2 |
| 2025-06-29T07:35:00 | 54.686259 | 7.244596 | 2.0 | 15.744 | 2 | 41.238 | 15.895 | 32.715 | 2 |
| 2025-06-29T07:36:00 | 54.686571 | 7.239843 | 2.0 | 15.765 | 2 | 41.250 | 15.912 | 32.712 | 2 |
| 2025-06-29T07:37:00 | 54.686877 | 7.235068 | 2.0 | 15.767 | 2 | 41.264 | 15.931 | 32.709 | 2 |
| 2025-06-29T07:38:00 | 54.687192 | 7.230338 | 2.0 | 15.755 | 2 | 41.264 | 15.931 | 32.709 | 2 |
| 2025-06-29T07:39:00 | 54.687501 | 7.225579 | 2.0 | 15.740 | 2 | 41.250 | 15.919 | 32.706 | 2 |
| 2025-06-29T07:40:00 | 54.687813 | 7.220794 | 2.0 | 15.711 | 2 | 41.230 | 15.902 | 32.702 | 2 |
| 2025-06-29T07:41:00 | 54.688113 | 7.216003 | 2.0 | 15.684 | 2 | 41.197 | 15.875 | 32.696 | 2 |
| 2025-06-29T07:42:00 | 54.688420 | 7.211236 | 2.0 | 15.653 | 2 | 41.164 | 15.849 | 32.688 | 2 |
| 2025-06-29T07:43:00 | 54.688820 | 7.206473 | 2.0 | 15.613 | 2 | 41.127 | 15.816 | 32.682 | 2 |
| 2025-06-29T07:44:00 | 54.689218 | 7.201697 | 2.0 | 15.565 | 2 | 41.083 | 15.773 | 32.679 | 2 |
| 2025-06-29T07:45:00 | 54.689606 | 7.196913 | 2.0 | 15.510 | 2 | 41.037 | 15.726 | 32.677 | 2 |
| 2025-06-29T07:46:00 | 54.689989 | 7.192154 | 2.0 | 15.465 | 2 | 40.989 | 15.672 | 32.679 | 2 |
| 2025-06-29T07:47:00 | 54.690379 | 7.187372 | 2.0 | 15.425 | 2 | 40.950 | 15.631 | 32.678 | 2 |
| 2025-06-29T07:48:00 | 54.690757 | 7.182554 | 2.0 | 15.393 | 2 | 40.913 | 15.594 | 32.676 | 2 |
| 2025-06-29T07:49:00 | 54.691137 | 7.177763 | 2.0 | 15.360 | 2 | 40.882 | 15.560 | 32.676 | 2 |
| 2025-06-29T07:50:00 | 54.691501 | 7.173023 | 2.0 | 15.308 | 2 | 40.855 | 15.522 | 32.684 | 2 |
| 2025-06-29T07:51:00 | 54.691863 | 7.168323 | 2.0 | 15.290 | 2 | 40.826 | 15.477 | 32.695 | 2 |
| 2025-06-29T07:52:00 | 54.692127 | 7.164778 | 2.0 | 15.289 | 2 | 40.829 | 15.463 | 32.710 | 2 |
| 2025-06-29T07:53:00 | 54.692294 | 7.162263 | 2.0 | 15.275 | 2 | 40.837 | 15.452 | 32.726 | 2 |
| 2025-06-29T07:54:00 | 54.692402 | 7.160551 | 2.0 | 15.306 | 2 | 40.850 | 15.453 | 32.737 | 2 |
| 2025-06-29T07:55:00 | 54.692250 | 7.159602 | 2.0 | 15.311 | 2 | 40.876 | 15.470 | 32.746 | 2 |
| 2025-06-29T07:56:00 | 54.691903 | 7.159321 | 2.0 | 15.318 | 2 | 40.884 | 15.475 | 32.749 | 2 |
| 2025-06-29T07:57:00 | 54.691624 | 7.159092 | 2.0 | 15.339 | 2 | 40.896 | 15.488 | 32.749 | 2 |
| 2025-06-29T07:58:00 | 54.691447 | 7.158958 | 2.0 | 15.337 | 2 | 40.914 | 15.505 | 32.751 | 2 |
| 2025-06-29T07:59:00 | 54.691319 | 7.158790 | 2.0 | 15.335 | 2 | 40.914 | 15.504 | 32.751 | 2 |
| 2025-06-29T08:00:00 | 54.691224 | 7.158621 | 2.0 | 15.336 | 2 | 40.911 | 15.501 | 32.751 | 2 |
| 2025-06-29T08:01:00 | 54.691136 | 7.158477 | 2.0 | 15.335 | 2 | 40.911 | 15.502 | 32.750 | 2 |
| 2025-06-29T08:02:00 | 54.691061 | 7.158345 | 2.0 | 15.332 | 2 | 40.909 | 15.500 | 32.750 | 2 |
| 2025-06-29T08:03:00 | 54.690972 | 7.158247 | 2.0 | 15.332 | 2 | 40.906 | 15.498 | 32.749 | 2 |
| 2025-06-29T08:04:00 | 54.690877 | 7.158189 | 2.0 | 15.331 | 2 | 40.905 | 15.497 | 32.749 | 2 |
| 2025-06-29T08:05:00 | 54.690793 | 7.158167 | 2.0 | 15.333 | 2 | 40.905 | 15.497 | 32.749 | 2 |
| 2025-06-29T08:06:00 | 54.690736 | 7.158145 | 2.0 | 15.336 | 2 | 40.907 | 15.500 | 32.748 | 2 |
| 2025-06-29T08:07:00 | 54.690693 | 7.157875 | 2.0 | 15.333 | 2 | 40.909 | 15.502 | 32.749 | 2 |
| 2025-06-29T08:08:00 | 54.690701 | 7.157272 | 2.0 | 15.364 | 2 | 40.910 | 15.502 | 32.749 | 2 |
| 2025-06-29T08:09:00 | 54.690727 | 7.156329 | 2.0 | 15.360 | 2 | 40.938 | 15.525 | 32.755 | 2 |
| 2025-06-29T08:10:00 | 54.690765 | 7.155239 | 2.0 | 15.379 | 2 | 40.949 | 15.531 | 32.760 | 2 |
| 2025-06-29T08:11:00 | 54.690812 | 7.154019 | 2.0 | 15.365 | 2 | 40.966 | 15.542 | 32.766 | 2 |
| 2025-06-29T08:12:00 | 54.690856 | 7.152704 | 2.0 | 15.383 | 2 | 40.963 | 15.536 | 32.768 | 2 |
| 2025-06-29T08:13:00 | 54.690902 | 7.151301 | 2.0 | 15.411 | 2 | 40.985 | 15.553 | 32.774 | 2 |
| 2025-06-29T08:14:00 | 54.690958 | 7.149968 | 2.0 | 15.417 | 2 | 41.009 | 15.573 | 32.779 | 2 |
| 2025-06-29T08:15:00 | 54.691005 | 7.148611 | 2.0 | 15.429 | 2 | 41.022 | 15.583 | 32.782 | 2 |
| 2025-06-29T08:16:00 | 54.691067 | 7.147204 | 2.0 | 15.424 | 2 | 41.029 | 15.588 | 32.784 | 2 |
| 2025-06-29T08:17:00 | 54.691117 | 7.145734 | 2.0 | 15.440 | 2 | 41.034 | 15.594 | 32.784 | 2 |
| 2025-06-29T08:18:00 | 54.691173 | 7.144190 | 2.0 | 15.447 | 2 | 41.044 | 15.603 | 32.785 | 2 |
| 2025-06-29T08:19:00 | 54.691234 | 7.142628 | 2.0 | 15.448 | 2 | 41.053 | 15.613 | 32.785 | 2 |
| 2025-06-29T08:20:00 | 54.691307 | 7.141150 | 2.0 | 15.454 | 2 | 41.054 | 15.612 | 32.786 | 2 |
| 2025-06-29T08:21:00 | 54.691381 | 7.139736 | 2.0 | 15.450 | 2 | 41.060 | 15.617 | 32.788 | 2 |
| 2025-06-29T08:22:00 | 54.691442 | 7.138282 | 2.0 | 15.454 | 2 | 41.060 | 15.615 | 32.789 | 2 |
| 2025-06-29T08:23:00 | 54.691523 | 7.136838 | 2.0 | 15.448 | 2 | 41.065 | 15.619 | 32.790 | 2 |
| 2025-06-29T08:24:00 | 54.691580 | 7.135422 | 2.0 | 15.449 | 2 | 41.062 | 15.614 | 32.792 | 2 |
| 2025-06-29T08:25:00 | 54.691638 | 7.134071 | 2.0 | 15.437 | 2 | 41.063 | 15.611 | 32.795 | 2 |
| 2025-06-29T08:26:00 | 54.691695 | 7.132683 | 2.0 | 15.420 | 2 | 41.055 | 15.598 | 32.799 | 2 |
| 2025-06-29T08:27:00 | 54.691741 | 7.131374 | 2.0 | 15.451 | 2 | 41.059 | 15.596 | 32.804 | 2 |
| 2025-06-29T08:28:00 | 54.691778 | 7.130042 | 2.0 | 15.443 | 2 | 41.081 | 15.609 | 32.813 | 2 |
| 2025-06-29T08:29:00 | 54.691810 | 7.128688 | 2.0 | 15.451 | 2 | 41.083 | 15.612 | 32.812 | 2 |
| 2025-06-29T08:30:00 | 54.691841 | 7.127304 | 2.0 | 15.437 | 2 | 41.084 | 15.613 | 32.812 | 2 |
| 2025-06-29T08:31:00 | 54.691868 | 7.125916 | 2.0 | 15.444 | 2 | 41.070 | 15.599 | 32.812 | 2 |
| 2025-06-29T08:32:00 | 54.691898 | 7.124497 | 2.0 | 15.444 | 2 | 41.081 | 15.611 | 32.811 | 2 |
| 2025-06-29T08:33:00 | 54.691946 | 7.123075 | 2.0 | 15.439 | 2 | 41.076 | 15.603 | 32.814 | 2 |
| 2025-06-29T08:34:00 | 54.691985 | 7.121680 | 2.0 | 15.476 | 2 | 41.084 | 15.614 | 32.812 | 2 |
| 2025-06-29T08:35:00 | 54.692006 | 7.120329 | 2.0 | 15.464 | 2 | 41.108 | 15.636 | 32.815 | 2 |
| 2025-06-29T08:36:00 | 54.692037 | 7.118976 | 2.0 | 15.499 | 2 | 41.106 | 15.636 | 32.813 | 2 |
| 2025-06-29T08:37:00 | 54.692081 | 7.117670 | 2.0 | 15.517 | 2 | 41.130 | 15.662 | 32.813 | 2 |
| 2025-06-29T08:38:00 | 54.692113 | 7.116365 | 2.0 | 15.522 | 2 | 41.145 | 15.679 | 32.812 | 2 |
| 2025-06-29T08:39:00 | 54.692127 | 7.114995 | 2.0 | 15.523 | 2 | 41.148 | 15.683 | 32.811 | 2 |
| 2025-06-29T08:40:00 | 54.692143 | 7.113538 | 2.0 | 15.527 | 2 | 41.149 | 15.687 | 32.809 | 2 |
| 2025-06-29T08:41:00 | 54.692161 | 7.112069 | 2.0 | 15.538 | 2 | 41.152 | 15.692 | 32.807 | 2 |
| 2025-06-29T08:42:00 | 54.692179 | 7.110546 | 2.0 | 15.548 | 2 | 41.158 | 15.703 | 32.803 | 2 |
| 2025-06-29T08:43:00 | 54.692186 | 7.109104 | 2.0 | 15.563 | 2 | 41.165 | 15.714 | 32.800 | 2 |
| 2025-06-29T08:44:00 | 54.692205 | 7.107720 | 2.0 | 15.567 | 2 | 41.177 | 15.728 | 32.800 | 2 |
| 2025-06-29T08:45:00 | 54.692219 | 7.106331 | 2.0 | 15.574 | 2 | 41.180 | 15.734 | 32.797 | 2 |
| 2025-06-29T08:46:00 | 54.692245 | 7.104894 | 2.0 | 15.573 | 2 | 41.182 | 15.737 | 32.796 | 2 |
| 2025-06-29T08:47:00 | 54.692281 | 7.103421 | 2.0 | 15.587 | 2 | 41.182 | 15.740 | 32.794 | 2 |
| 2025-06-29T08:48:00 | 54.692276 | 7.102003 | 2.0 | 15.602 | 2 | 41.192 | 15.754 | 32.791 | 2 |
| 2025-06-29T08:49:00 | 54.692219 | 7.100579 | 2.0 | 15.596 | 2 | 41.193 | 15.764 | 32.784 | 2 |
| 2025-06-29T08:50:00 | 54.692162 | 7.099174 | 2.0 | 15.596 | 2 | 41.187 | 15.757 | 32.784 | 2 |
| 2025-06-29T08:51:00 | 54.692101 | 7.097812 | 2.0 | 15.611 | 2 | 41.190 | 15.764 | 32.781 | 2 |
| 2025-06-29T08:52:00 | 54.692031 | 7.096556 | 2.0 | 15.614 | 2 | 41.200 | 15.773 | 32.783 | 2 |
| 2025-06-29T08:53:00 | 54.691953 | 7.095276 | 2.0 | 15.620 | 2 | 41.204 | 15.780 | 32.780 | 2 |
| 2025-06-29T08:54:00 | 54.691877 | 7.093954 | 2.0 | 15.622 | 2 | 41.207 | 15.783 | 32.781 | 2 |
| 2025-06-29T08:55:00 | 54.691795 | 7.092600 | 2.0 | 15.630 | 2 | 41.208 | 15.787 | 32.778 | 2 |
| 2025-06-29T08:56:00 | 54.691725 | 7.091212 | 2.0 | 15.630 | 2 | 41.211 | 15.793 | 32.776 | 2 |
| 2025-06-29T08:57:00 | 54.691645 | 7.089837 | 2.0 | 15.631 | 2 | 41.209 | 15.793 | 32.774 | 2 |
| 2025-06-29T08:58:00 | 54.691576 | 7.088455 | 2.0 | 15.620 | 2 | 41.208 | 15.793 | 32.773 | 2 |
| 2025-06-29T08:59:00 | 54.691513 | 7.087111 | 2.0 | 15.620 | 2 | 41.199 | 15.786 | 32.771 | 2 |
| 2025-06-29T09:00:00 | 54.691449 | 7.085770 | 2.0 | 15.619 | 2 | 41.197 | 15.783 | 32.772 | 2 |
| 2025-06-29T09:01:00 | 54.691387 | 7.084444 | 2.0 | 15.619 | 2 | 41.195 | 15.783 | 32.770 | 2 |
| 2025-06-29T09:02:00 | 54.691657 | 7.083906 | 2.0 | 15.627 | 2 | 41.196 | 15.785 | 32.769 | 2 |
| 2025-06-29T09:03:00 | 54.692299 | 7.084906 | 2.0 | 15.628 | 2 | 41.199 | 15.788 | 32.769 | 2 |
| 2025-06-29T09:04:00 | 54.693387 | 7.086446 | 2.0 | 15.641 | 2 | 41.204 | 15.792 | 32.770 | 2 |
| 2025-06-29T09:05:00 | 54.694698 | 7.089035 | 2.0 | 15.642 | 2 | 41.215 | 15.804 | 32.770 | 2 |
| 2025-06-29T09:06:00 | 54.695655 | 7.092094 | 2.0 | 15.642 | 2 | 41.219 | 15.805 | 32.773 | 2 |
| 2025-06-29T09:07:00 | 54.695732 | 7.094701 | 2.0 | 15.626 | 2 | 41.220 | 15.802 | 32.776 | 2 |
| 2025-06-29T09:08:00 | 54.695235 | 7.096393 | 2.0 | 15.638 | 2 | 41.215 | 15.796 | 32.777 | 2 |
| 2025-06-29T09:09:00 | 54.694746 | 7.096627 | 2.0 | 15.633 | 2 | 41.218 | 15.798 | 32.778 | 2 |
| 2025-06-29T09:10:00 | 54.694486 | 7.096145 | 2.0 | 15.644 | 2 | 41.219 | 15.799 | 32.778 | 2 |
| 2025-06-29T09:11:00 | 54.694366 | 7.094953 | 2.0 | 15.640 | 2 | 41.223 | 15.803 | 32.778 | 2 |
| 2025-06-29T09:12:00 | 54.694275 | 7.093370 | 2.0 | 15.635 | 2 | 41.225 | 15.805 | 32.778 | 2 |
| 2025-06-29T09:13:00 | 54.694208 | 7.091777 | 2.0 | 15.645 | 2 | 41.219 | 15.800 | 32.777 | 2 |
| 2025-06-29T09:14:00 | 54.694144 | 7.090200 | 2.0 | 15.634 | 2 | 41.219 | 15.804 | 32.774 | 2 |
| 2025-06-29T09:15:00 | 54.694080 | 7.088611 | 2.0 | 15.648 | 2 | 41.217 | 15.805 | 32.771 | 2 |
| 2025-06-29T09:16:00 | 54.694020 | 7.087072 | 2.0 | 15.653 | 2 | 41.222 | 15.811 | 32.771 | 2 |
| 2025-06-29T09:17:00 | 54.693953 | 7.085635 | 2.0 | 15.645 | 2 | 41.223 | 15.814 | 32.769 | 2 |
| 2025-06-29T09:18:00 | 54.693898 | 7.084269 | 2.0 | 15.636 | 2 | 41.217 | 15.806 | 32.770 | 2 |
| 2025-06-29T09:19:00 | 54.693829 | 7.082860 | 2.0 | 15.625 | 2 | 41.205 | 15.793 | 32.770 | 2 |
| 2025-06-29T09:20:00 | 54.693763 | 7.081469 | 2.0 | 15.623 | 2 | 41.201 | 15.789 | 32.770 | 2 |
| 2025-06-29T09:21:00 | 54.693687 | 7.080122 | 2.0 | 15.624 | 2 | 41.198 | 15.787 | 32.769 | 2 |
| 2025-06-29T09:22:00 | 54.693616 | 7.078742 | 2.0 | 15.623 | 2 | 41.197 | 15.788 | 32.768 | 2 |
| 2025-06-29T09:23:00 | 54.693548 | 7.077347 | 2.0 | 15.611 | 2 | 41.193 | 15.785 | 32.766 | 2 |
| 2025-06-29T09:24:00 | 54.693493 | 7.075937 | 2.0 | 15.612 | 2 | 41.184 | 15.777 | 32.765 | 2 |
| 2025-06-29T09:25:00 | 54.693426 | 7.074562 | 2.0 | 15.625 | 2 | 41.188 | 15.779 | 32.767 | 2 |
| 2025-06-29T09:26:00 | 54.693353 | 7.073157 | 2.0 | 15.616 | 2 | 41.198 | 15.786 | 32.770 | 2 |
| 2025-06-29T09:27:00 | 54.693292 | 7.071740 | 2.0 | 15.606 | 2 | 41.189 | 15.778 | 32.769 | 2 |
| 2025-06-29T09:28:00 | 54.693229 | 7.070305 | 2.0 | 15.604 | 2 | 41.176 | 15.767 | 32.766 | 2 |
| 2025-06-29T09:29:00 | 54.693184 | 7.068927 | 2.0 | 15.613 | 2 | 41.176 | 15.769 | 32.765 | 2 |
| 2025-06-29T09:30:00 | 54.693125 | 7.067522 | 2.0 | 15.610 | 2 | 41.187 | 15.776 | 32.769 | 2 |
| 2025-06-29T09:31:00 | 54.693080 | 7.066089 | 2.0 | 15.615 | 2 | 41.186 | 15.773 | 32.770 | 2 |
| 2025-06-29T09:32:00 | 54.693038 | 7.064690 | 2.0 | 15.603 | 2 | 41.185 | 15.774 | 32.768 | 2 |
| 2025-06-29T09:33:00 | 54.693008 | 7.063273 | 2.0 | 15.590 | 2 | 41.174 | 15.762 | 32.769 | 2 |
| 2025-06-29T09:34:00 | 54.692980 | 7.061877 | 2.0 | 15.603 | 2 | 41.167 | 15.755 | 32.768 | 2 |
| 2025-06-29T09:35:00 | 54.692948 | 7.060505 | 2.0 | 15.600 | 2 | 41.175 | 15.764 | 32.768 | 2 |
| 2025-06-29T09:36:00 | 54.692915 | 7.059130 | 2.0 | 15.606 | 2 | 41.177 | 15.767 | 32.767 | 2 |
| 2025-06-29T09:37:00 | 54.692884 | 7.057709 | 2.0 | 15.607 | 2 | 41.181 | 15.769 | 32.769 | 2 |
| 2025-06-29T09:38:00 | 54.692857 | 7.056254 | 2.0 | 15.608 | 2 | 41.183 | 15.771 | 32.769 | 2 |
| 2025-06-29T09:39:00 | 54.692855 | 7.054864 | 2.0 | 15.616 | 2 | 41.190 | 15.773 | 32.774 | 2 |
| 2025-06-29T09:40:00 | 54.692838 | 7.053577 | 2.0 | 15.633 | 2 | 41.208 | 15.779 | 32.785 | 2 |
| 2025-06-29T09:41:00 | 54.692821 | 7.052245 | 2.0 | 15.693 | 2 | 41.255 | 15.807 | 32.803 | 2 |
| 2025-06-29T09:42:00 | 54.692791 | 7.050961 | 2.0 | 15.756 | 2 | 41.358 | 15.869 | 32.843 | 2 |
| 2025-06-29T09:43:00 | 54.692758 | 7.049640 | 2.0 | 15.815 | 2 | 41.458 | 15.924 | 32.886 | 2 |
| 2025-06-29T09:44:00 | 54.692704 | 7.048240 | 2.0 | 15.845 | 2 | 41.537 | 15.973 | 32.915 | 2 |
| 2025-06-29T09:45:00 | 54.692649 | 7.046822 | 2.0 | 15.868 | 2 | 41.590 | 16.008 | 32.933 | 2 |
| 2025-06-29T09:46:00 | 54.692595 | 7.045480 | 2.0 | 15.907 | 2 | 41.642 | 16.032 | 32.959 | 2 |
| 2025-06-29T09:47:00 | 54.692539 | 7.044128 | 2.0 | 15.932 | 2 | 41.696 | 16.072 | 32.974 | 2 |
| 2025-06-29T09:48:00 | 54.692493 | 7.042760 | 2.0 | 15.939 | 2 | 41.804 | 16.089 | 33.055 | 2 |
| 2025-06-29T09:49:00 | 54.692450 | 7.041405 | 2.0 | 15.944 | 2 | 41.912 | 16.100 | 33.141 | 2 |
| 2025-06-29T09:50:00 | 54.692399 | 7.040032 | 2.0 | 16.012 | 2 | 42.027 | 16.115 | 33.230 | 2 |
| 2025-06-29T09:51:00 | 54.692323 | 7.038715 | 2.0 | 16.015 | 2 | 42.160 | 16.171 | 33.301 | 2 |
| 2025-06-29T09:52:00 | 54.692227 | 7.037371 | 2.0 | 15.989 | 2 | 42.226 | 16.170 | 33.360 | 2 |
| 2025-06-29T09:53:00 | 54.692131 | 7.035969 | 2.0 | 15.961 | 2 | 42.208 | 16.147 | 33.363 | 2 |
| 2025-06-29T09:54:00 | 54.692026 | 7.034529 | 2.0 | 15.935 | 2 | 42.179 | 16.122 | 33.359 | 2 |
| 2025-06-29T09:55:00 | 54.691917 | 7.033096 | 2.0 | 15.896 | 2 | 42.147 | 16.091 | 33.356 | 2 |
| 2025-06-29T09:56:00 | 54.691798 | 7.031634 | 2.0 | 15.891 | 2 | 42.108 | 16.056 | 33.351 | 2 |
| 2025-06-29T09:57:00 | 54.691676 | 7.030138 | 2.0 | 15.992 | 2 | 42.115 | 16.075 | 33.341 | 2 |
| 2025-06-29T09:58:00 | 54.691611 | 7.028631 | 2.0 | 16.010 | 2 | 42.189 | 16.147 | 33.346 | 2 |
| 2025-06-29T09:59:00 | 54.691577 | 7.027149 | 2.0 | 16.016 | 2 | 42.212 | 16.174 | 33.344 | 2 |
| 2025-06-29T10:00:00 | 54.691537 | 7.025805 | 2.0 | 16.002 | 2 | 42.208 | 16.174 | 33.340 | 2 |
| 2025-06-29T10:01:00 | 54.691489 | 7.024608 | 2.0 | 15.983 | 2 | 42.191 | 16.160 | 33.337 | 2 |
| 2025-06-29T10:02:00 | 54.691419 | 7.023528 | 2.0 | 15.963 | 2 | 42.166 | 16.142 | 33.330 | 2 |
| 2025-06-29T10:03:00 | 54.691463 | 7.022553 | 2.0 | 15.938 | 2 | 42.139 | 16.118 | 33.327 | 2 |
| 2025-06-29T10:04:00 | 54.691442 | 7.021615 | 2.0 | 15.913 | 2 | 42.118 | 16.099 | 33.324 | 2 |
| 2025-06-29T10:05:00 | 54.691472 | 7.020691 | 2.0 | 15.909 | 2 | 42.091 | 16.078 | 33.318 | 2 |
| 2025-06-29T10:06:00 | 54.691484 | 7.019797 | 2.0 | 15.900 | 2 | 42.076 | 16.069 | 33.312 | 2 |
| 2025-06-29T10:07:00 | 54.691493 | 7.018897 | 2.0 | 15.897 | 2 | 42.068 | 16.064 | 33.309 | 2 |
| 2025-06-29T10:08:00 | 54.691502 | 7.018043 | 2.0 | 15.885 | 2 | 42.056 | 16.053 | 33.308 | 2 |
| 2025-06-29T10:09:00 | 54.691509 | 7.017201 | 2.0 | 15.868 | 2 | 42.041 | 16.042 | 33.304 | 2 |
| 2025-06-29T10:10:00 | 54.691535 | 7.016355 | 2.0 | 15.862 | 2 | 42.029 | 16.030 | 33.303 | 2 |
| 2025-06-29T10:11:00 | 54.691541 | 7.015470 | 2.0 | 15.865 | 2 | 42.024 | 16.029 | 33.300 | 2 |
| 2025-06-29T10:12:00 | 54.691559 | 7.014569 | 2.0 | 15.865 | 2 | 42.022 | 16.026 | 33.300 | 2 |
| 2025-06-29T10:13:00 | 54.691551 | 7.013691 | 2.0 | 15.849 | 2 | 42.018 | 16.022 | 33.300 | 2 |
| 2025-06-29T10:14:00 | 54.691543 | 7.012821 | 2.0 | 15.836 | 2 | 42.009 | 16.011 | 33.301 | 2 |
| 2025-06-29T10:15:00 | 54.691511 | 7.011969 | 2.0 | 15.819 | 2 | 41.994 | 15.996 | 33.301 | 2 |
| 2025-06-29T10:16:00 | 54.691489 | 7.011124 | 2.0 | 15.787 | 2 | 41.979 | 15.980 | 33.301 | 2 |
| 2025-06-29T10:17:00 | 54.691466 | 7.010282 | 2.0 | 15.768 | 2 | 41.953 | 15.953 | 33.300 | 2 |
| 2025-06-29T10:18:00 | 54.691445 | 7.009449 | 2.0 | 15.713 | 2 | 41.924 | 15.924 | 33.299 | 2 |
| 2025-06-29T10:19:00 | 54.691420 | 7.008700 | 2.0 | 15.669 | 2 | 41.865 | 15.869 | 33.293 | 2 |
| 2025-06-29T10:20:00 | 54.691339 | 7.008153 | 2.0 | 15.651 | 2 | 41.826 | 15.833 | 33.289 | 2 |
| 2025-06-29T10:21:00 | 54.691278 | 7.007802 | 2.0 | 15.617 | 2 | 41.805 | 15.810 | 33.289 | 2 |
| 2025-06-29T10:22:00 | 54.691294 | 7.007658 | 2.0 | 15.588 | 2 | 41.768 | 15.779 | 33.283 | 2 |
| 2025-06-29T10:23:00 | 54.691247 | 7.007507 | 2.0 | 15.560 | 2 | 41.742 | 15.754 | 33.280 | 2 |
| 2025-06-29T10:24:00 | 54.691243 | 7.007322 | 2.0 | 15.479 | 2 | 41.702 | 15.715 | 33.278 | 2 |
| 2025-06-29T10:25:00 | 54.691258 | 7.007121 | 2.0 | 15.440 | 2 | 41.616 | 15.642 | 33.263 | 2 |
| 2025-06-29T10:26:00 | 54.691267 | 7.006972 | 2.0 | 15.397 | 2 | 41.571 | 15.600 | 33.258 | 2 |
| 2025-06-29T10:27:00 | 54.691101 | 7.006795 | 2.0 | 15.378 | 2 | 41.531 | 15.561 | 33.255 | 2 |
| 2025-06-29T10:28:00 | 54.690957 | 7.006627 | 2.0 | 15.340 | 2 | 41.509 | 15.539 | 33.254 | 2 |
| 2025-06-29T10:29:00 | 54.690876 | 7.006474 | 2.0 | 15.314 | 2 | 41.474 | 15.501 | 33.255 | 2 |
| 2025-06-29T10:30:00 | 54.690781 | 7.006304 | 2.0 | 15.315 | 2 | 41.458 | 15.483 | 33.256 | 2 |
| 2025-06-29T10:31:00 | 54.690781 | 7.006087 | 2.0 | 15.310 | 2 | 41.464 | 15.480 | 33.263 | 2 |
| 2025-06-29T10:32:00 | 54.690787 | 7.005835 | 2.0 | 15.352 | 2 | 41.474 | 15.478 | 33.274 | 2 |
| 2025-06-29T10:33:00 | 54.690814 | 7.005585 | 2.0 | 15.443 | 2 | 41.556 | 15.541 | 33.294 | 2 |
| 2025-06-29T10:34:00 | 54.690850 | 7.005327 | 2.0 | 15.430 | 2 | 41.634 | 15.598 | 33.316 | 2 |
| 2025-06-29T10:35:00 | 54.690880 | 7.005120 | 2.0 | 15.447 | 2 | 41.637 | 15.597 | 33.319 | 2 |
| 2025-06-29T10:36:00 | 54.690893 | 7.004912 | 2.0 | 15.429 | 2 | 41.653 | 15.608 | 33.324 | 2 |
| 2025-06-29T10:37:00 | 54.690891 | 7.004681 | 2.0 | 15.422 | 2 | 41.642 | 15.591 | 33.329 | 2 |
| 2025-06-29T10:38:00 | 54.690897 | 7.004467 | 2.0 | 15.413 | 2 | 41.632 | 15.581 | 33.328 | 2 |
| 2025-06-29T10:39:00 | 54.690901 | 7.004247 | 2.0 | 15.401 | 2 | 41.629 | 15.579 | 33.327 | 2 |
| 2025-06-29T10:40:00 | 54.690906 | 7.004047 | 2.0 | 15.435 | 2 | 41.621 | 15.569 | 33.329 | 2 |
| 2025-06-29T10:41:00 | 54.690925 | 7.003836 | 2.0 | 15.420 | 2 | 41.646 | 15.596 | 33.328 | 2 |
| 2025-06-29T10:42:00 | 54.690953 | 7.003603 | 2.0 | 15.426 | 2 | 41.638 | 15.585 | 33.330 | 2 |
| 2025-06-29T10:43:00 | 54.690980 | 7.003395 | 2.0 | 15.414 | 2 | 41.641 | 15.588 | 33.331 | 2 |
| 2025-06-29T10:44:00 | 54.691001 | 7.003185 | 2.0 | 15.438 | 2 | 41.639 | 15.585 | 33.331 | 2 |
| 2025-06-29T10:45:00 | 54.691031 | 7.003015 | 2.0 | 15.443 | 2 | 41.650 | 15.597 | 33.331 | 2 |
| 2025-06-29T10:46:00 | 54.691067 | 7.002992 | 2.0 | 15.425 | 2 | 41.660 | 15.605 | 33.333 | 2 |
| 2025-06-29T10:47:00 | 54.691071 | 7.003035 | 2.0 | 15.447 | 2 | 41.649 | 15.594 | 33.333 | 2 |
| 2025-06-29T10:48:00 | 54.691067 | 7.003065 | 2.0 | 15.422 | 2 | 41.660 | 15.603 | 33.335 | 2 |
| 2025-06-29T10:49:00 | 54.691054 | 7.003033 | 2.0 | 15.441 | 2 | 41.652 | 15.595 | 33.334 | 2 |
| 2025-06-29T10:50:00 | 54.691071 | 7.002893 | 2.0 | 15.461 | 2 | 41.664 | 15.606 | 33.336 | 2 |
| 2025-06-29T10:51:00 | 54.691124 | 7.002704 | 2.0 | 15.451 | 2 | 41.680 | 15.622 | 33.337 | 2 |
| 2025-06-29T10:52:00 | 54.691149 | 7.002572 | 2.0 | 15.478 | 2 | 41.680 | 15.621 | 33.337 | 2 |
| 2025-06-29T10:53:00 | 54.691171 | 7.002453 | 2.0 | 15.476 | 2 | 41.701 | 15.640 | 33.340 | 2 |
| 2025-06-29T10:54:00 | 54.691218 | 7.002332 | 2.0 | 15.473 | 2 | 41.703 | 15.640 | 33.342 | 2 |
| 2025-06-29T10:55:00 | 54.691244 | 7.002214 | 2.0 | 15.464 | 2 | 41.697 | 15.635 | 33.341 | 2 |
| 2025-06-29T10:56:00 | 54.691241 | 7.002126 | 2.0 | 15.471 | 2 | 41.694 | 15.631 | 33.341 | 2 |
| 2025-06-29T10:57:00 | 54.691223 | 7.002028 | 2.0 | 15.453 | 2 | 41.691 | 15.625 | 33.344 | 2 |
| 2025-06-29T10:58:00 | 54.691195 | 7.001917 | 2.0 | 15.470 | 2 | 41.689 | 15.625 | 33.342 | 2 |
| 2025-06-29T10:59:00 | 54.691178 | 7.001844 | 2.0 | 15.482 | 2 | 41.699 | 15.634 | 33.343 | 2 |
| 2025-06-29T11:00:00 | 54.691150 | 7.001872 | 2.0 | 15.485 | 2 | 41.712 | 15.648 | 33.343 | 2 |
| 2025-06-29T11:01:00 | 54.691100 | 7.001868 | 2.0 | 15.451 | 2 | 41.713 | 15.645 | 33.347 | 2 |
| 2025-06-29T11:02:00 | 54.691093 | 7.001803 | 2.0 | 15.475 | 2 | 41.686 | 15.618 | 33.345 | 2 |
| 2025-06-29T11:03:00 | 54.691106 | 7.001744 | 2.0 | 15.498 | 2 | 41.708 | 15.644 | 33.343 | 2 |
| 2025-06-29T11:04:00 | 54.691121 | 7.001632 | 2.0 | 15.487 | 2 | 41.728 | 15.660 | 33.347 | 2 |
| 2025-06-29T11:05:00 | 54.691479 | 7.002124 | 2.0 | 15.489 | 2 | 41.720 | 15.651 | 33.348 | 2 |
| 2025-06-29T11:06:00 | 54.691481 | 7.003915 | 2.0 | 15.464 | 2 | 41.712 | 15.644 | 33.347 | 2 |
| 2025-06-29T11:07:00 | 54.691019 | 7.006498 | 2.0 | 15.444 | 2 | 41.693 | 15.628 | 33.343 | 2 |
| 2025-06-29T11:08:00 | 54.690457 | 7.009739 | 2.0 | 15.339 | 2 | 41.666 | 15.605 | 33.338 | 2 |
| 2025-06-29T11:09:00 | 54.689881 | 7.013321 | 2.0 | 15.230 | 2 | 41.526 | 15.483 | 33.316 | 2 |
| 2025-06-29T11:10:00 | 54.689314 | 7.017047 | 2.0 | 15.097 | 2 | 41.389 | 15.386 | 33.276 | 2 |
| 2025-06-29T11:11:00 | 54.688749 | 7.020848 | 2.0 | 15.039 | 2 | 41.201 | 15.263 | 33.211 | 2 |
| 2025-06-29T11:12:00 | 54.688513 | 7.024682 | 2.0 | 15.050 | 2 | 41.124 | 15.210 | 33.187 | 2 |
| 2025-06-29T11:13:00 | 54.689224 | 7.027953 | 2.0 | 15.073 | 2 | 41.137 | 15.227 | 33.184 | 2 |
| 2025-06-29T11:14:00 | 54.690429 | 7.030594 | 2.0 | 15.067 | 2 | 41.154 | 15.239 | 33.189 | 2 |
| 2025-06-29T11:15:00 | 54.691589 | 7.033375 | 2.0 | 15.075 | 2 | 41.149 | 15.238 | 33.185 | 2 |
| 2025-06-29T11:16:00 | 54.692739 | 7.036337 | 2.0 | 15.091 | 2 | 41.135 | 15.242 | 33.169 | 2 |
| 2025-06-29T11:17:00 | 54.694152 | 7.039835 | 2.0 | 15.238 | 2 | 41.156 | 15.274 | 33.161 | 2 |
| 2025-06-29T11:18:00 | 54.695650 | 7.043654 | 2.0 | 15.312 | 2 | 41.322 | 15.423 | 33.184 | 2 |
| 2025-06-29T11:19:00 | 54.697162 | 7.047610 | 2.0 | 15.586 | 2 | 41.444 | 15.519 | 33.213 | 2 |
| 2025-06-29T11:20:00 | 54.698706 | 7.051552 | 2.0 | 15.754 | 2 | 41.720 | 15.770 | 33.247 | 2 |
| 2025-06-29T11:21:00 | 54.700257 | 7.055454 | 2.0 | 15.757 | 2 | 41.871 | 15.897 | 33.275 | 2 |
| 2025-06-29T11:22:00 | 54.701793 | 7.059382 | 2.0 | 15.946 | 2 | 41.910 | 15.945 | 33.269 | 2 |
| 2025-06-29T11:23:00 | 54.703350 | 7.063424 | 2.0 | 16.005 | 2 | 42.049 | 16.103 | 33.260 | 2 |
| 2025-06-29T11:24:00 | 54.704964 | 7.067526 | 2.0 | 16.067 | 2 | 42.118 | 16.171 | 33.264 | 2 |
| 2025-06-29T11:25:00 | 54.706591 | 7.071666 | 2.0 | 16.120 | 2 | 42.179 | 16.233 | 33.265 | 2 |
| 2025-06-29T11:26:00 | 54.708219 | 7.075827 | 2.0 | 16.134 | 2 | 42.225 | 16.278 | 33.268 | 2 |
| 2025-06-29T11:27:00 | 54.709830 | 7.079963 | 2.0 | 16.081 | 2 | 42.231 | 16.290 | 33.264 | 2 |
| 2025-06-29T11:28:00 | 54.711462 | 7.084093 | 2.0 | 16.053 | 2 | 42.124 | 16.218 | 33.230 | 2 |
| 2025-06-29T11:29:00 | 54.713102 | 7.088228 | 2.0 | 16.097 | 2 | 42.123 | 16.232 | 33.217 | 2 |
| 2025-06-29T11:30:00 | 54.714727 | 7.092433 | 2.0 | 15.722 | 2 | 42.025 | 16.161 | 33.190 | 2 |
| 2025-06-29T11:31:00 | 54.716386 | 7.096603 | 2.0 | 15.688 | 2 | 41.593 | 15.881 | 33.042 | 2 |
| 2025-06-29T11:32:00 | 54.718029 | 7.100826 | 2.0 | 15.681 | 2 | 41.457 | 15.871 | 32.929 | 2 |
| 2025-06-29T11:33:00 | 54.719718 | 7.104984 | 2.0 | 15.585 | 2 | 41.350 | 15.830 | 32.868 | 2 |
| 2025-06-29T11:34:00 | 54.721389 | 7.109185 | 2.0 | 15.592 | 2 | 41.227 | 15.763 | 32.815 | 2 |
| 2025-06-29T11:35:00 | 54.722997 | 7.113481 | 2.0 | 15.554 | 2 | 41.234 | 15.771 | 32.814 | 2 |
| 2025-06-29T11:36:00 | 54.724650 | 7.117761 | 2.0 | 15.497 | 2 | 41.187 | 15.721 | 32.814 | 2 |
| 2025-06-29T11:37:00 | 54.726310 | 7.122060 | 2.0 | 15.452 | 2 | 41.142 | 15.660 | 32.825 | 2 |
| 2025-06-29T11:38:00 | 54.727996 | 7.126300 | 2.0 | 15.434 | 2 | 41.147 | 15.623 | 32.860 | 2 |
| 2025-06-29T11:39:00 | 54.729666 | 7.130535 | 2.0 | 15.388 | 2 | 41.136 | 15.600 | 32.870 | 2 |
| 2025-06-29T11:40:00 | 54.731320 | 7.134825 | 2.0 | 15.373 | 2 | 41.096 | 15.559 | 32.868 | 2 |
| 2025-06-29T11:41:00 | 54.732977 | 7.139090 | 2.0 | 15.381 | 2 | 41.099 | 15.547 | 32.881 | 2 |
| 2025-06-29T11:42:00 | 54.734625 | 7.143367 | 2.0 | 15.388 | 2 | 41.097 | 15.549 | 32.877 | 2 |
| 2025-06-29T11:43:00 | 54.736289 | 7.147599 | 2.0 | 15.365 | 2 | 41.114 | 15.555 | 32.887 | 2 |
| 2025-06-29T11:44:00 | 54.737914 | 7.151877 | 2.0 | 15.402 | 2 | 41.111 | 15.540 | 32.897 | 2 |
| 2025-06-29T11:45:00 | 54.739461 | 7.156256 | 2.0 | 15.555 | 2 | 41.176 | 15.581 | 32.921 | 2 |
| 2025-06-29T11:46:00 | 54.741139 | 7.160464 | 2.0 | 15.623 | 2 | 41.364 | 15.731 | 32.963 | 2 |
| 2025-06-29T11:47:00 | 54.742790 | 7.164708 | 2.0 | 15.598 | 2 | 41.420 | 15.777 | 32.975 | 2 |
| 2025-06-29T11:48:00 | 54.744427 | 7.168956 | 2.0 | 15.558 | 2 | 41.382 | 15.757 | 32.958 | 2 |
| 2025-06-29T11:49:00 | 54.746084 | 7.173166 | 2.0 | 15.536 | 2 | 41.332 | 15.720 | 32.944 | 2 |
| 2025-06-29T11:50:00 | 54.747733 | 7.177392 | 2.0 | 15.562 | 2 | 41.329 | 15.714 | 32.946 | 2 |
| 2025-06-29T11:51:00 | 54.749370 | 7.181642 | 2.0 | 15.512 | 2 | 41.342 | 15.725 | 32.949 | 2 |
| 2025-06-29T11:52:00 | 54.751004 | 7.185896 | 2.0 | 15.449 | 2 | 41.300 | 15.672 | 32.956 | 2 |
| 2025-06-29T11:53:00 | 54.752652 | 7.190069 | 2.0 | 15.388 | 2 | 41.237 | 15.609 | 32.952 | 2 |
| 2025-06-29T11:54:00 | 54.754297 | 7.194261 | 2.0 | 15.338 | 2 | 41.188 | 15.552 | 32.956 | 2 |
| 2025-06-29T11:55:00 | 54.755920 | 7.198467 | 2.0 | 15.316 | 2 | 41.178 | 15.512 | 32.981 | 2 |
| 2025-06-29T11:56:00 | 54.757554 | 7.202641 | 2.0 | 15.237 | 2 | 41.166 | 15.469 | 33.006 | 2 |
| 2025-06-29T11:57:00 | 54.759167 | 7.206858 | 2.0 | 15.198 | 2 | 41.102 | 15.404 | 33.003 | 2 |
| 2025-06-29T11:58:00 | 54.760789 | 7.211062 | 2.0 | 15.168 | 2 | 41.062 | 15.367 | 32.998 | 2 |
| 2025-06-29T11:59:00 | 54.762434 | 7.215177 | 2.0 | 15.090 | 2 | 41.037 | 15.328 | 33.009 | 2 |
| 2025-06-29T12:00:00 | 54.764085 | 7.219276 | 2.0 | 15.081 | 2 | 40.969 | 15.258 | 33.007 | 2 |
| 2025-06-29T12:01:00 | 54.765694 | 7.223478 | 2.0 | 15.014 | 2 | 40.951 | 15.246 | 33.000 | 2 |
| 2025-06-29T12:02:00 | 54.767364 | 7.227597 | 2.0 | 14.828 | 2 | 40.886 | 15.160 | 33.014 | 2 |
| 2025-06-29T12:03:00 | 54.768999 | 7.231731 | 2.0 | 14.839 | 2 | 40.753 | 15.011 | 33.020 | 2 |
| 2025-06-29T12:04:00 | 54.770601 | 7.235918 | 2.0 | 14.866 | 2 | 40.747 | 15.019 | 33.008 | 2 |
| 2025-06-29T12:05:00 | 54.772238 | 7.240040 | 2.0 | 14.860 | 2 | 40.763 | 15.034 | 33.010 | 2 |
| 2025-06-29T12:06:00 | 54.773869 | 7.244154 | 2.0 | 14.880 | 2 | 40.762 | 15.032 | 33.011 | 2 |
| 2025-06-29T12:07:00 | 54.775468 | 7.248329 | 2.0 | 14.922 | 2 | 40.778 | 15.052 | 33.008 | 2 |
| 2025-06-29T12:08:00 | 54.777101 | 7.252427 | 2.0 | 14.980 | 2 | 40.812 | 15.103 | 32.996 | 2 |
| 2025-06-29T12:09:00 | 54.778726 | 7.256520 | 2.0 | 15.011 | 2 | 40.853 | 15.153 | 32.991 | 2 |
| 2025-06-29T12:10:00 | 54.780321 | 7.260631 | 2.0 | 15.030 | 2 | 40.878 | 15.172 | 32.997 | 2 |
| 2025-06-29T12:11:00 | 54.781903 | 7.264797 | 2.0 | 15.142 | 2 | 40.916 | 15.216 | 32.994 | 2 |
| 2025-06-29T12:12:00 | 54.783502 | 7.268896 | 2.0 | 15.175 | 2 | 40.992 | 15.310 | 32.983 | 2 |
| 2025-06-29T12:13:00 | 54.785128 | 7.272941 | 2.0 | 15.221 | 2 | 41.026 | 15.353 | 32.978 | 2 |
| 2025-06-29T12:14:00 | 54.786734 | 7.277001 | 2.0 | 15.223 | 2 | 41.038 | 15.369 | 32.975 | 2 |
| 2025-06-29T12:15:00 | 54.788316 | 7.281133 | 2.0 | 15.282 | 2 | 41.050 | 15.406 | 32.955 | 2 |
| 2025-06-29T12:16:00 | 54.789924 | 7.285266 | 2.0 | 15.375 | 2 | 41.084 | 15.457 | 32.943 | 2 |
| 2025-06-29T12:17:00 | 54.791514 | 7.289417 | 2.0 | 15.421 | 2 | 41.145 | 15.538 | 32.929 | 2 |
| 2025-06-29T12:18:00 | 54.793132 | 7.293510 | 2.0 | 15.446 | 2 | 41.189 | 15.589 | 32.926 | 2 |
| 2025-06-29T12:19:00 | 54.794734 | 7.297642 | 2.0 | 15.389 | 2 | 41.198 | 15.597 | 32.927 | 2 |
| 2025-06-29T12:20:00 | 54.796335 | 7.301769 | 2.0 | 15.334 | 2 | 41.159 | 15.555 | 32.928 | 2 |
| 2025-06-29T12:21:00 | 54.797958 | 7.305832 | 2.0 | 15.344 | 2 | 41.095 | 15.499 | 32.917 | 2 |
| 2025-06-29T12:22:00 | 54.799528 | 7.309991 | 2.0 | 15.381 | 2 | 41.105 | 15.519 | 32.909 | 2 |
| 2025-06-29T12:23:00 | 54.801136 | 7.314082 | 2.0 | 15.395 | 2 | 41.131 | 15.547 | 32.909 | 2 |
| 2025-06-29T12:24:00 | 54.802729 | 7.318214 | 2.0 | 15.422 | 2 | 41.139 | 15.560 | 32.906 | 2 |
| 2025-06-29T12:25:00 | 54.804325 | 7.322279 | 2.0 | 15.350 | 2 | 41.152 | 15.575 | 32.905 | 2 |
| 2025-06-29T12:26:00 | 54.805936 | 7.326275 | 2.0 | 15.370 | 2 | 41.076 | 15.512 | 32.889 | 2 |
| 2025-06-29T12:27:00 | 54.807507 | 7.330346 | 2.0 | 15.341 | 2 | 41.073 | 15.535 | 32.868 | 2 |
| 2025-06-29T12:28:00 | 54.809099 | 7.334409 | 2.0 | 15.300 | 2 | 41.036 | 15.500 | 32.864 | 2 |
| 2025-06-29T12:29:00 | 54.810692 | 7.338499 | 2.0 | 15.297 | 2 | 40.999 | 15.470 | 32.856 | 2 |
| 2025-06-29T12:30:00 | 54.812266 | 7.342605 | 2.0 | 15.519 | 2 | 40.994 | 15.476 | 32.846 | 2 |
| 2025-06-29T12:31:00 | 54.813822 | 7.346682 | 2.0 | 15.731 | 2 | 41.174 | 15.742 | 32.785 | 2 |
| 2025-06-29T12:32:00 | 54.815416 | 7.350657 | 2.0 | 15.731 | 2 | 41.286 | 15.888 | 32.764 | 2 |
| 2025-06-29T12:33:00 | 54.816973 | 7.354649 | 2.0 | 15.708 | 2 | 41.282 | 15.889 | 32.759 | 2 |
| 2025-06-29T12:34:00 | 54.818455 | 7.358756 | 2.0 | 15.627 | 2 | 41.235 | 15.846 | 32.753 | 2 |
| 2025-06-29T12:35:00 | 54.819952 | 7.362882 | 2.0 | 15.607 | 2 | 41.160 | 15.778 | 32.743 | 2 |
| 2025-06-29T12:36:00 | 54.821410 | 7.367116 | 2.0 | 15.617 | 2 | 41.140 | 15.773 | 32.729 | 2 |
| 2025-06-29T12:37:00 | 54.822934 | 7.371251 | 2.0 | 15.481 | 2 | 41.130 | 15.766 | 32.726 | 2 |
| 2025-06-29T12:38:00 | 54.824412 | 7.375451 | 2.0 | 15.472 | 2 | 41.019 | 15.657 | 32.718 | 2 |
| 2025-06-29T12:39:00 | 54.825851 | 7.379705 | 2.0 | 15.430 | 2 | 40.982 | 15.627 | 32.710 | 2 |
| 2025-06-29T12:40:00 | 54.827340 | 7.383887 | 2.0 | 15.476 | 2 | 40.958 | 15.610 | 32.703 | 2 |
| 2025-06-29T12:41:00 | 54.828763 | 7.388120 | 2.0 | 15.504 | 2 | 40.991 | 15.649 | 32.700 | 2 |
| 2025-06-29T12:42:00 | 54.830099 | 7.391818 | 2.0 | 15.420 | 2 | 41.010 | 15.666 | 32.702 | 2 |
| 2025-06-29T12:43:00 | 54.831213 | 7.394894 | 2.0 | 15.465 | 2 | 40.936 | 15.591 | 32.699 | 2 |
| 2025-06-29T12:44:00 | 54.831815 | 7.397676 | 2.0 | 15.542 | 2 | 40.965 | 15.634 | 32.689 | 2 |
| 2025-06-29T12:45:00 | 54.832246 | 7.400070 | 2.0 | 15.927 | 2 | 41.076 | 15.788 | 32.660 | 2 |
| 2025-06-29T12:46:00 | 54.832721 | 7.401137 | 2.0 | 15.972 | 2 | 41.310 | 16.078 | 32.628 | 2 |
| 2025-06-29T12:47:00 | 54.832917 | 7.401292 | 2.0 | 15.970 | 2 | 41.358 | 16.123 | 32.633 | 2 |
| 2025-06-29T12:48:00 | 54.832873 | 7.401103 | 2.0 | 15.953 | 2 | 41.360 | 16.123 | 32.635 | 2 |
| 2025-06-29T12:49:00 | 54.832824 | 7.400906 | 2.0 | 15.952 | 2 | 41.352 | 16.111 | 32.638 | 2 |
| 2025-06-29T12:50:00 | 54.832809 | 7.400792 | 2.0 | 15.940 | 2 | 41.351 | 16.107 | 32.640 | 2 |
| 2025-06-29T12:51:00 | 54.832811 | 7.400677 | 2.0 | 15.935 | 2 | 41.344 | 16.099 | 32.641 | 2 |
| 2025-06-29T12:52:00 | 54.832799 | 7.400535 | 2.0 | 15.924 | 2 | 41.342 | 16.094 | 32.643 | 2 |
| 2025-06-29T12:53:00 | 54.832776 | 7.400420 | 2.0 | 15.909 | 2 | 41.334 | 16.080 | 32.648 | 2 |
| 2025-06-29T12:54:00 | 54.832774 | 7.400379 | 2.0 | 15.904 | 2 | 41.323 | 16.066 | 32.649 | 2 |
| 2025-06-29T12:55:00 | 54.832776 | 7.400375 | 2.0 | 15.891 | 2 | 41.322 | 16.064 | 32.650 | 2 |
| 2025-06-29T12:56:00 | 54.832816 | 7.400220 | 2.0 | 15.742 | 2 | 41.305 | 16.037 | 32.657 | 2 |
| 2025-06-29T12:57:00 | 54.832863 | 7.399260 | 2.0 | 15.571 | 2 | 41.192 | 15.884 | 32.684 | 2 |
| 2025-06-29T12:58:00 | 54.833008 | 7.397673 | 2.0 | 15.482 | 2 | 41.062 | 15.726 | 32.699 | 2 |
| 2025-06-29T12:59:00 | 54.833211 | 7.395704 | 2.0 | 15.464 | 2 | 40.992 | 15.649 | 32.700 | 2 |
| 2025-06-29T13:00:00 | 54.833573 | 7.392878 | 2.0 | 15.451 | 2 | 40.972 | 15.630 | 32.698 | 2 |
| 2025-06-29T13:01:00 | 54.834110 | 7.389044 | 2.0 | 15.459 | 2 | 40.961 | 15.615 | 32.701 | 2 |
| 2025-06-29T13:02:00 | 54.834760 | 7.384420 | 2.0 | 15.475 | 2 | 40.979 | 15.632 | 32.703 | 2 |
| 2025-06-29T13:03:00 | 54.835333 | 7.379552 | 2.0 | 15.462 | 2 | 40.994 | 15.641 | 32.709 | 2 |
| 2025-06-29T13:04:00 | 54.835868 | 7.374567 | 2.0 | 15.448 | 2 | 40.980 | 15.620 | 32.714 | 2 |
| 2025-06-29T13:05:00 | 54.836429 | 7.369671 | 2.0 | 15.439 | 2 | 40.976 | 15.612 | 32.717 | 2 |
| 2025-06-29T13:06:00 | 54.836962 | 7.364736 | 2.0 | 15.518 | 2 | 40.979 | 15.613 | 32.719 | 2 |
| 2025-06-29T13:07:00 | 54.837505 | 7.359739 | 2.0 | 15.516 | 2 | 41.064 | 15.693 | 32.728 | 2 |
| 2025-06-29T13:08:00 | 54.838083 | 7.354849 | 2.0 | 15.473 | 2 | 41.065 | 15.677 | 32.742 | 2 |
| 2025-06-29T13:09:00 | 54.838600 | 7.350859 | 2.0 | 15.385 | 2 | 41.020 | 15.623 | 32.747 | 2 |
| 2025-06-29T13:10:00 | 54.838982 | 7.347762 | 2.0 | 15.361 | 2 | 40.948 | 15.553 | 32.741 | 2 |
| 2025-06-29T13:11:00 | 54.839204 | 7.345408 | 2.0 | 15.359 | 2 | 40.936 | 15.536 | 32.744 | 2 |
| 2025-06-29T13:12:00 | 54.839432 | 7.343701 | 2.0 | 15.350 | 2 | 40.928 | 15.522 | 32.749 | 2 |
| 2025-06-29T13:13:00 | 54.839535 | 7.342488 | 2.0 | 15.377 | 2 | 40.930 | 15.520 | 32.752 | 2 |
| 2025-06-29T13:14:00 | 54.839585 | 7.341497 | 2.0 | 15.362 | 2 | 40.956 | 15.540 | 32.759 | 2 |
| 2025-06-29T13:15:00 | 54.839565 | 7.340684 | 2.0 | 15.347 | 2 | 40.949 | 15.526 | 32.764 | 2 |
| 2025-06-29T13:16:00 | 54.839547 | 7.340001 | 2.0 | 15.383 | 2 | 40.944 | 15.520 | 32.765 | 2 |
| 2025-06-29T13:17:00 | 54.839536 | 7.339332 | 2.0 | 15.390 | 2 | 40.977 | 15.548 | 32.771 | 2 |
| 2025-06-29T13:18:00 | 54.839565 | 7.338630 | 2.0 | 15.418 | 2 | 40.997 | 15.557 | 32.781 | 2 |
| 2025-06-29T13:19:00 | 54.839573 | 7.338000 | 2.0 | 15.457 | 2 | 41.027 | 15.586 | 32.784 | 2 |
| 2025-06-29T13:20:00 | 54.839591 | 7.337401 | 2.0 | 15.488 | 2 | 41.065 | 15.625 | 32.785 | 2 |
| 2025-06-29T13:21:00 | 54.839586 | 7.336754 | 2.0 | 15.569 | 2 | 41.099 | 15.656 | 32.790 | 2 |
| 2025-06-29T13:22:00 | 54.839590 | 7.336128 | 2.0 | 15.580 | 2 | 41.166 | 15.733 | 32.786 | 2 |
| 2025-06-29T13:23:00 | 54.839514 | 7.335632 | 2.0 | 15.629 | 2 | 41.184 | 15.748 | 32.789 | 2 |
| 2025-06-29T13:24:00 | 54.839399 | 7.335367 | 2.0 | 15.618 | 2 | 41.218 | 15.783 | 32.790 | 2 |
| 2025-06-29T13:25:00 | 54.839308 | 7.335178 | 2.0 | 15.636 | 2 | 41.220 | 15.785 | 32.790 | 2 |
| 2025-06-29T13:26:00 | 54.839209 | 7.334987 | 2.0 | 15.666 | 2 | 41.236 | 15.802 | 32.791 | 2 |
| 2025-06-29T13:27:00 | 54.839067 | 7.334807 | 2.0 | 15.683 | 2 | 41.262 | 15.829 | 32.791 | 2 |
| 2025-06-29T13:28:00 | 54.838914 | 7.334681 | 2.0 | 15.685 | 2 | 41.280 | 15.844 | 32.795 | 2 |
| 2025-06-29T13:29:00 | 54.838774 | 7.334613 | 2.0 | 15.688 | 2 | 41.285 | 15.848 | 32.796 | 2 |
| 2025-06-29T13:30:00 | 54.838666 | 7.334628 | 2.0 | 15.694 | 2 | 41.290 | 15.852 | 32.797 | 2 |
| 2025-06-29T13:31:00 | 54.838570 | 7.334628 | 2.0 | 15.693 | 2 | 41.294 | 15.856 | 32.797 | 2 |
| 2025-06-29T13:32:00 | 54.838456 | 7.334622 | 2.0 | 15.700 | 2 | 41.296 | 15.857 | 32.798 | 2 |
| 2025-06-29T13:33:00 | 54.838325 | 7.334649 | 2.0 | 15.695 | 2 | 41.301 | 15.861 | 32.799 | 2 |
| 2025-06-29T13:34:00 | 54.838223 | 7.334710 | 2.0 | 15.696 | 2 | 41.298 | 15.858 | 32.799 | 2 |
| 2025-06-29T13:35:00 | 54.838109 | 7.334840 | 2.0 | 15.679 | 2 | 41.297 | 15.856 | 32.800 | 2 |
| 2025-06-29T13:36:00 | 54.837971 | 7.335144 | 2.0 | 15.635 | 2 | 41.280 | 15.833 | 32.804 | 2 |
| 2025-06-29T13:37:00 | 54.837830 | 7.335454 | 2.0 | 15.625 | 2 | 41.252 | 15.803 | 32.804 | 2 |
| 2025-06-29T13:38:00 | 54.837733 | 7.335742 | 2.0 | 15.536 | 2 | 41.229 | 15.764 | 32.816 | 2 |
| 2025-06-29T13:39:00 | 54.837668 | 7.335985 | 2.0 | 15.600 | 2 | 41.192 | 15.732 | 32.810 | 2 |
| 2025-06-29T13:40:00 | 54.837619 | 7.336102 | 2.0 | 15.536 | 2 | 41.205 | 15.746 | 32.809 | 2 |
| 2025-06-29T13:41:00 | 54.837551 | 7.336109 | 2.0 | 15.557 | 2 | 41.172 | 15.704 | 32.815 | 2 |
| 2025-06-29T13:42:00 | 54.837486 | 7.336074 | 2.0 | 15.584 | 2 | 41.184 | 15.725 | 32.808 | 2 |
| 2025-06-29T13:43:00 | 54.837424 | 7.336018 | 2.0 | 15.651 | 2 | 41.213 | 15.766 | 32.800 | 2 |
| 2025-06-29T13:44:00 | 54.837347 | 7.336024 | 2.0 | 15.643 | 2 | 41.252 | 15.812 | 32.796 | 2 |
| 2025-06-29T13:45:00 | 54.837312 | 7.336102 | 2.0 | 15.585 | 2 | 41.236 | 15.786 | 32.804 | 2 |
| 2025-06-29T13:46:00 | 54.837313 | 7.336161 | 2.0 | 15.549 | 2 | 41.204 | 15.745 | 32.809 | 2 |
| 2025-06-29T13:47:00 | 54.837343 | 7.336176 | 2.0 | 15.540 | 2 | 41.180 | 15.716 | 32.812 | 2 |
| 2025-06-29T13:48:00 | 54.837382 | 7.336204 | 2.0 | 15.538 | 2 | 41.170 | 15.705 | 32.812 | 2 |
| 2025-06-29T13:49:00 | 54.837410 | 7.336208 | 2.0 | 15.515 | 2 | 41.167 | 15.701 | 32.813 | 2 |
| 2025-06-29T13:50:00 | 54.837475 | 7.336309 | 2.0 | 15.496 | 2 | 41.154 | 15.681 | 32.818 | 2 |
| 2025-06-29T13:51:00 | 54.837562 | 7.336441 | 2.0 | 15.510 | 2 | 41.140 | 15.661 | 32.822 | 2 |
| 2025-06-29T13:52:00 | 54.837655 | 7.336520 | 2.0 | 15.560 | 2 | 41.148 | 15.675 | 32.818 | 2 |
| 2025-06-29T13:53:00 | 54.837724 | 7.336578 | 2.0 | 15.638 | 2 | 41.191 | 15.741 | 32.801 | 2 |
| 2025-06-29T13:54:00 | 54.837781 | 7.336508 | 2.0 | 15.620 | 2 | 41.234 | 15.793 | 32.796 | 2 |
| 2025-06-29T13:55:00 | 54.837842 | 7.336408 | 2.0 | 15.630 | 2 | 41.229 | 15.784 | 32.799 | 2 |
| 2025-06-29T13:56:00 | 54.837911 | 7.336437 | 2.0 | 15.646 | 2 | 41.234 | 15.796 | 32.794 | 2 |
| 2025-06-29T13:57:00 | 54.837962 | 7.336461 | 2.0 | 15.643 | 2 | 41.245 | 15.807 | 32.794 | 2 |
| 2025-06-29T13:58:00 | 54.837980 | 7.336390 | 2.0 | 15.547 | 2 | 41.239 | 15.797 | 32.797 | 2 |
| 2025-06-29T13:59:00 | 54.838007 | 7.336392 | 2.0 | 15.624 | 2 | 41.175 | 15.709 | 32.814 | 2 |
| 2025-06-29T14:00:00 | 54.838065 | 7.336506 | 2.0 | 15.643 | 2 | 41.216 | 15.781 | 32.790 | 2 |
| 2025-06-29T14:01:00 | 54.838144 | 7.336521 | 2.0 | 15.653 | 2 | 41.243 | 15.807 | 32.793 | 2 |
| 2025-06-29T14:02:00 | 54.838225 | 7.336469 | 2.0 | 15.655 | 2 | 41.252 | 15.814 | 32.795 | 2 |
| 2025-06-29T14:03:00 | 54.838343 | 7.336390 | 2.0 | 15.648 | 2 | 41.255 | 15.817 | 32.795 | 2 |
| 2025-06-29T14:04:00 | 54.838465 | 7.336256 | 2.0 | 15.642 | 2 | 41.246 | 15.808 | 32.794 | 2 |
| 2025-06-29T14:05:00 | 54.838586 | 7.336095 | 2.0 | 15.646 | 2 | 41.242 | 15.806 | 32.793 | 2 |
| 2025-06-29T14:06:00 | 54.838687 | 7.335951 | 2.0 | 15.633 | 2 | 41.241 | 15.803 | 32.794 | 2 |
| 2025-06-29T14:07:00 | 54.838755 | 7.335899 | 2.0 | 15.639 | 2 | 41.237 | 15.800 | 32.793 | 2 |
| 2025-06-29T14:08:00 | 54.838813 | 7.335943 | 2.0 | 15.630 | 2 | 41.238 | 15.801 | 32.793 | 2 |
| 2025-06-29T14:09:00 | 54.838841 | 7.335975 | 2.0 | 15.610 | 2 | 41.231 | 15.790 | 32.796 | 2 |
| 2025-06-29T14:10:00 | 54.838893 | 7.335919 | 2.0 | 15.586 | 2 | 41.216 | 15.773 | 32.797 | 2 |
| 2025-06-29T14:11:00 | 54.838951 | 7.335857 | 2.0 | 15.593 | 2 | 41.205 | 15.756 | 32.801 | 2 |
| 2025-06-29T14:12:00 | 54.839011 | 7.335784 | 2.0 | 15.611 | 2 | 41.205 | 15.757 | 32.800 | 2 |
| 2025-06-29T14:13:00 | 54.839093 | 7.335744 | 2.0 | 15.625 | 2 | 41.218 | 15.778 | 32.794 | 2 |
| 2025-06-29T14:14:00 | 54.839194 | 7.335682 | 2.0 | 15.624 | 2 | 41.227 | 15.788 | 32.794 | 2 |
| 2025-06-29T14:15:00 | 54.839278 | 7.335638 | 2.0 | 15.625 | 2 | 41.225 | 15.786 | 32.794 | 2 |
| 2025-06-29T14:16:00 | 54.839362 | 7.335504 | 2.0 | 15.640 | 2 | 41.228 | 15.791 | 32.793 | 2 |
| 2025-06-29T14:17:00 | 54.839426 | 7.335375 | 2.0 | 15.560 | 2 | 41.237 | 15.800 | 32.793 | 2 |
| 2025-06-29T14:18:00 | 54.839491 | 7.335214 | 2.0 | 15.376 | 2 | 41.166 | 15.681 | 32.829 | 2 |
| 2025-06-29T14:19:00 | 54.839534 | 7.335082 | 2.0 | 15.444 | 2 | 41.084 | 15.585 | 32.836 | 2 |
| 2025-06-29T14:20:00 | 54.839603 | 7.334944 | 2.0 | 15.428 | 2 | 41.090 | 15.591 | 32.836 | 2 |
| 2025-06-29T14:21:00 | 54.839693 | 7.334760 | 2.0 | 15.425 | 2 | 41.092 | 15.606 | 32.825 | 2 |
| 2025-06-29T14:22:00 | 54.839795 | 7.334562 | 2.0 | 15.466 | 2 | 41.085 | 15.599 | 32.825 | 2 |
| 2025-06-29T14:23:00 | 54.839896 | 7.334359 | 2.0 | 15.411 | 2 | 41.101 | 15.602 | 32.837 | 2 |
| 2025-06-29T14:24:00 | 54.839996 | 7.334109 | 2.0 | 15.556 | 2 | 41.095 | 15.612 | 32.823 | 2 |
| 2025-06-29T14:25:00 | 54.840109 | 7.333811 | 2.0 | 15.590 | 2 | 41.171 | 15.717 | 32.803 | 2 |
| 2025-06-29T14:26:00 | 54.840236 | 7.333464 | 2.0 | 15.607 | 2 | 41.198 | 15.750 | 32.800 | 2 |
| 2025-06-29T14:27:00 | 54.840361 | 7.333095 | 2.0 | 15.611 | 2 | 41.214 | 15.761 | 32.805 | 2 |
| 2025-06-29T14:28:00 | 54.840481 | 7.332721 | 2.0 | 15.653 | 2 | 41.231 | 15.784 | 32.801 | 2 |
| 2025-06-29T14:29:00 | 54.840621 | 7.332331 | 2.0 | 15.665 | 2 | 41.262 | 15.814 | 32.804 | 2 |
| 2025-06-29T14:30:00 | 54.840750 | 7.331964 | 2.0 | 15.671 | 2 | 41.275 | 15.826 | 32.805 | 2 |
| 2025-06-29T14:31:00 | 54.840857 | 7.331668 | 2.0 | 15.641 | 2 | 41.281 | 15.828 | 32.809 | 2 |
| 2025-06-29T14:32:00 | 54.840972 | 7.331397 | 2.0 | 15.627 | 2 | 41.261 | 15.797 | 32.817 | 2 |
| 2025-06-29T14:33:00 | 54.841091 | 7.331158 | 2.0 | 15.691 | 2 | 41.266 | 15.806 | 32.814 | 2 |
| 2025-06-29T14:34:00 | 54.841192 | 7.330981 | 2.0 | 15.678 | 2 | 41.306 | 15.852 | 32.811 | 2 |
| 2025-06-29T14:35:00 | 54.841281 | 7.330797 | 2.0 | 15.643 | 2 | 41.296 | 15.835 | 32.816 | 2 |
| 2025-06-29T14:36:00 | 54.841347 | 7.330647 | 2.0 | 15.646 | 2 | 41.274 | 15.805 | 32.822 | 2 |
| 2025-06-29T14:37:00 | 54.841416 | 7.330482 | 2.0 | 15.625 | 2 | 41.273 | 15.804 | 32.822 | 2 |
| 2025-06-29T14:38:00 | 54.841488 | 7.330317 | 2.0 | 15.632 | 2 | 41.265 | 15.791 | 32.825 | 2 |
| 2025-06-29T14:39:00 | 54.841541 | 7.330211 | 2.0 | 15.651 | 2 | 41.271 | 15.802 | 32.822 | 2 |
| 2025-06-29T14:40:00 | 54.841580 | 7.330156 | 2.0 | 15.661 | 2 | 41.282 | 15.817 | 32.819 | 2 |
| 2025-06-29T14:41:00 | 54.841591 | 7.330076 | 2.0 | 15.594 | 2 | 41.277 | 15.799 | 32.829 | 2 |
| 2025-06-29T14:42:00 | 54.841572 | 7.330042 | 2.0 | 15.600 | 2 | 41.250 | 15.754 | 32.843 | 2 |
| 2025-06-29T14:43:00 | 54.841546 | 7.330075 | 2.0 | 15.678 | 2 | 41.260 | 15.780 | 32.830 | 2 |
| 2025-06-29T14:44:00 | 54.841524 | 7.330188 | 2.0 | 15.656 | 2 | 41.297 | 15.837 | 32.816 | 2 |
| 2025-06-29T14:45:00 | 54.841469 | 7.330386 | 2.0 | 15.559 | 2 | 41.275 | 15.790 | 32.835 | 2 |
| 2025-06-29T14:46:00 | 54.841412 | 7.330589 | 2.0 | 15.608 | 2 | 41.238 | 15.750 | 32.835 | 2 |
| 2025-06-29T14:47:00 | 54.841343 | 7.330725 | 2.0 | 15.620 | 2 | 41.245 | 15.773 | 32.823 | 2 |
| 2025-06-29T14:48:00 | 54.841289 | 7.330830 | 2.0 | 15.633 | 2 | 41.253 | 15.785 | 32.820 | 2 |
| 2025-06-29T14:49:00 | 54.841258 | 7.330909 | 2.0 | 15.645 | 2 | 41.259 | 15.794 | 32.818 | 2 |
| 2025-06-29T14:50:00 | 54.841276 | 7.330908 | 2.0 | 15.601 | 2 | 41.265 | 15.803 | 32.815 | 2 |
| 2025-06-29T14:51:00 | 54.841324 | 7.330754 | 2.0 | 15.542 | 2 | 41.232 | 15.738 | 32.840 | 2 |
| 2025-06-29T14:52:00 | 54.841384 | 7.330541 | 2.0 | 15.578 | 2 | 41.215 | 15.722 | 32.838 | 2 |
| 2025-06-29T14:53:00 | 54.841427 | 7.330269 | 2.0 | 15.665 | 2 | 41.240 | 15.761 | 32.828 | 2 |
| 2025-06-29T14:54:00 | 54.841488 | 7.329958 | 2.0 | 15.698 | 2 | 41.287 | 15.833 | 32.810 | 2 |
| 2025-06-29T14:55:00 | 54.841578 | 7.329632 | 2.0 | 15.698 | 2 | 41.307 | 15.857 | 32.808 | 2 |
| 2025-06-29T14:56:00 | 54.841694 | 7.329272 | 2.0 | 15.699 | 2 | 41.309 | 15.860 | 32.807 | 2 |
| 2025-06-29T14:57:00 | 54.841797 | 7.328878 | 2.0 | 15.705 | 2 | 41.312 | 15.861 | 32.809 | 2 |
| 2025-06-29T14:58:00 | 54.841852 | 7.328550 | 2.0 | 15.713 | 2 | 41.321 | 15.867 | 32.812 | 2 |
| 2025-06-29T14:59:00 | 54.841896 | 7.328212 | 2.0 | 15.720 | 2 | 41.329 | 15.877 | 32.811 | 2 |
| 2025-06-29T15:00:00 | 54.841981 | 7.327845 | 2.0 | 15.731 | 2 | 41.335 | 15.884 | 32.810 | 2 |
| 2025-06-29T15:01:00 | 54.842111 | 7.327465 | 2.0 | 15.739 | 2 | 41.349 | 15.896 | 32.813 | 2 |
| 2025-06-29T15:02:00 | 54.842233 | 7.327087 | 2.0 | 15.742 | 2 | 41.360 | 15.900 | 32.819 | 2 |
| 2025-06-29T15:03:00 | 54.842340 | 7.326736 | 2.0 | 15.760 | 2 | 41.368 | 15.905 | 32.822 | 2 |
| 2025-06-29T15:04:00 | 54.842438 | 7.326350 | 2.0 | 15.755 | 2 | 41.383 | 15.919 | 32.824 | 2 |
| 2025-06-29T15:05:00 | 54.842490 | 7.325970 | 2.0 | 15.755 | 2 | 41.384 | 15.917 | 32.826 | 2 |
| 2025-06-29T15:06:00 | 54.842495 | 7.325645 | 2.0 | 15.757 | 2 | 41.390 | 15.920 | 32.829 | 2 |
| 2025-06-29T15:07:00 | 54.842538 | 7.325263 | 2.0 | 15.754 | 2 | 41.391 | 15.915 | 32.834 | 2 |
| 2025-06-29T15:08:00 | 54.842571 | 7.324955 | 2.0 | 15.755 | 2 | 41.399 | 15.920 | 32.837 | 2 |
| 2025-06-29T15:09:00 | 54.842581 | 7.324709 | 2.0 | 15.747 | 2 | 41.397 | 15.915 | 32.840 | 2 |
| 2025-06-29T15:10:00 | 54.842579 | 7.324499 | 2.0 | 15.753 | 2 | 41.394 | 15.912 | 32.839 | 2 |
| 2025-06-29T15:11:00 | 54.842557 | 7.324399 | 2.0 | 15.758 | 2 | 41.398 | 15.918 | 32.838 | 2 |
| 2025-06-29T15:12:00 | 54.842531 | 7.324296 | 2.0 | 15.762 | 2 | 41.401 | 15.922 | 32.837 | 2 |
| 2025-06-29T15:13:00 | 54.842517 | 7.324091 | 2.0 | 15.721 | 2 | 41.396 | 15.916 | 32.838 | 2 |
| 2025-06-29T15:14:00 | 54.842549 | 7.323875 | 2.0 | 15.734 | 2 | 41.375 | 15.887 | 32.843 | 2 |
| 2025-06-29T15:15:00 | 54.842616 | 7.323563 | 2.0 | 15.765 | 2 | 41.383 | 15.903 | 32.837 | 2 |
| 2025-06-29T15:16:00 | 54.842694 | 7.323189 | 2.0 | 15.789 | 2 | 41.409 | 15.934 | 32.834 | 2 |
| 2025-06-29T15:17:00 | 54.842773 | 7.322809 | 2.0 | 15.755 | 2 | 41.426 | 15.949 | 32.837 | 2 |
| 2025-06-29T15:18:00 | 54.842866 | 7.322394 | 2.0 | 15.354 | 2 | 41.334 | 15.808 | 32.873 | 2 |
| 2025-06-29T15:19:00 | 54.842985 | 7.321992 | 2.0 | 15.294 | 2 | 41.102 | 15.525 | 32.902 | 2 |
| 2025-06-29T15:20:00 | 54.843112 | 7.321631 | 2.0 | 15.251 | 2 | 41.033 | 15.456 | 32.898 | 2 |
| 2025-06-29T15:21:00 | 54.843207 | 7.321339 | 2.0 | 15.255 | 2 | 41.004 | 15.426 | 32.897 | 2 |
| 2025-06-29T15:22:00 | 54.843258 | 7.321137 | 2.0 | 15.255 | 2 | 41.002 | 15.425 | 32.896 | 2 |
| 2025-06-29T15:23:00 | 54.843287 | 7.321021 | 2.0 | 15.253 | 2 | 40.999 | 15.422 | 32.896 | 2 |
| 2025-06-29T15:24:00 | 54.843302 | 7.320825 | 2.0 | 15.258 | 2 | 40.997 | 15.421 | 32.895 | 2 |
| 2025-06-29T15:25:00 | 54.843331 | 7.320620 | 2.0 | 15.258 | 2 | 41.002 | 15.426 | 32.895 | 2 |
| 2025-06-29T15:26:00 | 54.843418 | 7.320336 | 2.0 | 15.256 | 2 | 41.000 | 15.424 | 32.895 | 2 |
| 2025-06-29T15:27:00 | 54.843551 | 7.320015 | 2.0 | 15.257 | 2 | 40.998 | 15.422 | 32.895 | 2 |
| 2025-06-29T15:28:00 | 54.843655 | 7.319693 | 2.0 | 15.264 | 2 | 41.000 | 15.427 | 32.893 | 2 |
| 2025-06-29T15:29:00 | 54.843735 | 7.319410 | 2.0 | 15.255 | 2 | 41.002 | 15.426 | 32.895 | 2 |
| 2025-06-29T15:30:00 | 54.843865 | 7.319110 | 2.0 | 15.262 | 2 | 40.996 | 15.421 | 32.894 | 2 |
| 2025-06-29T15:31:00 | 54.843979 | 7.318803 | 2.0 | 15.270 | 2 | 41.003 | 15.430 | 32.893 | 2 |
| 2025-06-29T15:32:00 | 54.844050 | 7.318471 | 2.0 | 15.277 | 2 | 41.010 | 15.437 | 32.893 | 2 |
| 2025-06-29T15:33:00 | 54.844139 | 7.318177 | 2.0 | 15.275 | 2 | 41.015 | 15.441 | 32.894 | 2 |
| 2025-06-29T15:34:00 | 54.844242 | 7.317860 | 2.0 | 15.274 | 2 | 41.014 | 15.440 | 32.894 | 2 |
| 2025-06-29T15:35:00 | 54.844350 | 7.317516 | 2.0 | 15.275 | 2 | 41.013 | 15.439 | 32.894 | 2 |
| 2025-06-29T15:36:00 | 54.844474 | 7.317149 | 2.0 | 15.280 | 2 | 41.014 | 15.440 | 32.894 | 2 |
| 2025-06-29T15:37:00 | 54.844594 | 7.316731 | 2.0 | 15.287 | 2 | 41.020 | 15.446 | 32.895 | 2 |
| 2025-06-29T15:38:00 | 54.844745 | 7.316282 | 2.0 | 15.306 | 2 | 41.027 | 15.454 | 32.894 | 2 |
| 2025-06-29T15:39:00 | 54.844925 | 7.315813 | 2.0 | 15.314 | 2 | 41.048 | 15.471 | 32.899 | 2 |
| 2025-06-29T15:40:00 | 54.845098 | 7.315344 | 2.0 | 15.309 | 2 | 41.059 | 15.478 | 32.903 | 2 |
| 2025-06-29T15:41:00 | 54.845250 | 7.314950 | 2.0 | 15.318 | 2 | 41.059 | 15.476 | 32.904 | 2 |
| 2025-06-29T15:42:00 | 54.845387 | 7.314607 | 2.0 | 15.321 | 2 | 41.067 | 15.482 | 32.906 | 2 |
| 2025-06-29T15:43:00 | 54.845520 | 7.314249 | 2.0 | 15.322 | 2 | 41.071 | 15.485 | 32.908 | 2 |
| 2025-06-29T15:44:00 | 54.845619 | 7.313906 | 2.0 | 15.320 | 2 | 41.073 | 15.486 | 32.908 | 2 |
| 2025-06-29T15:45:00 | 54.845736 | 7.313601 | 2.0 | 15.319 | 2 | 41.071 | 15.483 | 32.909 | 2 |
| 2025-06-29T15:46:00 | 54.845865 | 7.313405 | 2.0 | 15.323 | 2 | 41.072 | 15.484 | 32.909 | 2 |
| 2025-06-29T15:47:00 | 54.845975 | 7.313231 | 2.0 | 15.333 | 2 | 41.077 | 15.490 | 32.909 | 2 |
| 2025-06-29T15:48:00 | 54.846018 | 7.313110 | 2.0 | 15.335 | 2 | 41.083 | 15.496 | 32.909 | 2 |
| 2025-06-29T15:49:00 | 54.846019 | 7.312940 | 2.0 | 15.341 | 2 | 41.087 | 15.499 | 32.910 | 2 |
| 2025-06-29T15:50:00 | 54.846086 | 7.312573 | 2.0 | 15.345 | 2 | 41.095 | 15.505 | 32.912 | 2 |
| 2025-06-29T15:51:00 | 54.846289 | 7.311970 | 2.0 | 15.320 | 2 | 41.097 | 15.505 | 32.914 | 2 |
| 2025-06-29T15:52:00 | 54.846536 | 7.311320 | 2.0 | 15.338 | 2 | 41.079 | 15.487 | 32.913 | 2 |
| 2025-06-29T15:53:00 | 54.846711 | 7.310767 | 2.0 | 15.346 | 2 | 41.102 | 15.507 | 32.917 | 2 |
| 2025-06-29T15:54:00 | 54.846908 | 7.310203 | 2.0 | 15.290 | 2 | 41.098 | 15.498 | 32.921 | 2 |
| 2025-06-29T15:55:00 | 54.847113 | 7.309658 | 2.0 | 15.261 | 2 | 41.052 | 15.455 | 32.916 | 2 |
| 2025-06-29T15:56:00 | 54.847306 | 7.309140 | 2.0 | 15.281 | 2 | 41.022 | 15.429 | 32.911 | 2 |
| 2025-06-29T15:57:00 | 54.847502 | 7.308629 | 2.0 | 15.318 | 2 | 41.043 | 15.454 | 32.908 | 2 |
| 2025-06-29T15:58:00 | 54.847686 | 7.308127 | 2.0 | 15.290 | 2 | 41.066 | 15.471 | 32.915 | 2 |
| 2025-06-29T15:59:00 | 54.847840 | 7.307669 | 2.0 | 15.293 | 2 | 41.051 | 15.456 | 32.914 | 2 |
| 2025-06-29T16:00:00 | 54.847997 | 7.307186 | 2.0 | 15.304 | 2 | 41.055 | 15.460 | 32.914 | 2 |
| 2025-06-29T16:01:00 | 54.848174 | 7.306687 | 2.0 | 15.310 | 2 | 41.064 | 15.468 | 32.915 | 2 |
| 2025-06-29T16:02:00 | 54.848376 | 7.306125 | 2.0 | 15.305 | 2 | 41.069 | 15.473 | 32.916 | 2 |
| 2025-06-29T16:03:00 | 54.848575 | 7.305538 | 2.0 | 15.292 | 2 | 41.063 | 15.468 | 32.915 | 2 |
| 2025-06-29T16:04:00 | 54.848807 | 7.304962 | 2.0 | 15.294 | 2 | 41.051 | 15.455 | 32.915 | 2 |
| 2025-06-29T16:05:00 | 54.849013 | 7.304434 | 2.0 | 15.307 | 2 | 41.055 | 15.461 | 32.913 | 2 |
| 2025-06-29T16:06:00 | 54.849216 | 7.303877 | 2.0 | 15.324 | 2 | 41.069 | 15.473 | 32.916 | 2 |
| 2025-06-29T16:07:00 | 54.849365 | 7.303424 | 2.0 | 15.335 | 2 | 41.087 | 15.488 | 32.919 | 2 |
| 2025-06-29T16:08:00 | 54.849522 | 7.302970 | 2.0 | 15.343 | 2 | 41.101 | 15.499 | 32.923 | 2 |
| 2025-06-29T16:09:00 | 54.849674 | 7.302567 | 2.0 | 15.349 | 2 | 41.111 | 15.508 | 32.924 | 2 |
| 2025-06-29T16:10:00 | 54.849801 | 7.302149 | 2.0 | 15.350 | 2 | 41.116 | 15.511 | 32.926 | 2 |
| 2025-06-29T16:11:00 | 54.849923 | 7.301755 | 2.0 | 15.358 | 2 | 41.122 | 15.515 | 32.928 | 2 |
| 2025-06-29T16:12:00 | 54.850062 | 7.301350 | 2.0 | 15.358 | 2 | 41.129 | 15.521 | 32.929 | 2 |
| 2025-06-29T16:13:00 | 54.850190 | 7.300963 | 2.0 | 15.371 | 2 | 41.130 | 15.523 | 32.928 | 2 |
| 2025-06-29T16:14:00 | 54.850322 | 7.300552 | 2.0 | 15.366 | 2 | 40.766 | 15.533 | 32.595 | 2 |
| 2025-06-29T16:15:00 | 54.850462 | 7.300134 | 2.0 | 15.355 | 2 | 41.106 | 15.526 | 32.905 | 2 |
| 2025-06-29T16:16:00 | 54.850580 | 7.299707 | 2.0 | 15.349 | 2 | 40.821 | 15.520 | 32.655 | 2 |
| 2025-06-29T16:17:00 | 54.850695 | 7.299279 | 2.0 | 15.362 | 2 | 41.110 | 15.514 | 32.918 | 2 |
| 2025-06-29T16:18:00 | 54.850809 | 7.298904 | 2.0 | 15.369 | 2 | 40.997 | 15.529 | 32.805 | 2 |
| 2025-06-29T16:19:00 | 54.850912 | 7.298562 | 2.0 | 15.356 | 2 | 41.051 | 15.530 | 32.852 | 2 |
| 2025-06-29T16:20:00 | 54.851009 | 7.298237 | 2.0 | 15.353 | 2 | 41.054 | 15.520 | 32.863 | 2 |
| 2025-06-29T16:21:00 | 54.851110 | 7.297910 | 2.0 | 15.350 | 2 | 40.924 | 15.517 | 32.749 | 2 |
| 2025-06-29T16:22:00 | 54.851224 | 7.297580 | 2.0 | 15.340 | 2 | 41.095 | 15.512 | 32.906 | 2 |
| 2025-06-29T16:23:00 | 54.851308 | 7.297277 | 2.0 | 15.339 | 2 | 40.899 | 15.504 | 32.738 | 2 |
| 2025-06-29T16:24:00 | 54.851369 | 7.297014 | 2.0 | 15.332 | 2 | 40.909 | 15.503 | 32.748 | 2 |
| 2025-06-29T16:25:00 | 54.851417 | 7.296824 | 2.0 | 15.321 | 2 | 40.872 | 15.494 | 32.722 | 2 |
| 2025-06-29T16:26:00 | 54.851474 | 7.296624 | 2.0 | 15.321 | 2 | 40.995 | 15.485 | 32.840 | 2 |
| 2025-06-29T16:27:00 | 54.851503 | 7.296471 | 2.0 | 15.306 | 2 | 40.963 | 15.484 | 32.812 | 2 |
| 2025-06-29T16:28:00 | 54.851516 | 7.296285 | 2.0 | 15.298 | 2 | 40.881 | 15.470 | 32.750 | 2 |
| 2025-06-29T16:29:00 | 54.851540 | 7.296113 | 2.0 | 15.289 | 2 | 40.868 | 15.462 | 32.745 | 2 |
| 2025-06-29T16:30:00 | 54.851588 | 7.295909 | 2.0 | 15.283 | 2 | 40.753 | 15.453 | 32.650 | 2 |
| 2025-06-29T16:31:00 | 54.851669 | 7.295588 | 2.0 | 15.274 | 2 | 40.790 | 15.446 | 32.689 | 2 |
| 2025-06-29T16:32:00 | 54.851690 | 7.295348 | 2.0 | 15.278 | 2 | 40.872 | 15.440 | 32.767 | 2 |
| 2025-06-29T16:33:00 | 54.851753 | 7.294921 | 2.0 | 15.284 | 2 | 40.800 | 15.442 | 32.701 | 2 |
| 2025-06-29T16:34:00 | 54.851915 | 7.294391 | 2.0 | 15.300 | 2 | 40.772 | 15.449 | 32.670 | 2 |
| 2025-06-29T16:35:00 | 54.852080 | 7.293903 | 2.0 | 15.331 | 2 | 40.787 | 15.469 | 32.667 | 2 |
| 2025-06-29T16:36:00 | 54.852235 | 7.293415 | 2.0 | 15.388 | 2 | 40.854 | 15.505 | 32.697 | 2 |
| 2025-06-29T16:37:00 | 54.852394 | 7.292941 | 2.0 | 15.388 | 2 | 40.806 | 15.548 | 32.618 | 2 |
| 2025-06-29T16:38:00 | 54.852563 | 7.292432 | 2.0 | 15.382 | 2 | 40.864 | 15.550 | 32.669 | 2 |
| 2025-06-29T16:39:00 | 54.852730 | 7.291955 | 2.0 | 15.375 | 2 | 40.855 | 15.544 | 32.665 | 2 |
| 2025-06-29T16:40:00 | 54.852889 | 7.291504 | 2.0 | 15.372 | 2 | 40.900 | 15.539 | 32.710 | 2 |
| 2025-06-29T16:41:00 | 54.853019 | 7.291109 | 2.0 | 15.378 | 2 | 40.908 | 15.537 | 32.719 | 2 |
| 2025-06-29T16:42:00 | 54.853130 | 7.290747 | 2.0 | 15.372 | 2 | 40.923 | 15.542 | 32.728 | 2 |
| 2025-06-29T16:43:00 | 54.853218 | 7.290414 | 2.0 | 15.359 | 2 | 40.933 | 15.534 | 32.743 | 2 |
| 2025-06-29T16:44:00 | 54.853279 | 7.290144 | 2.0 | 15.355 | 2 | 40.907 | 15.524 | 32.728 | 2 |
| 2025-06-29T16:45:00 | 54.853319 | 7.289959 | 2.0 | 15.351 | 2 | 40.912 | 15.521 | 32.735 | 2 |
| 2025-06-29T16:46:00 | 54.853341 | 7.289806 | 2.0 | 15.347 | 2 | 40.862 | 15.512 | 32.698 | 2 |
| 2025-06-29T16:47:00 | 54.853356 | 7.289530 | 2.0 | 15.346 | 2 | 40.912 | 15.510 | 32.745 | 2 |
| 2025-06-29T16:48:00 | 54.853388 | 7.289292 | 2.0 | 15.343 | 2 | 40.927 | 15.509 | 32.759 | 2 |
| 2025-06-29T16:49:00 | 54.853453 | 7.289057 | 2.0 | 15.343 | 2 | 40.899 | 15.506 | 32.736 | 2 |
| 2025-06-29T16:50:00 | 54.853586 | 7.288767 | 2.0 | 15.343 | 2 | 40.922 | 15.506 | 32.757 | 2 |
| 2025-06-29T16:51:00 | 54.853777 | 7.288425 | 2.0 | 15.340 | 2 | 40.946 | 15.507 | 32.777 | 2 |
| 2025-06-29T16:52:00 | 54.853971 | 7.288101 | 2.0 | 15.338 | 2 | 40.938 | 15.503 | 32.774 | 2 |
| 2025-06-29T16:53:00 | 54.854148 | 7.287767 | 2.0 | 15.337 | 2 | 40.949 | 15.502 | 32.784 | 2 |
| 2025-06-29T16:54:00 | 54.854352 | 7.287439 | 2.0 | 15.336 | 2 | 40.936 | 15.501 | 32.774 | 2 |
| 2025-06-29T16:55:00 | 54.854527 | 7.287157 | 2.0 | 15.338 | 2 | 40.962 | 15.501 | 32.797 | 2 |
| 2025-06-29T16:56:00 | 54.854680 | 7.286932 | 2.0 | 15.339 | 2 | 40.956 | 15.502 | 32.791 | 2 |
| 2025-06-29T16:57:00 | 54.854849 | 7.286712 | 2.0 | 15.339 | 2 | 40.965 | 15.502 | 32.799 | 2 |
| 2025-06-29T16:58:00 | 54.855013 | 7.286471 | 2.0 | 15.335 | 2 | 40.995 | 15.502 | 32.825 | 2 |
| 2025-06-29T16:59:00 | 54.855144 | 7.286311 | 2.0 | 15.338 | 2 | 40.999 | 15.500 | 32.831 | 2 |
| 2025-06-29T17:00:00 | 54.855293 | 7.286138 | 2.0 | 15.339 | 2 | 40.975 | 15.501 | 32.808 | 2 |
| 2025-06-29T17:01:00 | 54.855446 | 7.285975 | 2.0 | 15.341 | 2 | 40.991 | 15.504 | 32.820 | 2 |
| 2025-06-29T17:02:00 | 54.855568 | 7.285831 | 2.0 | 15.337 | 2 | 41.021 | 15.504 | 32.847 | 2 |
| 2025-06-29T17:03:00 | 54.855708 | 7.285606 | 2.0 | 15.337 | 2 | 41.000 | 15.500 | 32.832 | 2 |
| 2025-06-29T17:04:00 | 54.855865 | 7.285370 | 2.0 | 15.337 | 2 | 41.017 | 15.500 | 32.847 | 2 |
| 2025-06-29T17:05:00 | 54.856057 | 7.285110 | 2.0 | 15.337 | 2 | 41.020 | 15.500 | 32.849 | 2 |
| 2025-06-29T17:06:00 | 54.856247 | 7.284863 | 2.0 | 15.336 | 2 | 41.045 | 15.500 | 32.872 | 2 |
| 2025-06-29T17:07:00 | 54.856433 | 7.284580 | 2.0 | 15.335 | 2 | 41.031 | 15.500 | 32.859 | 2 |
| 2025-06-29T17:08:00 | 54.856592 | 7.284310 | 2.0 | 15.338 | 2 | 41.039 | 15.500 | 32.866 | 2 |
| 2025-06-29T17:09:00 | 54.856715 | 7.284085 | 2.0 | 15.338 | 2 | 41.053 | 15.502 | 32.877 | 2 |
| 2025-06-29T17:10:00 | 54.856847 | 7.283874 | 2.0 | 15.335 | 2 | 41.055 | 15.502 | 32.879 | 2 |
| 2025-06-29T17:11:00 | 54.856988 | 7.283659 | 2.0 | 15.335 | 2 | 41.054 | 15.499 | 32.881 | 2 |
| 2025-06-29T17:12:00 | 54.857104 | 7.283444 | 2.0 | 15.337 | 2 | 41.054 | 15.500 | 32.880 | 2 |
| 2025-06-29T17:13:00 | 54.857209 | 7.283235 | 2.0 | 15.338 | 2 | 41.058 | 15.501 | 32.883 | 2 |
| 2025-06-29T17:14:00 | 54.857336 | 7.283022 | 2.0 | 15.332 | 2 | 41.063 | 15.500 | 32.888 | 2 |
| 2025-06-29T17:15:00 | 54.857470 | 7.282795 | 2.0 | 15.320 | 2 | 41.055 | 15.494 | 32.886 | 2 |
| 2025-06-29T17:16:00 | 54.857602 | 7.282559 | 2.0 | 15.311 | 2 | 41.042 | 15.483 | 32.883 | 2 |
| 2025-06-29T17:17:00 | 54.857714 | 7.282340 | 2.0 | 15.315 | 2 | 41.035 | 15.477 | 32.882 | 2 |
| 2025-06-29T17:18:00 | 54.857788 | 7.282119 | 2.0 | 15.315 | 2 | 41.032 | 15.478 | 32.879 | 2 |
| 2025-06-29T17:19:00 | 54.857882 | 7.281831 | 2.0 | 15.318 | 2 | 41.031 | 15.479 | 32.877 | 2 |
| 2025-06-29T17:20:00 | 54.858082 | 7.281422 | 2.0 | 15.318 | 2 | 41.030 | 15.481 | 32.874 | 2 |
| 2025-06-29T17:21:00 | 54.858315 | 7.280976 | 2.0 | 15.329 | 2 | 41.034 | 15.485 | 32.874 | 2 |
| 2025-06-29T17:22:00 | 54.858497 | 7.280580 | 2.0 | 15.330 | 2 | 41.041 | 15.491 | 32.876 | 2 |
| 2025-06-29T17:23:00 | 54.858661 | 7.280234 | 2.0 | 15.329 | 2 | 41.043 | 15.493 | 32.876 | 2 |
| 2025-06-29T17:24:00 | 54.858792 | 7.279971 | 2.0 | 15.327 | 2 | 41.042 | 15.492 | 32.876 | 2 |
| 2025-06-29T17:25:00 | 54.858888 | 7.279753 | 2.0 | 15.327 | 2 | 41.040 | 15.491 | 32.875 | 2 |
| 2025-06-29T17:26:00 | 54.858949 | 7.279569 | 2.0 | 15.326 | 2 | 41.039 | 15.490 | 32.875 | 2 |
| 2025-06-29T17:27:00 | 54.859008 | 7.279376 | 2.0 | 15.336 | 2 | 41.039 | 15.491 | 32.874 | 2 |
| 2025-06-29T17:28:00 | 54.859084 | 7.279145 | 2.0 | 15.328 | 2 | 41.046 | 15.497 | 32.875 | 2 |
| 2025-06-29T17:29:00 | 54.859202 | 7.278911 | 2.0 | 15.326 | 2 | 41.041 | 15.492 | 32.875 | 2 |
| 2025-06-29T17:30:00 | 54.859350 | 7.278617 | 2.0 | 15.326 | 2 | 41.038 | 15.489 | 32.875 | 2 |
| 2025-06-29T17:31:00 | 54.859477 | 7.278273 | 2.0 | 15.325 | 2 | 41.037 | 15.489 | 32.874 | 2 |
| 2025-06-29T17:32:00 | 54.859597 | 7.277902 | 2.0 | 15.324 | 2 | 41.036 | 15.488 | 32.874 | 2 |
| 2025-06-29T17:33:00 | 54.859746 | 7.277532 | 2.0 | 15.322 | 2 | 41.035 | 15.487 | 32.874 | 2 |
| 2025-06-29T17:34:00 | 54.859892 | 7.277141 | 2.0 | 15.321 | 2 | 41.033 | 15.485 | 32.874 | 2 |
| 2025-06-29T17:35:00 | 54.860056 | 7.276744 | 2.0 | 15.318 | 2 | 41.032 | 15.484 | 32.873 | 2 |
| 2025-06-29T17:36:00 | 54.860236 | 7.276391 | 2.0 | 15.316 | 2 | 41.029 | 15.481 | 32.873 | 2 |
| 2025-06-29T17:37:00 | 54.860430 | 7.276032 | 2.0 | 15.316 | 2 | 41.027 | 15.479 | 32.873 | 2 |
| 2025-06-29T17:38:00 | 54.860632 | 7.275683 | 2.0 | 15.311 | 2 | 41.027 | 15.479 | 32.873 | 2 |
| 2025-06-29T17:39:00 | 54.860835 | 7.275286 | 2.0 | 15.312 | 2 | 41.023 | 15.474 | 32.874 | 2 |
| 2025-06-29T17:40:00 | 54.861041 | 7.274864 | 2.0 | 15.315 | 2 | 41.025 | 15.475 | 32.875 | 2 |
| 2025-06-29T17:41:00 | 54.861251 | 7.274419 | 2.0 | 15.315 | 2 | 41.028 | 15.479 | 32.874 | 2 |
| 2025-06-29T17:42:00 | 54.861465 | 7.273952 | 2.0 | 15.317 | 2 | 41.028 | 15.478 | 32.875 | 2 |
| 2025-06-29T17:43:00 | 54.861671 | 7.273500 | 2.0 | 15.312 | 2 | 41.029 | 15.479 | 32.875 | 2 |
| 2025-06-29T17:44:00 | 54.861874 | 7.273066 | 2.0 | 15.308 | 2 | 41.024 | 15.475 | 32.874 | 2 |
| 2025-06-29T17:45:00 | 54.862060 | 7.272662 | 2.0 | 15.312 | 2 | 41.022 | 15.473 | 32.874 | 2 |
| 2025-06-29T17:46:00 | 54.862213 | 7.272265 | 2.0 | 15.311 | 2 | 41.025 | 15.475 | 32.875 | 2 |
| 2025-06-29T17:47:00 | 54.862359 | 7.271885 | 2.0 | 15.310 | 2 | 41.024 | 15.473 | 32.876 | 2 |
| 2025-06-29T17:48:00 | 54.862524 | 7.271652 | 2.0 | 15.307 | 2 | 41.023 | 15.471 | 32.876 | 2 |
| 2025-06-29T17:49:00 | 54.862705 | 7.271645 | 2.0 | 15.304 | 2 | 41.021 | 15.469 | 32.876 | 2 |
| 2025-06-29T17:50:00 | 54.862866 | 7.271774 | 2.0 | 15.306 | 2 | 41.021 | 15.468 | 32.877 | 2 |
| 2025-06-29T17:51:00 | 54.863021 | 7.272079 | 2.0 | 15.298 | 2 | 41.019 | 15.465 | 32.878 | 2 |
| 2025-06-29T17:52:00 | 54.862948 | 7.272537 | 2.0 | 15.299 | 2 | 41.021 | 15.464 | 32.880 | 2 |
| 2025-06-29T17:53:00 | 54.862696 | 7.273122 | 2.0 | 15.353 | 2 | 41.035 | 15.471 | 32.887 | 2 |
| 2025-06-29T17:54:00 | 54.862389 | 7.273781 | 2.0 | 15.375 | 2 | 41.076 | 15.517 | 32.885 | 2 |
| 2025-06-29T17:55:00 | 54.862042 | 7.274520 | 2.0 | 15.395 | 2 | 41.103 | 15.540 | 32.890 | 2 |
| 2025-06-29T17:56:00 | 54.861658 | 7.275315 | 2.0 | 15.414 | 2 | 41.123 | 15.559 | 32.892 | 2 |
| 2025-06-29T17:57:00 | 54.861262 | 7.276154 | 2.0 | 15.347 | 2 | 41.134 | 15.570 | 32.893 | 2 |
| 2025-06-29T17:58:00 | 54.860852 | 7.276975 | 2.0 | 15.577 | 2 | 41.098 | 15.574 | 32.857 | 2 |
| 2025-06-29T17:59:00 | 54.860431 | 7.277791 | 2.0 | 15.681 | 2 | 41.223 | 15.746 | 32.825 | 2 |
| 2025-06-29T18:00:00 | 54.860008 | 7.278614 | 2.0 | 15.764 | 2 | 41.293 | 15.832 | 32.816 | 2 |
| 2025-06-29T18:01:00 | 54.859586 | 7.279431 | 2.0 | 15.791 | 2 | 41.352 | 15.913 | 32.801 | 2 |
| 2025-06-29T18:02:00 | 54.859165 | 7.280223 | 2.0 | 15.805 | 2 | 41.378 | 15.950 | 32.794 | 2 |
| 2025-06-29T18:03:00 | 54.858742 | 7.281018 | 2.0 | 15.809 | 2 | 41.382 | 15.962 | 32.787 | 2 |
| 2025-06-29T18:04:00 | 54.858322 | 7.281815 | 2.0 | 15.812 | 2 | 41.383 | 15.967 | 32.784 | 2 |
| 2025-06-29T18:05:00 | 54.857901 | 7.282586 | 2.0 | 15.812 | 2 | 41.385 | 15.971 | 32.783 | 2 |
| 2025-06-29T18:06:00 | 54.857481 | 7.283355 | 2.0 | 15.816 | 2 | 41.386 | 15.970 | 32.784 | 2 |
| 2025-06-29T18:07:00 | 54.857061 | 7.284146 | 2.0 | 15.829 | 2 | 41.392 | 15.978 | 32.783 | 2 |
| 2025-06-29T18:08:00 | 54.856626 | 7.284956 | 2.0 | 15.831 | 2 | 41.401 | 15.988 | 32.783 | 2 |
| 2025-06-29T18:09:00 | 54.856205 | 7.285743 | 2.0 | 15.834 | 2 | 41.403 | 15.990 | 32.783 | 2 |
| 2025-06-29T18:10:00 | 54.855804 | 7.286473 | 2.0 | 15.825 | 2 | 41.402 | 15.991 | 32.781 | 2 |
| 2025-06-29T18:11:00 | 54.855422 | 7.287157 | 2.0 | 15.820 | 2 | 41.394 | 15.985 | 32.779 | 2 |
| 2025-06-29T18:12:00 | 54.855055 | 7.287808 | 2.0 | 15.823 | 2 | 41.389 | 15.982 | 32.777 | 2 |
| 2025-06-29T18:13:00 | 54.854698 | 7.288454 | 2.0 | 15.816 | 2 | 41.386 | 15.980 | 32.776 | 2 |
| 2025-06-29T18:14:00 | 54.854343 | 7.289101 | 2.0 | 15.825 | 2 | 41.380 | 15.977 | 32.773 | 2 |
| 2025-06-29T18:15:00 | 54.853969 | 7.289762 | 2.0 | 15.827 | 2 | 41.386 | 15.984 | 32.773 | 2 |
| 2025-06-29T18:16:00 | 54.853699 | 7.290381 | 2.0 | 15.837 | 2 | 41.388 | 15.987 | 32.772 | 2 |
| 2025-06-29T18:17:00 | 54.853786 | 7.291132 | 2.0 | 15.845 | 2 | 41.393 | 15.997 | 32.768 | 2 |
| 2025-06-29T18:18:00 | 54.853958 | 7.292455 | 2.0 | 15.843 | 2 | 41.399 | 16.005 | 32.767 | 2 |
| 2025-06-29T18:19:00 | 54.854138 | 7.294276 | 2.0 | 15.806 | 2 | 41.389 | 15.996 | 32.765 | 2 |
| 2025-06-29T18:20:00 | 54.854346 | 7.296377 | 2.0 | 15.766 | 2 | 41.347 | 15.962 | 32.756 | 2 |
| 2025-06-29T18:21:00 | 54.854553 | 7.298591 | 2.0 | 15.744 | 2 | 41.304 | 15.927 | 32.747 | 2 |
| 2025-06-29T18:22:00 | 54.854772 | 7.300570 | 2.0 | 15.718 | 2 | 41.279 | 15.903 | 32.745 | 2 |
| 2025-06-29T18:23:00 | 54.855182 | 7.301649 | 2.0 | 15.685 | 2 | 41.244 | 15.872 | 32.740 | 2 |
| 2025-06-29T18:24:00 | 54.855619 | 7.301561 | 2.0 | 15.679 | 2 | 41.215 | 15.846 | 32.735 | 2 |
| 2025-06-29T18:25:00 | 54.855940 | 7.300836 | 2.0 | 15.684 | 2 | 41.209 | 15.841 | 32.734 | 2 |
| 2025-06-29T18:26:00 | 54.856246 | 7.299605 | 2.0 | 15.703 | 2 | 41.219 | 15.849 | 32.737 | 2 |
| 2025-06-29T18:27:00 | 54.856143 | 7.298251 | 2.0 | 15.723 | 2 | 41.238 | 15.866 | 32.739 | 2 |
| 2025-06-29T18:28:00 | 54.855756 | 7.296966 | 2.0 | 15.729 | 2 | 41.257 | 15.884 | 32.741 | 2 |
| 2025-06-29T18:29:00 | 54.855381 | 7.296709 | 2.0 | 15.735 | 2 | 41.264 | 15.889 | 32.743 | 2 |
| 2025-06-29T18:30:00 | 54.855337 | 7.297018 | 2.0 | 15.732 | 2 | 41.267 | 15.895 | 32.741 | 2 |
| 2025-06-29T18:31:00 | 54.855500 | 7.297353 | 2.0 | 15.720 | 2 | 41.265 | 15.891 | 32.743 | 2 |
| 2025-06-29T18:32:00 | 54.855677 | 7.297550 | 2.0 | 15.711 | 2 | 41.256 | 15.880 | 32.744 | 2 |
| 2025-06-29T18:33:00 | 54.855739 | 7.297537 | 2.0 | 15.701 | 2 | 41.247 | 15.870 | 32.744 | 2 |
| 2025-06-29T18:34:00 | 54.855695 | 7.297353 | 2.0 | 15.698 | 2 | 41.239 | 15.862 | 32.743 | 2 |
| 2025-06-29T18:35:00 | 54.855658 | 7.297170 | 2.0 | 15.692 | 2 | 41.233 | 15.858 | 32.741 | 2 |
| 2025-06-29T18:36:00 | 54.855615 | 7.297034 | 2.0 | 15.688 | 2 | 41.225 | 15.851 | 32.740 | 2 |
| 2025-06-29T18:37:00 | 54.855617 | 7.297024 | 2.0 | 15.690 | 2 | 41.221 | 15.850 | 32.737 | 2 |
| 2025-06-29T18:38:00 | 54.855643 | 7.297037 | 2.0 | 15.683 | 2 | 41.217 | 15.848 | 32.736 | 2 |
| 2025-06-29T18:39:00 | 54.855670 | 7.297009 | 2.0 | 15.677 | 2 | 41.210 | 15.843 | 32.733 | 2 |
| 2025-06-29T18:40:00 | 54.855730 | 7.297081 | 2.0 | 15.675 | 2 | 41.203 | 15.837 | 32.732 | 2 |
| 2025-06-29T18:41:00 | 54.855803 | 7.297331 | 2.0 | 15.685 | 2 | 41.201 | 15.837 | 32.730 | 2 |
| 2025-06-29T18:42:00 | 54.855686 | 7.297715 | 2.0 | 15.688 | 2 | 41.209 | 15.845 | 32.731 | 2 |
| 2025-06-29T18:43:00 | 54.855407 | 7.298189 | 2.0 | 15.687 | 2 | 41.213 | 15.849 | 32.731 | 2 |
| 2025-06-29T18:44:00 | 54.855055 | 7.298763 | 2.0 | 15.686 | 2 | 41.212 | 15.849 | 32.730 | 2 |
| 2025-06-29T18:45:00 | 54.854669 | 7.299413 | 2.0 | 15.683 | 2 | 41.210 | 15.847 | 32.730 | 2 |
| 2025-06-29T18:46:00 | 54.854269 | 7.300077 | 2.0 | 15.683 | 2 | 41.208 | 15.845 | 32.730 | 2 |
| 2025-06-29T18:47:00 | 54.853853 | 7.300771 | 2.0 | 15.681 | 2 | 41.207 | 15.844 | 32.730 | 2 |
| 2025-06-29T18:48:00 | 54.853438 | 7.301492 | 2.0 | 15.679 | 2 | 41.204 | 15.842 | 32.729 | 2 |
| 2025-06-29T18:49:00 | 54.853015 | 7.302204 | 2.0 | 15.683 | 2 | 41.203 | 15.841 | 32.729 | 2 |
| 2025-06-29T18:50:00 | 54.852576 | 7.302933 | 2.0 | 15.688 | 2 | 41.207 | 15.845 | 32.729 | 2 |
| 2025-06-29T18:51:00 | 54.852148 | 7.303645 | 2.0 | 15.686 | 2 | 41.211 | 15.849 | 32.729 | 2 |
| 2025-06-29T18:52:00 | 54.851738 | 7.304317 | 2.0 | 15.683 | 2 | 41.209 | 15.846 | 32.730 | 2 |
| 2025-06-29T18:53:00 | 54.851336 | 7.304972 | 2.0 | 15.682 | 2 | 41.206 | 15.844 | 32.729 | 2 |
| 2025-06-29T18:54:00 | 54.850940 | 7.305618 | 2.0 | 15.675 | 2 | 41.204 | 15.843 | 32.728 | 2 |
| 2025-06-29T18:55:00 | 54.850555 | 7.306231 | 2.0 | 15.665 | 2 | 41.195 | 15.835 | 32.727 | 2 |
| 2025-06-29T18:56:00 | 54.850183 | 7.306833 | 2.0 | 15.660 | 2 | 41.184 | 15.826 | 32.725 | 2 |
| 2025-06-29T18:57:00 | 54.849812 | 7.307429 | 2.0 | 15.656 | 2 | 41.176 | 15.821 | 32.722 | 2 |
| 2025-06-29T18:58:00 | 54.849444 | 7.308001 | 2.0 | 15.658 | 2 | 41.171 | 15.819 | 32.719 | 2 |
| 2025-06-29T18:59:00 | 54.849086 | 7.308562 | 2.0 | 15.658 | 2 | 41.170 | 15.820 | 32.717 | 2 |
| 2025-06-29T19:00:00 | 54.848732 | 7.309111 | 2.0 | 15.657 | 2 | 41.168 | 15.819 | 32.716 | 2 |
| 2025-06-29T19:01:00 | 54.848374 | 7.309666 | 2.0 | 15.659 | 2 | 41.168 | 15.819 | 32.716 | 2 |
| 2025-06-29T19:02:00 | 54.848020 | 7.310206 | 2.0 | 15.661 | 2 | 41.170 | 15.821 | 32.716 | 2 |
| 2025-06-29T19:03:00 | 54.847660 | 7.310749 | 2.0 | 15.665 | 2 | 41.170 | 15.822 | 32.715 | 2 |
| 2025-06-29T19:04:00 | 54.847302 | 7.311314 | 2.0 | 15.669 | 2 | 41.175 | 15.828 | 32.715 | 2 |
| 2025-06-29T19:05:00 | 54.846934 | 7.311895 | 2.0 | 15.673 | 2 | 41.178 | 15.831 | 32.715 | 2 |
| 2025-06-29T19:06:00 | 54.846564 | 7.312471 | 2.0 | 15.676 | 2 | 41.181 | 15.835 | 32.714 | 2 |
| 2025-06-29T19:07:00 | 54.846202 | 7.313032 | 2.0 | 15.679 | 2 | 41.183 | 15.837 | 32.715 | 2 |
| 2025-06-29T19:08:00 | 54.845835 | 7.313594 | 2.0 | 15.679 | 2 | 41.185 | 15.840 | 32.714 | 2 |
| 2025-06-29T19:09:00 | 54.845475 | 7.314129 | 2.0 | 15.681 | 2 | 41.184 | 15.839 | 32.714 | 2 |
| 2025-06-29T19:10:00 | 54.845123 | 7.314653 | 2.0 | 15.685 | 2 | 41.187 | 15.844 | 32.712 | 2 |
| 2025-06-29T19:11:00 | 54.844773 | 7.315168 | 2.0 | 15.685 | 2 | 41.190 | 15.846 | 32.713 | 2 |
| 2025-06-29T19:12:00 | 54.844419 | 7.315694 | 2.0 | 15.688 | 2 | 41.191 | 15.847 | 32.713 | 2 |
| 2025-06-29T19:13:00 | 54.844068 | 7.316223 | 2.0 | 15.690 | 2 | 41.192 | 15.849 | 32.713 | 2 |
| 2025-06-29T19:14:00 | 54.843702 | 7.316773 | 2.0 | 15.694 | 2 | 41.195 | 15.852 | 32.713 | 2 |
| 2025-06-29T19:15:00 | 54.843341 | 7.317314 | 2.0 | 15.697 | 2 | 41.199 | 15.855 | 32.714 | 2 |
| 2025-06-29T19:16:00 | 54.842987 | 7.317847 | 2.0 | 15.703 | 2 | 41.203 | 15.859 | 32.714 | 2 |
| 2025-06-29T19:17:00 | 54.842631 | 7.318392 | 2.0 | 15.705 | 2 | 41.208 | 15.863 | 32.715 | 2 |
| 2025-06-29T19:18:00 | 54.842289 | 7.318929 | 2.0 | 15.711 | 2 | 41.212 | 15.868 | 32.715 | 2 |
| 2025-06-29T19:19:00 | 54.841940 | 7.319462 | 2.0 | 15.713 | 2 | 41.215 | 15.871 | 32.715 | 2 |
| 2025-06-29T19:20:00 | 54.841589 | 7.320003 | 2.0 | 15.718 | 2 | 41.219 | 15.875 | 32.715 | 2 |
| 2025-06-29T19:21:00 | 54.841225 | 7.320558 | 2.0 | 15.721 | 2 | 41.223 | 15.879 | 32.715 | 2 |
| 2025-06-29T19:22:00 | 54.840863 | 7.321123 | 2.0 | 15.726 | 2 | 41.226 | 15.882 | 32.715 | 2 |
| 2025-06-29T19:23:00 | 54.840488 | 7.321682 | 2.0 | 15.730 | 2 | 41.230 | 15.887 | 32.715 | 2 |
| 2025-06-29T19:24:00 | 54.840120 | 7.322240 | 2.0 | 15.729 | 2 | 41.234 | 15.891 | 32.715 | 2 |
| 2025-06-29T19:25:00 | 54.839757 | 7.322806 | 2.0 | 15.726 | 2 | 41.234 | 15.890 | 32.716 | 2 |
| 2025-06-29T19:26:00 | 54.839397 | 7.323367 | 2.0 | 15.726 | 2 | 41.230 | 15.887 | 32.715 | 2 |
| 2025-06-29T19:27:00 | 54.839042 | 7.323932 | 2.0 | 15.726 | 2 | 41.229 | 15.887 | 32.714 | 2 |
| 2025-06-29T19:28:00 | 54.838676 | 7.324489 | 2.0 | 15.728 | 2 | 41.229 | 15.887 | 32.714 | 2 |
| 2025-06-29T19:29:00 | 54.838303 | 7.325057 | 2.0 | 15.729 | 2 | 41.232 | 15.889 | 32.715 | 2 |
| 2025-06-29T19:30:00 | 54.837930 | 7.325648 | 2.0 | 15.732 | 2 | 41.232 | 15.890 | 32.714 | 2 |
| 2025-06-29T19:31:00 | 54.837559 | 7.326220 | 2.0 | 15.733 | 2 | 41.234 | 15.893 | 32.713 | 2 |
| 2025-06-29T19:32:00 | 54.837182 | 7.326789 | 2.0 | 15.735 | 2 | 41.235 | 15.894 | 32.713 | 2 |
| 2025-06-29T19:33:00 | 54.836814 | 7.327350 | 2.0 | 15.738 | 2 | 41.237 | 15.897 | 32.713 | 2 |
| 2025-06-29T19:34:00 | 54.836427 | 7.327928 | 2.0 | 15.744 | 2 | 41.239 | 15.900 | 32.712 | 2 |
| 2025-06-29T19:35:00 | 54.836043 | 7.328503 | 2.0 | 15.745 | 2 | 41.242 | 15.904 | 32.711 | 2 |
| 2025-06-29T19:36:00 | 54.835660 | 7.329085 | 2.0 | 15.751 | 2 | 41.245 | 15.908 | 32.711 | 2 |
| 2025-06-29T19:37:00 | 54.835274 | 7.329664 | 2.0 | 15.753 | 2 | 41.246 | 15.910 | 32.710 | 2 |
| 2025-06-29T19:38:00 | 54.834891 | 7.330220 | 2.0 | 15.752 | 2 | 41.248 | 15.914 | 32.708 | 2 |
| 2025-06-29T19:39:00 | 54.834508 | 7.330782 | 2.0 | 15.757 | 2 | 41.247 | 15.914 | 32.708 | 2 |
| 2025-06-29T19:40:00 | 54.834123 | 7.331354 | 2.0 | 15.761 | 2 | 41.253 | 15.919 | 32.709 | 2 |
| 2025-06-29T19:41:00 | 54.833727 | 7.331936 | 2.0 | 15.770 | 2 | 41.256 | 15.922 | 32.709 | 2 |
| 2025-06-29T19:42:00 | 54.833327 | 7.332504 | 2.0 | 15.772 | 2 | 41.260 | 15.930 | 32.706 | 2 |
| 2025-06-29T19:43:00 | 54.832925 | 7.333077 | 2.0 | 15.776 | 2 | 41.263 | 15.933 | 32.706 | 2 |
| 2025-06-29T19:44:00 | 54.832522 | 7.333658 | 2.0 | 15.778 | 2 | 41.264 | 15.936 | 32.704 | 2 |
| 2025-06-29T19:45:00 | 54.832105 | 7.334250 | 2.0 | 15.781 | 2 | 41.267 | 15.938 | 32.705 | 2 |
| 2025-06-29T19:46:00 | 54.831700 | 7.334835 | 2.0 | 15.790 | 2 | 41.271 | 15.943 | 32.705 | 2 |
| 2025-06-29T19:47:00 | 54.831300 | 7.335422 | 2.0 | 15.790 | 2 | 41.277 | 15.949 | 32.705 | 2 |
| 2025-06-29T19:48:00 | 54.830900 | 7.335998 | 2.0 | 15.794 | 2 | 41.279 | 15.951 | 32.705 | 2 |
| 2025-06-29T19:49:00 | 54.830508 | 7.336559 | 2.0 | 15.794 | 2 | 41.282 | 15.954 | 32.706 | 2 |
| 2025-06-29T19:50:00 | 54.830110 | 7.337106 | 2.0 | 15.797 | 2 | 41.283 | 15.955 | 32.706 | 2 |
| 2025-06-29T19:51:00 | 54.829712 | 7.337645 | 2.0 | 15.798 | 2 | 41.285 | 15.957 | 32.706 | 2 |
| 2025-06-29T19:52:00 | 54.829314 | 7.338204 | 2.0 | 15.804 | 2 | 41.286 | 15.960 | 32.704 | 2 |
| 2025-06-29T19:53:00 | 54.828908 | 7.338753 | 2.0 | 15.806 | 2 | 41.290 | 15.964 | 32.704 | 2 |
| 2025-06-29T19:54:00 | 54.828510 | 7.339316 | 2.0 | 15.810 | 2 | 41.293 | 15.967 | 32.705 | 2 |
| 2025-06-29T19:55:00 | 54.828119 | 7.339882 | 2.0 | 15.811 | 2 | 41.296 | 15.970 | 32.705 | 2 |
| 2025-06-29T19:56:00 | 54.827715 | 7.340434 | 2.0 | 15.817 | 2 | 41.295 | 15.972 | 32.702 | 2 |
| 2025-06-29T19:57:00 | 54.827316 | 7.340990 | 2.0 | 15.816 | 2 | 41.294 | 15.976 | 32.698 | 2 |
| 2025-06-29T19:58:00 | 54.826918 | 7.341543 | 2.0 | 15.818 | 2 | 41.294 | 15.977 | 32.697 | 2 |
| 2025-06-29T19:59:00 | 54.826520 | 7.342099 | 2.0 | 15.822 | 2 | 41.297 | 15.979 | 32.698 | 2 |
| 2025-06-29T20:00:00 | 54.826117 | 7.342666 | 2.0 | 15.825 | 2 | 41.299 | 15.983 | 32.697 | 2 |
| 2025-06-29T20:01:00 | 54.825698 | 7.343233 | 2.0 | 15.825 | 2 | 41.301 | 15.985 | 32.697 | 2 |
| 2025-06-29T20:02:00 | 54.825273 | 7.343807 | 2.0 | 15.826 | 2 | 41.300 | 15.986 | 32.695 | 2 |
| 2025-06-29T20:03:00 | 54.824857 | 7.344374 | 2.0 | 15.836 | 2 | 41.301 | 15.987 | 32.695 | 2 |
| 2025-06-29T20:04:00 | 54.824447 | 7.344939 | 2.0 | 15.837 | 2 | 41.310 | 15.995 | 32.696 | 2 |
| 2025-06-29T20:05:00 | 54.824032 | 7.345506 | 2.0 | 15.842 | 2 | 41.311 | 15.997 | 32.696 | 2 |
| 2025-06-29T20:06:00 | 54.823613 | 7.346097 | 2.0 | 15.845 | 2 | 41.315 | 16.002 | 32.695 | 2 |
| 2025-06-29T20:07:00 | 54.823194 | 7.346679 | 2.0 | 15.850 | 2 | 41.317 | 16.005 | 32.694 | 2 |
| 2025-06-29T20:08:00 | 54.822775 | 7.347265 | 2.0 | 15.852 | 2 | 41.321 | 16.010 | 32.694 | 2 |
| 2025-06-29T20:09:00 | 54.822352 | 7.347858 | 2.0 | 15.855 | 2 | 41.323 | 16.013 | 32.693 | 2 |
| 2025-06-29T20:10:00 | 54.821939 | 7.348448 | 2.0 | 15.859 | 2 | 41.325 | 16.015 | 32.693 | 2 |
| 2025-06-29T20:11:00 | 54.821516 | 7.349054 | 2.0 | 15.861 | 2 | 41.328 | 16.019 | 32.693 | 2 |
| 2025-06-29T20:12:00 | 54.821090 | 7.349651 | 2.0 | 15.867 | 2 | 41.330 | 16.022 | 32.692 | 2 |
| 2025-06-29T20:13:00 | 54.820658 | 7.350269 | 2.0 | 15.866 | 2 | 41.333 | 16.026 | 32.691 | 2 |
| 2025-06-29T20:14:00 | 54.820228 | 7.350875 | 2.0 | 15.874 | 2 | 41.334 | 16.028 | 32.690 | 2 |
| 2025-06-29T20:15:00 | 54.819802 | 7.351471 | 2.0 | 15.875 | 2 | 41.337 | 16.033 | 32.689 | 2 |
| 2025-06-29T20:16:00 | 54.819378 | 7.352066 | 2.0 | 15.877 | 2 | 41.340 | 16.036 | 32.689 | 2 |
| 2025-06-29T20:17:00 | 54.818946 | 7.352652 | 2.0 | 15.882 | 2 | 41.340 | 16.037 | 32.688 | 2 |
| 2025-06-29T20:18:00 | 54.818534 | 7.353256 | 2.0 | 15.885 | 2 | 41.343 | 16.042 | 32.687 | 2 |
| 2025-06-29T20:19:00 | 54.818110 | 7.353853 | 2.0 | 15.888 | 2 | 41.345 | 16.045 | 32.686 | 2 |
| 2025-06-29T20:20:00 | 54.817682 | 7.354450 | 2.0 | 15.889 | 2 | 41.347 | 16.048 | 32.685 | 2 |
| 2025-06-29T20:21:00 | 54.817262 | 7.355031 | 2.0 | 15.891 | 2 | 41.347 | 16.049 | 32.685 | 2 |
| 2025-06-29T20:22:00 | 54.816834 | 7.355620 | 2.0 | 15.895 | 2 | 41.348 | 16.051 | 32.684 | 2 |
| 2025-06-29T20:23:00 | 54.816405 | 7.356200 | 2.0 | 15.896 | 2 | 41.349 | 16.055 | 32.681 | 2 |
| 2025-06-29T20:24:00 | 54.815985 | 7.356795 | 2.0 | 15.899 | 2 | 41.350 | 16.056 | 32.681 | 2 |
| 2025-06-29T20:25:00 | 54.815562 | 7.357387 | 2.0 | 15.904 | 2 | 41.350 | 16.060 | 32.678 | 2 |
| 2025-06-29T20:26:00 | 54.815120 | 7.357975 | 2.0 | 15.910 | 2 | 41.351 | 16.064 | 32.676 | 2 |
| 2025-06-29T20:27:00 | 54.814684 | 7.358578 | 2.0 | 15.922 | 2 | 41.357 | 16.073 | 32.674 | 2 |
| 2025-06-29T20:28:00 | 54.814248 | 7.359168 | 2.0 | 15.934 | 2 | 41.362 | 16.083 | 32.670 | 2 |
| 2025-06-29T20:29:00 | 54.813812 | 7.359769 | 2.0 | 15.948 | 2 | 41.369 | 16.095 | 32.666 | 2 |
| 2025-06-29T20:30:00 | 54.813362 | 7.360384 | 2.0 | 15.957 | 2 | 41.378 | 16.109 | 32.663 | 2 |
| 2025-06-29T20:31:00 | 54.812905 | 7.360988 | 2.0 | 15.960 | 2 | 41.379 | 16.117 | 32.657 | 2 |
| 2025-06-29T20:32:00 | 54.812447 | 7.361599 | 2.0 | 15.968 | 2 | 41.375 | 16.120 | 32.651 | 2 |
| 2025-06-29T20:33:00 | 54.811991 | 7.362205 | 2.0 | 15.978 | 2 | 41.377 | 16.128 | 32.646 | 2 |
| 2025-06-29T20:34:00 | 54.811535 | 7.362806 | 2.0 | 15.977 | 2 | 41.379 | 16.136 | 32.641 | 2 |
| 2025-06-29T20:35:00 | 54.811086 | 7.363425 | 2.0 | 15.980 | 2 | 41.374 | 16.136 | 32.637 | 2 |
| 2025-06-29T20:36:00 | 54.810634 | 7.364018 | 2.0 | 15.982 | 2 | 41.371 | 16.139 | 32.632 | 2 |
| 2025-06-29T20:37:00 | 54.810178 | 7.364607 | 2.0 | 15.984 | 2 | 41.370 | 16.141 | 32.629 | 2 |
| 2025-06-29T20:38:00 | 54.809726 | 7.365224 | 2.0 | 15.986 | 2 | 41.368 | 16.142 | 32.627 | 2 |
| 2025-06-29T20:39:00 | 54.809263 | 7.365837 | 2.0 | 15.987 | 2 | 41.368 | 16.145 | 32.624 | 2 |
| 2025-06-29T20:40:00 | 54.808806 | 7.366445 | 2.0 | 15.991 | 2 | 41.366 | 16.146 | 32.622 | 2 |
| 2025-06-29T20:41:00 | 54.808350 | 7.367069 | 2.0 | 15.992 | 2 | 41.367 | 16.150 | 32.619 | 2 |
| 2025-06-29T20:42:00 | 54.807891 | 7.367696 | 2.0 | 15.996 | 2 | 41.368 | 16.153 | 32.618 | 2 |
| 2025-06-29T20:43:00 | 54.807426 | 7.368325 | 2.0 | 15.998 | 2 | 41.370 | 16.156 | 32.617 | 2 |
| 2025-06-29T20:44:00 | 54.806956 | 7.368971 | 2.0 | 15.998 | 2 | 41.371 | 16.157 | 32.617 | 2 |
| 2025-06-29T20:45:00 | 54.806485 | 7.369619 | 2.0 | 15.994 | 2 | 41.369 | 16.156 | 32.616 | 2 |
| 2025-06-29T20:46:00 | 54.806004 | 7.370262 | 2.0 | 15.995 | 2 | 41.367 | 16.154 | 32.616 | 2 |
| 2025-06-29T20:47:00 | 54.805525 | 7.370924 | 2.0 | 15.993 | 2 | 41.366 | 16.154 | 32.615 | 2 |
| 2025-06-29T20:48:00 | 54.805043 | 7.371600 | 2.0 | 15.990 | 2 | 41.366 | 16.153 | 32.616 | 2 |
| 2025-06-29T20:49:00 | 54.804572 | 7.372268 | 2.0 | 15.987 | 2 | 41.365 | 16.150 | 32.617 | 2 |
| 2025-06-29T20:50:00 | 54.804105 | 7.372925 | 2.0 | 15.982 | 2 | 41.362 | 16.146 | 32.618 | 2 |
| 2025-06-29T20:51:00 | 54.803644 | 7.373584 | 2.0 | 15.979 | 2 | 41.360 | 16.142 | 32.620 | 2 |
| 2025-06-29T20:52:00 | 54.803177 | 7.374242 | 2.0 | 15.974 | 2 | 41.357 | 16.138 | 32.620 | 2 |
| 2025-06-29T20:53:00 | 54.802706 | 7.374915 | 2.0 | 15.971 | 2 | 41.356 | 16.134 | 32.623 | 2 |
| 2025-06-29T20:54:00 | 54.802224 | 7.375594 | 2.0 | 15.965 | 2 | 41.355 | 16.131 | 32.624 | 2 |
| 2025-06-29T20:55:00 | 54.801737 | 7.376290 | 2.0 | 15.958 | 2 | 41.352 | 16.124 | 32.627 | 2 |
| 2025-06-29T20:56:00 | 54.801251 | 7.377001 | 2.0 | 15.956 | 2 | 41.346 | 16.117 | 32.628 | 2 |
| 2025-06-29T20:57:00 | 54.800767 | 7.377670 | 2.0 | 15.955 | 2 | 41.346 | 16.116 | 32.629 | 2 |
| 2025-06-29T20:58:00 | 54.800260 | 7.377872 | 2.0 | 15.956 | 2 | 41.347 | 16.114 | 32.631 | 2 |
| 2025-06-29T20:59:00 | 54.799881 | 7.377720 | 2.0 | 15.955 | 2 | 41.349 | 16.116 | 32.631 | 2 |
| 2025-06-29T21:00:00 | 54.799568 | 7.377534 | 2.0 | 15.955 | 2 | 41.350 | 16.114 | 32.634 | 2 |
| 2025-06-29T21:01:00 | 54.799296 | 7.377353 | 2.0 | 15.952 | 2 | 41.349 | 16.113 | 32.634 | 2 |
| 2025-06-29T21:02:00 | 54.799066 | 7.377164 | 2.0 | 15.953 | 2 | 41.349 | 16.111 | 32.635 | 2 |
| 2025-06-29T21:03:00 | 54.798969 | 7.376898 | 2.0 | 15.952 | 2 | 41.349 | 16.112 | 32.635 | 2 |
| 2025-06-29T21:04:00 | 54.799023 | 7.376590 | 2.0 | 15.953 | 2 | 41.349 | 16.112 | 32.635 | 2 |
| 2025-06-29T21:05:00 | 54.799155 | 7.376188 | 2.0 | 15.956 | 2 | 41.351 | 16.113 | 32.636 | 2 |
| 2025-06-29T21:06:00 | 54.799356 | 7.375738 | 2.0 | 15.958 | 2 | 41.351 | 16.115 | 32.634 | 2 |
| 2025-06-29T21:07:00 | 54.799611 | 7.375297 | 2.0 | 15.958 | 2 | 41.350 | 16.116 | 32.632 | 2 |
| 2025-06-29T21:08:00 | 54.799853 | 7.374872 | 2.0 | 15.958 | 2 | 41.351 | 16.118 | 32.631 | 2 |
| 2025-06-29T21:09:00 | 54.800061 | 7.374450 | 2.0 | 15.959 | 2 | 41.349 | 16.117 | 32.630 | 2 |
| 2025-06-29T21:10:00 | 54.800243 | 7.374046 | 2.0 | 15.960 | 2 | 41.350 | 16.120 | 32.629 | 2 |
| 2025-06-29T21:11:00 | 54.800414 | 7.373663 | 2.0 | 15.961 | 2 | 41.350 | 16.120 | 32.629 | 2 |
| 2025-06-29T21:12:00 | 54.800609 | 7.373296 | 2.0 | 15.964 | 2 | 41.349 | 16.120 | 32.628 | 2 |
| 2025-06-29T21:13:00 | 54.800819 | 7.372903 | 2.0 | 15.959 | 2 | 41.350 | 16.121 | 32.628 | 2 |
| 2025-06-29T21:14:00 | 54.801026 | 7.372551 | 2.0 | 15.964 | 2 | 41.346 | 16.120 | 32.625 | 2 |
| 2025-06-29T21:15:00 | 54.801197 | 7.372212 | 2.0 | 15.962 | 2 | 41.346 | 16.122 | 32.624 | 2 |
| 2025-06-29T21:16:00 | 54.801373 | 7.371876 | 2.0 | 15.965 | 2 | 41.345 | 16.122 | 32.623 | 2 |
| 2025-06-29T21:17:00 | 54.801558 | 7.371509 | 2.0 | 15.968 | 2 | 41.346 | 16.125 | 32.621 | 2 |
| 2025-06-29T21:18:00 | 54.801731 | 7.371246 | 2.0 | 15.969 | 2 | 41.348 | 16.126 | 32.622 | 2 |
| 2025-06-29T21:19:00 | 54.801878 | 7.370941 | 2.0 | 15.969 | 2 | 41.348 | 16.128 | 32.621 | 2 |
| 2025-06-29T21:20:00 | 54.802042 | 7.370667 | 2.0 | 15.973 | 2 | 41.348 | 16.129 | 32.620 | 2 |
| 2025-06-29T21:21:00 | 54.802147 | 7.370480 | 2.0 | 15.974 | 2 | 41.350 | 16.133 | 32.618 | 2 |
| 2025-06-29T21:22:00 | 54.802249 | 7.370269 | 2.0 | 15.977 | 2 | 41.350 | 16.134 | 32.617 | 2 |
| 2025-06-29T21:23:00 | 54.802370 | 7.370058 | 2.0 | 15.976 | 2 | 41.352 | 16.137 | 32.617 | 2 |
| 2025-06-29T21:24:00 | 54.802513 | 7.369810 | 2.0 | 15.975 | 2 | 41.349 | 16.135 | 32.616 | 2 |
| 2025-06-29T21:25:00 | 54.802669 | 7.369579 | 2.0 | 15.980 | 2 | 41.347 | 16.134 | 32.615 | 2 |
| 2025-06-29T21:26:00 | 54.802820 | 7.369316 | 2.0 | 15.981 | 2 | 41.350 | 16.138 | 32.614 | 2 |
| 2025-06-29T21:27:00 | 54.802990 | 7.369035 | 2.0 | 15.983 | 2 | 41.351 | 16.139 | 32.614 | 2 |
| 2025-06-29T21:28:00 | 54.803146 | 7.368815 | 2.0 | 15.982 | 2 | 41.352 | 16.142 | 32.613 | 2 |
| 2025-06-29T21:29:00 | 54.803276 | 7.368593 | 2.0 | 15.983 | 2 | 41.351 | 16.140 | 32.613 | 2 |
| 2025-06-29T21:30:00 | 54.803433 | 7.368359 | 2.0 | 15.978 | 2 | 41.350 | 16.141 | 32.612 | 2 |
| 2025-06-29T21:31:00 | 54.803555 | 7.368162 | 2.0 | 15.981 | 2 | 41.346 | 16.138 | 32.611 | 2 |
| 2025-06-29T21:32:00 | 54.803659 | 7.368059 | 2.0 | 15.987 | 2 | 41.349 | 16.142 | 32.610 | 2 |
| 2025-06-29T21:33:00 | 54.803771 | 7.367949 | 2.0 | 15.987 | 2 | 41.348 | 16.146 | 32.606 | 2 |
| 2025-06-29T21:34:00 | 54.803892 | 7.367826 | 2.0 | 15.984 | 2 | 41.349 | 16.145 | 32.607 | 2 |
| 2025-06-29T21:35:00 | 54.804010 | 7.367649 | 2.0 | 15.985 | 2 | 41.349 | 16.144 | 32.608 | 2 |
| 2025-06-29T21:36:00 | 54.804143 | 7.367483 | 2.0 | 15.986 | 2 | 41.350 | 16.145 | 32.608 | 2 |
| 2025-06-29T21:37:00 | 54.804267 | 7.367297 | 2.0 | 15.979 | 2 | 41.347 | 16.143 | 32.607 | 2 |
| 2025-06-29T21:38:00 | 54.804403 | 7.367145 | 2.0 | 15.986 | 2 | 41.345 | 16.141 | 32.607 | 2 |
| 2025-06-29T21:39:00 | 54.804520 | 7.366972 | 2.0 | 15.982 | 2 | 41.348 | 16.144 | 32.607 | 2 |
| 2025-06-29T21:40:00 | 54.804638 | 7.366887 | 2.0 | 15.976 | 2 | 41.346 | 16.141 | 32.608 | 2 |
| 2025-06-29T21:41:00 | 54.804761 | 7.366769 | 2.0 | 15.979 | 2 | 41.342 | 16.137 | 32.608 | 2 |
| 2025-06-29T21:42:00 | 54.804890 | 7.366649 | 2.0 | 15.983 | 2 | 41.342 | 16.139 | 32.606 | 2 |
| 2025-06-29T21:43:00 | 54.805008 | 7.366503 | 2.0 | 15.981 | 2 | 41.346 | 16.143 | 32.606 | 2 |
| 2025-06-29T21:44:00 | 54.805142 | 7.366336 | 2.0 | 15.980 | 2 | 41.343 | 16.139 | 32.607 | 2 |
| 2025-06-29T21:45:00 | 54.805271 | 7.366214 | 2.0 | 15.982 | 2 | 41.343 | 16.140 | 32.606 | 2 |
| 2025-06-29T21:46:00 | 54.805402 | 7.366051 | 2.0 | 15.982 | 2 | 41.345 | 16.141 | 32.607 | 2 |
| 2025-06-29T21:47:00 | 54.805564 | 7.365861 | 2.0 | 15.978 | 2 | 41.345 | 16.141 | 32.607 | 2 |
| 2025-06-29T21:48:00 | 54.805724 | 7.365648 | 2.0 | 15.978 | 2 | 41.340 | 16.136 | 32.607 | 2 |
| 2025-06-29T21:49:00 | 54.805874 | 7.365488 | 2.0 | 15.975 | 2 | 41.340 | 16.137 | 32.606 | 2 |
| 2025-06-29T21:50:00 | 54.805997 | 7.365367 | 2.0 | 15.976 | 2 | 41.339 | 16.134 | 32.608 | 2 |
| 2025-06-29T21:51:00 | 54.806144 | 7.365287 | 2.0 | 15.979 | 2 | 41.340 | 16.137 | 32.606 | 2 |
| 2025-06-29T21:52:00 | 54.806248 | 7.365239 | 2.0 | 15.975 | 2 | 41.342 | 16.137 | 32.608 | 2 |
| 2025-06-29T21:53:00 | 54.806344 | 7.365213 | 2.0 | 15.969 | 2 | 41.338 | 16.134 | 32.607 | 2 |
| 2025-06-29T21:54:00 | 54.806421 | 7.365191 | 2.0 | 15.973 | 2 | 41.330 | 16.130 | 32.603 | 2 |
| 2025-06-29T21:55:00 | 54.806513 | 7.365200 | 2.0 | 15.975 | 2 | 41.332 | 16.133 | 32.602 | 2 |
| 2025-06-29T21:56:00 | 54.806613 | 7.365216 | 2.0 | 15.974 | 2 | 41.334 | 16.133 | 32.604 | 2 |
| 2025-06-29T21:57:00 | 54.806714 | 7.365168 | 2.0 | 15.974 | 2 | 41.336 | 16.134 | 32.605 | 2 |
| 2025-06-29T21:58:00 | 54.806846 | 7.365128 | 2.0 | 15.973 | 2 | 41.338 | 16.134 | 32.607 | 2 |
| 2025-06-29T21:59:00 | 54.806949 | 7.365094 | 2.0 | 15.971 | 2 | 41.330 | 16.133 | 32.601 | 2 |
| 2025-06-29T22:00:00 | 54.807047 | 7.365048 | 2.0 | 15.975 | 2 | 41.327 | 16.131 | 32.600 | 2 |
| 2025-06-29T22:01:00 | 54.807152 | 7.364982 | 2.0 | 15.974 | 2 | 41.329 | 16.135 | 32.598 | 2 |
| 2025-06-29T22:02:00 | 54.807254 | 7.364916 | 2.0 | 15.972 | 2 | 41.332 | 16.133 | 32.602 | 2 |
| 2025-06-29T22:03:00 | 54.807375 | 7.364872 | 2.0 | 15.970 | 2 | 41.333 | 16.130 | 32.606 | 2 |
| 2025-06-29T22:04:00 | 54.807501 | 7.364873 | 2.0 | 15.974 | 2 | 41.335 | 16.131 | 32.607 | 2 |
| 2025-06-29T22:05:00 | 54.807594 | 7.364887 | 2.0 | 15.976 | 2 | 41.341 | 16.134 | 32.609 | 2 |
| 2025-06-29T22:06:00 | 54.807700 | 7.364918 | 2.0 | 15.971 | 2 | 41.342 | 16.133 | 32.611 | 2 |
| 2025-06-29T22:07:00 | 54.807795 | 7.364896 | 2.0 | 15.977 | 2 | 41.342 | 16.133 | 32.611 | 2 |
| 2025-06-29T22:08:00 | 54.807903 | 7.364870 | 2.0 | 15.978 | 2 | 41.346 | 16.136 | 32.612 | 2 |
| 2025-06-29T22:09:00 | 54.807983 | 7.364825 | 2.0 | 15.978 | 2 | 41.348 | 16.137 | 32.613 | 2 |
| 2025-06-29T22:10:00 | 54.808088 | 7.364769 | 2.0 | 15.976 | 2 | 41.348 | 16.137 | 32.613 | 2 |
| 2025-06-29T22:11:00 | 54.808171 | 7.364741 | 2.0 | 15.976 | 2 | 41.348 | 16.136 | 32.614 | 2 |
| 2025-06-29T22:12:00 | 54.808274 | 7.364741 | 2.0 | 15.974 | 2 | 41.348 | 16.136 | 32.614 | 2 |
| 2025-06-29T22:13:00 | 54.808363 | 7.364733 | 2.0 | 15.975 | 2 | 41.347 | 16.134 | 32.615 | 2 |
| 2025-06-29T22:14:00 | 54.808458 | 7.364768 | 2.0 | 15.972 | 2 | 41.347 | 16.133 | 32.616 | 2 |
| 2025-06-29T22:15:00 | 54.808506 | 7.364826 | 2.0 | 15.979 | 2 | 41.348 | 16.134 | 32.616 | 2 |
| 2025-06-29T22:16:00 | 54.808575 | 7.364947 | 2.0 | 15.976 | 2 | 41.352 | 16.137 | 32.617 | 2 |
| 2025-06-29T22:17:00 | 54.808653 | 7.364967 | 2.0 | 15.973 | 2 | 41.350 | 16.135 | 32.617 | 2 |
| 2025-06-29T22:18:00 | 54.808755 | 7.364970 | 2.0 | 15.979 | 2 | 41.349 | 16.133 | 32.617 | 2 |
| 2025-06-29T22:19:00 | 54.808844 | 7.365001 | 2.0 | 15.976 | 2 | 41.353 | 16.138 | 32.617 | 2 |
| 2025-06-29T22:20:00 | 54.808922 | 7.365043 | 2.0 | 15.979 | 2 | 41.353 | 16.136 | 32.618 | 2 |
| 2025-06-29T22:21:00 | 54.809026 | 7.365031 | 2.0 | 15.980 | 2 | 41.355 | 16.138 | 32.618 | 2 |
| 2025-06-29T22:22:00 | 54.809113 | 7.365040 | 2.0 | 15.979 | 2 | 41.358 | 16.140 | 32.619 | 2 |
| 2025-06-29T22:23:00 | 54.809209 | 7.365051 | 2.0 | 15.976 | 2 | 41.356 | 16.137 | 32.620 | 2 |
| 2025-06-29T22:24:00 | 54.809315 | 7.365042 | 2.0 | 15.972 | 2 | 41.355 | 16.135 | 32.621 | 2 |
| 2025-06-29T22:25:00 | 54.809424 | 7.365050 | 2.0 | 15.969 | 2 | 41.351 | 16.132 | 32.620 | 2 |
| 2025-06-29T22:26:00 | 54.809522 | 7.365122 | 2.0 | 15.970 | 2 | 41.348 | 16.129 | 32.620 | 2 |
| 2025-06-29T22:27:00 | 54.809628 | 7.365192 | 2.0 | 15.970 | 2 | 41.351 | 16.131 | 32.621 | 2 |
| 2025-06-29T22:28:00 | 54.809749 | 7.365226 | 2.0 | 15.967 | 2 | 41.349 | 16.129 | 32.621 | 2 |
| 2025-06-29T22:29:00 | 54.809845 | 7.365344 | 2.0 | 15.966 | 2 | 41.349 | 16.127 | 32.622 | 2 |
| 2025-06-29T22:30:00 | 54.809893 | 7.365540 | 2.0 | 15.959 | 2 | 41.345 | 16.123 | 32.622 | 2 |
| 2025-06-29T22:31:00 | 54.809944 | 7.365700 | 2.0 | 15.957 | 2 | 41.337 | 16.117 | 32.620 | 2 |
| 2025-06-29T22:32:00 | 54.810017 | 7.365835 | 2.0 | 15.957 | 2 | 41.336 | 16.118 | 32.618 | 2 |
| 2025-06-29T22:33:00 | 54.810142 | 7.365871 | 2.0 | 15.952 | 2 | 41.334 | 16.115 | 32.619 | 2 |
| 2025-06-29T22:34:00 | 54.810276 | 7.365724 | 2.0 | 15.949 | 2 | 41.329 | 16.110 | 32.619 | 2 |
| 2025-06-29T22:35:00 | 54.810408 | 7.365482 | 2.0 | 15.952 | 2 | 41.329 | 16.110 | 32.619 | 2 |
| 2025-06-29T22:36:00 | 54.810543 | 7.365202 | 2.0 | 15.955 | 2 | 41.333 | 16.112 | 32.620 | 2 |
| 2025-06-29T22:37:00 | 54.810626 | 7.364886 | 2.0 | 15.955 | 2 | 41.336 | 16.114 | 32.621 | 2 |
| 2025-06-29T22:38:00 | 54.810716 | 7.364507 | 2.0 | 15.957 | 2 | 41.340 | 16.116 | 32.623 | 2 |
| 2025-06-29T22:39:00 | 54.810804 | 7.364162 | 2.0 | 15.952 | 2 | 41.343 | 16.115 | 32.627 | 2 |
| 2025-06-29T22:40:00 | 54.810891 | 7.363787 | 2.0 | 15.955 | 2 | 41.343 | 16.113 | 32.628 | 2 |
| 2025-06-29T22:41:00 | 54.810981 | 7.363326 | 2.0 | 15.947 | 2 | 41.345 | 16.113 | 32.630 | 2 |
| 2025-06-29T22:42:00 | 54.811106 | 7.362891 | 2.0 | 15.944 | 2 | 41.342 | 16.106 | 32.633 | 2 |
| 2025-06-29T22:43:00 | 54.811223 | 7.362526 | 2.0 | 15.937 | 2 | 41.341 | 16.102 | 32.636 | 2 |
| 2025-06-29T22:44:00 | 54.811331 | 7.362178 | 2.0 | 15.928 | 2 | 41.339 | 16.096 | 32.639 | 2 |
| 2025-06-29T22:45:00 | 54.811447 | 7.361789 | 2.0 | 15.915 | 2 | 41.332 | 16.085 | 32.642 | 2 |
| 2025-06-29T22:46:00 | 54.811586 | 7.361368 | 2.0 | 15.893 | 2 | 41.325 | 16.073 | 32.645 | 2 |
| 2025-06-29T22:47:00 | 54.811726 | 7.360946 | 2.0 | 15.865 | 2 | 41.311 | 16.049 | 32.653 | 2 |
| 2025-06-29T22:48:00 | 54.811866 | 7.360475 | 2.0 | 15.852 | 2 | 41.300 | 16.026 | 32.662 | 2 |
| 2025-06-29T22:49:00 | 54.812018 | 7.359974 | 2.0 | 15.843 | 2 | 41.295 | 16.012 | 32.669 | 2 |
| 2025-06-29T22:50:00 | 54.812183 | 7.359487 | 2.0 | 15.828 | 2 | 41.286 | 15.999 | 32.672 | 2 |
| 2025-06-29T22:51:00 | 54.812319 | 7.359000 | 2.0 | 15.824 | 2 | 41.279 | 15.990 | 32.673 | 2 |
| 2025-06-29T22:52:00 | 54.812455 | 7.358610 | 2.0 | 15.811 | 2 | 41.274 | 15.982 | 32.675 | 2 |
| 2025-06-29T22:53:00 | 54.812563 | 7.358215 | 2.0 | 15.812 | 2 | 41.266 | 15.973 | 32.676 | 2 |
| 2025-06-29T22:54:00 | 54.812659 | 7.357875 | 2.0 | 15.804 | 2 | 41.265 | 15.970 | 32.677 | 2 |
| 2025-06-29T22:55:00 | 54.812742 | 7.357595 | 2.0 | 15.802 | 2 | 41.261 | 15.965 | 32.678 | 2 |
| 2025-06-29T22:56:00 | 54.812802 | 7.357341 | 2.0 | 15.794 | 2 | 41.259 | 15.961 | 32.679 | 2 |
| 2025-06-29T22:57:00 | 54.812905 | 7.356996 | 2.0 | 15.792 | 2 | 41.254 | 15.955 | 32.680 | 2 |
| 2025-06-29T22:58:00 | 54.813015 | 7.356585 | 2.0 | 15.783 | 2 | 41.249 | 15.950 | 32.680 | 2 |
| 2025-06-29T22:59:00 | 54.813163 | 7.356105 | 2.0 | 15.779 | 2 | 41.245 | 15.944 | 32.681 | 2 |
| 2025-06-29T23:00:00 | 54.813311 | 7.355666 | 2.0 | 15.776 | 2 | 41.241 | 15.940 | 32.681 | 2 |
| 2025-06-29T23:01:00 | 54.813448 | 7.355276 | 2.0 | 15.765 | 2 | 41.239 | 15.937 | 32.682 | 2 |
| 2025-06-29T23:02:00 | 54.813594 | 7.354839 | 2.0 | 15.765 | 2 | 41.231 | 15.926 | 32.684 | 2 |
| 2025-06-29T23:03:00 | 54.813720 | 7.354366 | 2.0 | 15.767 | 2 | 41.229 | 15.926 | 32.682 | 2 |
| 2025-06-29T23:04:00 | 54.813836 | 7.353955 | 2.0 | 15.765 | 2 | 41.233 | 15.928 | 32.684 | 2 |
| 2025-06-29T23:05:00 | 54.813940 | 7.353556 | 2.0 | 15.761 | 2 | 41.231 | 15.925 | 32.684 | 2 |
| 2025-06-29T23:06:00 | 54.813990 | 7.353303 | 2.0 | 15.757 | 2 | 41.229 | 15.920 | 32.687 | 2 |
| 2025-06-29T23:07:00 | 54.814090 | 7.352955 | 2.0 | 15.755 | 2 | 41.226 | 15.918 | 32.686 | 2 |
| 2025-06-29T23:08:00 | 54.814217 | 7.352568 | 2.0 | 15.753 | 2 | 41.225 | 15.916 | 32.686 | 2 |
| 2025-06-29T23:09:00 | 54.814377 | 7.352076 | 2.0 | 15.746 | 2 | 41.223 | 15.913 | 32.687 | 2 |
| 2025-06-29T23:10:00 | 54.814528 | 7.351691 | 2.0 | 15.746 | 2 | 41.218 | 15.908 | 32.687 | 2 |
| 2025-06-29T23:11:00 | 54.814667 | 7.351261 | 2.0 | 15.743 | 2 | 41.219 | 15.908 | 32.688 | 2 |
| 2025-06-29T23:12:00 | 54.814802 | 7.350807 | 2.0 | 15.740 | 2 | 41.215 | 15.902 | 32.689 | 2 |
| 2025-06-29T23:13:00 | 54.814916 | 7.350391 | 2.0 | 15.742 | 2 | 41.214 | 15.903 | 32.687 | 2 |
| 2025-06-29T23:14:00 | 54.815018 | 7.349985 | 2.0 | 15.738 | 2 | 41.215 | 15.902 | 32.689 | 2 |
| 2025-06-29T23:15:00 | 54.815130 | 7.349523 | 2.0 | 15.735 | 2 | 41.212 | 15.897 | 32.691 | 2 |
| 2025-06-29T23:16:00 | 54.815295 | 7.349038 | 2.0 | 15.731 | 2 | 41.208 | 15.895 | 32.689 | 2 |
| 2025-06-29T23:17:00 | 54.815390 | 7.348620 | 2.0 | 15.728 | 2 | 41.204 | 15.891 | 32.689 | 2 |
| 2025-06-29T23:18:00 | 54.815500 | 7.348244 | 2.0 | 15.734 | 2 | 41.205 | 15.891 | 32.689 | 2 |
| 2025-06-29T23:19:00 | 54.815618 | 7.347860 | 2.0 | 15.727 | 2 | 41.209 | 15.894 | 32.690 | 2 |
| 2025-06-29T23:20:00 | 54.815704 | 7.347441 | 2.0 | 15.730 | 2 | 41.207 | 15.890 | 32.692 | 2 |
| 2025-06-29T23:21:00 | 54.815807 | 7.347091 | 2.0 | 15.725 | 2 | 41.208 | 15.889 | 32.694 | 2 |
| 2025-06-29T23:22:00 | 54.815912 | 7.346703 | 2.0 | 15.727 | 2 | 41.205 | 15.887 | 32.693 | 2 |
| 2025-06-29T23:23:00 | 54.816016 | 7.346300 | 2.0 | 15.726 | 2 | 41.207 | 15.888 | 32.694 | 2 |
| 2025-06-29T23:24:00 | 54.816100 | 7.345758 | 2.0 | 15.726 | 2 | 41.208 | 15.888 | 32.695 | 2 |
| 2025-06-29T23:25:00 | 54.816178 | 7.345140 | 2.0 | 15.720 | 2 | 41.206 | 15.885 | 32.695 | 2 |
| 2025-06-29T23:26:00 | 54.816276 | 7.344495 | 2.0 | 15.719 | 2 | 41.203 | 15.881 | 32.696 | 2 |
| 2025-06-29T23:27:00 | 54.816346 | 7.343857 | 2.0 | 15.717 | 2 | 41.201 | 15.879 | 32.696 | 2 |
| 2025-06-29T23:28:00 | 54.816361 | 7.343290 | 2.0 | 15.717 | 2 | 41.202 | 15.878 | 32.697 | 2 |
| 2025-06-29T23:29:00 | 54.816420 | 7.342727 | 2.0 | 15.716 | 2 | 41.204 | 15.878 | 32.699 | 2 |
| 2025-06-29T23:30:00 | 54.816471 | 7.342123 | 2.0 | 15.712 | 2 | 41.202 | 15.876 | 32.699 | 2 |
| 2025-06-29T23:31:00 | 54.816550 | 7.341510 | 2.0 | 15.708 | 2 | 41.199 | 15.873 | 32.699 | 2 |
| 2025-06-29T23:32:00 | 54.816640 | 7.340883 | 2.0 | 15.709 | 2 | 41.197 | 15.870 | 32.700 | 2 |
| 2025-06-29T23:33:00 | 54.816710 | 7.340265 | 2.0 | 15.710 | 2 | 41.199 | 15.870 | 32.701 | 2 |
| 2025-06-29T23:34:00 | 54.816760 | 7.339737 | 2.0 | 15.704 | 2 | 41.198 | 15.869 | 32.701 | 2 |
| 2025-06-29T23:35:00 | 54.816769 | 7.339276 | 2.0 | 15.707 | 2 | 41.196 | 15.866 | 32.702 | 2 |
| 2025-06-29T23:36:00 | 54.816767 | 7.338805 | 2.0 | 15.703 | 2 | 41.198 | 15.868 | 32.702 | 2 |
| 2025-06-29T23:37:00 | 54.816799 | 7.338400 | 2.0 | 15.705 | 2 | 41.196 | 15.864 | 32.704 | 2 |
| 2025-06-29T23:38:00 | 54.816830 | 7.337952 | 2.0 | 15.704 | 2 | 41.197 | 15.865 | 32.704 | 2 |
| 2025-06-29T23:39:00 | 54.816876 | 7.337513 | 2.0 | 15.704 | 2 | 41.197 | 15.864 | 32.705 | 2 |
| 2025-06-29T23:40:00 | 54.816929 | 7.337049 | 2.0 | 15.700 | 2 | 41.200 | 15.866 | 32.706 | 2 |
| 2025-06-29T23:41:00 | 54.816994 | 7.336604 | 2.0 | 15.699 | 2 | 41.197 | 15.860 | 32.708 | 2 |
| 2025-06-29T23:42:00 | 54.817013 | 7.336168 | 2.0 | 15.695 | 2 | 41.197 | 15.858 | 32.710 | 2 |
| 2025-06-29T23:43:00 | 54.817072 | 7.335756 | 2.0 | 15.691 | 2 | 41.196 | 15.854 | 32.712 | 2 |
| 2025-06-29T23:44:00 | 54.817103 | 7.335316 | 2.0 | 15.687 | 2 | 41.195 | 15.852 | 32.713 | 2 |
| 2025-06-29T23:45:00 | 54.817135 | 7.334952 | 2.0 | 15.682 | 2 | 41.194 | 15.846 | 32.717 | 2 |
| 2025-06-29T23:46:00 | 54.817154 | 7.334582 | 2.0 | 15.683 | 2 | 41.191 | 15.843 | 32.717 | 2 |
| 2025-06-29T23:47:00 | 54.817192 | 7.334197 | 2.0 | 15.681 | 2 | 41.193 | 15.843 | 32.718 | 2 |
| 2025-06-29T23:48:00 | 54.817241 | 7.333753 | 2.0 | 15.678 | 2 | 41.192 | 15.841 | 32.719 | 2 |
| 2025-06-29T23:49:00 | 54.817285 | 7.333270 | 2.0 | 15.675 | 2 | 41.188 | 15.838 | 32.718 | 2 |
| 2025-06-29T23:50:00 | 54.817324 | 7.332845 | 2.0 | 15.671 | 2 | 41.187 | 15.835 | 32.720 | 2 |
| 2025-06-29T23:51:00 | 54.817381 | 7.332411 | 2.0 | 15.675 | 2 | 41.186 | 15.833 | 32.720 | 2 |
| 2025-06-29T23:52:00 | 54.817482 | 7.332022 | 2.0 | 15.684 | 2 | 41.188 | 15.837 | 32.719 | 2 |
| 2025-06-29T23:53:00 | 54.817574 | 7.331685 | 2.0 | 15.688 | 2 | 41.199 | 15.846 | 32.721 | 2 |
| 2025-06-29T23:54:00 | 54.817665 | 7.331360 | 2.0 | 15.689 | 2 | 41.204 | 15.848 | 32.724 | 2 |
| 2025-06-29T23:55:00 | 54.817759 | 7.331047 | 2.0 | 15.685 | 2 | 41.207 | 15.849 | 32.726 | 2 |
| 2025-06-29T23:56:00 | 54.817834 | 7.330653 | 2.0 | 15.685 | 2 | 41.204 | 15.844 | 32.727 | 2 |
| 2025-06-29T23:57:00 | 54.817900 | 7.330248 | 2.0 | 15.690 | 2 | 41.205 | 15.848 | 32.725 | 2 |
| 2025-06-29T23:58:00 | 54.817932 | 7.329874 | 2.0 | 15.695 | 2 | 41.209 | 15.850 | 32.727 | 2 |
| 2025-06-29T23:59:00 | 54.817961 | 7.329482 | 2.0 | 15.695 | 2 | 41.219 | 15.856 | 32.731 | 2 |
| 2025-06-30T00:00:00 | 54.817995 | 7.329067 | 2.0 | 15.693 | 2 | 41.220 | 15.854 | 32.733 | 2 |
| 2025-06-30T00:01:00 | 54.818067 | 7.328638 | 2.0 | 15.696 | 2 | 41.220 | 15.854 | 32.733 | 2 |
| 2025-06-30T00:02:00 | 54.818114 | 7.328274 | 2.0 | 15.701 | 2 | 41.225 | 15.858 | 32.734 | 2 |
| 2025-06-30T00:03:00 | 54.818138 | 7.327912 | 2.0 | 15.695 | 2 | 41.230 | 15.860 | 32.737 | 2 |
| 2025-06-30T00:04:00 | 54.818166 | 7.327578 | 2.0 | 15.691 | 2 | 41.225 | 15.855 | 32.737 | 2 |
| 2025-06-30T00:05:00 | 54.818155 | 7.327207 | 2.0 | 15.691 | 2 | 41.221 | 15.851 | 32.737 | 2 |
| 2025-06-30T00:06:00 | 54.818206 | 7.326863 | 2.0 | 15.701 | 2 | 41.222 | 15.853 | 32.736 | 2 |
| 2025-06-30T00:07:00 | 54.818225 | 7.326478 | 2.0 | 15.710 | 2 | 41.235 | 15.863 | 32.739 | 2 |
| 2025-06-30T00:08:00 | 54.818277 | 7.326122 | 2.0 | 15.716 | 2 | 41.244 | 15.871 | 32.740 | 2 |
| 2025-06-30T00:09:00 | 54.818315 | 7.325710 | 2.0 | 15.721 | 2 | 41.249 | 15.876 | 32.741 | 2 |
| 2025-06-30T00:10:00 | 54.818393 | 7.325330 | 2.0 | 15.724 | 2 | 41.254 | 15.881 | 32.741 | 2 |
| 2025-06-30T00:11:00 | 54.818428 | 7.324895 | 2.0 | 15.732 | 2 | 41.258 | 15.886 | 32.740 | 2 |
| 2025-06-30T00:12:00 | 54.818448 | 7.324552 | 2.0 | 15.732 | 2 | 41.263 | 15.891 | 32.741 | 2 |
| 2025-06-30T00:13:00 | 54.818464 | 7.324177 | 2.0 | 15.729 | 2 | 41.264 | 15.892 | 32.741 | 2 |
| 2025-06-30T00:14:00 | 54.818463 | 7.323810 | 2.0 | 15.724 | 2 | 41.260 | 15.888 | 32.741 | 2 |
| 2025-06-30T00:15:00 | 54.818481 | 7.323497 | 2.0 | 15.733 | 2 | 41.256 | 15.886 | 32.739 | 2 |
| 2025-06-30T00:16:00 | 54.818462 | 7.323137 | 2.0 | 15.748 | 2 | 41.269 | 15.896 | 32.742 | 2 |
| 2025-06-30T00:17:00 | 54.818489 | 7.322754 | 2.0 | 15.761 | 2 | 41.283 | 15.909 | 32.744 | 2 |
| 2025-06-30T00:18:00 | 54.818520 | 7.322296 | 2.0 | 15.773 | 2 | 41.299 | 15.922 | 32.747 | 2 |
| 2025-06-30T00:19:00 | 54.818523 | 7.321926 | 2.0 | 15.781 | 2 | 41.315 | 15.935 | 32.750 | 2 |
| 2025-06-30T00:20:00 | 54.818547 | 7.321511 | 2.0 | 15.788 | 2 | 41.325 | 15.941 | 32.754 | 2 |
| 2025-06-30T00:21:00 | 54.818575 | 7.321136 | 2.0 | 15.779 | 2 | 41.330 | 15.944 | 32.756 | 2 |
| 2025-06-30T00:22:00 | 54.818576 | 7.320738 | 2.0 | 15.771 | 2 | 41.325 | 15.937 | 32.758 | 2 |
| 2025-06-30T00:23:00 | 54.818602 | 7.320387 | 2.0 | 15.764 | 2 | 41.319 | 15.929 | 32.759 | 2 |
| 2025-06-30T00:24:00 | 54.818605 | 7.320032 | 2.0 | 15.752 | 2 | 41.314 | 15.922 | 32.760 | 2 |
| 2025-06-30T00:25:00 | 54.818643 | 7.319562 | 2.0 | 15.741 | 2 | 41.300 | 15.911 | 32.757 | 2 |
| 2025-06-30T00:26:00 | 54.818678 | 7.319092 | 2.0 | 15.739 | 2 | 41.290 | 15.902 | 32.756 | 2 |
| 2025-06-30T00:27:00 | 54.818720 | 7.318690 | 2.0 | 15.738 | 2 | 41.290 | 15.900 | 32.757 | 2 |
| 2025-06-30T00:28:00 | 54.818740 | 7.318249 | 2.0 | 15.738 | 2 | 41.291 | 15.898 | 32.760 | 2 |
| 2025-06-30T00:29:00 | 54.818778 | 7.317792 | 2.0 | 15.736 | 2 | 41.291 | 15.897 | 32.761 | 2 |
| 2025-06-30T00:30:00 | 54.818803 | 7.317354 | 2.0 | 15.735 | 2 | 41.292 | 15.896 | 32.762 | 2 |
| 2025-06-30T00:31:00 | 54.818833 | 7.316910 | 2.0 | 15.723 | 2 | 41.291 | 15.894 | 32.763 | 2 |
| 2025-06-30T00:32:00 | 54.818832 | 7.316403 | 2.0 | 15.714 | 2 | 41.283 | 15.882 | 32.766 | 2 |
| 2025-06-30T00:33:00 | 54.818893 | 7.315939 | 2.0 | 15.709 | 2 | 41.276 | 15.874 | 32.766 | 2 |
| 2025-06-30T00:34:00 | 54.818935 | 7.315430 | 2.0 | 15.697 | 2 | 41.275 | 15.868 | 32.770 | 2 |
| 2025-06-30T00:35:00 | 54.818970 | 7.314888 | 2.0 | 15.671 | 2 | 41.272 | 15.855 | 32.779 | 2 |
| 2025-06-30T00:36:00 | 54.819034 | 7.314373 | 2.0 | 15.661 | 2 | 41.264 | 15.827 | 32.795 | 2 |
| 2025-06-30T00:37:00 | 54.819060 | 7.313840 | 2.0 | 15.660 | 2 | 41.268 | 15.821 | 32.803 | 2 |
| 2025-06-30T00:38:00 | 54.819130 | 7.313287 | 2.0 | 15.645 | 2 | 41.274 | 15.821 | 32.808 | 2 |
| 2025-06-30T00:39:00 | 54.819156 | 7.312750 | 2.0 | 15.631 | 2 | 41.265 | 15.804 | 32.815 | 2 |
| 2025-06-30T00:40:00 | 54.819194 | 7.312237 | 2.0 | 15.476 | 2 | 41.248 | 15.773 | 32.825 | 2 |
| 2025-06-30T00:41:00 | 54.819231 | 7.311764 | 2.0 | 15.402 | 2 | 41.103 | 15.615 | 32.828 | 2 |
| 2025-06-30T00:42:00 | 54.819279 | 7.311293 | 2.0 | 15.450 | 2 | 41.087 | 15.574 | 32.848 | 2 |
| 2025-06-30T00:43:00 | 54.819359 | 7.310801 | 2.0 | 15.430 | 2 | 40.991 | 15.605 | 32.736 | 2 |
| 2025-06-30T00:44:00 | 54.819440 | 7.310298 | 2.0 | 15.409 | 2 | 41.103 | 15.595 | 32.844 | 2 |
| 2025-06-30T00:45:00 | 54.819552 | 7.309765 | 2.0 | 15.362 | 2 | 41.083 | 15.565 | 32.851 | 2 |
| 2025-06-30T00:46:00 | 54.819646 | 7.309247 | 2.0 | 15.392 | 2 | 40.983 | 15.536 | 32.786 | 2 |
| 2025-06-30T00:47:00 | 54.819742 | 7.308721 | 2.0 | 15.369 | 2 | 41.065 | 15.551 | 32.847 | 2 |
| 2025-06-30T00:48:00 | 54.819827 | 7.308209 | 2.0 | 15.376 | 2 | 41.047 | 15.527 | 32.851 | 2 |
| 2025-06-30T00:49:00 | 54.819928 | 7.307702 | 2.0 | 15.385 | 2 | 40.841 | 15.549 | 32.649 | 2 |
| 2025-06-30T00:51:00 | 54.820086 | 7.306765 | 2.0 | 15.371 | 2 | 40.990 | 15.545 | 32.785 | 2 |
| 2025-06-30T00:52:00 | 54.820165 | 7.306326 | 2.0 | 15.389 | 2 | 41.057 | 15.537 | 32.852 | 2 |
| 2025-06-30T00:54:00 | 54.820297 | 7.305494 | 2.0 | 15.380 | 2 | 40.813 | 15.551 | 32.622 | 2 |
| 2025-06-30T00:55:00 | 54.820352 | 7.305073 | 2.0 | 15.387 | 2 | 41.062 | 15.544 | 32.850 | 2 |
| 2025-06-30T00:56:00 | 54.820440 | 7.304608 | 2.0 | 15.357 | 2 | 40.702 | 15.542 | 32.531 | 2 |
| 2025-06-30T00:57:00 | 54.820547 | 7.304095 | 2.0 | 15.352 | 2 | 40.688 | 15.522 | 32.535 | 2 |
| 2025-06-30T00:58:00 | 54.820656 | 7.303523 | 2.0 | 15.348 | 2 | 40.860 | 15.512 | 32.696 | 2 |
| 2025-06-30T00:59:00 | 54.820763 | 7.302968 | 2.0 | 15.335 | 2 | 41.038 | 15.511 | 32.856 | 2 |
| 2025-06-30T01:00:00 | 54.820875 | 7.302402 | 2.0 | 15.332 | 2 | 40.901 | 15.495 | 32.747 | 2 |
| 2025-06-30T01:01:00 | 54.821011 | 7.301811 | 2.0 | 15.371 | 2 | 40.702 | 15.504 | 32.562 | 2 |
| 2025-06-30T01:02:00 | 54.821129 | 7.301257 | 2.0 | 15.336 | 2 | 40.893 | 15.525 | 32.715 | 2 |
| 2025-06-30T01:03:00 | 54.821252 | 7.300664 | 2.0 | 15.317 | 2 | 41.017 | 15.496 | 32.850 | 2 |
| 2025-06-30T01:04:00 | 54.821381 | 7.300071 | 2.0 | 15.332 | 2 | 40.839 | 15.482 | 32.703 | 2 |
| 2025-06-30T01:05:00 | 54.821501 | 7.299453 | 2.0 | 15.351 | 2 | 40.731 | 15.492 | 32.598 | 2 |
| 2025-06-30T01:06:00 | 54.821632 | 7.298786 | 2.0 | 15.359 | 2 | 40.733 | 15.518 | 32.578 | 2 |
| 2025-06-30T01:07:00 | 54.821768 | 7.298149 | 2.0 | 15.373 | 2 | 40.848 | 15.524 | 32.676 | 2 |
| 2025-06-30T01:08:00 | 54.821878 | 7.297595 | 2.0 | 15.367 | 2 | 40.804 | 15.531 | 32.631 | 2 |
| 2025-06-30T01:09:00 | 54.821974 | 7.297035 | 2.0 | 15.352 | 2 | 40.698 | 15.527 | 32.539 | 2 |
| 2025-06-30T01:10:00 | 54.822086 | 7.296541 | 2.0 | 15.339 | 2 | 41.035 | 15.511 | 32.854 | 2 |
| 2025-06-30T01:11:00 | 54.822196 | 7.296037 | 2.0 | 15.331 | 2 | 40.918 | 15.502 | 32.757 | 2 |
| 2025-06-30T01:12:00 | 54.822326 | 7.295466 | 2.0 | 15.340 | 2 | 40.871 | 15.493 | 32.722 | 2 |
| 2025-06-30T01:14:00 | 54.822574 | 7.294292 | 2.0 | 15.370 | 2 | 41.003 | 15.532 | 32.808 | 2 |
| 2025-06-30T01:15:00 | 54.822714 | 7.293691 | 2.0 | 15.344 | 2 | 40.840 | 15.529 | 32.665 | 2 |
| 2025-06-30T01:16:00 | 54.822860 | 7.293071 | 2.0 | 15.340 | 2 | 40.891 | 15.509 | 32.727 | 2 |
| 2025-06-30T01:17:00 | 54.823031 | 7.292435 | 2.0 | 15.319 | 2 | 40.812 | 15.498 | 32.665 | 2 |
| 2025-06-30T01:18:00 | 54.823187 | 7.291806 | 2.0 | 15.297 | 2 | 40.895 | 15.478 | 32.756 | 2 |
| 2025-06-30T01:19:00 | 54.823355 | 7.291175 | 2.0 | 15.303 | 2 | 40.894 | 15.463 | 32.768 | 2 |
| 2025-06-30T01:20:00 | 54.823510 | 7.290523 | 2.0 | 15.306 | 2 | 40.821 | 15.466 | 32.700 | 2 |
| 2025-06-30T01:21:00 | 54.823649 | 7.289968 | 2.0 | 15.306 | 2 | 40.812 | 15.468 | 32.690 | 2 |
| 2025-06-30T01:22:00 | 54.823776 | 7.289441 | 2.0 | 15.313 | 2 | 40.729 | 15.472 | 32.613 | 2 |
| 2025-06-30T01:23:00 | 54.823879 | 7.288904 | 2.0 | 15.307 | 2 | 40.761 | 15.473 | 32.640 | 2 |
| 2025-06-30T01:24:00 | 54.823978 | 7.288438 | 2.0 | 15.304 | 2 | 40.741 | 15.468 | 32.627 | 2 |
| 2025-06-30T01:25:00 | 54.824087 | 7.287981 | 2.0 | 15.315 | 2 | 40.790 | 15.469 | 32.670 | 2 |
| 2025-06-30T01:26:00 | 54.824173 | 7.287420 | 2.0 | 15.310 | 2 | 40.784 | 15.476 | 32.658 | 2 |
| 2025-06-30T01:27:00 | 54.824314 | 7.286884 | 2.0 | 15.300 | 2 | 40.844 | 15.471 | 32.716 | 2 |
| 2025-06-30T01:28:00 | 54.824429 | 7.286312 | 2.0 | 15.305 | 2 | 40.818 | 15.463 | 32.700 | 2 |
| 2025-06-30T01:29:00 | 54.824513 | 7.285858 | 2.0 | 15.293 | 2 | 40.813 | 15.466 | 32.693 | 2 |
| 2025-06-30T01:30:00 | 54.824571 | 7.285440 | 2.0 | 15.291 | 2 | 40.838 | 15.456 | 32.723 | 2 |
| 2025-06-30T01:31:00 | 54.824675 | 7.285035 | 2.0 | 15.296 | 2 | 40.806 | 15.454 | 32.696 | 2 |
| 2025-06-30T01:32:00 | 54.824785 | 7.284596 | 2.0 | 15.293 | 2 | 40.848 | 15.458 | 32.731 | 2 |
| 2025-06-30T01:33:00 | 54.824878 | 7.284163 | 2.0 | 15.284 | 2 | 40.800 | 15.454 | 32.691 | 2 |
| 2025-06-30T01:34:00 | 54.824975 | 7.283659 | 2.0 | 15.282 | 2 | 40.848 | 15.446 | 32.741 | 2 |
| 2025-06-30T01:35:00 | 54.825084 | 7.283127 | 2.0 | 15.279 | 2 | 40.842 | 15.445 | 32.736 | 2 |
| 2025-06-30T01:36:00 | 54.825182 | 7.282630 | 2.0 | 15.278 | 2 | 40.837 | 15.442 | 32.734 | 2 |
| 2025-06-30T01:37:00 | 54.825266 | 7.282164 | 2.0 | 15.275 | 2 | 40.884 | 15.440 | 32.778 | 2 |
| 2025-06-30T01:38:00 | 54.825352 | 7.281687 | 2.0 | 15.278 | 2 | 40.838 | 15.437 | 32.739 | 2 |
| 2025-06-30T01:39:00 | 54.825451 | 7.281150 | 2.0 | 15.278 | 2 | 40.879 | 15.440 | 32.773 | 2 |
| 2025-06-30T01:40:00 | 54.825501 | 7.280648 | 2.0 | 15.278 | 2 | 40.915 | 15.441 | 32.805 | 2 |
| 2025-06-30T01:41:00 | 54.825565 | 7.280191 | 2.0 | 15.279 | 2 | 40.899 | 15.441 | 32.790 | 2 |
| 2025-06-30T01:42:00 | 54.825649 | 7.279700 | 2.0 | 15.274 | 2 | 40.915 | 15.440 | 32.806 | 2 |
| 2025-06-30T01:43:00 | 54.825719 | 7.279307 | 2.0 | 15.273 | 2 | 40.907 | 15.437 | 32.801 | 2 |
| 2025-06-30T01:44:00 | 54.825754 | 7.278992 | 2.0 | 15.268 | 2 | 40.917 | 15.437 | 32.810 | 2 |
| 2025-06-30T01:45:00 | 54.825760 | 7.278708 | 2.0 | 15.267 | 2 | 40.923 | 15.430 | 32.821 | 2 |
| 2025-06-30T01:46:00 | 54.825781 | 7.278430 | 2.0 | 15.264 | 2 | 40.917 | 15.429 | 32.817 | 2 |
| 2025-06-30T01:47:00 | 54.825793 | 7.278202 | 2.0 | 15.264 | 2 | 40.955 | 15.427 | 32.852 | 2 |
| 2025-06-30T01:48:00 | 54.825786 | 7.277973 | 2.0 | 15.261 | 2 | 40.926 | 15.425 | 32.828 | 2 |
| 2025-06-30T01:49:00 | 54.825800 | 7.277721 | 2.0 | 15.263 | 2 | 40.945 | 15.424 | 32.846 | 2 |
| 2025-06-30T01:50:00 | 54.825804 | 7.277464 | 2.0 | 15.276 | 2 | 40.948 | 15.429 | 32.844 | 2 |
| 2025-06-30T01:51:00 | 54.825759 | 7.277272 | 2.0 | 15.273 | 2 | 40.989 | 15.437 | 32.874 | 2 |
| 2025-06-30T01:52:00 | 54.825715 | 7.277061 | 2.0 | 15.269 | 2 | 41.002 | 15.433 | 32.889 | 2 |
| 2025-06-30T01:53:00 | 54.825697 | 7.276848 | 2.0 | 15.281 | 2 | 41.007 | 15.436 | 32.891 | 2 |
| 2025-06-30T01:54:00 | 54.825727 | 7.276631 | 2.0 | 15.274 | 2 | 41.006 | 15.441 | 32.886 | 2 |
| 2025-06-30T01:55:00 | 54.825782 | 7.276407 | 2.0 | 15.268 | 2 | 40.997 | 15.435 | 32.883 | 2 |
| 2025-06-30T01:56:00 | 54.825855 | 7.276156 | 2.0 | 15.270 | 2 | 41.000 | 15.431 | 32.889 | 2 |
| 2025-06-30T01:57:00 | 54.825936 | 7.275988 | 2.0 | 15.267 | 2 | 41.003 | 15.430 | 32.893 | 2 |
| 2025-06-30T01:58:00 | 54.826009 | 7.275839 | 2.0 | 15.287 | 2 | 41.019 | 15.435 | 32.903 | 2 |
| 2025-06-30T01:59:00 | 54.826080 | 7.275650 | 2.0 | 15.278 | 2 | 41.037 | 15.449 | 32.907 | 2 |
| 2025-06-30T02:00:00 | 54.826146 | 7.275446 | 2.0 | 15.283 | 2 | 41.030 | 15.442 | 32.907 | 2 |
| 2025-06-30T02:01:00 | 54.826237 | 7.275214 | 2.0 | 15.288 | 2 | 41.044 | 15.446 | 32.916 | 2 |
| 2025-06-30T02:02:00 | 54.826326 | 7.274939 | 2.0 | 15.289 | 2 | 41.042 | 15.450 | 32.911 | 2 |
| 2025-06-30T02:03:00 | 54.826413 | 7.274611 | 2.0 | 15.283 | 2 | 41.053 | 15.450 | 32.921 | 2 |
| 2025-06-30T02:04:00 | 54.826514 | 7.274289 | 2.0 | 15.290 | 2 | 41.049 | 15.447 | 32.920 | 2 |
| 2025-06-30T02:05:00 | 54.826604 | 7.274038 | 2.0 | 15.282 | 2 | 41.059 | 15.451 | 32.925 | 2 |
| 2025-06-30T02:06:00 | 54.826685 | 7.273796 | 2.0 | 15.273 | 2 | 41.048 | 15.442 | 32.923 | 2 |
| 2025-06-30T02:07:00 | 54.826766 | 7.273573 | 2.0 | 15.279 | 2 | 41.040 | 15.436 | 32.921 | 2 |
| 2025-06-30T02:08:00 | 54.826857 | 7.273329 | 2.0 | 15.282 | 2 | 41.048 | 15.442 | 32.923 | 2 |
| 2025-06-30T02:09:00 | 54.826959 | 7.273081 | 2.0 | 15.306 | 2 | 41.051 | 15.444 | 32.924 | 2 |
| 2025-06-30T02:10:00 | 54.827065 | 7.272818 | 2.0 | 15.319 | 2 | 41.083 | 15.474 | 32.927 | 2 |
| 2025-06-30T02:11:00 | 54.827173 | 7.272557 | 2.0 | 15.314 | 2 | 41.093 | 15.480 | 32.931 | 2 |
| 2025-06-30T02:12:00 | 54.827256 | 7.272306 | 2.0 | 15.309 | 2 | 41.089 | 15.476 | 32.931 | 2 |
| 2025-06-30T02:13:00 | 54.827361 | 7.272103 | 2.0 | 15.308 | 2 | 41.077 | 15.470 | 32.925 | 2 |
| 2025-06-30T02:14:00 | 54.827456 | 7.271934 | 2.0 | 15.313 | 2 | 41.030 | 15.470 | 32.883 | 2 |
| 2025-06-30T02:15:00 | 54.827508 | 7.271827 | 2.0 | 15.311 | 2 | 41.068 | 15.476 | 32.912 | 2 |
| 2025-06-30T02:16:00 | 54.827569 | 7.271707 | 2.0 | 15.304 | 2 | 41.068 | 15.471 | 32.917 | 2 |
| 2025-06-30T02:17:00 | 54.827665 | 7.271509 | 2.0 | 15.292 | 2 | 41.062 | 15.464 | 32.917 | 2 |
| 2025-06-30T02:18:00 | 54.827769 | 7.271279 | 2.0 | 15.301 | 2 | 41.056 | 15.453 | 32.921 | 2 |
| 2025-06-30T02:19:00 | 54.827883 | 7.271016 | 2.0 | 15.321 | 2 | 41.080 | 15.469 | 32.929 | 2 |
| 2025-06-30T02:20:00 | 54.827998 | 7.270751 | 2.0 | 15.307 | 2 | 41.094 | 15.481 | 32.931 | 2 |
| 2025-06-30T02:21:00 | 54.828126 | 7.270469 | 2.0 | 15.318 | 2 | 41.087 | 15.471 | 32.934 | 2 |
| 2025-06-30T02:22:00 | 54.828255 | 7.270158 | 2.0 | 15.316 | 2 | 41.098 | 15.480 | 32.936 | 2 |
| 2025-06-30T02:23:00 | 54.828370 | 7.269845 | 2.0 | 15.309 | 2 | 41.094 | 15.476 | 32.936 | 2 |
| 2025-06-30T02:24:00 | 54.828469 | 7.269584 | 2.0 | 15.305 | 2 | 41.088 | 15.469 | 32.936 | 2 |
| 2025-06-30T02:25:00 | 54.828550 | 7.269342 | 2.0 | 15.301 | 2 | 41.083 | 15.465 | 32.935 | 2 |
| 2025-06-30T02:26:00 | 54.828652 | 7.269061 | 2.0 | 15.298 | 2 | 41.081 | 15.463 | 32.935 | 2 |
| 2025-06-30T02:27:00 | 54.828776 | 7.268740 | 2.0 | 15.308 | 2 | 41.074 | 15.457 | 32.934 | 2 |
| 2025-06-30T02:28:00 | 54.828897 | 7.268377 | 2.0 | 15.304 | 2 | 41.088 | 15.470 | 32.935 | 2 |
| 2025-06-30T02:29:00 | 54.829023 | 7.268028 | 2.0 | 15.324 | 2 | 41.089 | 15.471 | 32.935 | 2 |
| 2025-06-30T02:30:00 | 54.829104 | 7.267693 | 2.0 | 15.348 | 2 | 41.108 | 15.488 | 32.938 | 2 |
| 2025-06-30T02:31:00 | 54.829172 | 7.267390 | 2.0 | 15.346 | 2 | 41.131 | 15.508 | 32.942 | 2 |
| 2025-06-30T02:32:00 | 54.829235 | 7.267088 | 2.0 | 15.369 | 2 | 41.138 | 15.513 | 32.944 | 2 |
| 2025-06-30T02:33:00 | 54.829296 | 7.266827 | 2.0 | 15.364 | 2 | 41.153 | 15.528 | 32.945 | 2 |
| 2025-06-30T02:34:00 | 54.829334 | 7.266625 | 2.0 | 15.360 | 2 | 41.152 | 15.525 | 32.946 | 2 |
| 2025-06-30T02:35:00 | 54.829382 | 7.266397 | 2.0 | 15.358 | 2 | 41.148 | 15.521 | 32.946 | 2 |
| 2025-06-30T02:36:00 | 54.829448 | 7.266180 | 2.0 | 15.357 | 2 | 41.146 | 15.519 | 32.946 | 2 |
| 2025-06-30T02:37:00 | 54.829529 | 7.265950 | 2.0 | 15.361 | 2 | 41.146 | 15.520 | 32.945 | 2 |
| 2025-06-30T02:38:00 | 54.829598 | 7.265700 | 2.0 | 15.359 | 2 | 41.148 | 15.522 | 32.945 | 2 |
| 2025-06-30T02:39:00 | 54.829651 | 7.265444 | 2.0 | 15.361 | 2 | 41.147 | 15.522 | 32.945 | 2 |
| 2025-06-30T02:40:00 | 54.829706 | 7.265186 | 2.0 | 15.356 | 2 | 41.148 | 15.523 | 32.945 | 2 |
| 2025-06-30T02:41:00 | 54.829780 | 7.264907 | 2.0 | 15.357 | 2 | 41.144 | 15.518 | 32.945 | 2 |
| 2025-06-30T02:42:00 | 54.829851 | 7.264609 | 2.0 | 15.354 | 2 | 41.144 | 15.518 | 32.945 | 2 |
| 2025-06-30T02:43:00 | 54.829920 | 7.264301 | 2.0 | 15.356 | 2 | 41.140 | 15.516 | 32.943 | 2 |
| 2025-06-30T02:44:00 | 54.829976 | 7.263999 | 2.0 | 15.352 | 2 | 41.140 | 15.515 | 32.944 | 2 |
| 2025-06-30T02:45:00 | 54.830035 | 7.263704 | 2.0 | 15.347 | 2 | 41.137 | 15.512 | 32.944 | 2 |
| 2025-06-30T02:46:00 | 54.830097 | 7.263426 | 2.0 | 15.349 | 2 | 41.135 | 15.510 | 32.944 | 2 |
| 2025-06-30T02:47:00 | 54.830137 | 7.263131 | 2.0 | 15.352 | 2 | 41.136 | 15.510 | 32.945 | 2 |
| 2025-06-30T02:48:00 | 54.830185 | 7.262844 | 2.0 | 15.353 | 2 | 41.141 | 15.516 | 32.944 | 2 |
| 2025-06-30T02:49:00 | 54.830250 | 7.262525 | 2.0 | 15.343 | 2 | 41.136 | 15.508 | 32.946 | 2 |
| 2025-06-30T02:50:00 | 54.830291 | 7.262264 | 2.0 | 15.350 | 2 | 41.134 | 15.509 | 32.944 | 2 |
| 2025-06-30T02:51:00 | 54.830325 | 7.262010 | 2.0 | 15.356 | 2 | 41.138 | 15.512 | 32.945 | 2 |
| 2025-06-30T02:52:00 | 54.830342 | 7.261761 | 2.0 | 15.358 | 2 | 41.144 | 15.518 | 32.945 | 2 |
| 2025-06-30T02:53:00 | 54.830359 | 7.261522 | 2.0 | 15.354 | 2 | 41.145 | 15.519 | 32.945 | 2 |
| 2025-06-30T02:54:00 | 54.830391 | 7.261263 | 2.0 | 15.356 | 2 | 41.143 | 15.516 | 32.946 | 2 |
| 2025-06-30T02:55:00 | 54.830442 | 7.261013 | 2.0 | 15.356 | 2 | 41.144 | 15.517 | 32.946 | 2 |
| 2025-06-30T02:56:00 | 54.830485 | 7.260789 | 2.0 | 15.354 | 2 | 41.145 | 15.517 | 32.947 | 2 |
| 2025-06-30T02:57:00 | 54.830526 | 7.260540 | 2.0 | 15.353 | 2 | 41.143 | 15.514 | 32.948 | 2 |
| 2025-06-30T02:58:00 | 54.830574 | 7.260250 | 2.0 | 15.356 | 2 | 41.143 | 15.514 | 32.948 | 2 |
| 2025-06-30T02:59:00 | 54.830647 | 7.259961 | 2.0 | 15.358 | 2 | 41.146 | 15.518 | 32.947 | 2 |
| 2025-06-30T03:00:00 | 54.830731 | 7.259695 | 2.0 | 15.361 | 2 | 41.149 | 15.520 | 32.948 | 2 |
| 2025-06-30T03:01:00 | 54.830813 | 7.259395 | 2.0 | 15.359 | 2 | 41.151 | 15.522 | 32.948 | 2 |
| 2025-06-30T03:02:00 | 54.830876 | 7.259066 | 2.0 | 15.357 | 2 | 41.150 | 15.521 | 32.948 | 2 |
| 2025-06-30T03:03:00 | 54.830959 | 7.258741 | 2.0 | 15.355 | 2 | 41.148 | 15.517 | 32.950 | 2 |
| 2025-06-30T03:04:00 | 54.831045 | 7.258408 | 2.0 | 15.360 | 2 | 41.149 | 15.518 | 32.950 | 2 |
| 2025-06-30T03:05:00 | 54.831153 | 7.258108 | 2.0 | 15.359 | 2 | 41.151 | 15.521 | 32.949 | 2 |
| 2025-06-30T03:06:00 | 54.831243 | 7.257831 | 2.0 | 15.360 | 2 | 41.152 | 15.521 | 32.950 | 2 |
| 2025-06-30T03:07:00 | 54.831294 | 7.257608 | 2.0 | 15.362 | 2 | 41.153 | 15.522 | 32.950 | 2 |
| 2025-06-30T03:08:00 | 54.831354 | 7.257379 | 2.0 | 15.362 | 2 | 41.155 | 15.524 | 32.950 | 2 |
| 2025-06-30T03:09:00 | 54.831421 | 7.257143 | 2.0 | 15.364 | 2 | 41.155 | 15.524 | 32.950 | 2 |
| 2025-06-30T03:10:00 | 54.831494 | 7.256915 | 2.0 | 15.365 | 2 | 41.157 | 15.526 | 32.950 | 2 |
| 2025-06-30T03:11:00 | 54.831569 | 7.256677 | 2.0 | 15.363 | 2 | 41.157 | 15.525 | 32.951 | 2 |
| 2025-06-30T03:12:00 | 54.831633 | 7.256398 | 2.0 | 15.364 | 2 | 41.156 | 15.524 | 32.951 | 2 |
| 2025-06-30T03:13:00 | 54.831714 | 7.256105 | 2.0 | 15.363 | 2 | 41.157 | 15.525 | 32.951 | 2 |
| 2025-06-30T03:14:00 | 54.831804 | 7.255787 | 2.0 | 15.361 | 2 | 41.158 | 15.526 | 32.951 | 2 |
| 2025-06-30T03:15:00 | 54.831864 | 7.255464 | 2.0 | 15.362 | 2 | 41.155 | 15.521 | 32.953 | 2 |
| 2025-06-30T03:16:00 | 54.831928 | 7.255113 | 2.0 | 15.360 | 2 | 41.157 | 15.523 | 32.953 | 2 |
| 2025-06-30T03:17:00 | 54.831973 | 7.254803 | 2.0 | 15.358 | 2 | 41.154 | 15.521 | 32.952 | 2 |
| 2025-06-30T03:18:00 | 54.832002 | 7.254513 | 2.0 | 15.359 | 2 | 41.153 | 15.520 | 32.952 | 2 |
| 2025-06-30T03:19:00 | 54.832057 | 7.254203 | 2.0 | 15.357 | 2 | 41.154 | 15.520 | 32.952 | 2 |
| 2025-06-30T03:20:00 | 54.832128 | 7.253899 | 2.0 | 15.351 | 2 | 41.152 | 15.517 | 32.953 | 2 |
| 2025-06-30T03:21:00 | 54.832211 | 7.253576 | 2.0 | 15.346 | 2 | 41.148 | 15.512 | 32.954 | 2 |
| 2025-06-30T03:22:00 | 54.832296 | 7.253254 | 2.0 | 15.347 | 2 | 41.144 | 15.509 | 32.953 | 2 |
| 2025-06-30T03:23:00 | 54.832386 | 7.252962 | 2.0 | 15.346 | 2 | 41.144 | 15.508 | 32.954 | 2 |
| 2025-06-30T03:24:00 | 54.832457 | 7.252669 | 2.0 | 15.346 | 2 | 41.144 | 15.507 | 32.954 | 2 |
| 2025-06-30T03:25:00 | 54.832529 | 7.252369 | 2.0 | 15.343 | 2 | 41.143 | 15.506 | 32.954 | 2 |
| 2025-06-30T03:26:00 | 54.832603 | 7.252032 | 2.0 | 15.343 | 2 | 41.142 | 15.505 | 32.954 | 2 |
| 2025-06-30T03:27:00 | 54.832683 | 7.251685 | 2.0 | 15.341 | 2 | 41.140 | 15.503 | 32.954 | 2 |
| 2025-06-30T03:28:00 | 54.832755 | 7.251362 | 2.0 | 15.342 | 2 | 41.141 | 15.504 | 32.954 | 2 |
| 2025-06-30T03:29:00 | 54.832813 | 7.251035 | 2.0 | 15.339 | 2 | 41.140 | 15.502 | 32.955 | 2 |
| 2025-06-30T03:30:00 | 54.832890 | 7.250687 | 2.0 | 15.339 | 2 | 41.137 | 15.499 | 32.955 | 2 |
| 2025-06-30T03:31:00 | 54.832970 | 7.250356 | 2.0 | 15.340 | 2 | 41.139 | 15.501 | 32.955 | 2 |
| 2025-06-30T03:32:00 | 54.833056 | 7.249997 | 2.0 | 15.337 | 2 | 41.139 | 15.500 | 32.956 | 2 |
| 2025-06-30T03:33:00 | 54.833167 | 7.249598 | 2.0 | 15.322 | 2 | 41.134 | 15.495 | 32.955 | 2 |
| 2025-06-30T03:34:00 | 54.833286 | 7.249181 | 2.0 | 15.319 | 2 | 41.116 | 15.477 | 32.954 | 2 |
| 2025-06-30T03:35:00 | 54.833373 | 7.248795 | 2.0 | 15.309 | 2 | 41.117 | 15.478 | 32.955 | 2 |
| 2025-06-30T03:36:00 | 54.833442 | 7.248426 | 2.0 | 15.314 | 2 | 41.110 | 15.471 | 32.954 | 2 |
| 2025-06-30T03:37:00 | 54.833509 | 7.248083 | 2.0 | 15.312 | 2 | 41.113 | 15.475 | 32.953 | 2 |
| 2025-06-30T03:38:00 | 54.833589 | 7.247708 | 2.0 | 15.314 | 2 | 41.113 | 15.474 | 32.954 | 2 |
| 2025-06-30T03:39:00 | 54.833691 | 7.247299 | 2.0 | 15.289 | 2 | 41.113 | 15.473 | 32.955 | 2 |
| 2025-06-30T03:40:00 | 54.833801 | 7.246894 | 2.0 | 15.297 | 2 | 41.092 | 15.451 | 32.955 | 2 |
| 2025-06-30T03:41:00 | 54.833914 | 7.246513 | 2.0 | 15.298 | 2 | 41.096 | 15.458 | 32.952 | 2 |
| 2025-06-30T03:42:00 | 54.834018 | 7.246134 | 2.0 | 15.293 | 2 | 41.098 | 15.459 | 32.953 | 2 |
| 2025-06-30T03:43:00 | 54.834112 | 7.245767 | 2.0 | 15.276 | 2 | 41.092 | 15.451 | 32.955 | 2 |
| 2025-06-30T03:44:00 | 54.834196 | 7.245481 | 2.0 | 15.282 | 2 | 41.081 | 15.441 | 32.953 | 2 |
| 2025-06-30T03:45:00 | 54.834278 | 7.245168 | 2.0 | 15.286 | 2 | 41.084 | 15.445 | 32.953 | 2 |
| 2025-06-30T03:46:00 | 54.834356 | 7.244849 | 2.0 | 15.279 | 2 | 41.086 | 15.446 | 32.954 | 2 |
| 2025-06-30T03:47:00 | 54.834409 | 7.244555 | 2.0 | 15.280 | 2 | 41.081 | 15.442 | 32.952 | 2 |
| 2025-06-30T03:48:00 | 54.834467 | 7.244248 | 2.0 | 15.280 | 2 | 41.082 | 15.442 | 32.953 | 2 |
| 2025-06-30T03:49:00 | 54.834544 | 7.243950 | 2.0 | 15.283 | 2 | 41.083 | 15.443 | 32.953 | 2 |
| 2025-06-30T03:50:00 | 54.834602 | 7.243675 | 2.0 | 15.286 | 2 | 41.085 | 15.446 | 32.953 | 2 |
| 2025-06-30T03:51:00 | 54.834653 | 7.243447 | 2.0 | 15.287 | 2 | 41.089 | 15.448 | 32.955 | 2 |
| 2025-06-30T03:52:00 | 54.834735 | 7.243174 | 2.0 | 15.289 | 2 | 41.089 | 15.449 | 32.954 | 2 |
| 2025-06-30T03:53:00 | 54.834825 | 7.242856 | 2.0 | 15.292 | 2 | 41.092 | 15.451 | 32.955 | 2 |
| 2025-06-30T03:54:00 | 54.834904 | 7.242502 | 2.0 | 15.279 | 2 | 41.092 | 15.451 | 32.955 | 2 |
| 2025-06-30T03:55:00 | 54.834993 | 7.242140 | 2.0 | 15.260 | 2 | 41.082 | 15.440 | 32.955 | 2 |
| 2025-06-30T03:56:00 | 54.835073 | 7.241795 | 2.0 | 15.240 | 2 | 41.062 | 15.419 | 32.955 | 2 |
| 2025-06-30T03:57:00 | 54.835163 | 7.241461 | 2.0 | 15.225 | 2 | 41.045 | 15.402 | 32.954 | 2 |
| 2025-06-30T03:58:00 | 54.835254 | 7.241099 | 2.0 | 15.215 | 2 | 41.028 | 15.385 | 32.953 | 2 |
| 2025-06-30T03:59:00 | 54.835324 | 7.240723 | 2.0 | 15.214 | 2 | 41.019 | 15.378 | 32.951 | 2 |
| 2025-06-30T04:00:00 | 54.835440 | 7.240367 | 2.0 | 15.209 | 2 | 41.017 | 15.377 | 32.950 | 2 |
| 2025-06-30T04:01:00 | 54.835530 | 7.240033 | 2.0 | 15.205 | 2 | 41.011 | 15.371 | 32.949 | 2 |
| 2025-06-30T04:02:00 | 54.835603 | 7.239716 | 2.0 | 15.205 | 2 | 41.006 | 15.368 | 32.947 | 2 |
| 2025-06-30T04:03:00 | 54.835668 | 7.239429 | 2.0 | 15.205 | 2 | 41.006 | 15.367 | 32.948 | 2 |
| 2025-06-30T04:04:00 | 54.835730 | 7.239174 | 2.0 | 15.204 | 2 | 41.006 | 15.367 | 32.948 | 2 |
| 2025-06-30T04:05:00 | 54.835799 | 7.238889 | 2.0 | 15.205 | 2 | 41.006 | 15.367 | 32.948 | 2 |
| 2025-06-30T04:06:00 | 54.835880 | 7.238584 | 2.0 | 15.205 | 2 | 41.007 | 15.368 | 32.948 | 2 |
| 2025-06-30T04:07:00 | 54.835959 | 7.238234 | 2.0 | 15.206 | 2 | 41.006 | 15.367 | 32.948 | 2 |
| 2025-06-30T04:08:00 | 54.836034 | 7.237896 | 2.0 | 15.207 | 2 | 41.006 | 15.369 | 32.946 | 2 |
| 2025-06-30T04:09:00 | 54.836092 | 7.237600 | 2.0 | 15.208 | 2 | 41.008 | 15.370 | 32.947 | 2 |
| 2025-06-30T04:10:00 | 54.836127 | 7.237315 | 2.0 | 15.209 | 2 | 41.008 | 15.371 | 32.947 | 2 |
| 2025-06-30T04:11:00 | 54.836152 | 7.237037 | 2.0 | 15.210 | 2 | 41.009 | 15.371 | 32.947 | 2 |
| 2025-06-30T04:12:00 | 54.836186 | 7.236747 | 2.0 | 15.212 | 2 | 41.010 | 15.372 | 32.948 | 2 |
| 2025-06-30T04:13:00 | 54.836251 | 7.236422 | 2.0 | 15.213 | 2 | 41.011 | 15.373 | 32.948 | 2 |
| 2025-06-30T04:14:00 | 54.836328 | 7.236079 | 2.0 | 15.216 | 2 | 41.013 | 15.376 | 32.947 | 2 |
| 2025-06-30T04:15:00 | 54.836408 | 7.235715 | 2.0 | 15.219 | 2 | 41.016 | 15.379 | 32.947 | 2 |
| 2025-06-30T04:16:00 | 54.836503 | 7.235314 | 2.0 | 15.219 | 2 | 41.018 | 15.382 | 32.946 | 2 |
| 2025-06-30T04:17:00 | 54.836614 | 7.234885 | 2.0 | 15.217 | 2 | 41.017 | 15.381 | 32.946 | 2 |
| 2025-06-30T04:18:00 | 54.836706 | 7.234516 | 2.0 | 15.216 | 2 | 41.015 | 15.379 | 32.946 | 2 |
| 2025-06-30T04:19:00 | 54.836804 | 7.234131 | 2.0 | 15.214 | 2 | 41.013 | 15.377 | 32.946 | 2 |
| 2025-06-30T04:20:00 | 54.836917 | 7.233708 | 2.0 | 15.213 | 2 | 41.012 | 15.376 | 32.946 | 2 |
| 2025-06-30T04:21:00 | 54.837036 | 7.233269 | 2.0 | 15.214 | 2 | 40.942 | 15.375 | 32.884 | 2 |
| 2025-06-30T04:22:00 | 54.837162 | 7.232814 | 2.0 | 15.215 | 2 | 40.783 | 15.376 | 32.741 | 2 |
| 2025-06-30T04:23:00 | 54.837279 | 7.232340 | 2.0 | 15.217 | 2 | 41.014 | 15.378 | 32.946 | 2 |
| 2025-06-30T04:24:00 | 54.837404 | 7.231878 | 2.0 | 15.218 | 2 | 41.015 | 15.379 | 32.946 | 2 |
| 2025-06-30T04:25:00 | 54.837543 | 7.231356 | 2.0 | 15.216 | 2 | 40.909 | 15.379 | 32.851 | 2 |
| 2025-06-30T04:26:00 | 54.837686 | 7.230803 | 2.0 | 15.213 | 2 | 41.017 | 15.377 | 32.950 | 2 |
| 2025-06-30T04:27:00 | 54.837841 | 7.230245 | 2.0 | 15.206 | 2 | 40.973 | 15.374 | 32.913 | 2 |
| 2025-06-30T04:28:00 | 54.837997 | 7.229718 | 2.0 | 15.237 | 2 | 40.986 | 15.369 | 32.929 | 2 |
| 2025-06-30T04:29:00 | 54.838138 | 7.229197 | 2.0 | 15.232 | 2 | 41.012 | 15.399 | 32.927 | 2 |
| 2025-06-30T04:30:00 | 54.838247 | 7.228671 | 2.0 | 15.243 | 2 | 40.793 | 15.397 | 32.732 | 2 |
| 2025-06-30T04:31:00 | 54.838321 | 7.228186 | 2.0 | 15.254 | 2 | 40.937 | 15.403 | 32.856 | 2 |
| 2025-06-30T04:32:00 | 54.838405 | 7.227673 | 2.0 | 15.278 | 2 | 41.049 | 15.422 | 32.941 | 2 |
| 2025-06-30T04:33:00 | 54.838498 | 7.227123 | 2.0 | 15.280 | 2 | 40.843 | 15.438 | 32.743 | 2 |
| 2025-06-30T04:34:00 | 54.838585 | 7.226545 | 2.0 | 15.294 | 2 | 40.984 | 15.442 | 32.866 | 2 |
| 2025-06-30T04:35:00 | 54.838686 | 7.225975 | 2.0 | 15.293 | 2 | 41.072 | 15.455 | 32.934 | 2 |
| 2025-06-30T04:36:00 | 54.838779 | 7.225408 | 2.0 | 15.301 | 2 | 41.029 | 15.454 | 32.896 | 2 |
| 2025-06-30T04:37:00 | 54.838891 | 7.224827 | 2.0 | 15.301 | 2 | 40.859 | 15.461 | 32.738 | 2 |
| 2025-06-30T04:38:00 | 54.839006 | 7.224243 | 2.0 | 15.305 | 2 | 40.894 | 15.462 | 32.768 | 2 |
| 2025-06-30T04:39:00 | 54.839103 | 7.223673 | 2.0 | 15.306 | 2 | 40.872 | 15.466 | 32.745 | 2 |
| 2025-06-30T04:40:00 | 54.839219 | 7.223105 | 2.0 | 15.306 | 2 | 40.743 | 15.466 | 32.630 | 2 |
| 2025-06-30T04:41:00 | 54.839340 | 7.222549 | 2.0 | 15.303 | 2 | 40.953 | 15.466 | 32.818 | 2 |
| 2025-06-30T04:42:00 | 54.839446 | 7.222020 | 2.0 | 15.302 | 2 | 41.077 | 15.464 | 32.930 | 2 |
| 2025-06-30T04:43:00 | 54.839543 | 7.221471 | 2.0 | 15.296 | 2 | 40.809 | 15.461 | 32.693 | 2 |
| 2025-06-30T04:44:00 | 54.839632 | 7.220929 | 2.0 | 15.294 | 2 | 40.950 | 15.456 | 32.824 | 2 |
| 2025-06-30T04:45:00 | 54.839714 | 7.220413 | 2.0 | 15.294 | 2 | 40.979 | 15.455 | 32.850 | 2 |
| 2025-06-30T04:46:00 | 54.839809 | 7.219881 | 2.0 | 15.288 | 2 | 40.821 | 15.454 | 32.710 | 2 |
| 2025-06-30T04:47:00 | 54.839910 | 7.219330 | 2.0 | 15.285 | 2 | 40.990 | 15.450 | 32.864 | 2 |
| 2025-06-30T04:48:00 | 54.840016 | 7.218792 | 2.0 | 15.283 | 2 | 40.922 | 15.447 | 32.806 | 2 |
| 2025-06-30T04:49:00 | 54.840072 | 7.218325 | 2.0 | 15.280 | 2 | 40.722 | 15.444 | 32.630 | 2 |
| 2025-06-30T04:50:00 | 54.840120 | 7.217869 | 2.0 | 15.280 | 2 | 40.777 | 15.442 | 32.680 | 2 |
| 2025-06-30T04:51:00 | 54.840200 | 7.217411 | 2.0 | 15.280 | 2 | 40.872 | 15.441 | 32.766 | 2 |
| 2025-06-30T04:52:00 | 54.840277 | 7.216992 | 2.0 | 15.280 | 2 | 40.740 | 15.441 | 32.648 | 2 |
| 2025-06-30T04:53:00 | 54.840331 | 7.216622 | 2.0 | 15.279 | 2 | 40.836 | 15.441 | 32.734 | 2 |
| 2025-06-30T04:54:00 | 54.840375 | 7.216198 | 2.0 | 15.278 | 2 | 40.791 | 15.439 | 32.695 | 2 |
| 2025-06-30T04:55:00 | 54.840436 | 7.215736 | 2.0 | 15.280 | 2 | 40.835 | 15.439 | 32.735 | 2 |
| 2025-06-30T04:56:00 | 54.840506 | 7.215261 | 2.0 | 15.282 | 2 | 40.856 | 15.442 | 32.751 | 2 |
| 2025-06-30T04:57:00 | 54.840590 | 7.214770 | 2.0 | 15.279 | 2 | 40.847 | 15.441 | 32.744 | 2 |
| 2025-06-30T04:58:00 | 54.840680 | 7.214272 | 2.0 | 15.278 | 2 | 40.863 | 15.440 | 32.759 | 2 |
| 2025-06-30T04:59:00 | 54.840780 | 7.213748 | 2.0 | 15.280 | 2 | 40.884 | 15.441 | 32.777 | 2 |
| 2025-06-30T05:00:00 | 54.840876 | 7.213212 | 2.0 | 15.280 | 2 | 40.848 | 15.441 | 32.745 | 2 |
| 2025-06-30T05:01:00 | 54.840971 | 7.212678 | 2.0 | 15.280 | 2 | 40.894 | 15.441 | 32.786 | 2 |
| 2025-06-30T05:02:00 | 54.841048 | 7.212242 | 2.0 | 15.281 | 2 | 40.886 | 15.442 | 32.778 | 2 |
| 2025-06-30T05:03:00 | 54.841099 | 7.211940 | 2.0 | 15.279 | 2 | 40.888 | 15.442 | 32.780 | 2 |
| 2025-06-30T05:04:00 | 54.841130 | 7.211740 | 2.0 | 15.279 | 2 | 40.911 | 15.440 | 32.802 | 2 |
| 2025-06-30T05:05:00 | 54.841160 | 7.211605 | 2.0 | 15.278 | 2 | 40.888 | 15.440 | 32.781 | 2 |
| 2025-06-30T05:06:00 | 54.841183 | 7.211492 | 2.0 | 15.283 | 2 | 40.928 | 15.440 | 32.817 | 2 |
| 2025-06-30T05:07:00 | 54.841165 | 7.211186 | 2.0 | 15.280 | 2 | 40.923 | 15.442 | 32.811 | 2 |
| 2025-06-30T05:08:00 | 54.841141 | 7.210719 | 2.0 | 15.279 | 2 | 40.939 | 15.441 | 32.826 | 2 |
| 2025-06-30T05:09:00 | 54.841164 | 7.210168 | 2.0 | 15.279 | 2 | 40.946 | 15.440 | 32.833 | 2 |
| 2025-06-30T05:10:00 | 54.841179 | 7.209607 | 2.0 | 15.274 | 2 | 40.959 | 15.438 | 32.847 | 2 |
| 2025-06-30T05:11:00 | 54.841206 | 7.209001 | 2.0 | 15.271 | 2 | 40.947 | 15.434 | 32.839 | 2 |
| 2025-06-30T05:12:00 | 54.841236 | 7.208375 | 2.0 | 15.268 | 2 | 40.980 | 15.432 | 32.870 | 2 |
| 2025-06-30T05:13:00 | 54.841266 | 7.207720 | 2.0 | 15.266 | 2 | 40.971 | 15.429 | 32.865 | 2 |
| 2025-06-30T05:14:00 | 54.841302 | 7.207121 | 2.0 | 15.266 | 2 | 40.983 | 15.427 | 32.877 | 2 |
| 2025-06-30T05:15:00 | 54.841314 | 7.206536 | 2.0 | 15.264 | 2 | 40.974 | 15.427 | 32.869 | 2 |
| 2025-06-30T05:16:00 | 54.841330 | 7.205987 | 2.0 | 15.265 | 2 | 40.979 | 15.425 | 32.875 | 2 |
| 2025-06-30T05:17:00 | 54.841341 | 7.205474 | 2.0 | 15.264 | 2 | 41.010 | 15.426 | 32.902 | 2 |
| 2025-06-30T05:18:00 | 54.841387 | 7.204993 | 2.0 | 15.266 | 2 | 41.024 | 15.426 | 32.915 | 2 |
| 2025-06-30T05:19:00 | 54.841416 | 7.204542 | 2.0 | 15.266 | 2 | 41.012 | 15.427 | 32.903 | 2 |
| 2025-06-30T05:20:00 | 54.841436 | 7.204055 | 2.0 | 15.267 | 2 | 41.024 | 15.427 | 32.914 | 2 |
| 2025-06-30T05:21:00 | 54.841447 | 7.203562 | 2.0 | 15.268 | 2 | 41.038 | 15.428 | 32.926 | 2 |
| 2025-06-30T05:22:00 | 54.841476 | 7.203083 | 2.0 | 15.271 | 2 | 41.034 | 15.429 | 32.921 | 2 |
| 2025-06-30T05:23:00 | 54.841509 | 7.202603 | 2.0 | 15.270 | 2 | 41.066 | 15.433 | 32.947 | 2 |
| 2025-06-30T05:24:00 | 54.841526 | 7.202113 | 2.0 | 15.271 | 2 | 41.054 | 15.431 | 32.938 | 2 |
| 2025-06-30T05:25:00 | 54.841538 | 7.201612 | 2.0 | 15.272 | 2 | 41.074 | 15.432 | 32.955 | 2 |
| 2025-06-30T05:26:00 | 54.841557 | 7.201120 | 2.0 | 15.273 | 2 | 41.077 | 15.433 | 32.956 | 2 |
| 2025-06-30T05:27:00 | 54.841564 | 7.200652 | 2.0 | 15.274 | 2 | 41.067 | 15.433 | 32.947 | 2 |
| 2025-06-30T05:28:00 | 54.841615 | 7.199986 | 2.0 | 15.274 | 2 | 41.078 | 15.433 | 32.957 | 2 |
| 2025-06-30T05:29:00 | 54.841887 | 7.199604 | 2.0 | 15.272 | 2 | 41.081 | 15.435 | 32.958 | 2 |
| 2025-06-30T05:30:00 | 54.842030 | 7.199608 | 2.0 | 15.216 | 2 | 41.077 | 15.422 | 32.966 | 2 |
| 2025-06-30T05:31:00 | 54.842061 | 7.199641 | 2.0 | 15.194 | 2 | 41.042 | 15.367 | 32.980 | 2 |
| 2025-06-30T05:32:00 | 54.842132 | 7.199713 | 2.0 | 15.263 | 2 | 41.039 | 15.379 | 32.968 | 2 |
| 2025-06-30T05:33:00 | 54.842151 | 7.199823 | 2.0 | 15.258 | 2 | 41.074 | 15.422 | 32.963 | 2 |
| 2025-06-30T05:34:00 | 54.842115 | 7.200015 | 2.0 | 15.243 | 2 | 41.069 | 15.415 | 32.964 | 2 |
| 2025-06-30T05:35:00 | 54.842083 | 7.200251 | 2.0 | 15.250 | 2 | 41.060 | 15.406 | 32.964 | 2 |
| 2025-06-30T05:36:00 | 54.842057 | 7.200472 | 2.0 | 15.253 | 2 | 41.064 | 15.411 | 32.963 | 2 |
| 2025-06-30T05:37:00 | 54.842049 | 7.200703 | 2.0 | 15.253 | 2 | 41.067 | 15.414 | 32.963 | 2 |
| 2025-06-30T05:38:00 | 54.842039 | 7.200936 | 2.0 | 15.261 | 2 | 41.069 | 15.416 | 32.964 | 2 |
| 2025-06-30T05:39:00 | 54.842046 | 7.201150 | 2.0 | 15.264 | 2 | 41.076 | 15.422 | 32.965 | 2 |
| 2025-06-30T05:40:00 | 54.842046 | 7.201357 | 2.0 | 15.280 | 2 | 41.081 | 15.428 | 32.964 | 2 |
| 2025-06-30T05:41:00 | 54.842058 | 7.201551 | 2.0 | 15.290 | 2 | 41.094 | 15.442 | 32.964 | 2 |
| 2025-06-30T05:42:00 | 54.842073 | 7.201749 | 2.0 | 15.295 | 2 | 41.101 | 15.450 | 32.964 | 2 |
| 2025-06-30T05:43:00 | 54.842095 | 7.201932 | 2.0 | 15.295 | 2 | 41.105 | 15.454 | 32.964 | 2 |
| 2025-06-30T05:44:00 | 54.842138 | 7.202091 | 2.0 | 15.297 | 2 | 41.105 | 15.456 | 32.962 | 2 |
| 2025-06-30T05:45:00 | 54.842192 | 7.202230 | 2.0 | 15.267 | 2 | 41.104 | 15.454 | 32.963 | 2 |
| 2025-06-30T05:46:00 | 54.842256 | 7.202362 | 2.0 | 15.239 | 2 | 41.060 | 15.420 | 32.952 | 2 |
| 2025-06-30T05:47:00 | 54.842347 | 7.202438 | 2.0 | 15.240 | 2 | 41.029 | 15.402 | 32.939 | 2 |
| 2025-06-30T05:48:00 | 54.842451 | 7.202483 | 2.0 | 15.244 | 2 | 41.025 | 15.402 | 32.936 | 2 |
| 2025-06-30T05:49:00 | 54.842577 | 7.202463 | 2.0 | 15.245 | 2 | 41.027 | 15.404 | 32.936 | 2 |
| 2025-06-30T05:50:00 | 54.842686 | 7.202407 | 2.0 | 15.249 | 2 | 41.027 | 15.406 | 32.934 | 2 |
| 2025-06-30T05:51:00 | 54.842787 | 7.202301 | 2.0 | 15.256 | 2 | 41.031 | 15.411 | 32.934 | 2 |
| 2025-06-30T05:52:00 | 54.842845 | 7.202198 | 2.0 | 15.260 | 2 | 41.037 | 15.417 | 32.934 | 2 |
| 2025-06-30T05:53:00 | 54.842893 | 7.202058 | 2.0 | 15.266 | 2 | 41.040 | 15.421 | 32.933 | 2 |
| 2025-06-30T05:54:00 | 54.842926 | 7.201906 | 2.0 | 15.274 | 2 | 41.045 | 15.427 | 32.933 | 2 |
| 2025-06-30T05:55:00 | 54.842948 | 7.201737 | 2.0 | 15.281 | 2 | 41.053 | 15.436 | 32.932 | 2 |
| 2025-06-30T05:56:00 | 54.842959 | 7.201542 | 2.0 | 15.285 | 2 | 41.058 | 15.442 | 32.932 | 2 |
| 2025-06-30T05:57:00 | 54.842963 | 7.201352 | 2.0 | 15.291 | 2 | 41.062 | 15.446 | 32.932 | 2 |
| 2025-06-30T05:58:00 | 54.842972 | 7.201148 | 2.0 | 15.300 | 2 | 41.069 | 15.453 | 32.933 | 2 |
| 2025-06-30T05:59:00 | 54.842985 | 7.200971 | 2.0 | 15.306 | 2 | 41.077 | 15.460 | 32.934 | 2 |
| 2025-06-30T06:00:00 | 54.843011 | 7.200868 | 2.0 | 15.309 | 2 | 41.083 | 15.465 | 32.935 | 2 |
| 2025-06-30T06:01:00 | 54.843138 | 7.200885 | 2.0 | 15.305 | 2 | 41.087 | 15.468 | 32.936 | 2 |
| 2025-06-30T06:02:00 | 54.843421 | 7.200673 | 2.0 | 15.302 | 2 | 41.084 | 15.463 | 32.938 | 2 |
| 2025-06-30T06:03:00 | 54.843620 | 7.199598 | 2.0 | 15.285 | 2 | 41.082 | 15.460 | 32.938 | 2 |
| 2025-06-30T06:04:00 | 54.843809 | 7.197785 | 2.0 | 15.274 | 2 | 41.066 | 15.444 | 32.937 | 2 |
| 2025-06-30T06:05:00 | 54.844000 | 7.196026 | 2.0 | 15.250 | 2 | 41.051 | 15.432 | 32.934 | 2 |
| 2025-06-30T06:06:00 | 54.844160 | 7.194284 | 2.0 | 15.274 | 2 | 41.036 | 15.413 | 32.936 | 2 |
| 2025-06-30T06:07:00 | 54.844318 | 7.192629 | 2.0 | 15.316 | 2 | 41.077 | 15.444 | 32.947 | 2 |
| 2025-06-30T06:08:00 | 54.844422 | 7.190491 | 2.0 | 15.320 | 2 | 41.121 | 15.475 | 32.961 | 2 |
| 2025-06-30T06:09:00 | 54.844549 | 7.187207 | 2.0 | 15.305 | 2 | 41.127 | 15.477 | 32.964 | 2 |
| 2025-06-30T06:10:00 | 54.844745 | 7.182861 | 2.0 | 15.285 | 2 | 41.118 | 15.466 | 32.965 | 2 |
| 2025-06-30T06:11:00 | 54.845050 | 7.178032 | 2.0 | 15.263 | 2 | 41.103 | 15.445 | 32.970 | 2 |
| 2025-06-30T06:12:00 | 54.845345 | 7.173146 | 2.0 | 15.281 | 2 | 41.095 | 15.430 | 32.975 | 2 |
| 2025-06-30T06:13:00 | 54.845658 | 7.168254 | 2.0 | 15.291 | 2 | 41.115 | 15.446 | 32.980 | 2 |
| 2025-06-30T06:14:00 | 54.845956 | 7.163366 | 2.0 | 15.262 | 2 | 41.130 | 15.452 | 32.988 | 2 |
| 2025-06-30T06:15:00 | 54.846265 | 7.158444 | 2.0 | 15.204 | 2 | 41.114 | 15.423 | 32.998 | 2 |
| 2025-06-30T06:16:00 | 54.846578 | 7.153480 | 2.0 | 15.119 | 2 | 41.060 | 15.351 | 33.010 | 2 |
| 2025-06-30T06:17:00 | 54.846906 | 7.148519 | 2.0 | 15.079 | 2 | 40.994 | 15.282 | 33.009 | 2 |
| 2025-06-30T06:18:00 | 54.847219 | 7.143630 | 2.0 | 15.061 | 2 | 40.954 | 15.245 | 33.004 | 2 |
| 2025-06-30T06:19:00 | 54.847528 | 7.138709 | 2.0 | 15.063 | 2 | 40.943 | 15.227 | 33.009 | 2 |
| 2025-06-30T06:20:00 | 54.847849 | 7.133684 | 2.0 | 15.143 | 2 | 40.963 | 15.248 | 33.010 | 2 |
| 2025-06-30T06:21:00 | 54.848158 | 7.128789 | 2.0 | 15.194 | 2 | 41.025 | 15.311 | 33.012 | 2 |
| 2025-06-30T06:22:00 | 54.848464 | 7.123956 | 2.0 | 15.218 | 2 | 41.074 | 15.361 | 33.014 | 2 |
| 2025-06-30T06:23:00 | 54.848764 | 7.119097 | 2.0 | 15.219 | 2 | 41.096 | 15.381 | 33.017 | 2 |
| 2025-06-30T06:24:00 | 54.849064 | 7.114167 | 2.0 | 15.172 | 2 | 41.096 | 15.375 | 33.022 | 2 |
| 2025-06-30T06:25:00 | 54.849368 | 7.109120 | 2.0 | 15.096 | 2 | 41.062 | 15.324 | 33.035 | 2 |
| 2025-06-30T06:26:00 | 54.849671 | 7.104122 | 2.0 | 15.002 | 2 | 41.029 | 15.257 | 33.061 | 2 |
| 2025-06-30T06:27:00 | 54.849962 | 7.099153 | 2.0 | 15.030 | 2 | 41.121 | 15.183 | 33.207 | 2 |
| 2025-06-30T06:28:00 | 54.850243 | 7.094268 | 2.0 | 15.041 | 2 | 41.182 | 15.198 | 33.249 | 2 |
| 2025-06-30T06:29:00 | 54.850534 | 7.089353 | 2.0 | 15.056 | 2 | 41.211 | 15.210 | 33.265 | 2 |
| 2025-06-30T06:30:00 | 54.850820 | 7.084424 | 2.0 | 15.054 | 2 | 41.235 | 15.223 | 33.276 | 2 |
| 2025-06-30T06:31:00 | 54.851108 | 7.079515 | 2.0 | 15.041 | 2 | 41.240 | 15.215 | 33.287 | 2 |
| 2025-06-30T06:32:00 | 54.851397 | 7.074583 | 2.0 | 15.032 | 2 | 41.238 | 15.205 | 33.294 | 2 |
| 2025-06-30T06:33:00 | 54.851396 | 7.069606 | 2.0 | 15.027 | 2 | 41.238 | 15.198 | 33.300 | 2 |
| 2025-06-30T06:34:00 | 54.851367 | 7.064645 | 2.0 | 15.051 | 2 | 41.238 | 15.194 | 33.303 | 2 |
| 2025-06-30T06:35:00 | 54.851326 | 7.059726 | 2.0 | 15.149 | 2 | 41.313 | 15.230 | 33.340 | 2 |
| 2025-06-30T06:36:00 | 54.851286 | 7.054843 | 2.0 | 15.179 | 2 | 41.478 | 15.322 | 33.410 | 2 |
| 2025-06-30T06:37:00 | 54.851219 | 7.049912 | 2.0 | 15.187 | 2 | 41.523 | 15.343 | 33.433 | 2 |
| 2025-06-30T06:38:00 | 54.851152 | 7.045044 | 2.0 | 15.183 | 2 | 41.526 | 15.348 | 33.431 | 2 |
| 2025-06-30T06:39:00 | 54.851078 | 7.040235 | 2.0 | 15.181 | 2 | 41.527 | 15.347 | 33.433 | 2 |
| 2025-06-30T06:40:00 | 54.850938 | 7.035417 | 2.0 | 15.165 | 2 | 41.527 | 15.342 | 33.437 | 2 |
| 2025-06-30T06:41:00 | 54.850745 | 7.030493 | 2.0 | 15.122 | 2 | 41.512 | 15.320 | 33.442 | 2 |
| 2025-06-30T06:42:00 | 54.850502 | 7.025523 | 2.0 | 15.127 | 2 | 41.478 | 15.285 | 33.442 | 2 |
| 2025-06-30T06:43:00 | 54.850171 | 7.020584 | 2.0 | 15.098 | 2 | 41.483 | 15.291 | 33.441 | 2 |
| 2025-06-30T06:44:00 | 54.849833 | 7.015729 | 2.0 | 15.058 | 2 | 41.458 | 15.258 | 33.447 | 2 |
| 2025-06-30T06:45:00 | 54.849524 | 7.011124 | 2.0 | 15.060 | 2 | 41.429 | 15.229 | 33.445 | 2 |
| 2025-06-30T06:46:00 | 54.849277 | 7.007688 | 2.0 | 15.070 | 2 | 41.430 | 15.228 | 33.447 | 2 |
| 2025-06-30T06:47:00 | 54.849140 | 7.005085 | 2.0 | 15.070 | 2 | 41.440 | 15.235 | 33.450 | 2 |
| 2025-06-30T06:48:00 | 54.849125 | 7.003013 | 2.0 | 15.068 | 2 | 41.442 | 15.235 | 33.452 | 2 |
| 2025-06-30T06:49:00 | 54.849131 | 7.001270 | 2.0 | 15.055 | 2 | 41.438 | 15.230 | 33.453 | 2 |
| 2025-06-30T06:50:00 | 54.849319 | 7.000122 | 2.0 | 15.056 | 2 | 41.427 | 15.219 | 33.452 | 2 |
| 2025-06-30T06:51:00 | 54.849549 | 6.999711 | 2.0 | 15.049 | 2 | 41.425 | 15.218 | 33.451 | 2 |
| 2025-06-30T06:52:00 | 54.849753 | 6.999488 | 2.0 | 15.092 | 2 | 41.426 | 15.222 | 33.449 | 2 |
| 2025-06-30T06:53:00 | 54.849878 | 6.999515 | 2.0 | 15.079 | 2 | 41.454 | 15.250 | 33.450 | 2 |
| 2025-06-30T06:54:00 | 54.850011 | 6.999637 | 2.0 | 15.084 | 2 | 41.451 | 15.246 | 33.451 | 2 |
| 2025-06-30T06:55:00 | 54.850150 | 6.999744 | 2.0 | 15.091 | 2 | 41.454 | 15.248 | 33.452 | 2 |
| 2025-06-30T06:56:00 | 54.850318 | 6.999818 | 2.0 | 15.116 | 2 | 41.459 | 15.255 | 33.450 | 2 |
| 2025-06-30T06:57:00 | 54.850425 | 6.999827 | 2.0 | 15.149 | 2 | 41.483 | 15.282 | 33.449 | 2 |
| 2025-06-30T06:58:00 | 54.850463 | 6.999718 | 2.0 | 15.152 | 2 | 41.508 | 15.308 | 33.449 | 2 |
| 2025-06-30T06:59:00 | 54.850492 | 6.999568 | 2.0 | 15.168 | 2 | 41.516 | 15.316 | 33.449 | 2 |
| 2025-06-30T07:00:00 | 54.850487 | 6.999407 | 2.0 | 15.185 | 2 | 41.531 | 15.330 | 33.451 | 2 |
| 2025-06-30T07:01:00 | 54.850473 | 6.999238 | 2.0 | 15.118 | 2 | 41.539 | 15.337 | 33.452 | 2 |
| 2025-06-30T07:02:00 | 54.850455 | 6.999081 | 2.0 | 15.079 | 2 | 41.482 | 15.270 | 33.458 | 2 |
| 2025-06-30T07:03:00 | 54.850449 | 6.998932 | 2.0 | 15.113 | 2 | 41.455 | 15.248 | 33.452 | 2 |
| 2025-06-30T07:04:00 | 54.850484 | 6.998886 | 2.0 | 15.092 | 2 | 41.474 | 15.268 | 33.453 | 2 |
| 2025-06-30T07:05:00 | 54.850581 | 6.998931 | 2.0 | 15.085 | 2 | 41.460 | 15.253 | 33.453 | 2 |
| 2025-06-30T07:06:00 | 54.850722 | 6.999094 | 2.0 | 15.088 | 2 | 41.455 | 15.248 | 33.452 | 2 |
| 2025-06-30T07:07:00 | 54.851092 | 6.999651 | 2.0 | 15.086 | 2 | 41.457 | 15.251 | 33.452 | 2 |
| 2025-06-30T07:08:00 | 54.851542 | 7.000355 | 2.0 | 15.151 | 2 | 41.453 | 15.249 | 33.450 | 2 |
| 2025-06-30T07:09:00 | 54.851894 | 7.001060 | 2.0 | 15.160 | 2 | 41.502 | 15.306 | 33.445 | 2 |
| 2025-06-30T07:10:00 | 54.851944 | 7.002272 | 2.0 | 15.077 | 2 | 41.511 | 15.311 | 33.449 | 2 |
| 2025-06-30T07:11:00 | 54.851494 | 7.003593 | 2.0 | 15.095 | 2 | 41.444 | 15.237 | 33.452 | 2 |
| 2025-06-30T07:12:00 | 54.850828 | 7.005348 | 2.0 | 15.115 | 2 | 41.459 | 15.257 | 33.448 | 2 |
| 2025-06-30T07:13:00 | 54.849647 | 7.007946 | 2.0 | 15.139 | 2 | 41.484 | 15.280 | 33.451 | 2 |
| 2025-06-30T07:14:00 | 54.848164 | 7.011188 | 2.0 | 15.182 | 2 | 41.514 | 15.309 | 33.454 | 2 |
| 2025-06-30T07:15:00 | 54.846580 | 7.014640 | 2.0 | 15.212 | 2 | 41.553 | 15.348 | 33.455 | 2 |
| 2025-06-30T07:16:00 | 54.844960 | 7.018156 | 2.0 | 15.240 | 2 | 41.580 | 15.377 | 33.455 | 2 |
| 2025-06-30T07:17:00 | 54.843319 | 7.021698 | 2.0 | 15.279 | 2 | 41.610 | 15.411 | 33.453 | 2 |
| 2025-06-30T07:18:00 | 54.841693 | 7.025215 | 2.0 | 15.310 | 2 | 41.643 | 15.444 | 33.454 | 2 |
| 2025-06-30T07:19:00 | 54.840090 | 7.028649 | 2.0 | 15.328 | 2 | 41.667 | 15.471 | 33.453 | 2 |
| 2025-06-30T07:20:00 | 54.838464 | 7.032146 | 2.0 | 15.199 | 2 | 41.681 | 15.490 | 33.449 | 2 |
| 2025-06-30T07:21:00 | 54.836838 | 7.035653 | 2.0 | 15.056 | 2 | 41.468 | 15.332 | 33.393 | 2 |
| 2025-06-30T07:22:00 | 54.835210 | 7.039179 | 2.0 | 15.045 | 2 | 41.304 | 15.228 | 33.333 | 2 |
| 2025-06-30T07:23:00 | 54.833575 | 7.042713 | 2.0 | 15.024 | 2 | 41.266 | 15.208 | 33.316 | 2 |
| 2025-06-30T07:24:00 | 54.831946 | 7.046203 | 2.0 | 15.016 | 2 | 41.237 | 15.190 | 33.305 | 2 |
| 2025-06-30T07:25:00 | 54.830328 | 7.049657 | 2.0 | 15.001 | 2 | 41.221 | 15.181 | 33.299 | 2 |
| 2025-06-30T07:26:00 | 54.828701 | 7.053143 | 2.0 | 14.982 | 2 | 41.200 | 15.160 | 33.298 | 2 |
| 2025-06-30T07:27:00 | 54.827066 | 7.056649 | 2.0 | 15.000 | 2 | 41.196 | 15.154 | 33.299 | 2 |
| 2025-06-30T07:28:00 | 54.825449 | 7.060119 | 2.0 | 14.975 | 2 | 41.215 | 15.170 | 33.303 | 2 |
| 2025-06-30T07:29:00 | 54.823812 | 7.063644 | 2.0 | 14.895 | 2 | 41.160 | 15.127 | 33.290 | 2 |
| 2025-06-30T07:30:00 | 54.822187 | 7.067155 | 2.0 | 14.895 | 2 | 41.066 | 15.070 | 33.253 | 2 |
| 2025-06-30T07:31:00 | 54.820572 | 7.070669 | 2.0 | 14.819 | 2 | 41.011 | 15.049 | 33.221 | 2 |
| 2025-06-30T07:32:00 | 54.818945 | 7.074218 | 2.0 | 14.786 | 2 | 40.882 | 14.989 | 33.155 | 2 |
| 2025-06-30T07:33:00 | 54.817337 | 7.077763 | 2.0 | 14.792 | 2 | 40.807 | 14.951 | 33.120 | 2 |
| 2025-06-30T07:34:00 | 54.815721 | 7.081333 | 2.0 | 14.828 | 2 | 40.794 | 14.965 | 33.096 | 2 |
| 2025-06-30T07:35:00 | 54.814107 | 7.084883 | 2.0 | 14.876 | 2 | 40.813 | 15.002 | 33.082 | 2 |
| 2025-06-30T07:36:00 | 54.812436 | 7.088570 | 2.0 | 14.937 | 2 | 40.848 | 15.047 | 33.076 | 2 |
| 2025-06-30T07:37:00 | 54.810634 | 7.092517 | 2.0 | 15.039 | 2 | 40.908 | 15.116 | 33.071 | 2 |
| 2025-06-30T07:38:00 | 54.808799 | 7.096559 | 2.0 | 15.039 | 2 | 40.994 | 15.204 | 33.075 | 2 |
| 2025-06-30T07:39:00 | 54.806940 | 7.100646 | 2.0 | 15.120 | 2 | 41.001 | 15.218 | 33.069 | 2 |
| 2025-06-30T07:40:00 | 54.805058 | 7.104762 | 2.0 | 15.092 | 2 | 41.057 | 15.275 | 33.071 | 2 |
| 2025-06-30T07:41:00 | 54.803168 | 7.108899 | 2.0 | 15.141 | 2 | 41.033 | 15.268 | 33.056 | 2 |
| 2025-06-30T07:42:00 | 54.801341 | 7.112907 | 2.0 | 15.177 | 2 | 41.074 | 15.310 | 33.057 | 2 |
| 2025-06-30T07:43:00 | 54.799629 | 7.116611 | 2.0 | 15.160 | 2 | 41.094 | 15.340 | 33.050 | 2 |
| 2025-06-30T07:44:00 | 54.797947 | 7.120211 | 2.0 | 15.130 | 2 | 41.069 | 15.318 | 33.046 | 2 |
| 2025-06-30T07:45:00 | 54.796287 | 7.123794 | 2.0 | 15.123 | 2 | 41.013 | 15.289 | 33.020 | 2 |
| 2025-06-30T07:46:00 | 54.794609 | 7.127389 | 2.0 | 15.148 | 2 | 40.996 | 15.295 | 33.000 | 2 |
| 2025-06-30T07:47:00 | 54.792944 | 7.130987 | 2.0 | 15.193 | 2 | 41.015 | 15.319 | 32.997 | 2 |
| 2025-06-30T07:48:00 | 54.791278 | 7.134600 | 2.0 | 15.229 | 2 | 41.045 | 15.359 | 32.990 | 2 |
| 2025-06-30T07:49:00 | 54.789594 | 7.138224 | 2.0 | 15.231 | 2 | 41.068 | 15.389 | 32.985 | 2 |
| 2025-06-30T07:50:00 | 54.787903 | 7.141857 | 2.0 | 15.227 | 2 | 41.068 | 15.391 | 32.984 | 2 |
| 2025-06-30T07:51:00 | 54.786200 | 7.145501 | 2.0 | 15.271 | 2 | 41.064 | 15.393 | 32.978 | 2 |
| 2025-06-30T07:52:00 | 54.784487 | 7.149175 | 2.0 | 15.243 | 2 | 41.108 | 15.443 | 32.976 | 2 |
| 2025-06-30T07:53:00 | 54.782809 | 7.152736 | 2.0 | 15.257 | 2 | 41.068 | 15.412 | 32.966 | 2 |
| 2025-06-30T07:54:00 | 54.781125 | 7.156326 | 2.0 | 15.347 | 2 | 41.057 | 15.425 | 32.945 | 2 |
| 2025-06-30T07:55:00 | 54.779457 | 7.159926 | 2.0 | 15.401 | 2 | 41.103 | 15.515 | 32.911 | 2 |
| 2025-06-30T07:56:00 | 54.777790 | 7.163541 | 2.0 | 15.431 | 2 | 41.121 | 15.562 | 32.888 | 2 |
| 2025-06-30T07:57:00 | 54.776103 | 7.167153 | 2.0 | 15.454 | 2 | 41.151 | 15.603 | 32.880 | 2 |
| 2025-06-30T07:58:00 | 54.774415 | 7.170750 | 2.0 | 15.438 | 2 | 41.151 | 15.601 | 32.882 | 2 |
| 2025-06-30T07:59:00 | 54.772720 | 7.174353 | 2.0 | 15.493 | 2 | 41.147 | 15.608 | 32.873 | 2 |
| 2025-06-30T08:00:00 | 54.771027 | 7.177972 | 2.0 | 15.466 | 2 | 41.166 | 15.642 | 32.861 | 2 |
| 2025-06-30T08:01:00 | 54.769331 | 7.181616 | 2.0 | 15.496 | 2 | 41.127 | 15.638 | 32.830 | 2 |
| 2025-06-30T08:02:00 | 54.767641 | 7.185249 | 2.0 | 15.517 | 2 | 41.107 | 15.653 | 32.800 | 2 |
| 2025-06-30T08:03:00 | 54.765954 | 7.188843 | 2.0 | 15.557 | 2 | 41.117 | 15.688 | 32.779 | 2 |
| 2025-06-30T08:04:00 | 54.764262 | 7.192415 | 2.0 | 15.542 | 2 | 41.128 | 15.717 | 32.765 | 2 |
| 2025-06-30T08:05:00 | 54.762557 | 7.196010 | 2.0 | 15.559 | 2 | 41.112 | 15.714 | 32.753 | 2 |
| 2025-06-30T08:06:00 | 54.760852 | 7.199600 | 2.0 | 15.558 | 2 | 41.126 | 15.717 | 32.763 | 2 |
| 2025-06-30T08:07:00 | 54.759140 | 7.203197 | 2.0 | 15.575 | 2 | 41.126 | 15.721 | 32.760 | 2 |
| 2025-06-30T08:08:00 | 54.757429 | 7.206787 | 2.0 | 15.609 | 2 | 41.135 | 15.739 | 32.753 | 2 |
| 2025-06-30T08:09:00 | 54.755702 | 7.210384 | 2.0 | 15.639 | 2 | 41.148 | 15.788 | 32.724 | 2 |
| 2025-06-30T08:10:00 | 54.753989 | 7.213978 | 2.0 | 15.616 | 2 | 41.205 | 15.796 | 32.768 | 2 |
| 2025-06-30T08:11:00 | 54.752292 | 7.217543 | 2.0 | 15.609 | 2 | 41.194 | 15.778 | 32.773 | 2 |
| 2025-06-30T08:12:00 | 54.750571 | 7.221133 | 2.0 | 15.641 | 2 | 41.192 | 15.774 | 32.775 | 2 |
| 2025-06-30T08:13:00 | 54.748856 | 7.224741 | 2.0 | 15.591 | 2 | 41.179 | 15.797 | 32.744 | 2 |
| 2025-06-30T08:14:00 | 54.747152 | 7.228333 | 2.0 | 15.582 | 2 | 41.107 | 15.755 | 32.715 | 2 |
| 2025-06-30T08:15:00 | 54.745433 | 7.231936 | 2.0 | 15.577 | 2 | 41.105 | 15.743 | 32.723 | 2 |
| 2025-06-30T08:16:00 | 54.743736 | 7.235480 | 2.0 | 15.575 | 2 | 41.092 | 15.739 | 32.715 | 2 |
| 2025-06-30T08:17:00 | 54.742044 | 7.239037 | 2.0 | 15.583 | 2 | 41.082 | 15.734 | 32.710 | 2 |
| 2025-06-30T08:18:00 | 54.740345 | 7.242586 | 2.0 | 15.644 | 2 | 41.098 | 15.777 | 32.689 | 2 |
| 2025-06-30T08:19:00 | 54.738646 | 7.246152 | 2.0 | 15.650 | 2 | 41.119 | 15.802 | 32.687 | 2 |
| 2025-06-30T08:20:00 | 54.736953 | 7.249676 | 2.0 | 15.658 | 2 | 41.111 | 15.805 | 32.677 | 2 |
| 2025-06-30T08:21:00 | 54.735270 | 7.253200 | 2.0 | 15.674 | 2 | 41.126 | 15.827 | 32.672 | 2 |
| 2025-06-30T08:22:00 | 54.733594 | 7.256747 | 2.0 | 15.619 | 2 | 41.136 | 15.837 | 32.673 | 2 |
| 2025-06-30T08:23:00 | 54.731888 | 7.260350 | 2.0 | 15.627 | 2 | 41.096 | 15.782 | 32.683 | 2 |
| 2025-06-30T08:24:00 | 54.730185 | 7.263919 | 2.0 | 15.628 | 2 | 41.095 | 15.787 | 32.678 | 2 |
| 2025-06-30T08:25:00 | 54.728465 | 7.267514 | 2.0 | 15.622 | 2 | 41.095 | 15.790 | 32.675 | 2 |
| 2025-06-30T08:26:00 | 54.726754 | 7.271102 | 2.0 | 15.637 | 2 | 41.090 | 15.789 | 32.672 | 2 |
| 2025-06-30T08:27:00 | 54.725032 | 7.274699 | 2.0 | 15.636 | 2 | 41.094 | 15.794 | 32.671 | 2 |
| 2025-06-30T08:28:00 | 54.723315 | 7.278319 | 2.0 | 15.666 | 2 | 41.102 | 15.804 | 32.670 | 2 |
| 2025-06-30T08:29:00 | 54.721605 | 7.281928 | 2.0 | 15.728 | 2 | 41.129 | 15.835 | 32.668 | 2 |
| 2025-06-30T08:30:00 | 54.719865 | 7.285563 | 2.0 | 15.688 | 2 | 41.179 | 15.886 | 32.670 | 2 |
| 2025-06-30T08:31:00 | 54.718135 | 7.289170 | 2.0 | 15.692 | 2 | 41.154 | 15.854 | 32.675 | 2 |
| 2025-06-30T08:32:00 | 54.716391 | 7.292815 | 2.0 | 15.697 | 2 | 41.152 | 15.853 | 32.674 | 2 |
| 2025-06-30T08:33:00 | 54.714629 | 7.296464 | 2.0 | 15.706 | 2 | 41.157 | 15.861 | 32.672 | 2 |
| 2025-06-30T08:34:00 | 54.712857 | 7.300142 | 2.0 | 15.706 | 2 | 41.163 | 15.867 | 32.672 | 2 |
| 2025-06-30T08:35:00 | 54.711077 | 7.303826 | 2.0 | 15.721 | 2 | 41.166 | 15.872 | 32.671 | 2 |
| 2025-06-30T08:36:00 | 54.709319 | 7.307531 | 2.0 | 15.716 | 2 | 41.172 | 15.880 | 32.669 | 2 |
| 2025-06-30T08:37:00 | 54.707614 | 7.311306 | 2.0 | 15.700 | 2 | 41.166 | 15.874 | 32.669 | 2 |
| 2025-06-30T08:38:00 | 54.705904 | 7.315062 | 2.0 | 15.714 | 2 | 41.155 | 15.864 | 32.667 | 2 |
| 2025-06-30T08:39:00 | 54.704216 | 7.318834 | 2.0 | 15.721 | 2 | 41.164 | 15.877 | 32.665 | 2 |
| 2025-06-30T08:40:00 | 54.702521 | 7.322626 | 2.0 | 15.716 | 2 | 41.166 | 15.880 | 32.664 | 2 |
| 2025-06-30T08:41:00 | 54.700829 | 7.326426 | 2.0 | 15.724 | 2 | 41.162 | 15.879 | 32.661 | 2 |
| 2025-06-30T08:42:00 | 54.699149 | 7.330209 | 2.0 | 15.747 | 2 | 41.166 | 15.889 | 32.657 | 2 |
| 2025-06-30T08:43:00 | 54.697441 | 7.334049 | 2.0 | 15.743 | 2 | 41.189 | 15.916 | 32.655 | 2 |
| 2025-06-30T08:44:00 | 54.695751 | 7.337865 | 2.0 | 15.751 | 2 | 41.189 | 15.909 | 32.660 | 2 |
| 2025-06-30T08:45:00 | 54.694051 | 7.341689 | 2.0 | 15.747 | 2 | 41.190 | 15.909 | 32.661 | 2 |
| 2025-06-30T08:46:00 | 54.692349 | 7.345523 | 2.0 | 15.756 | 2 | 41.189 | 15.908 | 32.661 | 2 |
| 2025-06-30T08:47:00 | 54.690655 | 7.349335 | 2.0 | 15.752 | 2 | 41.198 | 15.918 | 32.661 | 2 |
| 2025-06-30T08:48:00 | 54.688945 | 7.353186 | 2.0 | 15.757 | 2 | 41.199 | 15.917 | 32.663 | 2 |
| 2025-06-30T08:49:00 | 54.687253 | 7.357054 | 2.0 | 15.767 | 2 | 41.207 | 15.922 | 32.666 | 2 |
| 2025-06-30T08:50:00 | 54.685586 | 7.360949 | 2.0 | 15.811 | 2 | 41.226 | 15.938 | 32.669 | 2 |
| 2025-06-30T08:51:00 | 54.683907 | 7.364862 | 2.0 | 15.802 | 2 | 41.255 | 15.964 | 32.673 | 2 |
| 2025-06-30T08:52:00 | 54.682264 | 7.368724 | 2.0 | 15.837 | 2 | 41.263 | 15.967 | 32.678 | 2 |
| 2025-06-30T08:53:00 | 54.680598 | 7.372615 | 2.0 | 15.823 | 2 | 41.292 | 15.998 | 32.678 | 2 |
| 2025-06-30T08:54:00 | 54.678948 | 7.376505 | 2.0 | 15.817 | 2 | 41.281 | 15.983 | 32.681 | 2 |
| 2025-06-30T08:55:00 | 54.677297 | 7.380394 | 2.0 | 15.827 | 2 | 41.270 | 15.982 | 32.672 | 2 |
| 2025-06-30T08:56:00 | 54.675668 | 7.384263 | 2.0 | 15.831 | 2 | 41.261 | 15.990 | 32.657 | 2 |
| 2025-06-30T08:57:00 | 54.674028 | 7.388147 | 2.0 | 15.849 | 2 | 41.252 | 15.999 | 32.642 | 2 |
| 2025-06-30T08:58:00 | 54.672395 | 7.392039 | 2.0 | 15.866 | 2 | 41.245 | 16.011 | 32.626 | 2 |
| 2025-06-30T08:59:00 | 54.670754 | 7.395942 | 2.0 | 15.878 | 2 | 41.245 | 16.033 | 32.608 | 2 |
| 2025-06-30T09:00:00 | 54.669106 | 7.399867 | 2.0 | 15.908 | 2 | 41.242 | 16.047 | 32.594 | 2 |
| 2025-06-30T09:01:00 | 54.667459 | 7.403794 | 2.0 | 15.911 | 2 | 41.246 | 16.064 | 32.583 | 2 |
| 2025-06-30T09:02:00 | 54.665816 | 7.407699 | 2.0 | 15.957 | 2 | 41.247 | 16.086 | 32.566 | 2 |
| 2025-06-30T09:03:00 | 54.664178 | 7.411622 | 2.0 | 15.948 | 2 | 41.258 | 16.109 | 32.557 | 2 |
| 2025-06-30T09:04:00 | 54.662537 | 7.415561 | 2.0 | 15.980 | 2 | 41.244 | 16.114 | 32.540 | 2 |
| 2025-06-30T09:05:00 | 54.660895 | 7.419523 | 2.0 | 16.043 | 2 | 41.247 | 16.153 | 32.511 | 2 |
| 2025-06-30T09:06:00 | 54.659265 | 7.423476 | 2.0 | 16.059 | 2 | 41.259 | 16.198 | 32.485 | 2 |
| 2025-06-30T09:07:00 | 54.657638 | 7.427434 | 2.0 | 16.078 | 2 | 41.258 | 16.219 | 32.467 | 2 |
| 2025-06-30T09:08:00 | 54.656000 | 7.431368 | 2.0 | 16.118 | 2 | 41.263 | 16.249 | 32.447 | 2 |
| 2025-06-30T09:09:00 | 54.654380 | 7.435291 | 2.0 | 16.106 | 2 | 41.268 | 16.270 | 32.434 | 2 |
| 2025-06-30T09:10:00 | 54.652768 | 7.439191 | 2.0 | 16.107 | 2 | 41.247 | 16.262 | 32.422 | 2 |
| 2025-06-30T09:11:00 | 54.651151 | 7.443126 | 2.0 | 16.120 | 2 | 41.237 | 16.266 | 32.410 | 2 |
| 2025-06-30T09:12:00 | 54.649508 | 7.447064 | 2.0 | 16.151 | 2 | 41.243 | 16.284 | 32.401 | 2 |
| 2025-06-30T09:13:00 | 54.647869 | 7.451012 | 2.0 | 16.129 | 2 | 41.255 | 16.305 | 32.394 | 2 |
| 2025-06-30T09:14:00 | 54.646213 | 7.454978 | 2.0 | 16.171 | 2 | 41.231 | 16.294 | 32.382 | 2 |
| 2025-06-30T09:15:00 | 54.644574 | 7.458946 | 2.0 | 16.236 | 2 | 41.270 | 16.349 | 32.372 | 2 |
| 2025-06-30T09:16:00 | 54.642916 | 7.462911 | 2.0 | 16.193 | 2 | 41.296 | 16.381 | 32.368 | 2 |
| 2025-06-30T09:17:00 | 54.641265 | 7.466880 | 2.0 | 16.181 | 2 | 41.254 | 16.348 | 32.358 | 2 |
| 2025-06-30T09:18:00 | 54.639620 | 7.470841 | 2.0 | 16.379 | 2 | 41.279 | 16.405 | 32.334 | 2 |
| 2025-06-30T09:19:00 | 54.637970 | 7.474810 | 2.0 | 16.289 | 2 | 41.361 | 16.507 | 32.323 | 2 |
| 2025-06-30T09:20:00 | 54.636339 | 7.478756 | 2.0 | 16.286 | 2 | 41.295 | 16.448 | 32.313 | 2 |
| 2025-06-30T09:21:00 | 54.634700 | 7.482737 | 2.0 | 16.281 | 2 | 41.257 | 16.442 | 32.285 | 2 |
| 2025-06-30T09:22:00 | 54.633080 | 7.486696 | 2.0 | 16.357 | 2 | 41.239 | 16.446 | 32.266 | 2 |
| 2025-06-30T09:23:00 | 54.631481 | 7.490653 | 2.0 | 16.384 | 2 | 41.248 | 16.520 | 32.214 | 2 |
| 2025-06-30T09:24:00 | 54.629890 | 7.494620 | 2.0 | 16.374 | 2 | 41.180 | 16.532 | 32.145 | 2 |
| 2025-06-30T09:25:00 | 54.628304 | 7.498593 | 2.0 | 16.475 | 2 | 41.136 | 16.546 | 32.096 | 2 |
| 2025-06-30T09:26:00 | 54.626745 | 7.502525 | 2.0 | 16.517 | 2 | 41.138 | 16.636 | 32.025 | 2 |
| 2025-06-30T09:27:00 | 54.625178 | 7.506498 | 2.0 | 16.474 | 2 | 41.124 | 16.665 | 31.990 | 2 |
| 2025-06-30T09:28:00 | 54.623597 | 7.510506 | 2.0 | 16.513 | 2 | 41.117 | 16.642 | 32.002 | 2 |
| 2025-06-30T09:29:00 | 54.622012 | 7.514520 | 2.0 | 16.521 | 2 | 41.108 | 16.665 | 31.976 | 2 |
| 2025-06-30T09:30:00 | 54.620424 | 7.518562 | 2.0 | 16.532 | 2 | 41.081 | 16.675 | 31.945 | 2 |
| 2025-06-30T09:31:00 | 54.618816 | 7.522629 | 2.0 | 16.567 | 2 | 41.053 | 16.694 | 31.905 | 2 |
| 2025-06-30T09:32:00 | 54.617214 | 7.526663 | 2.0 | 16.636 | 2 | 41.037 | 16.725 | 31.867 | 2 |
| 2025-06-30T09:33:00 | 54.615609 | 7.530706 | 2.0 | 16.635 | 2 | 41.045 | 16.785 | 31.826 | 2 |
| 2025-06-30T09:34:00 | 54.613993 | 7.534759 | 2.0 | 16.627 | 2 | 41.036 | 16.791 | 31.814 | 2 |
| 2025-06-30T09:35:00 | 54.612390 | 7.538798 | 2.0 | 16.619 | 2 | 41.009 | 16.781 | 31.798 | 2 |
| 2025-06-30T09:36:00 | 54.610777 | 7.542872 | 2.0 | 16.650 | 2 | 40.993 | 16.783 | 31.783 | 2 |
| 2025-06-30T09:37:00 | 54.609163 | 7.546928 | 2.0 | 16.666 | 2 | 41.015 | 16.813 | 31.778 | 2 |
| 2025-06-30T09:38:00 | 54.607525 | 7.551020 | 2.0 | 16.679 | 2 | 41.022 | 16.823 | 31.776 | 2 |
| 2025-06-30T09:39:00 | 54.606045 | 7.555202 | 2.0 | 16.694 | 2 | 41.034 | 16.832 | 31.779 | 2 |
| 2025-06-30T09:40:00 | 54.604874 | 7.559148 | 2.0 | 16.711 | 2 | 41.058 | 16.854 | 31.783 | 2 |
| 2025-06-30T09:41:00 | 54.603833 | 7.562552 | 2.0 | 16.730 | 2 | 41.073 | 16.875 | 31.779 | 2 |
| 2025-06-30T09:42:00 | 54.603032 | 7.565471 | 2.0 | 16.761 | 2 | 41.078 | 16.884 | 31.776 | 2 |
| 2025-06-30T09:43:00 | 54.602347 | 7.568072 | 2.0 | 16.803 | 2 | 41.108 | 16.922 | 31.772 | 2 |
| 2025-06-30T09:44:00 | 54.601614 | 7.569947 | 2.0 | 16.776 | 2 | 41.139 | 16.961 | 31.768 | 2 |
| 2025-06-30T09:45:00 | 54.601103 | 7.569928 | 2.0 | 16.725 | 2 | 41.106 | 16.916 | 31.775 | 2 |
| 2025-06-30T09:46:00 | 54.600945 | 7.569710 | 2.0 | 16.747 | 2 | 41.073 | 16.884 | 31.772 | 2 |
| 2025-06-30T09:47:00 | 54.600914 | 7.569541 | 2.0 | 16.730 | 2 | 41.093 | 16.908 | 31.770 | 2 |
| 2025-06-30T09:48:00 | 54.600899 | 7.569481 | 2.0 | 16.709 | 2 | 41.075 | 16.882 | 31.775 | 2 |
| 2025-06-30T09:49:00 | 54.600912 | 7.569442 | 2.0 | 16.716 | 2 | 41.054 | 16.861 | 31.774 | 2 |
| 2025-06-30T09:50:00 | 54.600938 | 7.569422 | 2.0 | 16.717 | 2 | 41.060 | 16.871 | 31.771 | 2 |
| 2025-06-30T09:51:00 | 54.600943 | 7.569413 | 2.0 | 16.732 | 2 | 41.062 | 16.870 | 31.774 | 2 |
| 2025-06-30T09:52:00 | 54.600934 | 7.569401 | 2.0 | 16.707 | 2 | 41.073 | 16.883 | 31.773 | 2 |
| 2025-06-30T09:53:00 | 54.600928 | 7.569397 | 2.0 | 16.741 | 2 | 41.067 | 16.876 | 31.773 | 2 |
| 2025-06-30T09:54:00 | 54.600930 | 7.569389 | 2.0 | 16.719 | 2 | 41.079 | 16.888 | 31.774 | 2 |
| 2025-06-30T09:55:00 | 54.600959 | 7.569310 | 2.0 | 16.829 | 2 | 41.078 | 16.889 | 31.772 | 2 |
| 2025-06-30T09:56:00 | 54.601209 | 7.569014 | 2.0 | 16.825 | 2 | 41.159 | 16.986 | 31.766 | 2 |
| 2025-06-30T09:57:00 | 54.601464 | 7.569021 | 2.0 | 16.821 | 2 | 41.159 | 16.972 | 31.777 | 2 |
| 2025-06-30T09:58:00 | 54.601658 | 7.569193 | 2.0 | 16.796 | 2 | 41.155 | 16.968 | 31.776 | 2 |
| 2025-06-30T09:59:00 | 54.601803 | 7.569428 | 2.0 | 16.862 | 2 | 41.157 | 16.973 | 31.774 | 2 |
| 2025-06-30T10:00:00 | 54.601887 | 7.569655 | 2.0 | 16.960 | 2 | 41.206 | 17.024 | 31.776 | 2 |
| 2025-06-30T10:01:00 | 54.601925 | 7.569903 | 2.0 | 17.221 | 2 | 41.311 | 17.155 | 31.763 | 2 |
| 2025-06-30T10:02:00 | 54.601929 | 7.570173 | 2.0 | 17.527 | 2 | 41.557 | 17.432 | 31.756 | 2 |
| 2025-06-30T10:03:00 | 54.601887 | 7.570464 | 2.0 | 17.417 | 2 | 41.757 | 17.623 | 31.777 | 2 |
| 2025-06-30T10:04:00 | 54.601795 | 7.570792 | 2.0 | 17.335 | 2 | 41.715 | 17.567 | 31.785 | 2 |
| 2025-06-30T10:05:00 | 54.601728 | 7.571138 | 2.0 | 17.168 | 2 | 41.633 | 17.486 | 31.779 | 2 |
| 2025-06-30T10:06:00 | 54.601757 | 7.571409 | 2.0 | 16.927 | 2 | 41.483 | 17.302 | 31.795 | 2 |
| 2025-06-30T10:07:00 | 54.601709 | 7.571250 | 2.0 | 16.811 | 2 | 41.254 | 17.054 | 31.794 | 2 |
| 2025-06-30T10:08:00 | 54.601544 | 7.570493 | 2.0 | 16.816 | 2 | 41.182 | 16.992 | 31.781 | 2 |
| 2025-06-30T10:09:00 | 54.601416 | 7.569464 | 2.0 | 16.736 | 2 | 41.158 | 16.963 | 31.783 | 2 |
| 2025-06-30T10:10:00 | 54.600912 | 7.569162 | 2.0 | 16.835 | 2 | 41.115 | 16.934 | 31.769 | 2 |
| 2025-06-30T10:11:00 | 54.600074 | 7.569195 | 2.0 | 16.832 | 2 | 41.166 | 16.987 | 31.771 | 2 |
| 2025-06-30T10:12:00 | 54.598927 | 7.568998 | 2.0 | 16.810 | 2 | 41.164 | 16.985 | 31.771 | 2 |
| 2025-06-30T10:13:00 | 54.597466 | 7.568264 | 2.0 | 16.800 | 2 | 41.145 | 16.969 | 31.767 | 2 |
| 2025-06-30T10:14:00 | 54.595718 | 7.568171 | 2.0 | 16.801 | 2 | 41.124 | 16.957 | 31.758 | 2 |
| 2025-06-30T10:15:00 | 54.593795 | 7.568562 | 2.0 | 16.784 | 2 | 41.111 | 16.954 | 31.750 | 2 |
| 2025-06-30T10:16:00 | 54.591422 | 7.568860 | 2.0 | 16.791 | 2 | 41.099 | 16.949 | 31.743 | 2 |
| 2025-06-30T10:17:00 | 54.588812 | 7.569371 | 2.0 | 16.749 | 2 | 41.095 | 16.941 | 31.746 | 2 |
| 2025-06-30T10:18:00 | 54.586137 | 7.569907 | 2.0 | 16.740 | 2 | 41.080 | 16.907 | 31.760 | 2 |
| 2025-06-30T10:19:00 | 54.583421 | 7.570470 | 2.0 | 16.701 | 2 | 41.079 | 16.899 | 31.765 | 2 |
| 2025-06-30T10:20:00 | 54.580627 | 7.570970 | 2.0 | 16.673 | 2 | 41.072 | 16.861 | 31.789 | 2 |
| 2025-06-30T10:21:00 | 54.577833 | 7.571409 | 2.0 | 16.661 | 2 | 41.068 | 16.836 | 31.806 | 2 |
| 2025-06-30T10:22:00 | 54.575047 | 7.571964 | 2.0 | 16.670 | 2 | 41.067 | 16.820 | 31.817 | 2 |
| 2025-06-30T10:23:00 | 54.572234 | 7.572520 | 2.0 | 16.702 | 2 | 41.095 | 16.839 | 31.827 | 2 |
| 2025-06-30T10:24:00 | 54.569416 | 7.573025 | 2.0 | 16.760 | 2 | 41.129 | 16.876 | 31.827 | 2 |
| 2025-06-30T10:25:00 | 54.566612 | 7.573531 | 2.0 | 16.696 | 2 | 41.159 | 16.909 | 31.826 | 2 |
| 2025-06-30T10:26:00 | 54.563775 | 7.574062 | 2.0 | 16.712 | 2 | 41.112 | 16.859 | 31.825 | 2 |
| 2025-06-30T10:27:00 | 54.560917 | 7.574613 | 2.0 | 16.700 | 2 | 41.118 | 16.871 | 31.821 | 2 |
| 2025-06-30T10:28:00 | 54.558048 | 7.575109 | 2.0 | 16.718 | 2 | 41.125 | 16.860 | 31.836 | 2 |
| 2025-06-30T10:29:00 | 54.555190 | 7.575629 | 2.0 | 16.749 | 2 | 41.156 | 16.878 | 31.848 | 2 |
| 2025-06-30T10:30:00 | 54.552346 | 7.576181 | 2.0 | 16.781 | 2 | 41.202 | 16.909 | 31.864 | 2 |
| 2025-06-30T10:31:00 | 54.549512 | 7.576696 | 2.0 | 16.820 | 2 | 41.253 | 16.951 | 31.874 | 2 |
| 2025-06-30T10:32:00 | 54.546665 | 7.577213 | 2.0 | 16.842 | 2 | 41.295 | 16.982 | 31.886 | 2 |
| 2025-06-30T10:33:00 | 54.543828 | 7.577651 | 2.0 | 16.855 | 2 | 41.328 | 17.008 | 31.894 | 2 |
| 2025-06-30T10:34:00 | 54.540995 | 7.578204 | 2.0 | 16.824 | 2 | 41.333 | 17.003 | 31.902 | 2 |
| 2025-06-30T10:35:00 | 54.538160 | 7.578729 | 2.0 | 16.834 | 2 | 41.320 | 16.978 | 31.911 | 2 |
| 2025-06-30T10:36:00 | 54.535320 | 7.579283 | 2.0 | 16.863 | 2 | 41.345 | 17.001 | 31.914 | 2 |
| 2025-06-30T10:37:00 | 54.532481 | 7.579792 | 2.0 | 16.877 | 2 | 41.372 | 17.022 | 31.920 | 2 |
| 2025-06-30T10:38:00 | 54.529620 | 7.580263 | 2.0 | 16.777 | 2 | 41.379 | 17.013 | 31.934 | 2 |
| 2025-06-30T10:39:00 | 54.526752 | 7.580769 | 2.0 | 16.747 | 2 | 41.315 | 16.936 | 31.940 | 2 |
| 2025-06-30T10:40:00 | 54.523868 | 7.581282 | 2.0 | 16.721 | 2 | 41.284 | 16.905 | 31.937 | 2 |
| 2025-06-30T10:41:00 | 54.520979 | 7.581779 | 2.0 | 16.748 | 2 | 41.271 | 16.892 | 31.937 | 2 |
| 2025-06-30T10:42:00 | 54.518110 | 7.582327 | 2.0 | 16.742 | 2 | 41.290 | 16.909 | 31.939 | 2 |
| 2025-06-30T10:43:00 | 54.515241 | 7.582844 | 2.0 | 16.751 | 2 | 41.288 | 16.901 | 31.944 | 2 |
| 2025-06-30T10:44:00 | 54.512352 | 7.583280 | 2.0 | 16.831 | 2 | 41.305 | 16.915 | 31.948 | 2 |
| 2025-06-30T10:45:00 | 54.509489 | 7.583861 | 2.0 | 16.989 | 2 | 41.398 | 17.001 | 31.960 | 2 |
| 2025-06-30T10:46:00 | 54.506641 | 7.584401 | 2.0 | 17.007 | 2 | 41.582 | 17.224 | 31.941 | 2 |
| 2025-06-30T10:47:00 | 54.503794 | 7.584937 | 2.0 | 16.856 | 2 | 41.494 | 17.155 | 31.920 | 2 |
| 2025-06-30T10:48:00 | 54.500955 | 7.585451 | 2.0 | 16.794 | 2 | 41.349 | 17.011 | 31.909 | 2 |
| 2025-06-30T10:49:00 | 54.498101 | 7.585949 | 2.0 | 16.762 | 2 | 41.286 | 16.952 | 31.902 | 2 |
| 2025-06-30T10:50:00 | 54.495247 | 7.586484 | 2.0 | 16.784 | 2 | 41.263 | 16.928 | 31.901 | 2 |
| 2025-06-30T10:51:00 | 54.492384 | 7.587000 | 2.0 | 16.810 | 2 | 41.269 | 16.953 | 31.886 | 2 |
| 2025-06-30T10:52:00 | 54.489541 | 7.587484 | 2.0 | 16.879 | 2 | 41.271 | 16.976 | 31.870 | 2 |
| 2025-06-30T10:53:00 | 54.486712 | 7.587982 | 2.0 | 16.920 | 2 | 41.322 | 17.039 | 31.864 | 2 |
| 2025-06-30T10:54:00 | 54.483883 | 7.588529 | 2.0 | 16.907 | 2 | 41.349 | 17.070 | 31.863 | 2 |
| 2025-06-30T10:55:00 | 54.481041 | 7.588977 | 2.0 | 16.879 | 2 | 41.338 | 17.059 | 31.862 | 2 |
| 2025-06-30T10:56:00 | 54.478185 | 7.589515 | 2.0 | 16.893 | 2 | 41.323 | 17.046 | 31.859 | 2 |
| 2025-06-30T10:57:00 | 54.475332 | 7.590021 | 2.0 | 16.920 | 2 | 41.346 | 17.065 | 31.864 | 2 |
| 2025-06-30T10:58:00 | 54.472480 | 7.590477 | 2.0 | 17.007 | 2 | 41.364 | 17.096 | 31.855 | 2 |
| 2025-06-30T10:59:00 | 54.469619 | 7.591024 | 2.0 | 17.047 | 2 | 41.427 | 17.163 | 31.856 | 2 |
| 2025-06-30T11:00:00 | 54.466766 | 7.591563 | 2.0 | 17.011 | 2 | 41.446 | 17.196 | 31.847 | 2 |
| 2025-06-30T11:01:00 | 54.463911 | 7.592089 | 2.0 | 16.967 | 2 | 41.418 | 17.171 | 31.842 | 2 |
| 2025-06-30T11:02:00 | 54.461066 | 7.592587 | 2.0 | 16.918 | 2 | 41.384 | 17.110 | 31.861 | 2 |
| 2025-06-30T11:03:00 | 54.458216 | 7.593050 | 2.0 | 16.987 | 2 | 41.380 | 17.109 | 31.859 | 2 |
| 2025-06-30T11:04:00 | 54.455382 | 7.593601 | 2.0 | 17.037 | 2 | 41.423 | 17.166 | 31.851 | 2 |
| 2025-06-30T11:05:00 | 54.452577 | 7.594143 | 2.0 | 17.046 | 2 | 41.442 | 17.199 | 31.841 | 2 |
| 2025-06-30T11:06:00 | 54.449767 | 7.594635 | 2.0 | 16.995 | 2 | 41.449 | 17.192 | 31.852 | 2 |
| 2025-06-30T11:07:00 | 54.446938 | 7.595167 | 2.0 | 16.929 | 2 | 41.443 | 17.152 | 31.879 | 2 |
| 2025-06-30T11:08:00 | 54.444116 | 7.595649 | 2.0 | 16.985 | 2 | 41.406 | 17.098 | 31.890 | 2 |
| 2025-06-30T11:09:00 | 54.441300 | 7.596179 | 2.0 | 16.920 | 2 | 41.447 | 17.140 | 31.892 | 2 |
| 2025-06-30T11:10:00 | 54.438466 | 7.596672 | 2.0 | 16.930 | 2 | 41.427 | 17.077 | 31.924 | 2 |
| 2025-06-30T11:11:00 | 54.435631 | 7.597217 | 2.0 | 16.889 | 2 | 41.436 | 17.079 | 31.930 | 2 |
| 2025-06-30T11:12:00 | 54.432812 | 7.597764 | 2.0 | 16.809 | 2 | 41.432 | 17.046 | 31.953 | 2 |
| 2025-06-30T11:13:00 | 54.429984 | 7.598244 | 2.0 | 16.737 | 2 | 41.367 | 16.956 | 31.969 | 2 |
| 2025-06-30T11:14:00 | 54.427158 | 7.598776 | 2.0 | 16.760 | 2 | 41.338 | 16.905 | 31.984 | 2 |
| 2025-06-30T11:15:00 | 54.424335 | 7.599306 | 2.0 | 16.776 | 2 | 41.393 | 16.923 | 32.017 | 2 |
| 2025-06-30T11:16:00 | 54.421519 | 7.599792 | 2.0 | 16.794 | 2 | 41.447 | 16.940 | 32.050 | 2 |
| 2025-06-30T11:17:00 | 54.418709 | 7.600305 | 2.0 | 16.713 | 2 | 41.482 | 16.925 | 32.092 | 2 |
| 2025-06-30T11:18:00 | 54.415895 | 7.600829 | 2.0 | 16.673 | 2 | 41.464 | 16.877 | 32.115 | 2 |
| 2025-06-30T11:19:00 | 54.413085 | 7.601447 | 2.0 | 16.719 | 2 | 41.450 | 16.836 | 32.136 | 2 |
| 2025-06-30T11:20:00 | 54.410298 | 7.602432 | 2.0 | 16.769 | 2 | 41.500 | 16.882 | 32.142 | 2 |
| 2025-06-30T11:21:00 | 54.407494 | 7.603407 | 2.0 | 16.808 | 2 | 41.572 | 16.931 | 32.165 | 2 |
| 2025-06-30T11:22:00 | 54.404691 | 7.604038 | 2.0 | 16.768 | 2 | 41.595 | 16.948 | 32.172 | 2 |
| 2025-06-30T11:23:00 | 54.401915 | 7.604991 | 2.0 | 16.721 | 2 | 41.581 | 16.938 | 32.168 | 2 |
| 2025-06-30T11:24:00 | 54.399150 | 7.605913 | 2.0 | 16.779 | 2 | 41.489 | 16.887 | 32.129 | 2 |
| 2025-06-30T11:25:00 | 54.396373 | 7.606845 | 2.0 | 16.768 | 2 | 41.516 | 16.938 | 32.111 | 2 |
| 2025-06-30T11:26:00 | 54.393586 | 7.607801 | 2.0 | 16.829 | 2 | 41.520 | 16.953 | 32.103 | 2 |
| 2025-06-30T11:27:00 | 54.390793 | 7.608698 | 2.0 | 16.759 | 2 | 41.515 | 16.973 | 32.083 | 2 |
| 2025-06-30T11:28:00 | 54.388004 | 7.609611 | 2.0 | 16.754 | 2 | 41.468 | 16.937 | 32.071 | 2 |
| 2025-06-30T11:29:00 | 54.385212 | 7.610532 | 2.0 | 16.735 | 2 | 41.436 | 16.915 | 32.061 | 2 |
| 2025-06-30T11:30:00 | 54.382420 | 7.611467 | 2.0 | 16.693 | 2 | 41.401 | 16.894 | 32.047 | 2 |
| 2025-06-30T11:31:00 | 54.379627 | 7.612417 | 2.0 | 16.727 | 2 | 41.359 | 16.856 | 32.041 | 2 |
| 2025-06-30T11:32:00 | 54.376884 | 7.613278 | 2.0 | 16.752 | 2 | 41.383 | 16.904 | 32.024 | 2 |
| 2025-06-30T11:33:00 | 54.374135 | 7.614232 | 2.0 | 16.753 | 2 | 41.390 | 16.914 | 32.022 | 2 |
| 2025-06-30T11:34:00 | 54.371366 | 7.615126 | 2.0 | 16.739 | 2 | 41.382 | 16.916 | 32.013 | 2 |
| 2025-06-30T11:35:00 | 54.368593 | 7.616075 | 2.0 | 16.756 | 2 | 41.371 | 16.897 | 32.019 | 2 |
| 2025-06-30T11:36:00 | 54.365820 | 7.616973 | 2.0 | 16.789 | 2 | 41.409 | 16.934 | 32.022 | 2 |
| 2025-06-30T11:37:00 | 54.363047 | 7.617846 | 2.0 | 16.764 | 2 | 41.449 | 16.960 | 32.036 | 2 |
| 2025-06-30T11:38:00 | 54.360268 | 7.618815 | 2.0 | 16.756 | 2 | 41.438 | 16.922 | 32.057 | 2 |
| 2025-06-30T11:39:00 | 54.357475 | 7.619644 | 2.0 | 17.068 | 2 | 41.492 | 16.996 | 32.044 | 2 |
| 2025-06-30T11:40:00 | 54.354691 | 7.620635 | 2.0 | 16.928 | 2 | 41.676 | 17.185 | 32.053 | 2 |
| 2025-06-30T11:41:00 | 54.351912 | 7.621568 | 2.0 | 16.848 | 2 | 41.606 | 17.083 | 32.073 | 2 |
| 2025-06-30T11:42:00 | 54.349160 | 7.622535 | 2.0 | 16.830 | 2 | 41.549 | 17.017 | 32.077 | 2 |
| 2025-06-30T11:43:00 | 54.346392 | 7.623410 | 2.0 | 16.935 | 2 | 41.547 | 17.013 | 32.078 | 2 |
| 2025-06-30T11:44:00 | 54.343592 | 7.624342 | 2.0 | 16.859 | 2 | 41.629 | 17.094 | 32.084 | 2 |
| 2025-06-30T11:45:00 | 54.340786 | 7.625333 | 2.0 | 16.755 | 2 | 41.567 | 17.009 | 32.099 | 2 |
| 2025-06-30T11:46:00 | 54.338148 | 7.627256 | 2.0 | 16.717 | 2 | 41.493 | 16.915 | 32.110 | 2 |
| 2025-06-30T11:47:00 | 54.336085 | 7.630835 | 2.0 | 16.701 | 2 | 41.471 | 16.869 | 32.128 | 2 |
| 2025-06-30T11:48:00 | 54.334790 | 7.635454 | 2.0 | 16.694 | 2 | 41.457 | 16.860 | 32.123 | 2 |
| 2025-06-30T11:49:00 | 54.334544 | 7.640563 | 2.0 | 16.697 | 2 | 41.452 | 16.861 | 32.118 | 2 |
| 2025-06-30T11:50:00 | 54.335404 | 7.645442 | 2.0 | 16.660 | 2 | 41.428 | 16.854 | 32.102 | 2 |
| 2025-06-30T11:51:00 | 54.337059 | 7.649580 | 2.0 | 16.697 | 2 | 41.390 | 16.831 | 32.088 | 2 |
| 2025-06-30T11:52:00 | 54.338753 | 7.653737 | 2.0 | 16.935 | 2 | 41.445 | 16.923 | 32.062 | 2 |
| 2025-06-30T11:53:00 | 54.340432 | 7.657974 | 2.0 | 17.063 | 2 | 41.582 | 17.087 | 32.050 | 2 |
| 2025-06-30T11:54:00 | 54.342090 | 7.662265 | 2.0 | 16.999 | 2 | 41.683 | 17.228 | 32.024 | 2 |
| 2025-06-30T11:55:00 | 54.343775 | 7.666497 | 2.0 | 17.353 | 2 | 41.648 | 17.225 | 31.997 | 2 |
| 2025-06-30T11:56:00 | 54.345458 | 7.670727 | 2.0 | 17.230 | 2 | 41.838 | 17.488 | 31.952 | 2 |
| 2025-06-30T11:57:00 | 54.347097 | 7.674998 | 2.0 | 17.138 | 2 | 41.748 | 17.369 | 31.969 | 2 |
| 2025-06-30T11:58:00 | 54.348743 | 7.679212 | 2.0 | 17.025 | 2 | 41.664 | 17.296 | 31.954 | 2 |
| 2025-06-30T11:59:00 | 54.350398 | 7.683393 | 2.0 | 17.144 | 2 | 41.504 | 17.177 | 31.911 | 2 |
| 2025-06-30T12:00:00 | 54.352077 | 7.687559 | 2.0 | 17.305 | 2 | 41.501 | 17.349 | 31.773 | 2 |
| 2025-06-30T12:01:00 | 54.353731 | 7.691804 | 2.0 | 17.209 | 2 | 41.516 | 17.414 | 31.735 | 2 |
| 2025-06-30T12:02:00 | 54.355403 | 7.696073 | 2.0 | 17.200 | 2 | 41.444 | 17.362 | 31.714 | 2 |
| 2025-06-30T12:03:00 | 54.357098 | 7.700284 | 2.0 | 17.243 | 2 | 41.410 | 17.355 | 31.691 | 2 |
| 2025-06-30T12:04:00 | 54.358782 | 7.704502 | 2.0 | 17.333 | 2 | 41.442 | 17.435 | 31.656 | 2 |
| 2025-06-30T12:05:00 | 54.360421 | 7.708792 | 2.0 | 17.132 | 2 | 41.467 | 17.455 | 31.661 | 2 |
| 2025-06-30T12:06:00 | 54.362118 | 7.713066 | 2.0 | 17.071 | 2 | 41.357 | 17.297 | 31.691 | 2 |
| 2025-06-30T12:07:00 | 54.363809 | 7.717367 | 2.0 | 17.121 | 2 | 41.293 | 17.244 | 31.678 | 2 |
| 2025-06-30T12:08:00 | 54.365505 | 7.721659 | 2.0 | 17.166 | 2 | 41.295 | 17.297 | 31.638 | 2 |
| 2025-06-30T12:09:00 | 54.367185 | 7.725971 | 2.0 | 17.202 | 2 | 41.298 | 17.334 | 31.612 | 2 |
| 2025-06-30T12:10:00 | 54.368874 | 7.730261 | 2.0 | 17.289 | 2 | 41.333 | 17.372 | 31.612 | 2 |
| 2025-06-30T12:11:00 | 54.370527 | 7.734578 | 2.0 | 17.279 | 2 | 41.363 | 17.453 | 31.574 | 2 |
| 2025-06-30T12:12:00 | 54.372081 | 7.739029 | 2.0 | 17.334 | 2 | 41.344 | 17.464 | 31.550 | 2 |
| 2025-06-30T12:13:00 | 54.373366 | 7.743778 | 2.0 | 17.230 | 2 | 41.346 | 17.465 | 31.551 | 2 |
| 2025-06-30T12:14:00 | 54.374771 | 7.748431 | 2.0 | 17.276 | 2 | 41.280 | 17.391 | 31.552 | 2 |
| 2025-06-30T12:15:00 | 54.376839 | 7.751911 | 2.0 | 17.309 | 2 | 41.305 | 17.440 | 31.535 | 2 |
| 2025-06-30T12:16:00 | 54.379468 | 7.752893 | 2.0 | 17.390 | 2 | 41.349 | 17.496 | 31.529 | 2 |
| 2025-06-30T12:17:00 | 54.382159 | 7.753017 | 2.0 | 17.321 | 2 | 41.412 | 17.534 | 31.553 | 2 |
| 2025-06-30T12:18:00 | 54.384625 | 7.753502 | 2.0 | 17.477 | 2 | 41.417 | 17.516 | 31.571 | 2 |
| 2025-06-30T12:19:00 | 54.386682 | 7.753882 | 2.0 | 17.376 | 2 | 41.545 | 17.629 | 31.592 | 2 |
| 2025-06-30T12:20:00 | 54.388555 | 7.754092 | 2.0 | 17.438 | 2 | 41.511 | 17.558 | 31.619 | 2 |
| 2025-06-30T12:21:00 | 54.390230 | 7.754250 | 2.0 | 17.409 | 2 | 41.552 | 17.633 | 31.595 | 2 |
| 2025-06-30T12:22:00 | 54.391706 | 7.754215 | 2.0 | 17.374 | 2 | 41.515 | 17.545 | 31.632 | 2 |
| 2025-06-30T12:23:00 | 54.392889 | 7.754022 | 2.0 | 17.356 | 2 | 41.488 | 17.565 | 31.594 | 2 |
| 2025-06-30T12:24:00 | 54.393856 | 7.753603 | 2.0 | 17.376 | 2 | 41.477 | 17.552 | 31.594 | 2 |
| 2025-06-30T12:25:00 | 54.394601 | 7.753220 | 2.0 | 17.358 | 2 | 41.516 | 17.583 | 31.603 | 2 |
| 2025-06-30T12:26:00 | 54.394958 | 7.753157 | 2.0 | 17.333 | 2 | 41.520 | 17.522 | 31.654 | 2 |
| 2025-06-30T12:27:00 | 54.395032 | 7.753235 | 2.0 | 17.220 | 2 | 41.519 | 17.463 | 31.699 | 2 |
| 2025-06-30T12:28:00 | 54.395037 | 7.753011 | 2.0 | 17.376 | 2 | 41.482 | 17.440 | 31.686 | 2 |
| 2025-06-30T12:29:00 | 54.395069 | 7.752889 | 2.0 | 17.464 | 2 | 41.555 | 17.579 | 31.640 | 2 |
| 2025-06-30T12:30:00 | 54.395105 | 7.752932 | 2.0 | 17.116 | 2 | 41.569 | 17.539 | 31.683 | 2 |
| 2025-06-30T12:31:00 | 54.395121 | 7.752877 | 2.0 | 17.140 | 2 | 41.422 | 17.333 | 31.718 | 2 |
| 2025-06-30T12:32:00 | 54.395122 | 7.752927 | 2.0 | 17.240 | 2 | 41.426 | 17.348 | 31.710 | 2 |
| 2025-06-30T12:33:00 | 54.395155 | 7.752929 | 2.0 | 17.204 | 2 | 41.479 | 17.397 | 31.717 | 2 |
| 2025-06-30T12:34:00 | 54.395173 | 7.752970 | 2.0 | 17.202 | 2 | 41.476 | 17.384 | 31.725 | 2 |
| 2025-06-30T12:35:00 | 54.395163 | 7.753017 | 2.0 | 17.219 | 2 | 41.474 | 17.399 | 31.711 | 2 |
| 2025-06-30T12:36:00 | 54.395207 | 7.752853 | 2.0 | 17.295 | 2 | 41.471 | 17.377 | 31.726 | 2 |
| 2025-06-30T12:37:00 | 54.395271 | 7.752519 | 2.0 | 17.307 | 2 | 41.546 | 17.510 | 31.686 | 2 |
| 2025-06-30T12:38:00 | 54.395293 | 7.752369 | 2.0 | 17.282 | 2 | 41.565 | 17.497 | 31.712 | 2 |
| 2025-06-30T12:39:00 | 54.395305 | 7.752402 | 2.0 | 17.224 | 2 | 41.564 | 17.450 | 31.748 | 2 |
| 2025-06-30T12:40:00 | 54.395351 | 7.752457 | 2.0 | 17.182 | 2 | 41.513 | 17.381 | 31.758 | 2 |
| 2025-06-30T12:41:00 | 54.395435 | 7.752334 | 2.0 | 17.243 | 2 | 41.500 | 17.395 | 31.736 | 2 |
| 2025-06-30T12:42:00 | 54.395501 | 7.752153 | 2.0 | 17.104 | 2 | 41.511 | 17.394 | 31.747 | 2 |
| 2025-06-30T12:43:00 | 54.395536 | 7.752056 | 2.0 | 17.091 | 2 | 41.465 | 17.307 | 31.776 | 2 |
| 2025-06-30T12:44:00 | 54.395560 | 7.751984 | 2.0 | 17.112 | 2 | 41.453 | 17.293 | 31.776 | 2 |
| 2025-06-30T12:45:00 | 54.395571 | 7.751959 | 2.0 | 17.053 | 2 | 41.456 | 17.310 | 31.765 | 2 |
| 2025-06-30T12:46:00 | 54.395572 | 7.752000 | 2.0 | 17.291 | 2 | 41.223 | 17.257 | 31.608 | 2 |
| 2025-06-30T12:47:00 | 54.395264 | 7.752087 | 2.0 | 18.016 | 2 | 41.690 | 17.681 | 31.675 | 2 |
| 2025-06-30T12:48:00 | 54.394519 | 7.752647 | 2.0 | 17.638 | 2 | 41.864 | 18.076 | 31.516 | 2 |
| 2025-06-30T12:49:00 | 54.393552 | 7.753845 | 2.0 | 17.495 | 2 | 41.747 | 17.791 | 31.637 | 2 |
| 2025-06-30T12:50:00 | 54.392663 | 7.755443 | 2.0 | 17.558 | 2 | 41.455 | 17.687 | 31.471 | 2 |
| 2025-06-30T12:51:00 | 54.392790 | 7.757116 | 2.0 | 17.160 | 2 | 41.683 | 17.735 | 31.627 | 2 |
| 2025-06-30T12:52:00 | 54.393164 | 7.757798 | 2.0 | 17.429 | 2 | 41.129 | 17.424 | 31.398 | 2 |
| 2025-06-30T12:53:00 | 54.393723 | 7.757667 | 2.0 | 17.401 | 2 | 41.336 | 17.609 | 31.430 | 2 |
| 2025-06-30T12:54:00 | 54.394248 | 7.757174 | 2.0 | 17.297 | 2 | 41.483 | 17.568 | 31.587 | 2 |
| 2025-06-30T12:55:00 | 54.394453 | 7.756922 | 2.0 | 17.353 | 2 | 41.532 | 17.506 | 31.677 | 2 |
| 2025-06-30T12:56:00 | 54.394437 | 7.756815 | 2.0 | 17.071 | 2 | 41.524 | 17.478 | 31.692 | 2 |
| 2025-06-30T12:57:00 | 54.394394 | 7.756706 | 2.0 | 17.258 | 2 | 41.439 | 17.313 | 31.749 | 2 |
| 2025-06-30T12:58:00 | 54.394355 | 7.756860 | 2.0 | 17.283 | 2 | 41.524 | 17.437 | 31.724 | 2 |
| 2025-06-30T12:59:00 | 54.394295 | 7.757293 | 2.0 | 16.974 | 2 | 41.539 | 17.431 | 31.741 | 2 |
| 2025-06-30T13:00:00 | 54.394407 | 7.757460 | 2.0 | 17.088 | 2 | 41.298 | 17.195 | 31.721 | 2 |
| 2025-06-30T13:01:00 | 54.394629 | 7.757427 | 2.0 | 18.079 | 2 | 41.422 | 17.511 | 31.579 | 2 |
| 2025-06-30T13:02:00 | 54.394878 | 7.757458 | 2.0 | 18.265 | 2 | 42.083 | 18.215 | 31.593 | 2 |
| 2025-06-30T13:03:00 | 54.395010 | 7.757410 | 2.0 | 18.035 | 2 | 42.313 | 18.466 | 31.592 | 2 |
| 2025-06-30T13:04:00 | 54.394988 | 7.757152 | 2.0 | 17.716 | 2 | 41.967 | 18.105 | 31.580 | 2 |
| 2025-06-30T13:05:00 | 54.395030 | 7.757077 | 2.0 | 17.726 | 2 | 41.905 | 17.969 | 31.633 | 2 |
| 2025-06-30T13:06:00 | 54.395017 | 7.757137 | 2.0 | 17.673 | 2 | 41.849 | 17.860 | 31.670 | 2 |
| 2025-06-30T13:07:00 | 54.394993 | 7.757198 | 2.0 | 17.776 | 2 | 41.871 | 17.905 | 31.654 | 2 |
| 2025-06-30T13:08:00 | 54.395021 | 7.757096 | 2.0 | 17.760 | 2 | 41.919 | 17.969 | 31.645 | 2 |
| 2025-06-30T13:09:00 | 54.395070 | 7.756601 | 2.0 | 17.636 | 2 | 41.804 | 17.934 | 31.575 | 2 |
| 2025-06-30T13:10:00 | 54.395122 | 7.756182 | 2.0 | 17.585 | 2 | 41.858 | 17.871 | 31.669 | 2 |
| 2025-06-30T13:11:00 | 54.395166 | 7.756201 | 2.0 | 17.363 | 2 | 41.721 | 17.651 | 31.724 | 2 |
| 2025-06-30T13:12:00 | 54.395165 | 7.756176 | 2.0 | 17.409 | 2 | 41.642 | 17.606 | 31.692 | 2 |
| 2025-06-30T13:13:00 | 54.395165 | 7.756046 | 2.0 | 17.411 | 2 | 41.612 | 17.600 | 31.672 | 2 |
| 2025-06-30T13:14:00 | 54.395255 | 7.755538 | 2.0 | 17.698 | 2 | 41.502 | 17.627 | 31.557 | 2 |
| 2025-06-30T13:15:00 | 54.395393 | 7.754963 | 2.0 | 17.566 | 2 | 41.646 | 17.878 | 31.485 | 2 |
| 2025-06-30T13:16:00 | 54.395450 | 7.755007 | 2.0 | 17.544 | 2 | 41.644 | 17.755 | 31.578 | 2 |
| 2025-06-30T13:17:00 | 54.395458 | 7.755071 | 2.0 | 17.527 | 2 | 41.511 | 17.755 | 31.466 | 2 |
| 2025-06-30T13:18:00 | 54.395496 | 7.754885 | 2.0 | 17.456 | 2 | 41.473 | 17.677 | 31.494 | 2 |
| 2025-06-30T13:19:00 | 54.395541 | 7.754506 | 2.0 | 17.599 | 2 | 41.466 | 17.691 | 31.477 | 2 |
| 2025-06-30T13:20:00 | 54.395607 | 7.754471 | 2.0 | 17.589 | 2 | 41.544 | 17.750 | 31.498 | 2 |
| 2025-06-30T13:21:00 | 54.395568 | 7.754467 | 2.0 | 17.785 | 2 | 41.662 | 17.888 | 31.491 | 2 |
| 2025-06-30T13:22:00 | 54.395538 | 7.754449 | 2.0 | 17.447 | 2 | 41.685 | 17.891 | 31.508 | 2 |
| 2025-06-30T13:23:00 | 54.395533 | 7.754527 | 2.0 | 17.513 | 2 | 41.513 | 17.684 | 31.522 | 2 |
| 2025-06-30T13:24:00 | 54.395573 | 7.754591 | 2.0 | 17.725 | 2 | 41.550 | 17.719 | 31.527 | 2 |
| 2025-06-30T13:25:00 | 54.395228 | 7.754407 | 2.0 | 18.038 | 2 | 41.744 | 18.009 | 31.467 | 2 |
| 2025-06-30T13:26:00 | 54.393839 | 7.755210 | 2.0 | 18.053 | 2 | 41.965 | 18.227 | 31.484 | 2 |
| 2025-06-30T13:27:00 | 54.391686 | 7.756720 | 2.0 | 17.904 | 2 | 41.985 | 18.220 | 31.507 | 2 |
| 2025-06-30T13:28:00 | 54.389261 | 7.758461 | 2.0 | 17.596 | 2 | 41.846 | 18.074 | 31.502 | 2 |
| 2025-06-30T13:29:00 | 54.386756 | 7.760263 | 2.0 | 17.476 | 2 | 41.581 | 17.778 | 31.507 | 2 |
| 2025-06-30T13:30:00 | 54.384207 | 7.762100 | 2.0 | 17.486 | 2 | 41.478 | 17.705 | 31.477 | 2 |
| 2025-06-30T13:31:00 | 54.381693 | 7.763905 | 2.0 | 17.603 | 2 | 41.470 | 17.678 | 31.491 | 2 |
| 2025-06-30T13:32:00 | 54.379626 | 7.765468 | 2.0 | 17.758 | 2 | 41.625 | 17.841 | 31.496 | 2 |
| 2025-06-30T13:33:00 | 54.377986 | 7.766779 | 2.0 | 17.746 | 2 | 41.738 | 17.995 | 31.472 | 2 |
| 2025-06-30T13:34:00 | 54.376592 | 7.767963 | 2.0 | 18.148 | 2 | 41.720 | 17.968 | 31.478 | 2 |
| 2025-06-30T13:35:00 | 54.375348 | 7.769062 | 2.0 | 18.081 | 2 | 42.000 | 18.370 | 31.404 | 2 |
| 2025-06-30T13:36:00 | 54.374222 | 7.769729 | 2.0 | 17.998 | 2 | 41.905 | 18.198 | 31.456 | 2 |
| 2025-06-30T13:37:00 | 54.373423 | 7.770955 | 2.0 | 18.455 | 2 | 42.036 | 18.432 | 31.387 | 2 |
| 2025-06-30T13:38:00 | 54.372638 | 7.772245 | 2.0 | 18.047 | 2 | 42.095 | 18.432 | 31.436 | 2 |
| 2025-06-30T13:39:00 | 54.371811 | 7.773500 | 2.0 | 18.486 | 2 | 41.932 | 18.284 | 31.413 | 2 |
| 2025-06-30T13:40:00 | 54.370958 | 7.774753 | 2.0 | 18.536 | 2 | 42.161 | 18.572 | 31.384 | 2 |
| 2025-06-30T13:41:00 | 54.370097 | 7.776007 | 2.0 | 18.135 | 2 | 42.270 | 18.638 | 31.425 | 2 |
| 2025-06-30T13:42:00 | 54.369234 | 7.777255 | 2.0 | 17.741 | 2 | 41.929 | 18.245 | 31.441 | 2 |
| 2025-06-30T13:43:00 | 54.368370 | 7.778505 | 2.0 | 17.583 | 2 | 41.633 | 17.920 | 31.442 | 2 |
| 2025-06-30T13:44:00 | 54.367500 | 7.779749 | 2.0 | 17.506 | 2 | 41.475 | 17.762 | 31.430 | 2 |
| 2025-06-30T13:45:00 | 54.366622 | 7.780999 | 2.0 | 17.479 | 2 | 41.399 | 17.691 | 31.420 | 2 |
| 2025-06-30T13:46:00 | 54.365740 | 7.782247 | 2.0 | 17.478 | 2 | 41.358 | 17.658 | 31.411 | 2 |
| 2025-06-30T13:47:00 | 54.364857 | 7.783467 | 2.0 | 17.560 | 2 | 41.358 | 17.667 | 31.404 | 2 |
| 2025-06-30T13:48:00 | 54.363972 | 7.784701 | 2.0 | 17.487 | 2 | 41.396 | 17.721 | 31.395 | 2 |
| 2025-06-30T13:49:00 | 54.363073 | 7.785943 | 2.0 | 17.411 | 2 | 41.367 | 17.656 | 31.420 | 2 |
| 2025-06-30T13:50:00 | 54.362185 | 7.787124 | 2.0 | 17.386 | 2 | 41.322 | 17.598 | 31.427 | 2 |
| 2025-06-30T13:51:00 | 54.361335 | 7.788170 | 2.0 | 17.508 | 2 | 41.326 | 17.607 | 31.423 | 2 |
| 2025-06-30T13:52:00 | 54.360535 | 7.789139 | 2.0 | 17.522 | 2 | 41.391 | 17.688 | 31.416 | 2 |
| 2025-06-30T13:53:00 | 54.359781 | 7.790100 | 2.0 | 17.552 | 2 | 41.406 | 17.714 | 31.409 | 2 |
| 2025-06-30T13:54:00 | 54.359061 | 7.791025 | 2.0 | 17.499 | 2 | 41.426 | 17.713 | 31.426 | 2 |
| 2025-06-30T13:55:00 | 54.358350 | 7.791883 | 2.0 | 17.380 | 2 | 41.394 | 17.644 | 31.453 | 2 |
| 2025-06-30T13:56:00 | 54.357695 | 7.792776 | 2.0 | 17.379 | 2 | 41.358 | 17.573 | 31.477 | 2 |
| 2025-06-30T13:57:00 | 54.357042 | 7.793567 | 2.0 | 17.375 | 2 | 41.347 | 17.542 | 31.492 | 2 |
| 2025-06-30T13:58:00 | 54.356412 | 7.794372 | 2.0 | 17.345 | 2 | 41.378 | 17.565 | 31.500 | 2 |
| 2025-06-30T13:59:00 | 54.355795 | 7.795157 | 2.0 | 17.339 | 2 | 41.361 | 17.520 | 31.521 | 2 |
| 2025-06-30T14:00:00 | 54.355174 | 7.795916 | 2.0 | 17.368 | 2 | 41.378 | 17.565 | 31.500 | 2 |
| 2025-06-30T14:01:00 | 54.354571 | 7.796700 | 2.0 | 17.282 | 2 | 41.366 | 17.531 | 31.516 | 2 |
| 2025-06-30T14:02:00 | 54.353959 | 7.797444 | 2.0 | 17.343 | 2 | 41.340 | 17.485 | 31.530 | 2 |
| 2025-06-30T14:03:00 | 54.353354 | 7.798195 | 2.0 | 17.320 | 2 | 41.345 | 17.493 | 31.528 | 2 |
| 2025-06-30T14:04:00 | 54.352747 | 7.798971 | 2.0 | 17.292 | 2 | 41.337 | 17.478 | 31.533 | 2 |
| 2025-06-30T14:05:00 | 54.352135 | 7.799707 | 2.0 | 17.259 | 2 | 41.338 | 17.462 | 31.546 | 2 |
| 2025-06-30T14:06:00 | 54.351518 | 7.800462 | 2.0 | 17.276 | 2 | 41.338 | 17.444 | 31.560 | 2 |
| 2025-06-30T14:07:00 | 54.350904 | 7.801203 | 2.0 | 17.238 | 2 | 41.345 | 17.447 | 31.564 | 2 |
| 2025-06-30T14:08:00 | 54.350283 | 7.801934 | 2.0 | 17.209 | 2 | 41.327 | 17.408 | 31.579 | 2 |
| 2025-06-30T14:09:00 | 54.349665 | 7.802669 | 2.0 | 17.219 | 2 | 41.313 | 17.384 | 31.585 | 2 |
| 2025-06-30T14:10:00 | 54.349042 | 7.803389 | 2.0 | 17.225 | 2 | 41.317 | 17.389 | 31.585 | 2 |
| 2025-06-30T14:11:00 | 54.348418 | 7.804103 | 2.0 | 17.219 | 2 | 41.325 | 17.400 | 31.583 | 2 |
| 2025-06-30T14:12:00 | 54.347799 | 7.804842 | 2.0 | 17.194 | 2 | 41.328 | 17.394 | 31.590 | 2 |
| 2025-06-30T14:13:00 | 54.347179 | 7.805550 | 2.0 | 17.206 | 2 | 41.313 | 17.354 | 31.609 | 2 |
| 2025-06-30T14:14:00 | 54.346564 | 7.806256 | 2.0 | 17.165 | 2 | 41.325 | 17.374 | 31.604 | 2 |
| 2025-06-30T14:15:00 | 54.345961 | 7.806961 | 2.0 | 17.165 | 2 | 41.314 | 17.347 | 31.615 | 2 |
| 2025-06-30T14:16:00 | 54.345342 | 7.807612 | 2.0 | 17.159 | 2 | 41.309 | 17.332 | 31.623 | 2 |
| 2025-06-30T14:17:00 | 54.344746 | 7.808311 | 2.0 | 17.172 | 2 | 41.309 | 17.333 | 31.622 | 2 |
| 2025-06-30T14:18:00 | 54.344129 | 7.808942 | 2.0 | 17.130 | 2 | 41.316 | 17.334 | 31.627 | 2 |
| 2025-06-30T14:19:00 | 54.343524 | 7.809615 | 2.0 | 17.096 | 2 | 41.300 | 17.294 | 31.645 | 2 |
| 2025-06-30T14:20:00 | 54.342917 | 7.810239 | 2.0 | 17.161 | 2 | 41.288 | 17.272 | 31.652 | 2 |
| 2025-06-30T14:21:00 | 54.342310 | 7.810886 | 2.0 | 17.764 | 2 | 41.476 | 17.535 | 31.607 | 2 |
| 2025-06-30T14:22:00 | 54.341703 | 7.811529 | 2.0 | 17.553 | 2 | 41.865 | 17.954 | 31.611 | 2 |
| 2025-06-30T14:23:00 | 54.341095 | 7.812147 | 2.0 | 17.819 | 2 | 41.675 | 17.676 | 31.666 | 2 |
| 2025-06-30T14:24:00 | 54.340502 | 7.812794 | 2.0 | 17.520 | 2 | 41.950 | 18.036 | 31.619 | 2 |
| 2025-06-30T14:25:00 | 54.339907 | 7.813395 | 2.0 | 18.327 | 2 | 41.762 | 17.768 | 31.668 | 2 |
| 2025-06-30T14:26:00 | 54.339319 | 7.814031 | 2.0 | 18.084 | 2 | 42.201 | 18.286 | 31.637 | 2 |
| 2025-06-30T14:27:00 | 54.338738 | 7.814655 | 2.0 | 18.240 | 2 | 42.174 | 18.217 | 31.667 | 2 |
| 2025-06-30T14:28:00 | 54.338154 | 7.815267 | 2.0 | 18.148 | 2 | 42.321 | 18.366 | 31.675 | 2 |
| 2025-06-30T14:29:00 | 54.337575 | 7.815915 | 2.0 | 18.211 | 2 | 42.332 | 18.364 | 31.686 | 2 |
| 2025-06-30T14:30:00 | 54.336989 | 7.816530 | 2.0 | 18.104 | 2 | 42.301 | 18.313 | 31.699 | 2 |
| 2025-06-30T14:31:00 | 54.336418 | 7.817163 | 2.0 | 17.933 | 2 | 42.212 | 18.218 | 31.698 | 2 |
| 2025-06-30T14:32:00 | 54.335843 | 7.817772 | 2.0 | 18.149 | 2 | 42.126 | 18.128 | 31.696 | 2 |
| 2025-06-30T14:33:00 | 54.335267 | 7.818379 | 2.0 | 18.138 | 2 | 42.316 | 18.328 | 31.700 | 2 |
| 2025-06-30T14:34:00 | 54.334699 | 7.818995 | 2.0 | 18.232 | 2 | 42.350 | 18.353 | 31.710 | 2 |
| 2025-06-30T14:35:00 | 54.334123 | 7.819584 | 2.0 | 18.279 | 2 | 42.378 | 18.365 | 31.724 | 2 |
| 2025-06-30T14:36:00 | 54.333556 | 7.820216 | 2.0 | 18.253 | 2 | 42.501 | 18.496 | 31.725 | 2 |
| 2025-06-30T14:37:00 | 54.332984 | 7.820811 | 2.0 | 18.607 | 2 | 42.481 | 18.475 | 31.725 | 2 |
| 2025-06-30T14:38:00 | 54.332411 | 7.821396 | 2.0 | 18.280 | 2 | 42.670 | 18.643 | 31.753 | 2 |
| 2025-06-30T14:39:00 | 54.331845 | 7.821992 | 2.0 | 18.588 | 2 | 42.597 | 18.571 | 31.748 | 2 |
| 2025-06-30T14:40:00 | 54.331275 | 7.822555 | 2.0 | 18.717 | 2 | 42.771 | 18.763 | 31.745 | 2 |
| 2025-06-30T14:41:00 | 54.330709 | 7.823133 | 2.0 | 18.544 | 2 | 42.788 | 18.754 | 31.766 | 2 |
| 2025-06-30T14:42:00 | 54.330137 | 7.823722 | 2.0 | 18.547 | 2 | 42.728 | 18.692 | 31.763 | 2 |
| 2025-06-30T14:43:00 | 54.329573 | 7.824293 | 2.0 | 18.334 | 2 | 42.698 | 18.640 | 31.778 | 2 |
| 2025-06-30T14:44:00 | 54.329038 | 7.824895 | 2.0 | 18.226 | 2 | 42.586 | 18.517 | 31.780 | 2 |
| 2025-06-30T14:45:00 | 54.328510 | 7.825431 | 2.0 | 18.120 | 2 | 42.454 | 18.364 | 31.788 | 2 |
| 2025-06-30T14:46:00 | 54.328013 | 7.826005 | 2.0 | 18.163 | 2 | 42.419 | 18.354 | 31.766 | 2 |
| 2025-06-30T14:47:00 | 54.327519 | 7.826542 | 2.0 | 18.149 | 2 | 42.404 | 18.307 | 31.790 | 2 |
| 2025-06-30T14:48:00 | 54.327044 | 7.827095 | 2.0 | 18.049 | 2 | 42.366 | 18.281 | 31.779 | 2 |
| 2025-06-30T14:49:00 | 54.326568 | 7.827602 | 2.0 | 17.973 | 2 | 42.302 | 18.208 | 31.782 | 2 |
| 2025-06-30T14:50:00 | 54.326118 | 7.828165 | 2.0 | 17.928 | 2 | 42.263 | 18.171 | 31.777 | 2 |
| 2025-06-30T14:51:00 | 54.325654 | 7.828657 | 2.0 | 17.946 | 2 | 42.245 | 18.157 | 31.773 | 2 |
| 2025-06-30T14:52:00 | 54.325206 | 7.829211 | 2.0 | 17.821 | 2 | 42.189 | 18.084 | 31.783 | 2 |
| 2025-06-30T14:53:00 | 54.324750 | 7.829697 | 2.0 | 17.699 | 2 | 42.089 | 17.970 | 31.787 | 2 |
| 2025-06-30T14:54:00 | 54.324314 | 7.830204 | 2.0 | 17.930 | 2 | 42.009 | 17.895 | 31.778 | 2 |
| 2025-06-30T14:55:00 | 54.323886 | 7.830723 | 2.0 | 18.256 | 2 | 42.247 | 18.227 | 31.721 | 2 |
| 2025-06-30T14:56:00 | 54.323457 | 7.831214 | 2.0 | 18.374 | 2 | 42.433 | 18.423 | 31.725 | 2 |
| 2025-06-30T14:57:00 | 54.323035 | 7.831734 | 2.0 | 18.258 | 2 | 42.518 | 18.525 | 31.717 | 2 |
| 2025-06-30T14:58:00 | 54.322605 | 7.832206 | 2.0 | 18.234 | 2 | 42.381 | 18.335 | 31.749 | 2 |
| 2025-06-30T14:59:00 | 54.322190 | 7.832729 | 2.0 | 18.410 | 2 | 42.388 | 18.405 | 31.701 | 2 |
| 2025-06-30T15:00:00 | 54.321761 | 7.833201 | 2.0 | 18.044 | 2 | 42.358 | 18.316 | 31.745 | 2 |
| 2025-06-30T15:01:00 | 54.321346 | 7.833712 | 2.0 | 18.200 | 2 | 42.287 | 18.295 | 31.702 | 2 |
| 2025-06-30T15:02:00 | 54.320922 | 7.834166 | 2.0 | 17.946 | 2 | 42.317 | 18.295 | 31.727 | 2 |
| 2025-06-30T15:03:00 | 54.320506 | 7.834652 | 2.0 | 18.028 | 2 | 42.176 | 18.136 | 31.732 | 2 |
| 2025-06-30T15:04:00 | 54.320085 | 7.835090 | 2.0 | 17.902 | 2 | 42.198 | 18.175 | 31.720 | 2 |
| 2025-06-30T15:05:00 | 54.319654 | 7.835558 | 2.0 | 17.971 | 2 | 42.199 | 18.202 | 31.700 | 2 |
| 2025-06-30T15:06:00 | 54.319224 | 7.835997 | 2.0 | 17.954 | 2 | 42.150 | 18.115 | 31.726 | 2 |
| 2025-06-30T15:07:00 | 54.318814 | 7.836450 | 2.0 | 18.455 | 2 | 42.238 | 18.276 | 31.675 | 2 |
| 2025-06-30T15:08:00 | 54.318413 | 7.836866 | 2.0 | 17.842 | 2 | 42.431 | 18.510 | 31.656 | 2 |
| 2025-06-30T15:09:00 | 54.318009 | 7.837243 | 2.0 | 18.199 | 2 | 42.088 | 18.026 | 31.743 | 2 |
| 2025-06-30T15:10:00 | 54.317633 | 7.837686 | 2.0 | 18.249 | 2 | 42.360 | 18.472 | 31.626 | 2 |
| 2025-06-30T15:11:00 | 54.317226 | 7.838051 | 2.0 | 17.710 | 2 | 42.230 | 18.192 | 31.734 | 2 |
| 2025-06-30T15:12:00 | 54.316826 | 7.838440 | 2.0 | 18.338 | 2 | 42.000 | 17.966 | 31.715 | 2 |
| 2025-06-30T15:13:00 | 54.316441 | 7.838866 | 2.0 | 17.847 | 2 | 42.366 | 18.445 | 31.652 | 2 |
| 2025-06-30T15:14:00 | 54.316051 | 7.839199 | 2.0 | 17.936 | 2 | 42.030 | 17.961 | 31.744 | 2 |
| 2025-06-30T15:15:00 | 54.315682 | 7.839604 | 2.0 | 18.177 | 2 | 42.101 | 18.135 | 31.669 | 2 |
| 2025-06-30T15:16:00 | 54.315316 | 7.839981 | 2.0 | 18.098 | 2 | 42.262 | 18.322 | 31.660 | 2 |
| 2025-06-30T15:17:00 | 54.314943 | 7.840335 | 2.0 | 17.911 | 2 | 42.163 | 18.162 | 31.701 | 2 |
| 2025-06-30T15:18:00 | 54.314580 | 7.840715 | 2.0 | 17.973 | 2 | 42.112 | 18.131 | 31.682 | 2 |
| 2025-06-30T15:19:00 | 54.314204 | 7.841032 | 2.0 | 17.993 | 2 | 42.095 | 18.102 | 31.690 | 2 |
| 2025-06-30T15:20:00 | 54.313843 | 7.841398 | 2.0 | 17.847 | 2 | 42.120 | 18.144 | 31.678 | 2 |
| 2025-06-30T15:21:00 | 54.313469 | 7.841725 | 2.0 | 17.597 | 2 | 41.978 | 17.931 | 31.724 | 2 |
| 2025-06-30T15:22:00 | 54.313105 | 7.842086 | 2.0 | 17.821 | 2 | 41.886 | 17.853 | 31.707 | 2 |
| 2025-06-30T15:23:00 | 54.312731 | 7.842419 | 2.0 | 17.680 | 2 | 41.965 | 17.948 | 31.700 | 2 |
| 2025-06-30T15:24:00 | 54.312356 | 7.842771 | 2.0 | 17.961 | 2 | 41.933 | 17.923 | 31.692 | 2 |
| 2025-06-30T15:25:00 | 54.311981 | 7.843096 | 2.0 | 17.789 | 2 | 42.093 | 18.097 | 31.692 | 2 |
| 2025-06-30T15:26:00 | 54.311605 | 7.843420 | 2.0 | 17.875 | 2 | 41.956 | 17.921 | 31.713 | 2 |
| 2025-06-30T15:27:00 | 54.311236 | 7.843759 | 2.0 | 17.950 | 2 | 42.071 | 18.096 | 31.674 | 2 |
| 2025-06-30T15:28:00 | 54.310856 | 7.844058 | 2.0 | 18.024 | 2 | 42.118 | 18.114 | 31.700 | 2 |
| 2025-06-30T15:29:00 | 54.310494 | 7.844387 | 2.0 | 17.880 | 2 | 42.143 | 18.152 | 31.691 | 2 |
| 2025-06-30T15:30:00 | 54.310119 | 7.844663 | 2.0 | 17.640 | 2 | 42.049 | 18.015 | 31.719 | 2 |
| 2025-06-30T15:31:00 | 54.309778 | 7.845010 | 2.0 | 18.008 | 2 | 41.912 | 17.878 | 31.709 | 2 |
| 2025-06-30T15:32:00 | 54.309446 | 7.845353 | 2.0 | 17.838 | 2 | 42.146 | 18.159 | 31.689 | 2 |
| 2025-06-30T15:33:00 | 54.309101 | 7.845658 | 2.0 | 18.156 | 2 | 42.092 | 18.071 | 31.711 | 2 |
| 2025-06-30T15:34:00 | 54.308780 | 7.846013 | 2.0 | 18.162 | 2 | 42.291 | 18.325 | 31.682 | 2 |
| 2025-06-30T15:35:00 | 54.308441 | 7.846307 | 2.0 | 18.018 | 2 | 42.291 | 18.278 | 31.718 | 2 |
| 2025-06-30T15:36:00 | 54.308123 | 7.846635 | 2.0 | 17.672 | 2 | 42.139 | 18.101 | 31.728 | 2 |
| 2025-06-30T15:37:00 | 54.307785 | 7.846948 | 2.0 | 17.461 | 2 | 41.880 | 17.802 | 31.741 | 2 |
| 2025-06-30T15:38:00 | 54.307446 | 7.847255 | 2.0 | 17.789 | 2 | 41.780 | 17.722 | 31.719 | 2 |
| 2025-06-30T15:39:00 | 54.307123 | 7.847597 | 2.0 | 17.920 | 2 | 42.033 | 18.024 | 31.698 | 2 |
| 2025-06-30T15:40:00 | 54.306784 | 7.847877 | 2.0 | 17.876 | 2 | 42.046 | 18.008 | 31.721 | 2 |
| 2025-06-30T15:41:00 | 54.306453 | 7.848210 | 2.0 | 17.638 | 2 | 42.031 | 17.999 | 31.716 | 2 |
| 2025-06-30T15:42:00 | 54.306103 | 7.848496 | 2.0 | 17.425 | 2 | 41.845 | 17.761 | 31.744 | 2 |
| 2025-06-30T15:43:00 | 54.305765 | 7.848803 | 2.0 | 17.683 | 2 | 41.709 | 17.641 | 31.722 | 2 |
| 2025-06-30T15:44:00 | 54.305423 | 7.849092 | 2.0 | 17.305 | 2 | 41.815 | 17.741 | 31.734 | 2 |
| 2025-06-30T15:45:00 | 54.305084 | 7.849362 | 2.0 | 17.753 | 2 | 41.606 | 17.506 | 31.740 | 2 |
| 2025-06-30T15:46:00 | 54.304792 | 7.849723 | 2.0 | 17.984 | 2 | 42.007 | 18.014 | 31.684 | 2 |
| 2025-06-30T15:47:00 | 54.304468 | 7.850035 | 2.0 | 17.473 | 2 | 42.103 | 18.046 | 31.740 | 2 |
| 2025-06-30T15:48:00 | 54.304138 | 7.850337 | 2.0 | 17.319 | 2 | 41.758 | 17.650 | 31.757 | 2 |
| 2025-06-30T15:49:00 | 54.303817 | 7.850660 | 2.0 | 17.173 | 2 | 41.580 | 17.476 | 31.741 | 2 |
| 2025-06-30T15:50:00 | 54.303471 | 7.850944 | 2.0 | 17.167 | 2 | 41.464 | 17.343 | 31.746 | 2 |
| 2025-06-30T15:51:00 | 54.303146 | 7.851261 | 2.0 | 17.182 | 2 | 41.456 | 17.355 | 31.730 | 2 |
| 2025-06-30T15:52:00 | 54.302792 | 7.851542 | 2.0 | 17.162 | 2 | 41.449 | 17.338 | 31.738 | 2 |
| 2025-06-30T15:53:00 | 54.302459 | 7.851860 | 2.0 | 17.222 | 2 | 41.444 | 17.341 | 31.731 | 2 |
| 2025-06-30T15:54:00 | 54.302126 | 7.852181 | 2.0 | 17.217 | 2 | 41.489 | 17.394 | 31.728 | 2 |
| 2025-06-30T15:55:00 | 54.301790 | 7.852511 | 2.0 | 17.207 | 2 | 41.474 | 17.371 | 31.733 | 2 |
| 2025-06-30T15:56:00 | 54.301480 | 7.852868 | 2.0 | 17.190 | 2 | 41.479 | 17.379 | 31.731 | 2 |
| 2025-06-30T15:57:00 | 54.301143 | 7.853180 | 2.0 | 17.144 | 2 | 41.456 | 17.349 | 31.735 | 2 |
| 2025-06-30T15:58:00 | 54.300819 | 7.853519 | 2.0 | 17.206 | 2 | 41.439 | 17.334 | 31.732 | 2 |
| 2025-06-30T15:59:00 | 54.300492 | 7.853840 | 2.0 | 17.151 | 2 | 41.467 | 17.362 | 31.734 | 2 |
| 2025-06-30T16:00:00 | 54.300152 | 7.854150 | 2.0 | 17.158 | 2 | 41.432 | 17.319 | 31.738 | 2 |
| 2025-06-30T16:01:00 | 54.299826 | 7.854464 | 2.0 | 17.129 | 2 | 41.442 | 17.333 | 31.735 | 2 |
| 2025-06-30T16:02:00 | 54.299474 | 7.854744 | 2.0 | 17.144 | 2 | 41.414 | 17.296 | 31.741 | 2 |
| 2025-06-30T16:03:00 | 54.299145 | 7.855050 | 2.0 | 17.167 | 2 | 41.441 | 17.340 | 31.729 | 2 |
| 2025-06-30T16:04:00 | 54.298799 | 7.855310 | 2.0 | 17.144 | 2 | 41.438 | 17.327 | 31.737 | 2 |
| 2025-06-30T16:05:00 | 54.298460 | 7.855599 | 2.0 | 17.325 | 2 | 41.448 | 17.351 | 31.726 | 2 |
| 2025-06-30T16:06:00 | 54.298126 | 7.855862 | 2.0 | 17.166 | 2 | 41.577 | 17.480 | 31.736 | 2 |
| 2025-06-30T16:07:00 | 54.297771 | 7.856102 | 2.0 | 17.208 | 2 | 41.465 | 17.354 | 31.739 | 2 |
| 2025-06-30T16:08:00 | 54.297432 | 7.856379 | 2.0 | 17.243 | 2 | 41.495 | 17.399 | 31.729 | 2 |
| 2025-06-30T16:09:00 | 54.297074 | 7.856611 | 2.0 | 17.193 | 2 | 41.505 | 17.396 | 31.740 | 2 |
| 2025-06-30T16:10:00 | 54.296742 | 7.856870 | 2.0 | 17.388 | 2 | 41.501 | 17.401 | 31.733 | 2 |
| 2025-06-30T16:11:00 | 54.296396 | 7.857098 | 2.0 | 17.200 | 2 | 41.586 | 17.483 | 31.741 | 2 |
| 2025-06-30T16:12:00 | 54.296042 | 7.857296 | 2.0 | 17.258 | 2 | 41.490 | 17.376 | 31.743 | 2 |
| 2025-06-30T16:13:00 | 54.295735 | 7.857539 | 2.0 | 17.371 | 2 | 41.586 | 17.509 | 31.721 | 2 |
| 2025-06-30T16:14:00 | 54.295405 | 7.857727 | 2.0 | 17.190 | 2 | 41.603 | 17.494 | 31.747 | 2 |
